<?xml version='1.0' encoding='UTF-8'?><gpx version="1.1" creator="JPX - https://github.com/jenetics/jpx" xmlns="http://www.topografix.com/GPX/1/1"><trk><trkseg><trkpt lat="42.628493921390465" lon="13.856018299129168"><ele>102.0</ele><time>2026-04-19T07:19:28Z</time></trkpt><trkpt lat="42.62846336062118" lon="13.855867925097288"><ele>102.0</ele><time>2026-04-19T07:19:30Z</time></trkpt><trkpt lat="42.628456791827986" lon="13.855779376486737"><ele>102.0</ele><time>2026-04-19T07:19:31Z</time></trkpt><trkpt lat="42.628447739654" lon="13.85567959062086"><ele>102.0</ele><time>2026-04-19T07:19:32Z</time></trkpt><trkpt lat="42.628434731142" lon="13.855594502135062"><ele>102.0</ele><time>2026-04-19T07:19:33Z</time></trkpt><trkpt lat="42.62841835364653" lon="13.855422395451333"><ele>102.0</ele><time>2026-04-19T07:19:35Z</time></trkpt><trkpt lat="42.62841389888821" lon="13.855303134847263"><ele>102.0</ele><time>2026-04-19T07:19:37Z</time></trkpt><trkpt lat="42.62840619172514" lon="13.855204023938871"><ele>102.0</ele><time>2026-04-19T07:19:39Z</time></trkpt><trkpt lat="42.628396218772195" lon="13.855052872446127"><ele>102.0</ele><time>2026-04-19T07:19:41Z</time></trkpt><trkpt lat="42.62838469043559" lon="13.854888285396083"><ele>102.0</ele><time>2026-04-19T07:19:43Z</time></trkpt><trkpt lat="42.628391091351645" lon="13.854800708592753"><ele>102.0</ele><time>2026-04-19T07:19:44Z</time></trkpt><trkpt lat="42.62836872575107" lon="13.854713207000533"><ele>102.0</ele><time>2026-04-19T07:19:45Z</time></trkpt><trkpt lat="42.62836717525551" lon="13.854537061145283"><ele>102.0</ele><time>2026-04-19T07:19:47Z</time></trkpt><trkpt lat="42.62836111565669" lon="13.854439213149842"><ele>102.0</ele><time>2026-04-19T07:19:48Z</time></trkpt><trkpt lat="42.62834640006409" lon="13.85432778373736"><ele>102.0</ele><time>2026-04-19T07:19:49Z</time></trkpt><trkpt lat="42.62835513406163" lon="13.854214125919565"><ele>102.0</ele><time>2026-04-19T07:19:50Z</time></trkpt><trkpt lat="42.628347898218465" lon="13.854093444644636"><ele>102.0</ele><time>2026-04-19T07:19:51Z</time></trkpt><trkpt lat="42.628340614979045" lon="13.853976935867852"><ele>102.0</ele><time>2026-04-19T07:19:52Z</time></trkpt><trkpt lat="42.628333200569315" lon="13.853859428706095"><ele>102.0</ele><time>2026-04-19T07:19:53Z</time></trkpt><trkpt lat="42.628311031101894" lon="13.853745516613209"><ele>102.0</ele><time>2026-04-19T07:19:54Z</time></trkpt><trkpt lat="42.62830499033571" lon="13.85363348275451"><ele>102.0</ele><time>2026-04-19T07:19:55Z</time></trkpt><trkpt lat="42.628298890124185" lon="13.853517404874381"><ele>102.0</ele><time>2026-04-19T07:19:56Z</time></trkpt><trkpt lat="42.6282907626335" lon="13.85339816251874"><ele>102.0</ele><time>2026-04-19T07:19:57Z</time></trkpt><trkpt lat="42.62829695805967" lon="13.853282227219129"><ele>102.0</ele><time>2026-04-19T07:19:58Z</time></trkpt><trkpt lat="42.628289003404845" lon="13.853152006461237"><ele>102.33333333333334</ele><time>2026-04-19T07:19:59Z</time></trkpt><trkpt lat="42.628278907304605" lon="13.852986905539508"><ele>102.66666666666667</ele><time>2026-04-19T07:20:00Z</time></trkpt><trkpt lat="42.62826517177774" lon="13.852751453823329"><ele>103.0</ele><time>2026-04-19T07:20:00.999Z</time></trkpt><trkpt lat="42.628253479901915" lon="13.85251925517422"><ele>103.33333333333334</ele><time>2026-04-19T07:20:01.999Z</time></trkpt><trkpt lat="42.628258923646335" lon="13.852290612206586"><ele>103.66666666666666</ele><time>2026-04-19T07:20:02.999Z</time></trkpt><trkpt lat="42.62828647836826" lon="13.852044313323187"><ele>104.0</ele><time>2026-04-19T07:20:03.999Z</time></trkpt><trkpt lat="42.628346872862295" lon="13.85182765633965"><ele>104.66666666666666</ele><time>2026-04-19T07:20:04.999Z</time></trkpt><trkpt lat="42.628422336484746" lon="13.85163317792855"><ele>105.33333333333334</ele><time>2026-04-19T07:20:05.999Z</time></trkpt><trkpt lat="42.62850284636119" lon="13.851449073705393"><ele>106.0</ele><time>2026-04-19T07:20:06.999Z</time></trkpt><trkpt lat="42.62858351976608" lon="13.851268704109863"><ele>107.0</ele><time>2026-04-19T07:20:07.999Z</time></trkpt><trkpt lat="42.62866366964394" lon="13.851091375710764"><ele>108.0</ele><time>2026-04-19T07:20:08.999Z</time></trkpt><trkpt lat="42.628731366125685" lon="13.850905222340247"><ele>109.0</ele><time>2026-04-19T07:20:09.999Z</time></trkpt><trkpt lat="42.62881031851719" lon="13.850732528365322"><ele>109.5</ele><time>2026-04-19T07:20:10.999Z</time></trkpt><trkpt lat="42.62888486308872" lon="13.850570566940124"><ele>110.0</ele><time>2026-04-19T07:20:11.999Z</time></trkpt><trkpt lat="42.62895692632094" lon="13.850403574958799"><ele>110.5</ele><time>2026-04-19T07:20:12.999Z</time></trkpt><trkpt lat="42.62903316220186" lon="13.850219074239043"><ele>111.0</ele><time>2026-04-19T07:20:13.999Z</time></trkpt><trkpt lat="42.62910272782402" lon="13.850062955256272"><ele>111.75</ele><time>2026-04-19T07:20:14.999Z</time></trkpt><trkpt lat="42.62916509527008" lon="13.849925309663492"><ele>112.5</ele><time>2026-04-19T07:20:15.999Z</time></trkpt><trkpt lat="42.629215111330936" lon="13.849789834268428"><ele>113.25</ele><time>2026-04-19T07:20:16.999Z</time></trkpt><trkpt lat="42.629244215048836" lon="13.849635651381103"><ele>114.0</ele><time>2026-04-19T07:20:17.999Z</time></trkpt><trkpt lat="42.62924449179537" lon="13.849473511178157"><ele>114.0</ele><time>2026-04-19T07:20:18.999Z</time></trkpt><trkpt lat="42.62923257129494" lon="13.849320659869957"><ele>114.0</ele><time>2026-04-19T07:20:19.999Z</time></trkpt><trkpt lat="42.62921660427311" lon="13.849177840907272"><ele>114.0</ele><time>2026-04-19T07:20:20.999Z</time></trkpt><trkpt lat="42.62920212347211" lon="13.849042439777586"><ele>114.0</ele><time>2026-04-19T07:20:21.999Z</time></trkpt><trkpt lat="42.62918502061556" lon="13.848910155267781"><ele>114.0</ele><time>2026-04-19T07:20:22.999Z</time></trkpt><trkpt lat="42.62916888914832" lon="13.848787470334141"><ele>114.0</ele><time>2026-04-19T07:20:23.999Z</time></trkpt><trkpt lat="42.62915235945825" lon="13.84865408158958"><ele>114.0</ele><time>2026-04-19T07:20:24.999Z</time></trkpt><trkpt lat="42.629132643417854" lon="13.848520792163741"><ele>114.0</ele><time>2026-04-19T07:20:25.999Z</time></trkpt><trkpt lat="42.62911636134147" lon="13.84840611262016"><ele>114.0</ele><time>2026-04-19T07:20:26.999Z</time></trkpt><trkpt lat="42.629103523274935" lon="13.848303588463075"><ele>114.0</ele><time>2026-04-19T07:20:27.999Z</time></trkpt><trkpt lat="42.629091596066885" lon="13.84821815972686"><ele>114.0</ele><time>2026-04-19T07:20:28.999Z</time></trkpt><trkpt lat="42.62908883366269" lon="13.848075791740323"><ele>114.2</ele><time>2026-04-19T07:20:30.999Z</time></trkpt><trkpt lat="42.629069779541446" lon="13.847929427925088"><ele>114.4</ele><time>2026-04-19T07:20:32.999Z</time></trkpt><trkpt lat="42.629057939408625" lon="13.847824712410084"><ele>114.6</ele><time>2026-04-19T07:20:35.999Z</time></trkpt><trkpt lat="42.629036621192036" lon="13.847743719402482"><ele>114.8</ele><time>2026-04-19T07:20:36.999Z</time></trkpt><trkpt lat="42.62902302607676" lon="13.847605886171939"><ele>115.0</ele><time>2026-04-19T07:20:37.999Z</time></trkpt><trkpt lat="42.62900647514114" lon="13.847452225592061"><ele>115.5</ele><time>2026-04-19T07:20:38.999Z</time></trkpt><trkpt lat="42.62898532742437" lon="13.847286742624254"><ele>116.0</ele><time>2026-04-19T07:20:39.999Z</time></trkpt><trkpt lat="42.62897765868351" lon="13.84710675943778"><ele>116.5</ele><time>2026-04-19T07:20:40.999Z</time></trkpt><trkpt lat="42.628955657560304" lon="13.84692196553544"><ele>117.0</ele><time>2026-04-19T07:20:41.999Z</time></trkpt><trkpt lat="42.62893219397767" lon="13.846731564336688"><ele>117.5</ele><time>2026-04-19T07:20:42.999Z</time></trkpt><trkpt lat="42.6289078282057" lon="13.84653384210094"><ele>118.0</ele><time>2026-04-19T07:20:43.999Z</time></trkpt><trkpt lat="42.6288681940427" lon="13.846335111918323"><ele>118.5</ele><time>2026-04-19T07:20:44.999Z</time></trkpt><trkpt lat="42.62884358417262" lon="13.846134664922396"><ele>119.0</ele><time>2026-04-19T07:20:45.999Z</time></trkpt><trkpt lat="42.628819727946336" lon="13.845933986613002"><ele>119.25</ele><time>2026-04-19T07:20:46.999Z</time></trkpt><trkpt lat="42.628798188014194" lon="13.84573941058682"><ele>119.5</ele><time>2026-04-19T07:20:47.999Z</time></trkpt><trkpt lat="42.62877464731139" lon="13.84554107449522"><ele>119.75</ele><time>2026-04-19T07:20:48.999Z</time></trkpt><trkpt lat="42.628750972047726" lon="13.845345455455998"><ele>120.0</ele><time>2026-04-19T07:20:49.999Z</time></trkpt><trkpt lat="42.62872742258175" lon="13.845155221988113"><ele>120.0</ele><time>2026-04-19T07:20:50.999Z</time></trkpt><trkpt lat="42.62870368825116" lon="13.844964988317129"><ele>120.0</ele><time>2026-04-19T07:20:51.999Z</time></trkpt><trkpt lat="42.628683123845335" lon="13.84477872506016"><ele>120.0</ele><time>2026-04-19T07:20:52.999Z</time></trkpt><trkpt lat="42.628660325500064" lon="13.844595067256432"><ele>120.0</ele><time>2026-04-19T07:20:53.999Z</time></trkpt><trkpt lat="42.62863484376195" lon="13.844408235892445"><ele>119.5</ele><time>2026-04-19T07:20:54.999Z</time></trkpt><trkpt lat="42.6286265760055" lon="13.844221003597855"><ele>119.0</ele><time>2026-04-19T07:20:56Z</time></trkpt><trkpt lat="42.628587854361875" lon="13.844040799065239"><ele>118.5</ele><time>2026-04-19T07:20:57Z</time></trkpt><trkpt lat="42.62856769868449" lon="13.843858442378421"><ele>118.0</ele><time>2026-04-19T07:20:58Z</time></trkpt><trkpt lat="42.62854556292253" lon="13.843674747209949"><ele>118.0</ele><time>2026-04-19T07:20:59Z</time></trkpt><trkpt lat="42.628522405972554" lon="13.843488995974266"><ele>118.0</ele><time>2026-04-19T07:21:00Z</time></trkpt><trkpt lat="42.628499387632836" lon="13.843303987379908"><ele>118.0</ele><time>2026-04-19T07:21:01Z</time></trkpt><trkpt lat="42.62849066681613" lon="13.843115911322519"><ele>118.0</ele><time>2026-04-19T07:21:02Z</time></trkpt><trkpt lat="42.628454155877236" lon="13.84293587244939"><ele>117.5</ele><time>2026-04-19T07:21:03Z</time></trkpt><trkpt lat="42.62843542302195" lon="13.842749997830959"><ele>117.0</ele><time>2026-04-19T07:21:04Z</time></trkpt><trkpt lat="42.628412341835954" lon="13.842561802438732"><ele>116.5</ele><time>2026-04-19T07:21:05Z</time></trkpt><trkpt lat="42.628391438774514" lon="13.842379079769705"><ele>116.0</ele><time>2026-04-19T07:21:06Z</time></trkpt><trkpt lat="42.62837147904259" lon="13.842192837648753"><ele>116.0</ele><time>2026-04-19T07:21:07Z</time></trkpt><trkpt lat="42.62835559771009" lon="13.842004319622331"><ele>116.0</ele><time>2026-04-19T07:21:08Z</time></trkpt><trkpt lat="42.628339048749254" lon="13.841822325855539"><ele>116.0</ele><time>2026-04-19T07:21:09Z</time></trkpt><trkpt lat="42.628319815094414" lon="13.841640815096149"><ele>116.0</ele><time>2026-04-19T07:21:10Z</time></trkpt><trkpt lat="42.62829635643631" lon="13.841460980401878"><ele>116.0</ele><time>2026-04-19T07:21:11Z</time></trkpt><trkpt lat="42.62827022435775" lon="13.841287812202838"><ele>116.0</ele><time>2026-04-19T07:21:12Z</time></trkpt><trkpt lat="42.628246469484736" lon="13.841110481503357"><ele>116.0</ele><time>2026-04-19T07:21:13Z</time></trkpt><trkpt lat="42.62822421231956" lon="13.840933937531602"><ele>116.0</ele><time>2026-04-19T07:21:14Z</time></trkpt><trkpt lat="42.628204745568304" lon="13.84075893071307"><ele>115.75</ele><time>2026-04-19T07:21:15Z</time></trkpt><trkpt lat="42.62818881994255" lon="13.840582392620133"><ele>115.5</ele><time>2026-04-19T07:21:16Z</time></trkpt><trkpt lat="42.628178364103725" lon="13.84040733413539"><ele>115.25</ele><time>2026-04-19T07:21:17Z</time></trkpt><trkpt lat="42.62817076201669" lon="13.8402234554401"><ele>115.0</ele><time>2026-04-19T07:21:18Z</time></trkpt><trkpt lat="42.62816530065024" lon="13.84003477412058"><ele>115.0</ele><time>2026-04-19T07:21:19Z</time></trkpt><trkpt lat="42.6281597907388" lon="13.839844297395242"><ele>115.0</ele><time>2026-04-19T07:21:20Z</time></trkpt><trkpt lat="42.628152795927" lon="13.8396454613753"><ele>115.0</ele><time>2026-04-19T07:21:21Z</time></trkpt><trkpt lat="42.62814846811103" lon="13.839444381748915"><ele>115.0</ele><time>2026-04-19T07:21:22Z</time></trkpt><trkpt lat="42.628150306643704" lon="13.839244465264445"><ele>115.0</ele><time>2026-04-19T07:21:23Z</time></trkpt><trkpt lat="42.62815472549285" lon="13.839036565489577"><ele>115.0</ele><time>2026-04-19T07:21:24Z</time></trkpt><trkpt lat="42.62817738425892" lon="13.83883046645971"><ele>115.0</ele><time>2026-04-19T07:21:25Z</time></trkpt><trkpt lat="42.6281730205915" lon="13.838609444036626"><ele>115.25</ele><time>2026-04-19T07:21:26Z</time></trkpt><trkpt lat="42.62820507305763" lon="13.838392460665014"><ele>115.5</ele><time>2026-04-19T07:21:27Z</time></trkpt><trkpt lat="42.628218347036345" lon="13.838201232416461"><ele>115.75</ele><time>2026-04-19T07:21:28Z</time></trkpt><trkpt lat="42.62821425059333" lon="13.838028229052277"><ele>116.0</ele><time>2026-04-19T07:21:29Z</time></trkpt><trkpt lat="42.62823027258645" lon="13.837868175609387"><ele>115.99999999999999</ele><time>2026-04-19T07:21:30Z</time></trkpt><trkpt lat="42.62823749486411" lon="13.83773032465971"><ele>116.0</ele><time>2026-04-19T07:21:31Z</time></trkpt><trkpt lat="42.62826144386994" lon="13.837616905910863"><ele>116.0</ele><time>2026-04-19T07:21:32Z</time></trkpt><trkpt lat="42.62828843045637" lon="13.837510862961938"><ele>116.0</ele><time>2026-04-19T07:21:33Z</time></trkpt><trkpt lat="42.62830317190177" lon="13.837398979260104"><ele>115.99999999999999</ele><time>2026-04-19T07:21:34Z</time></trkpt><trkpt lat="42.62826006393242" lon="13.83729403818233"><ele>116.0</ele><time>2026-04-19T07:21:35Z</time></trkpt><trkpt lat="42.62818620546501" lon="13.837169765581669"><ele>116.5</ele><time>2026-04-19T07:21:36Z</time></trkpt><trkpt lat="42.62812415857403" lon="13.837007747685698"><ele>117.0</ele><time>2026-04-19T07:21:37Z</time></trkpt><trkpt lat="42.62807721527032" lon="13.836837543463783"><ele>117.5</ele><time>2026-04-19T07:21:38Z</time></trkpt><trkpt lat="42.62803035901253" lon="13.836665812773438"><ele>118.0</ele><time>2026-04-19T07:21:39Z</time></trkpt><trkpt lat="42.627981003320556" lon="13.83650822725534"><ele>118.0</ele><time>2026-04-19T07:21:40Z</time></trkpt><trkpt lat="42.62793363953022" lon="13.836352295632654"><ele>118.0</ele><time>2026-04-19T07:21:41Z</time></trkpt><trkpt lat="42.62788659091309" lon="13.83619053887361"><ele>118.0</ele><time>2026-04-19T07:21:42Z</time></trkpt><trkpt lat="42.627836802077795" lon="13.83602664874396"><ele>118.0</ele><time>2026-04-19T07:21:43Z</time></trkpt><trkpt lat="42.62778231667772" lon="13.835857645767826"><ele>117.0</ele><time>2026-04-19T07:21:44Z</time></trkpt><trkpt lat="42.6277353380958" lon="13.83568080565648"><ele>116.0</ele><time>2026-04-19T07:21:45Z</time></trkpt><trkpt lat="42.62769399348005" lon="13.835490412308049"><ele>115.0</ele><time>2026-04-19T07:21:46Z</time></trkpt><trkpt lat="42.62766248589318" lon="13.835275919102756"><ele>114.0</ele><time>2026-04-19T07:21:47Z</time></trkpt><trkpt lat="42.6276424333062" lon="13.835049047688994"><ele>113.33333333333334</ele><time>2026-04-19T07:21:48Z</time></trkpt><trkpt lat="42.62763975983852" lon="13.834802254679257"><ele>112.66666666666667</ele><time>2026-04-19T07:21:49Z</time></trkpt><trkpt lat="42.62765082280354" lon="13.834511917136686"><ele>112.0</ele><time>2026-04-19T07:21:50Z</time></trkpt><trkpt lat="42.62769406906016" lon="13.834171967074058"><ele>112.0</ele><time>2026-04-19T07:21:51Z</time></trkpt><trkpt lat="42.62772538516229" lon="13.83380904093013"><ele>112.0</ele><time>2026-04-19T07:21:52Z</time></trkpt><trkpt lat="42.627744664778895" lon="13.833489744977106"><ele>112.33333333333334</ele><time>2026-04-19T07:21:53Z</time></trkpt><trkpt lat="42.627790872328625" lon="13.833205657423301"><ele>112.66666666666666</ele><time>2026-04-19T07:21:54Z</time></trkpt><trkpt lat="42.62787002855635" lon="13.83295210722904"><ele>113.0</ele><time>2026-04-19T07:21:54.999Z</time></trkpt><trkpt lat="42.627936452989985" lon="13.832700532152863"><ele>112.33333333333333</ele><time>2026-04-19T07:21:55.999Z</time></trkpt><trkpt lat="42.628023855938444" lon="13.83246514010993"><ele>111.66666666666666</ele><time>2026-04-19T07:21:56.999Z</time></trkpt><trkpt lat="42.62811838116144" lon="13.83223569927985"><ele>111.0</ele><time>2026-04-19T07:21:57.999Z</time></trkpt><trkpt lat="42.6282133550668" lon="13.832015634471846"><ele>112.0</ele><time>2026-04-19T07:21:58.999Z</time></trkpt><trkpt lat="42.62831227089325" lon="13.8317981132954"><ele>113.0</ele><time>2026-04-19T07:21:59.999Z</time></trkpt><trkpt lat="42.62841479803027" lon="13.831586893575864"><ele>114.0</ele><time>2026-04-19T07:22:00.999Z</time></trkpt><trkpt lat="42.62851132877706" lon="13.831375641609206"><ele>114.0</ele><time>2026-04-19T07:22:01.999Z</time></trkpt><trkpt lat="42.628602858519855" lon="13.831161398995324"><ele>114.0</ele><time>2026-04-19T07:22:02.999Z</time></trkpt><trkpt lat="42.628691721997306" lon="13.83094730696731"><ele>114.0</ele><time>2026-04-19T07:22:03.999Z</time></trkpt><trkpt lat="42.628781435124594" lon="13.830735011861659"><ele>115.0</ele><time>2026-04-19T07:22:04.999Z</time></trkpt><trkpt lat="42.62887287029498" lon="13.830526776165978"><ele>116.0</ele><time>2026-04-19T07:22:05.999Z</time></trkpt><trkpt lat="42.62896393149284" lon="13.830323714071117"><ele>117.0</ele><time>2026-04-19T07:22:06.999Z</time></trkpt><trkpt lat="42.62904598673525" lon="13.830137921872979"><ele>117.0</ele><time>2026-04-19T07:22:07.999Z</time></trkpt><trkpt lat="42.62911970550974" lon="13.829965281252566"><ele>117.0</ele><time>2026-04-19T07:22:08.999Z</time></trkpt><trkpt lat="42.62918911690174" lon="13.829803376463675"><ele>117.0</ele><time>2026-04-19T07:22:09.999Z</time></trkpt><trkpt lat="42.62925379001536" lon="13.829656330309305"><ele>117.0</ele><time>2026-04-19T07:22:10.999Z</time></trkpt><trkpt lat="42.62931152671929" lon="13.829524753872926"><ele>117.0</ele><time>2026-04-19T07:22:11.999Z</time></trkpt><trkpt lat="42.629369995366" lon="13.829391760222721"><ele>116.99999999999999</ele><time>2026-04-19T07:22:12.999Z</time></trkpt><trkpt lat="42.629422659182396" lon="13.829254633871898"><ele>116.99999999999999</ele><time>2026-04-19T07:22:13.999Z</time></trkpt><trkpt lat="42.62947292081786" lon="13.829116976729027"><ele>117.0</ele><time>2026-04-19T07:22:14.999Z</time></trkpt><trkpt lat="42.6295165495791" lon="13.828983921297343"><ele>117.0</ele><time>2026-04-19T07:22:15.999Z</time></trkpt><trkpt lat="42.629549252997975" lon="13.828865989752678"><ele>118.83333333333333</ele><time>2026-04-19T07:22:16.999Z</time></trkpt><trkpt lat="42.62957414688684" lon="13.82875380408948"><ele>120.66666666666666</ele><time>2026-04-19T07:22:17.999Z</time></trkpt><trkpt lat="42.62959382234556" lon="13.828646675438948"><ele>122.5</ele><time>2026-04-19T07:22:18.999Z</time></trkpt><trkpt lat="42.62960912671215" lon="13.828540310438104"><ele>124.33333333333333</ele><time>2026-04-19T07:22:19.999Z</time></trkpt><trkpt lat="42.62961993920522" lon="13.828432638098137"><ele>126.16666666666666</ele><time>2026-04-19T07:22:20.999Z</time></trkpt><trkpt lat="42.62962596171432" lon="13.828322134192517"><ele>128.0</ele><time>2026-04-19T07:22:21.999Z</time></trkpt><trkpt lat="42.629624600978445" lon="13.828218513196585"><ele>128.0</ele><time>2026-04-19T07:22:22.999Z</time></trkpt><trkpt lat="42.6296169285841" lon="13.828110470927045"><ele>128.0</ele><time>2026-04-19T07:22:23.999Z</time></trkpt><trkpt lat="42.62959980594325" lon="13.827991939352724"><ele>128.0</ele><time>2026-04-19T07:22:24.999Z</time></trkpt><trkpt lat="42.62957721712873" lon="13.827855896748542"><ele>128.0</ele><time>2026-04-19T07:22:25.999Z</time></trkpt><trkpt lat="42.629542388850425" lon="13.82772115342294"><ele>128.0</ele><time>2026-04-19T07:22:26.999Z</time></trkpt><trkpt lat="42.62950538366213" lon="13.827586711790016"><ele>124.5</ele><time>2026-04-19T07:22:27.999Z</time></trkpt><trkpt lat="42.62946885859053" lon="13.827448083788306"><ele>121.0</ele><time>2026-04-19T07:22:28.999Z</time></trkpt><trkpt lat="42.629431317752804" lon="13.827303179810903"><ele>117.5</ele><time>2026-04-19T07:22:29.999Z</time></trkpt><trkpt lat="42.62938944322667" lon="13.827156022158311"><ele>114.0</ele><time>2026-04-19T07:22:30.999Z</time></trkpt><trkpt lat="42.629347119407896" lon="13.827009980078317"><ele>114.0</ele><time>2026-04-19T07:22:31.999Z</time></trkpt><trkpt lat="42.62930686067932" lon="13.826871668488769"><ele>114.0</ele><time>2026-04-19T07:22:32.999Z</time></trkpt><trkpt lat="42.62927055459407" lon="13.826730900045074"><ele>114.0</ele><time>2026-04-19T07:22:33.999Z</time></trkpt><trkpt lat="42.62923136872967" lon="13.82659964059244"><ele>114.0</ele><time>2026-04-19T07:22:34.999Z</time></trkpt><trkpt lat="42.62919164607227" lon="13.82645554129594"><ele>114.0</ele><time>2026-04-19T07:22:35.999Z</time></trkpt><trkpt lat="42.62914887273854" lon="13.826315134764215"><ele>114.5</ele><time>2026-04-19T07:22:36.999Z</time></trkpt><trkpt lat="42.62911065007392" lon="13.826176479647428"><ele>115.0</ele><time>2026-04-19T07:22:37.999Z</time></trkpt><trkpt lat="42.629072278519274" lon="13.826031500220562"><ele>115.5</ele><time>2026-04-19T07:22:38.999Z</time></trkpt><trkpt lat="42.629031043349805" lon="13.825885565043942"><ele>116.0</ele><time>2026-04-19T07:22:39.999Z</time></trkpt><trkpt lat="42.62899056804986" lon="13.825740514718795"><ele>116.6</ele><time>2026-04-19T07:22:40.999Z</time></trkpt><trkpt lat="42.628950305524725" lon="13.825600056250464"><ele>117.19999999999999</ele><time>2026-04-19T07:22:41.999Z</time></trkpt><trkpt lat="42.628910631665796" lon="13.825471405808802"><ele>117.80000000000001</ele><time>2026-04-19T07:22:42.999Z</time></trkpt><trkpt lat="42.62887385880158" lon="13.825332694148694"><ele>118.4</ele><time>2026-04-19T07:22:43.999Z</time></trkpt><trkpt lat="42.62883821735411" lon="13.825195505003986"><ele>119.0</ele><time>2026-04-19T07:22:44.999Z</time></trkpt><trkpt lat="42.62878814631256" lon="13.825054471861051"><ele>119.5</ele><time>2026-04-19T07:22:45.999Z</time></trkpt><trkpt lat="42.62875345337333" lon="13.824910394114843"><ele>120.0</ele><time>2026-04-19T07:22:46.999Z</time></trkpt><trkpt lat="42.628714740219436" lon="13.824763713987446"><ele>120.5</ele><time>2026-04-19T07:22:47.999Z</time></trkpt><trkpt lat="42.62867732024702" lon="13.824616949623302"><ele>121.0</ele><time>2026-04-19T07:22:48.999Z</time></trkpt><trkpt lat="42.62863749177537" lon="13.824471327889858"><ele>119.25</ele><time>2026-04-19T07:22:49.999Z</time></trkpt><trkpt lat="42.62859920405873" lon="13.82431918941519"><ele>117.5</ele><time>2026-04-19T07:22:50.999Z</time></trkpt><trkpt lat="42.62855580977539" lon="13.824164665505759"><ele>115.75</ele><time>2026-04-19T07:22:51.999Z</time></trkpt><trkpt lat="42.62850996491428" lon="13.824009475502928"><ele>114.0</ele><time>2026-04-19T07:22:52.999Z</time></trkpt><trkpt lat="42.628462142300776" lon="13.823857454494501"><ele>114.0</ele><time>2026-04-19T07:22:53.999Z</time></trkpt><trkpt lat="42.62840638550201" lon="13.823719599905093"><ele>114.0</ele><time>2026-04-19T07:22:54.999Z</time></trkpt><trkpt lat="42.62834199221935" lon="13.82358688220758"><ele>114.0</ele><time>2026-04-19T07:22:55.999Z</time></trkpt><trkpt lat="42.62827643373676" lon="13.823467220257802"><ele>114.0</ele><time>2026-04-19T07:22:56.999Z</time></trkpt><trkpt lat="42.628206236806385" lon="13.823355829853742"><ele>115.0</ele><time>2026-04-19T07:22:57.999Z</time></trkpt><trkpt lat="42.62813170737405" lon="13.823246444921185"><ele>116.0</ele><time>2026-04-19T07:22:58.999Z</time></trkpt><trkpt lat="42.628049156768085" lon="13.823142652017442"><ele>117.0</ele><time>2026-04-19T07:22:59.999Z</time></trkpt><trkpt lat="42.627968264376605" lon="13.823036328159477"><ele>118.0</ele><time>2026-04-19T07:23:00.999Z</time></trkpt><trkpt lat="42.62788457227148" lon="13.822927489661124"><ele>117.25</ele><time>2026-04-19T07:23:02Z</time></trkpt><trkpt lat="42.62779716427279" lon="13.822822089861845"><ele>116.5</ele><time>2026-04-19T07:23:03Z</time></trkpt><trkpt lat="42.62770708404343" lon="13.822720077011423"><ele>115.75</ele><time>2026-04-19T07:23:04Z</time></trkpt><trkpt lat="42.627620352345275" lon="13.82262037716322"><ele>115.0</ele><time>2026-04-19T07:23:05Z</time></trkpt><trkpt lat="42.627537539664814" lon="13.822521784814137"><ele>115.0</ele><time>2026-04-19T07:23:06Z</time></trkpt><trkpt lat="42.62745349911362" lon="13.822426229756834"><ele>115.0</ele><time>2026-04-19T07:23:07Z</time></trkpt><trkpt lat="42.6273728720845" lon="13.822312694024681"><ele>115.0</ele><time>2026-04-19T07:23:08Z</time></trkpt><trkpt lat="42.62728679875598" lon="13.822201410528184"><ele>115.0</ele><time>2026-04-19T07:23:09Z</time></trkpt><trkpt lat="42.62719951195057" lon="13.822087816037868"><ele>115.0</ele><time>2026-04-19T07:23:10Z</time></trkpt><trkpt lat="42.627118721761555" lon="13.82193549965275"><ele>115.0</ele><time>2026-04-19T07:23:11Z</time></trkpt><trkpt lat="42.62708081744763" lon="13.821861300418671"><ele>115.0</ele><time>2026-04-19T07:23:13Z</time></trkpt><trkpt lat="42.62703934682781" lon="13.821771863705479"><ele>115.0</ele><time>2026-04-19T07:23:15Z</time></trkpt><trkpt lat="42.626994617185886" lon="13.821655584241787"><ele>115.0</ele><time>2026-04-19T07:23:17Z</time></trkpt><trkpt lat="42.626964170940454" lon="13.821556763717105"><ele>114.83333333333334</ele><time>2026-04-19T07:23:18Z</time></trkpt><trkpt lat="42.626928236436484" lon="13.821420417831481"><ele>114.66666666666667</ele><time>2026-04-19T07:23:19Z</time></trkpt><trkpt lat="42.626905074001805" lon="13.821314065840241"><ele>114.5</ele><time>2026-04-19T07:23:20Z</time></trkpt><trkpt lat="42.62688931428251" lon="13.821228312402802"><ele>114.33333333333334</ele><time>2026-04-19T07:23:22Z</time></trkpt><trkpt lat="42.626866709181925" lon="13.821104375622687"><ele>114.16666666666667</ele><time>2026-04-19T07:24:14.999Z</time></trkpt><trkpt lat="42.62685396871809" lon="13.820988252233045"><ele>114.0</ele><time>2026-04-19T07:24:15.999Z</time></trkpt><trkpt lat="42.6268487105711" lon="13.820817536825043"><ele>114.0</ele><time>2026-04-19T07:24:16.999Z</time></trkpt><trkpt lat="42.62685773060957" lon="13.820630716332229"><ele>114.0</ele><time>2026-04-19T07:24:17.999Z</time></trkpt><trkpt lat="42.626877794542615" lon="13.820431075885622"><ele>114.0</ele><time>2026-04-19T07:24:18.999Z</time></trkpt><trkpt lat="42.62690385992893" lon="13.820232690183438"><ele>114.0</ele><time>2026-04-19T07:24:19.999Z</time></trkpt><trkpt lat="42.626923285302915" lon="13.820047993880058"><ele>113.5</ele><time>2026-04-19T07:24:20.999Z</time></trkpt><trkpt lat="42.626938383832005" lon="13.819875712383523"><ele>113.0</ele><time>2026-04-19T07:24:21.999Z</time></trkpt><trkpt lat="42.62695274855218" lon="13.819696433919972"><ele>112.5</ele><time>2026-04-19T07:24:22.999Z</time></trkpt><trkpt lat="42.62698968920306" lon="13.819481855817706"><ele>112.0</ele><time>2026-04-19T07:24:23.999Z</time></trkpt><trkpt lat="42.627021227638835" lon="13.819202319798956"><ele>115.0</ele><time>2026-04-19T07:24:24.999Z</time></trkpt><trkpt lat="42.62705022321349" lon="13.818925970819581"><ele>118.0</ele><time>2026-04-19T07:24:25.999Z</time></trkpt><trkpt lat="42.62706415369245" lon="13.81865285116423"><ele>121.0</ele><time>2026-04-19T07:24:26.999Z</time></trkpt><trkpt lat="42.627087952155996" lon="13.818371675156195"><ele>122.33333333333334</ele><time>2026-04-19T07:24:27.999Z</time></trkpt><trkpt lat="42.6271015354083" lon="13.818109864351714"><ele>123.66666666666666</ele><time>2026-04-19T07:24:28.999Z</time></trkpt><trkpt lat="42.62711380966205" lon="13.817838380141806"><ele>125.0</ele><time>2026-04-19T07:24:29.999Z</time></trkpt><trkpt lat="42.62712130769279" lon="13.817576808709273"><ele>125.0</ele><time>2026-04-19T07:24:30.999Z</time></trkpt><trkpt lat="42.62712771661905" lon="13.817333107608945"><ele>125.0</ele><time>2026-04-19T07:24:31.999Z</time></trkpt><trkpt lat="42.627130943445586" lon="13.81710172772342"><ele>125.0</ele><time>2026-04-19T07:24:32.999Z</time></trkpt><trkpt lat="42.627127548472224" lon="13.816860680342273"><ele>125.66666666666666</ele><time>2026-04-19T07:24:33.999Z</time></trkpt><trkpt lat="42.62711316864552" lon="13.8166013455386"><ele>126.33333333333334</ele><time>2026-04-19T07:24:34.999Z</time></trkpt><trkpt lat="42.62708272770652" lon="13.816337135834933"><ele>127.0</ele><time>2026-04-19T07:24:35.999Z</time></trkpt><trkpt lat="42.627037910760286" lon="13.816067164955383"><ele>128.0</ele><time>2026-04-19T07:24:36.999Z</time></trkpt><trkpt lat="42.62699032232129" lon="13.81579088581135"><ele>129.0</ele><time>2026-04-19T07:24:37.999Z</time></trkpt><trkpt lat="42.62694338250572" lon="13.815503803371334"><ele>130.0</ele><time>2026-04-19T07:24:38.999Z</time></trkpt><trkpt lat="42.62689535186845" lon="13.815212177956983"><ele>124.0</ele><time>2026-04-19T07:24:39.999Z</time></trkpt><trkpt lat="42.62684641040259" lon="13.814923123694289"><ele>118.0</ele><time>2026-04-19T07:24:40.999Z</time></trkpt><trkpt lat="42.626793491696425" lon="13.814633562717548"><ele>112.0</ele><time>2026-04-19T07:24:41.999Z</time></trkpt><trkpt lat="42.626736164659164" lon="13.814346420720554"><ele>113.66666666666667</ele><time>2026-04-19T07:24:42.999Z</time></trkpt><trkpt lat="42.6266748382564" lon="13.814058856753494"><ele>115.33333333333334</ele><time>2026-04-19T07:24:43.999Z</time></trkpt><trkpt lat="42.62660892471523" lon="13.8137736352702"><ele>117.0</ele><time>2026-04-19T07:24:44.999Z</time></trkpt><trkpt lat="42.62654040593304" lon="13.813492773841123"><ele>118.33333333333334</ele><time>2026-04-19T07:24:45.999Z</time></trkpt><trkpt lat="42.62646488908673" lon="13.81321816209189"><ele>119.66666666666667</ele><time>2026-04-19T07:24:46.999Z</time></trkpt><trkpt lat="42.62639291788518" lon="13.812963187556475"><ele>121.0</ele><time>2026-04-19T07:24:47.999Z</time></trkpt><trkpt lat="42.62632620258916" lon="13.81271258196768"><ele>123.33333333333334</ele><time>2026-04-19T07:24:48.999Z</time></trkpt><trkpt lat="42.62627097030067" lon="13.812463861140492"><ele>125.66666666666666</ele><time>2026-04-19T07:24:49.999Z</time></trkpt><trkpt lat="42.626233807114396" lon="13.81220991405806"><ele>128.0</ele><time>2026-04-19T07:24:50.999Z</time></trkpt><trkpt lat="42.62620339417184" lon="13.811954472552454"><ele>128.66666666666666</ele><time>2026-04-19T07:24:51.999Z</time></trkpt><trkpt lat="42.62618430105363" lon="13.811703035741909"><ele>129.33333333333334</ele><time>2026-04-19T07:24:52.999Z</time></trkpt><trkpt lat="42.62617379110245" lon="13.811450997562272"><ele>130.0</ele><time>2026-04-19T07:24:53.999Z</time></trkpt><trkpt lat="42.626174323363" lon="13.811199621177996"><ele>130.33333333333334</ele><time>2026-04-19T07:24:54.999Z</time></trkpt><trkpt lat="42.62617799729171" lon="13.810947886778251"><ele>130.66666666666666</ele><time>2026-04-19T07:24:55.999Z</time></trkpt><trkpt lat="42.6261786226856" lon="13.810697644553349"><ele>131.0</ele><time>2026-04-19T07:24:56.999Z</time></trkpt><trkpt lat="42.626177824611176" lon="13.81045247111804"><ele>131.0</ele><time>2026-04-19T07:24:57.999Z</time></trkpt><trkpt lat="42.62617807646115" lon="13.810211302423868"><ele>131.0</ele><time>2026-04-19T07:24:58.999Z</time></trkpt><trkpt lat="42.62618168767012" lon="13.809974515761496"><ele>131.0</ele><time>2026-04-19T07:24:59.999Z</time></trkpt><trkpt lat="42.6261826388105" lon="13.80973484015184"><ele>133.33333333333331</ele><time>2026-04-19T07:25:00.999Z</time></trkpt><trkpt lat="42.626182966597845" lon="13.809496107258463"><ele>135.66666666666666</ele><time>2026-04-19T07:25:01.999Z</time></trkpt><trkpt lat="42.626182472993015" lon="13.809261154610974"><ele>138.0</ele><time>2026-04-19T07:25:02.999Z</time></trkpt><trkpt lat="42.62617858187623" lon="13.809025145963966"><ele>138.0</ele><time>2026-04-19T07:25:03.999Z</time></trkpt><trkpt lat="42.626173379632" lon="13.808789629636928"><ele>138.0</ele><time>2026-04-19T07:25:04.998Z</time></trkpt><trkpt lat="42.626168253903465" lon="13.808555573879751"><ele>138.0</ele><time>2026-04-19T07:25:05.998Z</time></trkpt><trkpt lat="42.62616003391224" lon="13.808321901941738"><ele>136.66666666666666</ele><time>2026-04-19T07:25:06.998Z</time></trkpt><trkpt lat="42.62614709141067" lon="13.808096233737393"><ele>135.33333333333331</ele><time>2026-04-19T07:25:08Z</time></trkpt><trkpt lat="42.62613280695301" lon="13.80788953642234"><ele>134.0</ele><time>2026-04-19T07:25:09Z</time></trkpt><trkpt lat="42.62611623139965" lon="13.807700956527913"><ele>131.0</ele><time>2026-04-19T07:25:10Z</time></trkpt><trkpt lat="42.62609952141569" lon="13.807527872835545"><ele>128.0</ele><time>2026-04-19T07:25:11Z</time></trkpt><trkpt lat="42.62608238564346" lon="13.80737092070182"><ele>125.0</ele><time>2026-04-19T07:25:12Z</time></trkpt><trkpt lat="42.62606610949128" lon="13.807232811313014"><ele>122.0</ele><time>2026-04-19T07:25:13Z</time></trkpt><trkpt lat="42.626057860150205" lon="13.807119127286871"><ele>119.0</ele><time>2026-04-19T07:25:14Z</time></trkpt><trkpt lat="42.62605877528326" lon="13.807023253809907"><ele>119.0</ele><time>2026-04-19T07:25:15Z</time></trkpt><trkpt lat="42.62606981841517" lon="13.806938275783617"><ele>119.0</ele><time>2026-04-19T07:25:16Z</time></trkpt><trkpt lat="42.62610374314758" lon="13.806820761707206"><ele>119.0</ele><time>2026-04-19T07:25:18Z</time></trkpt><trkpt lat="42.62613586947436" lon="13.806730072082571"><ele>119.0</ele><time>2026-04-19T07:25:20Z</time></trkpt><trkpt lat="42.62618892301293" lon="13.80663476903459"><ele>119.0</ele><time>2026-04-19T07:25:22Z</time></trkpt><trkpt lat="42.626050504589074" lon="13.806541051241236"><ele>119.25</ele><time>2026-04-19T07:25:23Z</time></trkpt><trkpt lat="42.625982277478144" lon="13.806366016323175"><ele>119.5</ele><time>2026-04-19T07:25:25Z</time></trkpt><trkpt lat="42.625916188327416" lon="13.80626141695913"><ele>119.75</ele><time>2026-04-19T07:25:26Z</time></trkpt><trkpt lat="42.62589286613273" lon="13.806063503580168"><ele>120.0</ele><time>2026-04-19T07:25:27Z</time></trkpt><trkpt lat="42.62586658727356" lon="13.80585874179894"><ele>120.75</ele><time>2026-04-19T07:25:28Z</time></trkpt><trkpt lat="42.62584517565931" lon="13.80567255090793"><ele>121.5</ele><time>2026-04-19T07:25:29Z</time></trkpt><trkpt lat="42.62582089066008" lon="13.805496750247265"><ele>122.25</ele><time>2026-04-19T07:25:30Z</time></trkpt><trkpt lat="42.62578877305552" lon="13.805307818027496"><ele>123.0</ele><time>2026-04-19T07:25:31Z</time></trkpt><trkpt lat="42.62574394078339" lon="13.805108390942367"><ele>124.33333333333334</ele><time>2026-04-19T07:25:32Z</time></trkpt><trkpt lat="42.62568416394259" lon="13.804906855025713"><ele>125.66666666666667</ele><time>2026-04-19T07:25:33Z</time></trkpt><trkpt lat="42.625607759717646" lon="13.804696824181589"><ele>127.0</ele><time>2026-04-19T07:25:34Z</time></trkpt><trkpt lat="42.62550365938057" lon="13.804486384086648"><ele>128.33333333333334</ele><time>2026-04-19T07:25:35Z</time></trkpt><trkpt lat="42.62536765063568" lon="13.804278430300164"><ele>129.66666666666666</ele><time>2026-04-19T07:25:36Z</time></trkpt><trkpt lat="42.625220422345336" lon="13.804089870541548"><ele>131.0</ele><time>2026-04-19T07:25:37Z</time></trkpt><trkpt lat="42.62507872220905" lon="13.803923361193245"><ele>130.33333333333331</ele><time>2026-04-19T07:25:38Z</time></trkpt><trkpt lat="42.62494289621745" lon="13.803764933725299"><ele>129.66666666666666</ele><time>2026-04-19T07:25:39Z</time></trkpt><trkpt lat="42.62480366403159" lon="13.803590709797247"><ele>129.0</ele><time>2026-04-19T07:25:40Z</time></trkpt><trkpt lat="42.624669444851925" lon="13.803403769260012"><ele>129.0</ele><time>2026-04-19T07:25:41Z</time></trkpt><trkpt lat="42.62453319262564" lon="13.80320937974336"><ele>129.0</ele><time>2026-04-19T07:25:42Z</time></trkpt><trkpt lat="42.62439929096728" lon="13.80301217394725"><ele>129.0</ele><time>2026-04-19T07:25:43Z</time></trkpt><trkpt lat="42.6242608380187" lon="13.802811997614524"><ele>128.0</ele><time>2026-04-19T07:25:44Z</time></trkpt><trkpt lat="42.62412029586165" lon="13.802607153438569"><ele>127.0</ele><time>2026-04-19T07:25:45Z</time></trkpt><trkpt lat="42.62398386471772" lon="13.802399531220825"><ele>126.0</ele><time>2026-04-19T07:25:46Z</time></trkpt><trkpt lat="42.623855197393226" lon="13.802183102337846"><ele>126.0</ele><time>2026-04-19T07:25:47Z</time></trkpt><trkpt lat="42.62373488451051" lon="13.801943100152124"><ele>126.0</ele><time>2026-04-19T07:25:48Z</time></trkpt><trkpt lat="42.623633459954696" lon="13.801694445465694"><ele>126.0</ele><time>2026-04-19T07:25:49Z</time></trkpt><trkpt lat="42.6235479962907" lon="13.801432865309565"><ele>123.33333333333334</ele><time>2026-04-19T07:25:50Z</time></trkpt><trkpt lat="42.62346665290851" lon="13.801166897709082"><ele>120.66666666666667</ele><time>2026-04-19T07:25:51Z</time></trkpt><trkpt lat="42.62340971963663" lon="13.800901515024215"><ele>118.0</ele><time>2026-04-19T07:25:52Z</time></trkpt><trkpt lat="42.62334563949334" lon="13.80065963090284"><ele>118.0</ele><time>2026-04-19T07:25:53Z</time></trkpt><trkpt lat="42.62329888455164" lon="13.800421675584545"><ele>118.0</ele><time>2026-04-19T07:25:54Z</time></trkpt><trkpt lat="42.62326760450057" lon="13.800172700779816"><ele>118.0</ele><time>2026-04-19T07:25:55Z</time></trkpt><trkpt lat="42.62324062652956" lon="13.799911760761908"><ele>118.33333333333334</ele><time>2026-04-19T07:25:56Z</time></trkpt><trkpt lat="42.62324924405362" lon="13.79962776737133"><ele>118.66666666666666</ele><time>2026-04-19T07:25:57Z</time></trkpt><trkpt lat="42.62327640767859" lon="13.799333959379133"><ele>119.0</ele><time>2026-04-19T07:25:58Z</time></trkpt><trkpt lat="42.62330896050329" lon="13.799041784784281"><ele>119.33333333333333</ele><time>2026-04-19T07:25:59Z</time></trkpt><trkpt lat="42.623338352991304" lon="13.79876342684357"><ele>119.66666666666666</ele><time>2026-04-19T07:26:00Z</time></trkpt><trkpt lat="42.62336220484811" lon="13.798488159235028"><ele>120.0</ele><time>2026-04-19T07:26:01Z</time></trkpt><trkpt lat="42.62338162857748" lon="13.79822375524768"><ele>120.66666666666666</ele><time>2026-04-19T07:26:02Z</time></trkpt><trkpt lat="42.623393694361134" lon="13.79795669268023"><ele>121.33333333333333</ele><time>2026-04-19T07:26:03Z</time></trkpt><trkpt lat="42.62339311009715" lon="13.79767714090687"><ele>122.0</ele><time>2026-04-19T07:26:04Z</time></trkpt><trkpt lat="42.623378759099246" lon="13.797377723484596"><ele>122.0</ele><time>2026-04-19T07:26:05Z</time></trkpt><trkpt lat="42.62335509145007" lon="13.79709001297316"><ele>122.0</ele><time>2026-04-19T07:26:05.999Z</time></trkpt><trkpt lat="42.62332944610808" lon="13.796799291453173"><ele>122.0</ele><time>2026-04-19T07:26:06.999Z</time></trkpt><trkpt lat="42.62330330896629" lon="13.796517000682856"><ele>122.0</ele><time>2026-04-19T07:26:07.999Z</time></trkpt><trkpt lat="42.623277213035784" lon="13.7962438885958"><ele>122.0</ele><time>2026-04-19T07:26:08.999Z</time></trkpt><trkpt lat="42.62324913937434" lon="13.795967240884673"><ele>122.0</ele><time>2026-04-19T07:26:09.999Z</time></trkpt><trkpt lat="42.62322243276156" lon="13.795684055770119"><ele>122.0</ele><time>2026-04-19T07:26:10.999Z</time></trkpt><trkpt lat="42.62319269829655" lon="13.79537172419074"><ele>122.0</ele><time>2026-04-19T07:26:11.999Z</time></trkpt><trkpt lat="42.6231667369368" lon="13.79508947154785"><ele>122.0</ele><time>2026-04-19T07:26:12.999Z</time></trkpt><trkpt lat="42.62314032610301" lon="13.794809020752243"><ele>123.0</ele><time>2026-04-19T07:26:13.999Z</time></trkpt><trkpt lat="42.62311295546865" lon="13.79452630005992"><ele>124.0</ele><time>2026-04-19T07:26:14.999Z</time></trkpt><trkpt lat="42.62308496063172" lon="13.79424744988242"><ele>125.0</ele><time>2026-04-19T07:26:15.999Z</time></trkpt><trkpt lat="42.623057747929614" lon="13.793972012646018"><ele>127.33333333333333</ele><time>2026-04-19T07:26:16.999Z</time></trkpt><trkpt lat="42.623031089995244" lon="13.793693189211742"><ele>129.66666666666666</ele><time>2026-04-19T07:26:17.999Z</time></trkpt><trkpt lat="42.62300319615128" lon="13.793412806181976"><ele>132.0</ele><time>2026-04-19T07:26:18.999Z</time></trkpt><trkpt lat="42.622975335160156" lon="13.793132797334415"><ele>132.66666666666666</ele><time>2026-04-19T07:26:19.999Z</time></trkpt><trkpt lat="42.62294718335905" lon="13.79284982586936"><ele>133.33333333333331</ele><time>2026-04-19T07:26:20.999Z</time></trkpt><trkpt lat="42.62291906197978" lon="13.79256557044183"><ele>134.0</ele><time>2026-04-19T07:26:21.999Z</time></trkpt><trkpt lat="42.6228908929717" lon="13.792280326251548"><ele>135.33333333333331</ele><time>2026-04-19T07:26:22.999Z</time></trkpt><trkpt lat="42.622861506727965" lon="13.791993637326181"><ele>136.66666666666666</ele><time>2026-04-19T07:26:23.999Z</time></trkpt><trkpt lat="42.622847404803565" lon="13.791703564591227"><ele>138.0</ele><time>2026-04-19T07:26:24.999Z</time></trkpt><trkpt lat="42.62281976644969" lon="13.791416324021093"><ele>135.66666666666666</ele><time>2026-04-19T07:26:25.999Z</time></trkpt><trkpt lat="42.62279195828387" lon="13.7911273186278"><ele>133.33333333333331</ele><time>2026-04-19T07:26:26.999Z</time></trkpt><trkpt lat="42.62276094566724" lon="13.7908166493217"><ele>131.0</ele><time>2026-04-19T07:26:27.999Z</time></trkpt><trkpt lat="42.622712610448765" lon="13.790475586301524"><ele>132.0</ele><time>2026-04-19T07:26:28.999Z</time></trkpt><trkpt lat="42.62267681047113" lon="13.790110651448238"><ele>133.0</ele><time>2026-04-19T07:26:29.999Z</time></trkpt><trkpt lat="42.62264037433396" lon="13.789758583125643"><ele>133.0</ele><time>2026-04-19T07:26:30.999Z</time></trkpt><trkpt lat="42.62260723767656" lon="13.7894258414379"><ele>133.0</ele><time>2026-04-19T07:26:31.999Z</time></trkpt><trkpt lat="42.622591378099266" lon="13.789107592830478"><ele>133.5</ele><time>2026-04-19T07:26:32.999Z</time></trkpt><trkpt lat="42.622544410554994" lon="13.78880496543203"><ele>134.0</ele><time>2026-04-19T07:26:33.999Z</time></trkpt><trkpt lat="42.622515468802106" lon="13.788504805562061"><ele>134.66666666666666</ele><time>2026-04-19T07:26:34.999Z</time></trkpt><trkpt lat="42.62248794389765" lon="13.788207607788278"><ele>135.33333333333334</ele><time>2026-04-19T07:26:35.999Z</time></trkpt><trkpt lat="42.622454667147764" lon="13.787905055599358"><ele>136.0</ele><time>2026-04-19T07:26:36.999Z</time></trkpt><trkpt lat="42.62241067359979" lon="13.787601100507944"><ele>136.5</ele><time>2026-04-19T07:26:37.999Z</time></trkpt><trkpt lat="42.62233798453728" lon="13.787300701751377"><ele>137.0</ele><time>2026-04-19T07:26:38.999Z</time></trkpt><trkpt lat="42.622245348503576" lon="13.787004843839876"><ele>138.5</ele><time>2026-04-19T07:26:39.999Z</time></trkpt><trkpt lat="42.622136093072925" lon="13.786713438239463"><ele>140.0</ele><time>2026-04-19T07:26:40.999Z</time></trkpt><trkpt lat="42.62201664130376" lon="13.786421967388188"><ele>138.0</ele><time>2026-04-19T07:26:41.999Z</time></trkpt><trkpt lat="42.62190023995673" lon="13.786126992252717"><ele>136.0</ele><time>2026-04-19T07:26:42.999Z</time></trkpt><trkpt lat="42.62179030525519" lon="13.785841620568053"><ele>136.0</ele><time>2026-04-19T07:26:43.999Z</time></trkpt><trkpt lat="42.6216785788542" lon="13.785567269469443"><ele>136.0</ele><time>2026-04-19T07:26:44.999Z</time></trkpt><trkpt lat="42.62156135348151" lon="13.785303968561784"><ele>138.0</ele><time>2026-04-19T07:26:45.999Z</time></trkpt><trkpt lat="42.62143756472707" lon="13.785044671998222"><ele>140.0</ele><time>2026-04-19T07:26:46.999Z</time></trkpt><trkpt lat="42.621310733264885" lon="13.784789111504685"><ele>140.0</ele><time>2026-04-19T07:26:47.999Z</time></trkpt><trkpt lat="42.62118133949601" lon="13.784537300641349"><ele>140.0</ele><time>2026-04-19T07:26:48.999Z</time></trkpt><trkpt lat="42.6210493243889" lon="13.784291512047565"><ele>138.66666666666666</ele><time>2026-04-19T07:26:49.999Z</time></trkpt><trkpt lat="42.62091682871682" lon="13.784049024129578"><ele>137.33333333333334</ele><time>2026-04-19T07:26:50.999Z</time></trkpt><trkpt lat="42.62078908043098" lon="13.783809498771774"><ele>136.0</ele><time>2026-04-19T07:26:51.999Z</time></trkpt><trkpt lat="42.62066640283536" lon="13.783565137256216"><ele>136.66666666666669</ele><time>2026-04-19T07:26:52.999Z</time></trkpt><trkpt lat="42.62054708282344" lon="13.783318862272552"><ele>137.33333333333334</ele><time>2026-04-19T07:26:53.999Z</time></trkpt><trkpt lat="42.620428600882484" lon="13.783077461309547"><ele>138.0</ele><time>2026-04-19T07:26:54.999Z</time></trkpt><trkpt lat="42.620306731012946" lon="13.782839378286337"><ele>137.0</ele><time>2026-04-19T07:26:55.999Z</time></trkpt><trkpt lat="42.62018071524025" lon="13.782604439953184"><ele>136.0</ele><time>2026-04-19T07:26:56.999Z</time></trkpt><trkpt lat="42.62004526305802" lon="13.782379325330107"><ele>135.0</ele><time>2026-04-19T07:26:57.999Z</time></trkpt><trkpt lat="42.619897755379355" lon="13.782169394266498"><ele>135.0</ele><time>2026-04-19T07:26:58.999Z</time></trkpt><trkpt lat="42.61974031506512" lon="13.781977473231773"><ele>135.0</ele><time>2026-04-19T07:26:59.999Z</time></trkpt><trkpt lat="42.61957550037845" lon="13.781791364398844"><ele>135.0</ele><time>2026-04-19T07:27:00.999Z</time></trkpt><trkpt lat="42.61941196481282" lon="13.781603564499935"><ele>136.33333333333334</ele><time>2026-04-19T07:27:01.999Z</time></trkpt><trkpt lat="42.619250370748496" lon="13.781412587673907"><ele>137.66666666666669</ele><time>2026-04-19T07:27:02.999Z</time></trkpt><trkpt lat="42.61909671084052" lon="13.78120754286939"><ele>139.0</ele><time>2026-04-19T07:27:03.999Z</time></trkpt><trkpt lat="42.6189688984408" lon="13.78097590662022"><ele>139.33333333333334</ele><time>2026-04-19T07:27:04.999Z</time></trkpt><trkpt lat="42.618871239104685" lon="13.780714859787162"><ele>139.66666666666666</ele><time>2026-04-19T07:27:05.999Z</time></trkpt><trkpt lat="42.61879309891317" lon="13.780440338433253"><ele>140.0</ele><time>2026-04-19T07:27:06.999Z</time></trkpt><trkpt lat="42.61872643667786" lon="13.780159953016001"><ele>140.0</ele><time>2026-04-19T07:27:07.999Z</time></trkpt><trkpt lat="42.61866396211458" lon="13.779868823273723"><ele>140.0</ele><time>2026-04-19T07:27:08.999Z</time></trkpt><trkpt lat="42.61860166884058" lon="13.779574867045302"><ele>140.0</ele><time>2026-04-19T07:27:09.999Z</time></trkpt><trkpt lat="42.618538448681655" lon="13.779276644305405"><ele>138.0</ele><time>2026-04-19T07:27:10.999Z</time></trkpt><trkpt lat="42.618471055847" lon="13.778982130299635"><ele>136.0</ele><time>2026-04-19T07:27:11.999Z</time></trkpt><trkpt lat="42.618404957526145" lon="13.778691626908916"><ele>136.66666666666669</ele><time>2026-04-19T07:27:12.999Z</time></trkpt><trkpt lat="42.618340239883636" lon="13.778401305606026"><ele>137.33333333333334</ele><time>2026-04-19T07:27:14Z</time></trkpt><trkpt lat="42.618279117289056" lon="13.778113364120024"><ele>138.0</ele><time>2026-04-19T07:27:15Z</time></trkpt><trkpt lat="42.61822016209368" lon="13.777827146837287"><ele>138.66666666666666</ele><time>2026-04-19T07:27:16Z</time></trkpt><trkpt lat="42.6181623102867" lon="13.777543389333701"><ele>139.33333333333331</ele><time>2026-04-19T07:27:17Z</time></trkpt><trkpt lat="42.61810641671568" lon="13.777256061057297"><ele>140.0</ele><time>2026-04-19T07:27:18Z</time></trkpt><trkpt lat="42.61805674753936" lon="13.776962401166847"><ele>139.5</ele><time>2026-04-19T07:27:19Z</time></trkpt><trkpt lat="42.61801437794752" lon="13.776662730054085"><ele>139.0</ele><time>2026-04-19T07:27:20Z</time></trkpt><trkpt lat="42.61797706548938" lon="13.776359415856083"><ele>139.0</ele><time>2026-04-19T07:27:21Z</time></trkpt><trkpt lat="42.6179379497613" lon="13.776042448494328"><ele>139.0</ele><time>2026-04-19T07:27:22Z</time></trkpt><trkpt lat="42.617883154124684" lon="13.775697731274093"><ele>138.0</ele><time>2026-04-19T07:27:23Z</time></trkpt><trkpt lat="42.61780036833177" lon="13.775333285475218"><ele>137.0</ele><time>2026-04-19T07:27:24Z</time></trkpt><trkpt lat="42.61768363927967" lon="13.774952375117007"><ele>137.0</ele><time>2026-04-19T07:27:25Z</time></trkpt><trkpt lat="42.617544391866545" lon="13.774581248490058"><ele>137.0</ele><time>2026-04-19T07:27:26Z</time></trkpt><trkpt lat="42.617399888212034" lon="13.774218880294274"><ele>138.0</ele><time>2026-04-19T07:27:27Z</time></trkpt><trkpt lat="42.61725673261359" lon="13.773864373979912"><ele>139.0</ele><time>2026-04-19T07:27:28Z</time></trkpt><trkpt lat="42.61711687572339" lon="13.773523849756383"><ele>138.5</ele><time>2026-04-19T07:27:29Z</time></trkpt><trkpt lat="42.61698045228901" lon="13.773190558097275"><ele>138.0</ele><time>2026-04-19T07:27:30Z</time></trkpt><trkpt lat="42.616850772766995" lon="13.772864316015731"><ele>138.5</ele><time>2026-04-19T07:27:31Z</time></trkpt><trkpt lat="42.6167230730369" lon="13.772538556864287"><ele>139.0</ele><time>2026-04-19T07:27:32Z</time></trkpt><trkpt lat="42.616595922013104" lon="13.77221495502905"><ele>139.0</ele><time>2026-04-19T07:27:33Z</time></trkpt><trkpt lat="42.61646579684343" lon="13.77188670216571"><ele>139.0</ele><time>2026-04-19T07:27:34Z</time></trkpt><trkpt lat="42.61633205941299" lon="13.771546382411803"><ele>138.5</ele><time>2026-04-19T07:27:35Z</time></trkpt><trkpt lat="42.616196976502735" lon="13.771193539248948"><ele>138.0</ele><time>2026-04-19T07:27:36Z</time></trkpt><trkpt lat="42.61606784607022" lon="13.770847277026533"><ele>138.0</ele><time>2026-04-19T07:27:37Z</time></trkpt><trkpt lat="42.61594712534333" lon="13.77052636823775"><ele>138.0</ele><time>2026-04-19T07:27:38Z</time></trkpt><trkpt lat="42.615831600983114" lon="13.770222516092439"><ele>140.0</ele><time>2026-04-19T07:27:39Z</time></trkpt><trkpt lat="42.61572221530422" lon="13.76992441598612"><ele>142.0</ele><time>2026-04-19T07:27:40Z</time></trkpt><trkpt lat="42.61561426234187" lon="13.76962518326822"><ele>143.5</ele><time>2026-04-19T07:27:41Z</time></trkpt><trkpt lat="42.61551132699503" lon="13.76932973457867"><ele>145.0</ele><time>2026-04-19T07:27:42Z</time></trkpt><trkpt lat="42.61541471504495" lon="13.769034009426692"><ele>145.0</ele><time>2026-04-19T07:27:43Z</time></trkpt><trkpt lat="42.615327168007205" lon="13.768757164389706"><ele>145.0</ele><time>2026-04-19T07:27:44Z</time></trkpt><trkpt lat="42.615245313062225" lon="13.76850287298086"><ele>145.0</ele><time>2026-04-19T07:27:45Z</time></trkpt><trkpt lat="42.615166351341635" lon="13.768273503039643"><ele>145.0</ele><time>2026-04-19T07:27:46Z</time></trkpt><trkpt lat="42.615088972304854" lon="13.768061873866744"><ele>145.0</ele><time>2026-04-19T07:27:47Z</time></trkpt><trkpt lat="42.615037937145445" lon="13.767864429109116"><ele>145.0</ele><time>2026-04-19T07:27:48Z</time></trkpt><trkpt lat="42.61496670841435" lon="13.767697692524779"><ele>146.75</ele><time>2026-04-19T07:27:49Z</time></trkpt><trkpt lat="42.614885035021466" lon="13.767560949503169"><ele>148.5</ele><time>2026-04-19T07:27:50Z</time></trkpt><trkpt lat="42.61484147609614" lon="13.767382929002865"><ele>150.25</ele><time>2026-04-19T07:27:51Z</time></trkpt><trkpt lat="42.614789849206375" lon="13.76719822096075"><ele>152.0</ele><time>2026-04-19T07:27:52Z</time></trkpt><trkpt lat="42.61473181830203" lon="13.767013555610658"><ele>153.33333333333331</ele><time>2026-04-19T07:27:53Z</time></trkpt><trkpt lat="42.6146788323628" lon="13.766820225819146"><ele>154.66666666666666</ele><time>2026-04-19T07:27:54Z</time></trkpt><trkpt lat="42.614623590419725" lon="13.766618768078322"><ele>156.0</ele><time>2026-04-19T07:27:55Z</time></trkpt><trkpt lat="42.61456386652135" lon="13.766414454328372"><ele>156.0</ele><time>2026-04-19T07:27:56Z</time></trkpt><trkpt lat="42.61449642443491" lon="13.76620612793378"><ele>156.0</ele><time>2026-04-19T07:27:57Z</time></trkpt><trkpt lat="42.614424554224215" lon="13.765993724023275"><ele>156.0</ele><time>2026-04-19T07:27:58Z</time></trkpt><trkpt lat="42.6143533680487" lon="13.765772797920617"><ele>155.33333333333334</ele><time>2026-04-19T07:27:59Z</time></trkpt><trkpt lat="42.61428296644392" lon="13.765539195573494"><ele>154.66666666666669</ele><time>2026-04-19T07:28:00Z</time></trkpt><trkpt lat="42.61421632491401" lon="13.765291169237639"><ele>154.0</ele><time>2026-04-19T07:28:01Z</time></trkpt><trkpt lat="42.61416370951431" lon="13.765007391148712"><ele>154.0</ele><time>2026-04-19T07:28:02Z</time></trkpt><trkpt lat="42.61412741413801" lon="13.76466845245269"><ele>154.0</ele><time>2026-04-19T07:28:03Z</time></trkpt><trkpt lat="42.61411253826837" lon="13.764285256232874"><ele>154.0</ele><time>2026-04-19T07:28:04Z</time></trkpt><trkpt lat="42.61412429609287" lon="13.763866610387053"><ele>154.0</ele><time>2026-04-19T07:28:05Z</time></trkpt><trkpt lat="42.61415795588977" lon="13.76348459416383"><ele>155.5</ele><time>2026-04-19T07:28:06Z</time></trkpt><trkpt lat="42.61418932804866" lon="13.763153926387531"><ele>157.0</ele><time>2026-04-19T07:28:07Z</time></trkpt><trkpt lat="42.6142269868008" lon="13.762840284245632"><ele>158.0</ele><time>2026-04-19T07:28:08Z</time></trkpt><trkpt lat="42.61423050352954" lon="13.762541887309101"><ele>159.0</ele><time>2026-04-19T07:28:09Z</time></trkpt><trkpt lat="42.614251675354886" lon="13.76227512610295"><ele>160.0</ele><time>2026-04-19T07:28:10Z</time></trkpt><trkpt lat="42.61427978469625" lon="13.762002924523706"><ele>159.66666666666669</ele><time>2026-04-19T07:28:11Z</time></trkpt><trkpt lat="42.61430388558015" lon="13.761723856472175"><ele>159.33333333333334</ele><time>2026-04-19T07:28:12Z</time></trkpt><trkpt lat="42.614329754788386" lon="13.76143541710274"><ele>159.0</ele><time>2026-04-19T07:28:13Z</time></trkpt><trkpt lat="42.6143545674928" lon="13.76114787480445"><ele>159.33333333333334</ele><time>2026-04-19T07:28:14Z</time></trkpt><trkpt lat="42.614380628534214" lon="13.760857701668977"><ele>159.66666666666669</ele><time>2026-04-19T07:28:15Z</time></trkpt><trkpt lat="42.614402585648016" lon="13.760551889701173"><ele>160.0</ele><time>2026-04-19T07:28:16Z</time></trkpt><trkpt lat="42.61441913340665" lon="13.760247247720411"><ele>159.66666666666669</ele><time>2026-04-19T07:28:17Z</time></trkpt><trkpt lat="42.61442235957815" lon="13.759945180123498"><ele>159.33333333333334</ele><time>2026-04-19T07:28:18Z</time></trkpt><trkpt lat="42.614412428558715" lon="13.759641102097147"><ele>159.0</ele><time>2026-04-19T07:28:18.999Z</time></trkpt><trkpt lat="42.614385933652414" lon="13.759339777987398"><ele>159.0</ele><time>2026-04-19T07:28:19.999Z</time></trkpt><trkpt lat="42.614344393880025" lon="13.759032193934724"><ele>159.0</ele><time>2026-04-19T07:28:20.999Z</time></trkpt><trkpt lat="42.61429352273176" lon="13.758715565177178"><ele>158.5</ele><time>2026-04-19T07:28:21.999Z</time></trkpt><trkpt lat="42.61422159329322" lon="13.758393063381982"><ele>158.0</ele><time>2026-04-19T07:28:22.999Z</time></trkpt><trkpt lat="42.61413656958979" lon="13.758077541216803"><ele>158.0</ele><time>2026-04-19T07:28:23.999Z</time></trkpt><trkpt lat="42.61402400109632" lon="13.757760107750162"><ele>158.0</ele><time>2026-04-19T07:28:24.999Z</time></trkpt><trkpt lat="42.613878860501906" lon="13.757417279031852"><ele>159.0</ele><time>2026-04-19T07:28:25.999Z</time></trkpt><trkpt lat="42.61372212199349" lon="13.757105967898994"><ele>160.0</ele><time>2026-04-19T07:28:26.999Z</time></trkpt><trkpt lat="42.61355867636816" lon="13.75684270458046"><ele>154.5</ele><time>2026-04-19T07:28:27.999Z</time></trkpt><trkpt lat="42.61339889936955" lon="13.756599103516077"><ele>149.0</ele><time>2026-04-19T07:28:28.999Z</time></trkpt><trkpt lat="42.613266619914924" lon="13.756372803922387"><ele>149.0</ele><time>2026-04-19T07:28:29.999Z</time></trkpt><trkpt lat="42.61316795148787" lon="13.756143507713873"><ele>149.0</ele><time>2026-04-19T07:28:30.999Z</time></trkpt><trkpt lat="42.6130682088803" lon="13.755883079211891"><ele>149.0</ele><time>2026-04-19T07:28:31.999Z</time></trkpt><trkpt lat="42.61299018348434" lon="13.75559380544509"><ele>149.5</ele><time>2026-04-19T07:28:32.999Z</time></trkpt><trkpt lat="42.61291598807758" lon="13.755285838058526"><ele>150.0</ele><time>2026-04-19T07:28:33.999Z</time></trkpt><trkpt lat="42.612835751848706" lon="13.754975820317666"><ele>149.0</ele><time>2026-04-19T07:28:34.999Z</time></trkpt><trkpt lat="42.61275897584816" lon="13.75468739206259"><ele>148.0</ele><time>2026-04-19T07:28:35.999Z</time></trkpt><trkpt lat="42.61268944262978" lon="13.75441095476666"><ele>147.0</ele><time>2026-04-19T07:28:36.999Z</time></trkpt><trkpt lat="42.61262530209223" lon="13.754173927206535"><ele>147.0</ele><time>2026-04-19T07:28:37.999Z</time></trkpt><trkpt lat="42.61257439186671" lon="13.753969869143502"><ele>147.0</ele><time>2026-04-19T07:28:38.999Z</time></trkpt><trkpt lat="42.61255032295378" lon="13.753800732996377"><ele>147.0</ele><time>2026-04-19T07:28:39.999Z</time></trkpt><trkpt lat="42.61251916516919" lon="13.753630782503025"><ele>147.0</ele><time>2026-04-19T07:28:40.999Z</time></trkpt><trkpt lat="42.61248357421066" lon="13.7534598564169"><ele>146.0</ele><time>2026-04-19T07:28:41.999Z</time></trkpt><trkpt lat="42.61247143427255" lon="13.75331205078004"><ele>145.0</ele><time>2026-04-19T07:28:42.999Z</time></trkpt><trkpt lat="42.61245909558328" lon="13.753148238529006"><ele>144.0</ele><time>2026-04-19T07:28:43.999Z</time></trkpt><trkpt lat="42.61270221082418" lon="13.753057827165984"><ele>144.0</ele><time>2026-04-19T07:28:44.999Z</time></trkpt><trkpt lat="42.61281576124596" lon="13.752985375274463"><ele>144.0</ele><time>2026-04-19T07:28:45.999Z</time></trkpt><trkpt lat="42.6129452285673" lon="13.752946554442266"><ele>144.0</ele><time>2026-04-19T07:28:46.999Z</time></trkpt><trkpt lat="42.61306118516059" lon="13.75295136888805"><ele>144.0</ele><time>2026-04-19T07:28:47.999Z</time></trkpt><trkpt lat="42.613173509973635" lon="13.753012184445398"><ele>145.5</ele><time>2026-04-19T07:28:48.999Z</time></trkpt><trkpt lat="42.61327557367922" lon="13.753091540922115"><ele>147.0</ele><time>2026-04-19T07:28:49.999Z</time></trkpt><trkpt lat="42.613367734361454" lon="13.753219923065295"><ele>148.5</ele><time>2026-04-19T07:28:50.999Z</time></trkpt><trkpt lat="42.613426998416614" lon="13.75337852082471"><ele>150.0</ele><time>2026-04-19T07:28:51.999Z</time></trkpt><trkpt lat="42.613457163349175" lon="13.75354812627445"><ele>150.25</ele><time>2026-04-19T07:28:52.999Z</time></trkpt><trkpt lat="42.613460111033426" lon="13.75372283368682"><ele>150.5</ele><time>2026-04-19T07:28:53.999Z</time></trkpt><trkpt lat="42.61342352854184" lon="13.75388943990378"><ele>150.75</ele><time>2026-04-19T07:28:54.999Z</time></trkpt><trkpt lat="42.61335608044968" lon="13.754040629210287"><ele>151.0</ele><time>2026-04-19T07:28:55.999Z</time></trkpt><trkpt lat="42.613266877692254" lon="13.754156330392652"><ele>151.0</ele><time>2026-04-19T07:28:56.999Z</time></trkpt><trkpt lat="42.613143685855945" lon="13.75422869278376"><ele>151.0</ele><time>2026-04-19T07:28:57.999Z</time></trkpt><trkpt lat="42.61301729537816" lon="13.754264023038294"><ele>151.0</ele><time>2026-04-19T07:28:58.999Z</time></trkpt><trkpt lat="42.612885840758395" lon="13.75424902968355"><ele>151.0</ele><time>2026-04-19T07:28:59.999Z</time></trkpt><trkpt lat="42.612761710975406" lon="13.75418082364391"><ele>149.66666666666669</ele><time>2026-04-19T07:29:00.999Z</time></trkpt><trkpt lat="42.61263595632974" lon="13.754069271377148"><ele>148.33333333333334</ele><time>2026-04-19T07:29:01.999Z</time></trkpt><trkpt lat="42.61248168549459" lon="13.753929387540406"><ele>147.0</ele><time>2026-04-19T07:29:02.999Z</time></trkpt><trkpt lat="42.61227856821299" lon="13.753764702843284"><ele>147.0</ele><time>2026-04-19T07:29:03.999Z</time></trkpt><trkpt lat="42.612044854407664" lon="13.753540420483299"><ele>147.0</ele><time>2026-04-19T07:29:04.999Z</time></trkpt><trkpt lat="42.61178142982405" lon="13.753291030399835"><ele>144.5</ele><time>2026-04-19T07:29:05.999Z</time></trkpt><trkpt lat="42.61151310731949" lon="13.75301232445957"><ele>142.0</ele><time>2026-04-19T07:29:06.999Z</time></trkpt><trkpt lat="42.611276941159" lon="13.752735267702297"><ele>141.5</ele><time>2026-04-19T07:29:07.999Z</time></trkpt><trkpt lat="42.61105644509481" lon="13.752458463749882"><ele>141.0</ele><time>2026-04-19T07:29:08.999Z</time></trkpt><trkpt lat="42.61084071696703" lon="13.752179750292946"><ele>141.0</ele><time>2026-04-19T07:29:09.999Z</time></trkpt><trkpt lat="42.61062745779436" lon="13.751894118806659"><ele>141.0</ele><time>2026-04-19T07:29:10.999Z</time></trkpt><trkpt lat="42.61042103949149" lon="13.751600763037537"><ele>141.0</ele><time>2026-04-19T07:29:11.998Z</time></trkpt><trkpt lat="42.61022066278554" lon="13.751301024886324"><ele>141.0</ele><time>2026-04-19T07:29:12.998Z</time></trkpt><trkpt lat="42.610028037471885" lon="13.750994199298155"><ele>141.0</ele><time>2026-04-19T07:29:13.998Z</time></trkpt><trkpt lat="42.609837067418056" lon="13.750681014736642"><ele>141.0</ele><time>2026-04-19T07:29:14.998Z</time></trkpt><trkpt lat="42.609659327931915" lon="13.750369805879162"><ele>142.0</ele><time>2026-04-19T07:29:15.998Z</time></trkpt><trkpt lat="42.609478098302496" lon="13.750051252318555"><ele>143.0</ele><time>2026-04-19T07:29:16.998Z</time></trkpt><trkpt lat="42.60930099164067" lon="13.74972513517128"><ele>143.0</ele><time>2026-04-19T07:29:17.998Z</time></trkpt><trkpt lat="42.60913982113784" lon="13.749399420030553"><ele>143.0</ele><time>2026-04-19T07:29:18.999Z</time></trkpt><trkpt lat="42.60898764486905" lon="13.749081129419622"><ele>143.5</ele><time>2026-04-19T07:29:19.999Z</time></trkpt><trkpt lat="42.60884846045223" lon="13.74875607504406"><ele>144.0</ele><time>2026-04-19T07:29:20.999Z</time></trkpt><trkpt lat="42.60871150214281" lon="13.748432427054624"><ele>150.0</ele><time>2026-04-19T07:29:21.999Z</time></trkpt><trkpt lat="42.6085823989561" lon="13.748104656938725"><ele>156.0</ele><time>2026-04-19T07:29:22.999Z</time></trkpt><trkpt lat="42.60845734769399" lon="13.74776881911705"><ele>155.5</ele><time>2026-04-19T07:29:23.999Z</time></trkpt><trkpt lat="42.608333629871325" lon="13.747429125255028"><ele>155.0</ele><time>2026-04-19T07:29:24.999Z</time></trkpt><trkpt lat="42.608215923482234" lon="13.747083869673792"><ele>155.0</ele><time>2026-04-19T07:29:25.999Z</time></trkpt><trkpt lat="42.60810405647274" lon="13.746735923309984"><ele>155.0</ele><time>2026-04-19T07:29:26.999Z</time></trkpt><trkpt lat="42.60799466572644" lon="13.746382536980644"><ele>156.0</ele><time>2026-04-19T07:29:27.999Z</time></trkpt><trkpt lat="42.607891588105865" lon="13.746015800918105"><ele>157.0</ele><time>2026-04-19T07:29:28.999Z</time></trkpt><trkpt lat="42.60779721112606" lon="13.745650115619446"><ele>158.0</ele><time>2026-04-19T07:29:29.999Z</time></trkpt><trkpt lat="42.60771144702199" lon="13.745276772673517"><ele>159.0</ele><time>2026-04-19T07:29:30.999Z</time></trkpt><trkpt lat="42.60762662302927" lon="13.744902529784206"><ele>160.5</ele><time>2026-04-19T07:29:31.999Z</time></trkpt><trkpt lat="42.60754761176897" lon="13.744522968944528"><ele>162.0</ele><time>2026-04-19T07:29:32.999Z</time></trkpt><trkpt lat="42.60747650734903" lon="13.744139950690657"><ele>163.0</ele><time>2026-04-19T07:29:33.999Z</time></trkpt><trkpt lat="42.607413897385435" lon="13.743752629436942"><ele>164.0</ele><time>2026-04-19T07:29:34.999Z</time></trkpt><trkpt lat="42.607358689991656" lon="13.743358725236046"><ele>164.0</ele><time>2026-04-19T07:29:35.999Z</time></trkpt><trkpt lat="42.607307681884095" lon="13.742963885078213"><ele>164.0</ele><time>2026-04-19T07:29:36.999Z</time></trkpt><trkpt lat="42.60726283158556" lon="13.742566142012896"><ele>165.0</ele><time>2026-04-19T07:29:37.999Z</time></trkpt><trkpt lat="42.60722489051025" lon="13.742166169107744"><ele>166.0</ele><time>2026-04-19T07:29:38.999Z</time></trkpt><trkpt lat="42.60719346242732" lon="13.741760090181272"><ele>167.0</ele><time>2026-04-19T07:29:39.999Z</time></trkpt><trkpt lat="42.60716945239757" lon="13.741352296889982"><ele>168.0</ele><time>2026-04-19T07:29:40.999Z</time></trkpt><trkpt lat="42.60715262572848" lon="13.740911404653929"><ele>168.0</ele><time>2026-04-19T07:29:41.999Z</time></trkpt><trkpt lat="42.60714094820206" lon="13.740474381392874"><ele>168.0</ele><time>2026-04-19T07:29:42.999Z</time></trkpt><trkpt lat="42.60713914386801" lon="13.740022691021018"><ele>168.0</ele><time>2026-04-19T07:29:43.999Z</time></trkpt><trkpt lat="42.607149707581705" lon="13.739562190208405"><ele>168.0</ele><time>2026-04-19T07:29:44.999Z</time></trkpt><trkpt lat="42.607170006239805" lon="13.739091135100058"><ele>167.5</ele><time>2026-04-19T07:29:45.999Z</time></trkpt><trkpt lat="42.60719922009635" lon="13.738614819312868"><ele>167.0</ele><time>2026-04-19T07:29:46.999Z</time></trkpt><trkpt lat="42.60724096096706" lon="13.73813858631448"><ele>167.5</ele><time>2026-04-19T07:29:47.999Z</time></trkpt><trkpt lat="42.60729318345955" lon="13.737660888459148"><ele>168.0</ele><time>2026-04-19T07:29:48.999Z</time></trkpt><trkpt lat="42.60735215361356" lon="13.73718039602355"><ele>170.0</ele><time>2026-04-19T07:29:49.999Z</time></trkpt><trkpt lat="42.60741974055877" lon="13.736697903420959"><ele>172.0</ele><time>2026-04-19T07:29:50.999Z</time></trkpt><trkpt lat="42.607499452103575" lon="13.736217928333364"><ele>172.0</ele><time>2026-04-19T07:29:51.999Z</time></trkpt><trkpt lat="42.607591436760956" lon="13.73574045187792"><ele>172.0</ele><time>2026-04-19T07:29:52.999Z</time></trkpt><trkpt lat="42.607701372654944" lon="13.735262857133609"><ele>173.5</ele><time>2026-04-19T07:29:53.999Z</time></trkpt><trkpt lat="42.60782234319613" lon="13.734785979889116"><ele>175.0</ele><time>2026-04-19T07:29:54.999Z</time></trkpt><trkpt lat="42.607957926888616" lon="13.734322804105448"><ele>171.0</ele><time>2026-04-19T07:29:55.999Z</time></trkpt><trkpt lat="42.60807995038374" lon="13.733904160903586"><ele>167.0</ele><time>2026-04-19T07:29:56.999Z</time></trkpt><trkpt lat="42.608186979607375" lon="13.733520493094284"><ele>167.0</ele><time>2026-04-19T07:29:57.999Z</time></trkpt><trkpt lat="42.60830173689162" lon="13.733156014776467"><ele>167.0</ele><time>2026-04-19T07:29:58.999Z</time></trkpt><trkpt lat="42.60841416517509" lon="13.732814437404373"><ele>169.5</ele><time>2026-04-19T07:29:59.999Z</time></trkpt><trkpt lat="42.608520558387674" lon="13.73249589374241"><ele>172.0</ele><time>2026-04-19T07:30:00.999Z</time></trkpt><trkpt lat="42.60862682448046" lon="13.732185118571453"><ele>171.33333333333334</ele><time>2026-04-19T07:30:01.999Z</time></trkpt><trkpt lat="42.6087254649885" lon="13.731907243780196"><ele>170.66666666666666</ele><time>2026-04-19T07:30:02.999Z</time></trkpt><trkpt lat="42.60881704274338" lon="13.731650837430761"><ele>170.0</ele><time>2026-04-19T07:30:03.999Z</time></trkpt><trkpt lat="42.608897763268466" lon="13.731435044942"><ele>170.0</ele><time>2026-04-19T07:30:04.999Z</time></trkpt><trkpt lat="42.6089731576979" lon="13.731243541867055"><ele>170.0</ele><time>2026-04-19T07:30:05.999Z</time></trkpt><trkpt lat="42.609042735392705" lon="13.73106065987325"><ele>170.0</ele><time>2026-04-19T07:30:06.999Z</time></trkpt><trkpt lat="42.60911663335898" lon="13.730867016153587"><ele>170.33333333333331</ele><time>2026-04-19T07:30:07.999Z</time></trkpt><trkpt lat="42.60919491936677" lon="13.73066278303443"><ele>170.66666666666666</ele><time>2026-04-19T07:30:08.999Z</time></trkpt><trkpt lat="42.60926544809493" lon="13.730481096106049"><ele>171.0</ele><time>2026-04-19T07:30:09.999Z</time></trkpt><trkpt lat="42.60933097032775" lon="13.730311833292756"><ele>171.25</ele><time>2026-04-19T07:30:10.999Z</time></trkpt><trkpt lat="42.60939357401383" lon="13.730148819827178"><ele>171.5</ele><time>2026-04-19T07:30:11.999Z</time></trkpt><trkpt lat="42.609455737314015" lon="13.729992107286403"><ele>171.75</ele><time>2026-04-19T07:30:12.999Z</time></trkpt><trkpt lat="42.60951420926208" lon="13.72984594776604"><ele>172.0</ele><time>2026-04-19T07:30:13.999Z</time></trkpt><trkpt lat="42.609568905070454" lon="13.729710753755171"><ele>171.6</ele><time>2026-04-19T07:30:14.999Z</time></trkpt><trkpt lat="42.60963174399693" lon="13.729591626093345"><ele>171.2</ele><time>2026-04-19T07:30:15.999Z</time></trkpt><trkpt lat="42.609705639611235" lon="13.729499460410585"><ele>170.8</ele><time>2026-04-19T07:30:16.999Z</time></trkpt><trkpt lat="42.60978858775973" lon="13.72942627391503"><ele>170.4</ele><time>2026-04-19T07:30:17.999Z</time></trkpt><trkpt lat="42.609879233216994" lon="13.72937866181836"><ele>170.0</ele><time>2026-04-19T07:30:18.999Z</time></trkpt><trkpt lat="42.60997681862911" lon="13.729355544918498"><ele>170.0</ele><time>2026-04-19T07:30:19.999Z</time></trkpt><trkpt lat="42.610086963316235" lon="13.729360602254431"><ele>170.0</ele><time>2026-04-19T07:30:20.999Z</time></trkpt><trkpt lat="42.610193277373675" lon="13.729396288630976"><ele>170.0</ele><time>2026-04-19T07:30:21.999Z</time></trkpt><trkpt lat="42.61028487724401" lon="13.729471669241383"><ele>170.0</ele><time>2026-04-19T07:30:22.999Z</time></trkpt><trkpt lat="42.61036041815016" lon="13.729584294475645"><ele>170.0</ele><time>2026-04-19T07:30:23.999Z</time></trkpt><trkpt lat="42.61041200613163" lon="13.729718228300305"><ele>169.4</ele><time>2026-04-19T07:30:24.999Z</time></trkpt><trkpt lat="42.610440395838275" lon="13.729860755754393"><ele>168.8</ele><time>2026-04-19T07:30:25.999Z</time></trkpt><trkpt lat="42.61044557369159" lon="13.73000401283658"><ele>168.2</ele><time>2026-04-19T07:30:26.999Z</time></trkpt><trkpt lat="42.610468404479136" lon="13.730133301590817"><ele>167.6</ele><time>2026-04-19T07:30:27.999Z</time></trkpt><trkpt lat="42.610460004467356" lon="13.730277309676362"><ele>167.0</ele><time>2026-04-19T07:30:28.999Z</time></trkpt><trkpt lat="42.61043220826884" lon="13.730400556639767"><ele>167.0</ele><time>2026-04-19T07:30:29.999Z</time></trkpt><trkpt lat="42.61037431111341" lon="13.730538567578844"><ele>167.0</ele><time>2026-04-19T07:30:30.999Z</time></trkpt><trkpt lat="42.610330888015014" lon="13.730699301128327"><ele>167.0</ele><time>2026-04-19T07:30:31.999Z</time></trkpt><trkpt lat="42.610282601396115" lon="13.730852087833808"><ele>167.0</ele><time>2026-04-19T07:30:32.999Z</time></trkpt><trkpt lat="42.61023400508394" lon="13.73100381413669"><ele>167.0</ele><time>2026-04-19T07:30:33.999Z</time></trkpt><trkpt lat="42.61018757778826" lon="13.731158135375638"><ele>167.0</ele><time>2026-04-19T07:30:34.999Z</time></trkpt><trkpt lat="42.61014125464694" lon="13.731314575090906"><ele>167.0</ele><time>2026-04-19T07:30:35.999Z</time></trkpt><trkpt lat="42.61009192928252" lon="13.731470603607"><ele>167.0</ele><time>2026-04-19T07:30:36.999Z</time></trkpt><trkpt lat="42.610040580014385" lon="13.73162881912967"><ele>167.0</ele><time>2026-04-19T07:30:37.999Z</time></trkpt><trkpt lat="42.60998955667931" lon="13.731787566340598"><ele>167.0</ele><time>2026-04-19T07:30:38.999Z</time></trkpt><trkpt lat="42.609937992160965" lon="13.731949562410971"><ele>167.0</ele><time>2026-04-19T07:30:39.999Z</time></trkpt><trkpt lat="42.60988585368686" lon="13.732109929441254"><ele>167.0</ele><time>2026-04-19T07:30:40.999Z</time></trkpt><trkpt lat="42.60983178019271" lon="13.732272391872572"><ele>166.5</ele><time>2026-04-19T07:30:41.999Z</time></trkpt><trkpt lat="42.60977911823062" lon="13.732434010409548"><ele>166.0</ele><time>2026-04-19T07:30:42.999Z</time></trkpt><trkpt lat="42.60972872230042" lon="13.732600843758721"><ele>165.5</ele><time>2026-04-19T07:30:43.999Z</time></trkpt><trkpt lat="42.60968442005496" lon="13.732756143893132"><ele>165.0</ele><time>2026-04-19T07:30:44.999Z</time></trkpt><trkpt lat="42.60964302016384" lon="13.73289817053051"><ele>165.0</ele><time>2026-04-19T07:30:45.999Z</time></trkpt><trkpt lat="42.60961273395345" lon="13.733033192979292"><ele>165.0</ele><time>2026-04-19T07:30:46.999Z</time></trkpt><trkpt lat="42.6095947888648" lon="13.733169800860239"><ele>165.0</ele><time>2026-04-19T07:30:47.999Z</time></trkpt><trkpt lat="42.60959009688821" lon="13.733314485801493"><ele>165.0</ele><time>2026-04-19T07:30:48.999Z</time></trkpt><trkpt lat="42.60959628366833" lon="13.733461172104917"><ele>165.0</ele><time>2026-04-19T07:30:49.999Z</time></trkpt><trkpt lat="42.609616653398376" lon="13.733596887191657"><ele>164.83333333333334</ele><time>2026-04-19T07:30:50.999Z</time></trkpt><trkpt lat="42.60965276010292" lon="13.733714466672561"><ele>164.66666666666666</ele><time>2026-04-19T07:30:51.998Z</time></trkpt><trkpt lat="42.609701999898355" lon="13.733816952312248"><ele>164.5</ele><time>2026-04-19T07:30:52.998Z</time></trkpt><trkpt lat="42.6097617092146" lon="13.733904611169141"><ele>164.33333333333331</ele><time>2026-04-19T07:30:53.998Z</time></trkpt><trkpt lat="42.609821410209165" lon="13.733967578121467"><ele>164.16666666666666</ele><time>2026-04-19T07:30:54.998Z</time></trkpt><trkpt lat="42.6099127981013" lon="13.73399752134227"><ele>164.0</ele><time>2026-04-19T07:30:56.998Z</time></trkpt><trkpt lat="42.60999445713854" lon="13.733966714036146"><ele>164.0</ele><time>2026-04-19T07:30:59.998Z</time></trkpt><trkpt lat="42.61008962086675" lon="13.733855037712996"><ele>164.0</ele><time>2026-04-19T07:31:01.998Z</time></trkpt><trkpt lat="42.610137249980546" lon="13.733711775447283"><ele>164.0</ele><time>2026-04-19T07:31:02.998Z</time></trkpt><trkpt lat="42.610204103002175" lon="13.733521471887189"><ele>164.0</ele><time>2026-04-19T07:31:03.998Z</time></trkpt><trkpt lat="42.61028325982889" lon="13.733291170720719"><ele>163.66666666666666</ele><time>2026-04-19T07:31:04.998Z</time></trkpt><trkpt lat="42.61035194932553" lon="13.733075341814988"><ele>163.33333333333334</ele><time>2026-04-19T07:31:05.998Z</time></trkpt><trkpt lat="42.61040896689157" lon="13.732873680864373"><ele>163.0</ele><time>2026-04-19T07:31:06.998Z</time></trkpt><trkpt lat="42.6104666799342" lon="13.732680359843675"><ele>163.66666666666669</ele><time>2026-04-19T07:31:07.998Z</time></trkpt><trkpt lat="42.61052964018638" lon="13.73248721314062"><ele>164.33333333333334</ele><time>2026-04-19T07:31:08.998Z</time></trkpt><trkpt lat="42.6105939613665" lon="13.732282961090133"><ele>165.0</ele><time>2026-04-19T07:31:09.998Z</time></trkpt><trkpt lat="42.61065900150974" lon="13.732073871922882"><ele>165.33333333333334</ele><time>2026-04-19T07:31:10.998Z</time></trkpt><trkpt lat="42.61072398651917" lon="13.731862280571518"><ele>165.66666666666669</ele><time>2026-04-19T07:31:11.998Z</time></trkpt><trkpt lat="42.61078075422152" lon="13.731667121543516"><ele>166.0</ele><time>2026-04-19T07:31:12.998Z</time></trkpt><trkpt lat="42.61083844975947" lon="13.731470873566579"><ele>166.0</ele><time>2026-04-19T07:31:13.998Z</time></trkpt><trkpt lat="42.61089905977934" lon="13.731278593926467"><ele>166.0</ele><time>2026-04-19T07:31:14.998Z</time></trkpt><trkpt lat="42.61096062424457" lon="13.731083949369474"><ele>166.0</ele><time>2026-04-19T07:31:15.998Z</time></trkpt><trkpt lat="42.61101995733352" lon="13.730890186799597"><ele>166.0</ele><time>2026-04-19T07:31:16.998Z</time></trkpt><trkpt lat="42.61107992750636" lon="13.730688364979477"><ele>166.0</ele><time>2026-04-19T07:31:17.998Z</time></trkpt><trkpt lat="42.61114222103402" lon="13.730486369705922"><ele>166.0</ele><time>2026-04-19T07:31:18.998Z</time></trkpt><trkpt lat="42.61120260817653" lon="13.730286596035363"><ele>165.0</ele><time>2026-04-19T07:31:19.998Z</time></trkpt><trkpt lat="42.61126112285451" lon="13.73008163301372"><ele>164.0</ele><time>2026-04-19T07:31:20.998Z</time></trkpt><trkpt lat="42.61133604741151" lon="13.729887495090495"><ele>163.0</ele><time>2026-04-19T07:31:21.998Z</time></trkpt><trkpt lat="42.61139890588144" lon="13.729682232442432"><ele>163.0</ele><time>2026-04-19T07:31:22.998Z</time></trkpt><trkpt lat="42.61144944773399" lon="13.72947081410899"><ele>163.0</ele><time>2026-04-19T07:31:23.999Z</time></trkpt><trkpt lat="42.611513107904365" lon="13.729267425643396"><ele>163.0</ele><time>2026-04-19T07:31:24.999Z</time></trkpt><trkpt lat="42.611575538189136" lon="13.729061296697038"><ele>163.66666666666669</ele><time>2026-04-19T07:31:25.999Z</time></trkpt><trkpt lat="42.611637878526025" lon="13.728853028787237"><ele>164.33333333333334</ele><time>2026-04-19T07:31:26.999Z</time></trkpt><trkpt lat="42.61170277063232" lon="13.728646303565874"><ele>165.0</ele><time>2026-04-19T07:31:27.999Z</time></trkpt><trkpt lat="42.61176217425234" lon="13.728443459135041"><ele>166.0</ele><time>2026-04-19T07:31:28.999Z</time></trkpt><trkpt lat="42.61182753119712" lon="13.72823401454794"><ele>167.0</ele><time>2026-04-19T07:31:29.999Z</time></trkpt><trkpt lat="42.61188889387494" lon="13.728030348866302"><ele>168.0</ele><time>2026-04-19T07:31:30.999Z</time></trkpt><trkpt lat="42.61195156002919" lon="13.727827935238153"><ele>168.0</ele><time>2026-04-19T07:31:31.999Z</time></trkpt><trkpt lat="42.61201349497297" lon="13.72762429657083"><ele>168.0</ele><time>2026-04-19T07:31:32.999Z</time></trkpt><trkpt lat="42.61207653668972" lon="13.727419358092913"><ele>168.0</ele><time>2026-04-19T07:31:33.999Z</time></trkpt><trkpt lat="42.61213722530885" lon="13.72721572563336"><ele>168.0</ele><time>2026-04-19T07:31:34.999Z</time></trkpt><trkpt lat="42.612197557286635" lon="13.727012394283607"><ele>168.0</ele><time>2026-04-19T07:31:35.999Z</time></trkpt><trkpt lat="42.612273499942276" lon="13.72681951403101"><ele>168.0</ele><time>2026-04-19T07:31:36.999Z</time></trkpt><trkpt lat="42.612335450466304" lon="13.726618732838162"><ele>168.33333333333334</ele><time>2026-04-19T07:31:37.999Z</time></trkpt><trkpt lat="42.612396846592105" lon="13.726415770150277"><ele>168.66666666666669</ele><time>2026-04-19T07:31:38.999Z</time></trkpt><trkpt lat="42.61245880384461" lon="13.726210927574776"><ele>169.0</ele><time>2026-04-19T07:31:39.999Z</time></trkpt><trkpt lat="42.61251924156392" lon="13.726011108982451"><ele>169.0</ele><time>2026-04-19T07:31:40.999Z</time></trkpt><trkpt lat="42.61258025755765" lon="13.725809378501536"><ele>169.0</ele><time>2026-04-19T07:31:41.999Z</time></trkpt><trkpt lat="42.61264230926193" lon="13.725605464455958"><ele>169.0</ele><time>2026-04-19T07:31:42.999Z</time></trkpt><trkpt lat="42.612704582841694" lon="13.725401444764966"><ele>169.0</ele><time>2026-04-19T07:31:43.999Z</time></trkpt><trkpt lat="42.612765808929936" lon="13.725200867282243"><ele>169.0</ele><time>2026-04-19T07:31:44.999Z</time></trkpt><trkpt lat="42.612812910938125" lon="13.724991029083787"><ele>169.0</ele><time>2026-04-19T07:31:45.999Z</time></trkpt><trkpt lat="42.61287719072939" lon="13.724788814712818"><ele>168.66666666666669</ele><time>2026-04-19T07:31:46.999Z</time></trkpt><trkpt lat="42.61293931919995" lon="13.72458577602466"><ele>168.33333333333334</ele><time>2026-04-19T07:31:47.999Z</time></trkpt><trkpt lat="42.61300002063521" lon="13.7243813902818"><ele>168.0</ele><time>2026-04-19T07:31:48.999Z</time></trkpt><trkpt lat="42.61306445741031" lon="13.724161201053242"><ele>169.0</ele><time>2026-04-19T07:31:49.999Z</time></trkpt><trkpt lat="42.61313576309335" lon="13.723920691812767"><ele>170.0</ele><time>2026-04-19T07:31:50.999Z</time></trkpt><trkpt lat="42.613208632078525" lon="13.723693678591799"><ele>171.0</ele><time>2026-04-19T07:31:51.999Z</time></trkpt><trkpt lat="42.613275939034146" lon="13.723472531856105"><ele>171.33333333333334</ele><time>2026-04-19T07:31:52.999Z</time></trkpt><trkpt lat="42.61334178437606" lon="13.723256213809254"><ele>171.66666666666669</ele><time>2026-04-19T07:31:53.999Z</time></trkpt><trkpt lat="42.61340260273689" lon="13.723055849365856"><ele>172.0</ele><time>2026-04-19T07:31:54.999Z</time></trkpt><trkpt lat="42.61346099251202" lon="13.72286428834494"><ele>172.25</ele><time>2026-04-19T07:31:55.999Z</time></trkpt><trkpt lat="42.613514354803094" lon="13.722678348095426"><ele>172.5</ele><time>2026-04-19T07:31:56.999Z</time></trkpt><trkpt lat="42.613552150489056" lon="13.722496298701847"><ele>172.75</ele><time>2026-04-19T07:31:57.999Z</time></trkpt><trkpt lat="42.61356665202493" lon="13.722314234863443"><ele>173.0</ele><time>2026-04-19T07:31:58.999Z</time></trkpt><trkpt lat="42.61354702935213" lon="13.722130272299028"><ele>173.0</ele><time>2026-04-19T07:31:59.999Z</time></trkpt><trkpt lat="42.613502555496154" lon="13.721946444913218"><ele>173.0</ele><time>2026-04-19T07:32:00.999Z</time></trkpt><trkpt lat="42.61341907642696" lon="13.721782945074354"><ele>173.0</ele><time>2026-04-19T07:32:01.999Z</time></trkpt><trkpt lat="42.61330242526657" lon="13.721645399305578"><ele>173.0</ele><time>2026-04-19T07:32:02.999Z</time></trkpt><trkpt lat="42.61316014121308" lon="13.721539593530663"><ele>173.33333333333331</ele><time>2026-04-19T07:32:03.999Z</time></trkpt><trkpt lat="42.61300290304715" lon="13.721444301067242"><ele>173.66666666666666</ele><time>2026-04-19T07:32:04.999Z</time></trkpt><trkpt lat="42.61283825637378" lon="13.72133548668493"><ele>174.0</ele><time>2026-04-19T07:32:05.999Z</time></trkpt><trkpt lat="42.61269104096431" lon="13.72116929140338"><ele>172.33333333333334</ele><time>2026-04-19T07:32:06.999Z</time></trkpt><trkpt lat="42.61257790976505" lon="13.720971086353746"><ele>170.66666666666669</ele><time>2026-04-19T07:32:07.999Z</time></trkpt><trkpt lat="42.61250362552292" lon="13.720724797487554"><ele>169.0</ele><time>2026-04-19T07:32:08.999Z</time></trkpt><trkpt lat="42.61245005262778" lon="13.720409994241221"><ele>167.5</ele><time>2026-04-19T07:32:09.999Z</time></trkpt><trkpt lat="42.612406825220376" lon="13.720047846936007"><ele>166.0</ele><time>2026-04-19T07:32:10.999Z</time></trkpt><trkpt lat="42.61235017222594" lon="13.719667181810207"><ele>165.5</ele><time>2026-04-19T07:32:11.999Z</time></trkpt><trkpt lat="42.612305889372216" lon="13.719315194639238"><ele>165.0</ele><time>2026-04-19T07:32:12.999Z</time></trkpt><trkpt lat="42.61226414408505" lon="13.718992616120904"><ele>165.0</ele><time>2026-04-19T07:32:13.999Z</time></trkpt><trkpt lat="42.61222991234643" lon="13.718689646430024"><ele>165.0</ele><time>2026-04-19T07:32:14.999Z</time></trkpt><trkpt lat="42.61219743954665" lon="13.7183962677614"><ele>165.0</ele><time>2026-04-19T07:32:15.999Z</time></trkpt><trkpt lat="42.612166722541545" lon="13.718114733428632"><ele>165.0</ele><time>2026-04-19T07:32:16.999Z</time></trkpt><trkpt lat="42.612140295400785" lon="13.717848106099733"><ele>165.0</ele><time>2026-04-19T07:32:17.999Z</time></trkpt><trkpt lat="42.612117297127284" lon="13.71758503233697"><ele>165.0</ele><time>2026-04-19T07:32:18.999Z</time></trkpt><trkpt lat="42.61209522672036" lon="13.717325173851952"><ele>164.66666666666666</ele><time>2026-04-19T07:32:19.999Z</time></trkpt><trkpt lat="42.61207651989166" lon="13.717059455374374"><ele>164.33333333333331</ele><time>2026-04-19T07:32:20.999Z</time></trkpt><trkpt lat="42.61207320348053" lon="13.716789349373094"><ele>164.0</ele><time>2026-04-19T07:32:21.999Z</time></trkpt><trkpt lat="42.61208775324615" lon="13.716515286941595"><ele>163.33333333333331</ele><time>2026-04-19T07:32:22.999Z</time></trkpt><trkpt lat="42.61211887824928" lon="13.716240232205823"><ele>162.66666666666666</ele><time>2026-04-19T07:32:23.999Z</time></trkpt><trkpt lat="42.612163154512764" lon="13.715968772705262"><ele>162.0</ele><time>2026-04-19T07:32:24.999Z</time></trkpt><trkpt lat="42.61221267048828" lon="13.715694504319158"><ele>162.0</ele><time>2026-04-19T07:32:25.999Z</time></trkpt><trkpt lat="42.61225928085799" lon="13.715418959217377"><ele>162.0</ele><time>2026-04-19T07:32:26.999Z</time></trkpt><trkpt lat="42.6123032873135" lon="13.715143404202987"><ele>162.0</ele><time>2026-04-19T07:32:27.999Z</time></trkpt><trkpt lat="42.61234679517159" lon="13.714867309071781"><ele>164.33333333333334</ele><time>2026-04-19T07:32:28.999Z</time></trkpt><trkpt lat="42.612378328348264" lon="13.714591774779214"><ele>166.66666666666669</ele><time>2026-04-19T07:32:29.999Z</time></trkpt><trkpt lat="42.612374641954645" lon="13.714311788294257"><ele>169.0</ele><time>2026-04-19T07:32:30.999Z</time></trkpt><trkpt lat="42.612314134704725" lon="13.714031035543837"><ele>174.0</ele><time>2026-04-19T07:32:31.999Z</time></trkpt><trkpt lat="42.61220705482718" lon="13.713758309634443"><ele>179.0</ele><time>2026-04-19T07:32:32.999Z</time></trkpt><trkpt lat="42.6120743620919" lon="13.71348548602599"><ele>174.5</ele><time>2026-04-19T07:32:33.999Z</time></trkpt><trkpt lat="42.611936539534554" lon="13.713209835230026"><ele>170.0</ele><time>2026-04-19T07:32:34.999Z</time></trkpt><trkpt lat="42.611799421937235" lon="13.71293796556277"><ele>175.5</ele><time>2026-04-19T07:32:35.999Z</time></trkpt><trkpt lat="42.61166274773278" lon="13.712664223841163"><ele>181.0</ele><time>2026-04-19T07:32:36.999Z</time></trkpt><trkpt lat="42.61152127230761" lon="13.712405767978153"><ele>181.0</ele><time>2026-04-19T07:32:37.999Z</time></trkpt><trkpt lat="42.61135869898124" lon="13.712171319266712"><ele>181.0</ele><time>2026-04-19T07:32:38.999Z</time></trkpt><trkpt lat="42.611176049141775" lon="13.71196108915639"><ele>175.5</ele><time>2026-04-19T07:32:39.999Z</time></trkpt><trkpt lat="42.61097936171928" lon="13.71178098453805"><ele>170.0</ele><time>2026-04-19T07:32:40.999Z</time></trkpt><trkpt lat="42.61078081058818" lon="13.711605202449283"><ele>170.0</ele><time>2026-04-19T07:32:41.999Z</time></trkpt><trkpt lat="42.610585456736516" lon="13.711432325576693"><ele>170.0</ele><time>2026-04-19T07:32:42.999Z</time></trkpt><trkpt lat="42.610393275506134" lon="13.71125949159407"><ele>170.5</ele><time>2026-04-19T07:32:43.999Z</time></trkpt><trkpt lat="42.61020393018346" lon="13.711085694422378"><ele>171.0</ele><time>2026-04-19T07:32:44.999Z</time></trkpt><trkpt lat="42.61002087962974" lon="13.71090881387608"><ele>171.0</ele><time>2026-04-19T07:32:45.999Z</time></trkpt><trkpt lat="42.60985445220331" lon="13.71073837510363"><ele>171.0</ele><time>2026-04-19T07:32:46.999Z</time></trkpt><trkpt lat="42.609699230490286" lon="13.710574131809334"><ele>171.0</ele><time>2026-04-19T07:32:47.999Z</time></trkpt><trkpt lat="42.60954963635886" lon="13.71041544472052"><ele>171.66666666666666</ele><time>2026-04-19T07:32:48.999Z</time></trkpt><trkpt lat="42.60941041882365" lon="13.710267691555641"><ele>172.33333333333331</ele><time>2026-04-19T07:32:49.999Z</time></trkpt><trkpt lat="42.609278320523515" lon="13.710131556932916"><ele>173.0</ele><time>2026-04-19T07:32:50.999Z</time></trkpt><trkpt lat="42.60914926657887" lon="13.710019811715402"><ele>173.0</ele><time>2026-04-19T07:32:51.999Z</time></trkpt><trkpt lat="42.60901532935656" lon="13.709939665502137"><ele>173.0</ele><time>2026-04-19T07:32:52.999Z</time></trkpt><trkpt lat="42.608875493267554" lon="13.709906554941371"><ele>173.0</ele><time>2026-04-19T07:32:53.999Z</time></trkpt><trkpt lat="42.60872101265291" lon="13.70992014601401"><ele>173.0</ele><time>2026-04-19T07:32:54.999Z</time></trkpt><trkpt lat="42.608541046599775" lon="13.709966663999484"><ele>170.0</ele><time>2026-04-19T07:32:55.999Z</time></trkpt><trkpt lat="42.608305607775605" lon="13.709984511341421"><ele>167.0</ele><time>2026-04-19T07:32:56.999Z</time></trkpt><trkpt lat="42.608048382618534" lon="13.710029268044579"><ele>167.0</ele><time>2026-04-19T07:32:57.999Z</time></trkpt><trkpt lat="42.60776567067" lon="13.71008600863011"><ele>167.0</ele><time>2026-04-19T07:32:58.999Z</time></trkpt><trkpt lat="42.6074697040327" lon="13.710123923563167"><ele>167.0</ele><time>2026-04-19T07:32:59.999Z</time></trkpt><trkpt lat="42.60719639396547" lon="13.710169596580885"><ele>167.0</ele><time>2026-04-19T07:33:00.999Z</time></trkpt><trkpt lat="42.60694236114973" lon="13.710230631631067"><ele>169.5</ele><time>2026-04-19T07:33:01.999Z</time></trkpt><trkpt lat="42.60671397110008" lon="13.71030824277195"><ele>172.0</ele><time>2026-04-19T07:33:02.999Z</time></trkpt><trkpt lat="42.60649755685922" lon="13.710423217395945"><ele>172.0</ele><time>2026-04-19T07:33:03.999Z</time></trkpt><trkpt lat="42.60628088159956" lon="13.710581622207624"><ele>172.0</ele><time>2026-04-19T07:33:04.999Z</time></trkpt><trkpt lat="42.60607986972911" lon="13.710785017752913"><ele>171.5</ele><time>2026-04-19T07:33:05.999Z</time></trkpt><trkpt lat="42.60589383443964" lon="13.711022120071817"><ele>171.0</ele><time>2026-04-19T07:33:06.999Z</time></trkpt><trkpt lat="42.60571745587618" lon="13.711269256902026"><ele>175.5</ele><time>2026-04-19T07:33:07.999Z</time></trkpt><trkpt lat="42.605558065248154" lon="13.71149573362404"><ele>180.0</ele><time>2026-04-19T07:33:08.999Z</time></trkpt><trkpt lat="42.605396194863125" lon="13.711700217377103"><ele>180.33333333333334</ele><time>2026-04-19T07:33:09.999Z</time></trkpt><trkpt lat="42.60521557373339" lon="13.711848303843503"><ele>180.66666666666669</ele><time>2026-04-19T07:33:10.999Z</time></trkpt><trkpt lat="42.60500643056821" lon="13.711977487553872"><ele>181.0</ele><time>2026-04-19T07:33:11.999Z</time></trkpt><trkpt lat="42.60476741314486" lon="13.712086559192032"><ele>181.0</ele><time>2026-04-19T07:33:12.999Z</time></trkpt><trkpt lat="42.60449976557485" lon="13.712169838814182"><ele>181.0</ele><time>2026-04-19T07:33:13.999Z</time></trkpt><trkpt lat="42.60421379780027" lon="13.712230506846115"><ele>181.0</ele><time>2026-04-19T07:33:14.999Z</time></trkpt><trkpt lat="42.603919942396374" lon="13.7122785137591"><ele>181.0</ele><time>2026-04-19T07:33:15.999Z</time></trkpt><trkpt lat="42.6036047177437" lon="13.712303346739793"><ele>181.0</ele><time>2026-04-19T07:33:16.999Z</time></trkpt><trkpt lat="42.603260928870554" lon="13.712306829124419"><ele>181.0</ele><time>2026-04-19T07:33:17.999Z</time></trkpt><trkpt lat="42.602902630344104" lon="13.712303139151276"><ele>181.5</ele><time>2026-04-19T07:33:18.999Z</time></trkpt><trkpt lat="42.60257352601354" lon="13.71229311985897"><ele>182.0</ele><time>2026-04-19T07:33:19.999Z</time></trkpt><trkpt lat="42.602264070158554" lon="13.712289400569516"><ele>182.0</ele><time>2026-04-19T07:33:20.999Z</time></trkpt><trkpt lat="42.60197394806545" lon="13.712291709340462"><ele>182.0</ele><time>2026-04-19T07:33:21.999Z</time></trkpt><trkpt lat="42.60169519581289" lon="13.71229737855375"><ele>182.0</ele><time>2026-04-19T07:33:22.999Z</time></trkpt><trkpt lat="42.60141866627136" lon="13.712300518099179"><ele>182.0</ele><time>2026-04-19T07:33:23.999Z</time></trkpt><trkpt lat="42.601144596240445" lon="13.712302997114728"><ele>182.0</ele><time>2026-04-19T07:33:24.999Z</time></trkpt><trkpt lat="42.60087389160724" lon="13.712307595554833"><ele>182.0</ele><time>2026-04-19T07:33:25.999Z</time></trkpt><trkpt lat="42.60060720677581" lon="13.71230913847845"><ele>182.0</ele><time>2026-04-19T07:33:26.999Z</time></trkpt><trkpt lat="42.60035207563842" lon="13.712303457399154"><ele>182.0</ele><time>2026-04-19T07:33:27.999Z</time></trkpt><trkpt lat="42.60011432923359" lon="13.712295456043858"><ele>183.0</ele><time>2026-04-19T07:33:29Z</time></trkpt><trkpt lat="42.59989121928696" lon="13.712288253150104"><ele>184.0</ele><time>2026-04-19T07:33:30Z</time></trkpt><trkpt lat="42.59968378780656" lon="13.712275105886697"><ele>185.0</ele><time>2026-04-19T07:33:31Z</time></trkpt><trkpt lat="42.5994908254627" lon="13.712250555038485"><ele>187.33333333333331</ele><time>2026-04-19T07:33:32Z</time></trkpt><trkpt lat="42.599314662048535" lon="13.712213337219769"><ele>189.66666666666666</ele><time>2026-04-19T07:33:33Z</time></trkpt><trkpt lat="42.5991652934581" lon="13.71216728532241"><ele>192.0</ele><time>2026-04-19T07:33:34Z</time></trkpt><trkpt lat="42.599040503282865" lon="13.712110962772071"><ele>192.0</ele><time>2026-04-19T07:33:35Z</time></trkpt><trkpt lat="42.598932234822705" lon="13.71203443992583"><ele>192.0</ele><time>2026-04-19T07:33:36Z</time></trkpt><trkpt lat="42.59884776224713" lon="13.71193309070335"><ele>192.0</ele><time>2026-04-19T07:33:37Z</time></trkpt><trkpt lat="42.59877443429297" lon="13.711822665783007"><ele>192.0</ele><time>2026-04-19T07:33:38Z</time></trkpt><trkpt lat="42.598680457966225" lon="13.711733266539941"><ele>191.25</ele><time>2026-04-19T07:33:39Z</time></trkpt><trkpt lat="42.59856532330065" lon="13.711695171188154"><ele>190.5</ele><time>2026-04-19T07:33:40Z</time></trkpt><trkpt lat="42.59843879521348" lon="13.711724150001993"><ele>189.75</ele><time>2026-04-19T07:33:41Z</time></trkpt><trkpt lat="42.598317178716876" lon="13.711797238834196"><ele>189.0</ele><time>2026-04-19T07:33:42Z</time></trkpt><trkpt lat="42.59818799450082" lon="13.711859224671535"><ele>189.0</ele><time>2026-04-19T07:33:43Z</time></trkpt><trkpt lat="42.59805315838686" lon="13.711862225784506"><ele>189.0</ele><time>2026-04-19T07:33:44Z</time></trkpt><trkpt lat="42.59791855338812" lon="13.711849463398035"><ele>189.0</ele><time>2026-04-19T07:33:45Z</time></trkpt><trkpt lat="42.597737629114015" lon="13.711797274517217"><ele>192.0</ele><time>2026-04-19T07:33:46Z</time></trkpt><trkpt lat="42.59756760280316" lon="13.711745689595395"><ele>195.0</ele><time>2026-04-19T07:33:47Z</time></trkpt><trkpt lat="42.59738776908222" lon="13.711681171015858"><ele>198.0</ele><time>2026-04-19T07:33:48Z</time></trkpt><trkpt lat="42.597211381015775" lon="13.711580319429874"><ele>198.0</ele><time>2026-04-19T07:33:49Z</time></trkpt><trkpt lat="42.597039918626784" lon="13.7114276598721"><ele>198.0</ele><time>2026-04-19T07:33:50Z</time></trkpt><trkpt lat="42.59685615327934" lon="13.711249369755805"><ele>198.0</ele><time>2026-04-19T07:33:51Z</time></trkpt><trkpt lat="42.59664664800916" lon="13.711072395953648"><ele>199.0</ele><time>2026-04-19T07:33:52Z</time></trkpt><trkpt lat="42.59646570334484" lon="13.710910261110834"><ele>200.0</ele><time>2026-04-19T07:33:53Z</time></trkpt><trkpt lat="42.59630311646265" lon="13.71076810640082"><ele>201.0</ele><time>2026-04-19T07:33:54Z</time></trkpt><trkpt lat="42.59615809326967" lon="13.710627714336868"><ele>204.33333333333331</ele><time>2026-04-19T07:33:55Z</time></trkpt><trkpt lat="42.59604182380509" lon="13.710465978189529"><ele>207.66666666666666</ele><time>2026-04-19T07:33:56Z</time></trkpt><trkpt lat="42.595948343457955" lon="13.710260226029675"><ele>211.0</ele><time>2026-04-19T07:33:57Z</time></trkpt><trkpt lat="42.59588912310824" lon="13.710006604527658"><ele>211.0</ele><time>2026-04-19T07:33:58Z</time></trkpt><trkpt lat="42.59584717836592" lon="13.709717772331175"><ele>211.0</ele><time>2026-04-19T07:33:59Z</time></trkpt><trkpt lat="42.59580853529402" lon="13.709442696826045"><ele>211.0</ele><time>2026-04-19T07:34:00Z</time></trkpt><trkpt lat="42.59576309329468" lon="13.709194073374938"><ele>209.0</ele><time>2026-04-19T07:34:01Z</time></trkpt><trkpt lat="42.59571489209356" lon="13.708970950869311"><ele>207.0</ele><time>2026-04-19T07:34:02Z</time></trkpt><trkpt lat="42.59563673681075" lon="13.70877433594105"><ele>205.0</ele><time>2026-04-19T07:34:03Z</time></trkpt><trkpt lat="42.59550741853116" lon="13.708614020372393"><ele>207.0</ele><time>2026-04-19T07:34:04Z</time></trkpt><trkpt lat="42.595334778013594" lon="13.708482899275655"><ele>209.0</ele><time>2026-04-19T07:34:05Z</time></trkpt><trkpt lat="42.59516618644186" lon="13.708383830700168"><ele>211.0</ele><time>2026-04-19T07:34:06Z</time></trkpt><trkpt lat="42.59504237627089" lon="13.708236207720093"><ele>211.0</ele><time>2026-04-19T07:34:07Z</time></trkpt><trkpt lat="42.59495636451008" lon="13.707984557430752"><ele>211.0</ele><time>2026-04-19T07:34:08Z</time></trkpt><trkpt lat="42.594883522250264" lon="13.70766356576489"><ele>209.0</ele><time>2026-04-19T07:34:08.999Z</time></trkpt><trkpt lat="42.594811506783905" lon="13.70730979649104"><ele>207.0</ele><time>2026-04-19T07:34:09.999Z</time></trkpt><trkpt lat="42.59474206373411" lon="13.706923508450895"><ele>205.5</ele><time>2026-04-19T07:34:10.999Z</time></trkpt><trkpt lat="42.59466967197517" lon="13.706568019499736"><ele>204.0</ele><time>2026-04-19T07:34:11.999Z</time></trkpt><trkpt lat="42.594600242844464" lon="13.706247791369458"><ele>201.66666666666669</ele><time>2026-04-19T07:34:12.999Z</time></trkpt><trkpt lat="42.59453364920046" lon="13.705951779299056"><ele>199.33333333333334</ele><time>2026-04-19T07:34:13.999Z</time></trkpt><trkpt lat="42.594468992982875" lon="13.705665240760581"><ele>197.0</ele><time>2026-04-19T07:34:14.999Z</time></trkpt><trkpt lat="42.59440135530205" lon="13.705398668410655"><ele>200.66666666666669</ele><time>2026-04-19T07:34:15.999Z</time></trkpt><trkpt lat="42.59430694645811" lon="13.705144184297573"><ele>204.33333333333331</ele><time>2026-04-19T07:34:16.999Z</time></trkpt><trkpt lat="42.594188011863395" lon="13.704886137227891"><ele>208.0</ele><time>2026-04-19T07:34:17.999Z</time></trkpt><trkpt lat="42.59404961380106" lon="13.704637458278475"><ele>204.0</ele><time>2026-04-19T07:34:18.999Z</time></trkpt><trkpt lat="42.59390630315789" lon="13.704382280263808"><ele>200.0</ele><time>2026-04-19T07:34:19.999Z</time></trkpt><trkpt lat="42.59375559030661" lon="13.704122481595661"><ele>206.5</ele><time>2026-04-19T07:34:20.999Z</time></trkpt><trkpt lat="42.59360193188824" lon="13.703858515242109"><ele>213.0</ele><time>2026-04-19T07:34:21.999Z</time></trkpt><trkpt lat="42.59344768660793" lon="13.703595247619345"><ele>210.0</ele><time>2026-04-19T07:34:22.999Z</time></trkpt><trkpt lat="42.593295796127926" lon="13.703330701624678"><ele>207.0</ele><time>2026-04-19T07:34:23.999Z</time></trkpt><trkpt lat="42.593146573834076" lon="13.703063200414581"><ele>207.0</ele><time>2026-04-19T07:34:24.999Z</time></trkpt><trkpt lat="42.59300347711149" lon="13.702795969594801"><ele>207.0</ele><time>2026-04-19T07:34:25.999Z</time></trkpt><trkpt lat="42.59286823944665" lon="13.702518613218286"><ele>211.0</ele><time>2026-04-19T07:34:26.999Z</time></trkpt><trkpt lat="42.59276676848814" lon="13.702221382352773"><ele>215.0</ele><time>2026-04-19T07:34:27.999Z</time></trkpt><trkpt lat="42.59264272979393" lon="13.701948418944873"><ele>211.5</ele><time>2026-04-19T07:34:28.999Z</time></trkpt><trkpt lat="42.592536736388006" lon="13.70166027157313"><ele>208.0</ele><time>2026-04-19T07:34:29.999Z</time></trkpt><trkpt lat="42.59242935913338" lon="13.701379789377954"><ele>208.0</ele><time>2026-04-19T07:34:30.999Z</time></trkpt><trkpt lat="42.59232078299031" lon="13.701099817631134"><ele>208.0</ele><time>2026-04-19T07:34:31.999Z</time></trkpt><trkpt lat="42.59221364919724" lon="13.700821880592027"><ele>206.33333333333331</ele><time>2026-04-19T07:34:32.999Z</time></trkpt><trkpt lat="42.592110852047746" lon="13.700547332769437"><ele>204.66666666666669</ele><time>2026-04-19T07:34:33.999Z</time></trkpt><trkpt lat="42.59201687283236" lon="13.700274853432258"><ele>203.0</ele><time>2026-04-19T07:34:34.999Z</time></trkpt><trkpt lat="42.59193875114494" lon="13.700015815907651"><ele>206.33333333333334</ele><time>2026-04-19T07:34:35.999Z</time></trkpt><trkpt lat="42.59190162834497" lon="13.699757101679218"><ele>209.66666666666669</ele><time>2026-04-19T07:34:36.999Z</time></trkpt><trkpt lat="42.591875692852334" lon="13.699493568608274"><ele>213.0</ele><time>2026-04-19T07:34:37.999Z</time></trkpt><trkpt lat="42.59186626172123" lon="13.69921795213695"><ele>213.0</ele><time>2026-04-19T07:34:38.999Z</time></trkpt><trkpt lat="42.59185851055311" lon="13.698936430510244"><ele>213.0</ele><time>2026-04-19T07:34:39.999Z</time></trkpt><trkpt lat="42.59183859263758" lon="13.698675068632458"><ele>213.0</ele><time>2026-04-19T07:34:40.999Z</time></trkpt><trkpt lat="42.59183080695204" lon="13.698431848731222"><ele>211.66666666666669</ele><time>2026-04-19T07:34:41.999Z</time></trkpt><trkpt lat="42.59179563038598" lon="13.698201478639568"><ele>210.33333333333334</ele><time>2026-04-19T07:34:42.999Z</time></trkpt><trkpt lat="42.591707900380854" lon="13.697981387596682"><ele>209.0</ele><time>2026-04-19T07:34:43.999Z</time></trkpt><trkpt lat="42.5915898310318" lon="13.697785471629967"><ele>208.75</ele><time>2026-04-19T07:34:44.999Z</time></trkpt><trkpt lat="42.59147701811479" lon="13.697607568617618"><ele>208.5</ele><time>2026-04-19T07:34:45.999Z</time></trkpt><trkpt lat="42.59139098885555" lon="13.697450509760037"><ele>208.25</ele><time>2026-04-19T07:34:46.999Z</time></trkpt><trkpt lat="42.591333354540375" lon="13.697294369551264"><ele>208.0</ele><time>2026-04-19T07:34:47.999Z</time></trkpt><trkpt lat="42.59133643930938" lon="13.697158508699024"><ele>208.0</ele><time>2026-04-19T07:34:48.999Z</time></trkpt><trkpt lat="42.59132194564212" lon="13.697031130673231"><ele>208.0</ele><time>2026-04-19T07:34:49.999Z</time></trkpt><trkpt lat="42.59135884887429" lon="13.696903005551418"><ele>208.0</ele><time>2026-04-19T07:34:50.999Z</time></trkpt><trkpt lat="42.591436000637515" lon="13.696811689224639"><ele>208.0</ele><time>2026-04-19T07:34:51.999Z</time></trkpt><trkpt lat="42.59145453811325" lon="13.69670114290356"><ele>208.0</ele><time>2026-04-19T07:34:52.999Z</time></trkpt><trkpt lat="42.59142876957852" lon="13.696580402456737"><ele>207.5</ele><time>2026-04-19T07:34:53.999Z</time></trkpt><trkpt lat="42.591312367773135" lon="13.696492521621595"><ele>207.0</ele><time>2026-04-19T07:34:54.999Z</time></trkpt><trkpt lat="42.59120533913797" lon="13.69638524213977"><ele>206.5</ele><time>2026-04-19T07:34:55.999Z</time></trkpt><trkpt lat="42.59113829051969" lon="13.696261959780427"><ele>206.0</ele><time>2026-04-19T07:34:56.999Z</time></trkpt><trkpt lat="42.591120392126015" lon="13.696083769069705"><ele>207.33333333333334</ele><time>2026-04-19T07:34:57.999Z</time></trkpt><trkpt lat="42.59109198028966" lon="13.69586173581859"><ele>208.66666666666669</ele><time>2026-04-19T07:34:58.999Z</time></trkpt><trkpt lat="42.59106401026597" lon="13.69564315530019"><ele>210.0</ele><time>2026-04-19T07:34:59.999Z</time></trkpt><trkpt lat="42.59103904760613" lon="13.695447921887801"><ele>210.0</ele><time>2026-04-19T07:35:00.999Z</time></trkpt><trkpt lat="42.591015159171384" lon="13.695260280560918"><ele>210.0</ele><time>2026-04-19T07:35:01.999Z</time></trkpt><trkpt lat="42.590988819581874" lon="13.69505338563695"><ele>210.0</ele><time>2026-04-19T07:35:02.999Z</time></trkpt><trkpt lat="42.59094653373689" lon="13.694841106188315"><ele>210.33333333333331</ele><time>2026-04-19T07:35:03.999Z</time></trkpt><trkpt lat="42.59091918391863" lon="13.694624335622093"><ele>210.66666666666666</ele><time>2026-04-19T07:35:04.999Z</time></trkpt><trkpt lat="42.590890877508734" lon="13.694409523062934"><ele>211.0</ele><time>2026-04-19T07:35:05.999Z</time></trkpt><trkpt lat="42.590878401910906" lon="13.694191085131143"><ele>211.0</ele><time>2026-04-19T07:35:06.999Z</time></trkpt><trkpt lat="42.59084640942806" lon="13.693973722746076"><ele>211.0</ele><time>2026-04-19T07:35:07.999Z</time></trkpt><trkpt lat="42.59079481453519" lon="13.693763222547917"><ele>211.0</ele><time>2026-04-19T07:35:08.999Z</time></trkpt><trkpt lat="42.59075234293558" lon="13.693547292896048"><ele>210.66666666666666</ele><time>2026-04-19T07:35:09.999Z</time></trkpt><trkpt lat="42.59070449611451" lon="13.693329048793581"><ele>210.33333333333331</ele><time>2026-04-19T07:35:10.999Z</time></trkpt><trkpt lat="42.590653883331576" lon="13.693108480261536"><ele>210.0</ele><time>2026-04-19T07:35:11.999Z</time></trkpt><trkpt lat="42.59060488385152" lon="13.692889320660713"><ele>210.33333333333331</ele><time>2026-04-19T07:35:12.999Z</time></trkpt><trkpt lat="42.59055550150065" lon="13.692675466806143"><ele>210.66666666666666</ele><time>2026-04-19T07:35:13.999Z</time></trkpt><trkpt lat="42.590505741656855" lon="13.69246019500549"><ele>211.0</ele><time>2026-04-19T07:35:14.999Z</time></trkpt><trkpt lat="42.590454311890966" lon="13.69225038184117"><ele>211.0</ele><time>2026-04-19T07:35:15.999Z</time></trkpt><trkpt lat="42.5903999282187" lon="13.692042014204237"><ele>211.0</ele><time>2026-04-19T07:35:16.999Z</time></trkpt><trkpt lat="42.59034047001002" lon="13.69184252999012"><ele>211.0</ele><time>2026-04-19T07:35:17.999Z</time></trkpt><trkpt lat="42.59027220404346" lon="13.69164327967899"><ele>212.0</ele><time>2026-04-19T07:35:18.999Z</time></trkpt><trkpt lat="42.5902029465835" lon="13.691446128548035"><ele>213.0</ele><time>2026-04-19T07:35:19.999Z</time></trkpt><trkpt lat="42.590136011972085" lon="13.691261545656433"><ele>214.0</ele><time>2026-04-19T07:35:20.999Z</time></trkpt><trkpt lat="42.59006965139291" lon="13.691093619871348"><ele>213.75</ele><time>2026-04-19T07:35:21.999Z</time></trkpt><trkpt lat="42.59000721212973" lon="13.69094225402397"><ele>213.5</ele><time>2026-04-19T07:35:22.999Z</time></trkpt><trkpt lat="42.58995344624257" lon="13.690797526074363"><ele>213.25</ele><time>2026-04-19T07:35:23.999Z</time></trkpt><trkpt lat="42.589915202428166" lon="13.690663249195937"><ele>213.0</ele><time>2026-04-19T07:35:24.999Z</time></trkpt><trkpt lat="42.58988261217895" lon="13.690535713407344"><ele>213.0</ele><time>2026-04-19T07:35:25.999Z</time></trkpt><trkpt lat="42.58983127408059" lon="13.69041763493263"><ele>213.0</ele><time>2026-04-19T07:35:26.999Z</time></trkpt><trkpt lat="42.58976832902441" lon="13.690294412504675"><ele>213.0</ele><time>2026-04-19T07:35:27.999Z</time></trkpt><trkpt lat="42.58971339588834" lon="13.69016256431293"><ele>213.0</ele><time>2026-04-19T07:35:28.999Z</time></trkpt><trkpt lat="42.589684996198805" lon="13.690033425389295"><ele>213.0</ele><time>2026-04-19T07:35:29.999Z</time></trkpt><trkpt lat="42.589672608437496" lon="13.689915212036318"><ele>212.5</ele><time>2026-04-19T07:35:30.999Z</time></trkpt><trkpt lat="42.58964958738941" lon="13.689827552211085"><ele>212.0</ele><time>2026-04-19T07:35:31.999Z</time></trkpt><trkpt lat="42.58958813375921" lon="13.689677871618022"><ele>211.5</ele><time>2026-04-19T07:35:33.999Z</time></trkpt><trkpt lat="42.58947724265016" lon="13.689557143839727"><ele>211.0</ele><time>2026-04-19T07:35:36Z</time></trkpt><trkpt lat="42.58940428546808" lon="13.689436350164991"><ele>214.0</ele><time>2026-04-19T07:35:37Z</time></trkpt><trkpt lat="42.58932996233541" lon="13.689253320202901"><ele>217.0</ele><time>2026-04-19T07:35:38Z</time></trkpt><trkpt lat="42.589233040867626" lon="13.68901463888603"><ele>220.0</ele><time>2026-04-19T07:35:39Z</time></trkpt><trkpt lat="42.589120565768695" lon="13.68875353220494"><ele>218.66666666666666</ele><time>2026-04-19T07:35:40Z</time></trkpt><trkpt lat="42.589022194934856" lon="13.68852840430275"><ele>217.33333333333331</ele><time>2026-04-19T07:35:41Z</time></trkpt><trkpt lat="42.58893313681424" lon="13.688304490020505"><ele>216.0</ele><time>2026-04-19T07:35:42Z</time></trkpt><trkpt lat="42.5888413351777" lon="13.688080259448547"><ele>216.0</ele><time>2026-04-19T07:35:43Z</time></trkpt><trkpt lat="42.58874933364573" lon="13.687853623480464"><ele>216.0</ele><time>2026-04-19T07:35:44Z</time></trkpt><trkpt lat="42.588654755003056" lon="13.687616176520018"><ele>216.0</ele><time>2026-04-19T07:35:45Z</time></trkpt><trkpt lat="42.588562032346005" lon="13.687384153148443"><ele>217.66666666666669</ele><time>2026-04-19T07:35:46Z</time></trkpt><trkpt lat="42.58846850334853" lon="13.687151100465124"><ele>219.33333333333334</ele><time>2026-04-19T07:35:47Z</time></trkpt><trkpt lat="42.58837544090733" lon="13.686915320135546"><ele>221.0</ele><time>2026-04-19T07:35:48Z</time></trkpt><trkpt lat="42.58828081589439" lon="13.686679939643534"><ele>221.33333333333334</ele><time>2026-04-19T07:35:49Z</time></trkpt><trkpt lat="42.58818534825451" lon="13.686449887353955"><ele>221.66666666666669</ele><time>2026-04-19T07:35:50Z</time></trkpt><trkpt lat="42.58808890770473" lon="13.686215641474448"><ele>222.0</ele><time>2026-04-19T07:35:51Z</time></trkpt><trkpt lat="42.58799196597102" lon="13.685980714062092"><ele>221.33333333333331</ele><time>2026-04-19T07:35:52Z</time></trkpt><trkpt lat="42.58789132461845" lon="13.685749468592233"><ele>220.66666666666666</ele><time>2026-04-19T07:35:53Z</time></trkpt><trkpt lat="42.587794243983076" lon="13.68551253238076"><ele>220.0</ele><time>2026-04-19T07:35:54Z</time></trkpt><trkpt lat="42.58770249282114" lon="13.685273385832758"><ele>221.66666666666666</ele><time>2026-04-19T07:35:55Z</time></trkpt><trkpt lat="42.58760896471435" lon="13.685034834478024"><ele>223.33333333333331</ele><time>2026-04-19T07:35:56Z</time></trkpt><trkpt lat="42.58750917990372" lon="13.684797204969776"><ele>225.0</ele><time>2026-04-19T07:35:57Z</time></trkpt><trkpt lat="42.58740956218602" lon="13.684558485541878"><ele>223.33333333333331</ele><time>2026-04-19T07:35:58Z</time></trkpt><trkpt lat="42.58730832390853" lon="13.684318954548049"><ele>221.66666666666666</ele><time>2026-04-19T07:35:59Z</time></trkpt><trkpt lat="42.58720042989967" lon="13.684086892786242"><ele>220.0</ele><time>2026-04-19T07:36:00Z</time></trkpt><trkpt lat="42.58707542696108" lon="13.683869075211941"><ele>221.0</ele><time>2026-04-19T07:36:01Z</time></trkpt><trkpt lat="42.58693410744168" lon="13.68367441824175"><ele>222.0</ele><time>2026-04-19T07:36:02Z</time></trkpt><trkpt lat="42.58677564567366" lon="13.683500060467686"><ele>223.0</ele><time>2026-04-19T07:36:03Z</time></trkpt><trkpt lat="42.586604042319934" lon="13.683344326662533"><ele>224.66666666666666</ele><time>2026-04-19T07:36:04Z</time></trkpt><trkpt lat="42.58641883743856" lon="13.683204840957007"><ele>226.33333333333331</ele><time>2026-04-19T07:36:05Z</time></trkpt><trkpt lat="42.58622440494051" lon="13.683088610311945"><ele>228.0</ele><time>2026-04-19T07:36:06Z</time></trkpt><trkpt lat="42.58602485936797" lon="13.682979341768744"><ele>228.0</ele><time>2026-04-19T07:36:07Z</time></trkpt><trkpt lat="42.58582481273782" lon="13.682872817922537"><ele>228.0</ele><time>2026-04-19T07:36:08Z</time></trkpt><trkpt lat="42.585633524996354" lon="13.682760940852733"><ele>228.0</ele><time>2026-04-19T07:36:09Z</time></trkpt><trkpt lat="42.58545067253535" lon="13.682631616944247"><ele>230.66666666666669</ele><time>2026-04-19T07:36:10Z</time></trkpt><trkpt lat="42.58528331001654" lon="13.682467873292657"><ele>233.33333333333334</ele><time>2026-04-19T07:36:11Z</time></trkpt><trkpt lat="42.58513568735952" lon="13.682258111594082"><ele>236.0</ele><time>2026-04-19T07:36:12Z</time></trkpt><trkpt lat="42.58501263864842" lon="13.682004845211926"><ele>230.0</ele><time>2026-04-19T07:36:13Z</time></trkpt><trkpt lat="42.58485553771359" lon="13.6817879247065"><ele>224.0</ele><time>2026-04-19T07:36:14Z</time></trkpt><trkpt lat="42.584700350026296" lon="13.681529870372342"><ele>224.0</ele><time>2026-04-19T07:36:15Z</time></trkpt><trkpt lat="42.58456475688516" lon="13.681237986206407"><ele>224.0</ele><time>2026-04-19T07:36:16Z</time></trkpt><trkpt lat="42.58442583021127" lon="13.680946892624936"><ele>228.66666666666669</ele><time>2026-04-19T07:36:17Z</time></trkpt><trkpt lat="42.584301266232366" lon="13.680683372650417"><ele>233.33333333333331</ele><time>2026-04-19T07:36:18Z</time></trkpt><trkpt lat="42.58418982678342" lon="13.680439467665149"><ele>238.0</ele><time>2026-04-19T07:36:19Z</time></trkpt><trkpt lat="42.5841002862118" lon="13.680189180421701"><ele>238.0</ele><time>2026-04-19T07:36:20Z</time></trkpt><trkpt lat="42.584072714206876" lon="13.679900422602518"><ele>238.0</ele><time>2026-04-19T07:36:21Z</time></trkpt><trkpt lat="42.584062941238265" lon="13.679591072072867"><ele>238.0</ele><time>2026-04-19T07:36:22Z</time></trkpt><trkpt lat="42.58405723353012" lon="13.679266347205896"><ele>237.5</ele><time>2026-04-19T07:36:23Z</time></trkpt><trkpt lat="42.584052653342106" lon="13.678941135055965"><ele>237.0</ele><time>2026-04-19T07:36:23.999Z</time></trkpt><trkpt lat="42.584063025559225" lon="13.678637403170557"><ele>238.0</ele><time>2026-04-19T07:36:24.999Z</time></trkpt><trkpt lat="42.584103555528486" lon="13.678354311692422"><ele>239.0</ele><time>2026-04-19T07:36:25.999Z</time></trkpt><trkpt lat="42.58413451289526" lon="13.678082225577626"><ele>240.0</ele><time>2026-04-19T07:36:26.999Z</time></trkpt><trkpt lat="42.58416996681201" lon="13.677824219036943"><ele>238.66666666666669</ele><time>2026-04-19T07:36:27.999Z</time></trkpt><trkpt lat="42.58417943678971" lon="13.67757296053007"><ele>237.33333333333334</ele><time>2026-04-19T07:36:28.999Z</time></trkpt><trkpt lat="42.58415524016773" lon="13.677338496550776"><ele>236.0</ele><time>2026-04-19T07:36:29.999Z</time></trkpt><trkpt lat="42.58410377194763" lon="13.677093244397291"><ele>234.66666666666669</ele><time>2026-04-19T07:36:30.999Z</time></trkpt><trkpt lat="42.58403160365133" lon="13.676841770170437"><ele>233.33333333333331</ele><time>2026-04-19T07:36:31.999Z</time></trkpt><trkpt lat="42.583954553551" lon="13.676584763266753"><ele>232.0</ele><time>2026-04-19T07:36:32.999Z</time></trkpt><trkpt lat="42.5838818510073" lon="13.67631740723625"><ele>231.0</ele><time>2026-04-19T07:36:33.999Z</time></trkpt><trkpt lat="42.58380472932439" lon="13.67604862748529"><ele>230.0</ele><time>2026-04-19T07:36:34.999Z</time></trkpt><trkpt lat="42.583748515581995" lon="13.675787287933957"><ele>229.0</ele><time>2026-04-19T07:36:35.999Z</time></trkpt><trkpt lat="42.583670827042724" lon="13.675537239003903"><ele>232.0</ele><time>2026-04-19T07:36:36.999Z</time></trkpt><trkpt lat="42.58360457048845" lon="13.67528526039832"><ele>235.0</ele><time>2026-04-19T07:36:37.999Z</time></trkpt><trkpt lat="42.58353823546883" lon="13.675039634083438"><ele>238.0</ele><time>2026-04-19T07:36:38.999Z</time></trkpt><trkpt lat="42.5834708479894" lon="13.674795539611932"><ele>238.0</ele><time>2026-04-19T07:36:39.999Z</time></trkpt><trkpt lat="42.58339679385532" lon="13.67453984576347"><ele>238.0</ele><time>2026-04-19T07:36:40.999Z</time></trkpt><trkpt lat="42.583314740124685" lon="13.674279107686424"><ele>238.0</ele><time>2026-04-19T07:36:41.999Z</time></trkpt><trkpt lat="42.58322349533971" lon="13.674018652661859"><ele>236.0</ele><time>2026-04-19T07:36:42.999Z</time></trkpt><trkpt lat="42.58312971084539" lon="13.673749001776546"><ele>234.0</ele><time>2026-04-19T07:36:43.999Z</time></trkpt><trkpt lat="42.58303156023708" lon="13.673474460560932"><ele>232.0</ele><time>2026-04-19T07:36:44.999Z</time></trkpt><trkpt lat="42.58294098160009" lon="13.673191432637873"><ele>230.0</ele><time>2026-04-19T07:36:45.999Z</time></trkpt><trkpt lat="42.58285468430864" lon="13.672904813514613"><ele>228.0</ele><time>2026-04-19T07:36:46.999Z</time></trkpt><trkpt lat="42.58276007804937" lon="13.672620394756072"><ele>228.0</ele><time>2026-04-19T07:36:47.999Z</time></trkpt><trkpt lat="42.58266204613248" lon="13.67233985592277"><ele>228.0</ele><time>2026-04-19T07:36:48.999Z</time></trkpt><trkpt lat="42.58256778796392" lon="13.672069060230124"><ele>228.0</ele><time>2026-04-19T07:36:49.999Z</time></trkpt><trkpt lat="42.582485515219794" lon="13.671805040079267"><ele>227.66666666666669</ele><time>2026-04-19T07:36:50.999Z</time></trkpt><trkpt lat="42.58240586552639" lon="13.671544173177725"><ele>227.33333333333334</ele><time>2026-04-19T07:36:51.999Z</time></trkpt><trkpt lat="42.58232728364964" lon="13.671286034737225"><ele>227.0</ele><time>2026-04-19T07:36:52.999Z</time></trkpt><trkpt lat="42.582248630151305" lon="13.671026529806769"><ele>226.66666666666669</ele><time>2026-04-19T07:36:53.999Z</time></trkpt><trkpt lat="42.58216614325308" lon="13.670764290448773"><ele>226.33333333333331</ele><time>2026-04-19T07:36:54.999Z</time></trkpt><trkpt lat="42.58208415274725" lon="13.670502781416516"><ele>226.0</ele><time>2026-04-19T07:36:55.999Z</time></trkpt><trkpt lat="42.58200526130628" lon="13.670225834003293"><ele>229.66666666666666</ele><time>2026-04-19T07:36:56.999Z</time></trkpt><trkpt lat="42.58192308463049" lon="13.669953182959027"><ele>233.33333333333331</ele><time>2026-04-19T07:36:57.999Z</time></trkpt><trkpt lat="42.58184113165152" lon="13.669680138582784"><ele>237.0</ele><time>2026-04-19T07:36:58.999Z</time></trkpt><trkpt lat="42.58176309562316" lon="13.669409424484849"><ele>237.0</ele><time>2026-04-19T07:36:59.999Z</time></trkpt><trkpt lat="42.58169170423297" lon="13.669139254305243"><ele>237.0</ele><time>2026-04-19T07:37:00.999Z</time></trkpt><trkpt lat="42.58164162956836" lon="13.668860020092158"><ele>237.0</ele><time>2026-04-19T07:37:01.999Z</time></trkpt><trkpt lat="42.58159516402494" lon="13.668586387784952"><ele>237.33333333333331</ele><time>2026-04-19T07:37:02.999Z</time></trkpt><trkpt lat="42.58154797496884" lon="13.668306735906206"><ele>237.66666666666666</ele><time>2026-04-19T07:37:03.999Z</time></trkpt><trkpt lat="42.581496597556665" lon="13.668028007069555"><ele>238.0</ele><time>2026-04-19T07:37:04.999Z</time></trkpt><trkpt lat="42.58143284556441" lon="13.667757485514635"><ele>236.66666666666666</ele><time>2026-04-19T07:37:05.999Z</time></trkpt><trkpt lat="42.58136403418606" lon="13.66748500273766"><ele>235.33333333333331</ele><time>2026-04-19T07:37:06.999Z</time></trkpt><trkpt lat="42.58127203007081" lon="13.66720900366047"><ele>234.0</ele><time>2026-04-19T07:37:07.999Z</time></trkpt><trkpt lat="42.581181287544105" lon="13.666940523450025"><ele>236.66666666666669</ele><time>2026-04-19T07:37:08.999Z</time></trkpt><trkpt lat="42.58108981149736" lon="13.666669706686204"><ele>239.33333333333334</ele><time>2026-04-19T07:37:09.999Z</time></trkpt><trkpt lat="42.580995881953385" lon="13.666403456499287"><ele>242.0</ele><time>2026-04-19T07:37:10.999Z</time></trkpt><trkpt lat="42.580877319446294" lon="13.6661570180814"><ele>237.0</ele><time>2026-04-19T07:37:11.999Z</time></trkpt><trkpt lat="42.58072251730777" lon="13.665942159306777"><ele>232.0</ele><time>2026-04-19T07:37:12.999Z</time></trkpt><trkpt lat="42.58054905159113" lon="13.66572313878175"><ele>232.0</ele><time>2026-04-19T07:37:13.999Z</time></trkpt><trkpt lat="42.580365379094594" lon="13.66550456118388"><ele>232.0</ele><time>2026-04-19T07:37:14.999Z</time></trkpt><trkpt lat="42.58019858233646" lon="13.66530150378469"><ele>236.0</ele><time>2026-04-19T07:37:15.999Z</time></trkpt><trkpt lat="42.58004860269225" lon="13.665107579635992"><ele>240.0</ele><time>2026-04-19T07:37:16.999Z</time></trkpt><trkpt lat="42.57992225231466" lon="13.664911908946742"><ele>244.0</ele><time>2026-04-19T07:37:17.999Z</time></trkpt><trkpt lat="42.579829462486124" lon="13.664691244499851"><ele>241.0</ele><time>2026-04-19T07:37:18.999Z</time></trkpt><trkpt lat="42.57977654794683" lon="13.664427792256298"><ele>238.0</ele><time>2026-04-19T07:37:19.999Z</time></trkpt><trkpt lat="42.57976115033184" lon="13.664147837094317"><ele>235.0</ele><time>2026-04-19T07:37:20.999Z</time></trkpt><trkpt lat="42.57980597506446" lon="13.66386431504475"><ele>234.5</ele><time>2026-04-19T07:37:21.999Z</time></trkpt><trkpt lat="42.57988027960723" lon="13.663566991949283"><ele>234.0</ele><time>2026-04-19T07:37:22.999Z</time></trkpt><trkpt lat="42.57996732113669" lon="13.663281056137947"><ele>234.0</ele><time>2026-04-19T07:37:23.999Z</time></trkpt><trkpt lat="42.58002495702893" lon="13.662996362481634"><ele>234.0</ele><time>2026-04-19T07:37:24.999Z</time></trkpt><trkpt lat="42.58005172858298" lon="13.662709687599714"><ele>234.0</ele><time>2026-04-19T07:37:25.999Z</time></trkpt><trkpt lat="42.580057471240266" lon="13.662423918482592"><ele>231.33333333333331</ele><time>2026-04-19T07:37:26.999Z</time></trkpt><trkpt lat="42.58004881955489" lon="13.662128412810711"><ele>228.66666666666666</ele><time>2026-04-19T07:37:27.999Z</time></trkpt><trkpt lat="42.58005201401423" lon="13.66183787547561"><ele>226.0</ele><time>2026-04-19T07:37:28.999Z</time></trkpt><trkpt lat="42.58009678093267" lon="13.661553208975"><ele>226.0</ele><time>2026-04-19T07:37:29.999Z</time></trkpt><trkpt lat="42.58018346847086" lon="13.661281530894598"><ele>226.0</ele><time>2026-04-19T07:37:30.999Z</time></trkpt><trkpt lat="42.58030005448765" lon="13.661034229423523"><ele>226.0</ele><time>2026-04-19T07:37:31.999Z</time></trkpt><trkpt lat="42.58043277852435" lon="13.660800375145529"><ele>226.0</ele><time>2026-04-19T07:37:32.999Z</time></trkpt><trkpt lat="42.58057224319565" lon="13.660580151374175"><ele>226.0</ele><time>2026-04-19T07:37:33.999Z</time></trkpt><trkpt lat="42.58071740756354" lon="13.660348208652179"><ele>226.0</ele><time>2026-04-19T07:37:34.999Z</time></trkpt><trkpt lat="42.580878426186956" lon="13.660106310025855"><ele>226.66666666666666</ele><time>2026-04-19T07:37:35.999Z</time></trkpt><trkpt lat="42.581042072544705" lon="13.65988683073922"><ele>227.33333333333331</ele><time>2026-04-19T07:37:36.999Z</time></trkpt><trkpt lat="42.58120407848367" lon="13.659699401763971"><ele>228.0</ele><time>2026-04-19T07:37:37.999Z</time></trkpt><trkpt lat="42.58135513991825" lon="13.659534549882917"><ele>230.0</ele><time>2026-04-19T07:37:38.999Z</time></trkpt><trkpt lat="42.58149358622729" lon="13.65937278824843"><ele>232.0</ele><time>2026-04-19T07:37:39.999Z</time></trkpt><trkpt lat="42.581624394545706" lon="13.659216025424012"><ele>234.0</ele><time>2026-04-19T07:37:41Z</time></trkpt><trkpt lat="42.581746335224246" lon="13.659068389744384"><ele>234.0</ele><time>2026-04-19T07:37:42Z</time></trkpt><trkpt lat="42.58186967062736" lon="13.658921769533016"><ele>234.0</ele><time>2026-04-19T07:37:43Z</time></trkpt><trkpt lat="42.58199796885175" lon="13.658762783606788"><ele>234.0</ele><time>2026-04-19T07:37:44Z</time></trkpt><trkpt lat="42.5821135034766" lon="13.658569535921588"><ele>233.75</ele><time>2026-04-19T07:37:45Z</time></trkpt><trkpt lat="42.58219271267368" lon="13.658370064710775"><ele>233.5</ele><time>2026-04-19T07:37:46Z</time></trkpt><trkpt lat="42.58223989338613" lon="13.658191056984608"><ele>233.25</ele><time>2026-04-19T07:37:47Z</time></trkpt><trkpt lat="42.58227968389293" lon="13.658050158052829"><ele>233.0</ele><time>2026-04-19T07:37:48Z</time></trkpt><trkpt lat="42.582329821361526" lon="13.65796154232457"><ele>233.00000000000003</ele><time>2026-04-19T07:37:49Z</time></trkpt><trkpt lat="42.58240180603833" lon="13.657917561946206"><ele>233.0</ele><time>2026-04-19T07:37:50Z</time></trkpt><trkpt lat="42.582494017506" lon="13.657902828671942"><ele>233.0</ele><time>2026-04-19T07:37:51Z</time></trkpt><trkpt lat="42.5825742612635" lon="13.657876130009878"><ele>233.0</ele><time>2026-04-19T07:37:52Z</time></trkpt><trkpt lat="42.58261852472951" lon="13.657797175130488"><ele>233.00000000000003</ele><time>2026-04-19T07:37:53Z</time></trkpt><trkpt lat="42.582622738412006" lon="13.657690874058128"><ele>233.0</ele><time>2026-04-19T07:37:54Z</time></trkpt><trkpt lat="42.582586217533596" lon="13.657585896070417"><ele>233.60000000000002</ele><time>2026-04-19T07:37:55Z</time></trkpt><trkpt lat="42.582510979946456" lon="13.65751732647348"><ele>234.20000000000002</ele><time>2026-04-19T07:37:56Z</time></trkpt><trkpt lat="42.582398496621565" lon="13.657467580638006"><ele>234.8</ele><time>2026-04-19T07:37:57Z</time></trkpt><trkpt lat="42.58231537172778" lon="13.657405234393233"><ele>235.4</ele><time>2026-04-19T07:37:58Z</time></trkpt><trkpt lat="42.582283909637546" lon="13.65727688864849"><ele>236.0</ele><time>2026-04-19T07:37:59Z</time></trkpt><trkpt lat="42.58228155930802" lon="13.657104983408525"><ele>236.0</ele><time>2026-04-19T07:38:00Z</time></trkpt><trkpt lat="42.582294519656955" lon="13.656872061606897"><ele>236.0</ele><time>2026-04-19T07:38:01Z</time></trkpt><trkpt lat="42.58230195724305" lon="13.656557029365672"><ele>236.0</ele><time>2026-04-19T07:38:02Z</time></trkpt><trkpt lat="42.58230284788433" lon="13.65617409937553"><ele>236.5</ele><time>2026-04-19T07:38:03Z</time></trkpt><trkpt lat="42.58232801943907" lon="13.655755669794424"><ele>237.0</ele><time>2026-04-19T07:38:04Z</time></trkpt><trkpt lat="42.582358338700324" lon="13.655314058551706"><ele>237.5</ele><time>2026-04-19T07:38:05Z</time></trkpt><trkpt lat="42.582366302067555" lon="13.654909641167253"><ele>238.0</ele><time>2026-04-19T07:38:06Z</time></trkpt><trkpt lat="42.58236378924489" lon="13.654544847321278"><ele>239.0</ele><time>2026-04-19T07:38:07Z</time></trkpt><trkpt lat="42.58235479102259" lon="13.654204461374572"><ele>240.0</ele><time>2026-04-19T07:38:08Z</time></trkpt><trkpt lat="42.58234457159936" lon="13.653883135018457"><ele>240.66666666666669</ele><time>2026-04-19T07:38:09Z</time></trkpt><trkpt lat="42.58233514182017" lon="13.653579526268786"><ele>241.33333333333334</ele><time>2026-04-19T07:38:10Z</time></trkpt><trkpt lat="42.582326283451174" lon="13.653292771398574"><ele>242.0</ele><time>2026-04-19T07:38:11Z</time></trkpt><trkpt lat="42.58231636861235" lon="13.653022554161556"><ele>242.33333333333334</ele><time>2026-04-19T07:38:12Z</time></trkpt><trkpt lat="42.58230573275239" lon="13.652761445754365"><ele>242.66666666666669</ele><time>2026-04-19T07:38:13Z</time></trkpt><trkpt lat="42.58229620401045" lon="13.652507031305941"><ele>243.0</ele><time>2026-04-19T07:38:14Z</time></trkpt><trkpt lat="42.58228826110771" lon="13.652257832648026"><ele>243.0</ele><time>2026-04-19T07:38:15Z</time></trkpt><trkpt lat="42.58228062909182" lon="13.652015707298764"><ele>243.0</ele><time>2026-04-19T07:38:16Z</time></trkpt><trkpt lat="42.582271704190816" lon="13.651772552465854"><ele>243.0</ele><time>2026-04-19T07:38:17Z</time></trkpt><trkpt lat="42.58226059044414" lon="13.651525734022611"><ele>242.66666666666669</ele><time>2026-04-19T07:38:17.999Z</time></trkpt><trkpt lat="42.582248640472" lon="13.651275409548253"><ele>242.33333333333334</ele><time>2026-04-19T07:38:18.999Z</time></trkpt><trkpt lat="42.58223724399254" lon="13.651023370257933"><ele>242.0</ele><time>2026-04-19T07:38:19.999Z</time></trkpt><trkpt lat="42.58221920862575" lon="13.650770136974375"><ele>241.66666666666669</ele><time>2026-04-19T07:38:20.999Z</time></trkpt><trkpt lat="42.58219098740521" lon="13.650517932439106"><ele>241.33333333333331</ele><time>2026-04-19T07:38:21.999Z</time></trkpt><trkpt lat="42.582156453106336" lon="13.650272020601571"><ele>241.0</ele><time>2026-04-19T07:38:22.999Z</time></trkpt><trkpt lat="42.58211712205268" lon="13.650026547914308"><ele>241.66666666666666</ele><time>2026-04-19T07:38:23.999Z</time></trkpt><trkpt lat="42.582077115622184" lon="13.64979462747159"><ele>242.33333333333331</ele><time>2026-04-19T07:38:24.999Z</time></trkpt><trkpt lat="42.58203600308261" lon="13.64957675313591"><ele>243.0</ele><time>2026-04-19T07:38:25.999Z</time></trkpt><trkpt lat="42.581996102389574" lon="13.649368685180523"><ele>243.5</ele><time>2026-04-19T07:38:26.999Z</time></trkpt><trkpt lat="42.581957870265434" lon="13.649174060428374"><ele>244.0</ele><time>2026-04-19T07:38:27.999Z</time></trkpt><trkpt lat="42.581925229895276" lon="13.648991246799397"><ele>244.5</ele><time>2026-04-19T07:38:28.999Z</time></trkpt><trkpt lat="42.581919163892344" lon="13.648814037531631"><ele>245.0</ele><time>2026-04-19T07:38:29.999Z</time></trkpt><trkpt lat="42.5818906140335" lon="13.648649106381146"><ele>244.75</ele><time>2026-04-19T07:38:30.999Z</time></trkpt><trkpt lat="42.58186303967152" lon="13.648477857978111"><ele>244.5</ele><time>2026-04-19T07:38:31.999Z</time></trkpt><trkpt lat="42.58183249308247" lon="13.64829348748013"><ele>244.25</ele><time>2026-04-19T07:38:32.999Z</time></trkpt><trkpt lat="42.58179976405168" lon="13.648095155492818"><ele>244.0</ele><time>2026-04-19T07:38:33.999Z</time></trkpt><trkpt lat="42.581762701800315" lon="13.647881651985912"><ele>244.33333333333331</ele><time>2026-04-19T07:38:34.999Z</time></trkpt><trkpt lat="42.58172474429437" lon="13.647664085125447"><ele>244.66666666666669</ele><time>2026-04-19T07:38:35.999Z</time></trkpt><trkpt lat="42.58168380628908" lon="13.64746214981187"><ele>245.0</ele><time>2026-04-19T07:38:36.999Z</time></trkpt><trkpt lat="42.58167623306951" lon="13.647272157634294"><ele>245.0</ele><time>2026-04-19T07:38:37.999Z</time></trkpt><trkpt lat="42.58170925969136" lon="13.647082867434362"><ele>245.0</ele><time>2026-04-19T07:38:38.999Z</time></trkpt><trkpt lat="42.58173658461556" lon="13.646890206555463"><ele>245.0</ele><time>2026-04-19T07:38:39.999Z</time></trkpt><trkpt lat="42.58177858700599" lon="13.646703037036607"><ele>245.0</ele><time>2026-04-19T07:38:40.999Z</time></trkpt><trkpt lat="42.58181028239232" lon="13.64649708793245"><ele>245.33333333333334</ele><time>2026-04-19T07:38:41.999Z</time></trkpt><trkpt lat="42.58186421187806" lon="13.64629115013766"><ele>245.66666666666669</ele><time>2026-04-19T07:38:42.999Z</time></trkpt><trkpt lat="42.58191586852658" lon="13.646081691580298"><ele>246.0</ele><time>2026-04-19T07:38:43.999Z</time></trkpt><trkpt lat="42.58196391174134" lon="13.64586928553155"><ele>246.33333333333331</ele><time>2026-04-19T07:38:44.999Z</time></trkpt><trkpt lat="42.58200646782581" lon="13.645649883481912"><ele>246.66666666666666</ele><time>2026-04-19T07:38:45.999Z</time></trkpt><trkpt lat="42.58204080299624" lon="13.645428057282135"><ele>247.0</ele><time>2026-04-19T07:38:46.999Z</time></trkpt><trkpt lat="42.58206654605547" lon="13.645209689906757"><ele>245.0</ele><time>2026-04-19T07:38:47.999Z</time></trkpt><trkpt lat="42.58207771376037" lon="13.645014673325557"><ele>243.0</ele><time>2026-04-19T07:38:48.999Z</time></trkpt><trkpt lat="42.582082359311116" lon="13.644839111402623"><ele>241.0</ele><time>2026-04-19T07:38:49.999Z</time></trkpt><trkpt lat="42.58207674168548" lon="13.644676599737"><ele>239.0</ele><time>2026-04-19T07:38:50.999Z</time></trkpt><trkpt lat="42.58206002742315" lon="13.644528730191055"><ele>239.33333333333334</ele><time>2026-04-19T07:38:51.999Z</time></trkpt><trkpt lat="42.58203733471961" lon="13.644416825035492"><ele>239.66666666666669</ele><time>2026-04-19T07:38:52.999Z</time></trkpt><trkpt lat="42.582008715681816" lon="13.64432031015052"><ele>240.0</ele><time>2026-04-19T07:38:54.999Z</time></trkpt><trkpt lat="42.581979835620636" lon="13.644194761935665"><ele>240.33333333333331</ele><time>2026-04-19T07:38:57.999Z</time></trkpt><trkpt lat="42.5819594935943" lon="13.644113086410263"><ele>240.66666666666666</ele><time>2026-04-19T07:38:58.999Z</time></trkpt><trkpt lat="42.58193252100276" lon="13.644022824292474"><ele>241.0</ele><time>2026-04-19T07:38:59.999Z</time></trkpt><trkpt lat="42.581903553616975" lon="13.643925013987033"><ele>242.20000000000002</ele><time>2026-04-19T07:39:00.999Z</time></trkpt><trkpt lat="42.58187995981701" lon="13.643816091245236"><ele>243.40000000000003</ele><time>2026-04-19T07:39:01.999Z</time></trkpt><trkpt lat="42.58185638845958" lon="13.643696685633826"><ele>244.6</ele><time>2026-04-19T07:39:02.999Z</time></trkpt><trkpt lat="42.58181563588225" lon="13.643561443844535"><ele>245.8</ele><time>2026-04-19T07:39:03.999Z</time></trkpt><trkpt lat="42.58178082051952" lon="13.643396592726415"><ele>247.0</ele><time>2026-04-19T07:39:04.999Z</time></trkpt><trkpt lat="42.58172941390507" lon="13.643223133492313"><ele>247.0</ele><time>2026-04-19T07:39:05.999Z</time></trkpt><trkpt lat="42.58166587280224" lon="13.64303654906033"><ele>247.0</ele><time>2026-04-19T07:39:06.999Z</time></trkpt><trkpt lat="42.58160212358383" lon="13.642847839955857"><ele>247.0</ele><time>2026-04-19T07:39:07.999Z</time></trkpt><trkpt lat="42.58152269499855" lon="13.64266311115245"><ele>247.0</ele><time>2026-04-19T07:39:08.999Z</time></trkpt><trkpt lat="42.58146074985661" lon="13.64245402324832"><ele>247.0</ele><time>2026-04-19T07:39:09.999Z</time></trkpt><trkpt lat="42.58140244617495" lon="13.642246814930218"><ele>247.0</ele><time>2026-04-19T07:39:10.999Z</time></trkpt><trkpt lat="42.58135219315368" lon="13.642031658776"><ele>246.0</ele><time>2026-04-19T07:39:11.999Z</time></trkpt><trkpt lat="42.581303608476595" lon="13.641812360317681"><ele>245.0</ele><time>2026-04-19T07:39:12.999Z</time></trkpt><trkpt lat="42.581255118079554" lon="13.641592552937743"><ele>244.0</ele><time>2026-04-19T07:39:13.999Z</time></trkpt><trkpt lat="42.58120991995253" lon="13.641375449234124"><ele>246.33333333333331</ele><time>2026-04-19T07:39:14.999Z</time></trkpt><trkpt lat="42.58116205213921" lon="13.641149575336776"><ele>248.66666666666669</ele><time>2026-04-19T07:39:15.999Z</time></trkpt><trkpt lat="42.58111620929369" lon="13.640932371805624"><ele>251.0</ele><time>2026-04-19T07:39:16.999Z</time></trkpt><trkpt lat="42.581072481995484" lon="13.640725586933804"><ele>251.0</ele><time>2026-04-19T07:39:17.999Z</time></trkpt><trkpt lat="42.581027802047245" lon="13.640523993540604"><ele>251.0</ele><time>2026-04-19T07:39:18.999Z</time></trkpt><trkpt lat="42.58098723018288" lon="13.640326557951845"><ele>251.0</ele><time>2026-04-19T07:39:19.999Z</time></trkpt><trkpt lat="42.580945939740744" lon="13.640133534192461"><ele>251.25</ele><time>2026-04-19T07:39:20.999Z</time></trkpt><trkpt lat="42.580902401022726" lon="13.639946642741581"><ele>251.5</ele><time>2026-04-19T07:39:21.999Z</time></trkpt><trkpt lat="42.58085903412258" lon="13.63977651759362"><ele>251.75</ele><time>2026-04-19T07:39:22.999Z</time></trkpt><trkpt lat="42.580817923863385" lon="13.6396191539871"><ele>252.0</ele><time>2026-04-19T07:39:23.999Z</time></trkpt><trkpt lat="42.58077703247322" lon="13.63948126825636"><ele>251.83333333333334</ele><time>2026-04-19T07:39:24.999Z</time></trkpt><trkpt lat="42.58074246654658" lon="13.63937788213926"><ele>251.66666666666669</ele><time>2026-04-19T07:39:25.999Z</time></trkpt><trkpt lat="42.580706660146106" lon="13.639256368191347"><ele>251.5</ele><time>2026-04-19T07:39:27.999Z</time></trkpt><trkpt lat="42.58068027792493" lon="13.639141664233712"><ele>251.33333333333334</ele><time>2026-04-19T07:39:31.999Z</time></trkpt><trkpt lat="42.580659738226366" lon="13.639051488307663"><ele>251.16666666666669</ele><time>2026-04-19T07:39:32.999Z</time></trkpt><trkpt lat="42.58060358192006" lon="13.63895748185576"><ele>251.0</ele><time>2026-04-19T07:39:33.999Z</time></trkpt><trkpt lat="42.58051645199442" lon="13.638883010742394"><ele>251.0</ele><time>2026-04-19T07:39:34.999Z</time></trkpt><trkpt lat="42.58043006507743" lon="13.63881640872346"><ele>251.00000000000003</ele><time>2026-04-19T07:39:35.999Z</time></trkpt><trkpt lat="42.580353460404716" lon="13.63871290626217"><ele>251.00000000000003</ele><time>2026-04-19T07:39:36.999Z</time></trkpt><trkpt lat="42.580285310952306" lon="13.63858943954602"><ele>251.0</ele><time>2026-04-19T07:39:37.999Z</time></trkpt><trkpt lat="42.58022000248542" lon="13.6384526719255"><ele>251.0</ele><time>2026-04-19T07:39:38.999Z</time></trkpt><trkpt lat="42.580155871333744" lon="13.638309452138607"><ele>251.5</ele><time>2026-04-19T07:39:39.999Z</time></trkpt><trkpt lat="42.58009929947422" lon="13.638159353007126"><ele>252.0</ele><time>2026-04-19T07:39:40.999Z</time></trkpt><trkpt lat="42.580047588491965" lon="13.638003568537354"><ele>252.5</ele><time>2026-04-19T07:39:41.999Z</time></trkpt><trkpt lat="42.57999999256831" lon="13.637844932086075"><ele>253.0</ele><time>2026-04-19T07:39:42.999Z</time></trkpt><trkpt lat="42.579954297641095" lon="13.637686194685255"><ele>253.5</ele><time>2026-04-19T07:39:43.999Z</time></trkpt><trkpt lat="42.57991111118297" lon="13.637525763125211"><ele>254.0</ele><time>2026-04-19T07:39:44.999Z</time></trkpt><trkpt lat="42.57986873052585" lon="13.637365208311158"><ele>254.5</ele><time>2026-04-19T07:39:45.999Z</time></trkpt><trkpt lat="42.57982715904487" lon="13.637202797567454"><ele>255.0</ele><time>2026-04-19T07:39:47Z</time></trkpt><trkpt lat="42.579785677953716" lon="13.637039691404773"><ele>254.5</ele><time>2026-04-19T07:39:48Z</time></trkpt><trkpt lat="42.57974013765147" lon="13.636875465470851"><ele>254.0</ele><time>2026-04-19T07:39:49Z</time></trkpt><trkpt lat="42.5796875738033" lon="13.636716614181148"><ele>253.5</ele><time>2026-04-19T07:39:50Z</time></trkpt><trkpt lat="42.579615628075295" lon="13.636573044872474"><ele>253.0</ele><time>2026-04-19T07:39:51Z</time></trkpt><trkpt lat="42.57951611774386" lon="13.636468030786444"><ele>253.0</ele><time>2026-04-19T07:39:52Z</time></trkpt><trkpt lat="42.57940610129195" lon="13.6363781318491"><ele>253.0</ele><time>2026-04-19T07:39:53Z</time></trkpt><trkpt lat="42.57930643058634" lon="13.636302879480738"><ele>253.0</ele><time>2026-04-19T07:39:54Z</time></trkpt><trkpt lat="42.57922735539582" lon="13.636199978366596"><ele>253.0</ele><time>2026-04-19T07:39:55Z</time></trkpt><trkpt lat="42.57917840419502" lon="13.636067996129514"><ele>253.0</ele><time>2026-04-19T07:39:56Z</time></trkpt><trkpt lat="42.579159832400414" lon="13.63591291660438"><ele>253.0</ele><time>2026-04-19T07:39:57Z</time></trkpt><trkpt lat="42.5791572568578" lon="13.635751618100622"><ele>253.0</ele><time>2026-04-19T07:39:58Z</time></trkpt><trkpt lat="42.579157537758476" lon="13.635580851176693"><ele>253.0</ele><time>2026-04-19T07:39:59Z</time></trkpt><trkpt lat="42.579160724653335" lon="13.635407047062465"><ele>253.5</ele><time>2026-04-19T07:40:00Z</time></trkpt><trkpt lat="42.57916540198859" lon="13.63522696027141"><ele>254.0</ele><time>2026-04-19T07:40:01Z</time></trkpt><trkpt lat="42.579167978875105" lon="13.635042561953549"><ele>254.5</ele><time>2026-04-19T07:40:02Z</time></trkpt><trkpt lat="42.579171332514434" lon="13.634859404876813"><ele>255.0</ele><time>2026-04-19T07:40:03Z</time></trkpt><trkpt lat="42.57917522405638" lon="13.634686047339022"><ele>255.0</ele><time>2026-04-19T07:40:04Z</time></trkpt><trkpt lat="42.57917781092861" lon="13.634525493955273"><ele>255.0</ele><time>2026-04-19T07:40:05Z</time></trkpt><trkpt lat="42.57917924905954" lon="13.634373483776455"><ele>255.0</ele><time>2026-04-19T07:40:06Z</time></trkpt><trkpt lat="42.57917992916137" lon="13.634221618651527"><ele>255.0</ele><time>2026-04-19T07:40:07Z</time></trkpt><trkpt lat="42.57918098834259" lon="13.63407016076341"><ele>255.75</ele><time>2026-04-19T07:40:08Z</time></trkpt><trkpt lat="42.57918034560484" lon="13.63391590798155"><ele>256.5</ele><time>2026-04-19T07:40:09Z</time></trkpt><trkpt lat="42.57918143847975" lon="13.633759233294233"><ele>257.25</ele><time>2026-04-19T07:40:10Z</time></trkpt><trkpt lat="42.579185043870666" lon="13.63360130385434"><ele>258.0</ele><time>2026-04-19T07:40:11Z</time></trkpt><trkpt lat="42.57918919691699" lon="13.63344616677385"><ele>258.25</ele><time>2026-04-19T07:40:12Z</time></trkpt><trkpt lat="42.57919337860439" lon="13.633291737224805"><ele>258.5</ele><time>2026-04-19T07:40:13Z</time></trkpt><trkpt lat="42.5791962147101" lon="13.633138875305288"><ele>258.75</ele><time>2026-04-19T07:40:14Z</time></trkpt><trkpt lat="42.579199221564195" lon="13.63298721122184"><ele>259.0</ele><time>2026-04-19T07:40:15Z</time></trkpt><trkpt lat="42.579203802352154" lon="13.632835734837574"><ele>259.2</ele><time>2026-04-19T07:40:16Z</time></trkpt><trkpt lat="42.579207792610134" lon="13.632687459380817"><ele>259.4</ele><time>2026-04-19T07:40:17Z</time></trkpt><trkpt lat="42.57920975921273" lon="13.632539086453251"><ele>259.6</ele><time>2026-04-19T07:40:17.999Z</time></trkpt><trkpt lat="42.57921244101939" lon="13.632390931847763"><ele>259.8</ele><time>2026-04-19T07:40:18.999Z</time></trkpt><trkpt lat="42.57921252464229" lon="13.632242131022606"><ele>260.0</ele><time>2026-04-19T07:40:19.999Z</time></trkpt><trkpt lat="42.57921570674387" lon="13.63209332144011"><ele>260.4</ele><time>2026-04-19T07:40:20.999Z</time></trkpt><trkpt lat="42.579222317173624" lon="13.631945518274511"><ele>260.8</ele><time>2026-04-19T07:40:21.999Z</time></trkpt><trkpt lat="42.579236871283044" lon="13.631793733854689"><ele>261.2</ele><time>2026-04-19T07:40:22.999Z</time></trkpt><trkpt lat="42.57927559191761" lon="13.631657147833929"><ele>261.6</ele><time>2026-04-19T07:40:23.999Z</time></trkpt><trkpt lat="42.57930307477787" lon="13.63155422257065"><ele>262.0</ele><time>2026-04-19T07:40:24.999Z</time></trkpt><trkpt lat="42.579330219879516" lon="13.63147134785523"><ele>262.0</ele><time>2026-04-19T07:40:25.999Z</time></trkpt><trkpt lat="42.57936338457056" lon="13.631388626512496"><ele>262.0</ele><time>2026-04-19T07:40:26.999Z</time></trkpt><trkpt lat="42.57940623840098" lon="13.631308857712975"><ele>262.0</ele><time>2026-04-19T07:40:27.999Z</time></trkpt><trkpt lat="42.579498144687534" lon="13.631170029264256"><ele>262.0</ele><time>2026-04-19T07:40:28.999Z</time></trkpt><trkpt lat="42.57955419652633" lon="13.631100610273172"><ele>262.0</ele><time>2026-04-19T07:40:29.999Z</time></trkpt><trkpt lat="42.579630824000084" lon="13.63102396222414"><ele>260.75</ele><time>2026-04-19T07:40:30.999Z</time></trkpt><trkpt lat="42.57971248851677" lon="13.630923122647486"><ele>259.5</ele><time>2026-04-19T07:40:31.999Z</time></trkpt><trkpt lat="42.579809865877785" lon="13.630841258605896"><ele>258.25</ele><time>2026-04-19T07:40:32.999Z</time></trkpt><trkpt lat="42.5799190780529" lon="13.630753168472912"><ele>257.0</ele><time>2026-04-19T07:40:33.999Z</time></trkpt><trkpt lat="42.580015410761014" lon="13.630668647108273"><ele>257.0</ele><time>2026-04-19T07:40:34.999Z</time></trkpt><trkpt lat="42.58009890714505" lon="13.6306043212983"><ele>257.0</ele><time>2026-04-19T07:40:35.999Z</time></trkpt><trkpt lat="42.58016359900798" lon="13.63056994856921"><ele>257.0</ele><time>2026-04-19T07:40:36.999Z</time></trkpt><trkpt lat="42.58026820269566" lon="13.63053335202619"><ele>257.0</ele><time>2026-04-19T07:40:38.999Z</time></trkpt><trkpt lat="42.5803711682882" lon="13.630458899497391"><ele>257.0</ele><time>2026-04-19T07:40:40.999Z</time></trkpt><trkpt lat="42.58038587784825" lon="13.630367127513427"><ele>257.6</ele><time>2026-04-19T07:40:41.999Z</time></trkpt><trkpt lat="42.580356555168926" lon="13.630255072882877"><ele>258.2</ele><time>2026-04-19T07:40:42.999Z</time></trkpt><trkpt lat="42.580309474278565" lon="13.630115105623672"><ele>258.8</ele><time>2026-04-19T07:40:43.999Z</time></trkpt><trkpt lat="42.58026267846649" lon="13.62996724096358"><ele>259.4</ele><time>2026-04-19T07:40:44.999Z</time></trkpt><trkpt lat="42.58022109954171" lon="13.629821642728398"><ele>260.0</ele><time>2026-04-19T07:40:45.999Z</time></trkpt><trkpt lat="42.58018695552696" lon="13.629686148282866"><ele>260.0</ele><time>2026-04-19T07:40:46.999Z</time></trkpt><trkpt lat="42.580153255661585" lon="13.629563292703967"><ele>260.0</ele><time>2026-04-19T07:40:47.999Z</time></trkpt><trkpt lat="42.58011480971671" lon="13.629448403033162"><ele>260.0</ele><time>2026-04-19T07:40:48.999Z</time></trkpt><trkpt lat="42.580073118293996" lon="13.629319196272316"><ele>260.0</ele><time>2026-04-19T07:40:49.999Z</time></trkpt><trkpt lat="42.58002820089192" lon="13.629189509810448"><ele>260.0</ele><time>2026-04-19T07:40:50.999Z</time></trkpt><trkpt lat="42.579986309547465" lon="13.629057534271146"><ele>260.25</ele><time>2026-04-19T07:40:51.999Z</time></trkpt><trkpt lat="42.579958510709666" lon="13.628911939200801"><ele>260.5</ele><time>2026-04-19T07:40:52.999Z</time></trkpt><trkpt lat="42.57991312770692" lon="13.628767343718362"><ele>260.75</ele><time>2026-04-19T07:40:53.999Z</time></trkpt><trkpt lat="42.579864512502766" lon="13.628612450429182"><ele>261.0</ele><time>2026-04-19T07:40:54.999Z</time></trkpt><trkpt lat="42.579806842448306" lon="13.628464203626997"><ele>262.0</ele><time>2026-04-19T07:40:55.999Z</time></trkpt><trkpt lat="42.57975205328988" lon="13.628287973067403"><ele>263.0</ele><time>2026-04-19T07:40:56.999Z</time></trkpt><trkpt lat="42.579673323586974" lon="13.628062151046485"><ele>264.0</ele><time>2026-04-19T07:40:57.999Z</time></trkpt><trkpt lat="42.57960343207614" lon="13.627793771704889"><ele>266.0</ele><time>2026-04-19T07:40:58.999Z</time></trkpt><trkpt lat="42.579516124031855" lon="13.627523745176"><ele>268.0</ele><time>2026-04-19T07:40:59.999Z</time></trkpt><trkpt lat="42.5794348085588" lon="13.627283519766081"><ele>270.0</ele><time>2026-04-19T07:41:00.999Z</time></trkpt><trkpt lat="42.579348538036825" lon="13.627055019939396"><ele>269.0</ele><time>2026-04-19T07:41:01.999Z</time></trkpt><trkpt lat="42.57925350512339" lon="13.626841570310855"><ele>268.0</ele><time>2026-04-19T07:41:02.999Z</time></trkpt><trkpt lat="42.57913568129242" lon="13.626643764692593"><ele>267.0</ele><time>2026-04-19T07:41:03.999Z</time></trkpt><trkpt lat="42.5790326692399" lon="13.626434987767883"><ele>267.0</ele><time>2026-04-19T07:41:04.999Z</time></trkpt><trkpt lat="42.57890401653337" lon="13.626228597384397"><ele>267.0</ele><time>2026-04-19T07:41:05.999Z</time></trkpt><trkpt lat="42.578774532075535" lon="13.626017210587987"><ele>267.0</ele><time>2026-04-19T07:41:06.999Z</time></trkpt><trkpt lat="42.57865330959013" lon="13.625807896020872"><ele>268.6666666666667</ele><time>2026-04-19T07:41:07.999Z</time></trkpt><trkpt lat="42.57853189022068" lon="13.6256091084504"><ele>270.33333333333337</ele><time>2026-04-19T07:41:08.999Z</time></trkpt><trkpt lat="42.578412799008674" lon="13.625433186304777"><ele>272.0</ele><time>2026-04-19T07:41:09.999Z</time></trkpt><trkpt lat="42.57828411668728" lon="13.625292810677339"><ele>269.25</ele><time>2026-04-19T07:41:10.999Z</time></trkpt><trkpt lat="42.57815188549124" lon="13.625203910547027"><ele>266.5</ele><time>2026-04-19T07:41:11.999Z</time></trkpt><trkpt lat="42.578026257010286" lon="13.625135150561164"><ele>263.75</ele><time>2026-04-19T07:41:12.999Z</time></trkpt><trkpt lat="42.57792573519312" lon="13.625074835225183"><ele>261.0</ele><time>2026-04-19T07:41:13.999Z</time></trkpt><trkpt lat="42.57785315243807" lon="13.62498222514585"><ele>261.0</ele><time>2026-04-19T07:41:14.999Z</time></trkpt><trkpt lat="42.57783490422687" lon="13.624844317802843"><ele>261.0</ele><time>2026-04-19T07:41:15.999Z</time></trkpt><trkpt lat="42.57789576445779" lon="13.624687572842708"><ele>261.0</ele><time>2026-04-19T07:41:16.999Z</time></trkpt><trkpt lat="42.57794425479062" lon="13.624469899528572"><ele>261.0</ele><time>2026-04-19T07:41:17.999Z</time></trkpt><trkpt lat="42.577987214786845" lon="13.624236744352926"><ele>260.75</ele><time>2026-04-19T07:41:18.999Z</time></trkpt><trkpt lat="42.57802689063307" lon="13.624039209924588"><ele>260.5</ele><time>2026-04-19T07:41:19.999Z</time></trkpt><trkpt lat="42.5780449129633" lon="13.62384879741205"><ele>260.25</ele><time>2026-04-19T07:41:20.999Z</time></trkpt><trkpt lat="42.57804687142712" lon="13.623658982863336"><ele>260.0</ele><time>2026-04-19T07:41:21.999Z</time></trkpt><trkpt lat="42.578034879410886" lon="13.623466433390387"><ele>261.5</ele><time>2026-04-19T07:41:22.999Z</time></trkpt><trkpt lat="42.57800356678384" lon="13.623277684564334"><ele>263.0</ele><time>2026-04-19T07:41:23.999Z</time></trkpt><trkpt lat="42.577972049113264" lon="13.623086598048546"><ele>264.5</ele><time>2026-04-19T07:41:24.999Z</time></trkpt><trkpt lat="42.57793239938068" lon="13.622891980851628"><ele>266.0</ele><time>2026-04-19T07:41:25.999Z</time></trkpt><trkpt lat="42.577895266360215" lon="13.622696141819794"><ele>266.33333333333337</ele><time>2026-04-19T07:41:26.999Z</time></trkpt><trkpt lat="42.57786212860632" lon="13.622494314214865"><ele>266.6666666666667</ele><time>2026-04-19T07:41:27.999Z</time></trkpt><trkpt lat="42.577825738974994" lon="13.622284990539159"><ele>267.0</ele><time>2026-04-19T07:41:28.999Z</time></trkpt><trkpt lat="42.577789683298995" lon="13.622069228238654"><ele>272.0</ele><time>2026-04-19T07:41:29.999Z</time></trkpt><trkpt lat="42.577756543218726" lon="13.621849870826258"><ele>277.0</ele><time>2026-04-19T07:41:30.999Z</time></trkpt><trkpt lat="42.57772880249094" lon="13.621625400842763"><ele>282.0</ele><time>2026-04-19T07:41:31.999Z</time></trkpt><trkpt lat="42.577712510508846" lon="13.621403366942564"><ele>282.0</ele><time>2026-04-19T07:41:32.999Z</time></trkpt><trkpt lat="42.57772890796727" lon="13.621190228703353"><ele>282.0</ele><time>2026-04-19T07:41:33.999Z</time></trkpt><trkpt lat="42.577731837727946" lon="13.620967426513038"><ele>282.0</ele><time>2026-04-19T07:41:34.999Z</time></trkpt><trkpt lat="42.577786459258064" lon="13.620753579535535"><ele>282.6666666666667</ele><time>2026-04-19T07:41:35.999Z</time></trkpt><trkpt lat="42.57784022751199" lon="13.620533137852028"><ele>283.33333333333337</ele><time>2026-04-19T07:41:36.999Z</time></trkpt><trkpt lat="42.57788261836604" lon="13.620307235840324"><ele>284.0</ele><time>2026-04-19T07:41:37.999Z</time></trkpt><trkpt lat="42.57794765241767" lon="13.620085132764302"><ele>281.33333333333337</ele><time>2026-04-19T07:41:38.999Z</time></trkpt><trkpt lat="42.578008006773196" lon="13.619863162917017"><ele>278.6666666666667</ele><time>2026-04-19T07:41:39.999Z</time></trkpt><trkpt lat="42.57806775098834" lon="13.619635862079619"><ele>276.0</ele><time>2026-04-19T07:41:40.999Z</time></trkpt><trkpt lat="42.578117330417335" lon="13.61939961854321"><ele>276.0</ele><time>2026-04-19T07:41:41.999Z</time></trkpt><trkpt lat="42.57813378030583" lon="13.619156189439229"><ele>276.0</ele><time>2026-04-19T07:41:42.999Z</time></trkpt><trkpt lat="42.57812644602958" lon="13.618903959072995"><ele>276.0</ele><time>2026-04-19T07:41:43.999Z</time></trkpt><trkpt lat="42.57811626640052" lon="13.618648586857466"><ele>279.3333333333333</ele><time>2026-04-19T07:41:44.999Z</time></trkpt><trkpt lat="42.578139395705875" lon="13.618391401238556"><ele>282.66666666666663</ele><time>2026-04-19T07:41:45.999Z</time></trkpt><trkpt lat="42.57817214512788" lon="13.618147535563962"><ele>286.0</ele><time>2026-04-19T07:41:46.999Z</time></trkpt><trkpt lat="42.57820855221689" lon="13.617914519032107"><ele>287.66666666666663</ele><time>2026-04-19T07:41:47.999Z</time></trkpt><trkpt lat="42.57825634697544" lon="13.617683029898727"><ele>289.3333333333333</ele><time>2026-04-19T07:41:48.999Z</time></trkpt><trkpt lat="42.57830232141389" lon="13.617442838074957"><ele>291.0</ele><time>2026-04-19T07:41:49.999Z</time></trkpt><trkpt lat="42.57836548039939" lon="13.617208016961477"><ele>292.3333333333333</ele><time>2026-04-19T07:41:50.999Z</time></trkpt><trkpt lat="42.578400730094934" lon="13.616965783218825"><ele>293.66666666666663</ele><time>2026-04-19T07:41:51.999Z</time></trkpt><trkpt lat="42.57840564618748" lon="13.616715116685777"><ele>295.0</ele><time>2026-04-19T07:41:52.999Z</time></trkpt><trkpt lat="42.5784077373843" lon="13.616464237468197"><ele>295.0</ele><time>2026-04-19T07:41:53.999Z</time></trkpt><trkpt lat="42.57845478495038" lon="13.616218853429865"><ele>295.0</ele><time>2026-04-19T07:41:54.999Z</time></trkpt><trkpt lat="42.57850443725661" lon="13.615966985455733"><ele>295.0</ele><time>2026-04-19T07:41:55.999Z</time></trkpt><trkpt lat="42.578563055033186" lon="13.615729763992961"><ele>294.66666666666663</ele><time>2026-04-19T07:41:56.999Z</time></trkpt><trkpt lat="42.578635844884" lon="13.615516950902432"><ele>294.3333333333333</ele><time>2026-04-19T07:41:57.999Z</time></trkpt><trkpt lat="42.57872829361994" lon="13.615300693505072"><ele>294.0</ele><time>2026-04-19T07:41:58.999Z</time></trkpt><trkpt lat="42.5788337781748" lon="13.61509066852997"><ele>290.3333333333333</ele><time>2026-04-19T07:41:59.999Z</time></trkpt><trkpt lat="42.57894864454852" lon="13.614885513326119"><ele>286.66666666666663</ele><time>2026-04-19T07:42:00.999Z</time></trkpt><trkpt lat="42.57903776187848" lon="13.614690323225032"><ele>283.0</ele><time>2026-04-19T07:42:01.999Z</time></trkpt><trkpt lat="42.579120442082" lon="13.614524239236374"><ele>284.0</ele><time>2026-04-19T07:42:02.999Z</time></trkpt><trkpt lat="42.57917268188196" lon="13.614350969570953"><ele>285.0</ele><time>2026-04-19T07:42:03.999Z</time></trkpt><trkpt lat="42.579184543144066" lon="13.614148653623763"><ele>286.0</ele><time>2026-04-19T07:42:05Z</time></trkpt><trkpt lat="42.57912739736863" lon="13.613929509261197"><ele>286.0</ele><time>2026-04-19T07:42:05.999Z</time></trkpt><trkpt lat="42.57901430664725" lon="13.61368654470195"><ele>286.0</ele><time>2026-04-19T07:42:06.999Z</time></trkpt><trkpt lat="42.57884227055363" lon="13.613430677629102"><ele>293.5</ele><time>2026-04-19T07:42:07.999Z</time></trkpt><trkpt lat="42.57865336536531" lon="13.613195932087619"><ele>301.0</ele><time>2026-04-19T07:42:08.999Z</time></trkpt><trkpt lat="42.578516197043" lon="13.61296578785034"><ele>300.0</ele><time>2026-04-19T07:42:09.999Z</time></trkpt><trkpt lat="42.57843492505433" lon="13.612735496621708"><ele>299.0</ele><time>2026-04-19T07:42:10.999Z</time></trkpt><trkpt lat="42.578371968760536" lon="13.612477691195982"><ele>298.0</ele><time>2026-04-19T07:42:11.999Z</time></trkpt><trkpt lat="42.57831530397551" lon="13.612212775910542"><ele>298.3333333333333</ele><time>2026-04-19T07:42:12.999Z</time></trkpt><trkpt lat="42.57826633129831" lon="13.611973895306532"><ele>298.6666666666667</ele><time>2026-04-19T07:42:13.999Z</time></trkpt><trkpt lat="42.578242120943784" lon="13.611757964919951"><ele>299.0</ele><time>2026-04-19T07:42:14.999Z</time></trkpt><trkpt lat="42.57825143895288" lon="13.611538776211503"><ele>299.0</ele><time>2026-04-19T07:42:15.999Z</time></trkpt><trkpt lat="42.57831377546322" lon="13.611326148666794"><ele>299.0</ele><time>2026-04-19T07:42:16.999Z</time></trkpt><trkpt lat="42.57840648095642" lon="13.6110787726644"><ele>299.0</ele><time>2026-04-19T07:42:17.999Z</time></trkpt><trkpt lat="42.578490867096804" lon="13.6107848083857"><ele>300.5</ele><time>2026-04-19T07:42:18.999Z</time></trkpt><trkpt lat="42.57863350895777" lon="13.610506824025087"><ele>302.0</ele><time>2026-04-19T07:42:19.999Z</time></trkpt><trkpt lat="42.57879466854667" lon="13.610233882680102"><ele>302.0</ele><time>2026-04-19T07:42:20.999Z</time></trkpt><trkpt lat="42.57892350072559" lon="13.609995127799529"><ele>302.0</ele><time>2026-04-19T07:42:21.999Z</time></trkpt><trkpt lat="42.57904466195536" lon="13.609776628729058"><ele>302.0</ele><time>2026-04-19T07:42:22.999Z</time></trkpt><trkpt lat="42.57917925539054" lon="13.609596055742832"><ele>297.33333333333337</ele><time>2026-04-19T07:42:23.999Z</time></trkpt><trkpt lat="42.57931693482464" lon="13.609441746360277"><ele>292.6666666666667</ele><time>2026-04-19T07:42:24.999Z</time></trkpt><trkpt lat="42.57947108095716" lon="13.60929741064836"><ele>288.0</ele><time>2026-04-19T07:42:25.999Z</time></trkpt><trkpt lat="42.579596240434064" lon="13.609116548139603"><ele>288.0</ele><time>2026-04-19T07:42:26.999Z</time></trkpt><trkpt lat="42.579708600501" lon="13.608936967982066"><ele>288.0</ele><time>2026-04-19T07:42:27.999Z</time></trkpt><trkpt lat="42.579786774193316" lon="13.608737140703198"><ele>288.0</ele><time>2026-04-19T07:42:28.999Z</time></trkpt><trkpt lat="42.57984094870924" lon="13.608517100702874"><ele>291.3333333333333</ele><time>2026-04-19T07:42:29.999Z</time></trkpt><trkpt lat="42.57986331346746" lon="13.60828285095488"><ele>294.66666666666663</ele><time>2026-04-19T07:42:30.999Z</time></trkpt><trkpt lat="42.57985497806997" lon="13.608037008070445"><ele>298.0</ele><time>2026-04-19T07:42:31.999Z</time></trkpt><trkpt lat="42.579829110259496" lon="13.607777104168147"><ele>300.0</ele><time>2026-04-19T07:42:32.999Z</time></trkpt><trkpt lat="42.57984784648033" lon="13.60753352341253"><ele>302.0</ele><time>2026-04-19T07:42:33.999Z</time></trkpt><trkpt lat="42.57990143334323" lon="13.607314888187034"><ele>304.0</ele><time>2026-04-19T07:42:34.998Z</time></trkpt><trkpt lat="42.579979702051936" lon="13.60708248203668"><ele>305.3333333333333</ele><time>2026-04-19T07:42:35.998Z</time></trkpt><trkpt lat="42.58002879132927" lon="13.606843557980406"><ele>306.6666666666667</ele><time>2026-04-19T07:42:36.998Z</time></trkpt><trkpt lat="42.580054743217566" lon="13.606615917518994"><ele>308.0</ele><time>2026-04-19T07:42:37.998Z</time></trkpt><trkpt lat="42.5800225288851" lon="13.606373699648373"><ele>306.0</ele><time>2026-04-19T07:42:38.998Z</time></trkpt><trkpt lat="42.5799528097744" lon="13.606136775832168"><ele>304.0</ele><time>2026-04-19T07:42:39.998Z</time></trkpt><trkpt lat="42.57986755042809" lon="13.605901325006547"><ele>302.0</ele><time>2026-04-19T07:42:40.998Z</time></trkpt><trkpt lat="42.57978981213638" lon="13.605674414661728"><ele>302.0</ele><time>2026-04-19T07:42:41.998Z</time></trkpt><trkpt lat="42.579726049519586" lon="13.60547039293549"><ele>302.0</ele><time>2026-04-19T07:42:42.998Z</time></trkpt><trkpt lat="42.57969755978933" lon="13.605265739012816"><ele>302.0</ele><time>2026-04-19T07:42:43.998Z</time></trkpt><trkpt lat="42.579671440478975" lon="13.605069871766286"><ele>302.0</ele><time>2026-04-19T07:42:44.998Z</time></trkpt><trkpt lat="42.57964886498169" lon="13.604861152867302"><ele>302.0</ele><time>2026-04-19T07:42:45.998Z</time></trkpt><trkpt lat="42.57961111235396" lon="13.604642652344342"><ele>302.0</ele><time>2026-04-19T07:42:46.998Z</time></trkpt><trkpt lat="42.57959568278787" lon="13.604410872524648"><ele>302.0</ele><time>2026-04-19T07:42:47.998Z</time></trkpt><trkpt lat="42.5795868906046" lon="13.604170554173326"><ele>302.0</ele><time>2026-04-19T07:42:48.998Z</time></trkpt><trkpt lat="42.57960601907916" lon="13.603922553923454"><ele>302.0</ele><time>2026-04-19T07:42:49.998Z</time></trkpt><trkpt lat="42.57959261324191" lon="13.603671268289991"><ele>301.6666666666667</ele><time>2026-04-19T07:42:50.998Z</time></trkpt><trkpt lat="42.5795899256889" lon="13.603415298509674"><ele>301.3333333333333</ele><time>2026-04-19T07:42:51.998Z</time></trkpt><trkpt lat="42.57956760477835" lon="13.603158790890028"><ele>301.0</ele><time>2026-04-19T07:42:52.998Z</time></trkpt><trkpt lat="42.579532365003374" lon="13.602906137200787"><ele>311.66666666666663</ele><time>2026-04-19T07:42:53.998Z</time></trkpt><trkpt lat="42.5794885538489" lon="13.602656069820071"><ele>322.3333333333333</ele><time>2026-04-19T07:42:54.998Z</time></trkpt><trkpt lat="42.57943628508045" lon="13.602405149104268"><ele>333.0</ele><time>2026-04-19T07:42:55.998Z</time></trkpt><trkpt lat="42.57936603838586" lon="13.60216505207093"><ele>326.6666666666667</ele><time>2026-04-19T07:42:56.998Z</time></trkpt><trkpt lat="42.57927335069881" lon="13.601937433651647"><ele>320.33333333333337</ele><time>2026-04-19T07:42:57.998Z</time></trkpt><trkpt lat="42.57916436247564" lon="13.601727157514862"><ele>314.0</ele><time>2026-04-19T07:42:58.998Z</time></trkpt><trkpt lat="42.57904530809646" lon="13.60152754511417"><ele>314.0</ele><time>2026-04-19T07:42:59.998Z</time></trkpt><trkpt lat="42.57892734021431" lon="13.601318166206328"><ele>314.0</ele><time>2026-04-19T07:43:00.998Z</time></trkpt><trkpt lat="42.57880912418625" lon="13.601104844085969"><ele>314.0</ele><time>2026-04-19T07:43:01.998Z</time></trkpt><trkpt lat="42.57868819292398" lon="13.600896655408077"><ele>314.0</ele><time>2026-04-19T07:43:02.998Z</time></trkpt><trkpt lat="42.57856580973489" lon="13.600696123833595"><ele>314.0</ele><time>2026-04-19T07:43:03.998Z</time></trkpt><trkpt lat="42.57844953942988" lon="13.60049425170612"><ele>314.0</ele><time>2026-04-19T07:43:04.998Z</time></trkpt><trkpt lat="42.57834019662825" lon="13.600291467072566"><ele>314.0</ele><time>2026-04-19T07:43:05.998Z</time></trkpt><trkpt lat="42.5782401350016" lon="13.60007703593958"><ele>314.0</ele><time>2026-04-19T07:43:06.998Z</time></trkpt><trkpt lat="42.57818126110338" lon="13.59984105538986"><ele>314.0</ele><time>2026-04-19T07:43:07.998Z</time></trkpt><trkpt lat="42.578143864488446" lon="13.599600239015555"><ele>312.6666666666667</ele><time>2026-04-19T07:43:08.998Z</time></trkpt><trkpt lat="42.5781209930716" lon="13.59935351094785"><ele>311.3333333333333</ele><time>2026-04-19T07:43:09.998Z</time></trkpt><trkpt lat="42.578107863757616" lon="13.599107797831271"><ele>310.0</ele><time>2026-04-19T07:43:10.998Z</time></trkpt><trkpt lat="42.578107341023674" lon="13.598862862825777"><ele>311.0</ele><time>2026-04-19T07:43:11.998Z</time></trkpt><trkpt lat="42.57813327954647" lon="13.598623017411185"><ele>312.0</ele><time>2026-04-19T07:43:12.998Z</time></trkpt><trkpt lat="42.57817791547345" lon="13.598378030549162"><ele>313.0</ele><time>2026-04-19T07:43:13.998Z</time></trkpt><trkpt lat="42.578235135782485" lon="13.598138088371927"><ele>313.0</ele><time>2026-04-19T07:43:14.998Z</time></trkpt><trkpt lat="42.57827743424272" lon="13.597914424518837"><ele>313.0</ele><time>2026-04-19T07:43:15.998Z</time></trkpt><trkpt lat="42.57832163674778" lon="13.597709959600836"><ele>313.0</ele><time>2026-04-19T07:43:16.998Z</time></trkpt><trkpt lat="42.57836079886503" lon="13.597519468754692"><ele>312.75</ele><time>2026-04-19T07:43:17.998Z</time></trkpt><trkpt lat="42.57839169960226" lon="13.597339801656492"><ele>312.5</ele><time>2026-04-19T07:43:18.998Z</time></trkpt><trkpt lat="42.57840106635785" lon="13.597170623044226"><ele>312.25</ele><time>2026-04-19T07:43:19.998Z</time></trkpt><trkpt lat="42.578371303508845" lon="13.597013832132234"><ele>312.0</ele><time>2026-04-19T07:43:20.998Z</time></trkpt><trkpt lat="42.57830796971789" lon="13.596869780812384"><ele>312.0</ele><time>2026-04-19T07:43:21.998Z</time></trkpt><trkpt lat="42.57820695148318" lon="13.596760977731766"><ele>312.0</ele><time>2026-04-19T07:43:22.998Z</time></trkpt><trkpt lat="42.578086608983895" lon="13.596684102887762"><ele>312.0</ele><time>2026-04-19T07:43:23.998Z</time></trkpt><trkpt lat="42.57797754049677" lon="13.596592412115914"><ele>312.0</ele><time>2026-04-19T07:43:24.998Z</time></trkpt><trkpt lat="42.57787483155473" lon="13.596458254768955"><ele>320.3333333333333</ele><time>2026-04-19T07:43:25.998Z</time></trkpt><trkpt lat="42.57776100438778" lon="13.59630335707348"><ele>328.66666666666663</ele><time>2026-04-19T07:43:26.998Z</time></trkpt><trkpt lat="42.577653437060015" lon="13.596151177575306"><ele>337.0</ele><time>2026-04-19T07:43:27.998Z</time></trkpt><trkpt lat="42.577557830129045" lon="13.595992703376151"><ele>337.0</ele><time>2026-04-19T07:43:28.998Z</time></trkpt><trkpt lat="42.57747675628684" lon="13.595822788051924"><ele>337.0</ele><time>2026-04-19T07:43:29.998Z</time></trkpt><trkpt lat="42.57740247255594" lon="13.59563766362442"><ele>337.0</ele><time>2026-04-19T07:43:30.998Z</time></trkpt><trkpt lat="42.57735626430481" lon="13.595456846365996"><ele>337.0</ele><time>2026-04-19T07:43:31.998Z</time></trkpt><trkpt lat="42.57729438913785" lon="13.595280367459102"><ele>332.0</ele><time>2026-04-19T07:43:32.998Z</time></trkpt><trkpt lat="42.577296932300904" lon="13.595076809293209"><ele>327.0</ele><time>2026-04-19T07:43:33.998Z</time></trkpt><trkpt lat="42.57729513060467" lon="13.594822467432595"><ele>322.0</ele><time>2026-04-19T07:43:34.998Z</time></trkpt><trkpt lat="42.57729445313393" lon="13.594497770012445"><ele>321.5</ele><time>2026-04-19T07:43:35.998Z</time></trkpt><trkpt lat="42.57729522188935" lon="13.594147344376228"><ele>321.0</ele><time>2026-04-19T07:43:36.998Z</time></trkpt><trkpt lat="42.577298893312275" lon="13.593776758765946"><ele>321.5</ele><time>2026-04-19T07:43:37.998Z</time></trkpt><trkpt lat="42.577292638055795" lon="13.593432400597017"><ele>322.0</ele><time>2026-04-19T07:43:38.998Z</time></trkpt><trkpt lat="42.577308631572805" lon="13.593109400874038"><ele>322.3333333333333</ele><time>2026-04-19T07:43:39.998Z</time></trkpt><trkpt lat="42.57731746661909" lon="13.592814867933663"><ele>322.6666666666667</ele><time>2026-04-19T07:43:40.998Z</time></trkpt><trkpt lat="42.57730602741693" lon="13.592531280047744"><ele>323.0</ele><time>2026-04-19T07:43:41.998Z</time></trkpt><trkpt lat="42.57727327986879" lon="13.59227478311471"><ele>323.0</ele><time>2026-04-19T07:43:42.998Z</time></trkpt><trkpt lat="42.577182032521634" lon="13.592045110961607"><ele>323.0</ele><time>2026-04-19T07:43:43.998Z</time></trkpt><trkpt lat="42.57705037418415" lon="13.5918067854049"><ele>323.0</ele><time>2026-04-19T07:43:44.998Z</time></trkpt><trkpt lat="42.576898182023335" lon="13.59153305126663"><ele>330.0</ele><time>2026-04-19T07:43:45.998Z</time></trkpt><trkpt lat="42.57679797014388" lon="13.591273031372992"><ele>337.0</ele><time>2026-04-19T07:43:46.998Z</time></trkpt><trkpt lat="42.57676022885598" lon="13.591019049748473"><ele>344.0</ele><time>2026-04-19T07:43:47.998Z</time></trkpt><trkpt lat="42.57674427112496" lon="13.590732177295738"><ele>344.0</ele><time>2026-04-19T07:43:48.998Z</time></trkpt><trkpt lat="42.57671380206216" lon="13.59040687715267"><ele>344.0</ele><time>2026-04-19T07:43:49.998Z</time></trkpt><trkpt lat="42.57670051350904" lon="13.59004762224382"><ele>340.0</ele><time>2026-04-19T07:43:50.998Z</time></trkpt><trkpt lat="42.576650469555865" lon="13.589722788405183"><ele>336.0</ele><time>2026-04-19T07:43:51.998Z</time></trkpt><trkpt lat="42.576569464963775" lon="13.589421635489867"><ele>332.0</ele><time>2026-04-19T07:43:52.998Z</time></trkpt><trkpt lat="42.576459666111745" lon="13.589127224377592"><ele>328.0</ele><time>2026-04-19T07:43:53.998Z</time></trkpt><trkpt lat="42.57632311612885" lon="13.58881733709357"><ele>341.5</ele><time>2026-04-19T07:43:54.998Z</time></trkpt><trkpt lat="42.576183246453716" lon="13.588488555315125"><ele>355.0</ele><time>2026-04-19T07:43:55.998Z</time></trkpt><trkpt lat="42.57614350902855" lon="13.588104514207096"><ele>355.0</ele><time>2026-04-19T07:43:56.998Z</time></trkpt><trkpt lat="42.575903511462364" lon="13.587934627414773"><ele>355.0</ele><time>2026-04-19T07:43:57.998Z</time></trkpt><trkpt lat="42.57576813926385" lon="13.587709701402737"><ele>349.0</ele><time>2026-04-19T07:43:58.998Z</time></trkpt><trkpt lat="42.5756725795189" lon="13.587461630628663"><ele>343.0</ele><time>2026-04-19T07:43:59.998Z</time></trkpt><trkpt lat="42.57562704031545" lon="13.587148322188062"><ele>337.0</ele><time>2026-04-19T07:44:00.999Z</time></trkpt><trkpt lat="42.57561484787994" lon="13.586781182353942"><ele>333.0</ele><time>2026-04-19T07:44:01.999Z</time></trkpt><trkpt lat="42.57558491444566" lon="13.586384558933124"><ele>329.0</ele><time>2026-04-19T07:44:02.999Z</time></trkpt><trkpt lat="42.57554156229813" lon="13.58599656890662"><ele>328.0</ele><time>2026-04-19T07:44:03.999Z</time></trkpt><trkpt lat="42.57552822588129" lon="13.585651152018013"><ele>327.0</ele><time>2026-04-19T07:44:04.999Z</time></trkpt><trkpt lat="42.575500292170695" lon="13.585336106548532"><ele>326.3333333333333</ele><time>2026-04-19T07:44:05.999Z</time></trkpt><trkpt lat="42.57544523285928" lon="13.58506648833977"><ele>325.66666666666663</ele><time>2026-04-19T07:44:06.999Z</time></trkpt><trkpt lat="42.575378547899625" lon="13.584839647471512"><ele>325.0</ele><time>2026-04-19T07:44:07.999Z</time></trkpt><trkpt lat="42.575373453083316" lon="13.584630443391944"><ele>324.0</ele><time>2026-04-19T07:44:08.999Z</time></trkpt><trkpt lat="42.575415417703006" lon="13.58444427892242"><ele>323.0</ele><time>2026-04-19T07:44:09.999Z</time></trkpt><trkpt lat="42.57545531378967" lon="13.584293674520238"><ele>322.0</ele><time>2026-04-19T07:44:10.999Z</time></trkpt><trkpt lat="42.57545900009655" lon="13.584155548023254"><ele>321.0</ele><time>2026-04-19T07:44:11.999Z</time></trkpt><trkpt lat="42.57540073816117" lon="13.584009238075534"><ele>330.6666666666667</ele><time>2026-04-19T07:44:12.999Z</time></trkpt><trkpt lat="42.575274975153114" lon="13.583859888962316"><ele>340.33333333333337</ele><time>2026-04-19T07:44:13.999Z</time></trkpt><trkpt lat="42.57512189689062" lon="13.583664498801141"><ele>350.0</ele><time>2026-04-19T07:44:14.999Z</time></trkpt><trkpt lat="42.574971016527286" lon="13.583444119610599"><ele>350.0</ele><time>2026-04-19T07:44:15.999Z</time></trkpt><trkpt lat="42.57487070770371" lon="13.583225948747122"><ele>350.0</ele><time>2026-04-19T07:44:16.999Z</time></trkpt><trkpt lat="42.57483779202062" lon="13.582968881214612"><ele>350.0</ele><time>2026-04-19T07:44:17.999Z</time></trkpt><trkpt lat="42.57481869768195" lon="13.582702097508871"><ele>347.0</ele><time>2026-04-19T07:44:18.999Z</time></trkpt><trkpt lat="42.574802671205" lon="13.58247084147811"><ele>344.0</ele><time>2026-04-19T07:44:19.999Z</time></trkpt><trkpt lat="42.574765434091525" lon="13.582260503080331"><ele>341.0</ele><time>2026-04-19T07:44:20.999Z</time></trkpt><trkpt lat="42.574664030215445" lon="13.582053746867249"><ele>341.25</ele><time>2026-04-19T07:44:21.999Z</time></trkpt><trkpt lat="42.57457651534831" lon="13.58185830453327"><ele>341.5</ele><time>2026-04-19T07:44:22.999Z</time></trkpt><trkpt lat="42.574511592496" lon="13.581688794550399"><ele>341.75</ele><time>2026-04-19T07:44:23.999Z</time></trkpt><trkpt lat="42.57448822433186" lon="13.58155486385771"><ele>342.0</ele><time>2026-04-19T07:44:24.999Z</time></trkpt><trkpt lat="42.57451657507105" lon="13.5814422325684"><ele>342.0</ele><time>2026-04-19T07:44:25.999Z</time></trkpt><trkpt lat="42.574581608045065" lon="13.581331617498853"><ele>342.0</ele><time>2026-04-19T07:44:26.999Z</time></trkpt><trkpt lat="42.57465212621646" lon="13.581227521911638"><ele>342.0</ele><time>2026-04-19T07:44:27.999Z</time></trkpt><trkpt lat="42.574671701736584" lon="13.58112569975917"><ele>342.0</ele><time>2026-04-19T07:44:28.999Z</time></trkpt><trkpt lat="42.57500419024039" lon="13.581166355863227"><ele>344.25</ele><time>2026-04-19T07:44:29.999Z</time></trkpt><trkpt lat="42.57509429244291" lon="13.581067517005298"><ele>346.5</ele><time>2026-04-19T07:44:30.999Z</time></trkpt><trkpt lat="42.57513044294719" lon="13.580921112252922"><ele>348.75</ele><time>2026-04-19T07:44:31.999Z</time></trkpt><trkpt lat="42.57512928143095" lon="13.580741458745537"><ele>351.0</ele><time>2026-04-19T07:44:32.999Z</time></trkpt><trkpt lat="42.57506387510472" lon="13.580582669496408"><ele>351.0</ele><time>2026-04-19T07:44:33.999Z</time></trkpt><trkpt lat="42.574944811374024" lon="13.580465619956723"><ele>351.0</ele><time>2026-04-19T07:44:34.999Z</time></trkpt><trkpt lat="42.57478529803477" lon="13.580374375181707"><ele>351.0</ele><time>2026-04-19T07:44:35.999Z</time></trkpt><trkpt lat="42.57464618116611" lon="13.580300099959809"><ele>348.5</ele><time>2026-04-19T07:44:36.999Z</time></trkpt><trkpt lat="42.574535472298294" lon="13.580244903264473"><ele>346.0</ele><time>2026-04-19T07:44:37.999Z</time></trkpt><trkpt lat="42.57443252381742" lon="13.580203519592818"><ele>343.5</ele><time>2026-04-19T07:44:38.999Z</time></trkpt><trkpt lat="42.574323869460315" lon="13.58020640400508"><ele>341.0</ele><time>2026-04-19T07:44:39.999Z</time></trkpt><trkpt lat="42.5742020762607" lon="13.58023770970317"><ele>341.0</ele><time>2026-04-19T07:44:40.999Z</time></trkpt><trkpt lat="42.57407174999884" lon="13.580288167093434"><ele>341.0</ele><time>2026-04-19T07:44:41.999Z</time></trkpt><trkpt lat="42.573934899334716" lon="13.580327969968431"><ele>341.0</ele><time>2026-04-19T07:44:42.999Z</time></trkpt><trkpt lat="42.57379798441913" lon="13.580338582324295"><ele>341.0</ele><time>2026-04-19T07:44:43.999Z</time></trkpt><trkpt lat="42.57368084240416" lon="13.580338953673358"><ele>343.75</ele><time>2026-04-19T07:44:44.999Z</time></trkpt><trkpt lat="42.573564604058156" lon="13.580320547072112"><ele>346.5</ele><time>2026-04-19T07:44:45.999Z</time></trkpt><trkpt lat="42.573450530890355" lon="13.580274250159514"><ele>349.25</ele><time>2026-04-19T07:44:46.999Z</time></trkpt><trkpt lat="42.57334058970378" lon="13.580207026757943"><ele>352.0</ele><time>2026-04-19T07:44:47.999Z</time></trkpt><trkpt lat="42.573232477965945" lon="13.5801360629268"><ele>352.0</ele><time>2026-04-19T07:44:48.999Z</time></trkpt><trkpt lat="42.573118874706964" lon="13.58007072539548"><ele>352.0</ele><time>2026-04-19T07:44:49.999Z</time></trkpt><trkpt lat="42.57299705492013" lon="13.580013002167506"><ele>352.0</ele><time>2026-04-19T07:44:50.999Z</time></trkpt><trkpt lat="42.57287467239029" lon="13.579963474093399"><ele>352.0</ele><time>2026-04-19T07:44:51.999Z</time></trkpt><trkpt lat="42.57276393104552" lon="13.57989663608791"><ele>356.5</ele><time>2026-04-19T07:44:52.999Z</time></trkpt><trkpt lat="42.57268039305067" lon="13.579781941849005"><ele>361.0</ele><time>2026-04-19T07:44:53.999Z</time></trkpt><trkpt lat="42.57260813881891" lon="13.57964097364534"><ele>365.5</ele><time>2026-04-19T07:44:54.999Z</time></trkpt><trkpt lat="42.572556539676334" lon="13.579502799440979"><ele>370.0</ele><time>2026-04-19T07:44:55.999Z</time></trkpt><trkpt lat="42.572507259188896" lon="13.579358671705279"><ele>370.0</ele><time>2026-04-19T07:44:56.999Z</time></trkpt><trkpt lat="42.5724680113386" lon="13.5792160076024"><ele>370.0</ele><time>2026-04-19T07:44:57.999Z</time></trkpt><trkpt lat="42.572436664809835" lon="13.57906240621563"><ele>370.0</ele><time>2026-04-19T07:44:58.999Z</time></trkpt><trkpt lat="42.57241412321648" lon="13.578902822416346"><ele>370.0</ele><time>2026-04-19T07:44:59.999Z</time></trkpt><trkpt lat="42.57239001642781" lon="13.578727472818565"><ele>365.0</ele><time>2026-04-19T07:45:00.999Z</time></trkpt><trkpt lat="42.57235001186575" lon="13.578541404624632"><ele>360.0</ele><time>2026-04-19T07:45:01.999Z</time></trkpt><trkpt lat="42.5723033996003" lon="13.578308919259173"><ele>355.0</ele><time>2026-04-19T07:45:02.999Z</time></trkpt><trkpt lat="42.57227668567068" lon="13.57809532476257"><ele>355.0</ele><time>2026-04-19T07:45:03.999Z</time></trkpt><trkpt lat="42.572261094162116" lon="13.5778943218948"><ele>355.0</ele><time>2026-04-19T07:45:04.999Z</time></trkpt><trkpt lat="42.572240930294576" lon="13.577704398225764"><ele>355.0</ele><time>2026-04-19T07:45:05.999Z</time></trkpt><trkpt lat="42.572205340472195" lon="13.577510073049835"><ele>355.0</ele><time>2026-04-19T07:45:06.999Z</time></trkpt><trkpt lat="42.57214676496686" lon="13.57733914167967"><ele>353.0</ele><time>2026-04-19T07:45:07.999Z</time></trkpt><trkpt lat="42.57207824331034" lon="13.577195046038241"><ele>351.0</ele><time>2026-04-19T07:45:08.999Z</time></trkpt><trkpt lat="42.57200046426083" lon="13.57705678603122"><ele>349.0</ele><time>2026-04-19T07:45:09.999Z</time></trkpt><trkpt lat="42.57192055122929" lon="13.57691244393457"><ele>347.0</ele><time>2026-04-19T07:45:10.999Z</time></trkpt><trkpt lat="42.571836145505806" lon="13.57676925971262"><ele>353.25</ele><time>2026-04-19T07:45:11.999Z</time></trkpt><trkpt lat="42.571747605052074" lon="13.57662863716065"><ele>359.5</ele><time>2026-04-19T07:45:12.999Z</time></trkpt><trkpt lat="42.57164828463134" lon="13.576497433503688"><ele>365.75</ele><time>2026-04-19T07:45:13.999Z</time></trkpt><trkpt lat="42.57154123986059" lon="13.576404961187619"><ele>372.0</ele><time>2026-04-19T07:45:14.999Z</time></trkpt><trkpt lat="42.57142836888759" lon="13.576336696351376"><ele>372.0</ele><time>2026-04-19T07:45:15.999Z</time></trkpt><trkpt lat="42.57130876976778" lon="13.57627922051307"><ele>372.0</ele><time>2026-04-19T07:45:16.999Z</time></trkpt><trkpt lat="42.57119748494308" lon="13.576228636026354"><ele>372.0</ele><time>2026-04-19T07:45:17.999Z</time></trkpt><trkpt lat="42.57109618651473" lon="13.576182996826017"><ele>372.0</ele><time>2026-04-19T07:45:18.999Z</time></trkpt><trkpt lat="42.57100507375632" lon="13.576136979508096"><ele>372.0</ele><time>2026-04-19T07:45:19.999Z</time></trkpt><trkpt lat="42.57092217704049" lon="13.576086786591532"><ele>370.40000000000003</ele><time>2026-04-19T07:45:20.999Z</time></trkpt><trkpt lat="42.570855606987585" lon="13.57601472371857"><ele>368.8</ele><time>2026-04-19T07:45:21.999Z</time></trkpt><trkpt lat="42.570800507216354" lon="13.575918020134795"><ele>367.2</ele><time>2026-04-19T07:45:22.999Z</time></trkpt><trkpt lat="42.57076407823918" lon="13.57577536119272"><ele>365.6</ele><time>2026-04-19T07:45:23.999Z</time></trkpt><trkpt lat="42.57073923453431" lon="13.575632523917097"><ele>364.0</ele><time>2026-04-19T07:45:24.999Z</time></trkpt><trkpt lat="42.570709520783225" lon="13.57549002213258"><ele>364.0</ele><time>2026-04-19T07:45:25.999Z</time></trkpt><trkpt lat="42.570677454303535" lon="13.575366028262268"><ele>364.0</ele><time>2026-04-19T07:45:26.999Z</time></trkpt><trkpt lat="42.5706407239466" lon="13.575240572061993"><ele>364.0</ele><time>2026-04-19T07:45:27.999Z</time></trkpt><trkpt lat="42.57059337422178" lon="13.575119395299918"><ele>364.0</ele><time>2026-04-19T07:45:28.999Z</time></trkpt><trkpt lat="42.57054318571332" lon="13.574985849373876"><ele>364.0</ele><time>2026-04-19T07:45:29.999Z</time></trkpt><trkpt lat="42.57044858940846" lon="13.574896844664408"><ele>364.75</ele><time>2026-04-19T07:45:30.999Z</time></trkpt><trkpt lat="42.57035287319022" lon="13.574809305322363"><ele>365.5</ele><time>2026-04-19T07:45:31.999Z</time></trkpt><trkpt lat="42.57024823280384" lon="13.57473859848421"><ele>366.25</ele><time>2026-04-19T07:45:32.999Z</time></trkpt><trkpt lat="42.570137819271615" lon="13.574672763579189"><ele>367.0</ele><time>2026-04-19T07:45:33.999Z</time></trkpt><trkpt lat="42.570027752787205" lon="13.574606560524343"><ele>367.0</ele><time>2026-04-19T07:45:34.999Z</time></trkpt><trkpt lat="42.569913336010835" lon="13.574545822833565"><ele>367.0</ele><time>2026-04-19T07:45:35.999Z</time></trkpt><trkpt lat="42.5697949756035" lon="13.57449586473306"><ele>367.0</ele><time>2026-04-19T07:45:36.999Z</time></trkpt><trkpt lat="42.569665721367244" lon="13.574464898044885"><ele>367.0</ele><time>2026-04-19T07:45:37.999Z</time></trkpt><trkpt lat="42.56954265283778" lon="13.574444666984627"><ele>365.25</ele><time>2026-04-19T07:45:38.999Z</time></trkpt><trkpt lat="42.569423461218804" lon="13.574427377603696"><ele>363.5</ele><time>2026-04-19T07:45:39.999Z</time></trkpt><trkpt lat="42.569308931761746" lon="13.574416886708748"><ele>361.75</ele><time>2026-04-19T07:45:40.999Z</time></trkpt><trkpt lat="42.569195858312675" lon="13.574413076959845"><ele>360.0</ele><time>2026-04-19T07:45:41.999Z</time></trkpt><trkpt lat="42.569081175154984" lon="13.57442047692597"><ele>360.0</ele><time>2026-04-19T07:45:42.999Z</time></trkpt><trkpt lat="42.56896516833088" lon="13.574434958320563"><ele>360.0</ele><time>2026-04-19T07:45:43.999Z</time></trkpt><trkpt lat="42.56884621835977" lon="13.574455528615937"><ele>360.0</ele><time>2026-04-19T07:45:44.999Z</time></trkpt><trkpt lat="42.56872036105933" lon="13.574479042330319"><ele>360.0</ele><time>2026-04-19T07:45:45.999Z</time></trkpt><trkpt lat="42.568594926244266" lon="13.574502101950287"><ele>367.0</ele><time>2026-04-19T07:45:46.999Z</time></trkpt><trkpt lat="42.56847454917089" lon="13.574523317098642"><ele>374.0</ele><time>2026-04-19T07:45:47.999Z</time></trkpt><trkpt lat="42.568364293766024" lon="13.574552550465462"><ele>381.0</ele><time>2026-04-19T07:45:48.999Z</time></trkpt><trkpt lat="42.56825094988712" lon="13.574593166460987"><ele>388.0</ele><time>2026-04-19T07:45:49.999Z</time></trkpt><trkpt lat="42.56813598007603" lon="13.574642420571546"><ele>388.0</ele><time>2026-04-19T07:45:50.999Z</time></trkpt><trkpt lat="42.568022972457605" lon="13.57470341917602"><ele>388.0</ele><time>2026-04-19T07:45:51.999Z</time></trkpt><trkpt lat="42.5679082218884" lon="13.574762013927455"><ele>388.0</ele><time>2026-04-19T07:45:52.999Z</time></trkpt><trkpt lat="42.5677900776952" lon="13.574813251972472"><ele>388.0</ele><time>2026-04-19T07:45:53.999Z</time></trkpt><trkpt lat="42.56766952590473" lon="13.574855615209206"><ele>388.0</ele><time>2026-04-19T07:45:54.999Z</time></trkpt><trkpt lat="42.56754576196616" lon="13.574884928576072"><ele>388.0</ele><time>2026-04-19T07:45:55.999Z</time></trkpt><trkpt lat="42.56741744136122" lon="13.574892196678382"><ele>388.0</ele><time>2026-04-19T07:45:56.999Z</time></trkpt><trkpt lat="42.567286639758336" lon="13.574884776923751"><ele>388.0</ele><time>2026-04-19T07:45:57.999Z</time></trkpt><trkpt lat="42.56714712018701" lon="13.574858494936832"><ele>396.0</ele><time>2026-04-19T07:45:58.999Z</time></trkpt><trkpt lat="42.56699116979815" lon="13.574793794792306"><ele>404.0</ele><time>2026-04-19T07:45:59.999Z</time></trkpt><trkpt lat="42.56682142481875" lon="13.574732826700973"><ele>412.0</ele><time>2026-04-19T07:46:00.999Z</time></trkpt><trkpt lat="42.56664762321469" lon="13.574670401563713"><ele>412.0</ele><time>2026-04-19T07:46:01.999Z</time></trkpt><trkpt lat="42.56648375827521" lon="13.574654056483263"><ele>412.0</ele><time>2026-04-19T07:46:02.999Z</time></trkpt><trkpt lat="42.566337420110976" lon="13.574616492925333"><ele>412.0</ele><time>2026-04-19T07:46:04Z</time></trkpt><trkpt lat="42.56619801963768" lon="13.574602049536937"><ele>403.25</ele><time>2026-04-19T07:46:05Z</time></trkpt><trkpt lat="42.5660696359063" lon="13.574587321882907"><ele>394.5</ele><time>2026-04-19T07:46:06Z</time></trkpt><trkpt lat="42.56595099314806" lon="13.574558311495716"><ele>385.75</ele><time>2026-04-19T07:46:07Z</time></trkpt><trkpt lat="42.56583364618108" lon="13.574498869935661"><ele>377.0</ele><time>2026-04-19T07:46:08Z</time></trkpt><trkpt lat="42.56572399771891" lon="13.574408006136377"><ele>377.0</ele><time>2026-04-19T07:46:09Z</time></trkpt><trkpt lat="42.56561692826772" lon="13.574299151402489"><ele>377.0</ele><time>2026-04-19T07:46:10Z</time></trkpt><trkpt lat="42.565513617018375" lon="13.574176190185726"><ele>377.0</ele><time>2026-04-19T07:46:11Z</time></trkpt><trkpt lat="42.565405687929456" lon="13.574039457716935"><ele>377.0</ele><time>2026-04-19T07:46:12Z</time></trkpt><trkpt lat="42.56530557408017" lon="13.573910168922502"><ele>381.0</ele><time>2026-04-19T07:46:13Z</time></trkpt><trkpt lat="42.56521399039425" lon="13.57379012603301"><ele>385.0</ele><time>2026-04-19T07:46:14Z</time></trkpt><trkpt lat="42.56512579565562" lon="13.573673600265083"><ele>389.0</ele><time>2026-04-19T07:46:15Z</time></trkpt><trkpt lat="42.56504258821888" lon="13.573544636863797"><ele>393.0</ele><time>2026-04-19T07:46:16Z</time></trkpt><trkpt lat="42.56496255740851" lon="13.573406034938955"><ele>393.0</ele><time>2026-04-19T07:46:17Z</time></trkpt><trkpt lat="42.564888701405565" lon="13.573261839531769"><ele>393.0</ele><time>2026-04-19T07:46:18Z</time></trkpt><trkpt lat="42.56482455109874" lon="13.573115456297309"><ele>393.0</ele><time>2026-04-19T07:46:19Z</time></trkpt><trkpt lat="42.56477673376155" lon="13.572964488286756"><ele>393.0</ele><time>2026-04-19T07:46:20Z</time></trkpt><trkpt lat="42.56474507351601" lon="13.57280358117436"><ele>388.5</ele><time>2026-04-19T07:46:21Z</time></trkpt><trkpt lat="42.564752621925166" lon="13.572630776616538"><ele>384.0</ele><time>2026-04-19T07:46:22Z</time></trkpt><trkpt lat="42.56474842315038" lon="13.57246014381612"><ele>379.5</ele><time>2026-04-19T07:46:23Z</time></trkpt><trkpt lat="42.56473720491047" lon="13.572284696205436"><ele>375.0</ele><time>2026-04-19T07:46:24Z</time></trkpt><trkpt lat="42.5647513692299" lon="13.572122929783156"><ele>374.4</ele><time>2026-04-19T07:46:25Z</time></trkpt><trkpt lat="42.564766587983335" lon="13.571979564938141"><ele>373.8</ele><time>2026-04-19T07:46:26Z</time></trkpt><trkpt lat="42.56477673898035" lon="13.571845552257676"><ele>373.20000000000005</ele><time>2026-04-19T07:46:27Z</time></trkpt><trkpt lat="42.564770697104095" lon="13.571709951198745"><ele>372.6</ele><time>2026-04-19T07:46:28Z</time></trkpt><trkpt lat="42.564728116418806" lon="13.57158105660021"><ele>372.0</ele><time>2026-04-19T07:46:29Z</time></trkpt><trkpt lat="42.56465135407847" lon="13.57146753265066"><ele>372.0</ele><time>2026-04-19T07:46:30Z</time></trkpt><trkpt lat="42.564549506739596" lon="13.57136092965398"><ele>372.0</ele><time>2026-04-19T07:46:31Z</time></trkpt><trkpt lat="42.56444262911561" lon="13.57126687830862"><ele>372.0</ele><time>2026-04-19T07:46:32Z</time></trkpt><trkpt lat="42.56434143485678" lon="13.57118122219818"><ele>372.0</ele><time>2026-04-19T07:46:33Z</time></trkpt><trkpt lat="42.564240770898586" lon="13.571096050728837"><ele>375.25</ele><time>2026-04-19T07:46:34Z</time></trkpt><trkpt lat="42.56414428017712" lon="13.571002611118265"><ele>378.5</ele><time>2026-04-19T07:46:35Z</time></trkpt><trkpt lat="42.56405193352432" lon="13.570894282488728"><ele>381.75</ele><time>2026-04-19T07:46:36Z</time></trkpt><trkpt lat="42.56396779347992" lon="13.570768517741051"><ele>385.0</ele><time>2026-04-19T07:46:37Z</time></trkpt><trkpt lat="42.5638926209164" lon="13.570637451754314"><ele>385.0</ele><time>2026-04-19T07:46:38Z</time></trkpt><trkpt lat="42.56382040768851" lon="13.570498808761963"><ele>385.0</ele><time>2026-04-19T07:46:39Z</time></trkpt><trkpt lat="42.56375434663084" lon="13.570355041710442"><ele>385.0</ele><time>2026-04-19T07:46:40Z</time></trkpt><trkpt lat="42.56369469278198" lon="13.570204769009159"><ele>385.0</ele><time>2026-04-19T07:46:41Z</time></trkpt><trkpt lat="42.56365269951355" lon="13.570056585719792"><ele>388.4</ele><time>2026-04-19T07:46:42Z</time></trkpt><trkpt lat="42.56363060272017" lon="13.569914134909073"><ele>391.8</ele><time>2026-04-19T07:46:43Z</time></trkpt><trkpt lat="42.563624330057465" lon="13.569768642277882"><ele>395.20000000000005</ele><time>2026-04-19T07:46:44Z</time></trkpt><trkpt lat="42.56363315242366" lon="13.569618364819634"><ele>398.6</ele><time>2026-04-19T07:46:45Z</time></trkpt><trkpt lat="42.563642706235775" lon="13.569465489522939"><ele>402.0</ele><time>2026-04-19T07:46:46Z</time></trkpt><trkpt lat="42.5636550331702" lon="13.569315060417434"><ele>402.0</ele><time>2026-04-19T07:46:47Z</time></trkpt><trkpt lat="42.56362890907034" lon="13.56915314285811"><ele>402.0</ele><time>2026-04-19T07:46:48Z</time></trkpt><trkpt lat="42.563571636638784" lon="13.56900325804484"><ele>402.0</ele><time>2026-04-19T07:46:49Z</time></trkpt><trkpt lat="42.56352775722849" lon="13.568863904694416"><ele>402.0</ele><time>2026-04-19T07:46:50Z</time></trkpt><trkpt lat="42.56347927504095" lon="13.56870769424446"><ele>399.66666666666663</ele><time>2026-04-19T07:46:51Z</time></trkpt><trkpt lat="42.56343482218713" lon="13.568538183975248"><ele>397.3333333333333</ele><time>2026-04-19T07:46:51.999Z</time></trkpt><trkpt lat="42.563421045410934" lon="13.568338482723997"><ele>395.0</ele><time>2026-04-19T07:46:52.999Z</time></trkpt><trkpt lat="42.56341325300812" lon="13.568080207009364"><ele>392.5</ele><time>2026-04-19T07:46:53.999Z</time></trkpt><trkpt lat="42.56342152824985" lon="13.56777477921369"><ele>390.0</ele><time>2026-04-19T07:46:54.999Z</time></trkpt><trkpt lat="42.56342749074993" lon="13.567435281572267"><ele>390.0</ele><time>2026-04-19T07:46:55.999Z</time></trkpt><trkpt lat="42.56342528888544" lon="13.567098295037791"><ele>390.0</ele><time>2026-04-19T07:46:56.999Z</time></trkpt><trkpt lat="42.563435122191706" lon="13.566795819376631"><ele>390.66666666666663</ele><time>2026-04-19T07:46:57.999Z</time></trkpt><trkpt lat="42.56343651338601" lon="13.56652059166317"><ele>391.3333333333333</ele><time>2026-04-19T07:46:58.999Z</time></trkpt><trkpt lat="42.56342162951545" lon="13.566291824703569"><ele>392.0</ele><time>2026-04-19T07:46:59.999Z</time></trkpt><trkpt lat="42.563381552699006" lon="13.566085720391635"><ele>390.3333333333333</ele><time>2026-04-19T07:47:00.999Z</time></trkpt><trkpt lat="42.56329999109792" lon="13.565878066476522"><ele>388.66666666666663</ele><time>2026-04-19T07:47:01.999Z</time></trkpt><trkpt lat="42.56315443725201" lon="13.565654706699245"><ele>387.0</ele><time>2026-04-19T07:47:02.999Z</time></trkpt><trkpt lat="42.56297104510986" lon="13.565434891180828"><ele>387.0</ele><time>2026-04-19T07:47:03.999Z</time></trkpt><trkpt lat="42.56273886130942" lon="13.565239470718826"><ele>387.0</ele><time>2026-04-19T07:47:04.999Z</time></trkpt><trkpt lat="42.562479316104806" lon="13.565087876022485"><ele>387.0</ele><time>2026-04-19T07:47:05.999Z</time></trkpt><trkpt lat="42.562224242700196" lon="13.564981330175845"><ele>387.0</ele><time>2026-04-19T07:47:06.999Z</time></trkpt><trkpt lat="42.561970467655875" lon="13.564905455868129"><ele>399.5</ele><time>2026-04-19T07:47:07.999Z</time></trkpt><trkpt lat="42.56172898841774" lon="13.564848430601904"><ele>412.0</ele><time>2026-04-19T07:47:08.999Z</time></trkpt><trkpt lat="42.5615160109957" lon="13.564790483474763"><ele>412.0</ele><time>2026-04-19T07:47:09.999Z</time></trkpt><trkpt lat="42.56132088727216" lon="13.56472506541736"><ele>412.0</ele><time>2026-04-19T07:47:10.999Z</time></trkpt><trkpt lat="42.561156266899204" lon="13.564604128524635"><ele>412.0</ele><time>2026-04-19T07:47:11.999Z</time></trkpt><trkpt lat="42.56099486015568" lon="13.564470416497848"><ele>411.0</ele><time>2026-04-19T07:47:12.999Z</time></trkpt><trkpt lat="42.56086643687146" lon="13.564327787850125"><ele>410.0</ele><time>2026-04-19T07:47:13.999Z</time></trkpt><trkpt lat="42.560764231185296" lon="13.564187374370949"><ele>409.0</ele><time>2026-04-19T07:47:14.999Z</time></trkpt><trkpt lat="42.56067213938128" lon="13.564036931579787"><ele>409.0</ele><time>2026-04-19T07:47:16.054Z</time></trkpt><trkpt lat="42.56059147045872" lon="13.563904377772944"><ele>409.0</ele><time>2026-04-19T07:47:17.055Z</time></trkpt><trkpt lat="42.56033559755089" lon="13.56353591919863"><ele>533.0</ele><time>2026-04-19T07:47:18.056Z</time></trkpt><trkpt lat="42.5593715336921" lon="13.564362392951956"><ele>533.0</ele><time>2026-04-19T07:47:19.054Z</time></trkpt><trkpt lat="42.55915571258734" lon="13.56428586203719"><ele>533.0</ele><time>2026-04-19T07:47:20.045Z</time></trkpt><trkpt lat="42.55895004539172" lon="13.564164792253974"><ele>533.0</ele><time>2026-04-19T07:47:21.041Z</time></trkpt><trkpt lat="42.55872182123834" lon="13.564107458851874"><ele>551.0</ele><time>2026-04-19T07:47:22.027Z</time></trkpt><trkpt lat="42.55848885142302" lon="13.564049048531926"><ele>569.0</ele><time>2026-04-19T07:47:23.026Z</time></trkpt><trkpt lat="42.558257237482735" lon="13.563990875956323"><ele>569.0</ele><time>2026-04-19T07:47:24.021Z</time></trkpt><trkpt lat="42.55802425914773" lon="13.563932153362135"><ele>569.0</ele><time>2026-04-19T07:47:25.031Z</time></trkpt><trkpt lat="42.557798858893065" lon="13.563875583937088"><ele>469.0</ele><time>2026-04-19T07:47:25.999Z</time></trkpt><trkpt lat="42.558691272284655" lon="13.56181335520971"><ele>424.0</ele><time>2026-04-19T07:47:26.999Z</time></trkpt><trkpt lat="42.55864238725205" lon="13.561063957865079"><ele>424.0</ele><time>2026-04-19T07:47:27.999Z</time></trkpt><trkpt lat="42.558557528711354" lon="13.56060661295501"><ele>424.0</ele><time>2026-04-19T07:47:28.999Z</time></trkpt><trkpt lat="42.55841260958652" lon="13.56049376530813"><ele>424.0</ele><time>2026-04-19T07:47:29.999Z</time></trkpt><trkpt lat="42.558276102610236" lon="13.560387421552566"><ele>424.0</ele><time>2026-04-19T07:47:30.999Z</time></trkpt><trkpt lat="42.55812602798873" lon="13.560275846546187"><ele>424.0</ele><time>2026-04-19T07:47:31.999Z</time></trkpt><trkpt lat="42.557932886451226" lon="13.560243128401398"><ele>421.0</ele><time>2026-04-19T07:47:32.999Z</time></trkpt><trkpt lat="42.55773470573029" lon="13.560353763106134"><ele>418.0</ele><time>2026-04-19T07:47:33.999Z</time></trkpt><trkpt lat="42.557550356126605" lon="13.5604529987912"><ele>415.0</ele><time>2026-04-19T07:47:34.999Z</time></trkpt><trkpt lat="42.55738646473386" lon="13.56050404098179"><ele>415.0</ele><time>2026-04-19T07:47:35.999Z</time></trkpt><trkpt lat="42.557227221173726" lon="13.560467400358998"><ele>415.0</ele><time>2026-04-19T07:47:36.999Z</time></trkpt><trkpt lat="42.557043479741154" lon="13.560325674878513"><ele>415.0</ele><time>2026-04-19T07:47:37.999Z</time></trkpt><trkpt lat="42.556856599589715" lon="13.560171282785442"><ele>417.0</ele><time>2026-04-19T07:47:38.999Z</time></trkpt><trkpt lat="42.556631066862415" lon="13.559982686272901"><ele>419.0</ele><time>2026-04-19T07:47:39.999Z</time></trkpt><trkpt lat="42.556423386022125" lon="13.559746543660442"><ele>419.0</ele><time>2026-04-19T07:47:40.999Z</time></trkpt><trkpt lat="42.556265997229715" lon="13.559547518215483"><ele>419.0</ele><time>2026-04-19T07:47:41.999Z</time></trkpt><trkpt lat="42.55613048626194" lon="13.55933459776829"><ele>419.0</ele><time>2026-04-19T07:47:42.999Z</time></trkpt><trkpt lat="42.556040364257015" lon="13.559128909769075"><ele>419.25</ele><time>2026-04-19T07:47:43.999Z</time></trkpt><trkpt lat="42.555953181374036" lon="13.558975190224457"><ele>419.5</ele><time>2026-04-19T07:47:44.999Z</time></trkpt><trkpt lat="42.55587331894073" lon="13.558835992886568"><ele>419.75</ele><time>2026-04-19T07:47:45.999Z</time></trkpt><trkpt lat="42.55572240303505" lon="13.558774736869974"><ele>420.0</ele><time>2026-04-19T07:47:46.999Z</time></trkpt><trkpt lat="42.55551737491905" lon="13.558677396165006"><ele>416.0</ele><time>2026-04-19T07:47:47.999Z</time></trkpt><trkpt lat="42.555331640596904" lon="13.55863320670815"><ele>412.0</ele><time>2026-04-19T07:47:48.999Z</time></trkpt><trkpt lat="42.55515546895084" lon="13.558596018277424"><ele>408.0</ele><time>2026-04-19T07:47:49.999Z</time></trkpt><trkpt lat="42.55500031453493" lon="13.558578104854632"><ele>408.0</ele><time>2026-04-19T07:47:50.999Z</time></trkpt><trkpt lat="42.554878064481386" lon="13.558579222809596"><ele>408.0</ele><time>2026-04-19T07:47:51.999Z</time></trkpt><trkpt lat="42.55473073294956" lon="13.55856844501324"><ele>408.0</ele><time>2026-04-19T07:47:52.999Z</time></trkpt><trkpt lat="42.554589275696166" lon="13.558507384210177"><ele>408.0</ele><time>2026-04-19T07:47:53.999Z</time></trkpt><trkpt lat="42.554446537639336" lon="13.558420350511934"><ele>413.33333333333337</ele><time>2026-04-19T07:47:54.999Z</time></trkpt><trkpt lat="42.55430202612386" lon="13.558316223453518"><ele>418.6666666666667</ele><time>2026-04-19T07:47:55.999Z</time></trkpt><trkpt lat="42.5541674642158" lon="13.55820353282294"><ele>424.0</ele><time>2026-04-19T07:47:56.999Z</time></trkpt><trkpt lat="42.55404047537565" lon="13.558084500573043"><ele>424.0</ele><time>2026-04-19T07:47:57.999Z</time></trkpt><trkpt lat="42.553923542376175" lon="13.557961000844612"><ele>424.0</ele><time>2026-04-19T07:47:58.999Z</time></trkpt><trkpt lat="42.553824388430826" lon="13.557836217825033"><ele>424.0</ele><time>2026-04-19T07:47:59.999Z</time></trkpt><trkpt lat="42.5537386552269" lon="13.557711619959933"><ele>424.0</ele><time>2026-04-19T07:48:00.999Z</time></trkpt><trkpt lat="42.55366666309994" lon="13.557598037522242"><ele>423.79999999999995</ele><time>2026-04-19T07:48:01.999Z</time></trkpt><trkpt lat="42.553602247467076" lon="13.55748916209802"><ele>423.59999999999997</ele><time>2026-04-19T07:48:02.999Z</time></trkpt><trkpt lat="42.55354227444902" lon="13.55736365165046"><ele>423.4</ele><time>2026-04-19T07:48:03.999Z</time></trkpt><trkpt lat="42.553467906567505" lon="13.557242264550187"><ele>423.2</ele><time>2026-04-19T07:48:04.999Z</time></trkpt><trkpt lat="42.55338316267516" lon="13.557157396579019"><ele>423.0</ele><time>2026-04-19T07:48:05.999Z</time></trkpt><trkpt lat="42.55328110933382" lon="13.557103594286271"><ele>423.0</ele><time>2026-04-19T07:48:06.999Z</time></trkpt><trkpt lat="42.55318396281539" lon="13.557085993387771"><ele>423.0</ele><time>2026-04-19T07:48:07.999Z</time></trkpt><trkpt lat="42.5531013989295" lon="13.557087509930026"><ele>423.0</ele><time>2026-04-19T07:48:08.999Z</time></trkpt><trkpt lat="42.553028136981325" lon="13.55706698604383"><ele>423.0</ele><time>2026-04-19T07:48:10Z</time></trkpt><trkpt lat="42.55296071823222" lon="13.556969202750787"><ele>423.0</ele><time>2026-04-19T07:48:11Z</time></trkpt><trkpt lat="42.55291889462739" lon="13.556731808341235"><ele>420.0</ele><time>2026-04-19T07:48:13Z</time></trkpt><trkpt lat="42.5529673764544" lon="13.556603888737174"><ele>417.0</ele><time>2026-04-19T07:48:14Z</time></trkpt><trkpt lat="42.55299268161887" lon="13.556461271610305"><ele>414.0</ele><time>2026-04-19T07:48:15Z</time></trkpt><trkpt lat="42.553016451816426" lon="13.556300736410336"><ele>411.0</ele><time>2026-04-19T07:48:16Z</time></trkpt><trkpt lat="42.553044882247164" lon="13.556137284800599"><ele>411.0</ele><time>2026-04-19T07:48:17Z</time></trkpt><trkpt lat="42.55307479841639" lon="13.555966853875303"><ele>411.0</ele><time>2026-04-19T07:48:18Z</time></trkpt><trkpt lat="42.553110556120814" lon="13.5557896291718"><ele>411.0</ele><time>2026-04-19T07:48:19Z</time></trkpt><trkpt lat="42.55314633104188" lon="13.555621778062395"><ele>411.0</ele><time>2026-04-19T07:48:20Z</time></trkpt><trkpt lat="42.553192479677165" lon="13.555458539779888"><ele>416.25</ele><time>2026-04-19T07:48:21Z</time></trkpt><trkpt lat="42.55326057767181" lon="13.555301786992453"><ele>421.5</ele><time>2026-04-19T07:48:22Z</time></trkpt><trkpt lat="42.55334714965315" lon="13.555153178054407"><ele>426.75</ele><time>2026-04-19T07:48:23Z</time></trkpt><trkpt lat="42.55344223465544" lon="13.555010470104238"><ele>432.0</ele><time>2026-04-19T07:48:24Z</time></trkpt><trkpt lat="42.55354272347817" lon="13.554862481545104"><ele>432.0</ele><time>2026-04-19T07:48:25Z</time></trkpt><trkpt lat="42.55364598150334" lon="13.554714833949527"><ele>432.0</ele><time>2026-04-19T07:48:26Z</time></trkpt><trkpt lat="42.55374525553557" lon="13.554591959652624"><ele>432.0</ele><time>2026-04-19T07:48:27Z</time></trkpt><trkpt lat="42.553842663535235" lon="13.554479900336519"><ele>432.0</ele><time>2026-04-19T07:48:28Z</time></trkpt><trkpt lat="42.55394411695985" lon="13.554381113381309"><ele>429.5</ele><time>2026-04-19T07:48:29Z</time></trkpt><trkpt lat="42.554035705522296" lon="13.554276798595764"><ele>427.0</ele><time>2026-04-19T07:48:30Z</time></trkpt><trkpt lat="42.55410952592955" lon="13.554140575011907"><ele>424.5</ele><time>2026-04-19T07:48:31Z</time></trkpt><trkpt lat="42.554162385023396" lon="13.553986541686962"><ele>422.0</ele><time>2026-04-19T07:48:32Z</time></trkpt><trkpt lat="42.55420504199543" lon="13.553836126585258"><ele>427.0</ele><time>2026-04-19T07:48:33Z</time></trkpt><trkpt lat="42.5542626116871" lon="13.553684762216063"><ele>432.0</ele><time>2026-04-19T07:48:34Z</time></trkpt><trkpt lat="42.55434090525487" lon="13.553542637566318"><ele>437.0</ele><time>2026-04-19T07:48:35Z</time></trkpt><trkpt lat="42.55443722829164" lon="13.553411368092982"><ele>442.0</ele><time>2026-04-19T07:48:36Z</time></trkpt><trkpt lat="42.5545346738874" lon="13.553289751879689"><ele>434.0</ele><time>2026-04-19T07:48:37Z</time></trkpt><trkpt lat="42.554598419263684" lon="13.553154226140101"><ele>426.0</ele><time>2026-04-19T07:48:38Z</time></trkpt><trkpt lat="42.554659528189646" lon="13.553010780853489"><ele>418.0</ele><time>2026-04-19T07:48:39Z</time></trkpt><trkpt lat="42.554702672791976" lon="13.552845403399655"><ele>410.0</ele><time>2026-04-19T07:48:40Z</time></trkpt><trkpt lat="42.554727076240866" lon="13.552697128807965"><ele>410.0</ele><time>2026-04-19T07:48:41Z</time></trkpt><trkpt lat="42.55474428135706" lon="13.552563167919809"><ele>410.0</ele><time>2026-04-19T07:48:42Z</time></trkpt><trkpt lat="42.55475645947771" lon="13.5524384947435"><ele>410.0</ele><time>2026-04-19T07:48:43Z</time></trkpt><trkpt lat="42.55476542936599" lon="13.552311111037023"><ele>410.0</ele><time>2026-04-19T07:48:44Z</time></trkpt><trkpt lat="42.55476013901808" lon="13.552174206012628"><ele>410.0</ele><time>2026-04-19T07:48:45Z</time></trkpt><trkpt lat="42.55470103348104" lon="13.55204930663428"><ele>411.5</ele><time>2026-04-19T07:48:46Z</time></trkpt><trkpt lat="42.55461779178543" lon="13.551948501603729"><ele>413.0</ele><time>2026-04-19T07:48:47Z</time></trkpt><trkpt lat="42.55452836879467" lon="13.551866655640762"><ele>414.5</ele><time>2026-04-19T07:48:48Z</time></trkpt><trkpt lat="42.55446340605021" lon="13.551744096609765"><ele>416.0</ele><time>2026-04-19T07:48:49Z</time></trkpt><trkpt lat="42.55442407392028" lon="13.551586190803622"><ele>425.25</ele><time>2026-04-19T07:48:50Z</time></trkpt><trkpt lat="42.55439041255473" lon="13.551414172445252"><ele>434.5</ele><time>2026-04-19T07:48:51Z</time></trkpt><trkpt lat="42.554367540629464" lon="13.551252967513895"><ele>443.75</ele><time>2026-04-19T07:48:52Z</time></trkpt><trkpt lat="42.55436792572954" lon="13.551094237833466"><ele>453.0</ele><time>2026-04-19T07:48:53Z</time></trkpt><trkpt lat="42.554382866517905" lon="13.55093541858782"><ele>453.0</ele><time>2026-04-19T07:48:54Z</time></trkpt><trkpt lat="42.55441918866184" lon="13.550767880067554"><ele>453.0</ele><time>2026-04-19T07:48:55Z</time></trkpt><trkpt lat="42.554430452753294" lon="13.550579057170413"><ele>453.0</ele><time>2026-04-19T07:48:56Z</time></trkpt><trkpt lat="42.554424767419555" lon="13.550379621621325"><ele>453.0</ele><time>2026-04-19T07:48:57Z</time></trkpt><trkpt lat="42.55443861673525" lon="13.550187500274058"><ele>453.0</ele><time>2026-04-19T07:48:58Z</time></trkpt><trkpt lat="42.554466465770645" lon="13.55001867247174"><ele>453.0</ele><time>2026-04-19T07:48:59Z</time></trkpt><trkpt lat="42.554464198010386" lon="13.549858204578577"><ele>453.0</ele><time>2026-04-19T07:49:00Z</time></trkpt><trkpt lat="42.55448340108468" lon="13.549713063387916"><ele>453.0</ele><time>2026-04-19T07:49:01Z</time></trkpt><trkpt lat="42.554525357051006" lon="13.549581163042031"><ele>451.59999999999997</ele><time>2026-04-19T07:49:02Z</time></trkpt><trkpt lat="42.554534766724515" lon="13.549441400960317"><ele>450.19999999999993</ele><time>2026-04-19T07:49:03Z</time></trkpt><trkpt lat="42.554541355480346" lon="13.549308715867681"><ele>448.8</ele><time>2026-04-19T07:49:04Z</time></trkpt><trkpt lat="42.55451419384406" lon="13.54918454972042"><ele>447.4</ele><time>2026-04-19T07:49:05Z</time></trkpt><trkpt lat="42.5544683141735" lon="13.549063886484573"><ele>446.0</ele><time>2026-04-19T07:49:06Z</time></trkpt><trkpt lat="42.554414533862335" lon="13.548945069929605"><ele>446.0</ele><time>2026-04-19T07:49:07Z</time></trkpt><trkpt lat="42.55439627452257" lon="13.548817181623413"><ele>446.0</ele><time>2026-04-19T07:49:08Z</time></trkpt><trkpt lat="42.55435466271841" lon="13.548704981351534"><ele>446.0</ele><time>2026-04-19T07:49:09Z</time></trkpt><trkpt lat="42.55432479220225" lon="13.548588075820016"><ele>446.0</ele><time>2026-04-19T07:49:10Z</time></trkpt><trkpt lat="42.5542984375511" lon="13.54846647100632"><ele>446.0</ele><time>2026-04-19T07:49:11Z</time></trkpt><trkpt lat="42.55423365515226" lon="13.548378210092542"><ele>443.0</ele><time>2026-04-19T07:49:12Z</time></trkpt><trkpt lat="42.55419789841844" lon="13.548280975199399"><ele>440.0</ele><time>2026-04-19T07:49:13Z</time></trkpt><trkpt lat="42.55415523518674" lon="13.548192059861455"><ele>437.0</ele><time>2026-04-19T07:49:14Z</time></trkpt><trkpt lat="42.55411413770881" lon="13.548079800023958"><ele>434.0</ele><time>2026-04-19T07:49:15Z</time></trkpt><trkpt lat="42.5541553674352" lon="13.54793926340089"><ele>431.0</ele><time>2026-04-19T07:49:16Z</time></trkpt><trkpt lat="42.55418664134544" lon="13.547820459380647"><ele>431.0</ele><time>2026-04-19T07:49:16.999Z</time></trkpt><trkpt lat="42.5542236405115" lon="13.54769070382483"><ele>431.0</ele><time>2026-04-19T07:49:17.999Z</time></trkpt><trkpt lat="42.554271545071046" lon="13.547579365280571"><ele>431.0</ele><time>2026-04-19T07:49:18.999Z</time></trkpt><trkpt lat="42.55433909705576" lon="13.547497737895835"><ele>431.0</ele><time>2026-04-19T07:49:19.999Z</time></trkpt><trkpt lat="42.55444106319694" lon="13.547443637194275"><ele>431.0</ele><time>2026-04-19T07:49:20.999Z</time></trkpt><trkpt lat="42.55452438550941" lon="13.547316335432892"><ele>428.0</ele><time>2026-04-19T07:49:21.999Z</time></trkpt><trkpt lat="42.55458686429654" lon="13.547150790835198"><ele>425.0</ele><time>2026-04-19T07:49:22.999Z</time></trkpt><trkpt lat="42.55465644702846" lon="13.5469221580754"><ele>422.0</ele><time>2026-04-19T07:49:23.999Z</time></trkpt><trkpt lat="42.55475180853854" lon="13.546614742104287"><ele>422.0</ele><time>2026-04-19T07:49:24.999Z</time></trkpt><trkpt lat="42.55485666679814" lon="13.546278951126016"><ele>422.0</ele><time>2026-04-19T07:49:25.999Z</time></trkpt><trkpt lat="42.55494975199314" lon="13.545983037782605"><ele>426.3333333333333</ele><time>2026-04-19T07:49:26.999Z</time></trkpt><trkpt lat="42.555024721625735" lon="13.545743681365913"><ele>430.66666666666663</ele><time>2026-04-19T07:49:27.999Z</time></trkpt><trkpt lat="42.555089843135924" lon="13.54553679570952"><ele>435.0</ele><time>2026-04-19T07:49:28.999Z</time></trkpt><trkpt lat="42.55515449411944" lon="13.545336647841271"><ele>432.0</ele><time>2026-04-19T07:49:29.999Z</time></trkpt><trkpt lat="42.555214490101804" lon="13.545156257523697"><ele>429.0</ele><time>2026-04-19T07:49:30.999Z</time></trkpt><trkpt lat="42.55527034702886" lon="13.5449593752981"><ele>426.0</ele><time>2026-04-19T07:49:31.999Z</time></trkpt><trkpt lat="42.555372648046784" lon="13.544780756764894"><ele>426.0</ele><time>2026-04-19T07:49:32.999Z</time></trkpt><trkpt lat="42.55547412419362" lon="13.54460008447171"><ele>426.0</ele><time>2026-04-19T07:49:33.999Z</time></trkpt><trkpt lat="42.555582241733184" lon="13.544430573870509"><ele>426.0</ele><time>2026-04-19T07:49:34.999Z</time></trkpt><trkpt lat="42.555706326478685" lon="13.544275429637679"><ele>440.5</ele><time>2026-04-19T07:49:35.999Z</time></trkpt><trkpt lat="42.55587502644621" lon="13.544103531354212"><ele>455.0</ele><time>2026-04-19T07:49:36.999Z</time></trkpt><trkpt lat="42.556070115407046" lon="13.543892937839892"><ele>456.5</ele><time>2026-04-19T07:49:37.999Z</time></trkpt><trkpt lat="42.55628678210063" lon="13.54365871658328"><ele>458.0</ele><time>2026-04-19T07:49:38.999Z</time></trkpt><trkpt lat="42.55648912261211" lon="13.54346524045523"><ele>458.0</ele><time>2026-04-19T07:49:39.999Z</time></trkpt><trkpt lat="42.556682583624806" lon="13.543342798141524"><ele>458.0</ele><time>2026-04-19T07:49:40.999Z</time></trkpt><trkpt lat="42.55688213707847" lon="13.5432159574024"><ele>458.0</ele><time>2026-04-19T07:49:41.999Z</time></trkpt><trkpt lat="42.557060435960324" lon="13.543036096977051"><ele>456.0</ele><time>2026-04-19T07:49:42.999Z</time></trkpt><trkpt lat="42.55724569983465" lon="13.54284895208204"><ele>454.0</ele><time>2026-04-19T07:49:43.999Z</time></trkpt><trkpt lat="42.55742999371501" lon="13.542617622487137"><ele>454.0</ele><time>2026-04-19T07:49:44.999Z</time></trkpt><trkpt lat="42.5576182118761" lon="13.542372327079562"><ele>454.0</ele><time>2026-04-19T07:49:45.999Z</time></trkpt><trkpt lat="42.557793894188244" lon="13.542133089840252"><ele>453.6666666666667</ele><time>2026-04-19T07:49:46.999Z</time></trkpt><trkpt lat="42.557983368797366" lon="13.541982170762731"><ele>453.33333333333337</ele><time>2026-04-19T07:49:47.999Z</time></trkpt><trkpt lat="42.55815881170509" lon="13.541820748823342"><ele>453.0</ele><time>2026-04-19T07:49:48.999Z</time></trkpt><trkpt lat="42.55831211340012" lon="13.541678143394677"><ele>453.0</ele><time>2026-04-19T07:49:49.999Z</time></trkpt><trkpt lat="42.55842055474513" lon="13.541549316774788"><ele>453.0</ele><time>2026-04-19T07:49:50.999Z</time></trkpt><trkpt lat="42.558521149301974" lon="13.541427374978745"><ele>453.0</ele><time>2026-04-19T07:49:51.999Z</time></trkpt><trkpt lat="42.55858265975914" lon="13.541246321370485"><ele>453.0</ele><time>2026-04-19T07:49:52.999Z</time></trkpt><trkpt lat="42.55860093524059" lon="13.540982322077546"><ele>458.5</ele><time>2026-04-19T07:49:53.999Z</time></trkpt><trkpt lat="42.55867942646681" lon="13.540681926100422"><ele>464.0</ele><time>2026-04-19T07:49:54.999Z</time></trkpt><trkpt lat="42.55876860519992" lon="13.540358796359863"><ele>464.0</ele><time>2026-04-19T07:49:55.999Z</time></trkpt><trkpt lat="42.558858912261165" lon="13.54009626266678"><ele>464.0</ele><time>2026-04-19T07:49:56.999Z</time></trkpt><trkpt lat="42.55893360693842" lon="13.539914523204931"><ele>464.0</ele><time>2026-04-19T07:49:57.999Z</time></trkpt><trkpt lat="42.5590030571926" lon="13.53979791931237"><ele>464.0</ele><time>2026-04-19T07:49:58.999Z</time></trkpt><trkpt lat="42.559111499783576" lon="13.539767406812848"><ele>464.0</ele><time>2026-04-19T07:49:59.999Z</time></trkpt><trkpt lat="42.55927445407481" lon="13.539710203635007"><ele>464.0</ele><time>2026-04-19T07:50:00.999Z</time></trkpt><trkpt lat="42.55945296945863" lon="13.53968854819248"><ele>458.66666666666663</ele><time>2026-04-19T07:50:01.999Z</time></trkpt><trkpt lat="42.55959925806608" lon="13.539682895018336"><ele>453.33333333333337</ele><time>2026-04-19T07:50:02.999Z</time></trkpt><trkpt lat="42.55973911926958" lon="13.539673192271623"><ele>448.0</ele><time>2026-04-19T07:50:03.999Z</time></trkpt><trkpt lat="42.55989806085143" lon="13.539554286774287"><ele>462.0</ele><time>2026-04-19T07:50:04.999Z</time></trkpt><trkpt lat="42.56005816223598" lon="13.539342718883926"><ele>476.0</ele><time>2026-04-19T07:50:05.999Z</time></trkpt><trkpt lat="42.56023009861349" lon="13.539104614070563"><ele>472.0</ele><time>2026-04-19T07:50:06.999Z</time></trkpt><trkpt lat="42.56040416972776" lon="13.538900692315796"><ele>468.0</ele><time>2026-04-19T07:50:07.999Z</time></trkpt><trkpt lat="42.56055217839089" lon="13.538680926683531"><ele>464.0</ele><time>2026-04-19T07:50:08.999Z</time></trkpt><trkpt lat="42.560684921454865" lon="13.538528003929562"><ele>464.0</ele><time>2026-04-19T07:50:09.999Z</time></trkpt><trkpt lat="42.56080800392864" lon="13.538307584897257"><ele>464.0</ele><time>2026-04-19T07:50:10.999Z</time></trkpt><trkpt lat="42.56086607652288" lon="13.538040253605665"><ele>464.0</ele><time>2026-04-19T07:50:11.999Z</time></trkpt><trkpt lat="42.56090986959361" lon="13.537746882313957"><ele>472.0</ele><time>2026-04-19T07:50:12.999Z</time></trkpt><trkpt lat="42.5609952893345" lon="13.53747434846882"><ele>480.0</ele><time>2026-04-19T07:50:13.999Z</time></trkpt><trkpt lat="42.56115459223955" lon="13.537194844748464"><ele>474.5</ele><time>2026-04-19T07:50:14.999Z</time></trkpt><trkpt lat="42.56132695241224" lon="13.536909283746033"><ele>469.0</ele><time>2026-04-19T07:50:16.001Z</time></trkpt><trkpt lat="42.56146645072027" lon="13.536637189312517"><ele>469.0</ele><time>2026-04-19T07:50:17.001Z</time></trkpt><trkpt lat="42.56156881844974" lon="13.536396984703478"><ele>469.0</ele><time>2026-04-19T07:50:18Z</time></trkpt><trkpt lat="42.5616806186956" lon="13.536198222644728"><ele>469.0</ele><time>2026-04-19T07:50:19Z</time></trkpt><trkpt lat="42.56183701853491" lon="13.536053462263554"><ele>468.33333333333337</ele><time>2026-04-19T07:50:20Z</time></trkpt><trkpt lat="42.56198948413218" lon="13.535946577870643"><ele>467.66666666666663</ele><time>2026-04-19T07:50:21Z</time></trkpt><trkpt lat="42.56211456239783" lon="13.53582730893948"><ele>467.0</ele><time>2026-04-19T07:50:22Z</time></trkpt><trkpt lat="42.562187813252244" lon="13.535644539256047"><ele>469.66666666666663</ele><time>2026-04-19T07:50:23Z</time></trkpt><trkpt lat="42.56220486745492" lon="13.535370214253021"><ele>472.33333333333337</ele><time>2026-04-19T07:50:24Z</time></trkpt><trkpt lat="42.56222609164137" lon="13.535084132071876"><ele>475.0</ele><time>2026-04-19T07:50:25Z</time></trkpt><trkpt lat="42.562266291180265" lon="13.534831570272328"><ele>475.0</ele><time>2026-04-19T07:50:26Z</time></trkpt><trkpt lat="42.56230304539066" lon="13.53456333124047"><ele>475.0</ele><time>2026-04-19T07:50:27Z</time></trkpt><trkpt lat="42.562343455128925" lon="13.534294365636754"><ele>475.0</ele><time>2026-04-19T07:50:28Z</time></trkpt><trkpt lat="42.562385913367045" lon="13.53402385712528"><ele>477.0</ele><time>2026-04-19T07:50:29Z</time></trkpt><trkpt lat="42.56242931047411" lon="13.533751140671145"><ele>479.0</ele><time>2026-04-19T07:50:30Z</time></trkpt><trkpt lat="42.56246890569484" lon="13.53347272598715"><ele>481.0</ele><time>2026-04-19T07:50:31Z</time></trkpt><trkpt lat="42.5625062416406" lon="13.533193857723678"><ele>482.0</ele><time>2026-04-19T07:50:32Z</time></trkpt><trkpt lat="42.56254151154107" lon="13.532921697037194"><ele>483.0</ele><time>2026-04-19T07:50:33Z</time></trkpt><trkpt lat="42.56258177045139" lon="13.532644823702311"><ele>484.0</ele><time>2026-04-19T07:50:34Z</time></trkpt><trkpt lat="42.56262467891743" lon="13.532366369736247"><ele>486.33333333333337</ele><time>2026-04-19T07:50:35Z</time></trkpt><trkpt lat="42.56266796459415" lon="13.53209151430555"><ele>488.66666666666663</ele><time>2026-04-19T07:50:36Z</time></trkpt><trkpt lat="42.562723063931806" lon="13.531820751697717"><ele>491.0</ele><time>2026-04-19T07:50:37Z</time></trkpt><trkpt lat="42.56280460615372" lon="13.531591070599998"><ele>491.0</ele><time>2026-04-19T07:50:38Z</time></trkpt><trkpt lat="42.56287840230957" lon="13.531376027296666"><ele>491.0</ele><time>2026-04-19T07:50:39Z</time></trkpt><trkpt lat="42.56291953145215" lon="13.53115264885193"><ele>491.0</ele><time>2026-04-19T07:50:40Z</time></trkpt><trkpt lat="42.56290852268457" lon="13.530923037777074"><ele>493.3333333333333</ele><time>2026-04-19T07:50:41Z</time></trkpt><trkpt lat="42.56284930672439" lon="13.530717761054207"><ele>495.66666666666663</ele><time>2026-04-19T07:50:42Z</time></trkpt><trkpt lat="42.562748277224486" lon="13.53052866512616"><ele>498.0</ele><time>2026-04-19T07:50:43Z</time></trkpt><trkpt lat="42.5625973828789" lon="13.530361461998247"><ele>498.0</ele><time>2026-04-19T07:50:44Z</time></trkpt><trkpt lat="42.562416581296866" lon="13.530186348386449"><ele>498.0</ele><time>2026-04-19T07:50:45Z</time></trkpt><trkpt lat="42.56222649420916" lon="13.529966544972043"><ele>496.0</ele><time>2026-04-19T07:50:46Z</time></trkpt><trkpt lat="42.56199934245427" lon="13.529754650961335"><ele>494.0</ele><time>2026-04-19T07:50:47Z</time></trkpt><trkpt lat="42.5617417993699" lon="13.529554957955282"><ele>494.0</ele><time>2026-04-19T07:50:48Z</time></trkpt><trkpt lat="42.56144862085672" lon="13.529367791523555"><ele>494.0</ele><time>2026-04-19T07:50:49Z</time></trkpt><trkpt lat="42.561165082905944" lon="13.529209048625912"><ele>501.0</ele><time>2026-04-19T07:50:50Z</time></trkpt><trkpt lat="42.560907215042825" lon="13.529068713490322"><ele>508.0</ele><time>2026-04-19T07:50:51Z</time></trkpt><trkpt lat="42.56067927575803" lon="13.528904229427434"><ele>506.0</ele><time>2026-04-19T07:50:52Z</time></trkpt><trkpt lat="42.56049355556774" lon="13.528699560377623"><ele>504.0</ele><time>2026-04-19T07:50:53Z</time></trkpt><trkpt lat="42.56031289609525" lon="13.528443962227477"><ele>510.5</ele><time>2026-04-19T07:50:54Z</time></trkpt><trkpt lat="42.560166291992985" lon="13.52816718939839"><ele>517.0</ele><time>2026-04-19T07:50:55Z</time></trkpt><trkpt lat="42.56000857578035" lon="13.527910008678194"><ele>519.5</ele><time>2026-04-19T07:50:56Z</time></trkpt><trkpt lat="42.5597984767437" lon="13.52767537246936"><ele>522.0</ele><time>2026-04-19T07:50:57Z</time></trkpt><trkpt lat="42.55953267803539" lon="13.527478201902674"><ele>522.0</ele><time>2026-04-19T07:50:58Z</time></trkpt><trkpt lat="42.5592343683101" lon="13.527282832653189"><ele>522.0</ele><time>2026-04-19T07:50:59Z</time></trkpt><trkpt lat="42.558955948043725" lon="13.527058699904115"><ele>523.5</ele><time>2026-04-19T07:51:00Z</time></trkpt><trkpt lat="42.55875951832993" lon="13.526818604710664"><ele>525.0</ele><time>2026-04-19T07:51:01Z</time></trkpt><trkpt lat="42.55861804237807" lon="13.526593963966267"><ele>525.0</ele><time>2026-04-19T07:51:02Z</time></trkpt><trkpt lat="42.55852216114447" lon="13.526399944556333"><ele>525.0</ele><time>2026-04-19T07:51:03Z</time></trkpt><trkpt lat="42.55843546289803" lon="13.526266024028207"><ele>525.0</ele><time>2026-04-19T07:51:04Z</time></trkpt><trkpt lat="42.558288494258655" lon="13.52619603628113"><ele>525.0</ele><time>2026-04-19T07:51:05Z</time></trkpt><trkpt lat="42.55808987274056" lon="13.526200345771386"><ele>525.0</ele><time>2026-04-19T07:51:06Z</time></trkpt><trkpt lat="42.557903593258196" lon="13.526259854498976"><ele>525.0</ele><time>2026-04-19T07:51:07Z</time></trkpt><trkpt lat="42.55774216077547" lon="13.526274554763383"><ele>522.6666666666666</ele><time>2026-04-19T07:51:08Z</time></trkpt><trkpt lat="42.55758406760827" lon="13.526157798229368"><ele>520.3333333333333</ele><time>2026-04-19T07:51:09Z</time></trkpt><trkpt lat="42.55740431222138" lon="13.525962788476228"><ele>518.0</ele><time>2026-04-19T07:51:10Z</time></trkpt><trkpt lat="42.5571943521528" lon="13.52573035515772"><ele>520.5</ele><time>2026-04-19T07:51:11Z</time></trkpt><trkpt lat="42.55696798151105" lon="13.525478276534528"><ele>523.0</ele><time>2026-04-19T07:51:12Z</time></trkpt><trkpt lat="42.556753173638356" lon="13.525242226007915"><ele>523.0</ele><time>2026-04-19T07:51:13Z</time></trkpt><trkpt lat="42.55657647155559" lon="13.525045053278356"><ele>523.0</ele><time>2026-04-19T07:51:14Z</time></trkpt><trkpt lat="42.55644630288153" lon="13.524883681713558"><ele>523.0</ele><time>2026-04-19T07:51:15Z</time></trkpt><trkpt lat="42.55634471930946" lon="13.524688052863564"><ele>523.0</ele><time>2026-04-19T07:51:16Z</time></trkpt><trkpt lat="42.556261379600116" lon="13.524459776211142"><ele>523.0</ele><time>2026-04-19T07:51:17Z</time></trkpt><trkpt lat="42.5562111896054" lon="13.52422614981011"><ele>523.0</ele><time>2026-04-19T07:51:18Z</time></trkpt><trkpt lat="42.556204114696925" lon="13.523993815981433"><ele>524.25</ele><time>2026-04-19T07:51:19Z</time></trkpt><trkpt lat="42.55618174968652" lon="13.523802419659724"><ele>525.5</ele><time>2026-04-19T07:51:20Z</time></trkpt><trkpt lat="42.556155222231986" lon="13.523652453149504"><ele>526.75</ele><time>2026-04-19T07:51:21Z</time></trkpt><trkpt lat="42.55605310764547" lon="13.523540300911307"><ele>528.0</ele><time>2026-04-19T07:51:22Z</time></trkpt><trkpt lat="42.55589247341847" lon="13.5234459566426"><ele>528.0</ele><time>2026-04-19T07:51:23Z</time></trkpt><trkpt lat="42.555673735958415" lon="13.523352215143422"><ele>528.0</ele><time>2026-04-19T07:51:24Z</time></trkpt><trkpt lat="42.55548397473478" lon="13.52326059724345"><ele>528.0</ele><time>2026-04-19T07:51:25Z</time></trkpt><trkpt lat="42.55533234384841" lon="13.52318964772395"><ele>528.5</ele><time>2026-04-19T07:51:26Z</time></trkpt><trkpt lat="42.55518279786038" lon="13.523169063166444"><ele>529.0</ele><time>2026-04-19T07:51:27Z</time></trkpt><trkpt lat="42.55503145424235" lon="13.5232173869938"><ele>529.5</ele><time>2026-04-19T07:51:28Z</time></trkpt><trkpt lat="42.55489699703159" lon="13.523281471586198"><ele>530.0</ele><time>2026-04-19T07:51:29Z</time></trkpt><trkpt lat="42.55477810392363" lon="13.52331494629343"><ele>530.0</ele><time>2026-04-19T07:51:30Z</time></trkpt><trkpt lat="42.55466188233872" lon="13.523332477745539"><ele>530.0</ele><time>2026-04-19T07:51:31Z</time></trkpt><trkpt lat="42.554548600504596" lon="13.523357144927841"><ele>530.0</ele><time>2026-04-19T07:51:32Z</time></trkpt><trkpt lat="42.554431178620604" lon="13.523385856927149"><ele>530.0</ele><time>2026-04-19T07:51:32.999Z</time></trkpt><trkpt lat="42.554318200610474" lon="13.523407347761545"><ele>530.75</ele><time>2026-04-19T07:51:33.999Z</time></trkpt><trkpt lat="42.554206304410414" lon="13.523417898864858"><ele>531.5</ele><time>2026-04-19T07:51:34.999Z</time></trkpt><trkpt lat="42.5540939823222" lon="13.523424910664614"><ele>532.25</ele><time>2026-04-19T07:51:35.999Z</time></trkpt><trkpt lat="42.55397924933468" lon="13.523422486340836"><ele>533.0</ele><time>2026-04-19T07:51:36.999Z</time></trkpt><trkpt lat="42.55386580889021" lon="13.52339983475634"><ele>533.0</ele><time>2026-04-19T07:51:37.999Z</time></trkpt><trkpt lat="42.55375471954505" lon="13.523345153356379"><ele>533.0</ele><time>2026-04-19T07:51:38.999Z</time></trkpt><trkpt lat="42.553645270501924" lon="13.523282503948751"><ele>533.0</ele><time>2026-04-19T07:51:39.999Z</time></trkpt><trkpt lat="42.55353254210357" lon="13.523210820692242"><ele>533.0</ele><time>2026-04-19T07:51:40.999Z</time></trkpt><trkpt lat="42.55341105335255" lon="13.523150977687001"><ele>535.5</ele><time>2026-04-19T07:51:41.999Z</time></trkpt><trkpt lat="42.55328111339165" lon="13.523098421307658"><ele>538.0</ele><time>2026-04-19T07:51:42.999Z</time></trkpt><trkpt lat="42.55314748355604" lon="13.523048874727497"><ele>540.5</ele><time>2026-04-19T07:51:43.999Z</time></trkpt><trkpt lat="42.55301949347841" lon="13.522988489018651"><ele>543.0</ele><time>2026-04-19T07:51:44.999Z</time></trkpt><trkpt lat="42.55291197385943" lon="13.522902328592231"><ele>547.75</ele><time>2026-04-19T07:51:45.999Z</time></trkpt><trkpt lat="42.55282506892856" lon="13.522780500001533"><ele>552.5</ele><time>2026-04-19T07:51:46.999Z</time></trkpt><trkpt lat="42.552779675237375" lon="13.522622667848427"><ele>557.25</ele><time>2026-04-19T07:51:47.999Z</time></trkpt><trkpt lat="42.55277489611085" lon="13.522448170449296"><ele>562.0</ele><time>2026-04-19T07:51:48.999Z</time></trkpt><trkpt lat="42.5527871401323" lon="13.522256742015621"><ele>560.0</ele><time>2026-04-19T07:51:49.999Z</time></trkpt><trkpt lat="42.55280949230317" lon="13.522041226356423"><ele>558.0</ele><time>2026-04-19T07:51:50.999Z</time></trkpt><trkpt lat="42.552831718548525" lon="13.521825712600487"><ele>556.0</ele><time>2026-04-19T07:51:51.999Z</time></trkpt><trkpt lat="42.55285983173144" lon="13.52162653880838"><ele>552.2</ele><time>2026-04-19T07:51:52.999Z</time></trkpt><trkpt lat="42.552884919479446" lon="13.521471183428098"><ele>548.4000000000001</ele><time>2026-04-19T07:51:53.999Z</time></trkpt><trkpt lat="42.55289533981793" lon="13.521353577621722"><ele>544.6</ele><time>2026-04-19T07:51:54.999Z</time></trkpt><trkpt lat="42.5528888872191" lon="13.521253806538155"><ele>540.8000000000001</ele><time>2026-04-19T07:51:55.999Z</time></trkpt><trkpt lat="42.552870792928516" lon="13.521153991281576"><ele>537.0</ele><time>2026-04-19T07:51:56.999Z</time></trkpt><trkpt lat="42.552770550752456" lon="13.521078574478745"><ele>537.0</ele><time>2026-04-19T07:51:57.999Z</time></trkpt><trkpt lat="42.552644807677964" lon="13.521016935136103"><ele>537.0</ele><time>2026-04-19T07:51:58.999Z</time></trkpt><trkpt lat="42.55247713227421" lon="13.520998647701896"><ele>537.0</ele><time>2026-04-19T07:51:59.999Z</time></trkpt><trkpt lat="42.552277725353385" lon="13.521025098907979"><ele>537.0</ele><time>2026-04-19T07:52:00.999Z</time></trkpt><trkpt lat="42.55205066180668" lon="13.521084616752342"><ele>537.0</ele><time>2026-04-19T07:52:01.999Z</time></trkpt><trkpt lat="42.551834058330094" lon="13.521136568613233"><ele>535.0</ele><time>2026-04-19T07:52:02.999Z</time></trkpt><trkpt lat="42.55166659956985" lon="13.521183845570231"><ele>533.0</ele><time>2026-04-19T07:52:03.999Z</time></trkpt><trkpt lat="42.55153250424877" lon="13.52125829796435"><ele>531.0</ele><time>2026-04-19T07:52:04.999Z</time></trkpt><trkpt lat="42.55142670757553" lon="13.521371731985374"><ele>530.6666666666666</ele><time>2026-04-19T07:52:05.999Z</time></trkpt><trkpt lat="42.551345169210215" lon="13.521553918756497"><ele>530.3333333333333</ele><time>2026-04-19T07:52:06.999Z</time></trkpt><trkpt lat="42.55126562630063" lon="13.521785016944946"><ele>530.0</ele><time>2026-04-19T07:52:07.999Z</time></trkpt><trkpt lat="42.551174587440315" lon="13.522043319679113"><ele>537.3333333333333</ele><time>2026-04-19T07:52:08.999Z</time></trkpt><trkpt lat="42.55102194813109" lon="13.522247849936234"><ele>544.6666666666666</ele><time>2026-04-19T07:52:09.999Z</time></trkpt><trkpt lat="42.55090669292265" lon="13.52246930986893"><ele>552.0</ele><time>2026-04-19T07:52:10.999Z</time></trkpt><trkpt lat="42.55080247075068" lon="13.522639033771759"><ele>552.0</ele><time>2026-04-19T07:52:11.999Z</time></trkpt><trkpt lat="42.550638320296954" lon="13.522723629975829"><ele>552.0</ele><time>2026-04-19T07:52:12.999Z</time></trkpt><trkpt lat="42.55047754199326" lon="13.522920326760971"><ele>552.0</ele><time>2026-04-19T07:52:13.999Z</time></trkpt><trkpt lat="42.55027219553074" lon="13.523117338906577"><ele>554.0</ele><time>2026-04-19T07:52:14.999Z</time></trkpt><trkpt lat="42.55007020748579" lon="13.523249877741353"><ele>556.0</ele><time>2026-04-19T07:52:15.999Z</time></trkpt><trkpt lat="42.54991224442634" lon="13.523331100060041"><ele>558.0</ele><time>2026-04-19T07:52:16.999Z</time></trkpt><trkpt lat="42.54974276477189" lon="13.523349042084536"><ele>557.0</ele><time>2026-04-19T07:52:17.999Z</time></trkpt><trkpt lat="42.54953131527353" lon="13.523368079238498"><ele>556.0</ele><time>2026-04-19T07:52:18.999Z</time></trkpt><trkpt lat="42.54932971607676" lon="13.523391204330045"><ele>555.0</ele><time>2026-04-19T07:52:19.999Z</time></trkpt><trkpt lat="42.54915857641399" lon="13.523421124848424"><ele>555.0</ele><time>2026-04-19T07:52:21Z</time></trkpt><trkpt lat="42.54901167196548" lon="13.523510301585409"><ele>555.0</ele><time>2026-04-19T07:52:22Z</time></trkpt><trkpt lat="42.54889214249134" lon="13.523619913059466"><ele>555.0</ele><time>2026-04-19T07:52:23Z</time></trkpt><trkpt lat="42.5487872387091" lon="13.52373275134303"><ele>555.0</ele><time>2026-04-19T07:52:24Z</time></trkpt><trkpt lat="42.548660787928746" lon="13.52374024852839"><ele>554.25</ele><time>2026-04-19T07:52:25Z</time></trkpt><trkpt lat="42.54852456636495" lon="13.523668344205436"><ele>553.5</ele><time>2026-04-19T07:52:26Z</time></trkpt><trkpt lat="42.54838116858689" lon="13.52355950648637"><ele>552.75</ele><time>2026-04-19T07:52:27Z</time></trkpt><trkpt lat="42.54830731956072" lon="13.523448627886319"><ele>552.0</ele><time>2026-04-19T07:52:28Z</time></trkpt><trkpt lat="42.54815862374683" lon="13.523447127465374"><ele>552.0</ele><time>2026-04-19T07:52:29Z</time></trkpt><trkpt lat="42.54796016567443" lon="13.523482863149738"><ele>552.0</ele><time>2026-04-19T07:52:30Z</time></trkpt><trkpt lat="42.54773112259196" lon="13.523588307248374"><ele>552.0</ele><time>2026-04-19T07:52:31Z</time></trkpt><trkpt lat="42.547533062652086" lon="13.523648153615527"><ele>556.3333333333334</ele><time>2026-04-19T07:52:32Z</time></trkpt><trkpt lat="42.54734641632528" lon="13.523645104463634"><ele>560.6666666666667</ele><time>2026-04-19T07:52:33Z</time></trkpt><trkpt lat="42.547159940013586" lon="13.523564515710714"><ele>565.0</ele><time>2026-04-19T07:52:34Z</time></trkpt><trkpt lat="42.54697372471504" lon="13.523434381643277"><ele>570.6666666666667</ele><time>2026-04-19T07:52:35Z</time></trkpt><trkpt lat="42.546782972365214" lon="13.523293880647474"><ele>576.3333333333334</ele><time>2026-04-19T07:52:36Z</time></trkpt><trkpt lat="42.546612584594854" lon="13.523188943149554"><ele>582.0</ele><time>2026-04-19T07:52:37Z</time></trkpt><trkpt lat="42.54645704332938" lon="13.5231102606283"><ele>582.0</ele><time>2026-04-19T07:52:38Z</time></trkpt><trkpt lat="42.5463328569326" lon="13.523058290419364"><ele>582.0</ele><time>2026-04-19T07:52:39Z</time></trkpt><trkpt lat="42.54622245526217" lon="13.522997496616215"><ele>582.0</ele><time>2026-04-19T07:52:40Z</time></trkpt><trkpt lat="42.54614817604471" lon="13.522857036261065"><ele>582.0</ele><time>2026-04-19T07:52:41Z</time></trkpt><trkpt lat="42.54610366876404" lon="13.522665288612307"><ele>577.3333333333334</ele><time>2026-04-19T07:52:42Z</time></trkpt><trkpt lat="42.546109441041935" lon="13.522460948422733"><ele>572.6666666666667</ele><time>2026-04-19T07:52:43Z</time></trkpt><trkpt lat="42.546166221830624" lon="13.522234693186363"><ele>568.0</ele><time>2026-04-19T07:52:44Z</time></trkpt><trkpt lat="42.5462752633951" lon="13.521932071160967"><ele>568.0</ele><time>2026-04-19T07:52:45Z</time></trkpt><trkpt lat="42.54639287503491" lon="13.521588576077116"><ele>568.0</ele><time>2026-04-19T07:52:46Z</time></trkpt><trkpt lat="42.546486269434546" lon="13.521262146272951"><ele>572.3333333333334</ele><time>2026-04-19T07:52:47Z</time></trkpt><trkpt lat="42.5465792872365" lon="13.520982482878916"><ele>576.6666666666666</ele><time>2026-04-19T07:52:48Z</time></trkpt><trkpt lat="42.54665118395565" lon="13.520732604677514"><ele>581.0</ele><time>2026-04-19T07:52:49Z</time></trkpt><trkpt lat="42.546696646226245" lon="13.520464864046533"><ele>581.3333333333333</ele><time>2026-04-19T07:52:50Z</time></trkpt><trkpt lat="42.546685121114464" lon="13.520232467805666"><ele>581.6666666666666</ele><time>2026-04-19T07:52:51Z</time></trkpt><trkpt lat="42.54660657692675" lon="13.519994775945301"><ele>582.0</ele><time>2026-04-19T07:52:52Z</time></trkpt><trkpt lat="42.54654298739887" lon="13.519859288733498"><ele>582.0</ele><time>2026-04-19T07:52:54Z</time></trkpt><trkpt lat="42.54648625475451" lon="13.519708142669069"><ele>582.0</ele><time>2026-04-19T07:52:55Z</time></trkpt><trkpt lat="42.5465526967095" lon="13.51951775399806"><ele>582.0</ele><time>2026-04-19T07:52:56Z</time></trkpt><trkpt lat="42.54660370289052" lon="13.519227634075836"><ele>582.6666666666666</ele><time>2026-04-19T07:52:57Z</time></trkpt><trkpt lat="42.54665012150425" lon="13.51889935717251"><ele>583.3333333333333</ele><time>2026-04-19T07:52:58Z</time></trkpt><trkpt lat="42.54670197241232" lon="13.518633507711865"><ele>584.0</ele><time>2026-04-19T07:52:59Z</time></trkpt><trkpt lat="42.54677831400426" lon="13.518423967146433"><ele>588.6666666666666</ele><time>2026-04-19T07:53:00Z</time></trkpt><trkpt lat="42.54686659443718" lon="13.51823014763549"><ele>593.3333333333334</ele><time>2026-04-19T07:53:01Z</time></trkpt><trkpt lat="42.54693607745526" lon="13.518048377499204"><ele>598.0</ele><time>2026-04-19T07:53:02Z</time></trkpt><trkpt lat="42.54697856013381" lon="13.517858145338757"><ele>598.0</ele><time>2026-04-19T07:53:03Z</time></trkpt><trkpt lat="42.54700987276122" lon="13.517671088674737"><ele>598.0</ele><time>2026-04-19T07:53:04Z</time></trkpt><trkpt lat="42.54700635540571" lon="13.517483046535695"><ele>598.0</ele><time>2026-04-19T07:53:05Z</time></trkpt><trkpt lat="42.54697141145418" lon="13.51730942083587"><ele>598.0</ele><time>2026-04-19T07:53:06Z</time></trkpt><trkpt lat="42.546867194145804" lon="13.517193258706262"><ele>598.0</ele><time>2026-04-19T07:53:07Z</time></trkpt><trkpt lat="42.54671118989219" lon="13.517116790106193"><ele>598.0</ele><time>2026-04-19T07:53:08Z</time></trkpt><trkpt lat="42.54650623321956" lon="13.517054380894571"><ele>598.0</ele><time>2026-04-19T07:53:09Z</time></trkpt><trkpt lat="42.5462860343158" lon="13.51696052966615"><ele>594.0</ele><time>2026-04-19T07:53:10Z</time></trkpt><trkpt lat="42.54605827569905" lon="13.516844043776503"><ele>590.0</ele><time>2026-04-19T07:53:11Z</time></trkpt><trkpt lat="42.545843854331714" lon="13.516783814245853"><ele>590.0</ele><time>2026-04-19T07:53:12Z</time></trkpt><trkpt lat="42.545663210184955" lon="13.51674915520018"><ele>590.0</ele><time>2026-04-19T07:53:13Z</time></trkpt><trkpt lat="42.545526191353275" lon="13.516673654917739"><ele>590.0</ele><time>2026-04-19T07:53:14Z</time></trkpt><trkpt lat="42.54544373456126" lon="13.516531803058363"><ele>590.0</ele><time>2026-04-19T07:53:15Z</time></trkpt><trkpt lat="42.54538491416944" lon="13.516292848769773"><ele>590.0</ele><time>2026-04-19T07:53:16Z</time></trkpt><trkpt lat="42.545250871262425" lon="13.516077883361108"><ele>590.0</ele><time>2026-04-19T07:53:17Z</time></trkpt><trkpt lat="42.54512770980602" lon="13.515909572127095"><ele>597.25</ele><time>2026-04-19T07:53:18Z</time></trkpt><trkpt lat="42.54506810543986" lon="13.515746645831689"><ele>604.5</ele><time>2026-04-19T07:53:19Z</time></trkpt><trkpt lat="42.545041945479504" lon="13.515596433520965"><ele>611.75</ele><time>2026-04-19T07:53:20Z</time></trkpt><trkpt lat="42.5450864913134" lon="13.51543790253105"><ele>619.0</ele><time>2026-04-19T07:53:21Z</time></trkpt><trkpt lat="42.545134210361475" lon="13.515145714549856"><ele>619.0</ele><time>2026-04-19T07:53:22Z</time></trkpt><trkpt lat="42.54519085315671" lon="13.514826875909023"><ele>619.0</ele><time>2026-04-19T07:53:23Z</time></trkpt><trkpt lat="42.545258478681696" lon="13.514541129985163"><ele>621.3333333333334</ele><time>2026-04-19T07:53:24Z</time></trkpt><trkpt lat="42.5453141879009" lon="13.514254970964426"><ele>623.6666666666666</ele><time>2026-04-19T07:53:25Z</time></trkpt><trkpt lat="42.54533302373254" lon="13.513995461635"><ele>626.0</ele><time>2026-04-19T07:53:26Z</time></trkpt><trkpt lat="42.545332074003156" lon="13.513726283406378"><ele>626.6666666666666</ele><time>2026-04-19T07:53:27Z</time></trkpt><trkpt lat="42.545287037553045" lon="13.513469482757932"><ele>627.3333333333334</ele><time>2026-04-19T07:53:28Z</time></trkpt><trkpt lat="42.54523812870174" lon="13.51320764677687"><ele>628.0</ele><time>2026-04-19T07:53:28.999Z</time></trkpt><trkpt lat="42.54517423283477" lon="13.512971644633462"><ele>625.5</ele><time>2026-04-19T07:53:29.999Z</time></trkpt><trkpt lat="42.54510514654655" lon="13.512768410012324"><ele>623.0</ele><time>2026-04-19T07:53:30.999Z</time></trkpt><trkpt lat="42.54503050311739" lon="13.512616261047718"><ele>620.5</ele><time>2026-04-19T07:53:31.999Z</time></trkpt><trkpt lat="42.545009521087394" lon="13.51245615198182"><ele>618.0</ele><time>2026-04-19T07:53:32.999Z</time></trkpt><trkpt lat="42.545099523880104" lon="13.512286435510683"><ele>624.5</ele><time>2026-04-19T07:53:33.999Z</time></trkpt><trkpt lat="42.54518487657079" lon="13.512020992206054"><ele>631.0</ele><time>2026-04-19T07:53:34.999Z</time></trkpt><trkpt lat="42.54529565246814" lon="13.511704948784239"><ele>625.0</ele><time>2026-04-19T07:53:35.999Z</time></trkpt><trkpt lat="42.54541904014423" lon="13.511381481420164"><ele>619.0</ele><time>2026-04-19T07:53:36.999Z</time></trkpt><trkpt lat="42.54553313743549" lon="13.511112459371452"><ele>619.0</ele><time>2026-04-19T07:53:37.999Z</time></trkpt><trkpt lat="42.545627401095395" lon="13.510937262125502"><ele>619.0</ele><time>2026-04-19T07:53:38.999Z</time></trkpt><trkpt lat="42.545752629440244" lon="13.510814078530217"><ele>619.0</ele><time>2026-04-19T07:53:39.999Z</time></trkpt><trkpt lat="42.54592591222954" lon="13.510674538502116"><ele>619.0</ele><time>2026-04-19T07:53:40.999Z</time></trkpt><trkpt lat="42.54613033570961" lon="13.510515822798165"><ele>619.0</ele><time>2026-04-19T07:53:41.999Z</time></trkpt><trkpt lat="42.54633323493801" lon="13.510366949632875"><ele>618.6666666666667</ele><time>2026-04-19T07:53:42.999Z</time></trkpt><trkpt lat="42.546509857204306" lon="13.510246572246471"><ele>618.3333333333334</ele><time>2026-04-19T07:53:43.999Z</time></trkpt><trkpt lat="42.54665769740143" lon="13.510132006337265"><ele>618.0</ele><time>2026-04-19T07:53:44.999Z</time></trkpt><trkpt lat="42.546772740955646" lon="13.509989297036448"><ele>618.0</ele><time>2026-04-19T07:53:45.999Z</time></trkpt><trkpt lat="42.546856377138376" lon="13.509763888524192"><ele>618.0</ele><time>2026-04-19T07:53:46.999Z</time></trkpt><trkpt lat="42.546919613632554" lon="13.509470693452235"><ele>618.0</ele><time>2026-04-19T07:53:47.999Z</time></trkpt><trkpt lat="42.54698129322078" lon="13.509128222454985"><ele>629.0</ele><time>2026-04-19T07:53:48.999Z</time></trkpt><trkpt lat="42.547018663909576" lon="13.508727751801345"><ele>640.0</ele><time>2026-04-19T07:53:49.999Z</time></trkpt><trkpt lat="42.54700511857101" lon="13.508292013505763"><ele>643.0</ele><time>2026-04-19T07:53:50.999Z</time></trkpt><trkpt lat="42.5469905044877" lon="13.50783498706508"><ele>646.0</ele><time>2026-04-19T07:53:51.999Z</time></trkpt><trkpt lat="42.54697584472184" lon="13.50734201401905"><ele>640.5</ele><time>2026-04-19T07:53:52.999Z</time></trkpt><trkpt lat="42.54694253949326" lon="13.506820092203471"><ele>635.0</ele><time>2026-04-19T07:53:53.999Z</time></trkpt><trkpt lat="42.546887191925066" lon="13.506306716224955"><ele>633.0</ele><time>2026-04-19T07:53:54.999Z</time></trkpt><trkpt lat="42.54683335901917" lon="13.505841241629744"><ele>631.0</ele><time>2026-04-19T07:53:55.999Z</time></trkpt><trkpt lat="42.54679298206165" lon="13.505425649856846"><ele>633.0</ele><time>2026-04-19T07:53:56.999Z</time></trkpt><trkpt lat="42.54674737371099" lon="13.505033644082676"><ele>635.0</ele><time>2026-04-19T07:53:57.999Z</time></trkpt><trkpt lat="42.54669451616517" lon="13.50466983718421"><ele>631.5</ele><time>2026-04-19T07:53:58.999Z</time></trkpt><trkpt lat="42.54663195959706" lon="13.504337627189024"><ele>628.0</ele><time>2026-04-19T07:53:59.999Z</time></trkpt><trkpt lat="42.546567255706286" lon="13.504039260266296"><ele>628.0</ele><time>2026-04-19T07:54:00.999Z</time></trkpt><trkpt lat="42.54650314298849" lon="13.503777376915226"><ele>628.0</ele><time>2026-04-19T07:54:01.999Z</time></trkpt><trkpt lat="42.54644527482401" lon="13.503536274622189"><ele>628.0</ele><time>2026-04-19T07:54:02.999Z</time></trkpt><trkpt lat="42.54637939177895" lon="13.503338945830906"><ele>625.5</ele><time>2026-04-19T07:54:03.999Z</time></trkpt><trkpt lat="42.54631640707746" lon="13.50314703778247"><ele>623.0</ele><time>2026-04-19T07:54:04.999Z</time></trkpt><trkpt lat="42.546252010357584" lon="13.502966257040313"><ele>620.5</ele><time>2026-04-19T07:54:05.999Z</time></trkpt><trkpt lat="42.54617898575886" lon="13.502796023766242"><ele>618.0</ele><time>2026-04-19T07:54:06.999Z</time></trkpt><trkpt lat="42.54608886398911" lon="13.502644738166522"><ele>623.75</ele><time>2026-04-19T07:54:07.999Z</time></trkpt><trkpt lat="42.54599950522559" lon="13.502505573538933"><ele>629.5</ele><time>2026-04-19T07:54:08.999Z</time></trkpt><trkpt lat="42.545910966285966" lon="13.502368166299123"><ele>635.25</ele><time>2026-04-19T07:54:09.999Z</time></trkpt><trkpt lat="42.54582305644306" lon="13.50224084351475"><ele>641.0</ele><time>2026-04-19T07:54:10.999Z</time></trkpt><trkpt lat="42.54572535329409" lon="13.502134721025772"><ele>644.25</ele><time>2026-04-19T07:54:11.999Z</time></trkpt><trkpt lat="42.54562710293373" lon="13.502029715263967"><ele>647.5</ele><time>2026-04-19T07:54:12.999Z</time></trkpt><trkpt lat="42.54553164939557" lon="13.501925658229194"><ele>650.75</ele><time>2026-04-19T07:54:13.999Z</time></trkpt><trkpt lat="42.545440225258915" lon="13.501821101645307"><ele>654.0</ele><time>2026-04-19T07:54:14.999Z</time></trkpt><trkpt lat="42.545357894319594" lon="13.501719474470304"><ele>654.0</ele><time>2026-04-19T07:54:15.999Z</time></trkpt><trkpt lat="42.5452770932329" lon="13.50159381681858"><ele>654.0</ele><time>2026-04-19T07:54:16.999Z</time></trkpt><trkpt lat="42.54521521305868" lon="13.50143398276219"><ele>654.0</ele><time>2026-04-19T07:54:17.999Z</time></trkpt><trkpt lat="42.54514431680172" lon="13.501286198069067"><ele>654.0</ele><time>2026-04-19T07:54:18.999Z</time></trkpt><trkpt lat="42.545065055034705" lon="13.501133524914724"><ele>649.0</ele><time>2026-04-19T07:54:19.999Z</time></trkpt><trkpt lat="42.54498346619844" lon="13.500966461360433"><ele>644.0</ele><time>2026-04-19T07:54:20.999Z</time></trkpt><trkpt lat="42.54489053047262" lon="13.500792082820382"><ele>639.0</ele><time>2026-04-19T07:54:21.999Z</time></trkpt><trkpt lat="42.54479212082604" lon="13.500616803754752"><ele>639.0</ele><time>2026-04-19T07:54:22.999Z</time></trkpt><trkpt lat="42.54468278229293" lon="13.500440859376539"><ele>639.0</ele><time>2026-04-19T07:54:23.999Z</time></trkpt><trkpt lat="42.54457998038316" lon="13.500247313161513"><ele>639.0</ele><time>2026-04-19T07:54:24.999Z</time></trkpt><trkpt lat="42.54451722489696" lon="13.500030989008929"><ele>646.0</ele><time>2026-04-19T07:54:25.999Z</time></trkpt><trkpt lat="42.5444857900382" lon="13.499781974022921"><ele>653.0</ele><time>2026-04-19T07:54:27Z</time></trkpt><trkpt lat="42.54445203648" lon="13.499536569426239"><ele>660.0</ele><time>2026-04-19T07:54:28Z</time></trkpt><trkpt lat="42.54441288001661" lon="13.499301221713672"><ele>660.0</ele><time>2026-04-19T07:54:29Z</time></trkpt><trkpt lat="42.54437501673185" lon="13.499075547234627"><ele>660.0</ele><time>2026-04-19T07:54:30Z</time></trkpt><trkpt lat="42.544341345950826" lon="13.498853308954764"><ele>660.0</ele><time>2026-04-19T07:54:31Z</time></trkpt><trkpt lat="42.544320580883024" lon="13.498642162759834"><ele>660.6666666666666</ele><time>2026-04-19T07:54:32Z</time></trkpt><trkpt lat="42.54433344766675" lon="13.498427596120997"><ele>661.3333333333333</ele><time>2026-04-19T07:54:33Z</time></trkpt><trkpt lat="42.54437379924655" lon="13.498207051169922"><ele>662.0</ele><time>2026-04-19T07:54:34Z</time></trkpt><trkpt lat="42.54444520212643" lon="13.497982229164382"><ele>659.6666666666666</ele><time>2026-04-19T07:54:35Z</time></trkpt><trkpt lat="42.5445380583729" lon="13.497761636901041"><ele>657.3333333333334</ele><time>2026-04-19T07:54:36Z</time></trkpt><trkpt lat="42.544669745700055" lon="13.497564752562345"><ele>655.0</ele><time>2026-04-19T07:54:37Z</time></trkpt><trkpt lat="42.54483717093091" lon="13.49740079873383"><ele>655.0</ele><time>2026-04-19T07:54:38Z</time></trkpt><trkpt lat="42.545010231975276" lon="13.497293670416955"><ele>655.0</ele><time>2026-04-19T07:54:39Z</time></trkpt><trkpt lat="42.545199032341195" lon="13.497236086214798"><ele>655.0</ele><time>2026-04-19T07:54:40Z</time></trkpt><trkpt lat="42.545400182844695" lon="13.49717089383751"><ele>659.0</ele><time>2026-04-19T07:54:41Z</time></trkpt><trkpt lat="42.54559765591845" lon="13.497076862565622"><ele>663.0</ele><time>2026-04-19T07:54:42Z</time></trkpt><trkpt lat="42.54578573086027" lon="13.496978869043279"><ele>667.0</ele><time>2026-04-19T07:54:43Z</time></trkpt><trkpt lat="42.545952318115106" lon="13.496892626793384"><ele>667.0</ele><time>2026-04-19T07:54:44Z</time></trkpt><trkpt lat="42.546097455978355" lon="13.496776909751352"><ele>667.0</ele><time>2026-04-19T07:54:45Z</time></trkpt><trkpt lat="42.546216051421005" lon="13.496593705738434"><ele>667.0</ele><time>2026-04-19T07:54:46Z</time></trkpt><trkpt lat="42.54630444573082" lon="13.49634378711073"><ele>661.0</ele><time>2026-04-19T07:54:47Z</time></trkpt><trkpt lat="42.54634772532678" lon="13.496068555028417"><ele>655.0</ele><time>2026-04-19T07:54:48Z</time></trkpt><trkpt lat="42.54634320505479" lon="13.495758255686907"><ele>649.0</ele><time>2026-04-19T07:54:49Z</time></trkpt><trkpt lat="42.546348120320445" lon="13.495440782149064"><ele>652.3333333333334</ele><time>2026-04-19T07:54:50Z</time></trkpt><trkpt lat="42.54639437108479" lon="13.49512850384318"><ele>655.6666666666666</ele><time>2026-04-19T07:54:51Z</time></trkpt><trkpt lat="42.54645245256583" lon="13.49487130064931"><ele>659.0</ele><time>2026-04-19T07:54:52Z</time></trkpt><trkpt lat="42.54651942989285" lon="13.494654463982148"><ele>665.6666666666666</ele><time>2026-04-19T07:54:53Z</time></trkpt><trkpt lat="42.546627297728534" lon="13.494485698372765"><ele>672.3333333333334</ele><time>2026-04-19T07:54:54Z</time></trkpt><trkpt lat="42.546799919422" lon="13.49435476416118"><ele>679.0</ele><time>2026-04-19T07:54:55Z</time></trkpt><trkpt lat="42.54702812523288" lon="13.494221116441954"><ele>673.6666666666667</ele><time>2026-04-19T07:54:56Z</time></trkpt><trkpt lat="42.54723820770569" lon="13.494087824295265"><ele>668.3333333333334</ele><time>2026-04-19T07:54:57Z</time></trkpt><trkpt lat="42.54741013792202" lon="13.493961323355514"><ele>663.0</ele><time>2026-04-19T07:54:58Z</time></trkpt><trkpt lat="42.54756279390279" lon="13.493802060463455"><ele>663.6666666666666</ele><time>2026-04-19T07:54:59Z</time></trkpt><trkpt lat="42.54769861798552" lon="13.493605525282614"><ele>664.3333333333333</ele><time>2026-04-19T07:55:00Z</time></trkpt><trkpt lat="42.547836388142144" lon="13.493405865631516"><ele>665.0</ele><time>2026-04-19T07:55:01Z</time></trkpt><trkpt lat="42.547987443498904" lon="13.49322105839802"><ele>665.0</ele><time>2026-04-19T07:55:02Z</time></trkpt><trkpt lat="42.54814086459202" lon="13.493046028681585"><ele>665.0</ele><time>2026-04-19T07:55:03Z</time></trkpt><trkpt lat="42.54830274074208" lon="13.492859705808135"><ele>665.0</ele><time>2026-04-19T07:55:04Z</time></trkpt><trkpt lat="42.54845224567872" lon="13.492647199152863"><ele>663.3333333333333</ele><time>2026-04-19T07:55:05Z</time></trkpt><trkpt lat="42.54859337150783" lon="13.492430215097388"><ele>661.6666666666666</ele><time>2026-04-19T07:55:06Z</time></trkpt><trkpt lat="42.54872508912166" lon="13.492242334082755"><ele>660.0</ele><time>2026-04-19T07:55:07Z</time></trkpt><trkpt lat="42.54886320563348" lon="13.49208713067596"><ele>667.3333333333334</ele><time>2026-04-19T07:55:08Z</time></trkpt><trkpt lat="42.54899603226886" lon="13.491949659599683"><ele>674.6666666666667</ele><time>2026-04-19T07:55:09Z</time></trkpt><trkpt lat="42.54910375680747" lon="13.49179305327507"><ele>682.0</ele><time>2026-04-19T07:55:10Z</time></trkpt><trkpt lat="42.5491962202633" lon="13.491587039612503"><ele>682.0</ele><time>2026-04-19T07:55:11Z</time></trkpt><trkpt lat="42.54927451622747" lon="13.491348484471178"><ele>682.0</ele><time>2026-04-19T07:55:12Z</time></trkpt><trkpt lat="42.54931568073846" lon="13.49108260837091"><ele>682.0</ele><time>2026-04-19T07:55:13Z</time></trkpt><trkpt lat="42.54932609902054" lon="13.490787242520785"><ele>687.0</ele><time>2026-04-19T07:55:14Z</time></trkpt><trkpt lat="42.54932755081702" lon="13.490492497497826"><ele>692.0</ele><time>2026-04-19T07:55:15Z</time></trkpt><trkpt lat="42.549334106017" lon="13.49023665817762"><ele>697.0</ele><time>2026-04-19T07:55:16Z</time></trkpt><trkpt lat="42.549365281308006" lon="13.490001389251665"><ele>701.3333333333334</ele><time>2026-04-19T07:55:17Z</time></trkpt><trkpt lat="42.54945261673078" lon="13.489791136020628"><ele>705.6666666666666</ele><time>2026-04-19T07:55:18Z</time></trkpt><trkpt lat="42.549539439736584" lon="13.48955613767028"><ele>710.0</ele><time>2026-04-19T07:55:19Z</time></trkpt><trkpt lat="42.54964156920565" lon="13.489324074346731"><ele>702.6666666666666</ele><time>2026-04-19T07:55:20Z</time></trkpt><trkpt lat="42.54973215666117" lon="13.48907702992823"><ele>695.3333333333334</ele><time>2026-04-19T07:55:21Z</time></trkpt><trkpt lat="42.5498295698081" lon="13.488856357614015"><ele>688.0</ele><time>2026-04-19T07:55:22Z</time></trkpt><trkpt lat="42.549892961817214" lon="13.488647506712967"><ele>688.0</ele><time>2026-04-19T07:55:23Z</time></trkpt><trkpt lat="42.54993262064282" lon="13.48843861293054"><ele>688.0</ele><time>2026-04-19T07:55:24Z</time></trkpt><trkpt lat="42.549933230405145" lon="13.488211618916669"><ele>688.0</ele><time>2026-04-19T07:55:25Z</time></trkpt><trkpt lat="42.54987587477417" lon="13.487959255294761"><ele>686.6666666666667</ele><time>2026-04-19T07:55:26Z</time></trkpt><trkpt lat="42.549808882071844" lon="13.48769365873018"><ele>685.3333333333334</ele><time>2026-04-19T07:55:27Z</time></trkpt><trkpt lat="42.549725123732124" lon="13.487418108353069"><ele>684.0</ele><time>2026-04-19T07:55:28Z</time></trkpt><trkpt lat="42.5496179240249" lon="13.487159030978377"><ele>696.0</ele><time>2026-04-19T07:55:29Z</time></trkpt><trkpt lat="42.54949263426043" lon="13.486940577434414"><ele>708.0</ele><time>2026-04-19T07:55:30Z</time></trkpt><trkpt lat="42.549368779672974" lon="13.486728751535475"><ele>720.0</ele><time>2026-04-19T07:55:31Z</time></trkpt><trkpt lat="42.54930085538009" lon="13.486475015080359"><ele>713.6666666666666</ele><time>2026-04-19T07:55:32Z</time></trkpt><trkpt lat="42.54921965977818" lon="13.486224780913906"><ele>707.3333333333333</ele><time>2026-04-19T07:55:33Z</time></trkpt><trkpt lat="42.549172528553775" lon="13.485976106739303"><ele>701.0</ele><time>2026-04-19T07:55:34Z</time></trkpt><trkpt lat="42.54918012742261" lon="13.485734732578168"><ele>701.0</ele><time>2026-04-19T07:55:35Z</time></trkpt><trkpt lat="42.5491330561896" lon="13.48550912199465"><ele>701.0</ele><time>2026-04-19T07:55:35.999Z</time></trkpt><trkpt lat="42.549069137091045" lon="13.485284155866678"><ele>701.0</ele><time>2026-04-19T07:55:36.999Z</time></trkpt><trkpt lat="42.54896878364924" lon="13.485043386204294"><ele>700.3333333333333</ele><time>2026-04-19T07:55:37.999Z</time></trkpt><trkpt lat="42.5488757318554" lon="13.48482064968021"><ele>699.6666666666666</ele><time>2026-04-19T07:55:38.999Z</time></trkpt><trkpt lat="42.54878780314371" lon="13.48462444630336"><ele>699.0</ele><time>2026-04-19T07:55:39.999Z</time></trkpt><trkpt lat="42.54868126248539" lon="13.484453723055443"><ele>699.0</ele><time>2026-04-19T07:55:40.999Z</time></trkpt><trkpt lat="42.54853503322885" lon="13.484303434813846"><ele>699.0</ele><time>2026-04-19T07:55:41.999Z</time></trkpt><trkpt lat="42.54836508710397" lon="13.484165872992026"><ele>699.0</ele><time>2026-04-19T07:55:42.999Z</time></trkpt><trkpt lat="42.54821105386225" lon="13.484040971305896"><ele>699.0</ele><time>2026-04-19T07:55:43.999Z</time></trkpt><trkpt lat="42.54807508761257" lon="13.483936859766303"><ele>699.0</ele><time>2026-04-19T07:55:44.999Z</time></trkpt><trkpt lat="42.547964936073136" lon="13.483844150810462"><ele>699.0</ele><time>2026-04-19T07:55:45.999Z</time></trkpt><trkpt lat="42.54788978984035" lon="13.483749770497226"><ele>699.0</ele><time>2026-04-19T07:55:46.999Z</time></trkpt><trkpt lat="42.54786067295612" lon="13.483644903672758"><ele>699.75</ele><time>2026-04-19T07:55:47.999Z</time></trkpt><trkpt lat="42.54788071254874" lon="13.483514593026749"><ele>700.5</ele><time>2026-04-19T07:55:48.999Z</time></trkpt><trkpt lat="42.54798486413114" lon="13.483409141013256"><ele>701.25</ele><time>2026-04-19T07:55:49.999Z</time></trkpt><trkpt lat="42.54808521135679" lon="13.483270666892757"><ele>702.0</ele><time>2026-04-19T07:55:50.999Z</time></trkpt><trkpt lat="42.548182229001306" lon="13.483158735833605"><ele>702.0</ele><time>2026-04-19T07:55:51.999Z</time></trkpt><trkpt lat="42.548314875661745" lon="13.483231809711722"><ele>702.0</ele><time>2026-04-19T07:55:52.999Z</time></trkpt><trkpt lat="42.54849394086335" lon="13.483288871719363"><ele>702.0</ele><time>2026-04-19T07:55:53.999Z</time></trkpt><trkpt lat="42.54873203286231" lon="13.483409563556345"><ele>714.5</ele><time>2026-04-19T07:55:54.999Z</time></trkpt><trkpt lat="42.548967192365645" lon="13.483554707598504"><ele>727.0</ele><time>2026-04-19T07:55:55.999Z</time></trkpt><trkpt lat="42.54916999054741" lon="13.483682136298517"><ele>727.0</ele><time>2026-04-19T07:55:56.999Z</time></trkpt><trkpt lat="42.549360727742794" lon="13.483749721101924"><ele>727.0</ele><time>2026-04-19T07:55:57.999Z</time></trkpt><trkpt lat="42.54954674307062" lon="13.48376979280185"><ele>727.0</ele><time>2026-04-19T07:55:58.999Z</time></trkpt><trkpt lat="42.54971451992744" lon="13.483763284108498"><ele>723.0</ele><time>2026-04-19T07:55:59.999Z</time></trkpt><trkpt lat="42.54987201446954" lon="13.48370852740149"><ele>719.0</ele><time>2026-04-19T07:56:00.999Z</time></trkpt><trkpt lat="42.55001145053695" lon="13.48360612782249"><ele>715.0</ele><time>2026-04-19T07:56:01.999Z</time></trkpt><trkpt lat="42.5501754425699" lon="13.483385369928625"><ele>715.0</ele><time>2026-04-19T07:56:02.999Z</time></trkpt><trkpt lat="42.55034921291707" lon="13.483169687733236"><ele>715.0</ele><time>2026-04-19T07:56:03.999Z</time></trkpt><trkpt lat="42.55053533742728" lon="13.482881473786488"><ele>708.5</ele><time>2026-04-19T07:56:04.999Z</time></trkpt><trkpt lat="42.55074847533563" lon="13.482571998460006"><ele>702.0</ele><time>2026-04-19T07:56:05.999Z</time></trkpt><trkpt lat="42.55093742413295" lon="13.482269153664667"><ele>702.3333333333334</ele><time>2026-04-19T07:56:06.999Z</time></trkpt><trkpt lat="42.55107335005835" lon="13.48205114136592"><ele>702.6666666666667</ele><time>2026-04-19T07:56:07.999Z</time></trkpt><trkpt lat="42.55126531459232" lon="13.481880576692207"><ele>703.0</ele><time>2026-04-19T07:56:08.999Z</time></trkpt><trkpt lat="42.5514824692464" lon="13.481741386431159"><ele>703.0</ele><time>2026-04-19T07:56:09.999Z</time></trkpt><trkpt lat="42.551693081182975" lon="13.48158424067159"><ele>703.0</ele><time>2026-04-19T07:56:10.999Z</time></trkpt><trkpt lat="42.55186592409348" lon="13.481422466060803"><ele>703.0</ele><time>2026-04-19T07:56:11.999Z</time></trkpt><trkpt lat="42.551960922497244" lon="13.481329945149216"><ele>703.0</ele><time>2026-04-19T07:56:12.999Z</time></trkpt><trkpt lat="42.55202664531463" lon="13.481204970692682"><ele>703.0</ele><time>2026-04-19T07:56:13.999Z</time></trkpt><trkpt lat="42.55203688326155" lon="13.481034172621397"><ele>703.0</ele><time>2026-04-19T07:56:14.999Z</time></trkpt><trkpt lat="42.55199638354813" lon="13.480825289045468"><ele>711.6666666666667</ele><time>2026-04-19T07:56:15.999Z</time></trkpt><trkpt lat="42.55193039795649" lon="13.480593394735124"><ele>720.3333333333334</ele><time>2026-04-19T07:56:16.999Z</time></trkpt><trkpt lat="42.55189224889749" lon="13.480386283527276"><ele>729.0</ele><time>2026-04-19T07:56:17.999Z</time></trkpt><trkpt lat="42.55191870891486" lon="13.480155875232715"><ele>735.0</ele><time>2026-04-19T07:56:18.999Z</time></trkpt><trkpt lat="42.55193558566208" lon="13.47997203468405"><ele>741.0</ele><time>2026-04-19T07:56:19.999Z</time></trkpt><trkpt lat="42.55202522749956" lon="13.479537697695116"><ele>731.0</ele><time>2026-04-19T07:56:20.999Z</time></trkpt><trkpt lat="42.55214257048086" lon="13.479248635652977"><ele>721.0</ele><time>2026-04-19T07:56:21.999Z</time></trkpt><trkpt lat="42.55225444509435" lon="13.479029299769625"><ele>711.0</ele><time>2026-04-19T07:56:22.999Z</time></trkpt><trkpt lat="42.5523476840505" lon="13.478924804067828"><ele>711.0</ele><time>2026-04-19T07:56:23.999Z</time></trkpt><trkpt lat="42.55244851369009" lon="13.478834789236853"><ele>711.0</ele><time>2026-04-19T07:56:24.999Z</time></trkpt><trkpt lat="42.552547727017966" lon="13.478743898560078"><ele>711.0</ele><time>2026-04-19T07:56:25.999Z</time></trkpt><trkpt lat="42.5526266086783" lon="13.478661313709933"><ele>711.0</ele><time>2026-04-19T07:56:26.999Z</time></trkpt><trkpt lat="42.55271210653901" lon="13.478552706951092"><ele>714.8</ele><time>2026-04-19T07:56:27.999Z</time></trkpt><trkpt lat="42.55276151076777" lon="13.47843959795017"><ele>718.5999999999999</ele><time>2026-04-19T07:56:28.999Z</time></trkpt><trkpt lat="42.55280851114166" lon="13.478358282735385"><ele>722.4</ele><time>2026-04-19T07:56:29.999Z</time></trkpt><trkpt lat="42.55282635206349" lon="13.478254446098013"><ele>726.2</ele><time>2026-04-19T07:56:31.999Z</time></trkpt><trkpt lat="42.552834566354996" lon="13.478112801889623"><ele>730.0</ele><time>2026-04-19T07:56:34Z</time></trkpt><trkpt lat="42.552838048833614" lon="13.477953246150168"><ele>731.0</ele><time>2026-04-19T07:56:36Z</time></trkpt><trkpt lat="42.55281619940726" lon="13.477840939430042"><ele>732.0</ele><time>2026-04-19T07:56:38Z</time></trkpt><trkpt lat="42.55278585901619" lon="13.477714662296778"><ele>733.0</ele><time>2026-04-19T07:56:41Z</time></trkpt><trkpt lat="42.5527738117442" lon="13.477604586023048"><ele>734.0</ele><time>2026-04-19T07:56:43Z</time></trkpt><trkpt lat="42.55278231286922" lon="13.477518713991294"><ele>735.0</ele><time>2026-04-19T07:56:47Z</time></trkpt><trkpt lat="42.552771737004356" lon="13.477623005744288"><ele>736.0</ele><time>2026-04-19T07:57:18Z</time></trkpt><trkpt lat="42.55275858139599" lon="13.477710652752938"><ele>736.0</ele><time>2026-04-19T07:57:19Z</time></trkpt><trkpt lat="42.552783226242944" lon="13.477866512511515"><ele>736.0</ele><time>2026-04-19T07:57:21Z</time></trkpt><trkpt lat="42.55278628831704" lon="13.477954601560482"><ele>736.0</ele><time>2026-04-19T07:57:22Z</time></trkpt><trkpt lat="42.552788725756706" lon="13.478041331847335"><ele>736.0</ele><time>2026-04-19T07:57:23Z</time></trkpt><trkpt lat="42.55278696816972" lon="13.478128608474329"><ele>736.0</ele><time>2026-04-19T07:57:24Z</time></trkpt><trkpt lat="42.55278025685542" lon="13.478221576935924"><ele>736.0</ele><time>2026-04-19T07:57:25Z</time></trkpt><trkpt lat="42.55276876031421" lon="13.478337312203587"><ele>735.0</ele><time>2026-04-19T07:57:26Z</time></trkpt><trkpt lat="42.552744059922006" lon="13.478437425555764"><ele>734.0</ele><time>2026-04-19T07:57:27Z</time></trkpt><trkpt lat="42.55271032980476" lon="13.478512614759124"><ele>733.0</ele><time>2026-04-19T07:57:28Z</time></trkpt><trkpt lat="42.55264807396448" lon="13.478622363425396"><ele>732.0</ele><time>2026-04-19T07:57:30Z</time></trkpt><trkpt lat="42.55266373334013" lon="13.478712454554778"><ele>731.0</ele><time>2026-04-19T07:57:31Z</time></trkpt><trkpt lat="42.55271086693698" lon="13.47881667110021"><ele>730.0</ele><time>2026-04-19T07:57:32Z</time></trkpt><trkpt lat="42.55278124190877" lon="13.47891111680544"><ele>726.8333333333334</ele><time>2026-04-19T07:57:33Z</time></trkpt><trkpt lat="42.552838867549035" lon="13.478984158689778"><ele>723.6666666666667</ele><time>2026-04-19T07:57:34Z</time></trkpt><trkpt lat="42.55291765404084" lon="13.479104128770235"><ele>720.5</ele><time>2026-04-19T07:57:35.999Z</time></trkpt><trkpt lat="42.55299636315675" lon="13.479224871869535"><ele>717.3333333333334</ele><time>2026-04-19T07:57:37.999Z</time></trkpt><trkpt lat="42.5530404052945" lon="13.479289530789885"><ele>714.1666666666666</ele><time>2026-04-19T07:57:38.999Z</time></trkpt><trkpt lat="42.55308189704606" lon="13.479358463743267"><ele>711.0</ele><time>2026-04-19T07:57:39.999Z</time></trkpt><trkpt lat="42.55312415039108" lon="13.479427119180311"><ele>710.2857142857143</ele><time>2026-04-19T07:57:40.999Z</time></trkpt><trkpt lat="42.55316913883933" lon="13.47949541476125"><ele>709.5714285714286</ele><time>2026-04-19T07:57:41.999Z</time></trkpt><trkpt lat="42.553213207276606" lon="13.479565721805892"><ele>708.8571428571429</ele><time>2026-04-19T07:57:42.999Z</time></trkpt><trkpt lat="42.55325713857906" lon="13.47963362284552"><ele>708.1428571428571</ele><time>2026-04-19T07:57:43.999Z</time></trkpt><trkpt lat="42.55330363298526" lon="13.479700259633962"><ele>707.4285714285714</ele><time>2026-04-19T07:57:44.999Z</time></trkpt><trkpt lat="42.5533466907005" lon="13.479766867125623"><ele>706.7142857142857</ele><time>2026-04-19T07:57:45.999Z</time></trkpt><trkpt lat="42.553382240602204" lon="13.479852548348669"><ele>706.0</ele><time>2026-04-19T07:57:47.999Z</time></trkpt><trkpt lat="42.553446646080666" lon="13.47989088015797"><ele>706.0</ele><time>2026-04-19T07:58:35.999Z</time></trkpt><trkpt lat="42.55350902335239" lon="13.479864116154193"><ele>706.0</ele><time>2026-04-19T07:58:36.999Z</time></trkpt><trkpt lat="42.55369815877794" lon="13.479862803656431"><ele>706.0</ele><time>2026-04-19T07:58:39Z</time></trkpt><trkpt lat="42.55384107510517" lon="13.479861421777553"><ele>706.0</ele><time>2026-04-19T07:58:40Z</time></trkpt><trkpt lat="42.55401225426208" lon="13.47987667538787"><ele>711.1999999999999</ele><time>2026-04-19T07:58:41Z</time></trkpt><trkpt lat="42.55413816920982" lon="13.4798755376841"><ele>716.4</ele><time>2026-04-19T07:58:42Z</time></trkpt><trkpt lat="42.55424480843655" lon="13.479851997263124"><ele>721.6</ele><time>2026-04-19T07:58:43Z</time></trkpt><trkpt lat="42.55433212162782" lon="13.479798699345913"><ele>726.8</ele><time>2026-04-19T07:58:44Z</time></trkpt><trkpt lat="42.55441021441877" lon="13.47976000297994"><ele>732.0</ele><time>2026-04-19T07:58:45Z</time></trkpt><trkpt lat="42.5544865854462" lon="13.479787053124948"><ele>732.0</ele><time>2026-04-19T07:58:46Z</time></trkpt><trkpt lat="42.55453490670987" lon="13.479893510324983"><ele>732.0</ele><time>2026-04-19T07:58:47Z</time></trkpt><trkpt lat="42.55459947326926" lon="13.47997287719763"><ele>732.0</ele><time>2026-04-19T07:58:48Z</time></trkpt><trkpt lat="42.554666884771905" lon="13.480028574506273"><ele>732.0</ele><time>2026-04-19T07:58:49Z</time></trkpt><trkpt lat="42.55476611886252" lon="13.4800300888363"><ele>732.0</ele><time>2026-04-19T07:58:50Z</time></trkpt><trkpt lat="42.554865480463896" lon="13.479972106155994"><ele>735.0</ele><time>2026-04-19T07:58:51Z</time></trkpt><trkpt lat="42.554992402721325" lon="13.479917296662869"><ele>738.0</ele><time>2026-04-19T07:58:52Z</time></trkpt><trkpt lat="42.555074067424485" lon="13.479836877479247"><ele>741.0</ele><time>2026-04-19T07:58:53Z</time></trkpt><trkpt lat="42.555158423550196" lon="13.479778357469074"><ele>744.0</ele><time>2026-04-19T07:58:54Z</time></trkpt><trkpt lat="42.55523039690497" lon="13.479729081240507"><ele>747.0</ele><time>2026-04-19T07:58:55Z</time></trkpt><trkpt lat="42.555300164385194" lon="13.479704861423606"><ele>745.8</ele><time>2026-04-19T07:58:56Z</time></trkpt><trkpt lat="42.555376420093324" lon="13.479725393177313"><ele>744.6</ele><time>2026-04-19T07:58:57Z</time></trkpt><trkpt lat="42.555448717453494" lon="13.479800885998142"><ele>743.4</ele><time>2026-04-19T07:58:58Z</time></trkpt><trkpt lat="42.55552500976812" lon="13.479882343481632"><ele>742.1999999999999</ele><time>2026-04-19T07:58:59Z</time></trkpt><trkpt lat="42.555611017263594" lon="13.479965506601676"><ele>741.0</ele><time>2026-04-19T07:59:00Z</time></trkpt><trkpt lat="42.55569990114122" lon="13.480040725312522"><ele>741.0</ele><time>2026-04-19T07:59:01Z</time></trkpt><trkpt lat="42.55578792575389" lon="13.480110803789351"><ele>741.0</ele><time>2026-04-19T07:59:02Z</time></trkpt><trkpt lat="42.555876940457836" lon="13.48018207310337"><ele>741.0</ele><time>2026-04-19T07:59:03Z</time></trkpt><trkpt lat="42.555965309013345" lon="13.480257391169491"><ele>741.0</ele><time>2026-04-19T07:59:04Z</time></trkpt><trkpt lat="42.55604748167159" lon="13.480341616554819"><ele>741.0</ele><time>2026-04-19T07:59:05Z</time></trkpt><trkpt lat="42.55611726931116" lon="13.480440402568362"><ele>744.8333333333334</ele><time>2026-04-19T07:59:06Z</time></trkpt><trkpt lat="42.55617429709923" lon="13.480538101927513"><ele>748.6666666666666</ele><time>2026-04-19T07:59:07Z</time></trkpt><trkpt lat="42.55622765770432" lon="13.480619215733784"><ele>752.5</ele><time>2026-04-19T07:59:08Z</time></trkpt><trkpt lat="42.55629170025027" lon="13.480662952601525"><ele>756.3333333333333</ele><time>2026-04-19T07:59:09Z</time></trkpt><trkpt lat="42.55636622086354" lon="13.48067354957121"><ele>760.1666666666666</ele><time>2026-04-19T07:59:10Z</time></trkpt><trkpt lat="42.55643635289522" lon="13.480644657656317"><ele>764.0</ele><time>2026-04-19T07:59:11Z</time></trkpt><trkpt lat="42.556502505769046" lon="13.480578668768446"><ele>764.0</ele><time>2026-04-19T07:59:12Z</time></trkpt><trkpt lat="42.55654365450047" lon="13.480484349680301"><ele>764.0</ele><time>2026-04-19T07:59:13Z</time></trkpt><trkpt lat="42.5565509823053" lon="13.48036385727845"><ele>764.0</ele><time>2026-04-19T07:59:14Z</time></trkpt><trkpt lat="42.55651774010594" lon="13.480249535404832"><ele>764.0</ele><time>2026-04-19T07:59:15Z</time></trkpt><trkpt lat="42.556486245997206" lon="13.480133430914805"><ele>764.0</ele><time>2026-04-19T07:59:16Z</time></trkpt><trkpt lat="42.55645996207685" lon="13.480010077855168"><ele>764.0</ele><time>2026-04-19T07:59:17Z</time></trkpt><trkpt lat="42.5564405335327" lon="13.479877405024197"><ele>763.4000000000001</ele><time>2026-04-19T07:59:18Z</time></trkpt><trkpt lat="42.55642860660586" lon="13.4797448220851"><ele>762.8</ele><time>2026-04-19T07:59:19Z</time></trkpt><trkpt lat="42.55639427604067" lon="13.47963521144615"><ele>762.2</ele><time>2026-04-19T07:59:20Z</time></trkpt><trkpt lat="42.55632279522004" lon="13.479536435884802"><ele>761.5999999999999</ele><time>2026-04-19T07:59:21Z</time></trkpt><trkpt lat="42.556233641739325" lon="13.479483171630187"><ele>761.0</ele><time>2026-04-19T07:59:22Z</time></trkpt><trkpt lat="42.55617150290904" lon="13.479394783115694"><ele>755.0</ele><time>2026-04-19T07:59:23Z</time></trkpt><trkpt lat="42.55614971214891" lon="13.479270416656133"><ele>749.0</ele><time>2026-04-19T07:59:24Z</time></trkpt><trkpt lat="42.556152809423125" lon="13.479104831643287"><ele>743.0</ele><time>2026-04-19T07:59:25Z</time></trkpt><trkpt lat="42.55615968013426" lon="13.478979029068022"><ele>737.0</ele><time>2026-04-19T07:59:26Z</time></trkpt><trkpt lat="42.55616768697879" lon="13.478841712426632"><ele>731.0</ele><time>2026-04-19T07:59:27Z</time></trkpt><trkpt lat="42.55617043682067" lon="13.47870196976989"><ele>731.0</ele><time>2026-04-19T07:59:28Z</time></trkpt><trkpt lat="42.556172232796506" lon="13.478561328441007"><ele>731.0</ele><time>2026-04-19T07:59:29Z</time></trkpt><trkpt lat="42.55617439366438" lon="13.47842047584224"><ele>731.0</ele><time>2026-04-19T07:59:30Z</time></trkpt><trkpt lat="42.55617441391192" lon="13.478277980459254"><ele>731.0</ele><time>2026-04-19T07:59:31Z</time></trkpt><trkpt lat="42.55617115460263" lon="13.478137356156905"><ele>731.0</ele><time>2026-04-19T07:59:32Z</time></trkpt><trkpt lat="42.556145426497885" lon="13.477998263175504"><ele>730.8</ele><time>2026-04-19T07:59:33Z</time></trkpt><trkpt lat="42.55611666089367" lon="13.477882169318544"><ele>730.5999999999999</ele><time>2026-04-19T07:59:34Z</time></trkpt><trkpt lat="42.5561001847646" lon="13.477761377696554"><ele>730.4</ele><time>2026-04-19T07:59:35Z</time></trkpt><trkpt lat="42.5561169613096" lon="13.477632423581106"><ele>730.2</ele><time>2026-04-19T07:59:36Z</time></trkpt><trkpt lat="42.55617026539234" lon="13.477493340860674"><ele>730.0</ele><time>2026-04-19T07:59:37Z</time></trkpt><trkpt lat="42.55624512270712" lon="13.47734953316752"><ele>735.5</ele><time>2026-04-19T07:59:38Z</time></trkpt><trkpt lat="42.55632881526243" lon="13.477224424806122"><ele>741.0</ele><time>2026-04-19T07:59:39Z</time></trkpt><trkpt lat="42.55641758222992" lon="13.477108176757909"><ele>746.5</ele><time>2026-04-19T07:59:39.999Z</time></trkpt><trkpt lat="42.55649304965943" lon="13.477006520096321"><ele>752.0</ele><time>2026-04-19T07:59:40.999Z</time></trkpt><trkpt lat="42.556568048174576" lon="13.476917100798287"><ele>752.0</ele><time>2026-04-19T07:59:41.999Z</time></trkpt><trkpt lat="42.55666371298138" lon="13.476854560204075"><ele>752.0</ele><time>2026-04-19T07:59:42.999Z</time></trkpt><trkpt lat="42.556769692371184" lon="13.476828047950905"><ele>752.0</ele><time>2026-04-19T07:59:43.999Z</time></trkpt><trkpt lat="42.556877323856895" lon="13.476811380885845"><ele>752.0</ele><time>2026-04-19T07:59:44.999Z</time></trkpt><trkpt lat="42.55699037137317" lon="13.476800248145063"><ele>752.0</ele><time>2026-04-19T07:59:45.999Z</time></trkpt><trkpt lat="42.557107730787266" lon="13.476788977317032"><ele>758.0</ele><time>2026-04-19T07:59:46.999Z</time></trkpt><trkpt lat="42.55722647254189" lon="13.476776436068036"><ele>764.0</ele><time>2026-04-19T07:59:47.999Z</time></trkpt><trkpt lat="42.55734482725489" lon="13.47675256476544"><ele>770.0</ele><time>2026-04-19T07:59:48.999Z</time></trkpt><trkpt lat="42.55745573911931" lon="13.476684961803523"><ele>776.0</ele><time>2026-04-19T07:59:49.999Z</time></trkpt><trkpt lat="42.55756503274269" lon="13.476598700679345"><ele>776.0</ele><time>2026-04-19T07:59:50.999Z</time></trkpt><trkpt lat="42.55766952315787" lon="13.476500516645464"><ele>776.0</ele><time>2026-04-19T07:59:51.999Z</time></trkpt><trkpt lat="42.557784926453664" lon="13.476420652473697"><ele>776.0</ele><time>2026-04-19T07:59:52.999Z</time></trkpt><trkpt lat="42.55790209040154" lon="13.476384829676283"><ele>776.0</ele><time>2026-04-19T07:59:53.999Z</time></trkpt><trkpt lat="42.558011085341604" lon="13.47636475028549"><ele>773.0</ele><time>2026-04-19T07:59:54.999Z</time></trkpt><trkpt lat="42.55812318624507" lon="13.47629433443927"><ele>770.0</ele><time>2026-04-19T07:59:55.999Z</time></trkpt><trkpt lat="42.55822050290651" lon="13.476179436403092"><ele>767.0</ele><time>2026-04-19T07:59:56.999Z</time></trkpt><trkpt lat="42.55832330648419" lon="13.476065536194445"><ele>764.0</ele><time>2026-04-19T07:59:57.999Z</time></trkpt><trkpt lat="42.55843821922948" lon="13.47598584441921"><ele>764.0</ele><time>2026-04-19T07:59:58.999Z</time></trkpt><trkpt lat="42.55854309142583" lon="13.475946979963668"><ele>764.0</ele><time>2026-04-19T07:59:59.999Z</time></trkpt><trkpt lat="42.55863064494913" lon="13.475926884268647"><ele>764.0</ele><time>2026-04-19T08:00:00.999Z</time></trkpt><trkpt lat="42.5587077407779" lon="13.475887629509735"><ele>764.0</ele><time>2026-04-19T08:00:01.999Z</time></trkpt><trkpt lat="42.55876578009986" lon="13.475813942011483"><ele>764.0</ele><time>2026-04-19T08:00:02.999Z</time></trkpt><trkpt lat="42.55879941591648" lon="13.47569339543399"><ele>768.0</ele><time>2026-04-19T08:00:03.999Z</time></trkpt><trkpt lat="42.55882896794576" lon="13.475547268301556"><ele>772.0</ele><time>2026-04-19T08:00:04.999Z</time></trkpt><trkpt lat="42.55884206346864" lon="13.475401991701355"><ele>776.0</ele><time>2026-04-19T08:00:05.999Z</time></trkpt><trkpt lat="42.55883029529625" lon="13.475251013557015"><ele>780.0</ele><time>2026-04-19T08:00:06.999Z</time></trkpt><trkpt lat="42.558791342771414" lon="13.475098991735885"><ele>780.0</ele><time>2026-04-19T08:00:07.999Z</time></trkpt><trkpt lat="42.5587499266079" lon="13.474964332276965"><ele>780.0</ele><time>2026-04-19T08:00:08.999Z</time></trkpt><trkpt lat="42.558729725795125" lon="13.474843520504434"><ele>780.0</ele><time>2026-04-19T08:00:09.999Z</time></trkpt><trkpt lat="42.55875926608679" lon="13.474744677650044"><ele>780.0</ele><time>2026-04-19T08:00:10.999Z</time></trkpt><trkpt lat="42.55882587285433" lon="13.474684593805932"><ele>780.0</ele><time>2026-04-19T08:00:11.999Z</time></trkpt><trkpt lat="42.558906702410944" lon="13.474668305798094"><ele>780.0</ele><time>2026-04-19T08:00:12.999Z</time></trkpt><trkpt lat="42.55898915809894" lon="13.474724519944719"><ele>780.0</ele><time>2026-04-19T08:00:13.999Z</time></trkpt><trkpt lat="42.55908361297024" lon="13.474783681632195"><ele>780.0</ele><time>2026-04-19T08:00:14.999Z</time></trkpt><trkpt lat="42.55919338018949" lon="13.474848715491321"><ele>780.0</ele><time>2026-04-19T08:00:15.999Z</time></trkpt><trkpt lat="42.559294421778894" lon="13.474947644799826"><ele>780.0</ele><time>2026-04-19T08:00:16.999Z</time></trkpt><trkpt lat="42.55938166465277" lon="13.475051537583663"><ele>780.0</ele><time>2026-04-19T08:00:17.999Z</time></trkpt><trkpt lat="42.559447499379054" lon="13.475153897343645"><ele>780.0</ele><time>2026-04-19T08:00:18.999Z</time></trkpt><trkpt lat="42.55951770571835" lon="13.475233719682546"><ele>780.0</ele><time>2026-04-19T08:00:19.999Z</time></trkpt><trkpt lat="42.55960051229127" lon="13.47524778954257"><ele>780.0</ele><time>2026-04-19T08:00:20.999Z</time></trkpt><trkpt lat="42.559685944437206" lon="13.475197660361355"><ele>780.0</ele><time>2026-04-19T08:00:21.999Z</time></trkpt><trkpt lat="42.5597675180646" lon="13.475100871100269"><ele>784.4</ele><time>2026-04-19T08:00:22.999Z</time></trkpt><trkpt lat="42.55983744326667" lon="13.474975032261941"><ele>788.8</ele><time>2026-04-19T08:00:23.999Z</time></trkpt><trkpt lat="42.55991344573557" lon="13.474875350340591"><ele>793.2</ele><time>2026-04-19T08:00:24.999Z</time></trkpt><trkpt lat="42.56002064965707" lon="13.474801047291727"><ele>797.6</ele><time>2026-04-19T08:00:25.999Z</time></trkpt><trkpt lat="42.56009905338667" lon="13.47472863645677"><ele>802.0</ele><time>2026-04-19T08:00:26.999Z</time></trkpt><trkpt lat="42.56016186422541" lon="13.474633017031897"><ele>795.5</ele><time>2026-04-19T08:00:27.999Z</time></trkpt><trkpt lat="42.56020273079075" lon="13.474471381862417"><ele>789.0</ele><time>2026-04-19T08:00:28.999Z</time></trkpt><trkpt lat="42.56020734178319" lon="13.474267498009144"><ele>782.5</ele><time>2026-04-19T08:00:29.999Z</time></trkpt><trkpt lat="42.56023693258771" lon="13.47410966197576"><ele>776.0</ele><time>2026-04-19T08:00:30.999Z</time></trkpt><trkpt lat="42.56032121038745" lon="13.473993118136157"><ele>775.75</ele><time>2026-04-19T08:00:31.999Z</time></trkpt><trkpt lat="42.56039759616567" lon="13.473808260250129"><ele>775.5</ele><time>2026-04-19T08:00:32.999Z</time></trkpt><trkpt lat="42.56046399871679" lon="13.473662609978064"><ele>775.25</ele><time>2026-04-19T08:00:33.999Z</time></trkpt><trkpt lat="42.560519751377086" lon="13.4735321655903"><ele>775.0</ele><time>2026-04-19T08:00:34.999Z</time></trkpt><trkpt lat="42.56058623717964" lon="13.473438110136527"><ele>775.0</ele><time>2026-04-19T08:00:35.999Z</time></trkpt><trkpt lat="42.56066829321627" lon="13.473400945659119"><ele>775.0</ele><time>2026-04-19T08:00:36.999Z</time></trkpt><trkpt lat="42.560743977749866" lon="13.473429636578505"><ele>775.0</ele><time>2026-04-19T08:00:37.999Z</time></trkpt><trkpt lat="42.56080384350717" lon="13.473510624013072"><ele>775.0</ele><time>2026-04-19T08:00:38.999Z</time></trkpt><trkpt lat="42.560866744938515" lon="13.473625542947843"><ele>775.0</ele><time>2026-04-19T08:00:39.999Z</time></trkpt><trkpt lat="42.56092363702508" lon="13.473744805149925"><ele>779.6</ele><time>2026-04-19T08:00:40.999Z</time></trkpt><trkpt lat="42.56098267998217" lon="13.473876951150615"><ele>784.2</ele><time>2026-04-19T08:00:41.999Z</time></trkpt><trkpt lat="42.56102930874981" lon="13.474001608110942"><ele>788.8</ele><time>2026-04-19T08:00:42.999Z</time></trkpt><trkpt lat="42.561056853648786" lon="13.47413864811659"><ele>793.4</ele><time>2026-04-19T08:00:43.999Z</time></trkpt><trkpt lat="42.56105615019263" lon="13.474305472078482"><ele>798.0</ele><time>2026-04-19T08:00:45Z</time></trkpt><trkpt lat="42.5610301399176" lon="13.47448386304918"><ele>801.25</ele><time>2026-04-19T08:00:46Z</time></trkpt><trkpt lat="42.56101299552623" lon="13.474662480915532"><ele>804.5</ele><time>2026-04-19T08:00:47Z</time></trkpt><trkpt lat="42.56101714077192" lon="13.474839679266248"><ele>807.75</ele><time>2026-04-19T08:00:48Z</time></trkpt><trkpt lat="42.561055655115574" lon="13.475008576296597"><ele>811.0</ele><time>2026-04-19T08:00:49Z</time></trkpt><trkpt lat="42.56110758520607" lon="13.475169823817119"><ele>811.0</ele><time>2026-04-19T08:00:50Z</time></trkpt><trkpt lat="42.561180944687784" lon="13.475317274232962"><ele>811.0</ele><time>2026-04-19T08:00:51Z</time></trkpt><trkpt lat="42.561267372852555" lon="13.475456987585508"><ele>811.0</ele><time>2026-04-19T08:00:52Z</time></trkpt><trkpt lat="42.561343423615575" lon="13.475598839647951"><ele>811.0</ele><time>2026-04-19T08:00:53Z</time></trkpt><trkpt lat="42.56142891919012" lon="13.475697694366755"><ele>810.1666666666666</ele><time>2026-04-19T08:00:54Z</time></trkpt><trkpt lat="42.56149512027111" lon="13.475791217107462"><ele>809.3333333333333</ele><time>2026-04-19T08:00:55Z</time></trkpt><trkpt lat="42.561545361055366" lon="13.475880742819744"><ele>808.5</ele><time>2026-04-19T08:00:56Z</time></trkpt><trkpt lat="42.561625349003585" lon="13.475913469204793"><ele>807.6666666666667</ele><time>2026-04-19T08:00:57Z</time></trkpt><trkpt lat="42.561707501488975" lon="13.475872477540147"><ele>806.8333333333334</ele><time>2026-04-19T08:00:58Z</time></trkpt><trkpt lat="42.561779687321234" lon="13.475815598286403"><ele>806.0</ele><time>2026-04-19T08:00:59Z</time></trkpt><trkpt lat="42.561847927438194" lon="13.47574466363973"><ele>806.0</ele><time>2026-04-19T08:01:00Z</time></trkpt><trkpt lat="42.561841317900964" lon="13.475600591327352"><ele>806.0</ele><time>2026-04-19T08:01:01Z</time></trkpt><trkpt lat="42.56183814779518" lon="13.475451251763031"><ele>806.0</ele><time>2026-04-19T08:01:02Z</time></trkpt><trkpt lat="42.561840868059114" lon="13.47529921264838"><ele>806.0</ele><time>2026-04-19T08:01:03Z</time></trkpt><trkpt lat="42.56184474215155" lon="13.475147890649001"><ele>806.0</ele><time>2026-04-19T08:01:04Z</time></trkpt><trkpt lat="42.561846292816476" lon="13.475007147182868"><ele>803.1999999999999</ele><time>2026-04-19T08:01:05Z</time></trkpt><trkpt lat="42.561870612557115" lon="13.474886815765366"><ele>800.4</ele><time>2026-04-19T08:01:06Z</time></trkpt><trkpt lat="42.56190668926422" lon="13.474777653278926"><ele>797.6</ele><time>2026-04-19T08:01:07Z</time></trkpt><trkpt lat="42.561964799873294" lon="13.474660623800634"><ele>794.8</ele><time>2026-04-19T08:01:08Z</time></trkpt><trkpt lat="42.56203201191527" lon="13.4745316575227"><ele>792.0</ele><time>2026-04-19T08:01:09Z</time></trkpt><trkpt lat="42.56209337819517" lon="13.474415097029633"><ele>791.1666666666666</ele><time>2026-04-19T08:01:10Z</time></trkpt><trkpt lat="42.56213700411294" lon="13.474306817640832"><ele>790.3333333333333</ele><time>2026-04-19T08:01:11Z</time></trkpt><trkpt lat="42.5622133754706" lon="13.474256314623268"><ele>789.5</ele><time>2026-04-19T08:01:12Z</time></trkpt><trkpt lat="42.56229022179671" lon="13.474223659705503"><ele>788.6666666666666</ele><time>2026-04-19T08:01:13Z</time></trkpt><trkpt lat="42.562377489798685" lon="13.474218842977642"><ele>787.8333333333333</ele><time>2026-04-19T08:01:14Z</time></trkpt><trkpt lat="42.56247003281026" lon="13.474247103109835"><ele>787.0</ele><time>2026-04-19T08:01:15Z</time></trkpt><trkpt lat="42.562559156038034" lon="13.474300523674366"><ele>787.0</ele><time>2026-04-19T08:01:16Z</time></trkpt><trkpt lat="42.562620031066636" lon="13.474392322671278"><ele>787.0</ele><time>2026-04-19T08:01:17Z</time></trkpt><trkpt lat="42.56268931153928" lon="13.47450489012911"><ele>787.0</ele><time>2026-04-19T08:01:18Z</time></trkpt><trkpt lat="42.56277226975918" lon="13.474612788275856"><ele>787.0</ele><time>2026-04-19T08:01:19Z</time></trkpt><trkpt lat="42.562852055618826" lon="13.474690647319898"><ele>787.0</ele><time>2026-04-19T08:01:20Z</time></trkpt><trkpt lat="42.56295601341475" lon="13.474707574545235"><ele>787.25</ele><time>2026-04-19T08:01:21Z</time></trkpt><trkpt lat="42.563083031270864" lon="13.47466763882778"><ele>787.5</ele><time>2026-04-19T08:01:22Z</time></trkpt><trkpt lat="42.56322427243242" lon="13.474598681198344"><ele>787.75</ele><time>2026-04-19T08:01:23Z</time></trkpt><trkpt lat="42.563362593052915" lon="13.474606024694696"><ele>788.0</ele><time>2026-04-19T08:01:24Z</time></trkpt><trkpt lat="42.56347134205258" lon="13.474574073087616"><ele>788.0</ele><time>2026-04-19T08:01:25Z</time></trkpt><trkpt lat="42.563561652748795" lon="13.47454516485291"><ele>788.0</ele><time>2026-04-19T08:01:26Z</time></trkpt><trkpt lat="42.56363493624092" lon="13.474460159241817"><ele>788.0</ele><time>2026-04-19T08:01:27Z</time></trkpt><trkpt lat="42.56369403654416" lon="13.474317824050951"><ele>788.0</ele><time>2026-04-19T08:01:28Z</time></trkpt><trkpt lat="42.563731496144875" lon="13.474127716963238"><ele>790.2</ele><time>2026-04-19T08:01:29Z</time></trkpt><trkpt lat="42.56376552146158" lon="13.473968333031697"><ele>792.4</ele><time>2026-04-19T08:01:30Z</time></trkpt><trkpt lat="42.56380495631213" lon="13.473849819524801"><ele>794.6</ele><time>2026-04-19T08:01:31Z</time></trkpt><trkpt lat="42.56387763167594" lon="13.473786628444257"><ele>796.8000000000001</ele><time>2026-04-19T08:01:32Z</time></trkpt><trkpt lat="42.56395443181812" lon="13.47374670261594"><ele>799.0</ele><time>2026-04-19T08:01:33Z</time></trkpt><trkpt lat="42.5640420955312" lon="13.473715764587899"><ele>799.0</ele><time>2026-04-19T08:01:34Z</time></trkpt><trkpt lat="42.56413628156719" lon="13.473760806716479"><ele>799.0</ele><time>2026-04-19T08:01:35Z</time></trkpt><trkpt lat="42.56420293436882" lon="13.473874905444765"><ele>799.0</ele><time>2026-04-19T08:01:36Z</time></trkpt><trkpt lat="42.564281384788835" lon="13.473989200363151"><ele>799.0</ele><time>2026-04-19T08:01:37Z</time></trkpt><trkpt lat="42.56437264897451" lon="13.47409795360341"><ele>799.0</ele><time>2026-04-19T08:01:38Z</time></trkpt><trkpt lat="42.564477661588406" lon="13.474179722175323"><ele>797.4000000000001</ele><time>2026-04-19T08:01:38.999Z</time></trkpt><trkpt lat="42.56458017258126" lon="13.474236186006209"><ele>795.8</ele><time>2026-04-19T08:01:39.999Z</time></trkpt><trkpt lat="42.564656419597945" lon="13.474319265196005"><ele>794.2</ele><time>2026-04-19T08:01:40.999Z</time></trkpt><trkpt lat="42.564712130619235" lon="13.474424866362861"><ele>792.5999999999999</ele><time>2026-04-19T08:01:41.999Z</time></trkpt><trkpt lat="42.56477667535663" lon="13.474498288950544"><ele>791.0</ele><time>2026-04-19T08:01:42.999Z</time></trkpt><trkpt lat="42.56486128995579" lon="13.474508853080238"><ele>791.0</ele><time>2026-04-19T08:01:43.999Z</time></trkpt><trkpt lat="42.56494816549862" lon="13.474473755327445"><ele>791.0</ele><time>2026-04-19T08:01:44.999Z</time></trkpt><trkpt lat="42.565029932629265" lon="13.474374554583372"><ele>791.0</ele><time>2026-04-19T08:01:45.999Z</time></trkpt><trkpt lat="42.565082313157234" lon="13.474214167256255"><ele>791.0</ele><time>2026-04-19T08:01:46.999Z</time></trkpt><trkpt lat="42.56512726896926" lon="13.474050933890839"><ele>791.0</ele><time>2026-04-19T08:01:47.999Z</time></trkpt><trkpt lat="42.565168395114064" lon="13.473922087454824"><ele>791.0</ele><time>2026-04-19T08:01:48.999Z</time></trkpt><trkpt lat="42.56519657526271" lon="13.47382516144932"><ele>791.0</ele><time>2026-04-19T08:01:49.999Z</time></trkpt><trkpt lat="42.565303133448104" lon="13.473731436593162"><ele>791.0</ele><time>2026-04-19T08:01:51.999Z</time></trkpt><trkpt lat="42.56539997218048" lon="13.47374538844888"><ele>791.0</ele><time>2026-04-19T08:01:52.999Z</time></trkpt><trkpt lat="42.56548818459535" lon="13.473825958337454"><ele>791.0</ele><time>2026-04-19T08:01:53.999Z</time></trkpt><trkpt lat="42.56557777594471" lon="13.47394592402748"><ele>791.0</ele><time>2026-04-19T08:01:54.999Z</time></trkpt><trkpt lat="42.565681507747776" lon="13.474037879293048"><ele>791.0</ele><time>2026-04-19T08:01:55.999Z</time></trkpt><trkpt lat="42.56582818504876" lon="13.474072030897267"><ele>791.0</ele><time>2026-04-19T08:01:56.999Z</time></trkpt><trkpt lat="42.565991280612636" lon="13.474099598404337"><ele>791.0</ele><time>2026-04-19T08:01:57.999Z</time></trkpt><trkpt lat="42.566132309572254" lon="13.474151644783657"><ele>791.0</ele><time>2026-04-19T08:01:58.999Z</time></trkpt><trkpt lat="42.56626847426503" lon="13.474140208169578"><ele>791.0</ele><time>2026-04-19T08:01:59.999Z</time></trkpt><trkpt lat="42.566394172703475" lon="13.474114667463084"><ele>791.0</ele><time>2026-04-19T08:02:00.999Z</time></trkpt><trkpt lat="42.56651449455801" lon="13.474065261182252"><ele>790.0</ele><time>2026-04-19T08:02:01.999Z</time></trkpt><trkpt lat="42.56662712725438" lon="13.474018094094676"><ele>789.0</ele><time>2026-04-19T08:02:02.999Z</time></trkpt><trkpt lat="42.566731826318005" lon="13.473977576382998"><ele>788.0</ele><time>2026-04-19T08:02:03.999Z</time></trkpt><trkpt lat="42.56682465389766" lon="13.473971733021815"><ele>787.0</ele><time>2026-04-19T08:02:04.999Z</time></trkpt><trkpt lat="42.56690606104464" lon="13.474040948748069"><ele>786.0</ele><time>2026-04-19T08:02:05.999Z</time></trkpt><trkpt lat="42.5669361348069" lon="13.474178453643436"><ele>786.0</ele><time>2026-04-19T08:02:06.999Z</time></trkpt><trkpt lat="42.566987750970625" lon="13.4743253726658"><ele>786.0</ele><time>2026-04-19T08:02:07.999Z</time></trkpt><trkpt lat="42.56701763205296" lon="13.474477065961835"><ele>786.0</ele><time>2026-04-19T08:02:08.999Z</time></trkpt><trkpt lat="42.56705498222756" lon="13.474588143087866"><ele>786.0</ele><time>2026-04-19T08:02:09.999Z</time></trkpt><trkpt lat="42.56710812623883" lon="13.474660786781387"><ele>786.0</ele><time>2026-04-19T08:02:10.999Z</time></trkpt><trkpt lat="42.567195337000044" lon="13.474672298836303"><ele>787.5999999999999</ele><time>2026-04-19T08:02:11.999Z</time></trkpt><trkpt lat="42.567283793106846" lon="13.474649990732404"><ele>789.2</ele><time>2026-04-19T08:02:12.999Z</time></trkpt><trkpt lat="42.567360900819125" lon="13.474583161070585"><ele>790.8</ele><time>2026-04-19T08:02:13.999Z</time></trkpt><trkpt lat="42.567406853362556" lon="13.474458235307774"><ele>792.4000000000001</ele><time>2026-04-19T08:02:14.999Z</time></trkpt><trkpt lat="42.567427121677696" lon="13.474281462251193"><ele>794.0</ele><time>2026-04-19T08:02:15.999Z</time></trkpt><trkpt lat="42.56743338954993" lon="13.474117015979246"><ele>794.0</ele><time>2026-04-19T08:02:16.999Z</time></trkpt><trkpt lat="42.567451409719794" lon="13.47394233624896"><ele>794.0</ele><time>2026-04-19T08:02:17.999Z</time></trkpt><trkpt lat="42.567456217189886" lon="13.473779958890457"><ele>794.0</ele><time>2026-04-19T08:02:18.999Z</time></trkpt><trkpt lat="42.567433453604124" lon="13.473623375068499"><ele>794.0</ele><time>2026-04-19T08:02:19.999Z</time></trkpt><trkpt lat="42.5673934161364" lon="13.473482751562202"><ele>790.2</ele><time>2026-04-19T08:02:20.999Z</time></trkpt><trkpt lat="42.56736987669296" lon="13.47335103774898"><ele>786.4000000000001</ele><time>2026-04-19T08:02:21.999Z</time></trkpt><trkpt lat="42.56739210735591" lon="13.473226208797058"><ele>782.6</ele><time>2026-04-19T08:02:22.999Z</time></trkpt><trkpt lat="42.56746857583106" lon="13.473122092317576"><ele>778.8</ele><time>2026-04-19T08:02:23.999Z</time></trkpt><trkpt lat="42.56756268879033" lon="13.473042143527373"><ele>775.0</ele><time>2026-04-19T08:02:24.999Z</time></trkpt><trkpt lat="42.56768821365651" lon="13.47303759445601"><ele>775.0</ele><time>2026-04-19T08:02:25.999Z</time></trkpt><trkpt lat="42.56780026553466" lon="13.473089927692302"><ele>775.0</ele><time>2026-04-19T08:02:26.999Z</time></trkpt><trkpt lat="42.56794624414691" lon="13.47317419718272"><ele>775.0</ele><time>2026-04-19T08:02:27.999Z</time></trkpt><trkpt lat="42.5681529917431" lon="13.473194228960615"><ele>779.75</ele><time>2026-04-19T08:02:28.999Z</time></trkpt><trkpt lat="42.56833298408914" lon="13.473182485860788"><ele>784.5</ele><time>2026-04-19T08:02:29.999Z</time></trkpt><trkpt lat="42.56845588712232" lon="13.473135420333048"><ele>789.25</ele><time>2026-04-19T08:02:30.999Z</time></trkpt><trkpt lat="42.56855770403307" lon="13.473097342197367"><ele>794.0</ele><time>2026-04-19T08:02:31.999Z</time></trkpt><trkpt lat="42.56865082128427" lon="13.473141847861582"><ele>791.75</ele><time>2026-04-19T08:02:32.999Z</time></trkpt><trkpt lat="42.56875850861357" lon="13.473204593960906"><ele>789.5</ele><time>2026-04-19T08:02:33.999Z</time></trkpt><trkpt lat="42.568869512125076" lon="13.4733262669961"><ele>787.25</ele><time>2026-04-19T08:02:34.999Z</time></trkpt><trkpt lat="42.56896465007769" lon="13.473438495802823"><ele>785.0</ele><time>2026-04-19T08:02:35.999Z</time></trkpt><trkpt lat="42.56906119450208" lon="13.473534245929194"><ele>785.0</ele><time>2026-04-19T08:02:36.999Z</time></trkpt><trkpt lat="42.56914923615141" lon="13.473621015594194"><ele>785.0</ele><time>2026-04-19T08:02:37.999Z</time></trkpt><trkpt lat="42.56923452902933" lon="13.473720424106308"><ele>785.0</ele><time>2026-04-19T08:02:38.999Z</time></trkpt><trkpt lat="42.56931840485304" lon="13.47381124172021"><ele>785.0</ele><time>2026-04-19T08:02:39.999Z</time></trkpt><trkpt lat="42.56940122761579" lon="13.47389871225789"><ele>785.0</ele><time>2026-04-19T08:02:40.999Z</time></trkpt><trkpt lat="42.56946933623446" lon="13.473990975071795"><ele>790.2</ele><time>2026-04-19T08:02:41.999Z</time></trkpt><trkpt lat="42.569528445165446" lon="13.474071939842704"><ele>795.4</ele><time>2026-04-19T08:02:42.999Z</time></trkpt><trkpt lat="42.56959369583135" lon="13.474123958777398"><ele>800.5999999999999</ele><time>2026-04-19T08:02:43.999Z</time></trkpt><trkpt lat="42.56968022030783" lon="13.474152504517786"><ele>805.8</ele><time>2026-04-19T08:02:44.999Z</time></trkpt><trkpt lat="42.56978261474007" lon="13.474122015172894"><ele>811.0</ele><time>2026-04-19T08:02:45.999Z</time></trkpt><trkpt lat="42.56989429527497" lon="13.474052892183462"><ele>811.0</ele><time>2026-04-19T08:02:46.999Z</time></trkpt><trkpt lat="42.56999479727826" lon="13.473977480477686"><ele>811.0</ele><time>2026-04-19T08:02:47.999Z</time></trkpt><trkpt lat="42.570095355838916" lon="13.473939919223369"><ele>811.0</ele><time>2026-04-19T08:02:48.999Z</time></trkpt><trkpt lat="42.57020144761531" lon="13.473968433260271"><ele>811.0</ele><time>2026-04-19T08:02:49.999Z</time></trkpt><trkpt lat="42.57030486861203" lon="13.473940043768737"><ele>811.0</ele><time>2026-04-19T08:02:51Z</time></trkpt><trkpt lat="42.570410057685486" lon="13.473907476485259"><ele>812.8</ele><time>2026-04-19T08:02:52Z</time></trkpt><trkpt lat="42.57050279321688" lon="13.473836249143861"><ele>814.5999999999999</ele><time>2026-04-19T08:02:53Z</time></trkpt><trkpt lat="42.57058297777292" lon="13.47377139083494"><ele>816.4</ele><time>2026-04-19T08:02:54Z</time></trkpt><trkpt lat="42.57066495971405" lon="13.473769283433786"><ele>818.2</ele><time>2026-04-19T08:02:55Z</time></trkpt><trkpt lat="42.57076592012731" lon="13.47378570442925"><ele>820.0</ele><time>2026-04-19T08:02:56Z</time></trkpt><trkpt lat="42.570875542168935" lon="13.473901954052701"><ele>820.0</ele><time>2026-04-19T08:02:57Z</time></trkpt><trkpt lat="42.57099237546263" lon="13.473964937219103"><ele>820.0</ele><time>2026-04-19T08:02:58Z</time></trkpt><trkpt lat="42.57110271489228" lon="13.474027767520454"><ele>820.0</ele><time>2026-04-19T08:02:59Z</time></trkpt><trkpt lat="42.57122016994705" lon="13.474060642322938"><ele>820.0</ele><time>2026-04-19T08:03:00Z</time></trkpt><trkpt lat="42.57133975111566" lon="13.474042681832906"><ele>816.6</ele><time>2026-04-19T08:03:01Z</time></trkpt><trkpt lat="42.57144188211082" lon="13.47400630096856"><ele>813.2</ele><time>2026-04-19T08:03:02Z</time></trkpt><trkpt lat="42.57152380433939" lon="13.474008417528616"><ele>809.8</ele><time>2026-04-19T08:03:03Z</time></trkpt><trkpt lat="42.57160018412598" lon="13.474066558167761"><ele>806.4</ele><time>2026-04-19T08:03:04Z</time></trkpt><trkpt lat="42.57163819477173" lon="13.47422142225733"><ele>803.0</ele><time>2026-04-19T08:03:05Z</time></trkpt><trkpt lat="42.57172844867489" lon="13.474348613514682"><ele>803.0</ele><time>2026-04-19T08:03:06Z</time></trkpt><trkpt lat="42.57181952688204" lon="13.474455528291662"><ele>803.0</ele><time>2026-04-19T08:03:07Z</time></trkpt><trkpt lat="42.5719324425443" lon="13.474507818490387"><ele>803.0</ele><time>2026-04-19T08:03:08Z</time></trkpt><trkpt lat="42.57206379195307" lon="13.474520069857332"><ele>803.0</ele><time>2026-04-19T08:03:09Z</time></trkpt><trkpt lat="42.57219797968602" lon="13.47448383455821"><ele>801.75</ele><time>2026-04-19T08:03:10Z</time></trkpt><trkpt lat="42.572329407594616" lon="13.474453696369299"><ele>800.5</ele><time>2026-04-19T08:03:11Z</time></trkpt><trkpt lat="42.572443483883745" lon="13.474419006360257"><ele>799.25</ele><time>2026-04-19T08:03:12Z</time></trkpt><trkpt lat="42.57254663224106" lon="13.474371604564714"><ele>798.0</ele><time>2026-04-19T08:03:13Z</time></trkpt><trkpt lat="42.57263046600241" lon="13.474282433447279"><ele>798.0</ele><time>2026-04-19T08:03:14Z</time></trkpt><trkpt lat="42.57270386899197" lon="13.47415476091231"><ele>798.0</ele><time>2026-04-19T08:03:15Z</time></trkpt><trkpt lat="42.572773033007174" lon="13.474028135997884"><ele>798.0</ele><time>2026-04-19T08:03:16Z</time></trkpt><trkpt lat="42.57286350700741" lon="13.473977765344616"><ele>798.0</ele><time>2026-04-19T08:03:17Z</time></trkpt><trkpt lat="42.5729441493113" lon="13.473946664751399"><ele>798.0</ele><time>2026-04-19T08:03:18Z</time></trkpt><trkpt lat="42.57303372608259" lon="13.473964913241899"><ele>798.0</ele><time>2026-04-19T08:03:19Z</time></trkpt><trkpt lat="42.57311019776267" lon="13.474065491807451"><ele>798.0</ele><time>2026-04-19T08:03:20Z</time></trkpt><trkpt lat="42.5732083144041" lon="13.474172042686627"><ele>798.0</ele><time>2026-04-19T08:03:21Z</time></trkpt><trkpt lat="42.573281475964905" lon="13.474302528012297"><ele>798.0</ele><time>2026-04-19T08:03:22Z</time></trkpt><trkpt lat="42.57335359393498" lon="13.474437313928512"><ele>798.0</ele><time>2026-04-19T08:03:23Z</time></trkpt><trkpt lat="42.57342373720249" lon="13.474580663807988"><ele>798.0</ele><time>2026-04-19T08:03:24Z</time></trkpt><trkpt lat="42.573483240117476" lon="13.474713926662092"><ele>798.0</ele><time>2026-04-19T08:03:25Z</time></trkpt><trkpt lat="42.573550102466285" lon="13.474823678324952"><ele>798.0</ele><time>2026-04-19T08:03:26Z</time></trkpt><trkpt lat="42.573638491769536" lon="13.474887663474467"><ele>798.0</ele><time>2026-04-19T08:03:27Z</time></trkpt><trkpt lat="42.573746575818845" lon="13.474910398287234"><ele>800.75</ele><time>2026-04-19T08:03:28Z</time></trkpt><trkpt lat="42.57387956385115" lon="13.474887485956863"><ele>803.5</ele><time>2026-04-19T08:03:29Z</time></trkpt><trkpt lat="42.57400093565175" lon="13.474847936229663"><ele>806.25</ele><time>2026-04-19T08:03:30Z</time></trkpt><trkpt lat="42.57412757934297" lon="13.474833291670587"><ele>809.0</ele><time>2026-04-19T08:03:31Z</time></trkpt><trkpt lat="42.57425541239794" lon="13.474821986821915"><ele>809.0</ele><time>2026-04-19T08:03:32Z</time></trkpt><trkpt lat="42.574384524913505" lon="13.4748078970055"><ele>809.0</ele><time>2026-04-19T08:03:33Z</time></trkpt><trkpt lat="42.5745112882239" lon="13.474792871194815"><ele>809.0</ele><time>2026-04-19T08:03:34Z</time></trkpt><trkpt lat="42.57462687522028" lon="13.47477295783347"><ele>809.0</ele><time>2026-04-19T08:03:35Z</time></trkpt><trkpt lat="42.574732600795954" lon="13.474734310287879"><ele>810.25</ele><time>2026-04-19T08:03:36Z</time></trkpt><trkpt lat="42.57484088034839" lon="13.474665885008857"><ele>811.5</ele><time>2026-04-19T08:03:37Z</time></trkpt><trkpt lat="42.57494407327324" lon="13.474570655398125"><ele>812.75</ele><time>2026-04-19T08:03:38Z</time></trkpt><trkpt lat="42.57503604662245" lon="13.47447085786264"><ele>814.0</ele><time>2026-04-19T08:03:39Z</time></trkpt><trkpt lat="42.57511794031795" lon="13.474380533743608"><ele>812.6</ele><time>2026-04-19T08:03:40Z</time></trkpt><trkpt lat="42.575202538600124" lon="13.474293600446604"><ele>811.2</ele><time>2026-04-19T08:03:41Z</time></trkpt><trkpt lat="42.57528370256321" lon="13.474210485676009"><ele>809.8000000000001</ele><time>2026-04-19T08:03:42Z</time></trkpt><trkpt lat="42.575354067777795" lon="13.474130112628458"><ele>808.4000000000001</ele><time>2026-04-19T08:03:42.999Z</time></trkpt><trkpt lat="42.57544109593404" lon="13.474102971865857"><ele>807.0</ele><time>2026-04-19T08:03:43.999Z</time></trkpt><trkpt lat="42.57554510288902" lon="13.47413397308374"><ele>807.0</ele><time>2026-04-19T08:03:44.999Z</time></trkpt><trkpt lat="42.575641852358956" lon="13.47424737855912"><ele>807.0</ele><time>2026-04-19T08:03:45.999Z</time></trkpt><trkpt lat="42.57577407435071" lon="13.47431908049053"><ele>807.0</ele><time>2026-04-19T08:03:46.999Z</time></trkpt><trkpt lat="42.57590419260335" lon="13.474396851616133"><ele>807.0</ele><time>2026-04-19T08:03:47.999Z</time></trkpt><trkpt lat="42.57602933809438" lon="13.474454431541085"><ele>807.0</ele><time>2026-04-19T08:03:48.999Z</time></trkpt><trkpt lat="42.576152181568226" lon="13.474503001139153"><ele>807.0</ele><time>2026-04-19T08:03:49.999Z</time></trkpt><trkpt lat="42.576278673732155" lon="13.474546970972197"><ele>807.0</ele><time>2026-04-19T08:03:50.999Z</time></trkpt><trkpt lat="42.57640476177171" lon="13.474602519145389"><ele>807.0</ele><time>2026-04-19T08:03:51.999Z</time></trkpt><trkpt lat="42.5765350137711" lon="13.47463741146166"><ele>810.25</ele><time>2026-04-19T08:03:52.999Z</time></trkpt><trkpt lat="42.57666299545876" lon="13.474667393888474"><ele>813.5</ele><time>2026-04-19T08:03:53.999Z</time></trkpt><trkpt lat="42.5767872463478" lon="13.474689429275823"><ele>816.75</ele><time>2026-04-19T08:03:54.999Z</time></trkpt><trkpt lat="42.57690847406822" lon="13.474708200867417"><ele>820.0</ele><time>2026-04-19T08:03:55.999Z</time></trkpt><trkpt lat="42.57703313889002" lon="13.47472085378045"><ele>820.0</ele><time>2026-04-19T08:03:56.999Z</time></trkpt><trkpt lat="42.57716026783503" lon="13.474738899839103"><ele>820.0</ele><time>2026-04-19T08:03:57.999Z</time></trkpt><trkpt lat="42.577287176747745" lon="13.474766057485299"><ele>820.0</ele><time>2026-04-19T08:03:58.999Z</time></trkpt><trkpt lat="42.57741228408573" lon="13.474814375018502"><ele>820.0</ele><time>2026-04-19T08:03:59.999Z</time></trkpt><trkpt lat="42.57753520416185" lon="13.474884299361799"><ele>820.0</ele><time>2026-04-19T08:04:00.999Z</time></trkpt><trkpt lat="42.57764910821106" lon="13.474977753594652"><ele>820.0</ele><time>2026-04-19T08:04:01.999Z</time></trkpt><trkpt lat="42.57775757820565" lon="13.475095648929878"><ele>820.0</ele><time>2026-04-19T08:04:02.999Z</time></trkpt><trkpt lat="42.577871140167915" lon="13.47522422927655"><ele>820.0</ele><time>2026-04-19T08:04:03.999Z</time></trkpt><trkpt lat="42.57798602229196" lon="13.475349967802266"><ele>822.0</ele><time>2026-04-19T08:04:04.999Z</time></trkpt><trkpt lat="42.57810315372532" lon="13.47546499859254"><ele>824.0</ele><time>2026-04-19T08:04:05.999Z</time></trkpt><trkpt lat="42.57822821298402" lon="13.475583776718212"><ele>826.0</ele><time>2026-04-19T08:04:06.999Z</time></trkpt><trkpt lat="42.57835945491874" lon="13.475686043741714"><ele>828.0</ele><time>2026-04-19T08:04:07.999Z</time></trkpt><trkpt lat="42.57849774844995" lon="13.475772568614659"><ele>828.0</ele><time>2026-04-19T08:04:08.999Z</time></trkpt><trkpt lat="42.5786419123475" lon="13.475845344219993"><ele>828.0</ele><time>2026-04-19T08:04:09.999Z</time></trkpt><trkpt lat="42.578786291989815" lon="13.475911094661011"><ele>828.0</ele><time>2026-04-19T08:04:10.999Z</time></trkpt><trkpt lat="42.57893192758392" lon="13.47597157094082"><ele>826.25</ele><time>2026-04-19T08:04:11.999Z</time></trkpt><trkpt lat="42.579061654759975" lon="13.476028409498978"><ele>824.5</ele><time>2026-04-19T08:04:12.999Z</time></trkpt><trkpt lat="42.57917973323218" lon="13.476081970305062"><ele>822.75</ele><time>2026-04-19T08:04:13.999Z</time></trkpt><trkpt lat="42.57930179705919" lon="13.476102553945541"><ele>821.0</ele><time>2026-04-19T08:04:14.999Z</time></trkpt><trkpt lat="42.579435330710886" lon="13.476073581784215"><ele>823.0</ele><time>2026-04-19T08:04:15.999Z</time></trkpt><trkpt lat="42.5795804915739" lon="13.476019002108181"><ele>825.0</ele><time>2026-04-19T08:04:16.999Z</time></trkpt><trkpt lat="42.57970828086933" lon="13.475965075141081"><ele>827.0</ele><time>2026-04-19T08:04:17.999Z</time></trkpt><trkpt lat="42.57982164580832" lon="13.475933153134426"><ele>829.0</ele><time>2026-04-19T08:04:18.999Z</time></trkpt><trkpt lat="42.579927310301365" lon="13.475972792627088"><ele>829.0</ele><time>2026-04-19T08:04:19.999Z</time></trkpt><trkpt lat="42.58002368676777" lon="13.476075003472147"><ele>829.0</ele><time>2026-04-19T08:04:20.999Z</time></trkpt><trkpt lat="42.58007915510366" lon="13.476212499378498"><ele>829.0</ele><time>2026-04-19T08:04:21.999Z</time></trkpt><trkpt lat="42.580113106583404" lon="13.47638589780084"><ele>829.0</ele><time>2026-04-19T08:04:22.999Z</time></trkpt><trkpt lat="42.58012580226624" lon="13.476553286459854"><ele>833.75</ele><time>2026-04-19T08:04:23.999Z</time></trkpt><trkpt lat="42.58018184463187" lon="13.476688662487447"><ele>838.5</ele><time>2026-04-19T08:04:24.999Z</time></trkpt><trkpt lat="42.580298592325796" lon="13.476816485778958"><ele>843.25</ele><time>2026-04-19T08:04:25.999Z</time></trkpt><trkpt lat="42.58043985550387" lon="13.476926690892299"><ele>848.0</ele><time>2026-04-19T08:04:26.999Z</time></trkpt><trkpt lat="42.5806037752177" lon="13.476997374743677"><ele>848.0</ele><time>2026-04-19T08:04:27.999Z</time></trkpt><trkpt lat="42.58080417717369" lon="13.477044354779604"><ele>848.0</ele><time>2026-04-19T08:04:28.999Z</time></trkpt><trkpt lat="42.58099856322849" lon="13.47708069780128"><ele>848.0</ele><time>2026-04-19T08:04:29.999Z</time></trkpt><trkpt lat="42.581159667839565" lon="13.477109211300634"><ele>849.0</ele><time>2026-04-19T08:04:30.999Z</time></trkpt><trkpt lat="42.58130940263474" lon="13.477136168998499"><ele>850.0</ele><time>2026-04-19T08:04:31.999Z</time></trkpt><trkpt lat="42.58144672984652" lon="13.477137203069544"><ele>851.0</ele><time>2026-04-19T08:04:32.999Z</time></trkpt><trkpt lat="42.58158470792555" lon="13.477077273785333"><ele>852.0</ele><time>2026-04-19T08:04:33.999Z</time></trkpt><trkpt lat="42.581737338249596" lon="13.476982549390213"><ele>852.0</ele><time>2026-04-19T08:04:34.999Z</time></trkpt><trkpt lat="42.58188381565868" lon="13.476888942579203"><ele>852.0</ele><time>2026-04-19T08:04:35.999Z</time></trkpt><trkpt lat="42.58201559142966" lon="13.476812781548468"><ele>852.0</ele><time>2026-04-19T08:04:36.999Z</time></trkpt><trkpt lat="42.58213435142523" lon="13.476776310901803"><ele>852.0</ele><time>2026-04-19T08:04:37.999Z</time></trkpt><trkpt lat="42.582240767010454" lon="13.476703267605904"><ele>852.0</ele><time>2026-04-19T08:04:38.999Z</time></trkpt><trkpt lat="42.58234062935133" lon="13.476658947468957"><ele>852.0</ele><time>2026-04-19T08:04:39.999Z</time></trkpt><trkpt lat="42.58243564053606" lon="13.476663807972667"><ele>852.0</ele><time>2026-04-19T08:04:40.999Z</time></trkpt><trkpt lat="42.582521944392944" lon="13.47668690377378"><ele>852.0</ele><time>2026-04-19T08:04:41.999Z</time></trkpt><trkpt lat="42.58258402269085" lon="13.476817728618109"><ele>852.0</ele><time>2026-04-19T08:04:42.999Z</time></trkpt><trkpt lat="42.58263318029958" lon="13.476962930194235"><ele>854.0</ele><time>2026-04-19T08:04:43.999Z</time></trkpt><trkpt lat="42.58260621606321" lon="13.477168588205952"><ele>856.0</ele><time>2026-04-19T08:04:44.999Z</time></trkpt><trkpt lat="42.58262122273444" lon="13.477443813394112"><ele>858.0</ele><time>2026-04-19T08:04:45.999Z</time></trkpt><trkpt lat="42.5826498133664" lon="13.47773685095028"><ele>857.3333333333333</ele><time>2026-04-19T08:04:46.999Z</time></trkpt><trkpt lat="42.582725209615106" lon="13.478016153891675"><ele>856.6666666666666</ele><time>2026-04-19T08:04:47.999Z</time></trkpt><trkpt lat="42.58279748249015" lon="13.478244253848965"><ele>856.0</ele><time>2026-04-19T08:04:48.999Z</time></trkpt><trkpt lat="42.58285434311133" lon="13.478457974292672"><ele>856.0</ele><time>2026-04-19T08:04:49.999Z</time></trkpt><trkpt lat="42.58286726591353" lon="13.478663329388956"><ele>856.0</ele><time>2026-04-19T08:04:50.999Z</time></trkpt><trkpt lat="42.582889867466626" lon="13.478843611684791"><ele>856.0</ele><time>2026-04-19T08:04:51.999Z</time></trkpt><trkpt lat="42.58288432210521" lon="13.478964087403645"><ele>856.0</ele><time>2026-04-19T08:04:52.999Z</time></trkpt><trkpt lat="42.58290949002912" lon="13.479061061747618"><ele>856.5</ele><time>2026-04-19T08:04:53.999Z</time></trkpt><trkpt lat="42.58297299580085" lon="13.479144871087277"><ele>857.0</ele><time>2026-04-19T08:04:54.999Z</time></trkpt><trkpt lat="42.583119286996116" lon="13.47922222194612"><ele>857.5</ele><time>2026-04-19T08:04:55.999Z</time></trkpt><trkpt lat="42.583285058399476" lon="13.47931308417442"><ele>858.0</ele><time>2026-04-19T08:04:57Z</time></trkpt><trkpt lat="42.583428898910746" lon="13.479417533933164"><ele>858.0</ele><time>2026-04-19T08:04:58Z</time></trkpt><trkpt lat="42.58354610779209" lon="13.479504168773445"><ele>858.0</ele><time>2026-04-19T08:04:59Z</time></trkpt><trkpt lat="42.58364988061747" lon="13.479568100912319"><ele>858.0</ele><time>2026-04-19T08:05:00Z</time></trkpt><trkpt lat="42.58374006498053" lon="13.479598218215651"><ele>858.0</ele><time>2026-04-19T08:05:01Z</time></trkpt><trkpt lat="42.583816839127216" lon="13.479589171596222"><ele>858.0</ele><time>2026-04-19T08:05:02Z</time></trkpt><trkpt lat="42.583885357345586" lon="13.479547645978794"><ele>858.8</ele><time>2026-04-19T08:05:03Z</time></trkpt><trkpt lat="42.58391510156624" lon="13.47939531267511"><ele>859.5999999999999</ele><time>2026-04-19T08:05:04Z</time></trkpt><trkpt lat="42.58391606620257" lon="13.47921525256037"><ele>860.4000000000001</ele><time>2026-04-19T08:05:05Z</time></trkpt><trkpt lat="42.58391402793707" lon="13.479065732463162"><ele>861.2</ele><time>2026-04-19T08:05:06Z</time></trkpt><trkpt lat="42.583913532644104" lon="13.478949888508746"><ele>862.0</ele><time>2026-04-19T08:05:07Z</time></trkpt><trkpt lat="42.58389990487143" lon="13.478861188913166"><ele>861.9999999999999</ele><time>2026-04-19T08:05:08Z</time></trkpt><trkpt lat="42.58387517964162" lon="13.478778688314847"><ele>862.0</ele><time>2026-04-19T08:05:09Z</time></trkpt><trkpt lat="42.58381807645959" lon="13.478625648660493"><ele>862.0</ele><time>2026-04-19T08:05:11Z</time></trkpt><trkpt lat="42.58376796410819" lon="13.478531257834943"><ele>862.0</ele><time>2026-04-19T08:05:12Z</time></trkpt><trkpt lat="42.58373709136072" lon="13.478412369843891"><ele>861.9999999999999</ele><time>2026-04-19T08:05:13Z</time></trkpt><trkpt lat="42.583700358380476" lon="13.478326757059875"><ele>862.0</ele><time>2026-04-19T08:05:14Z</time></trkpt><trkpt lat="42.58365336275596" lon="13.478258608118857"><ele>862.1428571428572</ele><time>2026-04-19T08:05:15Z</time></trkpt><trkpt lat="42.58360535538547" lon="13.478159358100818"><ele>862.2857142857142</ele><time>2026-04-19T08:05:16Z</time></trkpt><trkpt lat="42.583570066331944" lon="13.478070005391217"><ele>862.4285714285714</ele><time>2026-04-19T08:05:17Z</time></trkpt><trkpt lat="42.58354503296368" lon="13.477988233784867"><ele>862.5714285714287</ele><time>2026-04-19T08:05:18Z</time></trkpt><trkpt lat="42.583527621931644" lon="13.477898219981133"><ele>862.7142857142858</ele><time>2026-04-19T08:05:19Z</time></trkpt><trkpt lat="42.583510987519475" lon="13.477801533097615"><ele>862.8571428571429</ele><time>2026-04-19T08:05:20Z</time></trkpt><trkpt lat="42.58349682737869" lon="13.47770072437804"><ele>863.0</ele><time>2026-04-19T08:05:21Z</time></trkpt><trkpt lat="42.58348700257305" lon="13.477595956513293"><ele>863.0</ele><time>2026-04-19T08:05:22Z</time></trkpt><trkpt lat="42.58351230879155" lon="13.477461647360544"><ele>863.0</ele><time>2026-04-19T08:05:23Z</time></trkpt><trkpt lat="42.58347648412031" lon="13.47732663820701"><ele>863.0</ele><time>2026-04-19T08:05:24Z</time></trkpt><trkpt lat="42.58342332653722" lon="13.47713482038442"><ele>863.0</ele><time>2026-04-19T08:05:25Z</time></trkpt><trkpt lat="42.58339067856481" lon="13.476929741030542"><ele>865.25</ele><time>2026-04-19T08:05:26Z</time></trkpt><trkpt lat="42.58335811539626" lon="13.476730061053887"><ele>867.5</ele><time>2026-04-19T08:05:27Z</time></trkpt><trkpt lat="42.58332223032494" lon="13.476557055977054"><ele>869.75</ele><time>2026-04-19T08:05:28Z</time></trkpt><trkpt lat="42.58328527718027" lon="13.476404156385705"><ele>872.0</ele><time>2026-04-19T08:05:29Z</time></trkpt><trkpt lat="42.58323454813703" lon="13.476265847194716"><ele>872.25</ele><time>2026-04-19T08:05:30Z</time></trkpt><trkpt lat="42.58316808298587" lon="13.476134813068068"><ele>872.5</ele><time>2026-04-19T08:05:31Z</time></trkpt><trkpt lat="42.583065231328035" lon="13.476007606416024"><ele>872.75</ele><time>2026-04-19T08:05:32Z</time></trkpt><trkpt lat="42.582942635342185" lon="13.475871429188368"><ele>873.0</ele><time>2026-04-19T08:05:33Z</time></trkpt><trkpt lat="42.58282518424961" lon="13.475759471111175"><ele>873.0</ele><time>2026-04-19T08:05:34Z</time></trkpt><trkpt lat="42.58271017171617" lon="13.4756866344546"><ele>873.0</ele><time>2026-04-19T08:05:35Z</time></trkpt><trkpt lat="42.582600255624364" lon="13.475636422774746"><ele>873.0</ele><time>2026-04-19T08:05:36Z</time></trkpt><trkpt lat="42.582496387850576" lon="13.475601393619458"><ele>873.0</ele><time>2026-04-19T08:05:37Z</time></trkpt><trkpt lat="42.58240267580393" lon="13.475576539443818"><ele>873.0</ele><time>2026-04-19T08:05:38Z</time></trkpt><trkpt lat="42.58232322386621" lon="13.475547497605556"><ele>873.0</ele><time>2026-04-19T08:05:39Z</time></trkpt><trkpt lat="42.58227025340086" lon="13.475484248393682"><ele>873.0</ele><time>2026-04-19T08:05:40Z</time></trkpt><trkpt lat="42.582216374154896" lon="13.475412391474453"><ele>873.0</ele><time>2026-04-19T08:05:41Z</time></trkpt><trkpt lat="42.582239629401805" lon="13.475233468953043"><ele>873.0</ele><time>2026-04-19T08:05:42Z</time></trkpt><trkpt lat="42.58225503577184" lon="13.475105477288437"><ele>873.0</ele><time>2026-04-19T08:05:43Z</time></trkpt><trkpt lat="42.58227084289081" lon="13.475004237880805"><ele>874.0</ele><time>2026-04-19T08:05:44Z</time></trkpt><trkpt lat="42.58228510666326" lon="13.474910226048438"><ele>875.0</ele><time>2026-04-19T08:05:45Z</time></trkpt><trkpt lat="42.58230078789799" lon="13.47481361378794"><ele>876.0</ele><time>2026-04-19T08:05:46Z</time></trkpt><trkpt lat="42.582314470674646" lon="13.474718007707425"><ele>877.0</ele><time>2026-04-19T08:05:47Z</time></trkpt><trkpt lat="42.58233127063029" lon="13.474613415202771"><ele>878.0</ele><time>2026-04-19T08:05:48Z</time></trkpt><trkpt lat="42.58234624568011" lon="13.474505665219489"><ele>879.0</ele><time>2026-04-19T08:05:49Z</time></trkpt><trkpt lat="42.582360590363244" lon="13.47439807938897"><ele>879.0</ele><time>2026-04-19T08:05:50Z</time></trkpt><trkpt lat="42.58238104770447" lon="13.474286136972495"><ele>879.0000000000001</ele><time>2026-04-19T08:05:51Z</time></trkpt><trkpt lat="42.58241075448224" lon="13.474172966652803"><ele>879.0000000000001</ele><time>2026-04-19T08:05:52Z</time></trkpt><trkpt lat="42.58246228058465" lon="13.474066651170775"><ele>879.0</ele><time>2026-04-19T08:05:53Z</time></trkpt><trkpt lat="42.58253046730119" lon="13.473965403172588"><ele>879.0</ele><time>2026-04-19T08:05:54Z</time></trkpt><trkpt lat="42.58260787048352" lon="13.47386908097595"><ele>879.0</ele><time>2026-04-19T08:05:55Z</time></trkpt><trkpt lat="42.58269387750542" lon="13.473780504115476"><ele>879.0000000000001</ele><time>2026-04-19T08:05:56Z</time></trkpt><trkpt lat="42.582784592873594" lon="13.473698941644734"><ele>879.0000000000001</ele><time>2026-04-19T08:05:57Z</time></trkpt><trkpt lat="42.58288113528126" lon="13.4736188405159"><ele>879.0</ele><time>2026-04-19T08:05:58Z</time></trkpt><trkpt lat="42.58297908935031" lon="13.473533324404068"><ele>879.0</ele><time>2026-04-19T08:05:59Z</time></trkpt><trkpt lat="42.58307989005804" lon="13.473448047286187"><ele>882.0</ele><time>2026-04-19T08:06:00Z</time></trkpt><trkpt lat="42.58319086730703" lon="13.473377908196525"><ele>885.0</ele><time>2026-04-19T08:06:01Z</time></trkpt><trkpt lat="42.58330964219805" lon="13.4733294886382"><ele>888.0</ele><time>2026-04-19T08:06:01.999Z</time></trkpt><trkpt lat="42.58341523365375" lon="13.473281783814356"><ele>891.0</ele><time>2026-04-19T08:06:02.999Z</time></trkpt><trkpt lat="42.58350699534799" lon="13.473220896320745"><ele>891.0</ele><time>2026-04-19T08:06:03.999Z</time></trkpt><trkpt lat="42.583579385506525" lon="13.473129764555585"><ele>890.9999999999999</ele><time>2026-04-19T08:06:04.999Z</time></trkpt><trkpt lat="42.58362232551175" lon="13.473007044734219"><ele>890.9999999999999</ele><time>2026-04-19T08:06:05.999Z</time></trkpt><trkpt lat="42.58363748297056" lon="13.472860119478257"><ele>891.0</ele><time>2026-04-19T08:06:06.999Z</time></trkpt><trkpt lat="42.58361821967983" lon="13.472713767052396"><ele>891.0</ele><time>2026-04-19T08:06:07.999Z</time></trkpt><trkpt lat="42.5835990945617" lon="13.472597736623257"><ele>893.5999999999999</ele><time>2026-04-19T08:06:08.999Z</time></trkpt><trkpt lat="42.58362775869827" lon="13.472470790779875"><ele>896.1999999999999</ele><time>2026-04-19T08:06:09.999Z</time></trkpt><trkpt lat="42.583696785918725" lon="13.47235887902262"><ele>898.8000000000001</ele><time>2026-04-19T08:06:10.999Z</time></trkpt><trkpt lat="42.58378250184837" lon="13.472267861856032"><ele>901.4000000000001</ele><time>2026-04-19T08:06:11.999Z</time></trkpt><trkpt lat="42.583871939165164" lon="13.472203784647908"><ele>904.0</ele><time>2026-04-19T08:06:12.999Z</time></trkpt><trkpt lat="42.58394766903926" lon="13.472159237245751"><ele>903.9999999999999</ele><time>2026-04-19T08:06:13.999Z</time></trkpt><trkpt lat="42.584013354340094" lon="13.472116287100773"><ele>904.0</ele><time>2026-04-19T08:06:14.999Z</time></trkpt><trkpt lat="42.584062373853115" lon="13.472040929025486"><ele>904.0</ele><time>2026-04-19T08:06:15.999Z</time></trkpt><trkpt lat="42.584082688558986" lon="13.471933656778045"><ele>904.0</ele><time>2026-04-19T08:06:16.999Z</time></trkpt><trkpt lat="42.584071551896784" lon="13.471816791598085"><ele>903.9999999999999</ele><time>2026-04-19T08:06:17.999Z</time></trkpt><trkpt lat="42.58402892029493" lon="13.471701691599183"><ele>904.0</ele><time>2026-04-19T08:06:18.999Z</time></trkpt><trkpt lat="42.58397238454183" lon="13.471588944410161"><ele>903.2</ele><time>2026-04-19T08:06:19.999Z</time></trkpt><trkpt lat="42.58386815929479" lon="13.47154346201556"><ele>902.4000000000001</ele><time>2026-04-19T08:06:20.999Z</time></trkpt><trkpt lat="42.583768635863414" lon="13.471495185507907"><ele>901.6</ele><time>2026-04-19T08:06:21.999Z</time></trkpt><trkpt lat="42.58368007835746" lon="13.471452667261593"><ele>900.8</ele><time>2026-04-19T08:06:22.999Z</time></trkpt><trkpt lat="42.583617666604596" lon="13.471379676015873"><ele>900.0</ele><time>2026-04-19T08:06:23.999Z</time></trkpt><trkpt lat="42.58358417851274" lon="13.471278349320764"><ele>900.6</ele><time>2026-04-19T08:06:24.999Z</time></trkpt><trkpt lat="42.5835859259036" lon="13.471165821228057"><ele>901.2</ele><time>2026-04-19T08:06:25.999Z</time></trkpt><trkpt lat="42.583629887174695" lon="13.471075067804852"><ele>901.8</ele><time>2026-04-19T08:06:26.999Z</time></trkpt><trkpt lat="42.58369793488051" lon="13.471009117951365"><ele>902.4</ele><time>2026-04-19T08:06:27.999Z</time></trkpt><trkpt lat="42.583788204108096" lon="13.470968759884036"><ele>903.0</ele><time>2026-04-19T08:06:28.999Z</time></trkpt><trkpt lat="42.583899936072214" lon="13.470935341747726"><ele>903.0</ele><time>2026-04-19T08:06:29.999Z</time></trkpt><trkpt lat="42.584021427439076" lon="13.47090014539351"><ele>903.0</ele><time>2026-04-19T08:06:30.999Z</time></trkpt><trkpt lat="42.58410952614519" lon="13.470869289471057"><ele>903.0</ele><time>2026-04-19T08:06:31.999Z</time></trkpt><trkpt lat="42.58418951271192" lon="13.470840394881087"><ele>903.0</ele><time>2026-04-19T08:06:32.999Z</time></trkpt><trkpt lat="42.58426696193573" lon="13.470806116000084"><ele>903.0</ele><time>2026-04-19T08:06:33.999Z</time></trkpt><trkpt lat="42.584334549301914" lon="13.470743115192318"><ele>903.0</ele><time>2026-04-19T08:06:34.999Z</time></trkpt><trkpt lat="42.58436860238151" lon="13.47065092841841"><ele>903.0</ele><time>2026-04-19T08:06:35.999Z</time></trkpt><trkpt lat="42.584367473709705" lon="13.470544562608335"><ele>903.0</ele><time>2026-04-19T08:06:36.999Z</time></trkpt><trkpt lat="42.58433548710938" lon="13.470439432995612"><ele>903.0</ele><time>2026-04-19T08:06:37.999Z</time></trkpt><trkpt lat="42.584273702623825" lon="13.470353543012749"><ele>903.0</ele><time>2026-04-19T08:06:38.999Z</time></trkpt><trkpt lat="42.584199530701255" lon="13.470281034186403"><ele>903.0</ele><time>2026-04-19T08:06:39.999Z</time></trkpt><trkpt lat="42.58411467411436" lon="13.470218415670269"><ele>903.1666666666666</ele><time>2026-04-19T08:06:40.999Z</time></trkpt><trkpt lat="42.58403528965134" lon="13.470142950739502"><ele>903.3333333333333</ele><time>2026-04-19T08:06:41.999Z</time></trkpt><trkpt lat="42.58397972404369" lon="13.470067428622993"><ele>903.5</ele><time>2026-04-19T08:06:42.999Z</time></trkpt><trkpt lat="42.58394782865783" lon="13.469983245959183"><ele>903.6666666666666</ele><time>2026-04-19T08:06:43.999Z</time></trkpt><trkpt lat="42.58394670517137" lon="13.46988003013601"><ele>903.8333333333333</ele><time>2026-04-19T08:06:44.999Z</time></trkpt><trkpt lat="42.58397100562251" lon="13.469777203936081"><ele>904.0</ele><time>2026-04-19T08:06:45.999Z</time></trkpt><trkpt lat="42.58402041019788" lon="13.469696020051906"><ele>904.0</ele><time>2026-04-19T08:06:46.999Z</time></trkpt><trkpt lat="42.584097434636696" lon="13.469630903770403"><ele>904.0000000000001</ele><time>2026-04-19T08:06:47.999Z</time></trkpt><trkpt lat="42.584181927111366" lon="13.469574385137612"><ele>904.0000000000001</ele><time>2026-04-19T08:06:48.999Z</time></trkpt><trkpt lat="42.5842695635978" lon="13.469515617383756"><ele>904.0</ele><time>2026-04-19T08:06:49.999Z</time></trkpt><trkpt lat="42.58436294550319" lon="13.469453451767947"><ele>904.0</ele><time>2026-04-19T08:06:50.999Z</time></trkpt><trkpt lat="42.58446033655149" lon="13.469389831748671"><ele>907.8000000000001</ele><time>2026-04-19T08:06:51.999Z</time></trkpt><trkpt lat="42.58455856378521" lon="13.469319256742292"><ele>911.6000000000001</ele><time>2026-04-19T08:06:52.999Z</time></trkpt><trkpt lat="42.58466080444718" lon="13.46926452436317"><ele>915.4</ele><time>2026-04-19T08:06:53.999Z</time></trkpt><trkpt lat="42.584749843710796" lon="13.469206055861168"><ele>919.2</ele><time>2026-04-19T08:06:54.999Z</time></trkpt><trkpt lat="42.5848217150014" lon="13.469132927324349"><ele>923.0</ele><time>2026-04-19T08:06:55.999Z</time></trkpt><trkpt lat="42.584875279597526" lon="13.469035602761243"><ele>923.0</ele><time>2026-04-19T08:06:56.999Z</time></trkpt><trkpt lat="42.58490090285248" lon="13.468924284451672"><ele>923.0</ele><time>2026-04-19T08:06:57.999Z</time></trkpt><trkpt lat="42.5849054818522" lon="13.468803619495459"><ele>923.0</ele><time>2026-04-19T08:06:58.999Z</time></trkpt><trkpt lat="42.584903058700014" lon="13.468680670521525"><ele>923.0</ele><time>2026-04-19T08:06:59.999Z</time></trkpt><trkpt lat="42.58490241013563" lon="13.468554541909288"><ele>923.0</ele><time>2026-04-19T08:07:00.999Z</time></trkpt><trkpt lat="42.584929037967584" lon="13.468420295366421"><ele>920.4</ele><time>2026-04-19T08:07:01.999Z</time></trkpt><trkpt lat="42.58497953732668" lon="13.468301227674006"><ele>917.8</ele><time>2026-04-19T08:07:03Z</time></trkpt><trkpt lat="42.585054452765725" lon="13.468202817793484"><ele>915.2</ele><time>2026-04-19T08:07:04Z</time></trkpt><trkpt lat="42.585140847883586" lon="13.468128195688793"><ele>912.6</ele><time>2026-04-19T08:07:05Z</time></trkpt><trkpt lat="42.58523547545416" lon="13.468073452516746"><ele>910.0</ele><time>2026-04-19T08:07:06Z</time></trkpt><trkpt lat="42.585333138936114" lon="13.468023681324764"><ele>914.6</ele><time>2026-04-19T08:07:07Z</time></trkpt><trkpt lat="42.58543182191284" lon="13.467971050686943"><ele>919.2</ele><time>2026-04-19T08:07:08Z</time></trkpt><trkpt lat="42.58552210030841" lon="13.46791535361375"><ele>923.8</ele><time>2026-04-19T08:07:09Z</time></trkpt><trkpt lat="42.585600472527624" lon="13.467844252455247"><ele>928.4</ele><time>2026-04-19T08:07:10Z</time></trkpt><trkpt lat="42.585660371553274" lon="13.467745667437281"><ele>933.0</ele><time>2026-04-19T08:07:11Z</time></trkpt><trkpt lat="42.58570179901718" lon="13.467628279460857"><ele>933.0</ele><time>2026-04-19T08:07:12Z</time></trkpt><trkpt lat="42.58572671906672" lon="13.467505488745285"><ele>933.0</ele><time>2026-04-19T08:07:13Z</time></trkpt><trkpt lat="42.5857328946937" lon="13.46738535266784"><ele>933.0</ele><time>2026-04-19T08:07:14Z</time></trkpt><trkpt lat="42.58571071687664" lon="13.467270228817833"><ele>933.0</ele><time>2026-04-19T08:07:15Z</time></trkpt><trkpt lat="42.58566053024917" lon="13.46716842924746"><ele>933.0</ele><time>2026-04-19T08:07:16Z</time></trkpt><trkpt lat="42.5855913586823" lon="13.467089819516996"><ele>931.4</ele><time>2026-04-19T08:07:17Z</time></trkpt><trkpt lat="42.58551153769084" lon="13.4670312596734"><ele>929.8</ele><time>2026-04-19T08:07:18Z</time></trkpt><trkpt lat="42.58541372360453" lon="13.466974223684689"><ele>928.2</ele><time>2026-04-19T08:07:19Z</time></trkpt><trkpt lat="42.58531567998774" lon="13.466913275302268"><ele>926.6</ele><time>2026-04-19T08:07:20Z</time></trkpt><trkpt lat="42.585219011960284" lon="13.466850981120833"><ele>925.0</ele><time>2026-04-19T08:07:21Z</time></trkpt><trkpt lat="42.585121667121236" lon="13.466788310151802"><ele>925.0</ele><time>2026-04-19T08:07:22Z</time></trkpt><trkpt lat="42.585035626789065" lon="13.466730227071803"><ele>925.0</ele><time>2026-04-19T08:07:23Z</time></trkpt><trkpt lat="42.58495972726093" lon="13.466654003382786"><ele>925.0</ele><time>2026-04-19T08:07:24Z</time></trkpt><trkpt lat="42.58489690673313" lon="13.466552564440358"><ele>925.0</ele><time>2026-04-19T08:07:25Z</time></trkpt><trkpt lat="42.58484320441341" lon="13.466436924768859"><ele>925.0</ele><time>2026-04-19T08:07:26Z</time></trkpt><trkpt lat="42.584792858031186" lon="13.466322516649612"><ele>925.4999999999999</ele><time>2026-04-19T08:07:27Z</time></trkpt><trkpt lat="42.58475979038009" lon="13.46621537461245"><ele>926.0</ele><time>2026-04-19T08:07:28Z</time></trkpt><trkpt lat="42.584743753760264" lon="13.466102476851614"><ele>926.5</ele><time>2026-04-19T08:07:29Z</time></trkpt><trkpt lat="42.58475856691579" lon="13.465987821520795"><ele>927.0</ele><time>2026-04-19T08:07:30Z</time></trkpt><trkpt lat="42.58479722435033" lon="13.46589123588759"><ele>927.4999999999999</ele><time>2026-04-19T08:07:31Z</time></trkpt><trkpt lat="42.58486245996735" lon="13.465808109348131"><ele>928.0</ele><time>2026-04-19T08:07:32Z</time></trkpt><trkpt lat="42.58495088207596" lon="13.46573238650974"><ele>928.0</ele><time>2026-04-19T08:07:33Z</time></trkpt><trkpt lat="42.585042846315304" lon="13.465664493446004"><ele>928.0</ele><time>2026-04-19T08:07:34Z</time></trkpt><trkpt lat="42.585138574365345" lon="13.465593736678349"><ele>928.0</ele><time>2026-04-19T08:07:35Z</time></trkpt><trkpt lat="42.5852364250903" lon="13.46552485972483"><ele>928.0</ele><time>2026-04-19T08:07:36Z</time></trkpt><trkpt lat="42.58533605986037" lon="13.465458187374585"><ele>928.0</ele><time>2026-04-19T08:07:37Z</time></trkpt><trkpt lat="42.585448368436055" lon="13.465385925852434"><ele>928.4</ele><time>2026-04-19T08:07:38Z</time></trkpt><trkpt lat="42.58555729079281" lon="13.465317693276887"><ele>928.8</ele><time>2026-04-19T08:07:39Z</time></trkpt><trkpt lat="42.58565060959337" lon="13.465253536776622"><ele>929.2</ele><time>2026-04-19T08:07:40Z</time></trkpt><trkpt lat="42.58574972297635" lon="13.465185276408258"><ele>929.6</ele><time>2026-04-19T08:07:41Z</time></trkpt><trkpt lat="42.58583543892729" lon="13.465122067846586"><ele>930.0</ele><time>2026-04-19T08:07:42Z</time></trkpt><trkpt lat="42.58590208271122" lon="13.46503920621427"><ele>930.0</ele><time>2026-04-19T08:07:43Z</time></trkpt><trkpt lat="42.585933911469574" lon="13.464946762876313"><ele>930.0</ele><time>2026-04-19T08:07:44Z</time></trkpt><trkpt lat="42.58592188499741" lon="13.464833640771081"><ele>930.0</ele><time>2026-04-19T08:07:45Z</time></trkpt><trkpt lat="42.5858879070742" lon="13.464713452698515"><ele>930.0</ele><time>2026-04-19T08:07:46Z</time></trkpt><trkpt lat="42.5858259627083" lon="13.464603250505403"><ele>930.0</ele><time>2026-04-19T08:07:47Z</time></trkpt><trkpt lat="42.585753152986705" lon="13.464502477293873"><ele>930.8</ele><time>2026-04-19T08:07:48Z</time></trkpt><trkpt lat="42.58566733225747" lon="13.464415503350155"><ele>931.6</ele><time>2026-04-19T08:07:49Z</time></trkpt><trkpt lat="42.585566931003115" lon="13.464355895497233"><ele>932.4000000000001</ele><time>2026-04-19T08:07:50Z</time></trkpt><trkpt lat="42.58545438816449" lon="13.464324334700772"><ele>933.2</ele><time>2026-04-19T08:07:51Z</time></trkpt><trkpt lat="42.585338231034854" lon="13.464305216612107"><ele>934.0</ele><time>2026-04-19T08:07:52Z</time></trkpt><trkpt lat="42.585224570342895" lon="13.46428400006279"><ele>934.0</ele><time>2026-04-19T08:07:53Z</time></trkpt><trkpt lat="42.58511272155" lon="13.46425715386539"><ele>934.0000000000001</ele><time>2026-04-19T08:07:54Z</time></trkpt><trkpt lat="42.585000462418286" lon="13.464229321265249"><ele>934.0000000000001</ele><time>2026-04-19T08:07:55Z</time></trkpt><trkpt lat="42.584894418412766" lon="13.464215979670973"><ele>934.0</ele><time>2026-04-19T08:07:56Z</time></trkpt><trkpt lat="42.58480655657242" lon="13.464189062161097"><ele>934.0</ele><time>2026-04-19T08:07:57Z</time></trkpt><trkpt lat="42.58473614354796" lon="13.46413593247937"><ele>934.0</ele><time>2026-04-19T08:07:58Z</time></trkpt><trkpt lat="42.58470821020901" lon="13.464028167545049"><ele>934.0000000000001</ele><time>2026-04-19T08:07:59Z</time></trkpt><trkpt lat="42.5847199127058" lon="13.46389907498999"><ele>934.0000000000001</ele><time>2026-04-19T08:08:00Z</time></trkpt><trkpt lat="42.58474913471198" lon="13.463773140230021"><ele>934.0</ele><time>2026-04-19T08:08:01Z</time></trkpt><trkpt lat="42.584771724383955" lon="13.463636113898321"><ele>934.0</ele><time>2026-04-19T08:08:02Z</time></trkpt><trkpt lat="42.584786060014565" lon="13.463459335652244"><ele>938.5</ele><time>2026-04-19T08:08:03Z</time></trkpt><trkpt lat="42.58479037502878" lon="13.46323806407486"><ele>943.0</ele><time>2026-04-19T08:08:04Z</time></trkpt><trkpt lat="42.584795107063044" lon="13.463035858895289"><ele>947.5</ele><time>2026-04-19T08:08:05Z</time></trkpt><trkpt lat="42.58480047486044" lon="13.462875876792308"><ele>952.0</ele><time>2026-04-19T08:08:06Z</time></trkpt><trkpt lat="42.58480184683587" lon="13.462725095320959"><ele>955.2</ele><time>2026-04-19T08:08:07Z</time></trkpt><trkpt lat="42.58478305402356" lon="13.462596941067773"><ele>958.4000000000001</ele><time>2026-04-19T08:08:07.999Z</time></trkpt><trkpt lat="42.58474544151496" lon="13.462479105332632"><ele>961.5999999999999</ele><time>2026-04-19T08:08:08.999Z</time></trkpt><trkpt lat="42.58469557411264" lon="13.462362475911286"><ele>964.8</ele><time>2026-04-19T08:08:09.999Z</time></trkpt><trkpt lat="42.58458806346435" lon="13.462291485342686"><ele>968.0</ele><time>2026-04-19T08:08:10.999Z</time></trkpt><trkpt lat="42.58449804564927" lon="13.462198958639238"><ele>962.8</ele><time>2026-04-19T08:08:11.999Z</time></trkpt><trkpt lat="42.5844100406478" lon="13.462104861458641"><ele>957.5999999999999</ele><time>2026-04-19T08:08:12.999Z</time></trkpt><trkpt lat="42.58435594675704" lon="13.461988971901265"><ele>952.4000000000001</ele><time>2026-04-19T08:08:13.999Z</time></trkpt><trkpt lat="42.58430954615373" lon="13.461871565852611"><ele>947.2</ele><time>2026-04-19T08:08:14.999Z</time></trkpt><trkpt lat="42.58428393341577" lon="13.461736573517284"><ele>942.0</ele><time>2026-04-19T08:08:15.999Z</time></trkpt><trkpt lat="42.584231943266964" lon="13.461600268342366"><ele>942.0</ele><time>2026-04-19T08:08:16.999Z</time></trkpt><trkpt lat="42.58419706538532" lon="13.461460165153603"><ele>942.0</ele><time>2026-04-19T08:08:17.999Z</time></trkpt><trkpt lat="42.58417663066646" lon="13.461338995411603"><ele>942.0</ele><time>2026-04-19T08:08:18.999Z</time></trkpt><trkpt lat="42.584175011859934" lon="13.461200584650744"><ele>942.0</ele><time>2026-04-19T08:08:19.999Z</time></trkpt><trkpt lat="42.584188434817975" lon="13.461060276184202"><ele>942.0</ele><time>2026-04-19T08:08:20.999Z</time></trkpt><trkpt lat="42.5842244088795" lon="13.460928256857063"><ele>942.4000000000001</ele><time>2026-04-19T08:08:21.999Z</time></trkpt><trkpt lat="42.5842762060649" lon="13.460798893220794"><ele>942.8000000000001</ele><time>2026-04-19T08:08:22.999Z</time></trkpt><trkpt lat="42.5843428613998" lon="13.460676261276966"><ele>943.2</ele><time>2026-04-19T08:08:23.999Z</time></trkpt><trkpt lat="42.58441313845112" lon="13.460563720054525"><ele>943.6</ele><time>2026-04-19T08:08:24.999Z</time></trkpt><trkpt lat="42.58449103212144" lon="13.460451907203437"><ele>944.0</ele><time>2026-04-19T08:08:25.999Z</time></trkpt><trkpt lat="42.584572922141426" lon="13.460338226845705"><ele>949.5</ele><time>2026-04-19T08:08:26.999Z</time></trkpt><trkpt lat="42.584653971461314" lon="13.460222180735965"><ele>955.0</ele><time>2026-04-19T08:08:27.999Z</time></trkpt><trkpt lat="42.58473578828285" lon="13.460108228203397"><ele>960.5</ele><time>2026-04-19T08:08:28.999Z</time></trkpt><trkpt lat="42.58482171494041" lon="13.459996841386449"><ele>966.0</ele><time>2026-04-19T08:08:29.999Z</time></trkpt><trkpt lat="42.58490960299713" lon="13.459891192139965"><ele>966.0</ele><time>2026-04-19T08:08:30.999Z</time></trkpt><trkpt lat="42.585000756077086" lon="13.459788457183034"><ele>965.9999999999999</ele><time>2026-04-19T08:08:31.999Z</time></trkpt><trkpt lat="42.58508939564685" lon="13.45969355992747"><ele>965.9999999999999</ele><time>2026-04-19T08:08:32.999Z</time></trkpt><trkpt lat="42.58518244121874" lon="13.459612890956693"><ele>966.0</ele><time>2026-04-19T08:08:33.999Z</time></trkpt><trkpt lat="42.585275440261235" lon="13.45955317251159"><ele>966.0</ele><time>2026-04-19T08:08:34.999Z</time></trkpt><trkpt lat="42.5853742265697" lon="13.459512035880845"><ele>963.1999999999999</ele><time>2026-04-19T08:08:35.999Z</time></trkpt><trkpt lat="42.58547781802166" lon="13.459482332097325"><ele>960.3999999999999</ele><time>2026-04-19T08:08:36.999Z</time></trkpt><trkpt lat="42.58558240637974" lon="13.459464943692732"><ele>957.6</ele><time>2026-04-19T08:08:37.999Z</time></trkpt><trkpt lat="42.58568876755594" lon="13.459477826180459"><ele>954.8</ele><time>2026-04-19T08:08:38.999Z</time></trkpt><trkpt lat="42.585792180670666" lon="13.45951193117989"><ele>952.0</ele><time>2026-04-19T08:08:39.999Z</time></trkpt><trkpt lat="42.58589136427314" lon="13.459564188958211"><ele>952.0</ele><time>2026-04-19T08:08:40.999Z</time></trkpt><trkpt lat="42.585990851905706" lon="13.459611823931066"><ele>952.0</ele><time>2026-04-19T08:08:41.999Z</time></trkpt><trkpt lat="42.58609229402848" lon="13.459652814719835"><ele>952.0</ele><time>2026-04-19T08:08:42.999Z</time></trkpt><trkpt lat="42.58618884050391" lon="13.459704171845106"><ele>952.0</ele><time>2026-04-19T08:08:43.999Z</time></trkpt><trkpt lat="42.58627454174108" lon="13.459747519802598"><ele>952.0</ele><time>2026-04-19T08:08:44.999Z</time></trkpt><trkpt lat="42.5863560919863" lon="13.459762042478655"><ele>955.4000000000001</ele><time>2026-04-19T08:08:45.999Z</time></trkpt><trkpt lat="42.58643446347479" lon="13.459730419976072"><ele>958.8000000000001</ele><time>2026-04-19T08:08:46.999Z</time></trkpt><trkpt lat="42.58650067467217" lon="13.459662034995665"><ele>962.2</ele><time>2026-04-19T08:08:47.999Z</time></trkpt><trkpt lat="42.5865427217755" lon="13.45954674551254"><ele>965.6</ele><time>2026-04-19T08:08:48.999Z</time></trkpt><trkpt lat="42.586586827125096" lon="13.459394769423994"><ele>969.0</ele><time>2026-04-19T08:08:49.999Z</time></trkpt><trkpt lat="42.58660894216107" lon="13.459243240998276"><ele>969.0</ele><time>2026-04-19T08:08:50.999Z</time></trkpt><trkpt lat="42.58659233139468" lon="13.459101114090446"><ele>969.0</ele><time>2026-04-19T08:08:51.999Z</time></trkpt><trkpt lat="42.58654156778479" lon="13.458963708918471"><ele>969.0</ele><time>2026-04-19T08:08:52.999Z</time></trkpt><trkpt lat="42.586473226380214" lon="13.458837994925764"><ele>969.0</ele><time>2026-04-19T08:08:53.999Z</time></trkpt><trkpt lat="42.58639270801203" lon="13.45872359739219"><ele>966.75</ele><time>2026-04-19T08:08:54.999Z</time></trkpt><trkpt lat="42.5863127742899" lon="13.458608399200378"><ele>964.5</ele><time>2026-04-19T08:08:55.999Z</time></trkpt><trkpt lat="42.58624293573339" lon="13.458490185770607"><ele>962.25</ele><time>2026-04-19T08:08:56.999Z</time></trkpt><trkpt lat="42.58615853785054" lon="13.458363768708942"><ele>960.0</ele><time>2026-04-19T08:08:57.999Z</time></trkpt><trkpt lat="42.58607042664664" lon="13.45822582920542"><ele>960.0</ele><time>2026-04-19T08:08:58.999Z</time></trkpt><trkpt lat="42.585978912566766" lon="13.458108451650459"><ele>960.0</ele><time>2026-04-19T08:08:59.999Z</time></trkpt><trkpt lat="42.58590049944548" lon="13.458010786371178"><ele>960.0</ele><time>2026-04-19T08:09:00.999Z</time></trkpt><trkpt lat="42.58583457909167" lon="13.457923638725148"><ele>960.0</ele><time>2026-04-19T08:09:01.999Z</time></trkpt><trkpt lat="42.58578247171382" lon="13.45782462114771"><ele>960.0</ele><time>2026-04-19T08:09:02.999Z</time></trkpt><trkpt lat="42.58575318387118" lon="13.45769940576111"><ele>963.2</ele><time>2026-04-19T08:09:03.999Z</time></trkpt><trkpt lat="42.585747825631145" lon="13.457561632398903"><ele>966.4</ele><time>2026-04-19T08:09:04.999Z</time></trkpt><trkpt lat="42.585756385995424" lon="13.45741785722143"><ele>969.5999999999999</ele><time>2026-04-19T08:09:05.999Z</time></trkpt><trkpt lat="42.58577816786486" lon="13.457263914020917"><ele>972.8</ele><time>2026-04-19T08:09:06.999Z</time></trkpt><trkpt lat="42.58580046923147" lon="13.457101387079668"><ele>976.0</ele><time>2026-04-19T08:09:08Z</time></trkpt><trkpt lat="42.585824489588106" lon="13.456936577446804"><ele>976.5</ele><time>2026-04-19T08:09:09Z</time></trkpt><trkpt lat="42.58584805661222" lon="13.456766817692376"><ele>977.0</ele><time>2026-04-19T08:09:10Z</time></trkpt><trkpt lat="42.5858713893144" lon="13.456600035412473"><ele>977.5</ele><time>2026-04-19T08:09:11Z</time></trkpt><trkpt lat="42.585898288801914" lon="13.456455709367303"><ele>978.0</ele><time>2026-04-19T08:09:12Z</time></trkpt><trkpt lat="42.58593224758909" lon="13.456307942180164"><ele>975.2</ele><time>2026-04-19T08:09:13Z</time></trkpt><trkpt lat="42.58597668622354" lon="13.45616837511456"><ele>972.4</ele><time>2026-04-19T08:09:14Z</time></trkpt><trkpt lat="42.5860357149833" lon="13.456045964175773"><ele>969.6000000000001</ele><time>2026-04-19T08:09:15Z</time></trkpt><trkpt lat="42.58611144992682" lon="13.455944947581422"><ele>966.8000000000001</ele><time>2026-04-19T08:09:16Z</time></trkpt><trkpt lat="42.586201181841965" lon="13.455862646349985"><ele>964.0</ele><time>2026-04-19T08:09:17Z</time></trkpt><trkpt lat="42.58630972225527" lon="13.45579638964721"><ele>971.25</ele><time>2026-04-19T08:09:18Z</time></trkpt><trkpt lat="42.58642796502194" lon="13.455737407325381"><ele>978.5</ele><time>2026-04-19T08:09:19Z</time></trkpt><trkpt lat="42.58655041870118" lon="13.4556665593408"><ele>985.75</ele><time>2026-04-19T08:09:20Z</time></trkpt><trkpt lat="42.586675251740644" lon="13.455575944344492"><ele>993.0</ele><time>2026-04-19T08:09:21Z</time></trkpt><trkpt lat="42.58680051561185" lon="13.455480054046237"><ele>990.25</ele><time>2026-04-19T08:09:22Z</time></trkpt><trkpt lat="42.58692597675433" lon="13.45538099853862"><ele>987.5</ele><time>2026-04-19T08:09:23Z</time></trkpt><trkpt lat="42.58705377634332" lon="13.45527935690262"><ele>984.75</ele><time>2026-04-19T08:09:24Z</time></trkpt><trkpt lat="42.58717605815434" lon="13.455183612984497"><ele>982.0</ele><time>2026-04-19T08:09:25Z</time></trkpt><trkpt lat="42.58729486331941" lon="13.45509787940601"><ele>982.0</ele><time>2026-04-19T08:09:26Z</time></trkpt><trkpt lat="42.587403998099845" lon="13.455025008719625"><ele>982.0</ele><time>2026-04-19T08:09:27Z</time></trkpt><trkpt lat="42.58750832474942" lon="13.454962257393927"><ele>982.0</ele><time>2026-04-19T08:09:28Z</time></trkpt><trkpt lat="42.587618670626064" lon="13.454911566817414"><ele>982.0</ele><time>2026-04-19T08:09:29Z</time></trkpt><trkpt lat="42.58773018848714" lon="13.454883374810782"><ele>982.0</ele><time>2026-04-19T08:09:30Z</time></trkpt><trkpt lat="42.58783326031558" lon="13.454883313315786"><ele>982.0</ele><time>2026-04-19T08:09:31Z</time></trkpt><trkpt lat="42.58792636542389" lon="13.454912707874184"><ele>982.0</ele><time>2026-04-19T08:09:32Z</time></trkpt><trkpt lat="42.588021683290044" lon="13.454977511682195"><ele>982.0</ele><time>2026-04-19T08:09:33Z</time></trkpt><trkpt lat="42.58812778611325" lon="13.45504556484111"><ele>982.0</ele><time>2026-04-19T08:09:34Z</time></trkpt><trkpt lat="42.58824595242203" lon="13.455096471392519"><ele>982.0</ele><time>2026-04-19T08:09:35Z</time></trkpt><trkpt lat="42.58836240839322" lon="13.455126690417808"><ele>982.0</ele><time>2026-04-19T08:09:36Z</time></trkpt><trkpt lat="42.58847075009784" lon="13.4551435411728"><ele>982.0</ele><time>2026-04-19T08:09:37Z</time></trkpt><trkpt lat="42.58856686715062" lon="13.455138835458873"><ele>982.0</ele><time>2026-04-19T08:09:38Z</time></trkpt><trkpt lat="42.58865272703262" lon="13.455089090067359"><ele>982.0</ele><time>2026-04-19T08:09:39Z</time></trkpt><trkpt lat="42.588714032944175" lon="13.455000647591742"><ele>982.2</ele><time>2026-04-19T08:09:40Z</time></trkpt><trkpt lat="42.58873706955308" lon="13.454870727636369"><ele>982.4000000000001</ele><time>2026-04-19T08:09:41Z</time></trkpt><trkpt lat="42.58872969414383" lon="13.45472664176725"><ele>982.5999999999999</ele><time>2026-04-19T08:09:42Z</time></trkpt><trkpt lat="42.58868546729427" lon="13.454586915085288"><ele>982.8</ele><time>2026-04-19T08:09:43Z</time></trkpt><trkpt lat="42.58861647553631" lon="13.454462846331957"><ele>983.0</ele><time>2026-04-19T08:09:44Z</time></trkpt><trkpt lat="42.58852292961434" lon="13.454351267226551"><ele>983.0</ele><time>2026-04-19T08:09:45Z</time></trkpt><trkpt lat="42.588455059320886" lon="13.454214874138552"><ele>983.0</ele><time>2026-04-19T08:09:46Z</time></trkpt><trkpt lat="42.58837606720538" lon="13.454100546117264"><ele>983.0</ele><time>2026-04-19T08:09:47Z</time></trkpt><trkpt lat="42.5883088805526" lon="13.453984097850409"><ele>983.0</ele><time>2026-04-19T08:09:48Z</time></trkpt><trkpt lat="42.58823456240523" lon="13.453874061293792"><ele>987.25</ele><time>2026-04-19T08:09:49Z</time></trkpt><trkpt lat="42.588144361532066" lon="13.453776640244076"><ele>991.5</ele><time>2026-04-19T08:09:50Z</time></trkpt><trkpt lat="42.58803821910836" lon="13.453707748885591"><ele>995.75</ele><time>2026-04-19T08:09:51Z</time></trkpt><trkpt lat="42.58791927354109" lon="13.453667896043529"><ele>1000.0</ele><time>2026-04-19T08:09:52Z</time></trkpt><trkpt lat="42.58779266105152" lon="13.453675711609687"><ele>1000.0</ele><time>2026-04-19T08:09:53Z</time></trkpt><trkpt lat="42.587670535223374" lon="13.45368081341161"><ele>1000.0</ele><time>2026-04-19T08:09:54Z</time></trkpt><trkpt lat="42.58755779989114" lon="13.453643088838406"><ele>1000.0</ele><time>2026-04-19T08:09:55Z</time></trkpt><trkpt lat="42.58744950967558" lon="13.453618702305604"><ele>1000.0</ele><time>2026-04-19T08:09:56Z</time></trkpt><trkpt lat="42.58735330221673" lon="13.453530019538476"><ele>1000.0</ele><time>2026-04-19T08:09:57Z</time></trkpt><trkpt lat="42.58728291889985" lon="13.453442812738182"><ele>1000.0</ele><time>2026-04-19T08:09:58Z</time></trkpt><trkpt lat="42.58720418019771" lon="13.453388222550494"><ele>1000.0</ele><time>2026-04-19T08:09:59Z</time></trkpt><trkpt lat="42.58710694645868" lon="13.453369660840368"><ele>1000.0</ele><time>2026-04-19T08:10:00Z</time></trkpt><trkpt lat="42.587011468544155" lon="13.453444027909716"><ele>1000.0</ele><time>2026-04-19T08:10:01Z</time></trkpt><trkpt lat="42.586925086891796" lon="13.453516274454511"><ele>1002.0</ele><time>2026-04-19T08:10:02Z</time></trkpt><trkpt lat="42.5868343832126" lon="13.453575826679069"><ele>1004.0</ele><time>2026-04-19T08:10:03Z</time></trkpt><trkpt lat="42.586725333330314" lon="13.453631691908438"><ele>1006.0</ele><time>2026-04-19T08:10:04Z</time></trkpt><trkpt lat="42.58660789903526" lon="13.453692482379516"><ele>1008.0</ele><time>2026-04-19T08:10:05Z</time></trkpt><trkpt lat="42.586489118331805" lon="13.453742130129177"><ele>1008.0</ele><time>2026-04-19T08:10:06Z</time></trkpt><trkpt lat="42.58638608555084" lon="13.453767756781078"><ele>1008.0</ele><time>2026-04-19T08:10:07Z</time></trkpt><trkpt lat="42.58630392552342" lon="13.453750406279037"><ele>1008.0</ele><time>2026-04-19T08:10:07.999Z</time></trkpt><trkpt lat="42.586229050543146" lon="13.453734479087082"><ele>1008.0</ele><time>2026-04-19T08:10:08.999Z</time></trkpt><trkpt lat="42.586182143547084" lon="13.453641109450718"><ele>1008.0</ele><time>2026-04-19T08:10:09.999Z</time></trkpt><trkpt lat="42.58618297982386" lon="13.453484177413166"><ele>1008.0</ele><time>2026-04-19T08:10:11.999Z</time></trkpt><trkpt lat="42.58624468762255" lon="13.4534219766173"><ele>1008.0</ele><time>2026-04-19T08:10:12.999Z</time></trkpt><trkpt lat="42.58633399333784" lon="13.453369762984043"><ele>1008.0</ele><time>2026-04-19T08:10:13.999Z</time></trkpt><trkpt lat="42.58643665210645" lon="13.453334204376102"><ele>1008.0</ele><time>2026-04-19T08:10:14.999Z</time></trkpt><trkpt lat="42.58654820128149" lon="13.453290512819608"><ele>1008.0</ele><time>2026-04-19T08:10:15.999Z</time></trkpt><trkpt lat="42.58666330028406" lon="13.453191943806853"><ele>1008.0</ele><time>2026-04-19T08:10:16.999Z</time></trkpt><trkpt lat="42.5867656613773" lon="13.453047547973169"><ele>1008.0</ele><time>2026-04-19T08:10:17.999Z</time></trkpt><trkpt lat="42.586867553174486" lon="13.45291067160656"><ele>1008.0</ele><time>2026-04-19T08:10:18.999Z</time></trkpt><trkpt lat="42.58696359367641" lon="13.452791154834134"><ele>1008.0</ele><time>2026-04-19T08:10:19.999Z</time></trkpt><trkpt lat="42.58707679075927" lon="13.452731527637276"><ele>1013.25</ele><time>2026-04-19T08:10:20.999Z</time></trkpt><trkpt lat="42.587186705620574" lon="13.45268556953055"><ele>1018.5</ele><time>2026-04-19T08:10:21.999Z</time></trkpt><trkpt lat="42.58729709988099" lon="13.452624844718835"><ele>1023.75</ele><time>2026-04-19T08:10:22.999Z</time></trkpt><trkpt lat="42.58741988908942" lon="13.45258514018729"><ele>1029.0</ele><time>2026-04-19T08:10:23.999Z</time></trkpt><trkpt lat="42.587540327083055" lon="13.452542660412966"><ele>1029.0</ele><time>2026-04-19T08:10:24.999Z</time></trkpt><trkpt lat="42.587656131357804" lon="13.452502701042574"><ele>1029.0</ele><time>2026-04-19T08:10:25.999Z</time></trkpt><trkpt lat="42.58777117591219" lon="13.452467322137876"><ele>1029.0</ele><time>2026-04-19T08:10:26.999Z</time></trkpt><trkpt lat="42.58788591896514" lon="13.452435806937233"><ele>1029.0</ele><time>2026-04-19T08:10:27.999Z</time></trkpt><trkpt lat="42.588001504973576" lon="13.452426157656244"><ele>1029.8</ele><time>2026-04-19T08:10:28.999Z</time></trkpt><trkpt lat="42.588100884621106" lon="13.452443534789023"><ele>1030.6000000000001</ele><time>2026-04-19T08:10:29.999Z</time></trkpt><trkpt lat="42.58818529159189" lon="13.452473152412681"><ele>1031.4</ele><time>2026-04-19T08:10:30.999Z</time></trkpt><trkpt lat="42.58825286329359" lon="13.452494188046943"><ele>1032.2</ele><time>2026-04-19T08:10:31.999Z</time></trkpt><trkpt lat="42.588349242090516" lon="13.452384985967383"><ele>1033.0</ele><time>2026-04-19T08:10:33.999Z</time></trkpt><trkpt lat="42.588350319188656" lon="13.452290981091004"><ele>1033.0</ele><time>2026-04-19T08:10:34.999Z</time></trkpt><trkpt lat="42.58832835238151" lon="13.452206974222822"><ele>1033.0</ele><time>2026-04-19T08:10:35.999Z</time></trkpt><trkpt lat="42.58822722956472" lon="13.452169395425527"><ele>1033.0</ele><time>2026-04-19T08:10:36.999Z</time></trkpt><trkpt lat="42.58814807362803" lon="13.452155531806941"><ele>1033.0</ele><time>2026-04-19T08:10:37.999Z</time></trkpt><trkpt lat="42.58806595236541" lon="13.45214991026185"><ele>1033.0</ele><time>2026-04-19T08:10:38.999Z</time></trkpt><trkpt lat="42.58797945747135" lon="13.452142494329205"><ele>1033.0</ele><time>2026-04-19T08:10:39.999Z</time></trkpt><trkpt lat="42.58790511831172" lon="13.452135832725292"><ele>1038.25</ele><time>2026-04-19T08:10:40.999Z</time></trkpt><trkpt lat="42.587787424723125" lon="13.45211805619399"><ele>1043.5</ele><time>2026-04-19T08:10:42.999Z</time></trkpt><trkpt lat="42.587711946835675" lon="13.45210258272429"><ele>1048.75</ele><time>2026-04-19T08:10:43.999Z</time></trkpt><trkpt lat="42.58758812034966" lon="13.45208602851142"><ele>1054.0</ele><time>2026-04-19T08:10:44.999Z</time></trkpt><trkpt lat="42.58743384051204" lon="13.452052756154773"><ele>1054.0</ele><time>2026-04-19T08:10:45.999Z</time></trkpt><trkpt lat="42.58730036002634" lon="13.451984126440008"><ele>1054.0</ele><time>2026-04-19T08:10:46.999Z</time></trkpt><trkpt lat="42.58716998456767" lon="13.451937645425962"><ele>1054.0</ele><time>2026-04-19T08:10:47.999Z</time></trkpt><trkpt lat="42.587045822632696" lon="13.451867734129225"><ele>1054.0</ele><time>2026-04-19T08:10:48.999Z</time></trkpt><trkpt lat="42.586926866109046" lon="13.451808763290877"><ele>1053.5</ele><time>2026-04-19T08:10:49.999Z</time></trkpt><trkpt lat="42.58680702979014" lon="13.451773450882108"><ele>1053.0</ele><time>2026-04-19T08:10:50.999Z</time></trkpt><trkpt lat="42.586687603156136" lon="13.45176963105148"><ele>1052.5</ele><time>2026-04-19T08:10:51.999Z</time></trkpt><trkpt lat="42.5865683081501" lon="13.451760698852164"><ele>1052.0</ele><time>2026-04-19T08:10:52.999Z</time></trkpt><trkpt lat="42.58644766221924" lon="13.4517665171454"><ele>1052.0</ele><time>2026-04-19T08:10:53.999Z</time></trkpt><trkpt lat="42.58633803473222" lon="13.451768567250046"><ele>1052.0</ele><time>2026-04-19T08:10:54.999Z</time></trkpt><trkpt lat="42.58625073541207" lon="13.45174534186986"><ele>1052.0</ele><time>2026-04-19T08:10:55.999Z</time></trkpt><trkpt lat="42.58615563297838" lon="13.45168346907502"><ele>1052.0</ele><time>2026-04-19T08:10:56.999Z</time></trkpt><trkpt lat="42.5860865419097" lon="13.451544470420684"><ele>1052.0</ele><time>2026-04-19T08:10:57.999Z</time></trkpt><trkpt lat="42.58604268327807" lon="13.451435415020656"><ele>1054.3333333333335</ele><time>2026-04-19T08:10:58.999Z</time></trkpt><trkpt lat="42.58600952760908" lon="13.451337576851413"><ele>1056.6666666666667</ele><time>2026-04-19T08:10:59.999Z</time></trkpt><trkpt lat="42.58602869910865" lon="13.451230017439551"><ele>1059.0</ele><time>2026-04-19T08:11:00.999Z</time></trkpt><trkpt lat="42.586085091446975" lon="13.451137592726006"><ele>1061.3333333333333</ele><time>2026-04-19T08:11:01.999Z</time></trkpt><trkpt lat="42.586171381150244" lon="13.451088017732786"><ele>1063.6666666666665</ele><time>2026-04-19T08:11:02.999Z</time></trkpt><trkpt lat="42.586255850108664" lon="13.451140626611332"><ele>1066.0</ele><time>2026-04-19T08:11:03.999Z</time></trkpt><trkpt lat="42.58633864551212" lon="13.451162387496336"><ele>1066.0</ele><time>2026-04-19T08:11:04.999Z</time></trkpt><trkpt lat="42.586424839909036" lon="13.45122508272995"><ele>1066.0</ele><time>2026-04-19T08:11:05.999Z</time></trkpt><trkpt lat="42.58652019907962" lon="13.45121462625593"><ele>1066.0</ele><time>2026-04-19T08:11:06.999Z</time></trkpt><trkpt lat="42.58663516461903" lon="13.451156534579527"><ele>1066.0</ele><time>2026-04-19T08:11:07.999Z</time></trkpt><trkpt lat="42.58674629613166" lon="13.45107683587476"><ele>1066.0</ele><time>2026-04-19T08:11:08.999Z</time></trkpt><trkpt lat="42.58686509903892" lon="13.451012178865401"><ele>1066.0</ele><time>2026-04-19T08:11:09.999Z</time></trkpt><trkpt lat="42.586983398956676" lon="13.450959619890796"><ele>1066.0</ele><time>2026-04-19T08:11:10.999Z</time></trkpt><trkpt lat="42.587107071005825" lon="13.45093418599992"><ele>1066.0</ele><time>2026-04-19T08:11:11.999Z</time></trkpt><trkpt lat="42.58722826594035" lon="13.450931884247964"><ele>1066.0</ele><time>2026-04-19T08:11:12.999Z</time></trkpt><trkpt lat="42.58735503810258" lon="13.450939617802181"><ele>1068.6</ele><time>2026-04-19T08:11:14Z</time></trkpt><trkpt lat="42.58745792939967" lon="13.45094430748016"><ele>1071.1999999999998</ele><time>2026-04-19T08:11:15Z</time></trkpt><trkpt lat="42.58756962036702" lon="13.450955858720588"><ele>1073.8000000000002</ele><time>2026-04-19T08:11:16Z</time></trkpt><trkpt lat="42.58768104114006" lon="13.45096647297551"><ele>1076.4</ele><time>2026-04-19T08:11:17Z</time></trkpt><trkpt lat="42.58779208709909" lon="13.450970281677044"><ele>1079.0</ele><time>2026-04-19T08:11:18Z</time></trkpt><trkpt lat="42.58790997048936" lon="13.450961854892707"><ele>1079.0</ele><time>2026-04-19T08:11:19Z</time></trkpt><trkpt lat="42.588027000400736" lon="13.450951222735997"><ele>1079.0</ele><time>2026-04-19T08:11:20Z</time></trkpt><trkpt lat="42.58814469104809" lon="13.450934817439013"><ele>1079.0</ele><time>2026-04-19T08:11:21Z</time></trkpt><trkpt lat="42.588260019685535" lon="13.450920222073215"><ele>1079.0</ele><time>2026-04-19T08:11:22Z</time></trkpt><trkpt lat="42.588374547439365" lon="13.450903297898595"><ele>1079.0</ele><time>2026-04-19T08:11:23Z</time></trkpt><trkpt lat="42.588484739282855" lon="13.45087008919437"><ele>1079.0</ele><time>2026-04-19T08:11:24Z</time></trkpt><trkpt lat="42.58858549263456" lon="13.450798434651373"><ele>1079.0</ele><time>2026-04-19T08:11:25Z</time></trkpt><trkpt lat="42.588683242051346" lon="13.450721371064104"><ele>1079.0</ele><time>2026-04-19T08:11:26Z</time></trkpt><trkpt lat="42.58878326270885" lon="13.450644395940502"><ele>1078.25</ele><time>2026-04-19T08:11:27Z</time></trkpt><trkpt lat="42.58888441607153" lon="13.450562829216969"><ele>1077.5</ele><time>2026-04-19T08:11:28Z</time></trkpt><trkpt lat="42.58898682179186" lon="13.450485421579126"><ele>1076.75</ele><time>2026-04-19T08:11:29Z</time></trkpt><trkpt lat="42.589096306972166" lon="13.450420692507452"><ele>1076.0</ele><time>2026-04-19T08:11:30Z</time></trkpt><trkpt lat="42.58921253632441" lon="13.450381860888411"><ele>1081.5</ele><time>2026-04-19T08:11:31Z</time></trkpt><trkpt lat="42.58933302129997" lon="13.450368568352529"><ele>1087.0</ele><time>2026-04-19T08:11:32Z</time></trkpt><trkpt lat="42.589454965837476" lon="13.450361406639493"><ele>1092.5</ele><time>2026-04-19T08:11:33Z</time></trkpt><trkpt lat="42.589577022450236" lon="13.45034679396818"><ele>1098.0</ele><time>2026-04-19T08:11:34Z</time></trkpt><trkpt lat="42.589699267992245" lon="13.45032998433504"><ele>1098.25</ele><time>2026-04-19T08:11:35Z</time></trkpt><trkpt lat="42.58982148748395" lon="13.45031332944977"><ele>1098.5</ele><time>2026-04-19T08:11:36Z</time></trkpt><trkpt lat="42.589943603166674" lon="13.450296020627206"><ele>1098.75</ele><time>2026-04-19T08:11:37Z</time></trkpt><trkpt lat="42.59006337701127" lon="13.450278572545015"><ele>1099.0</ele><time>2026-04-19T08:11:38Z</time></trkpt><trkpt lat="42.59018303625983" lon="13.450253687231266"><ele>1099.0</ele><time>2026-04-19T08:11:39Z</time></trkpt><trkpt lat="42.590301865253785" lon="13.450224342871444"><ele>1099.0</ele><time>2026-04-19T08:11:40Z</time></trkpt><trkpt lat="42.59042167386527" lon="13.450192847686637"><ele>1099.0</ele><time>2026-04-19T08:11:41Z</time></trkpt><trkpt lat="42.59053901241" lon="13.450156209267323"><ele>1099.0</ele><time>2026-04-19T08:11:42Z</time></trkpt><trkpt lat="42.590656510781464" lon="13.45011681895646"><ele>1099.0</ele><time>2026-04-19T08:11:43Z</time></trkpt><trkpt lat="42.59075955846779" lon="13.450083626551853"><ele>1099.0</ele><time>2026-04-19T08:11:44Z</time></trkpt><trkpt lat="42.59085924439128" lon="13.450048268093497"><ele>1099.0</ele><time>2026-04-19T08:11:45Z</time></trkpt><trkpt lat="42.59095743189636" lon="13.450015327780676"><ele>1099.0</ele><time>2026-04-19T08:11:46Z</time></trkpt><trkpt lat="42.59105863214853" lon="13.449984215109495"><ele>1099.0</ele><time>2026-04-19T08:11:47Z</time></trkpt><trkpt lat="42.591160302558684" lon="13.449954189640296"><ele>1098.6000000000001</ele><time>2026-04-19T08:11:48Z</time></trkpt><trkpt lat="42.59126074160615" lon="13.449925743792038"><ele>1098.2</ele><time>2026-04-19T08:11:49Z</time></trkpt><trkpt lat="42.59135991866977" lon="13.449892385953543"><ele>1097.8000000000002</ele><time>2026-04-19T08:11:50Z</time></trkpt><trkpt lat="42.591457371728175" lon="13.449859185632606"><ele>1097.4</ele><time>2026-04-19T08:11:51Z</time></trkpt><trkpt lat="42.59155589626084" lon="13.449832597082091"><ele>1097.0</ele><time>2026-04-19T08:11:52Z</time></trkpt><trkpt lat="42.59165611333197" lon="13.449809058549004"><ele>1097.0</ele><time>2026-04-19T08:11:53Z</time></trkpt><trkpt lat="42.59175377743623" lon="13.449767435621341"><ele>1097.0</ele><time>2026-04-19T08:11:54Z</time></trkpt><trkpt lat="42.5918541925765" lon="13.4497413593695"><ele>1097.0</ele><time>2026-04-19T08:11:55Z</time></trkpt><trkpt lat="42.59195624533375" lon="13.44971438135316"><ele>1097.0</ele><time>2026-04-19T08:11:56Z</time></trkpt><trkpt lat="42.59205596401836" lon="13.449676017342588"><ele>1097.0</ele><time>2026-04-19T08:11:57Z</time></trkpt><trkpt lat="42.592155180841345" lon="13.449628574809914"><ele>1099.0</ele><time>2026-04-19T08:11:58Z</time></trkpt><trkpt lat="42.59225373135707" lon="13.449573369688038"><ele>1101.0</ele><time>2026-04-19T08:11:59Z</time></trkpt><trkpt lat="42.59234955669902" lon="13.449508765650029"><ele>1103.0</ele><time>2026-04-19T08:12:00Z</time></trkpt><trkpt lat="42.59244908395328" lon="13.449451229713002"><ele>1105.0</ele><time>2026-04-19T08:12:01Z</time></trkpt><trkpt lat="42.59255376035557" lon="13.449412386735863"><ele>1107.0</ele><time>2026-04-19T08:12:02Z</time></trkpt><trkpt lat="42.59266151921093" lon="13.44940792094147"><ele>1107.0</ele><time>2026-04-19T08:12:03Z</time></trkpt><trkpt lat="42.592765013603504" lon="13.44941733099961"><ele>1107.0</ele><time>2026-04-19T08:12:04Z</time></trkpt><trkpt lat="42.592859982507406" lon="13.44939749478017"><ele>1107.0</ele><time>2026-04-19T08:12:05Z</time></trkpt><trkpt lat="42.592946951602855" lon="13.449396276465679"><ele>1107.0</ele><time>2026-04-19T08:12:06Z</time></trkpt><trkpt lat="42.59302844692987" lon="13.449395134854997"><ele>1107.0</ele><time>2026-04-19T08:12:07Z</time></trkpt><trkpt lat="42.59309803072314" lon="13.44929635211735"><ele>1106.8</ele><time>2026-04-19T08:12:09Z</time></trkpt><trkpt lat="42.59311482168815" lon="13.44919561955948"><ele>1106.6</ele><time>2026-04-19T08:12:10Z</time></trkpt><trkpt lat="42.59308590452485" lon="13.449085709739643"><ele>1106.3999999999999</ele><time>2026-04-19T08:12:11Z</time></trkpt><trkpt lat="42.59304090040945" lon="13.448981389679739"><ele>1106.2</ele><time>2026-04-19T08:12:12Z</time></trkpt><trkpt lat="42.592945385674085" lon="13.448948348088157"><ele>1106.0</ele><time>2026-04-19T08:12:13Z</time></trkpt><trkpt lat="42.59284687713265" lon="13.448989531166031"><ele>1106.2</ele><time>2026-04-19T08:12:14Z</time></trkpt><trkpt lat="42.592761755498096" lon="13.44903807059276"><ele>1106.3999999999999</ele><time>2026-04-19T08:12:15Z</time></trkpt><trkpt lat="42.59267772415095" lon="13.449089859596363"><ele>1106.6</ele><time>2026-04-19T08:12:16Z</time></trkpt><trkpt lat="42.59258638051007" lon="13.449108179312173"><ele>1106.8</ele><time>2026-04-19T08:12:17Z</time></trkpt><trkpt lat="42.59249791234799" lon="13.449119844805379"><ele>1107.0</ele><time>2026-04-19T08:12:18Z</time></trkpt><trkpt lat="42.59241114552793" lon="13.449114345480176"><ele>1107.0</ele><time>2026-04-19T08:12:18.999Z</time></trkpt><trkpt lat="42.592319025481515" lon="13.44909776406761"><ele>1107.0</ele><time>2026-04-19T08:12:19.999Z</time></trkpt><trkpt lat="42.592230200620165" lon="13.449074819693163"><ele>1107.0</ele><time>2026-04-19T08:12:20.999Z</time></trkpt><trkpt lat="42.59214077400962" lon="13.449042010193137"><ele>1107.0</ele><time>2026-04-19T08:12:21.999Z</time></trkpt><trkpt lat="42.59205944609923" lon="13.44899357282793"><ele>1107.0</ele><time>2026-04-19T08:12:22.999Z</time></trkpt><trkpt lat="42.5919972070697" lon="13.448927197698799"><ele>1107.0</ele><time>2026-04-19T08:12:23.999Z</time></trkpt><trkpt lat="42.59195662236788" lon="13.448840592185066"><ele>1110.0</ele><time>2026-04-19T08:12:24.999Z</time></trkpt><trkpt lat="42.59191664670369" lon="13.448734238302517"><ele>1113.0</ele><time>2026-04-19T08:12:25.999Z</time></trkpt><trkpt lat="42.59188407637126" lon="13.448611411495285"><ele>1116.0</ele><time>2026-04-19T08:12:26.999Z</time></trkpt><trkpt lat="42.591838501968176" lon="13.448490254177324"><ele>1119.0</ele><time>2026-04-19T08:12:27.999Z</time></trkpt><trkpt lat="42.59178263109114" lon="13.448379366915004"><ele>1122.0</ele><time>2026-04-19T08:12:28.999Z</time></trkpt><trkpt lat="42.59166874693741" lon="13.448306679609125"><ele>1122.0</ele><time>2026-04-19T08:12:29.999Z</time></trkpt><trkpt lat="42.59157211635363" lon="13.44825302753503"><ele>1122.0</ele><time>2026-04-19T08:12:30.999Z</time></trkpt><trkpt lat="42.59148308549412" lon="13.448181975157642"><ele>1122.0</ele><time>2026-04-19T08:12:31.999Z</time></trkpt><trkpt lat="42.591364958215486" lon="13.448198319463513"><ele>1122.0</ele><time>2026-04-19T08:12:32.999Z</time></trkpt><trkpt lat="42.59125236426059" lon="13.448201168333435"><ele>1122.0</ele><time>2026-04-19T08:12:33.999Z</time></trkpt><trkpt lat="42.59114100349653" lon="13.448205528993197"><ele>1123.5</ele><time>2026-04-19T08:12:34.999Z</time></trkpt><trkpt lat="42.591026391292864" lon="13.448201133873166"><ele>1125.0</ele><time>2026-04-19T08:12:35.999Z</time></trkpt><trkpt lat="42.5909137336831" lon="13.448171654966359"><ele>1126.5</ele><time>2026-04-19T08:12:36.999Z</time></trkpt><trkpt lat="42.59080663197947" lon="13.448124078812475"><ele>1128.0</ele><time>2026-04-19T08:12:37.999Z</time></trkpt><trkpt lat="42.590704002705365" lon="13.448063385813045"><ele>1128.0</ele><time>2026-04-19T08:12:38.999Z</time></trkpt><trkpt lat="42.59060572504049" lon="13.44800030056485"><ele>1128.0</ele><time>2026-04-19T08:12:39.999Z</time></trkpt><trkpt lat="42.59051424032421" lon="13.447925307911662"><ele>1128.0</ele><time>2026-04-19T08:12:40.999Z</time></trkpt><trkpt lat="42.5904021090753" lon="13.447915320730333"><ele>1128.0</ele><time>2026-04-19T08:12:41.999Z</time></trkpt><trkpt lat="42.590296598935126" lon="13.447919064942374"><ele>1128.0</ele><time>2026-04-19T08:12:42.999Z</time></trkpt><trkpt lat="42.59019105400574" lon="13.447942048174495"><ele>1129.0</ele><time>2026-04-19T08:12:43.999Z</time></trkpt><trkpt lat="42.59008893988067" lon="13.447977725886108"><ele>1130.0</ele><time>2026-04-19T08:12:44.999Z</time></trkpt><trkpt lat="42.58998869385691" lon="13.44801490984802"><ele>1131.0</ele><time>2026-04-19T08:12:45.999Z</time></trkpt><trkpt lat="42.58988714789987" lon="13.448058000090807"><ele>1132.0</ele><time>2026-04-19T08:12:46.999Z</time></trkpt><trkpt lat="42.589784176996275" lon="13.44809118663249"><ele>1133.0</ele><time>2026-04-19T08:12:47.999Z</time></trkpt><trkpt lat="42.58967903249522" lon="13.44812177763288"><ele>1133.0</ele><time>2026-04-19T08:12:48.999Z</time></trkpt><trkpt lat="42.589576105987256" lon="13.44815850133329"><ele>1133.0</ele><time>2026-04-19T08:12:49.999Z</time></trkpt><trkpt lat="42.58947210947525" lon="13.448195182326955"><ele>1133.0</ele><time>2026-04-19T08:12:50.999Z</time></trkpt><trkpt lat="42.58936986688333" lon="13.448235841921477"><ele>1133.0</ele><time>2026-04-19T08:12:51.999Z</time></trkpt><trkpt lat="42.58928503168594" lon="13.448268278646498"><ele>1133.0</ele><time>2026-04-19T08:12:52.999Z</time></trkpt><trkpt lat="42.58920919292569" lon="13.448284483487019"><ele>1134.1666666666667</ele><time>2026-04-19T08:12:53.999Z</time></trkpt><trkpt lat="42.58913027779063" lon="13.448276248199086"><ele>1135.3333333333335</ele><time>2026-04-19T08:12:54.999Z</time></trkpt><trkpt lat="42.58905087239278" lon="13.448244528616252"><ele>1136.5</ele><time>2026-04-19T08:12:55.999Z</time></trkpt><trkpt lat="42.58897504480847" lon="13.448171718458452"><ele>1137.6666666666667</ele><time>2026-04-19T08:12:56.999Z</time></trkpt><trkpt lat="42.58890806698085" lon="13.448102927078194"><ele>1138.8333333333333</ele><time>2026-04-19T08:12:57.999Z</time></trkpt><trkpt lat="42.58884753185199" lon="13.448038169235845"><ele>1140.0</ele><time>2026-04-19T08:12:58.999Z</time></trkpt><trkpt lat="42.5887758441358" lon="13.447960417256143"><ele>1142.75</ele><time>2026-04-19T08:13:00.999Z</time></trkpt><trkpt lat="42.58888540817454" lon="13.447842164566618"><ele>1145.5</ele><time>2026-04-19T08:13:04.999Z</time></trkpt><trkpt lat="42.58895840800776" lon="13.447726883578792"><ele>1148.25</ele><time>2026-04-19T08:13:06.999Z</time></trkpt><trkpt lat="42.58900943283987" lon="13.447630428473474"><ele>1151.0</ele><time>2026-04-19T08:13:08.999Z</time></trkpt><trkpt lat="42.58912646471508" lon="13.447679448812345"><ele>1151.0</ele><time>2026-04-19T08:13:10.999Z</time></trkpt><trkpt lat="42.58922666799583" lon="13.447682179848012"><ele>1151.0</ele><time>2026-04-19T08:13:12.999Z</time></trkpt><trkpt lat="42.58932458171176" lon="13.447636092620803"><ele>1151.0</ele><time>2026-04-19T08:13:15.999Z</time></trkpt><trkpt lat="42.589384294831646" lon="13.44755044830751"><ele>1151.0</ele><time>2026-04-19T08:13:17.999Z</time></trkpt><trkpt lat="42.58943420946135" lon="13.44746226782916"><ele>1151.0</ele><time>2026-04-19T08:13:20Z</time></trkpt><trkpt lat="42.589480358876294" lon="13.447363451702676"><ele>1149.8333333333335</ele><time>2026-04-19T08:13:22Z</time></trkpt><trkpt lat="42.58952280353957" lon="13.447229963752244"><ele>1148.6666666666667</ele><time>2026-04-19T08:13:24Z</time></trkpt><trkpt lat="42.58956110493734" lon="13.447110694682264"><ele>1147.5</ele><time>2026-04-19T08:13:26Z</time></trkpt><trkpt lat="42.589599846626605" lon="13.447031955738149"><ele>1146.3333333333333</ele><time>2026-04-19T08:13:28Z</time></trkpt><trkpt lat="42.58965305558655" lon="13.446953241879147"><ele>1145.1666666666665</ele><time>2026-04-19T08:13:30Z</time></trkpt><trkpt lat="42.58972632783876" lon="13.446895346220883"><ele>1144.0</ele><time>2026-04-19T08:13:32Z</time></trkpt><trkpt lat="42.58980944779893" lon="13.446853977190104"><ele>1149.2</ele><time>2026-04-19T08:13:34Z</time></trkpt><trkpt lat="42.589891788534366" lon="13.446834406263088"><ele>1154.4</ele><time>2026-04-19T08:13:36Z</time></trkpt><trkpt lat="42.58997691555469" lon="13.446823727512124"><ele>1159.6</ele><time>2026-04-19T08:13:38Z</time></trkpt><trkpt lat="42.59007020917579" lon="13.446817403627271"><ele>1164.8</ele><time>2026-04-19T08:13:40Z</time></trkpt><trkpt lat="42.590174901124605" lon="13.446823019658877"><ele>1170.0</ele><time>2026-04-19T08:13:42Z</time></trkpt><trkpt lat="42.59028327291994" lon="13.446826490119992"><ele>1169.2</ele><time>2026-04-19T08:13:44Z</time></trkpt><trkpt lat="42.59039941232189" lon="13.446808764671426"><ele>1168.4</ele><time>2026-04-19T08:13:46Z</time></trkpt><trkpt lat="42.59048426429272" lon="13.446781185662944"><ele>1167.6</ele><time>2026-04-19T08:13:48Z</time></trkpt><trkpt lat="42.59058214023768" lon="13.446756326330346"><ele>1166.8</ele><time>2026-04-19T08:13:50Z</time></trkpt><trkpt lat="42.590693018083115" lon="13.446741078156213"><ele>1166.0</ele><time>2026-04-19T08:13:52Z</time></trkpt><trkpt lat="42.59075181198834" lon="13.446705328180922"><ele>1166.0</ele><time>2026-04-19T08:13:53Z</time></trkpt><trkpt lat="42.59086743939633" lon="13.446682616150452"><ele>1166.0</ele><time>2026-04-19T08:13:55Z</time></trkpt><trkpt lat="42.59098634580792" lon="13.446648276574976"><ele>1166.0</ele><time>2026-04-19T08:13:57Z</time></trkpt><trkpt lat="42.591080045290425" lon="13.446590773791671"><ele>1166.0</ele><time>2026-04-19T08:13:58Z</time></trkpt><trkpt lat="42.591157351149974" lon="13.446541137731158"><ele>1166.0</ele><time>2026-04-19T08:13:59Z</time></trkpt><trkpt lat="42.591221827942334" lon="13.446498423020213"><ele>1166.0000000000002</ele><time>2026-04-19T08:14:00Z</time></trkpt><trkpt lat="42.59129336490289" lon="13.446468073367582"><ele>1166.0</ele><time>2026-04-19T08:14:01Z</time></trkpt><trkpt lat="42.59136178037427" lon="13.446429567719242"><ele>1166.0</ele><time>2026-04-19T08:14:02Z</time></trkpt><trkpt lat="42.591432435010304" lon="13.446399782515451"><ele>1166.0</ele><time>2026-04-19T08:14:03Z</time></trkpt><trkpt lat="42.59150010045902" lon="13.446366442217426"><ele>1166.0</ele><time>2026-04-19T08:14:04Z</time></trkpt><trkpt lat="42.59156926758593" lon="13.44634098853994"><ele>1166.0000000000002</ele><time>2026-04-19T08:14:05Z</time></trkpt><trkpt lat="42.59163301718343" lon="13.446337968594495"><ele>1166.0</ele><time>2026-04-19T08:14:06Z</time></trkpt><trkpt lat="42.591712014342974" lon="13.446336409451343"><ele>1166.0000000000002</ele><time>2026-04-19T08:14:07Z</time></trkpt><trkpt lat="42.59178872592623" lon="13.44631297503832"><ele>1166.0</ele><time>2026-04-19T08:14:08Z</time></trkpt><trkpt lat="42.59186056823756" lon="13.446296865554332"><ele>1166.0</ele><time>2026-04-19T08:14:09Z</time></trkpt><trkpt lat="42.59192433026679" lon="13.446270395646524"><ele>1166.0</ele><time>2026-04-19T08:14:10Z</time></trkpt><trkpt lat="42.591982262662036" lon="13.446227289787087"><ele>1166.0</ele><time>2026-04-19T08:14:11Z</time></trkpt><trkpt lat="42.59205035951906" lon="13.446179782145313"><ele>1166.0000000000002</ele><time>2026-04-19T08:14:12Z</time></trkpt><trkpt lat="42.59211508290921" lon="13.446166637895066"><ele>1166.0</ele><time>2026-04-19T08:14:13Z</time></trkpt><trkpt lat="42.59218453459554" lon="13.446144463576008"><ele>1173.6</ele><time>2026-04-19T08:14:14Z</time></trkpt><trkpt lat="42.59227018610642" lon="13.446132731022907"><ele>1181.1999999999998</ele><time>2026-04-19T08:14:15Z</time></trkpt><trkpt lat="42.59235622743043" lon="13.44614369076562"><ele>1188.8000000000002</ele><time>2026-04-19T08:14:16Z</time></trkpt><trkpt lat="42.59243565102969" lon="13.446196230528441"><ele>1196.4</ele><time>2026-04-19T08:14:17Z</time></trkpt><trkpt lat="42.592528069984056" lon="13.44622278969121"><ele>1204.0</ele><time>2026-04-19T08:14:18Z</time></trkpt><trkpt lat="42.592628948293545" lon="13.446268111049296"><ele>1199.8</ele><time>2026-04-19T08:14:19Z</time></trkpt><trkpt lat="42.59271875573342" lon="13.446306091560906"><ele>1195.6000000000001</ele><time>2026-04-19T08:14:20Z</time></trkpt><trkpt lat="42.5928072640094" lon="13.446329309117926"><ele>1191.4</ele><time>2026-04-19T08:14:21Z</time></trkpt><trkpt lat="42.59291618654794" lon="13.446338211721624"><ele>1187.2</ele><time>2026-04-19T08:14:22Z</time></trkpt><trkpt lat="42.59303048376816" lon="13.446331164821638"><ele>1183.0</ele><time>2026-04-19T08:14:23Z</time></trkpt><trkpt lat="42.59314002469292" lon="13.446334535715248"><ele>1183.0</ele><time>2026-04-19T08:14:24Z</time></trkpt><trkpt lat="42.593234132352364" lon="13.446355189394229"><ele>1183.0</ele><time>2026-04-19T08:14:25Z</time></trkpt><trkpt lat="42.593341933056195" lon="13.446392629274614"><ele>1183.0</ele><time>2026-04-19T08:14:26Z</time></trkpt><trkpt lat="42.59345366972468" lon="13.44643306311021"><ele>1183.0</ele><time>2026-04-19T08:14:27Z</time></trkpt><trkpt lat="42.593532640285986" lon="13.446507492479082"><ele>1183.0</ele><time>2026-04-19T08:14:28Z</time></trkpt><trkpt lat="42.59362304140035" lon="13.446570745911743"><ele>1186.0</ele><time>2026-04-19T08:14:29Z</time></trkpt><trkpt lat="42.59371876000107" lon="13.44658956750214"><ele>1189.0</ele><time>2026-04-19T08:14:30Z</time></trkpt><trkpt lat="42.59381971229812" lon="13.446606618170435"><ele>1192.0</ele><time>2026-04-19T08:14:30.999Z</time></trkpt><trkpt lat="42.593925580493455" lon="13.446590836957684"><ele>1195.0</ele><time>2026-04-19T08:14:31.999Z</time></trkpt><trkpt lat="42.59403160187504" lon="13.446547193838963"><ele>1198.0</ele><time>2026-04-19T08:14:32.999Z</time></trkpt><trkpt lat="42.59412565249701" lon="13.446535288899959"><ele>1198.0</ele><time>2026-04-19T08:14:33.999Z</time></trkpt><trkpt lat="42.59422149604947" lon="13.446533035663412"><ele>1198.0</ele><time>2026-04-19T08:14:34.999Z</time></trkpt><trkpt lat="42.59432277974814" lon="13.446515405846299"><ele>1198.0</ele><time>2026-04-19T08:14:35.999Z</time></trkpt><trkpt lat="42.59442388573638" lon="13.44653823928573"><ele>1198.0</ele><time>2026-04-19T08:14:36.999Z</time></trkpt><trkpt lat="42.59451819048764" lon="13.446536097921413"><ele>1198.0</ele><time>2026-04-19T08:14:37.999Z</time></trkpt><trkpt lat="42.59462929564934" lon="13.446520405434898"><ele>1198.0</ele><time>2026-04-19T08:14:38.999Z</time></trkpt><trkpt lat="42.594730074466746" lon="13.446488425850953"><ele>1198.0</ele><time>2026-04-19T08:14:39.999Z</time></trkpt><trkpt lat="42.59482849279179" lon="13.446423127675683"><ele>1198.0</ele><time>2026-04-19T08:14:40.999Z</time></trkpt><trkpt lat="42.594915072097535" lon="13.446339959123158"><ele>1198.0</ele><time>2026-04-19T08:14:41.999Z</time></trkpt><trkpt lat="42.59499792538963" lon="13.446317036561378"><ele>1198.0</ele><time>2026-04-19T08:14:42.999Z</time></trkpt><trkpt lat="42.59507618499254" lon="13.446309139915098"><ele>1200.4</ele><time>2026-04-19T08:14:43.999Z</time></trkpt><trkpt lat="42.59516759034813" lon="13.446276818859152"><ele>1202.8</ele><time>2026-04-19T08:14:44.999Z</time></trkpt><trkpt lat="42.59525753607746" lon="13.446242111342244"><ele>1205.2</ele><time>2026-04-19T08:14:45.999Z</time></trkpt><trkpt lat="42.59533306455078" lon="13.446188539753377"><ele>1207.6</ele><time>2026-04-19T08:14:46.999Z</time></trkpt><trkpt lat="42.5954286279757" lon="13.44614125958054"><ele>1210.0</ele><time>2026-04-19T08:14:47.999Z</time></trkpt><trkpt lat="42.59552329700081" lon="13.44607055117194"><ele>1210.0</ele><time>2026-04-19T08:14:48.999Z</time></trkpt><trkpt lat="42.59561167746159" lon="13.445976637864854"><ele>1210.0</ele><time>2026-04-19T08:14:49.999Z</time></trkpt><trkpt lat="42.59567324693207" lon="13.445875303837779"><ele>1210.0</ele><time>2026-04-19T08:14:50.999Z</time></trkpt><trkpt lat="42.59572752360477" lon="13.445753006329781"><ele>1210.0</ele><time>2026-04-19T08:14:51.999Z</time></trkpt><trkpt lat="42.5957774242229" lon="13.445627309605284"><ele>1210.0</ele><time>2026-04-19T08:14:52.999Z</time></trkpt><trkpt lat="42.59581989694107" lon="13.445499392778904"><ele>1213.6</ele><time>2026-04-19T08:14:53.999Z</time></trkpt><trkpt lat="42.59585223490715" lon="13.445364622244183"><ele>1217.2</ele><time>2026-04-19T08:14:54.999Z</time></trkpt><trkpt lat="42.595873003501644" lon="13.445233102361962"><ele>1220.8</ele><time>2026-04-19T08:14:55.999Z</time></trkpt><trkpt lat="42.59586776519318" lon="13.445106240355585"><ele>1224.4</ele><time>2026-04-19T08:14:56.999Z</time></trkpt><trkpt lat="42.595838055592985" lon="13.44497995543314"><ele>1228.0</ele><time>2026-04-19T08:14:57.999Z</time></trkpt><trkpt lat="42.59579949393828" lon="13.44487569290339"><ele>1227.9999999999998</ele><time>2026-04-19T08:14:58.999Z</time></trkpt><trkpt lat="42.59578980698336" lon="13.444783359712893"><ele>1228.0</ele><time>2026-04-19T08:14:59.999Z</time></trkpt><trkpt lat="42.59580489251872" lon="13.44469886096955"><ele>1228.0</ele><time>2026-04-19T08:15:00.999Z</time></trkpt><trkpt lat="42.595850596669365" lon="13.444636097950717"><ele>1228.0</ele><time>2026-04-19T08:15:01.999Z</time></trkpt><trkpt lat="42.595899294659084" lon="13.444564443097143"><ele>1228.0</ele><time>2026-04-19T08:15:03.999Z</time></trkpt><trkpt lat="42.595973534552314" lon="13.44450563258998"><ele>1227.9999999999998</ele><time>2026-04-19T08:15:05.999Z</time></trkpt><trkpt lat="42.59601946810204" lon="13.444427739045883"><ele>1228.0</ele><time>2026-04-19T08:15:07.999Z</time></trkpt><trkpt lat="42.59604414901037" lon="13.444343694527259"><ele>1230.6666666666665</ele><time>2026-04-19T08:15:09.999Z</time></trkpt><trkpt lat="42.59606509965027" lon="13.444246336334949"><ele>1233.3333333333333</ele><time>2026-04-19T08:15:12.999Z</time></trkpt><trkpt lat="42.596081998666776" lon="13.444138028491846"><ele>1236.0</ele><time>2026-04-19T08:15:15.999Z</time></trkpt><trkpt lat="42.5960911377347" lon="13.444014131438083"><ele>1238.6666666666667</ele><time>2026-04-19T08:15:17.999Z</time></trkpt><trkpt lat="42.596046035198825" lon="13.443934609439006"><ele>1241.3333333333335</ele><time>2026-04-19T08:15:28Z</time></trkpt><trkpt lat="42.595953340949194" lon="13.443873914698678"><ele>1244.0</ele><time>2026-04-19T08:15:30Z</time></trkpt><trkpt lat="42.59585660704393" lon="13.443931090099378"><ele>1244.0</ele><time>2026-04-19T08:15:32Z</time></trkpt><trkpt lat="42.59576721568425" lon="13.443996484866988"><ele>1244.0</ele><time>2026-04-19T08:15:34Z</time></trkpt><trkpt lat="42.59568613519349" lon="13.444067479313928"><ele>1244.0</ele><time>2026-04-19T08:15:36Z</time></trkpt><trkpt lat="42.59559815840108" lon="13.444110338957913"><ele>1244.0</ele><time>2026-04-19T08:15:38Z</time></trkpt><trkpt lat="42.59546671937075" lon="13.444179468217566"><ele>1244.0</ele><time>2026-04-19T08:15:40Z</time></trkpt><trkpt lat="42.595395779062294" lon="13.444231943412445"><ele>1246.4</ele><time>2026-04-19T08:15:41Z</time></trkpt><trkpt lat="42.59532696365035" lon="13.444282930034017"><ele>1248.8000000000002</ele><time>2026-04-19T08:15:42Z</time></trkpt><trkpt lat="42.5952619130856" lon="13.444334912462471"><ele>1251.1999999999998</ele><time>2026-04-19T08:15:43Z</time></trkpt><trkpt lat="42.59520195270542" lon="13.444377711987586"><ele>1253.6</ele><time>2026-04-19T08:15:44Z</time></trkpt><trkpt lat="42.59508388623501" lon="13.444439275901754"><ele>1256.0</ele><time>2026-04-19T08:15:46Z</time></trkpt><trkpt lat="42.59496583270235" lon="13.44447441339051"><ele>1256.0</ele><time>2026-04-19T08:15:48Z</time></trkpt><trkpt lat="42.594845271892474" lon="13.444496799357694"><ele>1256.0</ele><time>2026-04-19T08:15:50Z</time></trkpt><trkpt lat="42.59471561238408" lon="13.444553637220539"><ele>1256.0</ele><time>2026-04-19T08:15:52Z</time></trkpt><trkpt lat="42.59463973761705" lon="13.444579405722497"><ele>1256.0</ele><time>2026-04-19T08:15:53Z</time></trkpt><trkpt lat="42.594566773200754" lon="13.44458840123361"><ele>1256.0</ele><time>2026-04-19T08:15:54Z</time></trkpt><trkpt lat="42.59449844641618" lon="13.44459001066603"><ele>1256.5714285714284</ele><time>2026-04-19T08:15:55Z</time></trkpt><trkpt lat="42.594425263008226" lon="13.444580238310003"><ele>1257.142857142857</ele><time>2026-04-19T08:15:56Z</time></trkpt><trkpt lat="42.59435875046504" lon="13.444536876853045"><ele>1257.7142857142858</ele><time>2026-04-19T08:15:57Z</time></trkpt><trkpt lat="42.59429113101327" lon="13.444483967665885"><ele>1258.2857142857142</ele><time>2026-04-19T08:15:58Z</time></trkpt><trkpt lat="42.59422075153772" lon="13.444423322861615"><ele>1258.857142857143</ele><time>2026-04-19T08:15:59Z</time></trkpt><trkpt lat="42.59416631663716" lon="13.444369641823643"><ele>1259.4285714285713</ele><time>2026-04-19T08:16:00Z</time></trkpt><trkpt lat="42.59410848670761" lon="13.444311737995791"><ele>1260.0</ele><time>2026-04-19T08:16:01Z</time></trkpt><trkpt lat="42.59400358622765" lon="13.444264620251383"><ele>1260.0</ele><time>2026-04-19T08:16:02Z</time></trkpt><trkpt lat="42.593910498253" lon="13.44422123120977"><ele>1260.0</ele><time>2026-04-19T08:16:03Z</time></trkpt><trkpt lat="42.5938187532436" lon="13.444206452369638"><ele>1260.0</ele><time>2026-04-19T08:16:04Z</time></trkpt><trkpt lat="42.59374259351639" lon="13.44420958172376"><ele>1260.0</ele><time>2026-04-19T08:16:05Z</time></trkpt><trkpt lat="42.59365893222548" lon="13.444229682113294"><ele>1260.0</ele><time>2026-04-19T08:16:06Z</time></trkpt><trkpt lat="42.59355270844373" lon="13.444279639236052"><ele>1261.1666666666667</ele><time>2026-04-19T08:16:07Z</time></trkpt><trkpt lat="42.59345387835697" lon="13.44430202354547"><ele>1262.3333333333333</ele><time>2026-04-19T08:16:08Z</time></trkpt><trkpt lat="42.59338020399176" lon="13.444329956652002"><ele>1263.5</ele><time>2026-04-19T08:16:09Z</time></trkpt><trkpt lat="42.59326635062457" lon="13.444345679898849"><ele>1264.6666666666665</ele><time>2026-04-19T08:16:11Z</time></trkpt><trkpt lat="42.5931991789041" lon="13.444345997345147"><ele>1265.8333333333333</ele><time>2026-04-19T08:16:12Z</time></trkpt><trkpt lat="42.59312650266541" lon="13.444336127906409"><ele>1267.0</ele><time>2026-04-19T08:16:13Z</time></trkpt><trkpt lat="42.59305510321497" lon="13.444311690596928"><ele>1267.0</ele><time>2026-04-19T08:16:14Z</time></trkpt><trkpt lat="42.59299215728156" lon="13.444272251182731"><ele>1267.0</ele><time>2026-04-19T08:16:15Z</time></trkpt><trkpt lat="42.59293453154661" lon="13.444237649849512"><ele>1267.0</ele><time>2026-04-19T08:16:16Z</time></trkpt><trkpt lat="42.59280339272514" lon="13.444176986264948"><ele>1267.0</ele><time>2026-04-19T08:16:18Z</time></trkpt><trkpt lat="42.59274379371277" lon="13.444135491220944"><ele>1267.0</ele><time>2026-04-19T08:16:19Z</time></trkpt><trkpt lat="42.59267698094103" lon="13.44410609334926"><ele>1267.0</ele><time>2026-04-19T08:16:20Z</time></trkpt><trkpt lat="42.592617936579956" lon="13.444054073994204"><ele>1266.6666666666665</ele><time>2026-04-19T08:16:21Z</time></trkpt><trkpt lat="42.59254623775278" lon="13.444019376439542"><ele>1266.3333333333333</ele><time>2026-04-19T08:16:22Z</time></trkpt><trkpt lat="42.59247855211305" lon="13.443983380056624"><ele>1266.0</ele><time>2026-04-19T08:16:23Z</time></trkpt><trkpt lat="42.59241632531129" lon="13.44394627995683"><ele>1265.6666666666667</ele><time>2026-04-19T08:16:24Z</time></trkpt><trkpt lat="42.59230022577055" lon="13.443867901894832"><ele>1265.3333333333335</ele><time>2026-04-19T08:16:26Z</time></trkpt><trkpt lat="42.59224073829831" lon="13.443817062649185"><ele>1265.0</ele><time>2026-04-19T08:16:27Z</time></trkpt><trkpt lat="42.59218254855234" lon="13.443761440752867"><ele>1268.0</ele><time>2026-04-19T08:16:28Z</time></trkpt><trkpt lat="42.592130813820916" lon="13.443711660035463"><ele>1271.0</ele><time>2026-04-19T08:16:29Z</time></trkpt><trkpt lat="42.592078310086556" lon="13.443654432443823"><ele>1274.0</ele><time>2026-04-19T08:16:30Z</time></trkpt><trkpt lat="42.59202331923709" lon="13.44359449419691"><ele>1277.0</ele><time>2026-04-19T08:16:31Z</time></trkpt><trkpt lat="42.59197483923862" lon="13.443539691622838"><ele>1280.0</ele><time>2026-04-19T08:16:32Z</time></trkpt><trkpt lat="42.59187978096627" lon="13.443426093515496"><ele>1283.0</ele><time>2026-04-19T08:16:34Z</time></trkpt><trkpt lat="42.591789045447726" lon="13.443316514602468"><ele>1283.0</ele><time>2026-04-19T08:16:36Z</time></trkpt><trkpt lat="42.591699060128505" lon="13.443213385072168"><ele>1283.0</ele><time>2026-04-19T08:16:37.999Z</time></trkpt><trkpt lat="42.59160981917635" lon="13.44311441915842"><ele>1283.0</ele><time>2026-04-19T08:16:39.999Z</time></trkpt><trkpt lat="42.59155794884797" lon="13.443054679643662"><ele>1283.0</ele><time>2026-04-19T08:16:40.999Z</time></trkpt><trkpt lat="42.59147241959737" lon="13.442952406116405"><ele>1283.0</ele><time>2026-04-19T08:16:42.999Z</time></trkpt><trkpt lat="42.59141043198171" lon="13.442839905779923"><ele>1286.0</ele><time>2026-04-19T08:16:44.999Z</time></trkpt><trkpt lat="42.591379478554344" lon="13.442740461121833"><ele>1289.0</ele><time>2026-04-19T08:16:46.999Z</time></trkpt><trkpt lat="42.5913487724249" lon="13.442629697714462"><ele>1292.0</ele><time>2026-04-19T08:16:48.999Z</time></trkpt><trkpt lat="42.59131964448989" lon="13.442500727607625"><ele>1295.0</ele><time>2026-04-19T08:16:50.999Z</time></trkpt><trkpt lat="42.59128407241424" lon="13.44234502458789"><ele>1298.0</ele><time>2026-04-19T08:16:52.999Z</time></trkpt><trkpt lat="42.591223236365416" lon="13.4422136163086"><ele>1297.8000000000002</ele><time>2026-04-19T08:16:54.999Z</time></trkpt><trkpt lat="42.59118280061281" lon="13.442064895624883"><ele>1297.6</ele><time>2026-04-19T08:16:56.999Z</time></trkpt><trkpt lat="42.59114378036482" lon="13.441912483255232"><ele>1297.4</ele><time>2026-04-19T08:16:58.999Z</time></trkpt><trkpt lat="42.591113103634186" lon="13.441777455429552"><ele>1297.1999999999998</ele><time>2026-04-19T08:17:00.999Z</time></trkpt><trkpt lat="42.59108678635289" lon="13.441697342526068"><ele>1297.0</ele><time>2026-04-19T08:17:01.999Z</time></trkpt><trkpt lat="42.591032604125324" lon="13.44156279768601"><ele>1297.0</ele><time>2026-04-19T08:17:03.999Z</time></trkpt><trkpt lat="42.59098384046712" lon="13.441418175933737"><ele>1297.0</ele><time>2026-04-19T08:17:05.999Z</time></trkpt><trkpt lat="42.59091887249841" lon="13.441314073691887"><ele>1297.0</ele><time>2026-04-19T08:17:07.999Z</time></trkpt><trkpt lat="42.590844783756516" lon="13.44117838869982"><ele>1297.0</ele><time>2026-04-19T08:17:09.999Z</time></trkpt><trkpt lat="42.59080305692451" lon="13.441107538185866"><ele>1297.0</ele><time>2026-04-19T08:17:10.999Z</time></trkpt><trkpt lat="42.59072984505963" lon="13.440992354850279"><ele>1298.5</ele><time>2026-04-19T08:17:12.999Z</time></trkpt><trkpt lat="42.59068506902903" lon="13.440926870959226"><ele>1300.0</ele><time>2026-04-19T08:17:13.999Z</time></trkpt><trkpt lat="42.59063852026501" lon="13.440865941570298"><ele>1301.5</ele><time>2026-04-19T08:17:14.999Z</time></trkpt><trkpt lat="42.59059403883135" lon="13.440801073968364"><ele>1303.0</ele><time>2026-04-19T08:17:15.999Z</time></trkpt><trkpt lat="42.590542435773294" lon="13.440737111453014"><ele>1304.5</ele><time>2026-04-19T08:17:16.999Z</time></trkpt><trkpt lat="42.59044722870736" lon="13.440637651819086"><ele>1306.0</ele><time>2026-04-19T08:17:18.999Z</time></trkpt><trkpt lat="42.590349773705555" lon="13.4405342180735"><ele>1306.4</ele><time>2026-04-19T08:17:20.999Z</time></trkpt><trkpt lat="42.590256056451146" lon="13.440422612974958"><ele>1306.8</ele><time>2026-04-19T08:17:22.999Z</time></trkpt><trkpt lat="42.590233893752" lon="13.440336293079051"><ele>1307.2</ele><time>2026-04-19T08:17:23.999Z</time></trkpt><trkpt lat="42.59020078192464" lon="13.440263256650196"><ele>1307.6000000000001</ele><time>2026-04-19T08:17:24.999Z</time></trkpt><trkpt lat="42.590125219459296" lon="13.44013285467796"><ele>1308.0</ele><time>2026-04-19T08:17:26.999Z</time></trkpt><trkpt lat="42.59004572860098" lon="13.440015163416211"><ele>1308.0</ele><time>2026-04-19T08:17:28.999Z</time></trkpt><trkpt lat="42.58997390695453" lon="13.43993342404763"><ele>1308.0</ele><time>2026-04-19T08:17:30.999Z</time></trkpt><trkpt lat="42.59000391587949" lon="13.439812298833372"><ele>1308.0</ele><time>2026-04-19T08:17:34Z</time></trkpt><trkpt lat="42.59010413844003" lon="13.439762891010723"><ele>1308.0</ele><time>2026-04-19T08:17:36Z</time></trkpt><trkpt lat="42.590188714523514" lon="13.43974406259488"><ele>1308.0</ele><time>2026-04-19T08:17:38Z</time></trkpt></trkseg><trkseg><trkpt lat="42.59011250254467" lon="13.439710272097699"><ele>1308.0</ele><time>2026-04-19T09:10:09Z</time></trkpt><trkpt lat="42.59005167127072" lon="13.439760056161067"><ele>1308.0</ele><time>2026-04-19T09:10:11Z</time></trkpt><trkpt lat="42.5899969242075" lon="13.439819128615612"><ele>1308.0</ele><time>2026-04-19T09:10:13Z</time></trkpt><trkpt lat="42.5899534207723" lon="13.439894225836603"><ele>1308.0</ele><time>2026-04-19T09:10:15Z</time></trkpt><trkpt lat="42.58987945534541" lon="13.439904064417128"><ele>1308.0</ele><time>2026-04-19T09:10:17Z</time></trkpt><trkpt lat="42.589800480238004" lon="13.439861822201467"><ele>1308.0</ele><time>2026-04-19T09:10:19Z</time></trkpt><trkpt lat="42.589713538088105" lon="13.439784855345398"><ele>1308.0</ele><time>2026-04-19T09:10:21Z</time></trkpt><trkpt lat="42.589620766223824" lon="13.43971974342111"><ele>1308.0</ele><time>2026-04-19T09:10:23Z</time></trkpt><trkpt lat="42.58951623095328" lon="13.439671749308602"><ele>1308.0</ele><time>2026-04-19T09:10:25Z</time></trkpt><trkpt lat="42.58941769529759" lon="13.439603190775431"><ele>1308.0</ele><time>2026-04-19T09:10:27Z</time></trkpt><trkpt lat="42.58931082056793" lon="13.439526990943664"><ele>1308.0</ele><time>2026-04-19T09:10:29Z</time></trkpt><trkpt lat="42.58924070200856" lon="13.439459316410034"><ele>1309.0</ele><time>2026-04-19T09:10:31Z</time></trkpt><trkpt lat="42.58915468278579" lon="13.439392795706675"><ele>1310.0</ele><time>2026-04-19T09:10:33Z</time></trkpt><trkpt lat="42.58911144830513" lon="13.439308221261829"><ele>1311.0</ele><time>2026-04-19T09:10:34Z</time></trkpt><trkpt lat="42.5890300168836" lon="13.439199237990787"><ele>1312.0</ele><time>2026-04-19T09:10:36Z</time></trkpt><trkpt lat="42.58897764331751" lon="13.439081240003274"><ele>1313.0</ele><time>2026-04-19T09:10:38Z</time></trkpt><trkpt lat="42.58893052691116" lon="13.438960035109247"><ele>1313.0</ele><time>2026-04-19T09:10:40Z</time></trkpt><trkpt lat="42.588886091454754" lon="13.438849908513596"><ele>1313.0</ele><time>2026-04-19T09:10:42Z</time></trkpt><trkpt lat="42.58885386592178" lon="13.438717755641216"><ele>1313.0</ele><time>2026-04-19T09:10:44Z</time></trkpt><trkpt lat="42.58884791436597" lon="13.438580631593311"><ele>1313.0</ele><time>2026-04-19T09:10:46Z</time></trkpt><trkpt lat="42.58886622013414" lon="13.43843365392757"><ele>1313.0</ele><time>2026-04-19T09:10:48Z</time></trkpt><trkpt lat="42.58890332057853" lon="13.438277253935548"><ele>1315.0</ele><time>2026-04-19T09:10:50Z</time></trkpt><trkpt lat="42.58893569098721" lon="13.438116986582838"><ele>1317.0</ele><time>2026-04-19T09:10:52Z</time></trkpt><trkpt lat="42.588952458922144" lon="13.438033136786272"><ele>1319.0</ele><time>2026-04-19T09:10:53Z</time></trkpt><trkpt lat="42.5889723128198" lon="13.437947152085602"><ele>1321.0</ele><time>2026-04-19T09:10:54Z</time></trkpt><trkpt lat="42.58900136845691" lon="13.437777919693467"><ele>1323.0</ele><time>2026-04-19T09:10:56Z</time></trkpt><trkpt lat="42.58902851885827" lon="13.437645863963198"><ele>1323.0</ele><time>2026-04-19T09:10:58Z</time></trkpt><trkpt lat="42.58905413933595" lon="13.437517881616994"><ele>1323.0</ele><time>2026-04-19T09:11:00Z</time></trkpt><trkpt lat="42.58908056270328" lon="13.437360815682185"><ele>1323.0</ele><time>2026-04-19T09:11:02Z</time></trkpt><trkpt lat="42.58912136762028" lon="13.437227184122541"><ele>1323.0</ele><time>2026-04-19T09:11:04Z</time></trkpt><trkpt lat="42.58918011814075" lon="13.437110094543273"><ele>1323.0</ele><time>2026-04-19T09:11:06Z</time></trkpt><trkpt lat="42.58923021413581" lon="13.43701994610602"><ele>1322.8000000000002</ele><time>2026-04-19T09:11:08Z</time></trkpt><trkpt lat="42.5893087485417" lon="13.436956889932782"><ele>1322.6</ele><time>2026-04-19T09:11:10Z</time></trkpt><trkpt lat="42.58941140997449" lon="13.436966578098001"><ele>1322.4</ele><time>2026-04-19T09:11:12Z</time></trkpt><trkpt lat="42.589520039764096" lon="13.436950204693535"><ele>1322.1999999999998</ele><time>2026-04-19T09:11:14Z</time></trkpt><trkpt lat="42.589629068370115" lon="13.43694322639767"><ele>1322.0</ele><time>2026-04-19T09:11:16Z</time></trkpt><trkpt lat="42.589737919227055" lon="13.43692258321936"><ele>1326.0</ele><time>2026-04-19T09:11:18Z</time></trkpt><trkpt lat="42.589856787284724" lon="13.436906065923846"><ele>1330.0</ele><time>2026-04-19T09:11:20Z</time></trkpt><trkpt lat="42.589968011977255" lon="13.43686715119756"><ele>1334.0</ele><time>2026-04-19T09:11:22Z</time></trkpt><trkpt lat="42.59006403284632" lon="13.436778456369554"><ele>1338.0</ele><time>2026-04-19T09:11:24Z</time></trkpt><trkpt lat="42.59015195143647" lon="13.436673092892825"><ele>1338.0</ele><time>2026-04-19T09:11:26Z</time></trkpt><trkpt lat="42.590229593106756" lon="13.436560809299733"><ele>1338.0</ele><time>2026-04-19T09:11:28Z</time></trkpt><trkpt lat="42.59033194918201" lon="13.436504054587914"><ele>1338.0</ele><time>2026-04-19T09:11:30Z</time></trkpt><trkpt lat="42.59043521059121" lon="13.436453025233902"><ele>1338.0</ele><time>2026-04-19T09:11:32Z</time></trkpt><trkpt lat="42.59054011092463" lon="13.436432209501122"><ele>1338.0</ele><time>2026-04-19T09:11:34Z</time></trkpt><trkpt lat="42.59063579080623" lon="13.436500840164234"><ele>1338.6666666666667</ele><time>2026-04-19T09:11:36Z</time></trkpt><trkpt lat="42.590741843500695" lon="13.436539609366875"><ele>1339.3333333333333</ele><time>2026-04-19T09:11:38Z</time></trkpt><trkpt lat="42.590855654958446" lon="13.436587364188318"><ele>1340.0</ele><time>2026-04-19T09:11:40Z</time></trkpt><trkpt lat="42.59091995230977" lon="13.436588470425121"><ele>1340.6666666666665</ele><time>2026-04-19T09:11:41Z</time></trkpt><trkpt lat="42.59098483712518" lon="13.436567300735604"><ele>1341.3333333333333</ele><time>2026-04-19T09:11:42Z</time></trkpt><trkpt lat="42.59104723114712" lon="13.436527043365592"><ele>1342.0</ele><time>2026-04-19T09:11:43Z</time></trkpt><trkpt lat="42.59110050123993" lon="13.436465204138647"><ele>1342.0</ele><time>2026-04-19T09:11:44Z</time></trkpt><trkpt lat="42.59115960123496" lon="13.436407753651231"><ele>1342.0</ele><time>2026-04-19T09:11:45Z</time></trkpt><trkpt lat="42.59122489578847" lon="13.436372983502148"><ele>1342.0</ele><time>2026-04-19T09:11:46Z</time></trkpt><trkpt lat="42.591345160872244" lon="13.436365144892312"><ele>1342.0</ele><time>2026-04-19T09:11:48Z</time></trkpt><trkpt lat="42.591413734057376" lon="13.436386903445744"><ele>1342.0</ele><time>2026-04-19T09:11:49Z</time></trkpt><trkpt lat="42.59147538418278" lon="13.436435213396232"><ele>1342.0</ele><time>2026-04-19T09:11:50Z</time></trkpt><trkpt lat="42.59152791736934" lon="13.436505113142642"><ele>1344.3999999999999</ele><time>2026-04-19T09:11:51Z</time></trkpt><trkpt lat="42.59157481002203" lon="13.436574533232234"><ele>1346.8</ele><time>2026-04-19T09:11:52Z</time></trkpt><trkpt lat="42.59162131387801" lon="13.436640311732335"><ele>1349.2</ele><time>2026-04-19T09:11:53Z</time></trkpt><trkpt lat="42.591710967330066" lon="13.436744581148542"><ele>1351.6</ele><time>2026-04-19T09:11:55Z</time></trkpt><trkpt lat="42.59180929407397" lon="13.4368368890261"><ele>1354.0</ele><time>2026-04-19T09:11:57Z</time></trkpt><trkpt lat="42.591923089493854" lon="13.436908076421652"><ele>1353.9999999999998</ele><time>2026-04-19T09:11:59Z</time></trkpt><trkpt lat="42.59199689218033" lon="13.436910809684301"><ele>1354.0</ele><time>2026-04-19T09:12:00Z</time></trkpt><trkpt lat="42.59207821604538" lon="13.436892671972407"><ele>1354.0</ele><time>2026-04-19T09:12:01Z</time></trkpt><trkpt lat="42.5921514348524" lon="13.436876732430495"><ele>1354.0</ele><time>2026-04-19T09:12:02Z</time></trkpt><trkpt lat="42.59222123013023" lon="13.436848151261678"><ele>1354.0</ele><time>2026-04-19T09:12:03Z</time></trkpt><trkpt lat="42.59229018406453" lon="13.436824093648472"><ele>1353.9999999999998</ele><time>2026-04-19T09:12:04Z</time></trkpt><trkpt lat="42.59236274377125" lon="13.436799797444737"><ele>1354.0</ele><time>2026-04-19T09:12:05Z</time></trkpt><trkpt lat="42.592435257086656" lon="13.436771478697294"><ele>1356.3333333333333</ele><time>2026-04-19T09:12:06Z</time></trkpt><trkpt lat="42.59251034832457" lon="13.43673476151215"><ele>1358.6666666666665</ele><time>2026-04-19T09:12:07Z</time></trkpt><trkpt lat="42.59257396758183" lon="13.436712876814763"><ele>1361.0</ele><time>2026-04-19T09:12:08Z</time></trkpt><trkpt lat="42.592644520568896" lon="13.436706984236578"><ele>1363.3333333333333</ele><time>2026-04-19T09:12:09Z</time></trkpt><trkpt lat="42.59276683411466" lon="13.436723537892274"><ele>1365.6666666666667</ele><time>2026-04-19T09:12:11Z</time></trkpt><trkpt lat="42.592837032610184" lon="13.436732782581831"><ele>1368.0</ele><time>2026-04-19T09:12:12Z</time></trkpt><trkpt lat="42.59290863543675" lon="13.436739503999775"><ele>1369.4</ele><time>2026-04-19T09:12:13Z</time></trkpt><trkpt lat="42.592990367107326" lon="13.436729764002756"><ele>1370.8000000000002</ele><time>2026-04-19T09:12:14Z</time></trkpt><trkpt lat="42.593070244968985" lon="13.436698065929368"><ele>1372.2</ele><time>2026-04-19T09:12:15Z</time></trkpt><trkpt lat="42.59315064010684" lon="13.436677558542812"><ele>1373.6</ele><time>2026-04-19T09:12:16Z</time></trkpt><trkpt lat="42.59323074156421" lon="13.43664435169913"><ele>1375.0</ele><time>2026-04-19T09:12:17Z</time></trkpt><trkpt lat="42.59335453135461" lon="13.436607799452592"><ele>1375.0</ele><time>2026-04-19T09:12:19Z</time></trkpt><trkpt lat="42.593431986544196" lon="13.436597065710675"><ele>1375.0</ele><time>2026-04-19T09:12:20Z</time></trkpt><trkpt lat="42.593504503816" lon="13.436592935042924"><ele>1375.0</ele><time>2026-04-19T09:12:21Z</time></trkpt><trkpt lat="42.59358472644622" lon="13.436574552730695"><ele>1375.0</ele><time>2026-04-19T09:12:22Z</time></trkpt><trkpt lat="42.59366163815648" lon="13.436573260748329"><ele>1375.0</ele><time>2026-04-19T09:12:23Z</time></trkpt><trkpt lat="42.593738761903175" lon="13.436576549145519"><ele>1375.0</ele><time>2026-04-19T09:12:24Z</time></trkpt><trkpt lat="42.593817295680985" lon="13.436583498669691"><ele>1376.5714285714284</ele><time>2026-04-19T09:12:25Z</time></trkpt><trkpt lat="42.59388502196829" lon="13.436616706832591"><ele>1378.142857142857</ele><time>2026-04-19T09:12:26Z</time></trkpt><trkpt lat="42.59395476002858" lon="13.436629146181726"><ele>1379.7142857142858</ele><time>2026-04-19T09:12:27Z</time></trkpt><trkpt lat="42.59403169532434" lon="13.436644907692507"><ele>1381.2857142857142</ele><time>2026-04-19T09:12:28Z</time></trkpt><trkpt lat="42.59410179347941" lon="13.436659268480001"><ele>1382.857142857143</ele><time>2026-04-19T09:12:29Z</time></trkpt><trkpt lat="42.59417985631503" lon="13.436657656203039"><ele>1384.4285714285713</ele><time>2026-04-19T09:12:30Z</time></trkpt><trkpt lat="42.59425406745769" lon="13.436679089148248"><ele>1386.0</ele><time>2026-04-19T09:12:31Z</time></trkpt><trkpt lat="42.59432290247744" lon="13.436704001606989"><ele>1386.0</ele><time>2026-04-19T09:12:32Z</time></trkpt><trkpt lat="42.59438541672559" lon="13.436749644233739"><ele>1386.0</ele><time>2026-04-19T09:12:33Z</time></trkpt><trkpt lat="42.59445980122159" lon="13.436756316006365"><ele>1386.0</ele><time>2026-04-19T09:12:34Z</time></trkpt><trkpt lat="42.59452497650616" lon="13.436778157748522"><ele>1386.0</ele><time>2026-04-19T09:12:35Z</time></trkpt><trkpt lat="42.594599559701635" lon="13.436777143344043"><ele>1386.0</ele><time>2026-04-19T09:12:36Z</time></trkpt><trkpt lat="42.5946724728111" lon="13.436745935241841"><ele>1386.0</ele><time>2026-04-19T09:12:37Z</time></trkpt><trkpt lat="42.594731091909594" lon="13.436700607710574"><ele>1386.0</ele><time>2026-04-19T09:12:38Z</time></trkpt><trkpt lat="42.59478732555809" lon="13.436648688393667"><ele>1387.5</ele><time>2026-04-19T09:12:39Z</time></trkpt><trkpt lat="42.59487531916465" lon="13.436528960621564"><ele>1389.0</ele><time>2026-04-19T09:12:41Z</time></trkpt><trkpt lat="42.59492764617763" lon="13.436461973602853"><ele>1390.5</ele><time>2026-04-19T09:12:42Z</time></trkpt><trkpt lat="42.59499943382326" lon="13.43644128880235"><ele>1392.0</ele><time>2026-04-19T09:12:43Z</time></trkpt><trkpt lat="42.595070948077115" lon="13.436411052796597"><ele>1393.5</ele><time>2026-04-19T09:12:44Z</time></trkpt><trkpt lat="42.595133698643515" lon="13.436372077831656"><ele>1395.0</ele><time>2026-04-19T09:12:45Z</time></trkpt><trkpt lat="42.59521079632423" lon="13.436373031826703"><ele>1395.0</ele><time>2026-04-19T09:12:46Z</time></trkpt><trkpt lat="42.595277757534525" lon="13.436368227336372"><ele>1395.0</ele><time>2026-04-19T09:12:47Z</time></trkpt><trkpt lat="42.59534587454919" lon="13.436377252588006"><ele>1395.0</ele><time>2026-04-19T09:12:48Z</time></trkpt><trkpt lat="42.595414324205606" lon="13.436391523483998"><ele>1395.0</ele><time>2026-04-19T09:12:49Z</time></trkpt><trkpt lat="42.595486266929235" lon="13.436409268291282"><ele>1395.0</ele><time>2026-04-19T09:12:50Z</time></trkpt><trkpt lat="42.595549441515814" lon="13.436424831872182"><ele>1395.0</ele><time>2026-04-19T09:12:51Z</time></trkpt><trkpt lat="42.5956212300229" lon="13.436444161165287"><ele>1395.0</ele><time>2026-04-19T09:12:52Z</time></trkpt><trkpt lat="42.59570178211379" lon="13.436456453366578"><ele>1396.1666666666667</ele><time>2026-04-19T09:12:53Z</time></trkpt><trkpt lat="42.59577214305585" lon="13.436474499937608"><ele>1397.3333333333333</ele><time>2026-04-19T09:12:54Z</time></trkpt><trkpt lat="42.595845316354314" lon="13.436492692534117"><ele>1398.5</ele><time>2026-04-19T09:12:55Z</time></trkpt><trkpt lat="42.595919232580364" lon="13.43651658978152"><ele>1399.6666666666665</ele><time>2026-04-19T09:12:56Z</time></trkpt><trkpt lat="42.59598836432335" lon="13.436555290843337"><ele>1400.8333333333333</ele><time>2026-04-19T09:12:57Z</time></trkpt><trkpt lat="42.59606680326166" lon="13.4365781095471"><ele>1402.0</ele><time>2026-04-19T09:12:58Z</time></trkpt><trkpt lat="42.59614899790928" lon="13.436580292803907"><ele>1404.0</ele><time>2026-04-19T09:12:59Z</time></trkpt><trkpt lat="42.59622098062681" lon="13.436606856681141"><ele>1406.0</ele><time>2026-04-19T09:13:00Z</time></trkpt><trkpt lat="42.59629815542261" lon="13.436625184074982"><ele>1408.0</ele><time>2026-04-19T09:13:01Z</time></trkpt><trkpt lat="42.596372830153136" lon="13.436668743450017"><ele>1410.0</ele><time>2026-04-19T09:13:02Z</time></trkpt><trkpt lat="42.596456538564276" lon="13.436690908309433"><ele>1412.0</ele><time>2026-04-19T09:13:03Z</time></trkpt><trkpt lat="42.59653702863988" lon="13.436724903840174"><ele>1414.0</ele><time>2026-04-19T09:13:04Z</time></trkpt><trkpt lat="42.596619405217325" lon="13.436733798128326"><ele>1414.0</ele><time>2026-04-19T09:13:05Z</time></trkpt><trkpt lat="42.59669941099518" lon="13.436740353093926"><ele>1414.0</ele><time>2026-04-19T09:13:06Z</time></trkpt><trkpt lat="42.596778173761926" lon="13.436709531372944"><ele>1414.0</ele><time>2026-04-19T09:13:07Z</time></trkpt><trkpt lat="42.59685542853771" lon="13.436655452488642"><ele>1414.0</ele><time>2026-04-19T09:13:08Z</time></trkpt><trkpt lat="42.59691645073629" lon="13.436587622666599"><ele>1414.0</ele><time>2026-04-19T09:13:09Z</time></trkpt><trkpt lat="42.59696027632038" lon="13.4365164334251"><ele>1414.0</ele><time>2026-04-19T09:13:10Z</time></trkpt><trkpt lat="42.59698302010712" lon="13.43642508397368"><ele>1414.0</ele><time>2026-04-19T09:13:11Z</time></trkpt><trkpt lat="42.5969708495081" lon="13.436332344188836"><ele>1414.0</ele><time>2026-04-19T09:13:12Z</time></trkpt><trkpt lat="42.59692254120872" lon="13.43625589493194"><ele>1414.0</ele><time>2026-04-19T09:13:13Z</time></trkpt><trkpt lat="42.596856789017906" lon="13.436191408646025"><ele>1414.0</ele><time>2026-04-19T09:13:14Z</time></trkpt><trkpt lat="42.59676052728454" lon="13.436171060459573"><ele>1414.0</ele><time>2026-04-19T09:13:15Z</time></trkpt><trkpt lat="42.59666735529949" lon="13.43614990521354"><ele>1414.0</ele><time>2026-04-19T09:13:16Z</time></trkpt><trkpt lat="42.59658747279888" lon="13.436107185921575"><ele>1416.5</ele><time>2026-04-19T09:13:17Z</time></trkpt><trkpt lat="42.59651112165101" lon="13.436062172529633"><ele>1419.0</ele><time>2026-04-19T09:13:18Z</time></trkpt><trkpt lat="42.596439168254484" lon="13.436020246034499"><ele>1421.5</ele><time>2026-04-19T09:13:19Z</time></trkpt><trkpt lat="42.59638161735621" lon="13.435957588163333"><ele>1424.0</ele><time>2026-04-19T09:13:20Z</time></trkpt><trkpt lat="42.59635177365124" lon="13.435856186728872"><ele>1426.5</ele><time>2026-04-19T09:13:21Z</time></trkpt><trkpt lat="42.59629855002228" lon="13.435758696351074"><ele>1429.0</ele><time>2026-04-19T09:13:22Z</time></trkpt><trkpt lat="42.596265245026714" lon="13.435655762108764"><ele>1429.0</ele><time>2026-04-19T09:13:23Z</time></trkpt><trkpt lat="42.596234790569866" lon="13.435558428007363"><ele>1429.0</ele><time>2026-04-19T09:13:24Z</time></trkpt><trkpt lat="42.596210100476235" lon="13.435470239033515"><ele>1429.0</ele><time>2026-04-19T09:13:25Z</time></trkpt><trkpt lat="42.596172468602035" lon="13.43538460681659"><ele>1429.0</ele><time>2026-04-19T09:13:26Z</time></trkpt><trkpt lat="42.596136672880775" lon="13.435303151794178"><ele>1429.0</ele><time>2026-04-19T09:13:27Z</time></trkpt><trkpt lat="42.59610142006466" lon="13.43522293246707"><ele>1429.0</ele><time>2026-04-19T09:13:28Z</time></trkpt><trkpt lat="42.59605735979683" lon="13.435155220999615"><ele>1429.0</ele><time>2026-04-19T09:13:29Z</time></trkpt><trkpt lat="42.59604168655734" lon="13.435070118830076"><ele>1429.0</ele><time>2026-04-19T09:13:30Z</time></trkpt><trkpt lat="42.596009198923305" lon="13.43498712211595"><ele>1429.0</ele><time>2026-04-19T09:13:31Z</time></trkpt><trkpt lat="42.595938311428554" lon="13.434833530782269"><ele>1429.0</ele><time>2026-04-19T09:13:33Z</time></trkpt><trkpt lat="42.595901948527455" lon="13.434748471692993"><ele>1429.0</ele><time>2026-04-19T09:13:34Z</time></trkpt><trkpt lat="42.59586101543948" lon="13.434671072371774"><ele>1429.0</ele><time>2026-04-19T09:13:35Z</time></trkpt><trkpt lat="42.5957955069253" lon="13.43454301903177"><ele>1432.0</ele><time>2026-04-19T09:13:37Z</time></trkpt><trkpt lat="42.5957293216167" lon="13.434412217533827"><ele>1435.0</ele><time>2026-04-19T09:13:39Z</time></trkpt><trkpt lat="42.595669936856005" lon="13.434270336093167"><ele>1438.0</ele><time>2026-04-19T09:13:41Z</time></trkpt><trkpt lat="42.595588271429435" lon="13.434138775581566"><ele>1441.0</ele><time>2026-04-19T09:13:43Z</time></trkpt><trkpt lat="42.59555455244355" lon="13.434062949768096"><ele>1444.0</ele><time>2026-04-19T09:13:44Z</time></trkpt><trkpt lat="42.59551763325548" lon="13.433983338055013"><ele>1444.0</ele><time>2026-04-19T09:13:45Z</time></trkpt><trkpt lat="42.5954764873036" lon="13.433916213182886"><ele>1444.0</ele><time>2026-04-19T09:13:46Z</time></trkpt><trkpt lat="42.595434673740094" lon="13.433851368172283"><ele>1444.0</ele><time>2026-04-19T09:13:47Z</time></trkpt><trkpt lat="42.59539001677633" lon="13.433790631282823"><ele>1444.0</ele><time>2026-04-19T09:13:48Z</time></trkpt><trkpt lat="42.595344332887414" lon="13.433731071366532"><ele>1444.0</ele><time>2026-04-19T09:13:49Z</time></trkpt><trkpt lat="42.59530768597288" lon="13.433651595628719"><ele>1444.0</ele><time>2026-04-19T09:13:50Z</time></trkpt><trkpt lat="42.59526077380541" lon="13.433589126158248"><ele>1444.0</ele><time>2026-04-19T09:13:51Z</time></trkpt><trkpt lat="42.59520074417799" lon="13.433542049104162"><ele>1445.2857142857144</ele><time>2026-04-19T09:13:52Z</time></trkpt><trkpt lat="42.595148287723624" lon="13.433477001620117"><ele>1446.5714285714284</ele><time>2026-04-19T09:13:53Z</time></trkpt><trkpt lat="42.595099985239365" lon="13.433401872458338"><ele>1447.857142857143</ele><time>2026-04-19T09:13:54Z</time></trkpt><trkpt lat="42.5950530922337" lon="13.433330946970223"><ele>1449.1428571428573</ele><time>2026-04-19T09:13:55Z</time></trkpt><trkpt lat="42.594987837500305" lon="13.433264702023624"><ele>1450.4285714285716</ele><time>2026-04-19T09:13:56Z</time></trkpt><trkpt lat="42.594933171043905" lon="13.43321868510351"><ele>1451.7142857142858</ele><time>2026-04-19T09:13:57Z</time></trkpt><trkpt lat="42.59486837448832" lon="13.433174734446313"><ele>1453.0</ele><time>2026-04-19T09:13:58Z</time></trkpt><trkpt lat="42.5948026211771" lon="13.433138092040272"><ele>1453.0000000000002</ele><time>2026-04-19T09:13:59Z</time></trkpt><trkpt lat="42.59473281975784" lon="13.433106689455176"><ele>1453.0</ele><time>2026-04-19T09:14:00Z</time></trkpt><trkpt lat="42.59466502528102" lon="13.433080981273012"><ele>1453.0</ele><time>2026-04-19T09:14:01Z</time></trkpt><trkpt lat="42.594603124137805" lon="13.43303848543802"><ele>1453.0</ele><time>2026-04-19T09:14:02Z</time></trkpt><trkpt lat="42.59455878357536" lon="13.43296268800649"><ele>1453.0</ele><time>2026-04-19T09:14:03Z</time></trkpt><trkpt lat="42.59449832355658" lon="13.432925897910724"><ele>1453.0000000000002</ele><time>2026-04-19T09:14:04Z</time></trkpt><trkpt lat="42.594448556685784" lon="13.432864086391236"><ele>1453.0</ele><time>2026-04-19T09:14:05Z</time></trkpt><trkpt lat="42.5943956745201" lon="13.432804960326578"><ele>1456.8000000000002</ele><time>2026-04-19T09:14:06Z</time></trkpt><trkpt lat="42.594297807058524" lon="13.432738352424343"><ele>1460.6</ele><time>2026-04-19T09:14:08Z</time></trkpt><trkpt lat="42.594187091380284" lon="13.432668612026914"><ele>1464.4</ele><time>2026-04-19T09:14:10Z</time></trkpt><trkpt lat="42.59412995252014" lon="13.432615042894675"><ele>1468.1999999999998</ele><time>2026-04-19T09:14:11Z</time></trkpt><trkpt lat="42.59401853880244" lon="13.432546132764834"><ele>1472.0</ele><time>2026-04-19T09:14:13Z</time></trkpt><trkpt lat="42.59390156379646" lon="13.432491734558912"><ele>1472.0</ele><time>2026-04-19T09:14:15Z</time></trkpt><trkpt lat="42.593845890591474" lon="13.432440133725095"><ele>1472.0</ele><time>2026-04-19T09:14:16Z</time></trkpt><trkpt lat="42.59373323434246" lon="13.432382828560158"><ele>1472.0</ele><time>2026-04-19T09:14:18Z</time></trkpt><trkpt lat="42.59367303971045" lon="13.432330244674565"><ele>1472.0</ele><time>2026-04-19T09:14:19Z</time></trkpt><trkpt lat="42.59361760401842" lon="13.432248538143106"><ele>1472.0</ele><time>2026-04-19T09:14:20Z</time></trkpt><trkpt lat="42.593553774980954" lon="13.432209976988052"><ele>1472.0</ele><time>2026-04-19T09:14:21Z</time></trkpt><trkpt lat="42.593448144605084" lon="13.43213987302597"><ele>1472.857142857143</ele><time>2026-04-19T09:14:23Z</time></trkpt><trkpt lat="42.59340265933388" lon="13.43207376362452"><ele>1473.7142857142856</ele><time>2026-04-19T09:14:24Z</time></trkpt><trkpt lat="42.59334746561762" lon="13.43202136744284"><ele>1474.5714285714284</ele><time>2026-04-19T09:14:25Z</time></trkpt><trkpt lat="42.59329415974718" lon="13.43196555863858"><ele>1475.4285714285716</ele><time>2026-04-19T09:14:26Z</time></trkpt><trkpt lat="42.593242086998636" lon="13.431906615804266"><ele>1476.2857142857142</ele><time>2026-04-19T09:14:27Z</time></trkpt><trkpt lat="42.593187089359326" lon="13.431839870002015"><ele>1477.142857142857</ele><time>2026-04-19T09:14:28Z</time></trkpt><trkpt lat="42.593127342490206" lon="13.431766698254233"><ele>1478.0</ele><time>2026-04-19T09:14:29Z</time></trkpt><trkpt lat="42.59306857038328" lon="13.431694720725702"><ele>1478.0</ele><time>2026-04-19T09:14:30Z</time></trkpt><trkpt lat="42.59300348641949" lon="13.431621027419336"><ele>1478.0</ele><time>2026-04-19T09:14:31Z</time></trkpt><trkpt lat="42.59294994621599" lon="13.431560724941736"><ele>1478.0</ele><time>2026-04-19T09:14:32Z</time></trkpt><trkpt lat="42.59289452760877" lon="13.43149539754976"><ele>1478.0</ele><time>2026-04-19T09:14:33Z</time></trkpt><trkpt lat="42.592842090886016" lon="13.431425061794934"><ele>1478.0</ele><time>2026-04-19T09:14:34Z</time></trkpt><trkpt lat="42.592786816897316" lon="13.431367209503646"><ele>1478.0</ele><time>2026-04-19T09:14:35Z</time></trkpt><trkpt lat="42.592754771961566" lon="13.431278135229697"><ele>1478.0</ele><time>2026-04-19T09:14:36Z</time></trkpt><trkpt lat="42.5927336198533" lon="13.43118728591754"><ele>1477.7142857142858</ele><time>2026-04-19T09:14:37Z</time></trkpt><trkpt lat="42.59272822846588" lon="13.431089699063524"><ele>1477.4285714285716</ele><time>2026-04-19T09:14:38Z</time></trkpt><trkpt lat="42.59274664508047" lon="13.43100007314207"><ele>1477.142857142857</ele><time>2026-04-19T09:14:39Z</time></trkpt><trkpt lat="42.592780546921745" lon="13.430923758533336"><ele>1476.857142857143</ele><time>2026-04-19T09:14:40Z</time></trkpt><trkpt lat="42.59283822113692" lon="13.430877760550866"><ele>1476.5714285714284</ele><time>2026-04-19T09:14:41Z</time></trkpt><trkpt lat="42.59290340780333" lon="13.43085588641879"><ele>1476.2857142857142</ele><time>2026-04-19T09:14:42Z</time></trkpt><trkpt lat="42.5929827928917" lon="13.430897679659797"><ele>1476.0</ele><time>2026-04-19T09:14:43Z</time></trkpt><trkpt lat="42.593052463928636" lon="13.430925544427732"><ele>1478.0</ele><time>2026-04-19T09:14:44Z</time></trkpt><trkpt lat="42.59311484613978" lon="13.430964725692462"><ele>1480.0</ele><time>2026-04-19T09:14:45Z</time></trkpt><trkpt lat="42.59319057449697" lon="13.430996895873143"><ele>1482.0</ele><time>2026-04-19T09:14:46Z</time></trkpt><trkpt lat="42.59325513811379" lon="13.431044700960358"><ele>1484.0</ele><time>2026-04-19T09:14:47Z</time></trkpt><trkpt lat="42.593322855554526" lon="13.431085458765924"><ele>1486.0</ele><time>2026-04-19T09:14:48Z</time></trkpt><trkpt lat="42.59339574851099" lon="13.43110732804335"><ele>1488.0</ele><time>2026-04-19T09:14:49Z</time></trkpt><trkpt lat="42.59346100709474" lon="13.43110695567473"><ele>1490.0</ele><time>2026-04-19T09:14:50Z</time></trkpt><trkpt lat="42.59358437219789" lon="13.43111371365577"><ele>1490.0</ele><time>2026-04-19T09:14:52Z</time></trkpt><trkpt lat="42.593658945155404" lon="13.431119393699747"><ele>1490.0</ele><time>2026-04-19T09:14:53Z</time></trkpt><trkpt lat="42.593725493715276" lon="13.431124462571267"><ele>1490.0</ele><time>2026-04-19T09:14:53.999Z</time></trkpt><trkpt lat="42.59379191430114" lon="13.431115330048202"><ele>1490.0</ele><time>2026-04-19T09:14:54.999Z</time></trkpt><trkpt lat="42.59386202442745" lon="13.431120954008328"><ele>1490.0</ele><time>2026-04-19T09:14:55.999Z</time></trkpt><trkpt lat="42.59393077663117" lon="13.431124498733581"><ele>1490.0</ele><time>2026-04-19T09:14:56.999Z</time></trkpt><trkpt lat="42.59400217327535" lon="13.43113187135993"><ele>1490.0</ele><time>2026-04-19T09:14:57.999Z</time></trkpt><trkpt lat="42.59406911587612" lon="13.431138088601989"><ele>1490.5</ele><time>2026-04-19T09:14:58.999Z</time></trkpt><trkpt lat="42.59413634819832" lon="13.431141949058661"><ele>1491.0</ele><time>2026-04-19T09:14:59.999Z</time></trkpt><trkpt lat="42.594206790608546" lon="13.431145546648487"><ele>1491.5</ele><time>2026-04-19T09:15:00.999Z</time></trkpt><trkpt lat="42.594260640143204" lon="13.431216691038797"><ele>1492.0</ele><time>2026-04-19T09:15:01.999Z</time></trkpt><trkpt lat="42.59436889553957" lon="13.431319070489451"><ele>1492.5</ele><time>2026-04-19T09:15:03.999Z</time></trkpt><trkpt lat="42.59442447562132" lon="13.431380330220543"><ele>1493.0</ele><time>2026-04-19T09:15:04.999Z</time></trkpt><trkpt lat="42.59449158747677" lon="13.431428691807616"><ele>1494.5</ele><time>2026-04-19T09:15:05.999Z</time></trkpt><trkpt lat="42.59456731222497" lon="13.431473865856471"><ele>1496.0</ele><time>2026-04-19T09:15:06.999Z</time></trkpt><trkpt lat="42.594639942596096" lon="13.431522052677593"><ele>1497.5</ele><time>2026-04-19T09:15:07.999Z</time></trkpt><trkpt lat="42.59471606928251" lon="13.431569280150894"><ele>1499.0</ele><time>2026-04-19T09:15:08.999Z</time></trkpt><trkpt lat="42.59478976020053" lon="13.431615712069812"><ele>1500.5</ele><time>2026-04-19T09:15:09.999Z</time></trkpt><trkpt lat="42.59486456720027" lon="13.431651444685786"><ele>1502.0</ele><time>2026-04-19T09:15:10.999Z</time></trkpt><trkpt lat="42.59493531310862" lon="13.431685405905478"><ele>1502.0</ele><time>2026-04-19T09:15:11.999Z</time></trkpt><trkpt lat="42.59499461415109" lon="13.431736268867828"><ele>1502.0</ele><time>2026-04-19T09:15:12.999Z</time></trkpt><trkpt lat="42.59506865851157" lon="13.431747320924606"><ele>1502.0</ele><time>2026-04-19T09:15:13.999Z</time></trkpt><trkpt lat="42.595136712481896" lon="13.431770437957518"><ele>1502.0</ele><time>2026-04-19T09:15:14.999Z</time></trkpt><trkpt lat="42.59520881272169" lon="13.431769702390485"><ele>1502.0</ele><time>2026-04-19T09:15:15.999Z</time></trkpt><trkpt lat="42.59529652955991" lon="13.431656165594674"><ele>1502.0</ele><time>2026-04-19T09:15:17.999Z</time></trkpt><trkpt lat="42.59530447328619" lon="13.431565009687118"><ele>1502.0</ele><time>2026-04-19T09:15:18.999Z</time></trkpt><trkpt lat="42.59526178779455" lon="13.431470766055723"><ele>1502.0</ele><time>2026-04-19T09:15:19.999Z</time></trkpt><trkpt lat="42.59518673329215" lon="13.43139906504306"><ele>1502.0</ele><time>2026-04-19T09:15:20.999Z</time></trkpt><trkpt lat="42.59508667893486" lon="13.431352396069256"><ele>1502.0</ele><time>2026-04-19T09:15:21.999Z</time></trkpt><trkpt lat="42.594967259350774" lon="13.431303799024468"><ele>1502.0</ele><time>2026-04-19T09:15:22.999Z</time></trkpt><trkpt lat="42.59488903632317" lon="13.431261330163238"><ele>1504.6666666666667</ele><time>2026-04-19T09:15:23.999Z</time></trkpt><trkpt lat="42.59483615162447" lon="13.431212265393325"><ele>1507.3333333333335</ele><time>2026-04-19T09:15:24.999Z</time></trkpt><trkpt lat="42.594779239224536" lon="13.431149468674764"><ele>1510.0</ele><time>2026-04-19T09:15:25.999Z</time></trkpt><trkpt lat="42.594728430131205" lon="13.431074635408264"><ele>1512.6666666666667</ele><time>2026-04-19T09:15:26.999Z</time></trkpt><trkpt lat="42.59468699328308" lon="13.430996646341383"><ele>1515.3333333333333</ele><time>2026-04-19T09:15:27.999Z</time></trkpt><trkpt lat="42.594658146219636" lon="13.430910006001886"><ele>1518.0</ele><time>2026-04-19T09:15:28.999Z</time></trkpt><trkpt lat="42.59468294548653" lon="13.43075262703168"><ele>1518.0</ele><time>2026-04-19T09:15:30.999Z</time></trkpt><trkpt lat="42.59478071547504" lon="13.430680604291219"><ele>1518.0</ele><time>2026-04-19T09:15:32.999Z</time></trkpt><trkpt lat="42.59486153068178" lon="13.430721332559488"><ele>1518.0</ele><time>2026-04-19T09:15:33.999Z</time></trkpt><trkpt lat="42.59491543831219" lon="13.43084524518593"><ele>1518.0</ele><time>2026-04-19T09:15:34.999Z</time></trkpt><trkpt lat="42.594997427245474" lon="13.430915482525307"><ele>1518.0</ele><time>2026-04-19T09:15:35.999Z</time></trkpt><trkpt lat="42.59505775772412" lon="13.430953055701385"><ele>1518.0</ele><time>2026-04-19T09:15:36.999Z</time></trkpt><trkpt lat="42.59511447684281" lon="13.430995903015422"><ele>1518.0</ele><time>2026-04-19T09:15:37.999Z</time></trkpt><trkpt lat="42.59517743333598" lon="13.43101859357731"><ele>1518.0</ele><time>2026-04-19T09:15:38.999Z</time></trkpt><trkpt lat="42.59524254271762" lon="13.431013039000813"><ele>1518.0</ele><time>2026-04-19T09:15:39.999Z</time></trkpt><trkpt lat="42.59534562780767" lon="13.431050887412281"><ele>1518.0</ele><time>2026-04-19T09:15:41.999Z</time></trkpt><trkpt lat="42.59542911147765" lon="13.431094483379034"><ele>1518.0</ele><time>2026-04-19T09:15:43.999Z</time></trkpt><trkpt lat="42.59551167726898" lon="13.43110193230018"><ele>1520.3333333333333</ele><time>2026-04-19T09:15:45.999Z</time></trkpt><trkpt lat="42.59561649519545" lon="13.431158801684763"><ele>1522.6666666666667</ele><time>2026-04-19T09:15:47.999Z</time></trkpt><trkpt lat="42.595677673467044" lon="13.431180615031407"><ele>1525.0</ele><time>2026-04-19T09:15:48.999Z</time></trkpt><trkpt lat="42.59579646515636" lon="13.431204817111274"><ele>1527.3333333333335</ele><time>2026-04-19T09:15:50.999Z</time></trkpt><trkpt lat="42.595862468899625" lon="13.431228029165995"><ele>1529.6666666666667</ele><time>2026-04-19T09:15:51.999Z</time></trkpt><trkpt lat="42.59592525870271" lon="13.4312548394201"><ele>1532.0</ele><time>2026-04-19T09:15:52.999Z</time></trkpt><trkpt lat="42.5959941560474" lon="13.431280118804882"><ele>1531.4285714285713</ele><time>2026-04-19T09:15:53.999Z</time></trkpt><trkpt lat="42.59606373102531" lon="13.431309188031737"><ele>1530.8571428571427</ele><time>2026-04-19T09:15:54.999Z</time></trkpt><trkpt lat="42.5961290243296" lon="13.431331295377976"><ele>1530.2857142857142</ele><time>2026-04-19T09:15:55.999Z</time></trkpt><trkpt lat="42.59618937794839" lon="13.431356036781088"><ele>1529.7142857142858</ele><time>2026-04-19T09:15:56.999Z</time></trkpt><trkpt lat="42.596250938760754" lon="13.431380137396264"><ele>1529.142857142857</ele><time>2026-04-19T09:15:57.999Z</time></trkpt><trkpt lat="42.59631755301012" lon="13.43140784756174"><ele>1528.5714285714287</ele><time>2026-04-19T09:15:58.999Z</time></trkpt><trkpt lat="42.596385929473264" lon="13.431433198001013"><ele>1528.0</ele><time>2026-04-19T09:15:59.999Z</time></trkpt><trkpt lat="42.596452276494816" lon="13.431465849882505"><ele>1528.0</ele><time>2026-04-19T09:16:00.999Z</time></trkpt><trkpt lat="42.59651850563637" lon="13.431494557591705"><ele>1528.0</ele><time>2026-04-19T09:16:01.999Z</time></trkpt><trkpt lat="42.59657964966888" lon="13.431528062018412"><ele>1528.0</ele><time>2026-04-19T09:16:02.999Z</time></trkpt><trkpt lat="42.59664191704458" lon="13.431557300651125"><ele>1528.0</ele><time>2026-04-19T09:16:03.999Z</time></trkpt><trkpt lat="42.596702373318266" lon="13.431602406135175"><ele>1528.0</ele><time>2026-04-19T09:16:04.999Z</time></trkpt><trkpt lat="42.59677361051218" lon="13.431612189642745"><ele>1528.0</ele><time>2026-04-19T09:16:05.999Z</time></trkpt><trkpt lat="42.59684130857529" lon="13.431640845191787"><ele>1528.0</ele><time>2026-04-19T09:16:06.999Z</time></trkpt><trkpt lat="42.59691295724119" lon="13.431657630852039"><ele>1528.0</ele><time>2026-04-19T09:16:07.999Z</time></trkpt><trkpt lat="42.59698177571777" lon="13.43167042011586"><ele>1528.0</ele><time>2026-04-19T09:16:08.999Z</time></trkpt><trkpt lat="42.597109656572634" lon="13.431694188654138"><ele>1528.0</ele><time>2026-04-19T09:16:10.999Z</time></trkpt><trkpt lat="42.59718458018024" lon="13.431701654409386"><ele>1528.0</ele><time>2026-04-19T09:16:11.999Z</time></trkpt><trkpt lat="42.59725893661319" lon="13.431711662350644"><ele>1528.0</ele><time>2026-04-19T09:16:12.999Z</time></trkpt><trkpt lat="42.59732796659945" lon="13.431715301580601"><ele>1528.0</ele><time>2026-04-19T09:16:13.999Z</time></trkpt><trkpt lat="42.59739622431403" lon="13.431723341294973"><ele>1530.3333333333333</ele><time>2026-04-19T09:16:14.999Z</time></trkpt><trkpt lat="42.59746211414212" lon="13.431722957223494"><ele>1532.6666666666665</ele><time>2026-04-19T09:16:15.999Z</time></trkpt><trkpt lat="42.597529885304546" lon="13.431723807101918"><ele>1535.0</ele><time>2026-04-19T09:16:16.999Z</time></trkpt><trkpt lat="42.59759724357046" lon="13.43172855028478"><ele>1537.3333333333333</ele><time>2026-04-19T09:16:17.999Z</time></trkpt><trkpt lat="42.597663623896196" lon="13.43174427919579"><ele>1539.6666666666667</ele><time>2026-04-19T09:16:19Z</time></trkpt><trkpt lat="42.597778995741" lon="13.431797071817497"><ele>1542.0</ele><time>2026-04-19T09:16:21Z</time></trkpt><trkpt lat="42.597879864029245" lon="13.431882312849453"><ele>1544.0</ele><time>2026-04-19T09:16:23Z</time></trkpt><trkpt lat="42.59793881773919" lon="13.431919780142731"><ele>1546.0</ele><time>2026-04-19T09:16:24Z</time></trkpt><trkpt lat="42.59805813171816" lon="13.431961365518633"><ele>1548.0</ele><time>2026-04-19T09:16:26Z</time></trkpt><trkpt lat="42.598122925444336" lon="13.431968059833844"><ele>1550.0</ele><time>2026-04-19T09:16:26.999Z</time></trkpt><trkpt lat="42.59819328338028" lon="13.431980313345441"><ele>1552.0</ele><time>2026-04-19T09:16:27.999Z</time></trkpt><trkpt lat="42.59825815732499" lon="13.432007751526722"><ele>1554.0</ele><time>2026-04-19T09:16:28.999Z</time></trkpt><trkpt lat="42.59831757148064" lon="13.432042099202919"><ele>1554.0</ele><time>2026-04-19T09:16:29.999Z</time></trkpt><trkpt lat="42.59837731013744" lon="13.432072543460405"><ele>1554.0</ele><time>2026-04-19T09:16:31Z</time></trkpt><trkpt lat="42.59848675658817" lon="13.432139087081687"><ele>1554.0</ele><time>2026-04-19T09:16:33Z</time></trkpt><trkpt lat="42.598601512533406" lon="13.432207526718692"><ele>1554.0</ele><time>2026-04-19T09:16:35Z</time></trkpt><trkpt lat="42.59865810239908" lon="13.432246997304949"><ele>1554.0</ele><time>2026-04-19T09:16:36Z</time></trkpt><trkpt lat="42.59875980106156" lon="13.432344780995939"><ele>1550.0</ele><time>2026-04-19T09:16:38Z</time></trkpt><trkpt lat="42.598826400933234" lon="13.432367318522743"><ele>1546.0</ele><time>2026-04-19T09:16:39Z</time></trkpt><trkpt lat="42.59892271238318" lon="13.43243403065323"><ele>1542.0</ele><time>2026-04-19T09:16:40.999Z</time></trkpt><trkpt lat="42.59903161535764" lon="13.432455673683586"><ele>1538.0</ele><time>2026-04-19T09:16:42.999Z</time></trkpt><trkpt lat="42.59914910428134" lon="13.432408343753206"><ele>1534.0</ele><time>2026-04-19T09:16:44.999Z</time></trkpt><trkpt lat="42.59917373410439" lon="13.432296608567908"><ele>1534.0</ele><time>2026-04-19T09:16:45.999Z</time></trkpt><trkpt lat="42.59918937908544" lon="13.432210651892374"><ele>1534.0</ele><time>2026-04-19T09:16:46.999Z</time></trkpt><trkpt lat="42.599235396650265" lon="13.432072198780928"><ele>1534.0</ele><time>2026-04-19T09:16:48.999Z</time></trkpt><trkpt lat="42.599265587490954" lon="13.431997084097643"><ele>1534.0</ele><time>2026-04-19T09:16:49.999Z</time></trkpt><trkpt lat="42.59933351149422" lon="13.431964170945212"><ele>1534.0</ele><time>2026-04-19T09:16:50.999Z</time></trkpt><trkpt lat="42.59941615554208" lon="13.431963692748548"><ele>1534.0</ele><time>2026-04-19T09:16:51.999Z</time></trkpt><trkpt lat="42.59947922715835" lon="13.432013813068838"><ele>1538.6</ele><time>2026-04-19T09:16:52.999Z</time></trkpt><trkpt lat="42.599577267061186" lon="13.432052375635827"><ele>1543.2</ele><time>2026-04-19T09:16:55.999Z</time></trkpt><trkpt lat="42.599683150736396" lon="13.432090117196053"><ele>1547.8</ele><time>2026-04-19T09:16:57.999Z</time></trkpt><trkpt lat="42.59979207191113" lon="13.432128627151176"><ele>1552.3999999999999</ele><time>2026-04-19T09:16:58.999Z</time></trkpt><trkpt lat="42.599884812082145" lon="13.432115575651641"><ele>1557.0</ele><time>2026-04-19T09:16:59.999Z</time></trkpt><trkpt lat="42.599975274786964" lon="13.43205616799409"><ele>1557.0</ele><time>2026-04-19T09:17:00.999Z</time></trkpt><trkpt lat="42.60005210537298" lon="13.431984077099413"><ele>1557.0</ele><time>2026-04-19T09:17:01.999Z</time></trkpt><trkpt lat="42.600106907860756" lon="13.431927860058796"><ele>1557.0</ele><time>2026-04-19T09:17:02.999Z</time></trkpt><trkpt lat="42.60020938089303" lon="13.431839757581118"><ele>1557.0</ele><time>2026-04-19T09:17:04.999Z</time></trkpt><trkpt lat="42.60026633063456" lon="13.43179685675438"><ele>1557.0</ele><time>2026-04-19T09:17:05.999Z</time></trkpt><trkpt lat="42.600326308296275" lon="13.431752063282252"><ele>1557.0</ele><time>2026-04-19T09:17:06.999Z</time></trkpt><trkpt lat="42.60038788075632" lon="13.431705559531306"><ele>1557.6666666666667</ele><time>2026-04-19T09:17:07.999Z</time></trkpt><trkpt lat="42.60044768518589" lon="13.431656787650008"><ele>1558.3333333333335</ele><time>2026-04-19T09:17:08.999Z</time></trkpt><trkpt lat="42.60050284715734" lon="13.431610600998512"><ele>1559.0</ele><time>2026-04-19T09:17:09.999Z</time></trkpt><trkpt lat="42.60056709110221" lon="13.431555886219435"><ele>1559.6666666666667</ele><time>2026-04-19T09:17:10.999Z</time></trkpt><trkpt lat="42.60062835505312" lon="13.431503709379276"><ele>1560.3333333333335</ele><time>2026-04-19T09:17:11.999Z</time></trkpt><trkpt lat="42.600736492204774" lon="13.43141561380872"><ele>1561.0</ele><time>2026-04-19T09:17:13.999Z</time></trkpt><trkpt lat="42.60080048701936" lon="13.43137305471241"><ele>1561.0000000000002</ele><time>2026-04-19T09:17:16.999Z</time></trkpt><trkpt lat="42.60088717994575" lon="13.43136348904166"><ele>1561.0</ele><time>2026-04-19T09:17:19.999Z</time></trkpt><trkpt lat="42.600956807735045" lon="13.431442760845979"><ele>1561.0</ele><time>2026-04-19T09:17:32.999Z</time></trkpt><trkpt lat="42.601026769986625" lon="13.431524541279316"><ele>1561.0</ele><time>2026-04-19T09:18:22.999Z</time></trkpt><trkpt lat="42.60108966145983" lon="13.431577016980807"><ele>1561.0000000000002</ele><time>2026-04-19T09:18:25Z</time></trkpt><trkpt lat="42.60116000837899" lon="13.431645201281585"><ele>1561.0</ele><time>2026-04-19T09:18:27Z</time></trkpt><trkpt lat="42.60124922415753" lon="13.431724255771735"><ele>1564.6666666666667</ele><time>2026-04-19T09:18:29Z</time></trkpt><trkpt lat="42.60133387169596" lon="13.431782171160366"><ele>1568.3333333333335</ele><time>2026-04-19T09:18:31Z</time></trkpt><trkpt lat="42.601405329464065" lon="13.431827455092515"><ele>1572.0</ele><time>2026-04-19T09:18:33Z</time></trkpt><trkpt lat="42.60147793916643" lon="13.431870388969742"><ele>1575.6666666666665</ele><time>2026-04-19T09:18:35Z</time></trkpt><trkpt lat="42.60155343152608" lon="13.431935118636172"><ele>1579.3333333333333</ele><time>2026-04-19T09:18:38Z</time></trkpt><trkpt lat="42.601619249389756" lon="13.43201360616031"><ele>1583.0</ele><time>2026-04-19T09:18:40Z</time></trkpt><trkpt lat="42.60166820402967" lon="13.432082981332467"><ele>1583.8000000000002</ele><time>2026-04-19T09:18:41Z</time></trkpt><trkpt lat="42.6017172662901" lon="13.432149363924001"><ele>1584.6</ele><time>2026-04-19T09:18:42Z</time></trkpt><trkpt lat="42.60181646757441" lon="13.43224233495488"><ele>1585.4</ele><time>2026-04-19T09:18:44Z</time></trkpt><trkpt lat="42.601906296921726" lon="13.432337541304376"><ele>1586.1999999999998</ele><time>2026-04-19T09:18:46Z</time></trkpt><trkpt lat="42.60200274223955" lon="13.43244092657916"><ele>1587.0</ele><time>2026-04-19T09:18:48Z</time></trkpt><trkpt lat="42.60207577821236" lon="13.43252851566962"><ele>1587.0</ele><time>2026-04-19T09:18:50Z</time></trkpt><trkpt lat="42.60210890287024" lon="13.43265430279413"><ele>1587.0</ele><time>2026-04-19T09:18:52Z</time></trkpt><trkpt lat="42.602157059013" lon="13.432772521874147"><ele>1587.0</ele><time>2026-04-19T09:18:54Z</time></trkpt><trkpt lat="42.60223544091725" lon="13.432835712955368"><ele>1587.0</ele><time>2026-04-19T09:18:56Z</time></trkpt><trkpt lat="42.60231868161929" lon="13.432836667784525"><ele>1587.0</ele><time>2026-04-19T09:18:58Z</time></trkpt><trkpt lat="42.602387349923475" lon="13.432792136693793"><ele>1587.0</ele><time>2026-04-19T09:19:00Z</time></trkpt><trkpt lat="42.602425454244916" lon="13.432709397142307"><ele>1587.0</ele><time>2026-04-19T09:19:04Z</time></trkpt><trkpt lat="42.60245501262111" lon="13.432613624879977"><ele>1587.0</ele><time>2026-04-19T09:19:08Z</time></trkpt><trkpt lat="42.60241989354194" lon="13.43249054528537"><ele>1587.0</ele><time>2026-04-19T09:19:11Z</time></trkpt><trkpt lat="42.602356561310756" lon="13.432399766504863"><ele>1587.0</ele><time>2026-04-19T09:19:14Z</time></trkpt><trkpt lat="42.60230221124655" lon="13.43233766313954"><ele>1587.0</ele><time>2026-04-19T09:19:17Z</time></trkpt><trkpt lat="42.602240199566104" lon="13.432260178164478"><ele>1587.0</ele><time>2026-04-19T09:19:20Z</time></trkpt><trkpt lat="42.602193689919496" lon="13.432202049464628"><ele>1586.3333333333333</ele><time>2026-04-19T09:19:22Z</time></trkpt><trkpt lat="42.6021245354084" lon="13.432115619265245"><ele>1585.6666666666665</ele><time>2026-04-19T09:19:25Z</time></trkpt><trkpt lat="42.60205742782801" lon="13.432042534265072"><ele>1585.0</ele><time>2026-04-19T09:19:28Z</time></trkpt><trkpt lat="42.60199931453033" lon="13.431952064171165"><ele>1584.3333333333333</ele><time>2026-04-19T09:19:31Z</time></trkpt><trkpt lat="42.6019629078527" lon="13.43184849626568"><ele>1583.6666666666665</ele><time>2026-04-19T09:20:55Z</time></trkpt><trkpt lat="42.6019588641826" lon="13.431761181650256"><ele>1583.0</ele><time>2026-04-19T09:20:59Z</time></trkpt><trkpt lat="42.60200088806832" lon="13.431686482953086"><ele>1586.4999999999998</ele><time>2026-04-19T09:21:01Z</time></trkpt><trkpt lat="42.60207266644944" lon="13.43171296637374"><ele>1590.0</ele><time>2026-04-19T09:21:03Z</time></trkpt><trkpt lat="42.60215690653015" lon="13.431785170947574"><ele>1593.5</ele><time>2026-04-19T09:21:06Z</time></trkpt><trkpt lat="42.60223378977616" lon="13.43186473645491"><ele>1597.0</ele><time>2026-04-19T09:21:08Z</time></trkpt><trkpt lat="42.60228572938149" lon="13.431916608210217"><ele>1600.4999999999998</ele><time>2026-04-19T09:21:09Z</time></trkpt><trkpt lat="42.602351813987084" lon="13.431968588761316"><ele>1604.0</ele><time>2026-04-19T09:21:10Z</time></trkpt><trkpt lat="42.60245927851944" lon="13.432023979842251"><ele>1604.0</ele><time>2026-04-19T09:21:12Z</time></trkpt><trkpt lat="42.60256725552111" lon="13.432070813436766"><ele>1604.0</ele><time>2026-04-19T09:21:14Z</time></trkpt><trkpt lat="42.60268117965171" lon="13.432115087374472"><ele>1604.0</ele><time>2026-04-19T09:21:16Z</time></trkpt><trkpt lat="42.60279022104812" lon="13.432145740896587"><ele>1604.0</ele><time>2026-04-19T09:21:18Z</time></trkpt><trkpt lat="42.60289193637842" lon="13.432171059977767"><ele>1604.0</ele><time>2026-04-19T09:21:20Z</time></trkpt><trkpt lat="42.60300028847321" lon="13.432194748511625"><ele>1603.0</ele><time>2026-04-19T09:21:22Z</time></trkpt><trkpt lat="42.603108225884995" lon="13.432264730212"><ele>1602.0</ele><time>2026-04-19T09:21:24Z</time></trkpt><trkpt lat="42.60320778520321" lon="13.432315847583043"><ele>1601.0</ele><time>2026-04-19T09:21:26Z</time></trkpt><trkpt lat="42.603310072768245" lon="13.432346392816038"><ele>1600.0</ele><time>2026-04-19T09:21:28Z</time></trkpt><trkpt lat="42.60339309835748" lon="13.43225915959691"><ele>1599.0</ele><time>2026-04-19T09:21:30Z</time></trkpt><trkpt lat="42.60339399740873" lon="13.43211324714627"><ele>1604.6</ele><time>2026-04-19T09:21:32Z</time></trkpt><trkpt lat="42.60335804903839" lon="13.431999112490542"><ele>1610.2</ele><time>2026-04-19T09:21:34Z</time></trkpt><trkpt lat="42.603288878670945" lon="13.43188993480354"><ele>1615.8</ele><time>2026-04-19T09:21:36Z</time></trkpt><trkpt lat="42.60320745105238" lon="13.431836260608051"><ele>1621.3999999999999</ele><time>2026-04-19T09:21:38Z</time></trkpt><trkpt lat="42.60314367491738" lon="13.431776205343184"><ele>1627.0</ele><time>2026-04-19T09:21:40Z</time></trkpt><trkpt lat="42.60305874120773" lon="13.431754668627944"><ele>1627.0000000000002</ele><time>2026-04-19T09:21:42Z</time></trkpt><trkpt lat="42.60300422627786" lon="13.431703631761762"><ele>1627.0</ele><time>2026-04-19T09:21:44Z</time></trkpt><trkpt lat="42.60291814732647" lon="13.43166089441023"><ele>1627.0</ele><time>2026-04-19T09:21:47Z</time></trkpt><trkpt lat="42.60284408769938" lon="13.431645751354408"><ele>1627.0</ele><time>2026-04-19T09:21:50Z</time></trkpt><trkpt lat="42.602908017291476" lon="13.431656198785095"><ele>1627.0000000000002</ele><time>2026-04-19T09:23:18Z</time></trkpt><trkpt lat="42.60298960631441" lon="13.431696148231907"><ele>1627.0</ele><time>2026-04-19T09:23:21Z</time></trkpt><trkpt lat="42.603061717379255" lon="13.431733060068156"><ele>1627.0000000000002</ele><time>2026-04-19T09:24:54.001Z</time></trkpt><trkpt lat="42.60314047981974" lon="13.43177446881426"><ele>1627.0</ele><time>2026-04-19T09:24:57.001Z</time></trkpt><trkpt lat="42.603204247400065" lon="13.431811135750364"><ele>1627.0</ele><time>2026-04-19T09:24:59Z</time></trkpt><trkpt lat="42.6032688071041" lon="13.43186028486945"><ele>1627.0</ele><time>2026-04-19T09:25:01Z</time></trkpt><trkpt lat="42.60332228979386" lon="13.431919088498377"><ele>1627.0000000000002</ele><time>2026-04-19T09:25:03Z</time></trkpt><trkpt lat="42.603371200875344" lon="13.431993830100938"><ele>1627.0</ele><time>2026-04-19T09:25:05Z</time></trkpt><trkpt lat="42.603387929696055" lon="13.43214609526547"><ele>1627.0</ele><time>2026-04-19T09:25:07Z</time></trkpt><trkpt lat="42.60339781869117" lon="13.432264851721762"><ele>1627.0</ele><time>2026-04-19T09:25:10Z</time></trkpt><trkpt lat="42.60336295798868" lon="13.432345771417715"><ele>1627.0</ele><time>2026-04-19T09:25:12Z</time></trkpt><trkpt lat="42.603425624711434" lon="13.432100238273263"><ele>1627.0</ele><time>2026-04-19T09:25:14Z</time></trkpt><trkpt lat="42.60336177614915" lon="13.431950870038742"><ele>1627.0000000000002</ele><time>2026-04-19T09:25:17Z</time></trkpt><trkpt lat="42.60329934062871" lon="13.431886589435479"><ele>1627.0</ele><time>2026-04-19T09:25:19Z</time></trkpt><trkpt lat="42.6032460649174" lon="13.431840067155894"><ele>1627.0</ele><time>2026-04-19T09:25:20Z</time></trkpt><trkpt lat="42.603166166344366" lon="13.431788429493873"><ele>1627.0</ele><time>2026-04-19T09:25:22Z</time></trkpt><trkpt lat="42.603106937125084" lon="13.431756206920632"><ele>1627.0000000000002</ele><time>2026-04-19T09:25:24Z</time></trkpt><trkpt lat="42.60303331491472" lon="13.431718521475956"><ele>1627.0</ele><time>2026-04-19T09:25:27Z</time></trkpt><trkpt lat="42.602944782582895" lon="13.431673240740091"><ele>1627.0</ele><time>2026-04-19T09:25:30Z</time></trkpt><trkpt lat="42.602871679437705" lon="13.431639354852601"><ele>1627.0</ele><time>2026-04-19T09:25:33Z</time></trkpt><trkpt lat="42.60229112390038" lon="13.431898871568263"><ele>1623.7142857142856</ele><time>2026-04-19T09:25:54Z</time></trkpt><trkpt lat="42.60223635440117" lon="13.431847358472984"><ele>1620.4285714285713</ele><time>2026-04-19T09:25:56Z</time></trkpt><trkpt lat="42.6021982038073" lon="13.431770103143666"><ele>1617.142857142857</ele><time>2026-04-19T09:25:58Z</time></trkpt><trkpt lat="42.60213294916766" lon="13.431710502248496"><ele>1613.8571428571427</ele><time>2026-04-19T09:26:01Z</time></trkpt><trkpt lat="42.602054705324726" lon="13.431690856411068"><ele>1610.5714285714287</ele><time>2026-04-19T09:26:05Z</time></trkpt><trkpt lat="42.60198073007122" lon="13.431689453392316"><ele>1607.2857142857142</ele><time>2026-04-19T09:26:08Z</time></trkpt><trkpt lat="42.60191862804635" lon="13.431754848136933"><ele>1604.0</ele><time>2026-04-19T09:26:18Z</time></trkpt><trkpt lat="42.60193633176652" lon="13.43188059780158"><ele>1604.0</ele><time>2026-04-19T09:26:20Z</time></trkpt><trkpt lat="42.60197220738947" lon="13.431965462892132"><ele>1604.0</ele><time>2026-04-19T09:26:24Z</time></trkpt><trkpt lat="42.602009427261365" lon="13.432041038298964"><ele>1604.0</ele><time>2026-04-19T09:26:27Z</time></trkpt><trkpt lat="42.60205767578003" lon="13.432101824693591"><ele>1604.0</ele><time>2026-04-19T09:26:30Z</time></trkpt><trkpt lat="42.60211915143449" lon="13.432146847367678"><ele>1604.0</ele><time>2026-04-19T09:26:33Z</time></trkpt><trkpt lat="42.60217639300816" lon="13.432215595740441"><ele>1604.0</ele><time>2026-04-19T09:26:36Z</time></trkpt><trkpt lat="42.60223095669854" lon="13.43230997549156"><ele>1604.0</ele><time>2026-04-19T09:26:39Z</time></trkpt><trkpt lat="42.60230921351071" lon="13.432377043046777"><ele>1601.1666666666665</ele><time>2026-04-19T09:26:42Z</time></trkpt><trkpt lat="42.60237504623244" lon="13.43246363778149"><ele>1598.3333333333333</ele><time>2026-04-19T09:26:45Z</time></trkpt><trkpt lat="42.60241351074885" lon="13.432532700060941"><ele>1595.5</ele><time>2026-04-19T09:26:47Z</time></trkpt><trkpt lat="42.60243183139316" lon="13.43265444586809"><ele>1592.6666666666665</ele><time>2026-04-19T09:26:50Z</time></trkpt><trkpt lat="42.60239334436289" lon="13.432750090042296"><ele>1589.8333333333333</ele><time>2026-04-19T09:26:52Z</time></trkpt><trkpt lat="42.602321507984215" lon="13.432809316077796"><ele>1587.0</ele><time>2026-04-19T09:26:55Z</time></trkpt><trkpt lat="42.60225173252315" lon="13.43280949956558"><ele>1587.0</ele><time>2026-04-19T09:26:59Z</time></trkpt><trkpt lat="42.602195182150815" lon="13.432757303850464"><ele>1587.0</ele><time>2026-04-19T09:27:02Z</time></trkpt><trkpt lat="42.60215132932015" lon="13.432669742355182"><ele>1587.0</ele><time>2026-04-19T09:27:05Z</time></trkpt><trkpt lat="42.60211036754526" lon="13.432557202344114"><ele>1587.0</ele><time>2026-04-19T09:27:08Z</time></trkpt><trkpt lat="42.60207215114162" lon="13.432476347164172"><ele>1587.0</ele><time>2026-04-19T09:27:10Z</time></trkpt><trkpt lat="42.6020199442501" lon="13.432405636996714"><ele>1587.0</ele><time>2026-04-19T09:27:12Z</time></trkpt><trkpt lat="42.601953008279494" lon="13.432351490635961"><ele>1586.3333333333333</ele><time>2026-04-19T09:27:14Z</time></trkpt><trkpt lat="42.60187933060816" lon="13.432280374602179"><ele>1585.6666666666665</ele><time>2026-04-19T09:27:17Z</time></trkpt><trkpt lat="42.60180978082967" lon="13.432199442851946"><ele>1585.0</ele><time>2026-04-19T09:27:20Z</time></trkpt><trkpt lat="42.60175414338164" lon="13.432150670866326"><ele>1584.3333333333333</ele><time>2026-04-19T09:27:22Z</time></trkpt><trkpt lat="42.601704781692106" lon="13.432069559067072"><ele>1583.6666666666665</ele><time>2026-04-19T09:27:25Z</time></trkpt><trkpt lat="42.60165973287058" lon="13.432005719043884"><ele>1583.0</ele><time>2026-04-19T09:27:29Z</time></trkpt><trkpt lat="42.6016077205978" lon="13.431935476964805"><ele>1582.9999999999998</ele><time>2026-04-19T09:27:33Z</time></trkpt><trkpt lat="42.601542300844166" lon="13.431868749596392"><ele>1583.0</ele><time>2026-04-19T09:27:37Z</time></trkpt><trkpt lat="42.601481262115406" lon="13.431824349455638"><ele>1583.0</ele><time>2026-04-19T09:28:06.999Z</time></trkpt><trkpt lat="42.60140222187736" lon="13.431776430746448"><ele>1583.0</ele><time>2026-04-19T09:28:11.999Z</time></trkpt><trkpt lat="42.60133080603319" lon="13.431734203215937"><ele>1582.9999999999998</ele><time>2026-04-19T09:28:14.999Z</time></trkpt><trkpt lat="42.60126307350502" lon="13.43169415350664"><ele>1583.0</ele><time>2026-04-19T09:28:17.999Z</time></trkpt><trkpt lat="42.60119832453233" lon="13.43164358774341"><ele>1583.1666666666665</ele><time>2026-04-19T09:28:21.999Z</time></trkpt><trkpt lat="42.60112474402953" lon="13.431572570417611"><ele>1583.3333333333333</ele><time>2026-04-19T09:28:24.999Z</time></trkpt><trkpt lat="42.60106756480486" lon="13.431510905417378"><ele>1583.5</ele><time>2026-04-19T09:28:26.999Z</time></trkpt><trkpt lat="42.60100857402316" lon="13.43144611506759"><ele>1583.6666666666665</ele><time>2026-04-19T09:28:29.999Z</time></trkpt><trkpt lat="42.60095929541142" lon="13.43138451679837"><ele>1583.8333333333333</ele><time>2026-04-19T09:28:48.999Z</time></trkpt><trkpt lat="42.60089623675438" lon="13.431322588044106"><ele>1584.0</ele><time>2026-04-19T09:28:59Z</time></trkpt><trkpt lat="42.600820963908504" lon="13.431301759613316"><ele>1580.1666666666667</ele><time>2026-04-19T09:29:02Z</time></trkpt><trkpt lat="42.600727560519495" lon="13.431370767509856"><ele>1576.3333333333335</ele><time>2026-04-19T09:29:05Z</time></trkpt><trkpt lat="42.60066754797872" lon="13.431417075790419"><ele>1572.5</ele><time>2026-04-19T09:29:07Z</time></trkpt><trkpt lat="42.600594592554906" lon="13.431479210074091"><ele>1568.6666666666667</ele><time>2026-04-19T09:29:10Z</time></trkpt><trkpt lat="42.60054853563235" lon="13.43154432120893"><ele>1564.8333333333335</ele><time>2026-04-19T09:29:12Z</time></trkpt><trkpt lat="42.600480865490205" lon="13.431591803159757"><ele>1561.0</ele><time>2026-04-19T09:29:15Z</time></trkpt><trkpt lat="42.60039673956097" lon="13.431658333615417"><ele>1561.0000000000002</ele><time>2026-04-19T09:29:34Z</time></trkpt><trkpt lat="42.60034070803236" lon="13.431708233229104"><ele>1561.0</ele><time>2026-04-19T09:29:36Z</time></trkpt><trkpt lat="42.60028353909781" lon="13.431758050750997"><ele>1561.0</ele><time>2026-04-19T09:29:38Z</time></trkpt><trkpt lat="42.60020474273098" lon="13.431808392383719"><ele>1561.0</ele><time>2026-04-19T09:29:40Z</time></trkpt><trkpt lat="42.600132643676204" lon="13.431847829778363"><ele>1561.0000000000002</ele><time>2026-04-19T09:29:42Z</time></trkpt><trkpt lat="42.600063832498584" lon="13.431915491739828"><ele>1561.0</ele><time>2026-04-19T09:29:44Z</time></trkpt><trkpt lat="42.599997974210495" lon="13.431982844407285"><ele>1560.3333333333335</ele><time>2026-04-19T09:29:46Z</time></trkpt><trkpt lat="42.59994239642877" lon="13.432028670673441"><ele>1559.6666666666667</ele><time>2026-04-19T09:29:47.999Z</time></trkpt><trkpt lat="42.599879758455636" lon="13.432063517433448"><ele>1559.0</ele><time>2026-04-19T09:29:49.999Z</time></trkpt><trkpt lat="42.59979941237695" lon="13.432084867602732"><ele>1558.3333333333335</ele><time>2026-04-19T09:29:51.999Z</time></trkpt><trkpt lat="42.599726023538935" lon="13.432080573245639"><ele>1557.6666666666667</ele><time>2026-04-19T09:29:53.999Z</time></trkpt><trkpt lat="42.59964041857828" lon="13.432037242903428"><ele>1557.0</ele><time>2026-04-19T09:29:55.999Z</time></trkpt><trkpt lat="42.59955796048309" lon="13.432017541926424"><ele>1556.5</ele><time>2026-04-19T09:29:57.999Z</time></trkpt><trkpt lat="42.59947646217601" lon="13.431986181304797"><ele>1556.0</ele><time>2026-04-19T09:29:59.999Z</time></trkpt><trkpt lat="42.5994021600762" lon="13.43194684510732"><ele>1555.5</ele><time>2026-04-19T09:30:01.999Z</time></trkpt><trkpt lat="42.59931577792021" lon="13.431937862073998"><ele>1555.0</ele><time>2026-04-19T09:30:03.999Z</time></trkpt><trkpt lat="42.59923209229487" lon="13.431987132027736"><ele>1554.5</ele><time>2026-04-19T09:30:05.999Z</time></trkpt><trkpt lat="42.599200019406226" lon="13.432071687882154"><ele>1554.0</ele><time>2026-04-19T09:30:06.999Z</time></trkpt><trkpt lat="42.59916337500559" lon="13.43218545095236"><ele>1550.0</ele><time>2026-04-19T09:30:08.999Z</time></trkpt><trkpt lat="42.599138220077144" lon="13.43229643501583"><ele>1546.0</ele><time>2026-04-19T09:30:10.999Z</time></trkpt><trkpt lat="42.599097435594736" lon="13.432387149541352"><ele>1542.0</ele><time>2026-04-19T09:30:12.999Z</time></trkpt><trkpt lat="42.59902790449296" lon="13.432458282334949"><ele>1538.0</ele><time>2026-04-19T09:30:14.999Z</time></trkpt><trkpt lat="42.59891998992239" lon="13.43240064524404"><ele>1534.0</ele><time>2026-04-19T09:30:16.999Z</time></trkpt><trkpt lat="42.59883097282443" lon="13.432362691335802"><ele>1534.0</ele><time>2026-04-19T09:30:18.999Z</time></trkpt><trkpt lat="42.598754271770545" lon="13.432289697483322"><ele>1534.0</ele><time>2026-04-19T09:30:20.999Z</time></trkpt><trkpt lat="42.59867096146957" lon="13.43222952401604"><ele>1534.0</ele><time>2026-04-19T09:30:22.999Z</time></trkpt><trkpt lat="42.5985853184367" lon="13.43217119103329"><ele>1534.0</ele><time>2026-04-19T09:30:24.999Z</time></trkpt><trkpt lat="42.59848329227545" lon="13.43213166762814"><ele>1534.0</ele><time>2026-04-19T09:30:26.999Z</time></trkpt><trkpt lat="42.59839342014974" lon="13.432055334974335"><ele>1538.0</ele><time>2026-04-19T09:30:28.999Z</time></trkpt><trkpt lat="42.59829622380662" lon="13.432023301574176"><ele>1542.0</ele><time>2026-04-19T09:30:30.999Z</time></trkpt><trkpt lat="42.59820711136786" lon="13.431977988535369"><ele>1546.0</ele><time>2026-04-19T09:30:32.999Z</time></trkpt><trkpt lat="42.59810207161101" lon="13.431930578859575"><ele>1550.0</ele><time>2026-04-19T09:30:34.999Z</time></trkpt><trkpt lat="42.59799167698639" lon="13.43192668161325"><ele>1554.0</ele><time>2026-04-19T09:30:36.999Z</time></trkpt><trkpt lat="42.59789297538928" lon="13.43187354562981"><ele>1551.0</ele><time>2026-04-19T09:30:38.999Z</time></trkpt><trkpt lat="42.597791093284066" lon="13.43177420676061"><ele>1548.0</ele><time>2026-04-19T09:30:40.999Z</time></trkpt><trkpt lat="42.597675249432434" lon="13.431717420843228"><ele>1545.0</ele><time>2026-04-19T09:30:42.999Z</time></trkpt><trkpt lat="42.59755754463682" lon="13.431698854460153"><ele>1542.0</ele><time>2026-04-19T09:30:44.999Z</time></trkpt><trkpt lat="42.59743442654704" lon="13.431710328005252"><ele>1542.0</ele><time>2026-04-19T09:30:46.999Z</time></trkpt><trkpt lat="42.597310894217664" lon="13.431709753153143"><ele>1542.0</ele><time>2026-04-19T09:30:48.999Z</time></trkpt><trkpt lat="42.5972444178994" lon="13.431700992416978"><ele>1542.0</ele><time>2026-04-19T09:30:49.999Z</time></trkpt><trkpt lat="42.597180038077305" lon="13.43167800260015"><ele>1542.0</ele><time>2026-04-19T09:30:50.999Z</time></trkpt><trkpt lat="42.59706543631711" lon="13.431657368507057"><ele>1542.0</ele><time>2026-04-19T09:30:52.999Z</time></trkpt><trkpt lat="42.59694298739215" lon="13.431631204983848"><ele>1540.0</ele><time>2026-04-19T09:30:54.999Z</time></trkpt><trkpt lat="42.596880832422535" lon="13.431615532218805"><ele>1538.0</ele><time>2026-04-19T09:30:55.999Z</time></trkpt><trkpt lat="42.596810857073294" lon="13.431594003606923"><ele>1536.0</ele><time>2026-04-19T09:30:56.999Z</time></trkpt><trkpt lat="42.59674381673057" lon="13.43157073672183"><ele>1534.0</ele><time>2026-04-19T09:30:57.999Z</time></trkpt><trkpt lat="42.59668307801817" lon="13.43154551645819"><ele>1532.0</ele><time>2026-04-19T09:30:58.999Z</time></trkpt><trkpt lat="42.59661688842953" lon="13.43151366464585"><ele>1530.0</ele><time>2026-04-19T09:31:00Z</time></trkpt><trkpt lat="42.596547955912925" lon="13.431479809965605"><ele>1528.0</ele><time>2026-04-19T09:31:01Z</time></trkpt><trkpt lat="42.59648065725381" lon="13.43146880545298"><ele>1528.0</ele><time>2026-04-19T09:31:02Z</time></trkpt><trkpt lat="42.59641843729699" lon="13.43141792597552"><ele>1528.0</ele><time>2026-04-19T09:31:03Z</time></trkpt><trkpt lat="42.59635090007627" lon="13.431388089887621"><ele>1528.0</ele><time>2026-04-19T09:31:04Z</time></trkpt><trkpt lat="42.59627704658799" lon="13.431382083231364"><ele>1528.0</ele><time>2026-04-19T09:31:05Z</time></trkpt><trkpt lat="42.596213869562916" lon="13.431334312895052"><ele>1528.0</ele><time>2026-04-19T09:31:06Z</time></trkpt><trkpt lat="42.59615109705679" lon="13.431310008919413"><ele>1528.0</ele><time>2026-04-19T09:31:07Z</time></trkpt><trkpt lat="42.596028017412436" lon="13.431278659326043"><ele>1528.6666666666665</ele><time>2026-04-19T09:31:09Z</time></trkpt><trkpt lat="42.595965324070434" lon="13.431254295128408"><ele>1529.3333333333333</ele><time>2026-04-19T09:31:10Z</time></trkpt><trkpt lat="42.59590297713093" lon="13.431228890000082"><ele>1530.0</ele><time>2026-04-19T09:31:11Z</time></trkpt><trkpt lat="42.59583987954609" lon="13.431203989901507"><ele>1530.6666666666667</ele><time>2026-04-19T09:31:12Z</time></trkpt><trkpt lat="42.5957263527295" lon="13.431159917609927"><ele>1531.3333333333335</ele><time>2026-04-19T09:31:14Z</time></trkpt><trkpt lat="42.59560782848458" lon="13.431122629615382"><ele>1532.0</ele><time>2026-04-19T09:31:16Z</time></trkpt><trkpt lat="42.59548927159185" lon="13.431080191944107"><ele>1532.0</ele><time>2026-04-19T09:31:18Z</time></trkpt><trkpt lat="42.5953699576544" lon="13.431029043345667"><ele>1532.0</ele><time>2026-04-19T09:31:20Z</time></trkpt><trkpt lat="42.59530706253686" lon="13.431008731013408"><ele>1532.0</ele><time>2026-04-19T09:31:21Z</time></trkpt><trkpt lat="42.59518891837077" lon="13.430966753212616"><ele>1532.0</ele><time>2026-04-19T09:31:23Z</time></trkpt><trkpt lat="42.59507328863152" lon="13.430915438865478"><ele>1532.0</ele><time>2026-04-19T09:31:25Z</time></trkpt><trkpt lat="42.595011408215434" lon="13.430898524281671"><ele>1528.5</ele><time>2026-04-19T09:31:26Z</time></trkpt><trkpt lat="42.5949122328559" lon="13.43080577656474"><ele>1525.0</ele><time>2026-04-19T09:31:28Z</time></trkpt><trkpt lat="42.59482590856431" lon="13.430709902648424"><ele>1521.5</ele><time>2026-04-19T09:31:30Z</time></trkpt><trkpt lat="42.59471860425033" lon="13.430691287879588"><ele>1518.0</ele><time>2026-04-19T09:31:32Z</time></trkpt><trkpt lat="42.59463961850451" lon="13.430805243169562"><ele>1518.0</ele><time>2026-04-19T09:31:34Z</time></trkpt><trkpt lat="42.59463477807661" lon="13.430893305728599"><ele>1518.0</ele><time>2026-04-19T09:31:35Z</time></trkpt><trkpt lat="42.59465464440898" lon="13.431003160258186"><ele>1518.0</ele><time>2026-04-19T09:31:36Z</time></trkpt><trkpt lat="42.59470374659358" lon="13.431104236755067"><ele>1518.0</ele><time>2026-04-19T09:31:37Z</time></trkpt><trkpt lat="42.594761211509514" lon="13.43119263874499"><ele>1518.0</ele><time>2026-04-19T09:31:38Z</time></trkpt><trkpt lat="42.59482963270963" lon="13.431258293478828"><ele>1518.0</ele><time>2026-04-19T09:31:39Z</time></trkpt><trkpt lat="42.59490958350444" lon="13.431310821014051"><ele>1514.8000000000002</ele><time>2026-04-19T09:31:40Z</time></trkpt><trkpt lat="42.59499464625185" lon="13.431353257250578"><ele>1511.6</ele><time>2026-04-19T09:31:41Z</time></trkpt><trkpt lat="42.59506734222363" lon="13.431389776510882"><ele>1508.4</ele><time>2026-04-19T09:31:42Z</time></trkpt><trkpt lat="42.595179022178044" lon="13.431438940160833"><ele>1505.1999999999998</ele><time>2026-04-19T09:31:44Z</time></trkpt><trkpt lat="42.59526191427195" lon="13.431539151537331"><ele>1502.0</ele><time>2026-04-19T09:31:46Z</time></trkpt><trkpt lat="42.595271542396254" lon="13.431678592383959"><ele>1502.0</ele><time>2026-04-19T09:31:48Z</time></trkpt><trkpt lat="42.595168695160616" lon="13.431773092736588"><ele>1502.0</ele><time>2026-04-19T09:31:50Z</time></trkpt><trkpt lat="42.59509054836422" lon="13.431767064348666"><ele>1502.0</ele><time>2026-04-19T09:31:51Z</time></trkpt><trkpt lat="42.595007767866285" lon="13.431694747774007"><ele>1502.0</ele><time>2026-04-19T09:31:52Z</time></trkpt><trkpt lat="42.59492189339618" lon="13.431651371469565"><ele>1502.0</ele><time>2026-04-19T09:31:53Z</time></trkpt><trkpt lat="42.59484024929549" lon="13.43163018317423"><ele>1502.0000000000002</ele><time>2026-04-19T09:31:54Z</time></trkpt><trkpt lat="42.59477724430073" lon="13.43157211939472"><ele>1502.0</ele><time>2026-04-19T09:31:55Z</time></trkpt><trkpt lat="42.59471087517979" lon="13.431533248447968"><ele>1502.0</ele><time>2026-04-19T09:31:56Z</time></trkpt><trkpt lat="42.59464153088182" lon="13.431492635504295"><ele>1502.0</ele><time>2026-04-19T09:31:57Z</time></trkpt><trkpt lat="42.59457573994231" lon="13.431448773210352"><ele>1502.0</ele><time>2026-04-19T09:31:58Z</time></trkpt><trkpt lat="42.59451207974414" lon="13.431400413802837"><ele>1502.0000000000002</ele><time>2026-04-19T09:31:59Z</time></trkpt><trkpt lat="42.594448046141515" lon="13.431346880402426"><ele>1502.0</ele><time>2026-04-19T09:32:00Z</time></trkpt><trkpt lat="42.59438559033049" lon="13.43129133875851"><ele>1502.5</ele><time>2026-04-19T09:32:00.999Z</time></trkpt><trkpt lat="42.59432437119645" lon="13.431230992208775"><ele>1503.0</ele><time>2026-04-19T09:32:01.999Z</time></trkpt><trkpt lat="42.594260693318205" lon="13.431172957343826"><ele>1503.5</ele><time>2026-04-19T09:32:02.999Z</time></trkpt><trkpt lat="42.594201495073605" lon="13.4311185848228"><ele>1504.0</ele><time>2026-04-19T09:32:03.999Z</time></trkpt><trkpt lat="42.59412552573003" lon="13.43108990848592"><ele>1504.5</ele><time>2026-04-19T09:32:04.999Z</time></trkpt><trkpt lat="42.594048827301435" lon="13.431095463913525"><ele>1505.0</ele><time>2026-04-19T09:32:05.999Z</time></trkpt><trkpt lat="42.593963330757724" lon="13.431105202957562"><ele>1505.0</ele><time>2026-04-19T09:32:06.999Z</time></trkpt><trkpt lat="42.59388656246614" lon="13.431113178218464"><ele>1505.0</ele><time>2026-04-19T09:32:07.999Z</time></trkpt><trkpt lat="42.593811776254476" lon="13.431101735704791"><ele>1505.0</ele><time>2026-04-19T09:32:08.999Z</time></trkpt><trkpt lat="42.593732527342276" lon="13.431096090162484"><ele>1505.0</ele><time>2026-04-19T09:32:09.999Z</time></trkpt><trkpt lat="42.593654212870184" lon="13.431088778499229"><ele>1505.0</ele><time>2026-04-19T09:32:10.999Z</time></trkpt><trkpt lat="42.59358488892659" lon="13.431082229882934"><ele>1505.0</ele><time>2026-04-19T09:32:11.999Z</time></trkpt><trkpt lat="42.59351478727835" lon="13.431079258182267"><ele>1502.5</ele><time>2026-04-19T09:32:12.999Z</time></trkpt><trkpt lat="42.59344877707329" lon="13.431080642385695"><ele>1500.0</ele><time>2026-04-19T09:32:13.999Z</time></trkpt><trkpt lat="42.59338681906036" lon="13.431060486353324"><ele>1497.5</ele><time>2026-04-19T09:32:14.999Z</time></trkpt><trkpt lat="42.593264313932586" lon="13.43104512473321"><ele>1495.0</ele><time>2026-04-19T09:32:16.999Z</time></trkpt><trkpt lat="42.59321356619695" lon="13.430987126546741"><ele>1492.5</ele><time>2026-04-19T09:32:17.999Z</time></trkpt><trkpt lat="42.593102831841485" lon="13.430907933025134"><ele>1490.0</ele><time>2026-04-19T09:32:19.999Z</time></trkpt><trkpt lat="42.59304029618714" lon="13.430888950131651"><ele>1490.0</ele><time>2026-04-19T09:32:20.999Z</time></trkpt><trkpt lat="42.5929334238634" lon="13.430852276301975"><ele>1490.0</ele><time>2026-04-19T09:32:22.999Z</time></trkpt><trkpt lat="42.59282090890606" lon="13.430864189137441"><ele>1490.0</ele><time>2026-04-19T09:32:24.999Z</time></trkpt><trkpt lat="42.59276520247918" lon="13.430914630358851"><ele>1490.0</ele><time>2026-04-19T09:32:25.999Z</time></trkpt><trkpt lat="42.59270175451393" lon="13.431071463389657"><ele>1490.0</ele><time>2026-04-19T09:32:27.999Z</time></trkpt><trkpt lat="42.59272263997579" lon="13.431188486778415"><ele>1488.0</ele><time>2026-04-19T09:32:28.999Z</time></trkpt><trkpt lat="42.59273746402488" lon="13.431292848453158"><ele>1486.0</ele><time>2026-04-19T09:32:29.999Z</time></trkpt><trkpt lat="42.59277324371768" lon="13.43138714488698"><ele>1484.0</ele><time>2026-04-19T09:32:30.999Z</time></trkpt><trkpt lat="42.59282291091811" lon="13.431468585927739"><ele>1482.0</ele><time>2026-04-19T09:32:31.999Z</time></trkpt><trkpt lat="42.592881343647264" lon="13.431548760508083"><ele>1480.0</ele><time>2026-04-19T09:32:32.999Z</time></trkpt><trkpt lat="42.592946980460226" lon="13.431615044195425"><ele>1478.0</ele><time>2026-04-19T09:32:33.999Z</time></trkpt><trkpt lat="42.593013478147135" lon="13.431666788111434"><ele>1478.0</ele><time>2026-04-19T09:32:34.999Z</time></trkpt><trkpt lat="42.593066579121796" lon="13.431733670986716"><ele>1478.0</ele><time>2026-04-19T09:32:35.999Z</time></trkpt><trkpt lat="42.593116805657395" lon="13.431792857825034"><ele>1478.0</ele><time>2026-04-19T09:32:36.999Z</time></trkpt><trkpt lat="42.59316563133843" lon="13.431852473170379"><ele>1478.0</ele><time>2026-04-19T09:32:37.999Z</time></trkpt><trkpt lat="42.59325523029508" lon="13.431961790791242"><ele>1478.0</ele><time>2026-04-19T09:32:39.999Z</time></trkpt><trkpt lat="42.59334226567955" lon="13.432052184650416"><ele>1478.0</ele><time>2026-04-19T09:32:41.999Z</time></trkpt><trkpt lat="42.593426715301185" lon="13.432150062065952"><ele>1476.8000000000002</ele><time>2026-04-19T09:32:43.999Z</time></trkpt><trkpt lat="42.59351557604626" lon="13.432220700652362"><ele>1475.6</ele><time>2026-04-19T09:32:45.999Z</time></trkpt><trkpt lat="42.593603613850995" lon="13.432291978081713"><ele>1474.4</ele><time>2026-04-19T09:32:47.999Z</time></trkpt><trkpt lat="42.593683942013676" lon="13.432374175842993"><ele>1473.1999999999998</ele><time>2026-04-19T09:32:49.999Z</time></trkpt><trkpt lat="42.59377037586445" lon="13.43243619797907"><ele>1472.0</ele><time>2026-04-19T09:32:51.999Z</time></trkpt><trkpt lat="42.59386014185719" lon="13.432491633608452"><ele>1472.0</ele><time>2026-04-19T09:32:53.999Z</time></trkpt><trkpt lat="42.5939496076238" lon="13.432540330587319"><ele>1472.0</ele><time>2026-04-19T09:32:55.999Z</time></trkpt><trkpt lat="42.594028274942225" lon="13.432585390811346"><ele>1472.0</ele><time>2026-04-19T09:32:57.999Z</time></trkpt><trkpt lat="42.59412097924074" lon="13.4326590639122"><ele>1472.0</ele><time>2026-04-19T09:32:59.999Z</time></trkpt><trkpt lat="42.59422069004071" lon="13.432721108164523"><ele>1472.0</ele><time>2026-04-19T09:33:01.999Z</time></trkpt><trkpt lat="42.59431764374709" lon="13.4327859883362"><ele>1472.0</ele><time>2026-04-19T09:33:03.999Z</time></trkpt><trkpt lat="42.59437993451012" lon="13.432838657309366"><ele>1472.0</ele><time>2026-04-19T09:33:06Z</time></trkpt><trkpt lat="42.59444498515195" lon="13.432903318706021"><ele>1472.0</ele><time>2026-04-19T09:33:10Z</time></trkpt><trkpt lat="42.59451367751827" lon="13.432947482856983"><ele>1472.0</ele><time>2026-04-19T09:33:13Z</time></trkpt><trkpt lat="42.594575770650785" lon="13.433010657745095"><ele>1472.0</ele><time>2026-04-19T09:33:16Z</time></trkpt><trkpt lat="42.59464880140413" lon="13.433096894958245"><ele>1472.0</ele><time>2026-04-19T09:33:18Z</time></trkpt><trkpt lat="42.594753635280874" lon="13.433132436241705"><ele>1468.1999999999998</ele><time>2026-04-19T09:33:20Z</time></trkpt><trkpt lat="42.5948493542655" lon="13.433185760262596"><ele>1464.4</ele><time>2026-04-19T09:33:22Z</time></trkpt><trkpt lat="42.59494448127516" lon="13.433261491009471"><ele>1460.6</ele><time>2026-04-19T09:33:24Z</time></trkpt><trkpt lat="42.59503312519928" lon="13.433370743544124"><ele>1456.8000000000002</ele><time>2026-04-19T09:33:26Z</time></trkpt><trkpt lat="42.5951194507001" lon="13.433473619090782"><ele>1453.0</ele><time>2026-04-19T09:33:28Z</time></trkpt><trkpt lat="42.595210152734545" lon="13.433566514368811"><ele>1453.0</ele><time>2026-04-19T09:33:30Z</time></trkpt><trkpt lat="42.59530214050584" lon="13.433678270100806"><ele>1453.0</ele><time>2026-04-19T09:33:32Z</time></trkpt><trkpt lat="42.59534492752465" lon="13.433746961259844"><ele>1453.0</ele><time>2026-04-19T09:33:33Z</time></trkpt><trkpt lat="42.59539228533781" lon="13.433807870118603"><ele>1453.0</ele><time>2026-04-19T09:33:34Z</time></trkpt><trkpt lat="42.59543212585015" lon="13.433891114978103"><ele>1453.0</ele><time>2026-04-19T09:33:35Z</time></trkpt><trkpt lat="42.5954758855414" lon="13.433963357159483"><ele>1453.0</ele><time>2026-04-19T09:33:36Z</time></trkpt><trkpt lat="42.59552564928021" lon="13.434021274524678"><ele>1451.7142857142858</ele><time>2026-04-19T09:33:37Z</time></trkpt><trkpt lat="42.595559556118644" lon="13.434094803021265"><ele>1450.4285714285716</ele><time>2026-04-19T09:33:38Z</time></trkpt><trkpt lat="42.59559357993747" lon="13.434168163159352"><ele>1449.1428571428573</ele><time>2026-04-19T09:33:39Z</time></trkpt><trkpt lat="42.59563050473051" lon="13.434242956207333"><ele>1447.857142857143</ele><time>2026-04-19T09:33:40Z</time></trkpt><trkpt lat="42.59566507670656" lon="13.434317950537999"><ele>1446.5714285714284</ele><time>2026-04-19T09:33:41Z</time></trkpt><trkpt lat="42.595703657973225" lon="13.434392912069784"><ele>1445.2857142857144</ele><time>2026-04-19T09:33:42Z</time></trkpt><trkpt lat="42.59574403123581" lon="13.434465168624007"><ele>1444.0</ele><time>2026-04-19T09:33:43Z</time></trkpt><trkpt lat="42.59578361218357" lon="13.434538869744399"><ele>1444.0</ele><time>2026-04-19T09:33:44Z</time></trkpt><trkpt lat="42.595819576150355" lon="13.43461331332627"><ele>1444.0</ele><time>2026-04-19T09:33:45Z</time></trkpt><trkpt lat="42.59584302360143" lon="13.434697167400259"><ele>1444.0</ele><time>2026-04-19T09:33:46Z</time></trkpt><trkpt lat="42.59591302783681" lon="13.43484530593136"><ele>1444.0</ele><time>2026-04-19T09:33:48Z</time></trkpt><trkpt lat="42.59594425471991" lon="13.434919797145236"><ele>1444.0</ele><time>2026-04-19T09:33:49Z</time></trkpt><trkpt lat="42.595988759821054" lon="13.434988122914973"><ele>1444.0</ele><time>2026-04-19T09:33:50Z</time></trkpt><trkpt lat="42.59601762893961" lon="13.435086614597175"><ele>1441.857142857143</ele><time>2026-04-19T09:33:51Z</time></trkpt><trkpt lat="42.59605491303442" lon="13.435169435234918"><ele>1439.7142857142856</ele><time>2026-04-19T09:33:52Z</time></trkpt><trkpt lat="42.59608334398525" lon="13.435257772258034"><ele>1437.5714285714284</ele><time>2026-04-19T09:33:53Z</time></trkpt><trkpt lat="42.59612531837067" lon="13.435338247269488"><ele>1435.4285714285716</ele><time>2026-04-19T09:33:54Z</time></trkpt><trkpt lat="42.59616109420791" lon="13.435421049335005"><ele>1433.2857142857142</ele><time>2026-04-19T09:33:55Z</time></trkpt><trkpt lat="42.59620001772946" lon="13.435512239877363"><ele>1431.142857142857</ele><time>2026-04-19T09:33:56Z</time></trkpt><trkpt lat="42.59624144124223" lon="13.435603269207823"><ele>1429.0</ele><time>2026-04-19T09:33:57Z</time></trkpt><trkpt lat="42.5962713420431" lon="13.43569470628712"><ele>1429.0</ele><time>2026-04-19T09:33:58Z</time></trkpt><trkpt lat="42.59629003230318" lon="13.435789312206893"><ele>1429.0</ele><time>2026-04-19T09:33:59Z</time></trkpt><trkpt lat="42.596320766895744" lon="13.435873188271026"><ele>1429.0</ele><time>2026-04-19T09:34:00Z</time></trkpt><trkpt lat="42.59635218146468" lon="13.435954646725067"><ele>1429.0</ele><time>2026-04-19T09:34:01Z</time></trkpt><trkpt lat="42.596405839530604" lon="13.436016611941259"><ele>1429.0</ele><time>2026-04-19T09:34:02Z</time></trkpt><trkpt lat="42.59646097132829" lon="13.436075549341838"><ele>1429.0</ele><time>2026-04-19T09:34:03Z</time></trkpt><trkpt lat="42.59653748750935" lon="13.436117566303421"><ele>1429.0</ele><time>2026-04-19T09:34:04Z</time></trkpt><trkpt lat="42.59662294756515" lon="13.43615191837407"><ele>1429.0</ele><time>2026-04-19T09:34:05Z</time></trkpt><trkpt lat="42.59669181417314" lon="13.436179277133183"><ele>1429.0</ele><time>2026-04-19T09:34:06Z</time></trkpt><trkpt lat="42.59675451065288" lon="13.436210191166314"><ele>1429.0</ele><time>2026-04-19T09:34:07Z</time></trkpt><trkpt lat="42.59685840508177" lon="13.436257010759286"><ele>1429.0</ele><time>2026-04-19T09:34:09Z</time></trkpt><trkpt lat="42.5969416961067" lon="13.436326553115546"><ele>1429.0</ele><time>2026-04-19T09:34:11Z</time></trkpt><trkpt lat="42.596962778978444" lon="13.43646982913569"><ele>1426.5</ele><time>2026-04-19T09:34:13Z</time></trkpt><trkpt lat="42.59693825815435" lon="13.43655334899182"><ele>1424.0</ele><time>2026-04-19T09:34:13.999Z</time></trkpt><trkpt lat="42.596871206949984" lon="13.436597561241857"><ele>1421.5</ele><time>2026-04-19T09:34:14.999Z</time></trkpt><trkpt lat="42.596816685815405" lon="13.436641279669448"><ele>1419.0</ele><time>2026-04-19T09:34:15.999Z</time></trkpt><trkpt lat="42.59674847704299" lon="13.436681434398716"><ele>1416.5</ele><time>2026-04-19T09:34:16.999Z</time></trkpt><trkpt lat="42.59666120899609" lon="13.43670334819178"><ele>1414.0</ele><time>2026-04-19T09:34:17.999Z</time></trkpt><trkpt lat="42.59657523694692" lon="13.436697569735538"><ele>1414.0</ele><time>2026-04-19T09:34:18.999Z</time></trkpt><trkpt lat="42.596464313507006" lon="13.43665221610504"><ele>1414.0</ele><time>2026-04-19T09:34:20.999Z</time></trkpt><trkpt lat="42.59635751567378" lon="13.436630865174433"><ele>1414.0</ele><time>2026-04-19T09:34:22.999Z</time></trkpt><trkpt lat="42.596232966375354" lon="13.436593348725475"><ele>1414.0</ele><time>2026-04-19T09:34:24.999Z</time></trkpt><trkpt lat="42.59616373071337" lon="13.436574150362988"><ele>1414.0</ele><time>2026-04-19T09:34:25.999Z</time></trkpt><trkpt lat="42.59610121079709" lon="13.436556380397189"><ele>1412.0</ele><time>2026-04-19T09:34:26.999Z</time></trkpt><trkpt lat="42.59603964684732" lon="13.436537414461176"><ele>1410.0</ele><time>2026-04-19T09:34:27.999Z</time></trkpt><trkpt lat="42.59597671484702" lon="13.436519235998396"><ele>1408.0</ele><time>2026-04-19T09:34:28.999Z</time></trkpt><trkpt lat="42.5959031200591" lon="13.436497225319036"><ele>1406.0</ele><time>2026-04-19T09:34:29.999Z</time></trkpt><trkpt lat="42.59583445060575" lon="13.436479143339305"><ele>1404.0</ele><time>2026-04-19T09:34:30.999Z</time></trkpt><trkpt lat="42.59576742751325" lon="13.436462670748394"><ele>1402.0</ele><time>2026-04-19T09:34:31.999Z</time></trkpt><trkpt lat="42.59564788663751" lon="13.43642908492853"><ele>1402.0</ele><time>2026-04-19T09:34:33.999Z</time></trkpt><trkpt lat="42.595529458701726" lon="13.43638363961845"><ele>1402.0</ele><time>2026-04-19T09:34:35.999Z</time></trkpt><trkpt lat="42.59546097878764" lon="13.43635858839205"><ele>1402.0</ele><time>2026-04-19T09:34:36.999Z</time></trkpt><trkpt lat="42.59539140711324" lon="13.43634339958823"><ele>1402.0</ele><time>2026-04-19T09:34:37.999Z</time></trkpt><trkpt lat="42.595319428693145" lon="13.436334453769824"><ele>1402.0</ele><time>2026-04-19T09:34:38.999Z</time></trkpt><trkpt lat="42.59525329902857" lon="13.436335144640534"><ele>1402.0</ele><time>2026-04-19T09:34:39.999Z</time></trkpt><trkpt lat="42.59518458058739" lon="13.43634047211008"><ele>1401.0</ele><time>2026-04-19T09:34:40.999Z</time></trkpt><trkpt lat="42.59511596763606" lon="13.43636406347716"><ele>1400.0</ele><time>2026-04-19T09:34:41.999Z</time></trkpt><trkpt lat="42.59504771337943" lon="13.436392923727585"><ele>1399.0</ele><time>2026-04-19T09:34:42.999Z</time></trkpt><trkpt lat="42.594983714371956" lon="13.436416979224402"><ele>1398.0</ele><time>2026-04-19T09:34:43.999Z</time></trkpt><trkpt lat="42.59491943919086" lon="13.43645482619222"><ele>1397.0</ele><time>2026-04-19T09:34:44.999Z</time></trkpt><trkpt lat="42.59486234787048" lon="13.436507696744878"><ele>1396.0</ele><time>2026-04-19T09:34:45.999Z</time></trkpt><trkpt lat="42.594810227361975" lon="13.436573759244599"><ele>1395.0</ele><time>2026-04-19T09:34:46.999Z</time></trkpt><trkpt lat="42.594750250643585" lon="13.436618502821714"><ele>1395.0</ele><time>2026-04-19T09:34:47.999Z</time></trkpt><trkpt lat="42.59468952347576" lon="13.436679987393005"><ele>1395.0</ele><time>2026-04-19T09:34:48.999Z</time></trkpt><trkpt lat="42.59462820804977" lon="13.436722181042024"><ele>1395.0</ele><time>2026-04-19T09:34:49.999Z</time></trkpt><trkpt lat="42.594567046729814" lon="13.436749178214436"><ele>1395.0</ele><time>2026-04-19T09:34:50.999Z</time></trkpt><trkpt lat="42.594442302182756" lon="13.436723023540962"><ele>1395.0</ele><time>2026-04-19T09:34:52.999Z</time></trkpt><trkpt lat="42.59436976521938" lon="13.436697139083254"><ele>1395.0</ele><time>2026-04-19T09:34:53.999Z</time></trkpt><trkpt lat="42.59430520247928" lon="13.43667318344891"><ele>1393.7142857142858</ele><time>2026-04-19T09:34:54.999Z</time></trkpt><trkpt lat="42.59423828941527" lon="13.436667926779519"><ele>1392.4285714285713</ele><time>2026-04-19T09:34:55.999Z</time></trkpt><trkpt lat="42.594172877798634" lon="13.4366497187749"><ele>1391.142857142857</ele><time>2026-04-19T09:34:56.999Z</time></trkpt><trkpt lat="42.594102054747864" lon="13.436628823422216"><ele>1389.857142857143</ele><time>2026-04-19T09:34:57.999Z</time></trkpt><trkpt lat="42.594029627808546" lon="13.436612934539472"><ele>1388.5714285714284</ele><time>2026-04-19T09:34:58.999Z</time></trkpt><trkpt lat="42.5939478714007" lon="13.436598276626954"><ele>1387.2857142857142</ele><time>2026-04-19T09:34:59.999Z</time></trkpt><trkpt lat="42.593869904871134" lon="13.436582938727776"><ele>1386.0</ele><time>2026-04-19T09:35:00.999Z</time></trkpt><trkpt lat="42.593791376484354" lon="13.436579352159491"><ele>1386.0</ele><time>2026-04-19T09:35:01.999Z</time></trkpt><trkpt lat="42.59370652335575" lon="13.436561802164245"><ele>1386.0</ele><time>2026-04-19T09:35:02.999Z</time></trkpt><trkpt lat="42.59363217735355" lon="13.436546717563772"><ele>1386.0</ele><time>2026-04-19T09:35:03.999Z</time></trkpt><trkpt lat="42.593555813194484" lon="13.436566653409233"><ele>1386.0</ele><time>2026-04-19T09:35:04.999Z</time></trkpt><trkpt lat="42.593484557585" lon="13.436564889429434"><ele>1386.0</ele><time>2026-04-19T09:35:05.999Z</time></trkpt><trkpt lat="42.593402471033244" lon="13.436555670137562"><ele>1386.0</ele><time>2026-04-19T09:35:06.999Z</time></trkpt><trkpt lat="42.59331906624381" lon="13.4365692128012"><ele>1384.1666666666667</ele><time>2026-04-19T09:35:07.999Z</time></trkpt><trkpt lat="42.5932372330357" lon="13.436613190707465"><ele>1382.3333333333333</ele><time>2026-04-19T09:35:08.999Z</time></trkpt><trkpt lat="42.593157253202754" lon="13.436640438834665"><ele>1380.5</ele><time>2026-04-19T09:35:09.999Z</time></trkpt><trkpt lat="42.593078710312035" lon="13.436681025192192"><ele>1378.6666666666665</ele><time>2026-04-19T09:35:10.999Z</time></trkpt><trkpt lat="42.592997429439016" lon="13.436684155458135"><ele>1376.8333333333333</ele><time>2026-04-19T09:35:12Z</time></trkpt><trkpt lat="42.59291614257224" lon="13.43669966477054"><ele>1375.0</ele><time>2026-04-19T09:35:13Z</time></trkpt><trkpt lat="42.59283345989095" lon="13.43670544849612"><ele>1373.8333333333333</ele><time>2026-04-19T09:35:14Z</time></trkpt><trkpt lat="42.59275313085639" lon="13.43669433019667"><ele>1372.6666666666665</ele><time>2026-04-19T09:35:15Z</time></trkpt><trkpt lat="42.59267494704473" lon="13.4366834044563"><ele>1371.5</ele><time>2026-04-19T09:35:16Z</time></trkpt><trkpt lat="42.592596758360024" lon="13.436703866691738"><ele>1370.3333333333333</ele><time>2026-04-19T09:35:17Z</time></trkpt><trkpt lat="42.592513563205294" lon="13.436717964266181"><ele>1369.1666666666667</ele><time>2026-04-19T09:35:18Z</time></trkpt><trkpt lat="42.592441992667865" lon="13.436755075485664"><ele>1368.0</ele><time>2026-04-19T09:35:19Z</time></trkpt><trkpt lat="42.59236570799678" lon="13.436780034632147"><ele>1368.0</ele><time>2026-04-19T09:35:20Z</time></trkpt><trkpt lat="42.592291659895785" lon="13.436792907243447"><ele>1368.0</ele><time>2026-04-19T09:35:21Z</time></trkpt><trkpt lat="42.59221506163309" lon="13.436817720270023"><ele>1368.0</ele><time>2026-04-19T09:35:22Z</time></trkpt><trkpt lat="42.59213033154107" lon="13.436843569742226"><ele>1368.0</ele><time>2026-04-19T09:35:23Z</time></trkpt><trkpt lat="42.592050606662134" lon="13.436862232180564"><ele>1368.0</ele><time>2026-04-19T09:35:24Z</time></trkpt><trkpt lat="42.59197836871821" lon="13.436871343259643"><ele>1368.0</ele><time>2026-04-19T09:35:25Z</time></trkpt><trkpt lat="42.591910359900865" lon="13.436862458205944"><ele>1365.6666666666667</ele><time>2026-04-19T09:35:26Z</time></trkpt><trkpt lat="42.59183905115105" lon="13.436835116918996"><ele>1363.3333333333333</ele><time>2026-04-19T09:35:27Z</time></trkpt><trkpt lat="42.591779289876925" lon="13.436774865835623"><ele>1361.0</ele><time>2026-04-19T09:35:28Z</time></trkpt><trkpt lat="42.59172717930811" lon="13.43670495269983"><ele>1358.6666666666665</ele><time>2026-04-19T09:35:29Z</time></trkpt><trkpt lat="42.59166495778183" lon="13.436631198537915"><ele>1356.3333333333333</ele><time>2026-04-19T09:35:30Z</time></trkpt><trkpt lat="42.591609047229184" lon="13.43656119769146"><ele>1354.0</ele><time>2026-04-19T09:35:31Z</time></trkpt><trkpt lat="42.59155537415696" lon="13.436495108585948"><ele>1354.0</ele><time>2026-04-19T09:35:32Z</time></trkpt><trkpt lat="42.5915039843089" lon="13.436438673420964"><ele>1354.0</ele><time>2026-04-19T09:35:33Z</time></trkpt><trkpt lat="42.59144629769296" lon="13.436385910750996"><ele>1354.0</ele><time>2026-04-19T09:35:34Z</time></trkpt><trkpt lat="42.591377131856625" lon="13.436338505671054"><ele>1354.0</ele><time>2026-04-19T09:35:35Z</time></trkpt><trkpt lat="42.5912893596899" lon="13.436322221892137"><ele>1354.0</ele><time>2026-04-19T09:35:36Z</time></trkpt><trkpt lat="42.59119001463323" lon="13.436354032707357"><ele>1354.0</ele><time>2026-04-19T09:35:37Z</time></trkpt><trkpt lat="42.59111148996039" lon="13.436384598195637"><ele>1351.6</ele><time>2026-04-19T09:35:38Z</time></trkpt><trkpt lat="42.59102760873411" lon="13.43650704993756"><ele>1349.2</ele><time>2026-04-19T09:35:39Z</time></trkpt><trkpt lat="42.590950747913034" lon="13.436542034343711"><ele>1346.8</ele><time>2026-04-19T09:35:40Z</time></trkpt><trkpt lat="42.59088791086838" lon="13.436590101196513"><ele>1344.3999999999999</ele><time>2026-04-19T09:35:41Z</time></trkpt><trkpt lat="42.590795290113356" lon="13.436540124950987"><ele>1342.0</ele><time>2026-04-19T09:35:42Z</time></trkpt><trkpt lat="42.59070555079839" lon="13.436495177643819"><ele>1342.0</ele><time>2026-04-19T09:35:43Z</time></trkpt><trkpt lat="42.590622584546956" lon="13.436466356728731"><ele>1342.0</ele><time>2026-04-19T09:35:44Z</time></trkpt><trkpt lat="42.59054741237321" lon="13.436418422080997"><ele>1342.0</ele><time>2026-04-19T09:35:45Z</time></trkpt><trkpt lat="42.5904695796601" lon="13.436411759297851"><ele>1342.0</ele><time>2026-04-19T09:35:46Z</time></trkpt><trkpt lat="42.59038960385908" lon="13.436425364665194"><ele>1342.0</ele><time>2026-04-19T09:35:47Z</time></trkpt><trkpt lat="42.590315471306035" lon="13.436459022755912"><ele>1342.0</ele><time>2026-04-19T09:35:48Z</time></trkpt><trkpt lat="42.59024858057644" lon="13.436516082318397"><ele>1341.3333333333333</ele><time>2026-04-19T09:35:49Z</time></trkpt><trkpt lat="42.59019054981359" lon="13.436580976162844"><ele>1340.6666666666665</ele><time>2026-04-19T09:35:50Z</time></trkpt><trkpt lat="42.59014158821806" lon="13.436657062502695"><ele>1340.0</ele><time>2026-04-19T09:35:51Z</time></trkpt><trkpt lat="42.59009240604679" lon="13.436725231226236"><ele>1339.3333333333333</ele><time>2026-04-19T09:35:52Z</time></trkpt><trkpt lat="42.59004045631817" lon="13.436791573365866"><ele>1338.6666666666667</ele><time>2026-04-19T09:35:53Z</time></trkpt><trkpt lat="42.58997669540779" lon="13.436823463756093"><ele>1338.0</ele><time>2026-04-19T09:35:54Z</time></trkpt><trkpt lat="42.58985890837696" lon="13.43687421774196"><ele>1338.0</ele><time>2026-04-19T09:35:56Z</time></trkpt><trkpt lat="42.58973335530344" lon="13.436921608358187"><ele>1338.0</ele><time>2026-04-19T09:35:58Z</time></trkpt><trkpt lat="42.58966747222916" lon="13.43692492198186"><ele>1338.0</ele><time>2026-04-19T09:35:59Z</time></trkpt><trkpt lat="42.58954373807144" lon="13.436936492401436"><ele>1338.0</ele><time>2026-04-19T09:36:01Z</time></trkpt><trkpt lat="42.589480893672906" lon="13.43692234966773"><ele>1338.0</ele><time>2026-04-19T09:36:02Z</time></trkpt><trkpt lat="42.589353893502725" lon="13.436918864828574"><ele>1335.5</ele><time>2026-04-19T09:36:04Z</time></trkpt><trkpt lat="42.58924390804083" lon="13.436909890840374"><ele>1333.0</ele><time>2026-04-19T09:36:06Z</time></trkpt><trkpt lat="42.589190149742954" lon="13.43705888630415"><ele>1330.5</ele><time>2026-04-19T09:36:07Z</time></trkpt><trkpt lat="42.58915384756923" lon="13.43713131721669"><ele>1328.0</ele><time>2026-04-19T09:36:08Z</time></trkpt><trkpt lat="42.58910420726932" lon="13.437201308911794"><ele>1325.5</ele><time>2026-04-19T09:36:09Z</time></trkpt><trkpt lat="42.58907130728011" lon="13.437292801762647"><ele>1323.0</ele><time>2026-04-19T09:36:10Z</time></trkpt><trkpt lat="42.58906036464702" lon="13.437396711496207"><ele>1323.0</ele><time>2026-04-19T09:36:11Z</time></trkpt><trkpt lat="42.5890369962143" lon="13.437481230218145"><ele>1323.0</ele><time>2026-04-19T09:36:12Z</time></trkpt><trkpt lat="42.58901801883368" lon="13.43757132483119"><ele>1323.0</ele><time>2026-04-19T09:36:13Z</time></trkpt><trkpt lat="42.58900036520582" lon="13.437660127986526"><ele>1323.0</ele><time>2026-04-19T09:36:14Z</time></trkpt><trkpt lat="42.588984213502115" lon="13.437750481756224"><ele>1323.0</ele><time>2026-04-19T09:36:15Z</time></trkpt><trkpt lat="42.588969373696976" lon="13.437834751619842"><ele>1323.0</ele><time>2026-04-19T09:36:16Z</time></trkpt><trkpt lat="42.58895528246509" lon="13.437923900810837"><ele>1323.0</ele><time>2026-04-19T09:36:17Z</time></trkpt><trkpt lat="42.588939497754545" lon="13.438012166514833"><ele>1323.0</ele><time>2026-04-19T09:36:18Z</time></trkpt><trkpt lat="42.58892273389959" lon="13.438101378183198"><ele>1323.0</ele><time>2026-04-19T09:36:19Z</time></trkpt><trkpt lat="42.58890621212269" lon="13.438188712856203"><ele>1323.0</ele><time>2026-04-19T09:36:20Z</time></trkpt><trkpt lat="42.58888932129142" lon="13.438272559985046"><ele>1323.0</ele><time>2026-04-19T09:36:21Z</time></trkpt><trkpt lat="42.58886004021411" lon="13.438350250527536"><ele>1323.0</ele><time>2026-04-19T09:36:22Z</time></trkpt><trkpt lat="42.58885250634095" lon="13.438446345501148"><ele>1323.0</ele><time>2026-04-19T09:36:23Z</time></trkpt><trkpt lat="42.58884008562247" lon="13.438547613377857"><ele>1323.0</ele><time>2026-04-19T09:36:24Z</time></trkpt><trkpt lat="42.588834306753164" lon="13.438646691679516"><ele>1323.0</ele><time>2026-04-19T09:36:25Z</time></trkpt><trkpt lat="42.5888408336175" lon="13.438748022193133"><ele>1323.0</ele><time>2026-04-19T09:36:26Z</time></trkpt><trkpt lat="42.588859498523696" lon="13.438847108439225"><ele>1323.0</ele><time>2026-04-19T09:36:27Z</time></trkpt><trkpt lat="42.58889326413182" lon="13.43894606522458"><ele>1323.0</ele><time>2026-04-19T09:36:28Z</time></trkpt><trkpt lat="42.58894288501412" lon="13.439049932620883"><ele>1323.0</ele><time>2026-04-19T09:36:29Z</time></trkpt><trkpt lat="42.58898517538665" lon="13.439140522883303"><ele>1323.0</ele><time>2026-04-19T09:36:30Z</time></trkpt><trkpt lat="42.58902510730004" lon="13.43921255913879"><ele>1321.3333333333333</ele><time>2026-04-19T09:36:31Z</time></trkpt><trkpt lat="42.589064115084355" lon="13.439285282983906"><ele>1319.6666666666667</ele><time>2026-04-19T09:36:32Z</time></trkpt><trkpt lat="42.58910429378112" lon="13.439356342766624"><ele>1318.0</ele><time>2026-04-19T09:36:33Z</time></trkpt><trkpt lat="42.589148443799424" lon="13.439420073997372"><ele>1316.3333333333335</ele><time>2026-04-19T09:36:34Z</time></trkpt><trkpt lat="42.589235331363334" lon="13.439508166941119"><ele>1314.6666666666667</ele><time>2026-04-19T09:36:35.999Z</time></trkpt><trkpt lat="42.58931950929473" lon="13.439579092178382"><ele>1313.0</ele><time>2026-04-19T09:36:37.999Z</time></trkpt><trkpt lat="42.58940651259577" lon="13.439636880728843"><ele>1312.0</ele><time>2026-04-19T09:36:39.999Z</time></trkpt><trkpt lat="42.58950110274712" lon="13.439679796589747"><ele>1311.0</ele><time>2026-04-19T09:36:41.999Z</time></trkpt><trkpt lat="42.589603338548535" lon="13.439726361202057"><ele>1310.0</ele><time>2026-04-19T09:36:44Z</time></trkpt><trkpt lat="42.58969368011852" lon="13.439769068644564"><ele>1309.0</ele><time>2026-04-19T09:36:45.999Z</time></trkpt><trkpt lat="42.58979512905609" lon="13.43985960596007"><ele>1308.0</ele><time>2026-04-19T09:36:47.999Z</time></trkpt><trkpt lat="42.58987959450795" lon="13.439926641397856"><ele>1308.0</ele><time>2026-04-19T09:36:49.999Z</time></trkpt><trkpt lat="42.589955901352695" lon="13.439951367372702"><ele>1308.0</ele><time>2026-04-19T09:36:51.999Z</time></trkpt><trkpt lat="42.59001887715594" lon="13.439985894502312"><ele>1308.0</ele><time>2026-04-19T09:36:55.999Z</time></trkpt><trkpt lat="42.59005317062081" lon="13.440073237423285"><ele>1308.0</ele><time>2026-04-19T09:37:03.999Z</time></trkpt><trkpt lat="42.59011217282833" lon="13.440173806490323"><ele>1308.0</ele><time>2026-04-19T09:37:05.999Z</time></trkpt><trkpt lat="42.590170128152224" lon="13.440284047335005"><ele>1308.0</ele><time>2026-04-19T09:37:07.999Z</time></trkpt><trkpt lat="42.59022989996262" lon="13.4404121398423"><ele>1307.6666666666667</ele><time>2026-04-19T09:37:09.999Z</time></trkpt><trkpt lat="42.59030233793698" lon="13.440544152666725"><ele>1307.3333333333333</ele><time>2026-04-19T09:37:11.999Z</time></trkpt><trkpt lat="42.590351625893994" lon="13.440601996519668"><ele>1307.0</ele><time>2026-04-19T09:37:12.999Z</time></trkpt><trkpt lat="42.59040849822316" lon="13.44065559996377"><ele>1306.6666666666665</ele><time>2026-04-19T09:37:13.999Z</time></trkpt><trkpt lat="42.59046137728315" lon="13.440707168725838"><ele>1306.3333333333333</ele><time>2026-04-19T09:37:14.999Z</time></trkpt><trkpt lat="42.59052894158846" lon="13.440774917998166"><ele>1306.0</ele><time>2026-04-19T09:37:16.999Z</time></trkpt><trkpt lat="42.59058511040235" lon="13.440836544042488"><ele>1306.0</ele><time>2026-04-19T09:37:20Z</time></trkpt><trkpt lat="42.59066039078221" lon="13.4409101758971"><ele>1306.0</ele><time>2026-04-19T09:37:23Z</time></trkpt><trkpt lat="42.59070527348303" lon="13.440983081345403"><ele>1306.0</ele><time>2026-04-19T09:37:25Z</time></trkpt><trkpt lat="42.59074965588905" lon="13.44106374815075"><ele>1306.0</ele><time>2026-04-19T09:37:28Z</time></trkpt><trkpt lat="42.5907905202192" lon="13.441129709142267"><ele>1306.0</ele><time>2026-04-19T09:37:30Z</time></trkpt><trkpt lat="42.59083287409857" lon="13.441205737147282"><ele>1306.0</ele><time>2026-04-19T09:37:32Z</time></trkpt><trkpt lat="42.59088681422143" lon="13.441312359242813"><ele>1304.5</ele><time>2026-04-19T09:37:35Z</time></trkpt><trkpt lat="42.59092290159799" lon="13.441394736032773"><ele>1303.0</ele><time>2026-04-19T09:37:37Z</time></trkpt><trkpt lat="42.59096413788397" lon="13.44148214800015"><ele>1301.5</ele><time>2026-04-19T09:37:39Z</time></trkpt><trkpt lat="42.59101621148037" lon="13.441569431553381"><ele>1300.0</ele><time>2026-04-19T09:37:41Z</time></trkpt><trkpt lat="42.59106046531111" lon="13.441656692586337"><ele>1298.5</ele><time>2026-04-19T09:37:43Z</time></trkpt><trkpt lat="42.591086293980304" lon="13.441784867353451"><ele>1297.0</ele><time>2026-04-19T09:37:45Z</time></trkpt><trkpt lat="42.591130916386916" lon="13.441911782181084"><ele>1297.0</ele><time>2026-04-19T09:37:47Z</time></trkpt><trkpt lat="42.59115547479082" lon="13.442038214498638"><ele>1297.0</ele><time>2026-04-19T09:37:49Z</time></trkpt><trkpt lat="42.59119260574099" lon="13.442162532709444"><ele>1297.0</ele><time>2026-04-19T09:37:51Z</time></trkpt><trkpt lat="42.59123081529317" lon="13.442293078557235"><ele>1297.0</ele><time>2026-04-19T09:37:53Z</time></trkpt><trkpt lat="42.591267255842574" lon="13.442427950186921"><ele>1297.0</ele><time>2026-04-19T09:37:55Z</time></trkpt><trkpt lat="42.59129976815892" lon="13.442562568204202"><ele>1297.25</ele><time>2026-04-19T09:37:57Z</time></trkpt><trkpt lat="42.59133944520358" lon="13.442710953517212"><ele>1297.5</ele><time>2026-04-19T09:37:59Z</time></trkpt><trkpt lat="42.59138214354822" lon="13.442854607720841"><ele>1297.75</ele><time>2026-04-19T09:38:01Z</time></trkpt><trkpt lat="42.591451037392886" lon="13.442978637916111"><ele>1298.0</ele><time>2026-04-19T09:38:03Z</time></trkpt><trkpt lat="42.59154051215124" lon="13.443101810089253"><ele>1295.5</ele><time>2026-04-19T09:38:05Z</time></trkpt><trkpt lat="42.59159280439568" lon="13.443155274451042"><ele>1293.0</ele><time>2026-04-19T09:38:06Z</time></trkpt><trkpt lat="42.59164721450612" lon="13.443210030077541"><ele>1290.5</ele><time>2026-04-19T09:38:07Z</time></trkpt><trkpt lat="42.59170673699665" lon="13.443263153958577"><ele>1288.0</ele><time>2026-04-19T09:38:08Z</time></trkpt><trkpt lat="42.59175588460207" lon="13.44332078071898"><ele>1285.5</ele><time>2026-04-19T09:38:09Z</time></trkpt><trkpt lat="42.591840817755056" lon="13.443442691789945"><ele>1283.0</ele><time>2026-04-19T09:38:11Z</time></trkpt><trkpt lat="42.59192222428978" lon="13.443555883099545"><ele>1284.5</ele><time>2026-04-19T09:38:13Z</time></trkpt><trkpt lat="42.59201330443965" lon="13.44365480461168"><ele>1286.0</ele><time>2026-04-19T09:38:15Z</time></trkpt><trkpt lat="42.59210950154617" lon="13.443758380901057"><ele>1287.5</ele><time>2026-04-19T09:38:17Z</time></trkpt><trkpt lat="42.5922088579254" lon="13.443858226953536"><ele>1289.0</ele><time>2026-04-19T09:38:19Z</time></trkpt><trkpt lat="42.59231327211279" lon="13.443936901995595"><ele>1284.2</ele><time>2026-04-19T09:38:21Z</time></trkpt><trkpt lat="42.592422767460995" lon="13.44401205179257"><ele>1279.4</ele><time>2026-04-19T09:38:23Z</time></trkpt><trkpt lat="42.59248485170113" lon="13.444048622520286"><ele>1274.6</ele><time>2026-04-19T09:38:24Z</time></trkpt><trkpt lat="42.592603379244956" lon="13.44409618970186"><ele>1269.8</ele><time>2026-04-19T09:38:26Z</time></trkpt><trkpt lat="42.59266530200302" lon="13.444122875375985"><ele>1265.0</ele><time>2026-04-19T09:38:27Z</time></trkpt><trkpt lat="42.59278031259484" lon="13.444189644131034"><ele>1265.4</ele><time>2026-04-19T09:38:29Z</time></trkpt><trkpt lat="42.59289370182521" lon="13.444245913516745"><ele>1265.8</ele><time>2026-04-19T09:38:31Z</time></trkpt><trkpt lat="42.59300343711937" lon="13.444331777594346"><ele>1266.2</ele><time>2026-04-19T09:38:33Z</time></trkpt><trkpt lat="42.59306494827739" lon="13.444368234948847"><ele>1266.6</ele><time>2026-04-19T09:38:34Z</time></trkpt><trkpt lat="42.593126478168244" lon="13.4443899094047"><ele>1267.0</ele><time>2026-04-19T09:38:35Z</time></trkpt><trkpt lat="42.59325425536686" lon="13.444398187236562"><ele>1267.0</ele><time>2026-04-19T09:38:37Z</time></trkpt><trkpt lat="42.59332265279899" lon="13.444387068263204"><ele>1267.0</ele><time>2026-04-19T09:38:38Z</time></trkpt><trkpt lat="42.593388637336005" lon="13.444367800740126"><ele>1267.0</ele><time>2026-04-19T09:38:39Z</time></trkpt><trkpt lat="42.59345394047893" lon="13.444344020665536"><ele>1267.0</ele><time>2026-04-19T09:38:40Z</time></trkpt><trkpt lat="42.59351456291044" lon="13.444316108570373"><ele>1267.0</ele><time>2026-04-19T09:38:41Z</time></trkpt><trkpt lat="42.59357480071499" lon="13.444288616408967"><ele>1267.0</ele><time>2026-04-19T09:38:42Z</time></trkpt><trkpt lat="42.593640459132246" lon="13.444260856693349"><ele>1267.0</ele><time>2026-04-19T09:38:43Z</time></trkpt><trkpt lat="42.59370214359248" lon="13.44423339628931"><ele>1265.6</ele><time>2026-04-19T09:38:44Z</time></trkpt><trkpt lat="42.59382769147839" lon="13.444220917689607"><ele>1264.2</ele><time>2026-04-19T09:38:46Z</time></trkpt><trkpt lat="42.59395559728096" lon="13.444257947909657"><ele>1262.8</ele><time>2026-04-19T09:38:48Z</time></trkpt><trkpt lat="42.59401740433048" lon="13.444289501148411"><ele>1261.4</ele><time>2026-04-19T09:38:49Z</time></trkpt><trkpt lat="42.594073908520265" lon="13.444338892956075"><ele>1260.0</ele><time>2026-04-19T09:38:50Z</time></trkpt><trkpt lat="42.59413457375281" lon="13.444379477154818"><ele>1260.0</ele><time>2026-04-19T09:38:51Z</time></trkpt><trkpt lat="42.59419957906254" lon="13.444432359559997"><ele>1260.0</ele><time>2026-04-19T09:38:52Z</time></trkpt><trkpt lat="42.594253836935046" lon="13.444490834793955"><ele>1260.0</ele><time>2026-04-19T09:38:53Z</time></trkpt><trkpt lat="42.594351739449145" lon="13.444584915757797"><ele>1260.0</ele><time>2026-04-19T09:38:55Z</time></trkpt><trkpt lat="42.594471175948485" lon="13.444644143197424"><ele>1260.0</ele><time>2026-04-19T09:38:57Z</time></trkpt><trkpt lat="42.59454138302786" lon="13.444643945012261"><ele>1259.4285714285713</ele><time>2026-04-19T09:38:58Z</time></trkpt><trkpt lat="42.594613724773595" lon="13.444624054179938"><ele>1258.857142857143</ele><time>2026-04-19T09:38:59Z</time></trkpt><trkpt lat="42.5946873202694" lon="13.444595292740715"><ele>1258.2857142857142</ele><time>2026-04-19T09:39:00Z</time></trkpt><trkpt lat="42.59475107879731" lon="13.444559971418439"><ele>1257.7142857142858</ele><time>2026-04-19T09:39:01Z</time></trkpt><trkpt lat="42.59481209422027" lon="13.444529961577098"><ele>1257.142857142857</ele><time>2026-04-19T09:39:02Z</time></trkpt><trkpt lat="42.594874901855334" lon="13.444521649020075"><ele>1256.5714285714284</ele><time>2026-04-19T09:39:03Z</time></trkpt><trkpt lat="42.59494034221689" lon="13.444520767259132"><ele>1256.0</ele><time>2026-04-19T09:39:04Z</time></trkpt><trkpt lat="42.595015006401454" lon="13.444516047061901"><ele>1255.9999999999998</ele><time>2026-04-19T09:39:04.999Z</time></trkpt><trkpt lat="42.59508430168105" lon="13.444490643360453"><ele>1256.0</ele><time>2026-04-19T09:39:05.999Z</time></trkpt><trkpt lat="42.59515160664103" lon="13.444459894727975"><ele>1256.0</ele><time>2026-04-19T09:39:06.999Z</time></trkpt><trkpt lat="42.59521826708169" lon="13.44442001540962"><ele>1256.0</ele><time>2026-04-19T09:39:07.999Z</time></trkpt><trkpt lat="42.59527917590177" lon="13.444375290772575"><ele>1256.0</ele><time>2026-04-19T09:39:08.999Z</time></trkpt><trkpt lat="42.59534462989904" lon="13.444329073533412"><ele>1255.9999999999998</ele><time>2026-04-19T09:39:09.999Z</time></trkpt><trkpt lat="42.59540363153117" lon="13.444276323656617"><ele>1256.0</ele><time>2026-04-19T09:39:10.999Z</time></trkpt><trkpt lat="42.59546386227754" lon="13.444223939627113"><ele>1254.0</ele><time>2026-04-19T09:39:11.999Z</time></trkpt><trkpt lat="42.59552707110217" lon="13.444177886452684"><ele>1252.0</ele><time>2026-04-19T09:39:12.999Z</time></trkpt><trkpt lat="42.59558829290701" lon="13.444135417718403"><ele>1250.0</ele><time>2026-04-19T09:39:13.999Z</time></trkpt><trkpt lat="42.59565337611628" lon="13.444098227796998"><ele>1248.0</ele><time>2026-04-19T09:39:14.999Z</time></trkpt><trkpt lat="42.595713106158726" lon="13.444056544708502"><ele>1246.0</ele><time>2026-04-19T09:39:15.999Z</time></trkpt><trkpt lat="42.595819408699406" lon="13.444013455946353"><ele>1244.0</ele><time>2026-04-19T09:39:17.999Z</time></trkpt><trkpt lat="42.595866885982154" lon="13.443944621059615"><ele>1244.0</ele><time>2026-04-19T09:39:18.999Z</time></trkpt><trkpt lat="42.595966769948994" lon="13.443905009361107"><ele>1244.0</ele><time>2026-04-19T09:39:20.999Z</time></trkpt><trkpt lat="42.59604390118193" lon="13.443981578923463"><ele>1244.0</ele><time>2026-04-19T09:39:22.999Z</time></trkpt><trkpt lat="42.596063781651196" lon="13.444063769932438"><ele>1244.0</ele><time>2026-04-19T09:39:24Z</time></trkpt><trkpt lat="42.59607454423834" lon="13.444148458097327"><ele>1244.0</ele><time>2026-04-19T09:39:25Z</time></trkpt><trkpt lat="42.596049650363575" lon="13.444247585970322"><ele>1244.0</ele><time>2026-04-19T09:39:26Z</time></trkpt><trkpt lat="42.59602678818261" lon="13.444335653224794"><ele>1244.0</ele><time>2026-04-19T09:39:27Z</time></trkpt><trkpt lat="42.59599263644052" lon="13.444410359953116"><ele>1244.0</ele><time>2026-04-19T09:39:28Z</time></trkpt><trkpt lat="42.595950588481585" lon="13.444482974985352"><ele>1244.0</ele><time>2026-04-19T09:39:29Z</time></trkpt><trkpt lat="42.59588932967462" lon="13.444536400720562"><ele>1244.0</ele><time>2026-04-19T09:39:30Z</time></trkpt><trkpt lat="42.59585086058297" lon="13.444615148043976"><ele>1244.0</ele><time>2026-04-19T09:39:31Z</time></trkpt><trkpt lat="42.59580597706266" lon="13.444689475145648"><ele>1244.0</ele><time>2026-04-19T09:39:32Z</time></trkpt><trkpt lat="42.59578006022491" lon="13.444778068416314"><ele>1244.0</ele><time>2026-04-19T09:39:33Z</time></trkpt><trkpt lat="42.59578293321163" lon="13.444877050646506"><ele>1241.3333333333335</ele><time>2026-04-19T09:39:34Z</time></trkpt><trkpt lat="42.59577766952124" lon="13.444981442074491"><ele>1238.6666666666667</ele><time>2026-04-19T09:39:35Z</time></trkpt><trkpt lat="42.59582988529031" lon="13.445074408359902"><ele>1236.0</ele><time>2026-04-19T09:39:36Z</time></trkpt><trkpt lat="42.59583750751818" lon="13.445167950532134"><ele>1233.3333333333333</ele><time>2026-04-19T09:39:37Z</time></trkpt><trkpt lat="42.59584233852405" lon="13.445263975018708"><ele>1230.6666666666665</ele><time>2026-04-19T09:39:38Z</time></trkpt><trkpt lat="42.59580509434361" lon="13.445441016352534"><ele>1228.0</ele><time>2026-04-19T09:39:40Z</time></trkpt><trkpt lat="42.59577618538391" lon="13.445531485675533"><ele>1225.0</ele><time>2026-04-19T09:39:41Z</time></trkpt><trkpt lat="42.59573866420049" lon="13.44563589717967"><ele>1222.0</ele><time>2026-04-19T09:39:42Z</time></trkpt><trkpt lat="42.5957038942705" lon="13.445719699241163"><ele>1219.0</ele><time>2026-04-19T09:39:43Z</time></trkpt><trkpt lat="42.59566877476218" lon="13.445797993338209"><ele>1216.0</ele><time>2026-04-19T09:39:44Z</time></trkpt><trkpt lat="42.59562358459369" lon="13.445883247112237"><ele>1213.0</ele><time>2026-04-19T09:39:45Z</time></trkpt><trkpt lat="42.59557325179179" lon="13.445963187521484"><ele>1210.0</ele><time>2026-04-19T09:39:46Z</time></trkpt><trkpt lat="42.59551687492037" lon="13.446033287933322"><ele>1210.0</ele><time>2026-04-19T09:39:47Z</time></trkpt><trkpt lat="42.59545292109174" lon="13.446087058215044"><ele>1210.0</ele><time>2026-04-19T09:39:48Z</time></trkpt><trkpt lat="42.595387910872276" lon="13.44613196780414"><ele>1210.0</ele><time>2026-04-19T09:39:49Z</time></trkpt><trkpt lat="42.59531467729042" lon="13.446169271358208"><ele>1210.0</ele><time>2026-04-19T09:39:50Z</time></trkpt><trkpt lat="42.595234744717736" lon="13.446204388141082"><ele>1210.0</ele><time>2026-04-19T09:39:51Z</time></trkpt><trkpt lat="42.595152670555905" lon="13.446235510392244"><ele>1210.0</ele><time>2026-04-19T09:39:52Z</time></trkpt><trkpt lat="42.59507409017596" lon="13.446263296408544"><ele>1211.6666666666665</ele><time>2026-04-19T09:39:53Z</time></trkpt><trkpt lat="42.59499339510116" lon="13.446279572131953"><ele>1213.3333333333333</ele><time>2026-04-19T09:39:54Z</time></trkpt><trkpt lat="42.59491489369048" lon="13.446308449152216"><ele>1215.0</ele><time>2026-04-19T09:39:55Z</time></trkpt><trkpt lat="42.59483895523957" lon="13.446356062375779"><ele>1216.6666666666667</ele><time>2026-04-19T09:39:56Z</time></trkpt><trkpt lat="42.59476802050652" lon="13.446402408425243"><ele>1218.3333333333335</ele><time>2026-04-19T09:39:57Z</time></trkpt><trkpt lat="42.594702608199334" lon="13.446449851965678"><ele>1220.0</ele><time>2026-04-19T09:39:58Z</time></trkpt><trkpt lat="42.59463209772511" lon="13.446493482813867"><ele>1215.6</ele><time>2026-04-19T09:39:59Z</time></trkpt><trkpt lat="42.594561885276455" lon="13.446502850912053"><ele>1211.2</ele><time>2026-04-19T09:40:00Z</time></trkpt><trkpt lat="42.59447198195974" lon="13.44649677806005"><ele>1206.8</ele><time>2026-04-19T09:40:01Z</time></trkpt><trkpt lat="42.59437630489143" lon="13.446493026908497"><ele>1202.4</ele><time>2026-04-19T09:40:02Z</time></trkpt><trkpt lat="42.59427695286765" lon="13.446488400502034"><ele>1198.0</ele><time>2026-04-19T09:40:03Z</time></trkpt><trkpt lat="42.59417521155174" lon="13.446487964338179"><ele>1198.0</ele><time>2026-04-19T09:40:04Z</time></trkpt><trkpt lat="42.59407485587722" lon="13.446515462256272"><ele>1198.0</ele><time>2026-04-19T09:40:05Z</time></trkpt><trkpt lat="42.59397447594081" lon="13.446506596959795"><ele>1198.0</ele><time>2026-04-19T09:40:06Z</time></trkpt><trkpt lat="42.59388197792241" lon="13.446540475094148"><ele>1198.0</ele><time>2026-04-19T09:40:07Z</time></trkpt><trkpt lat="42.59380219320813" lon="13.446554109230359"><ele>1198.0</ele><time>2026-04-19T09:40:08Z</time></trkpt><trkpt lat="42.59371414563486" lon="13.446546576755205"><ele>1195.5</ele><time>2026-04-19T09:40:09Z</time></trkpt><trkpt lat="42.59363137115986" lon="13.446542939661871"><ele>1193.0</ele><time>2026-04-19T09:40:10Z</time></trkpt><trkpt lat="42.59355333918768" lon="13.446504864163694"><ele>1190.5</ele><time>2026-04-19T09:40:11Z</time></trkpt><trkpt lat="42.59348417499126" lon="13.446424620269275"><ele>1188.0</ele><time>2026-04-19T09:40:12Z</time></trkpt><trkpt lat="42.59339812943832" lon="13.446372452654526"><ele>1185.5</ele><time>2026-04-19T09:40:13Z</time></trkpt><trkpt lat="42.59330418419781" lon="13.446332876974575"><ele>1183.0</ele><time>2026-04-19T09:40:14Z</time></trkpt><trkpt lat="42.5932116747845" lon="13.446303700215966"><ele>1183.0</ele><time>2026-04-19T09:40:15Z</time></trkpt><trkpt lat="42.59311427536587" lon="13.446288441591086"><ele>1183.0</ele><time>2026-04-19T09:40:16Z</time></trkpt><trkpt lat="42.59302213788581" lon="13.446318566837405"><ele>1183.0</ele><time>2026-04-19T09:40:17Z</time></trkpt><trkpt lat="42.592927578820735" lon="13.44630156428309"><ele>1183.0</ele><time>2026-04-19T09:40:18Z</time></trkpt><trkpt lat="42.592831900318316" lon="13.446294946808544"><ele>1183.0</ele><time>2026-04-19T09:40:19Z</time></trkpt><trkpt lat="42.59274229289497" lon="13.446280983914443"><ele>1186.5</ele><time>2026-04-19T09:40:20Z</time></trkpt><trkpt lat="42.59266349865164" lon="13.44625462437271"><ele>1190.0</ele><time>2026-04-19T09:40:21Z</time></trkpt><trkpt lat="42.59257245651762" lon="13.446213759163772"><ele>1193.5</ele><time>2026-04-19T09:40:22Z</time></trkpt><trkpt lat="42.59248834017613" lon="13.446174524674307"><ele>1197.0</ele><time>2026-04-19T09:40:23Z</time></trkpt><trkpt lat="42.592420705543326" lon="13.446140323075426"><ele>1200.5</ele><time>2026-04-19T09:40:24Z</time></trkpt><trkpt lat="42.59234881868411" lon="13.446126198476067"><ele>1204.0</ele><time>2026-04-19T09:40:25Z</time></trkpt><trkpt lat="42.5922713591117" lon="13.44608255133057"><ele>1204.0</ele><time>2026-04-19T09:40:26Z</time></trkpt><trkpt lat="42.59218740101622" lon="13.446110541472315"><ele>1204.0</ele><time>2026-04-19T09:40:27Z</time></trkpt><trkpt lat="42.592115570425136" lon="13.446135706647707"><ele>1204.0</ele><time>2026-04-19T09:40:28Z</time></trkpt><trkpt lat="42.592047797518816" lon="13.446166926949362"><ele>1204.0</ele><time>2026-04-19T09:40:29Z</time></trkpt><trkpt lat="42.59197025155205" lon="13.446178793129446"><ele>1204.0</ele><time>2026-04-19T09:40:30Z</time></trkpt><trkpt lat="42.59189684888336" lon="13.446215877751179"><ele>1204.0</ele><time>2026-04-19T09:40:31Z</time></trkpt><trkpt lat="42.59182448055393" lon="13.446252469526618"><ele>1202.8333333333333</ele><time>2026-04-19T09:40:32Z</time></trkpt><trkpt lat="42.591751106267694" lon="13.44628388067934"><ele>1201.6666666666665</ele><time>2026-04-19T09:40:33Z</time></trkpt><trkpt lat="42.591672457536006" lon="13.446300684076537"><ele>1200.5</ele><time>2026-04-19T09:40:34Z</time></trkpt><trkpt lat="42.59159764624182" lon="13.44632673624329"><ele>1199.3333333333333</ele><time>2026-04-19T09:40:35Z</time></trkpt><trkpt lat="42.591516657161286" lon="13.446341107894721"><ele>1198.1666666666667</ele><time>2026-04-19T09:40:36Z</time></trkpt><trkpt lat="42.59144265123605" lon="13.446367057053603"><ele>1197.0</ele><time>2026-04-19T09:40:37Z</time></trkpt><trkpt lat="42.591369265515965" lon="13.446400806951889"><ele>1192.5714285714287</ele><time>2026-04-19T09:40:38Z</time></trkpt><trkpt lat="42.59130305262599" lon="13.446438403822116"><ele>1188.142857142857</ele><time>2026-04-19T09:40:39Z</time></trkpt><trkpt lat="42.59123145606925" lon="13.446480226270277"><ele>1183.7142857142858</ele><time>2026-04-19T09:40:40Z</time></trkpt><trkpt lat="42.59116737449023" lon="13.446514441492369"><ele>1179.2857142857142</ele><time>2026-04-19T09:40:41Z</time></trkpt><trkpt lat="42.591101721216944" lon="13.44655373210102"><ele>1174.857142857143</ele><time>2026-04-19T09:40:42Z</time></trkpt><trkpt lat="42.59103043013266" lon="13.446572686631816"><ele>1170.4285714285716</ele><time>2026-04-19T09:40:43Z</time></trkpt><trkpt lat="42.5909570593078" lon="13.446607630424115"><ele>1166.0</ele><time>2026-04-19T09:40:44Z</time></trkpt><trkpt lat="42.590881672780576" lon="13.446636910565505"><ele>1166.0</ele><time>2026-04-19T09:40:45Z</time></trkpt><trkpt lat="42.590804128876094" lon="13.446663347633885"><ele>1166.0</ele><time>2026-04-19T09:40:46Z</time></trkpt><trkpt lat="42.59072064536134" lon="13.446687143376964"><ele>1166.0</ele><time>2026-04-19T09:40:47Z</time></trkpt><trkpt lat="42.59063396983932" lon="13.446722612651154"><ele>1166.0</ele><time>2026-04-19T09:40:48Z</time></trkpt><trkpt lat="42.590544989899456" lon="13.446749245595647"><ele>1166.0</ele><time>2026-04-19T09:40:49Z</time></trkpt><trkpt lat="42.590458744668595" lon="13.44675791853579"><ele>1166.0</ele><time>2026-04-19T09:40:50Z</time></trkpt><trkpt lat="42.59037373373254" lon="13.44677699096562"><ele>1166.6666666666667</ele><time>2026-04-19T09:40:51Z</time></trkpt><trkpt lat="42.590294359397014" lon="13.446788571902355"><ele>1167.3333333333335</ele><time>2026-04-19T09:40:52Z</time></trkpt><trkpt lat="42.59022294525703" lon="13.446815909350219"><ele>1168.0</ele><time>2026-04-19T09:40:53Z</time></trkpt><trkpt lat="42.59013243124841" lon="13.446792464207109"><ele>1168.6666666666667</ele><time>2026-04-19T09:40:54Z</time></trkpt><trkpt lat="42.59003940987335" lon="13.446793466900912"><ele>1169.3333333333333</ele><time>2026-04-19T09:40:55Z</time></trkpt><trkpt lat="42.58995892628211" lon="13.446799331684733"><ele>1170.0</ele><time>2026-04-19T09:40:56Z</time></trkpt><trkpt lat="42.58989610485703" lon="13.446806206870214"><ele>1170.0</ele><time>2026-04-19T09:40:57Z</time></trkpt><trkpt lat="42.58979224894931" lon="13.44684958307557"><ele>1170.0</ele><time>2026-04-19T09:40:59Z</time></trkpt><trkpt lat="42.58968583881556" lon="13.446907799797252"><ele>1170.0</ele><time>2026-04-19T09:41:01Z</time></trkpt><trkpt lat="42.58963401760183" lon="13.44695750939717"><ele>1170.0</ele><time>2026-04-19T09:41:02Z</time></trkpt><trkpt lat="42.58955600596924" lon="13.447093270712106"><ele>1170.0</ele><time>2026-04-19T09:41:04Z</time></trkpt><trkpt lat="42.589528170544554" lon="13.44718347287136"><ele>1166.8333333333333</ele><time>2026-04-19T09:41:05Z</time></trkpt><trkpt lat="42.58948286471309" lon="13.447258557144687"><ele>1163.6666666666667</ele><time>2026-04-19T09:41:06Z</time></trkpt><trkpt lat="42.589450635911916" lon="13.447344240262952"><ele>1160.5</ele><time>2026-04-19T09:41:07Z</time></trkpt><trkpt lat="42.58941568041521" lon="13.44742712839471"><ele>1157.3333333333335</ele><time>2026-04-19T09:41:08Z</time></trkpt><trkpt lat="42.58937507297512" lon="13.44750331524157"><ele>1154.1666666666667</ele><time>2026-04-19T09:41:09Z</time></trkpt><trkpt lat="42.5893047376272" lon="13.447622068899577"><ele>1151.0</ele><time>2026-04-19T09:41:11Z</time></trkpt><trkpt lat="42.589202451720034" lon="13.447634121200922"><ele>1151.0</ele><time>2026-04-19T09:41:13Z</time></trkpt><trkpt lat="42.589100907381145" lon="13.447629560191631"><ele>1151.0</ele><time>2026-04-19T09:41:15Z</time></trkpt><trkpt lat="42.58902593242151" lon="13.447609842227953"><ele>1151.0</ele><time>2026-04-19T09:41:18Z</time></trkpt><trkpt lat="42.58895818725673" lon="13.447602472818833"><ele>1151.0</ele><time>2026-04-19T09:41:23.999Z</time></trkpt><trkpt lat="42.58886374226032" lon="13.447812595669626"><ele>1151.0</ele><time>2026-04-19T09:41:33Z</time></trkpt><trkpt lat="42.58879535820596" lon="13.447887397979716"><ele>1151.0</ele><time>2026-04-19T09:41:36Z</time></trkpt><trkpt lat="42.58872406258806" lon="13.44792398098967"><ele>1151.0</ele><time>2026-04-19T09:41:41Z</time></trkpt><trkpt lat="42.588801360850745" lon="13.44808547360023"><ele>1151.0</ele><time>2026-04-19T09:41:46Z</time></trkpt><trkpt lat="42.588885680067904" lon="13.448146524334684"><ele>1151.0</ele><time>2026-04-19T09:41:49Z</time></trkpt><trkpt lat="42.5889379470526" lon="13.448199307641678"><ele>1151.0</ele><time>2026-04-19T09:41:51Z</time></trkpt><trkpt lat="42.58899140205522" lon="13.448250396772595"><ele>1151.0</ele><time>2026-04-19T09:41:53Z</time></trkpt><trkpt lat="42.58905899605538" lon="13.448288533828915"><ele>1149.1666666666667</ele><time>2026-04-19T09:41:55Z</time></trkpt><trkpt lat="42.58912980970761" lon="13.448316424774063"><ele>1147.3333333333335</ele><time>2026-04-19T09:41:57Z</time></trkpt><trkpt lat="42.589213918683896" lon="13.448311526696259"><ele>1145.5</ele><time>2026-04-19T09:41:59Z</time></trkpt><trkpt lat="42.58928238988296" lon="13.448298761964312"><ele>1143.6666666666667</ele><time>2026-04-19T09:42:01Z</time></trkpt><trkpt lat="42.589363133932096" lon="13.448277965628089"><ele>1141.8333333333333</ele><time>2026-04-19T09:42:03Z</time></trkpt><trkpt lat="42.58945081919828" lon="13.448233738444975"><ele>1140.0</ele><time>2026-04-19T09:42:05Z</time></trkpt><trkpt lat="42.58954453460636" lon="13.448193085957802"><ele>1138.6</ele><time>2026-04-19T09:42:07Z</time></trkpt><trkpt lat="42.58963979853148" lon="13.448163673659845"><ele>1137.2</ele><time>2026-04-19T09:42:09Z</time></trkpt><trkpt lat="42.58973265002238" lon="13.448134089126254"><ele>1135.8</ele><time>2026-04-19T09:42:11Z</time></trkpt><trkpt lat="42.58981615915271" lon="13.448100150641563"><ele>1134.4</ele><time>2026-04-19T09:42:13Z</time></trkpt><trkpt lat="42.58991327429577" lon="13.44806402646467"><ele>1133.0</ele><time>2026-04-19T09:42:15Z</time></trkpt><trkpt lat="42.59000821547045" lon="13.448034050071438"><ele>1133.0</ele><time>2026-04-19T09:42:17Z</time></trkpt><trkpt lat="42.59007360827855" lon="13.448016346924812"><ele>1133.0</ele><time>2026-04-19T09:42:18Z</time></trkpt><trkpt lat="42.59014419973525" lon="13.447996655473355"><ele>1133.0</ele><time>2026-04-19T09:42:19Z</time></trkpt><trkpt lat="42.590209781520215" lon="13.447976424501594"><ele>1133.0</ele><time>2026-04-19T09:42:20Z</time></trkpt><trkpt lat="42.59027435106359" lon="13.447955452883082"><ele>1133.0</ele><time>2026-04-19T09:42:21Z</time></trkpt><trkpt lat="42.590342620493935" lon="13.447943338005198"><ele>1133.0</ele><time>2026-04-19T09:42:22Z</time></trkpt><trkpt lat="42.59042490390164" lon="13.447954701693996"><ele>1133.0</ele><time>2026-04-19T09:42:23Z</time></trkpt><trkpt lat="42.590509756760085" lon="13.447980185928865"><ele>1132.1666666666667</ele><time>2026-04-19T09:42:24Z</time></trkpt><trkpt lat="42.59058851569449" lon="13.448016759511749"><ele>1131.3333333333335</ele><time>2026-04-19T09:42:25Z</time></trkpt><trkpt lat="42.590661350599625" lon="13.448058906677185"><ele>1130.5</ele><time>2026-04-19T09:42:26Z</time></trkpt><trkpt lat="42.59072840797419" lon="13.448100102274076"><ele>1129.6666666666667</ele><time>2026-04-19T09:42:27Z</time></trkpt><trkpt lat="42.59079550632869" lon="13.448141579132002"><ele>1128.8333333333333</ele><time>2026-04-19T09:42:28Z</time></trkpt><trkpt lat="42.59086198026494" lon="13.448175624791242"><ele>1128.0</ele><time>2026-04-19T09:42:29Z</time></trkpt><trkpt lat="42.59093040140424" lon="13.448202381155728"><ele>1128.0</ele><time>2026-04-19T09:42:30Z</time></trkpt><trkpt lat="42.59101093460879" lon="13.448217419702406"><ele>1128.0</ele><time>2026-04-19T09:42:31Z</time></trkpt><trkpt lat="42.591089959166624" lon="13.448221597299707"><ele>1128.0</ele><time>2026-04-19T09:42:32Z</time></trkpt><trkpt lat="42.59116436206667" lon="13.448226116777537"><ele>1128.0</ele><time>2026-04-19T09:42:33Z</time></trkpt><trkpt lat="42.59123648481676" lon="13.448230036829113"><ele>1128.0</ele><time>2026-04-19T09:42:34Z</time></trkpt><trkpt lat="42.59131473111962" lon="13.448233091141857"><ele>1128.0</ele><time>2026-04-19T09:42:35Z</time></trkpt><trkpt lat="42.591391078939736" lon="13.448237850963523"><ele>1127.0</ele><time>2026-04-19T09:42:36Z</time></trkpt><trkpt lat="42.591464213568294" lon="13.448247868018111"><ele>1126.0</ele><time>2026-04-19T09:42:37Z</time></trkpt><trkpt lat="42.59153582322445" lon="13.448274936394917"><ele>1125.0</ele><time>2026-04-19T09:42:38Z</time></trkpt><trkpt lat="42.59160036685501" lon="13.448275617777146"><ele>1124.0</ele><time>2026-04-19T09:42:39Z</time></trkpt><trkpt lat="42.591659589420615" lon="13.448340231842261"><ele>1123.0</ele><time>2026-04-19T09:42:40Z</time></trkpt><trkpt lat="42.591762156358485" lon="13.448410052293989"><ele>1122.0</ele><time>2026-04-19T09:42:42Z</time></trkpt><trkpt lat="42.59183290033518" lon="13.4485303543576"><ele>1122.0</ele><time>2026-04-19T09:42:44Z</time></trkpt><trkpt lat="42.59187631653707" lon="13.448685726240253"><ele>1122.0</ele><time>2026-04-19T09:42:46Z</time></trkpt><trkpt lat="42.59191814410352" lon="13.4488310128298"><ele>1122.0</ele><time>2026-04-19T09:42:48Z</time></trkpt><trkpt lat="42.591986507003135" lon="13.44896768957225"><ele>1122.0</ele><time>2026-04-19T09:42:50Z</time></trkpt><trkpt lat="42.59208385145087" lon="13.449072452306439"><ele>1119.857142857143</ele><time>2026-04-19T09:42:52Z</time></trkpt><trkpt lat="42.59214179641684" lon="13.449106188819911"><ele>1117.7142857142856</ele><time>2026-04-19T09:42:53Z</time></trkpt><trkpt lat="42.59220397388916" lon="13.44913208712959"><ele>1115.5714285714284</ele><time>2026-04-19T09:42:54Z</time></trkpt><trkpt lat="42.59226855837564" lon="13.44915426137008"><ele>1113.4285714285713</ele><time>2026-04-19T09:42:55Z</time></trkpt><trkpt lat="42.592335168029116" lon="13.449168529115672"><ele>1111.2857142857142</ele><time>2026-04-19T09:42:56Z</time></trkpt><trkpt lat="42.59240285678939" lon="13.449172368879436"><ele>1109.142857142857</ele><time>2026-04-19T09:42:57Z</time></trkpt><trkpt lat="42.59247167061396" lon="13.44917069398085"><ele>1107.0</ele><time>2026-04-19T09:42:58Z</time></trkpt><trkpt lat="42.592539115843216" lon="13.449168167314724"><ele>1107.0</ele><time>2026-04-19T09:42:59Z</time></trkpt><trkpt lat="42.59260490421777" lon="13.449152746632082"><ele>1107.0</ele><time>2026-04-19T09:43:00Z</time></trkpt><trkpt lat="42.5926681342009" lon="13.449130259457206"><ele>1107.0</ele><time>2026-04-19T09:43:01Z</time></trkpt><trkpt lat="42.592733268828596" lon="13.44910470558667"><ele>1107.0</ele><time>2026-04-19T09:43:02Z</time></trkpt><trkpt lat="42.59279811057731" lon="13.449079562708967"><ele>1107.0</ele><time>2026-04-19T09:43:03Z</time></trkpt><trkpt lat="42.59286157733507" lon="13.44905420782936"><ele>1107.0</ele><time>2026-04-19T09:43:04Z</time></trkpt><trkpt lat="42.5929751298249" lon="13.449054688782597"><ele>1107.0</ele><time>2026-04-19T09:43:06Z</time></trkpt><trkpt lat="42.593041690261394" lon="13.449177175964907"><ele>1107.0</ele><time>2026-04-19T09:43:08Z</time></trkpt><trkpt lat="42.59299936248017" lon="13.449315076154775"><ele>1107.0</ele><time>2026-04-19T09:43:10Z</time></trkpt><trkpt lat="42.59288321248498" lon="13.449340935172211"><ele>1107.0</ele><time>2026-04-19T09:43:12Z</time></trkpt><trkpt lat="42.59276152796731" lon="13.449332294969187"><ele>1107.0</ele><time>2026-04-19T09:43:14Z</time></trkpt><trkpt lat="42.592696508695305" lon="13.449335177914524"><ele>1107.0</ele><time>2026-04-19T09:43:15Z</time></trkpt><trkpt lat="42.59262643920423" lon="13.44934034912113"><ele>1107.0</ele><time>2026-04-19T09:43:16Z</time></trkpt><trkpt lat="42.592558135992434" lon="13.449355743000304"><ele>1107.0</ele><time>2026-04-19T09:43:17Z</time></trkpt><trkpt lat="42.592491628699186" lon="13.449380601941805"><ele>1107.0</ele><time>2026-04-19T09:43:18Z</time></trkpt><trkpt lat="42.59242565693909" lon="13.449414911959392"><ele>1107.0</ele><time>2026-04-19T09:43:19Z</time></trkpt><trkpt lat="42.59236017606535" lon="13.449456012039533"><ele>1107.0</ele><time>2026-04-19T09:43:20Z</time></trkpt><trkpt lat="42.5922943780317" lon="13.449497886536042"><ele>1107.0</ele><time>2026-04-19T09:43:21Z</time></trkpt><trkpt lat="42.592226918947325" lon="13.449540240954414"><ele>1107.0</ele><time>2026-04-19T09:43:22Z</time></trkpt><trkpt lat="42.59215754198027" lon="13.449579729930312"><ele>1107.0</ele><time>2026-04-19T09:43:23Z</time></trkpt><trkpt lat="42.592086608649815" lon="13.449615668582496"><ele>1107.0</ele><time>2026-04-19T09:43:24Z</time></trkpt><trkpt lat="42.59201190199771" lon="13.449649698513854"><ele>1107.0</ele><time>2026-04-19T09:43:25Z</time></trkpt><trkpt lat="42.591930826231334" lon="13.449679369900142"><ele>1107.0</ele><time>2026-04-19T09:43:26Z</time></trkpt><trkpt lat="42.59184181433778" lon="13.449705160327873"><ele>1107.0</ele><time>2026-04-19T09:43:27Z</time></trkpt><trkpt lat="42.59175052328435" lon="13.44973283457994"><ele>1107.0</ele><time>2026-04-19T09:43:28Z</time></trkpt><trkpt lat="42.59165599216513" lon="13.449763836558274"><ele>1105.4</ele><time>2026-04-19T09:43:29Z</time></trkpt><trkpt lat="42.5915588613346" lon="13.449794983944084"><ele>1103.8000000000002</ele><time>2026-04-19T09:43:30Z</time></trkpt><trkpt lat="42.59145640255536" lon="13.449826455358826"><ele>1102.2</ele><time>2026-04-19T09:43:31Z</time></trkpt><trkpt lat="42.59134845293729" lon="13.449858539105682"><ele>1100.6000000000001</ele><time>2026-04-19T09:43:32Z</time></trkpt><trkpt lat="42.591240382182114" lon="13.449890632251947"><ele>1099.0</ele><time>2026-04-19T09:43:33Z</time></trkpt><trkpt lat="42.591139979930176" lon="13.449925420579445"><ele>1099.0</ele><time>2026-04-19T09:43:34Z</time></trkpt><trkpt lat="42.591037906516384" lon="13.449958648534118"><ele>1099.0</ele><time>2026-04-19T09:43:35Z</time></trkpt><trkpt lat="42.590930849281804" lon="13.449969520767278"><ele>1099.0</ele><time>2026-04-19T09:43:36Z</time></trkpt><trkpt lat="42.59083148359348" lon="13.45001974381756"><ele>1099.0</ele><time>2026-04-19T09:43:37Z</time></trkpt><trkpt lat="42.59072824568971" lon="13.450062643378564"><ele>1099.0</ele><time>2026-04-19T09:43:38Z</time></trkpt><trkpt lat="42.59062157569893" lon="13.450099177826582"><ele>1099.0</ele><time>2026-04-19T09:43:39Z</time></trkpt><trkpt lat="42.59051065464546" lon="13.450139843738278"><ele>1099.0</ele><time>2026-04-19T09:43:40Z</time></trkpt><trkpt lat="42.5904027616316" lon="13.450173586702634"><ele>1099.0</ele><time>2026-04-19T09:43:41Z</time></trkpt><trkpt lat="42.59030352573742" lon="13.4501994036409"><ele>1099.0</ele><time>2026-04-19T09:43:42Z</time></trkpt><trkpt lat="42.59020487302264" lon="13.450230096603752"><ele>1099.0</ele><time>2026-04-19T09:43:43Z</time></trkpt><trkpt lat="42.59010812369353" lon="13.450244377691865"><ele>1099.0</ele><time>2026-04-19T09:43:44Z</time></trkpt><trkpt lat="42.59001162963306" lon="13.450262559297908"><ele>1099.0</ele><time>2026-04-19T09:43:45Z</time></trkpt><trkpt lat="42.589912518533495" lon="13.450276463993635"><ele>1099.0</ele><time>2026-04-19T09:43:46Z</time></trkpt><trkpt lat="42.589811135939655" lon="13.450290734864343"><ele>1099.0</ele><time>2026-04-19T09:43:47Z</time></trkpt><trkpt lat="42.58970766591111" lon="13.45030519371129"><ele>1099.0</ele><time>2026-04-19T09:43:48Z</time></trkpt><trkpt lat="42.589605854412184" lon="13.450316731475397"><ele>1098.8</ele><time>2026-04-19T09:43:49Z</time></trkpt><trkpt lat="42.589501130940015" lon="13.450331277437003"><ele>1098.6000000000001</ele><time>2026-04-19T09:43:50Z</time></trkpt><trkpt lat="42.58939586244837" lon="13.450342186635867"><ele>1098.4</ele><time>2026-04-19T09:43:51Z</time></trkpt><trkpt lat="42.58929089256098" lon="13.450352715725478"><ele>1098.2</ele><time>2026-04-19T09:43:52Z</time></trkpt><trkpt lat="42.58918642259661" lon="13.450369646935226"><ele>1098.0</ele><time>2026-04-19T09:43:53Z</time></trkpt><trkpt lat="42.58908899053373" lon="13.450400962567373"><ele>1098.0</ele><time>2026-04-19T09:43:54Z</time></trkpt><trkpt lat="42.58899847721038" lon="13.450452257311726"><ele>1098.0</ele><time>2026-04-19T09:43:55Z</time></trkpt><trkpt lat="42.588914056354874" lon="13.45051493160357"><ele>1098.0</ele><time>2026-04-19T09:43:56Z</time></trkpt><trkpt lat="42.58883045572997" lon="13.45058006048257"><ele>1098.0</ele><time>2026-04-19T09:43:57Z</time></trkpt><trkpt lat="42.58874571874216" lon="13.45064676961389"><ele>1098.0</ele><time>2026-04-19T09:43:58Z</time></trkpt><trkpt lat="42.588660364451485" lon="13.450711758136052"><ele>1094.2</ele><time>2026-04-19T09:43:59Z</time></trkpt><trkpt lat="42.588574275979546" lon="13.450774547694872"><ele>1090.4</ele><time>2026-04-19T09:44:00Z</time></trkpt><trkpt lat="42.588485730335705" lon="13.450832417695096"><ele>1086.6000000000001</ele><time>2026-04-19T09:44:01Z</time></trkpt><trkpt lat="42.58839153893832" lon="13.450867643572357"><ele>1082.8</ele><time>2026-04-19T09:44:02Z</time></trkpt><trkpt lat="42.58829347752199" lon="13.450886075272036"><ele>1079.0</ele><time>2026-04-19T09:44:03Z</time></trkpt><trkpt lat="42.588193802968924" lon="13.450896391267412"><ele>1079.0</ele><time>2026-04-19T09:44:04Z</time></trkpt><trkpt lat="42.58809493554894" lon="13.450907225469546"><ele>1079.0</ele><time>2026-04-19T09:44:05Z</time></trkpt><trkpt lat="42.587995786414076" lon="13.45091856115734"><ele>1079.0</ele><time>2026-04-19T09:44:06Z</time></trkpt><trkpt lat="42.587897210975704" lon="13.450930453165128"><ele>1079.0</ele><time>2026-04-19T09:44:07Z</time></trkpt><trkpt lat="42.58779922124145" lon="13.450940371177035"><ele>1079.0</ele><time>2026-04-19T09:44:08Z</time></trkpt><trkpt lat="42.58770161988203" lon="13.450943952841186"><ele>1079.0</ele><time>2026-04-19T09:44:09Z</time></trkpt><trkpt lat="42.587605645453785" lon="13.450940771676951"><ele>1079.0</ele><time>2026-04-19T09:44:10Z</time></trkpt><trkpt lat="42.587507609000454" lon="13.450933145898134"><ele>1079.0</ele><time>2026-04-19T09:44:11Z</time></trkpt><trkpt lat="42.58740810151392" lon="13.450924172485399"><ele>1079.0</ele><time>2026-04-19T09:44:12Z</time></trkpt><trkpt lat="42.58730916856268" lon="13.450917289454786"><ele>1079.0</ele><time>2026-04-19T09:44:13Z</time></trkpt><trkpt lat="42.587207524400746" lon="13.450917287938056"><ele>1079.0</ele><time>2026-04-19T09:44:14Z</time></trkpt><trkpt lat="42.587111622820885" lon="13.450918494492205"><ele>1079.0</ele><time>2026-04-19T09:44:15Z</time></trkpt><trkpt lat="42.58701511945828" lon="13.450912831094655"><ele>1079.0</ele><time>2026-04-19T09:44:16Z</time></trkpt><trkpt lat="42.58692902655637" lon="13.450936434935889"><ele>1079.0</ele><time>2026-04-19T09:44:17Z</time></trkpt><trkpt lat="42.58684776358951" lon="13.450994891078198"><ele>1079.0</ele><time>2026-04-19T09:44:18Z</time></trkpt><trkpt lat="42.586762391318146" lon="13.45103251268145"><ele>1076.8333333333335</ele><time>2026-04-19T09:44:19Z</time></trkpt><trkpt lat="42.58667609025923" lon="13.451086999038395"><ele>1074.6666666666667</ele><time>2026-04-19T09:44:20Z</time></trkpt><trkpt lat="42.58659200882728" lon="13.451139790808165"><ele>1072.5</ele><time>2026-04-19T09:44:21Z</time></trkpt><trkpt lat="42.58650940781455" lon="13.451180583171366"><ele>1070.3333333333333</ele><time>2026-04-19T09:44:22Z</time></trkpt><trkpt lat="42.586425444784226" lon="13.451202472240656"><ele>1068.1666666666665</ele><time>2026-04-19T09:44:23Z</time></trkpt><trkpt lat="42.58634822707292" lon="13.45116338383891"><ele>1066.0</ele><time>2026-04-19T09:44:24Z</time></trkpt><trkpt lat="42.586283496967575" lon="13.451106638650748"><ele>1066.0</ele><time>2026-04-19T09:44:25Z</time></trkpt><trkpt lat="42.58621539204035" lon="13.451098375149927"><ele>1066.0</ele><time>2026-04-19T09:44:26Z</time></trkpt><trkpt lat="42.58609651024565" lon="13.451093850398754"><ele>1066.0</ele><time>2026-04-19T09:44:28Z</time></trkpt><trkpt lat="42.58603911151341" lon="13.451165140408829"><ele>1066.0</ele><time>2026-04-19T09:44:29Z</time></trkpt><trkpt lat="42.58600069568679" lon="13.451274734040096"><ele>1066.0</ele><time>2026-04-19T09:44:30Z</time></trkpt><trkpt lat="42.5859966792838" lon="13.45140089916848"><ele>1066.0</ele><time>2026-04-19T09:44:31Z</time></trkpt><trkpt lat="42.58602689214019" lon="13.451523961791994"><ele>1063.2</ele><time>2026-04-19T09:44:32Z</time></trkpt><trkpt lat="42.5860929059934" lon="13.45162404689677"><ele>1060.3999999999999</ele><time>2026-04-19T09:44:33Z</time></trkpt><trkpt lat="42.58616595076495" lon="13.45170700902574"><ele>1057.6</ele><time>2026-04-19T09:44:34Z</time></trkpt><trkpt lat="42.586239955036035" lon="13.451768952844462"><ele>1054.8</ele><time>2026-04-19T09:44:35Z</time></trkpt><trkpt lat="42.58631958231977" lon="13.451810988751857"><ele>1052.0</ele><time>2026-04-19T09:44:36Z</time></trkpt><trkpt lat="42.586408673837646" lon="13.451819147136328"><ele>1052.0</ele><time>2026-04-19T09:44:37Z</time></trkpt><trkpt lat="42.58649587959781" lon="13.451820330768074"><ele>1052.0</ele><time>2026-04-19T09:44:38Z</time></trkpt><trkpt lat="42.586583716615706" lon="13.45180771588002"><ele>1052.0</ele><time>2026-04-19T09:44:39Z</time></trkpt><trkpt lat="42.58667451990997" lon="13.451798923026136"><ele>1052.0</ele><time>2026-04-19T09:44:40Z</time></trkpt><trkpt lat="42.58675885322191" lon="13.451794835040454"><ele>1052.0</ele><time>2026-04-19T09:44:41Z</time></trkpt><trkpt lat="42.586846858778706" lon="13.451816493566596"><ele>1052.0</ele><time>2026-04-19T09:44:42Z</time></trkpt><trkpt lat="42.58693573617877" lon="13.451849390484417"><ele>1052.4</ele><time>2026-04-19T09:44:43Z</time></trkpt><trkpt lat="42.58702391870616" lon="13.45188781876588"><ele>1052.8000000000002</ele><time>2026-04-19T09:44:44Z</time></trkpt><trkpt lat="42.58711138331964" lon="13.45193107162675"><ele>1053.2</ele><time>2026-04-19T09:44:45Z</time></trkpt><trkpt lat="42.58719661291201" lon="13.451973182740494"><ele>1053.6000000000001</ele><time>2026-04-19T09:44:46Z</time></trkpt><trkpt lat="42.58727840409548" lon="13.45201334062101"><ele>1054.0</ele><time>2026-04-19T09:44:47Z</time></trkpt><trkpt lat="42.58736080255043" lon="13.452049626622792"><ele>1054.0</ele><time>2026-04-19T09:44:48Z</time></trkpt><trkpt lat="42.58744342174669" lon="13.452083119437544"><ele>1054.0</ele><time>2026-04-19T09:44:49Z</time></trkpt><trkpt lat="42.58752738875099" lon="13.452102077621896"><ele>1054.0</ele><time>2026-04-19T09:44:50Z</time></trkpt><trkpt lat="42.58761456610527" lon="13.4521187203356"><ele>1054.0</ele><time>2026-04-19T09:44:51Z</time></trkpt><trkpt lat="42.587701664237485" lon="13.452127180161968"><ele>1054.0</ele><time>2026-04-19T09:44:52Z</time></trkpt><trkpt lat="42.58778069435441" lon="13.452140426546936"><ele>1054.0</ele><time>2026-04-19T09:44:53Z</time></trkpt><trkpt lat="42.58786315956301" lon="13.452151815608062"><ele>1050.5</ele><time>2026-04-19T09:44:54Z</time></trkpt><trkpt lat="42.587946430894604" lon="13.452164543153678"><ele>1047.0</ele><time>2026-04-19T09:44:55Z</time></trkpt><trkpt lat="42.588029041732945" lon="13.452178408547278"><ele>1043.5</ele><time>2026-04-19T09:44:56Z</time></trkpt><trkpt lat="42.58810862423215" lon="13.452189418446206"><ele>1040.0</ele><time>2026-04-19T09:44:57Z</time></trkpt><trkpt lat="42.58818392518624" lon="13.452200159421173"><ele>1036.5</ele><time>2026-04-19T09:44:58Z</time></trkpt><trkpt lat="42.58828659179041" lon="13.452239535308044"><ele>1033.0</ele><time>2026-04-19T09:45:00Z</time></trkpt><trkpt lat="42.58831951952008" lon="13.452371090182687"><ele>1033.0</ele><time>2026-04-19T09:45:02Z</time></trkpt><trkpt lat="42.58821711741745" lon="13.452469923949298"><ele>1033.0</ele><time>2026-04-19T09:45:04Z</time></trkpt><trkpt lat="42.58813411433954" lon="13.452439063905196"><ele>1033.0</ele><time>2026-04-19T09:45:05Z</time></trkpt><trkpt lat="42.588050942834336" lon="13.452415953319822"><ele>1033.0</ele><time>2026-04-19T09:45:06Z</time></trkpt><trkpt lat="42.58796573771015" lon="13.45240843638818"><ele>1033.0</ele><time>2026-04-19T09:45:07Z</time></trkpt><trkpt lat="42.587881518434315" lon="13.452416319308474"><ele>1032.3333333333333</ele><time>2026-04-19T09:45:08Z</time></trkpt><trkpt lat="42.58779545305412" lon="13.452437033396377"><ele>1031.6666666666665</ele><time>2026-04-19T09:45:09Z</time></trkpt><trkpt lat="42.58770854394607" lon="13.452463925462926"><ele>1031.0</ele><time>2026-04-19T09:45:10Z</time></trkpt><trkpt lat="42.5876245903061" lon="13.452491387474868"><ele>1030.3333333333333</ele><time>2026-04-19T09:45:11Z</time></trkpt><trkpt lat="42.58753734445992" lon="13.452516461078948"><ele>1029.6666666666667</ele><time>2026-04-19T09:45:12Z</time></trkpt><trkpt lat="42.58745128666889" lon="13.452545747958876"><ele>1029.0</ele><time>2026-04-19T09:45:13Z</time></trkpt><trkpt lat="42.587352267052054" lon="13.452585200252148"><ele>1029.0</ele><time>2026-04-19T09:45:14Z</time></trkpt><trkpt lat="42.587251777963665" lon="13.45262314254339"><ele>1029.0</ele><time>2026-04-19T09:45:15Z</time></trkpt><trkpt lat="42.587152757445466" lon="13.452659625306083"><ele>1029.0</ele><time>2026-04-19T09:45:16Z</time></trkpt><trkpt lat="42.58705481573406" lon="13.452709716422305"><ele>1029.0</ele><time>2026-04-19T09:45:17Z</time></trkpt><trkpt lat="42.586955519167915" lon="13.452773336089312"><ele>1029.0</ele><time>2026-04-19T09:45:18Z</time></trkpt><trkpt lat="42.586861734748155" lon="13.452858018651742"><ele>1029.8</ele><time>2026-04-19T09:45:19Z</time></trkpt><trkpt lat="42.58678618080813" lon="13.452951636405388"><ele>1030.6000000000001</ele><time>2026-04-19T09:45:20Z</time></trkpt><trkpt lat="42.58672010583131" lon="13.453042936474688"><ele>1031.4</ele><time>2026-04-19T09:45:21Z</time></trkpt><trkpt lat="42.58665768875452" lon="13.453131943572046"><ele>1032.2</ele><time>2026-04-19T09:45:22Z</time></trkpt><trkpt lat="42.58659177649923" lon="13.453209520910464"><ele>1033.0</ele><time>2026-04-19T09:45:23Z</time></trkpt><trkpt lat="42.58651169348444" lon="13.453254808775085"><ele>1028.8333333333333</ele><time>2026-04-19T09:45:24Z</time></trkpt><trkpt lat="42.58643498575922" lon="13.453297949762375"><ele>1024.6666666666665</ele><time>2026-04-19T09:45:25Z</time></trkpt><trkpt lat="42.5863689468231" lon="13.45335216132975"><ele>1020.5</ele><time>2026-04-19T09:45:26Z</time></trkpt><trkpt lat="42.586292264121035" lon="13.453372629453925"><ele>1016.3333333333333</ele><time>2026-04-19T09:45:27Z</time></trkpt><trkpt lat="42.5862127262574" lon="13.453381220575801"><ele>1012.1666666666666</ele><time>2026-04-19T09:45:28Z</time></trkpt><trkpt lat="42.5861487503592" lon="13.453424280292904"><ele>1008.0</ele><time>2026-04-19T09:45:29Z</time></trkpt><trkpt lat="42.58612265873602" lon="13.45353072155505"><ele>1005.3333333333334</ele><time>2026-04-19T09:45:30Z</time></trkpt><trkpt lat="42.58612738938757" lon="13.453633557890086"><ele>1002.6666666666667</ele><time>2026-04-19T09:45:31Z</time></trkpt><trkpt lat="42.586166205540394" lon="13.453732561273265"><ele>1000.0</ele><time>2026-04-19T09:45:32Z</time></trkpt><trkpt lat="42.5862398146731" lon="13.453798222725633"><ele>997.3333333333334</ele><time>2026-04-19T09:45:33Z</time></trkpt><trkpt lat="42.58632427827589" lon="13.453827481946707"><ele>994.6666666666667</ele><time>2026-04-19T09:45:34Z</time></trkpt><trkpt lat="42.58642161061509" lon="13.453824891775376"><ele>992.0</ele><time>2026-04-19T09:45:35Z</time></trkpt><trkpt lat="42.58652699379272" lon="13.453791074248114"><ele>995.2</ele><time>2026-04-19T09:45:36Z</time></trkpt><trkpt lat="42.58662807110118" lon="13.45373793059769"><ele>998.4000000000001</ele><time>2026-04-19T09:45:37Z</time></trkpt><trkpt lat="42.5867298062883" lon="13.453680350722289"><ele>1001.5999999999999</ele><time>2026-04-19T09:45:38Z</time></trkpt><trkpt lat="42.58682795547696" lon="13.45363887126998"><ele>1004.8</ele><time>2026-04-19T09:45:39Z</time></trkpt><trkpt lat="42.58691375051996" lon="13.453583081415278"><ele>1008.0</ele><time>2026-04-19T09:45:40Z</time></trkpt><trkpt lat="42.58699122421614" lon="13.453529420342887"><ele>1006.6666666666666</ele><time>2026-04-19T09:45:41Z</time></trkpt><trkpt lat="42.58706145729394" lon="13.45346755286027"><ele>1005.3333333333333</ele><time>2026-04-19T09:45:42Z</time></trkpt><trkpt lat="42.58712105252251" lon="13.453415741464369"><ele>1004.0</ele><time>2026-04-19T09:45:43Z</time></trkpt><trkpt lat="42.58718451762953" lon="13.453396241794891"><ele>1002.6666666666666</ele><time>2026-04-19T09:45:44Z</time></trkpt><trkpt lat="42.58725980128237" lon="13.453424872117179"><ele>1001.3333333333333</ele><time>2026-04-19T09:45:45Z</time></trkpt><trkpt lat="42.587323305989926" lon="13.453534588683876"><ele>1000.0</ele><time>2026-04-19T09:45:46Z</time></trkpt><trkpt lat="42.587399348872225" lon="13.453605209801514"><ele>999.9999999999999</ele><time>2026-04-19T09:45:47Z</time></trkpt><trkpt lat="42.58747665973981" lon="13.453661218536748"><ele>1000.0</ele><time>2026-04-19T09:45:48Z</time></trkpt><trkpt lat="42.58756396815206" lon="13.453673504742008"><ele>1000.0</ele><time>2026-04-19T09:45:49Z</time></trkpt><trkpt lat="42.58764719379806" lon="13.45368816971313"><ele>1000.0</ele><time>2026-04-19T09:45:50Z</time></trkpt><trkpt lat="42.58772836901316" lon="13.453717346874148"><ele>999.9999999999999</ele><time>2026-04-19T09:45:51Z</time></trkpt><trkpt lat="42.587814187508364" lon="13.453707552954816"><ele>1000.0</ele><time>2026-04-19T09:45:52Z</time></trkpt><trkpt lat="42.58790306009547" lon="13.453739634978653"><ele>1001.3333333333333</ele><time>2026-04-19T09:45:53Z</time></trkpt><trkpt lat="42.58800566588" lon="13.45373963498294"><ele>1002.6666666666666</ele><time>2026-04-19T09:45:54Z</time></trkpt><trkpt lat="42.5880737823815" lon="13.45373404312373"><ele>1004.0</ele><time>2026-04-19T09:45:55Z</time></trkpt><trkpt lat="42.58813800741771" lon="13.453827730923205"><ele>1005.3333333333333</ele><time>2026-04-19T09:45:56Z</time></trkpt><trkpt lat="42.58820012114705" lon="13.453894836642347"><ele>1006.6666666666666</ele><time>2026-04-19T09:45:57Z</time></trkpt><trkpt lat="42.58826040431849" lon="13.453972759166293"><ele>1008.0</ele><time>2026-04-19T09:45:58Z</time></trkpt><trkpt lat="42.58832630522549" lon="13.454070360781099"><ele>1003.0</ele><time>2026-04-19T09:45:59Z</time></trkpt><trkpt lat="42.58839534437054" lon="13.454166442473385"><ele>998.0</ele><time>2026-04-19T09:46:00Z</time></trkpt><trkpt lat="42.58845117059376" lon="13.454257926929314"><ele>993.0</ele><time>2026-04-19T09:46:01Z</time></trkpt><trkpt lat="42.58850482754219" lon="13.454347212218773"><ele>988.0</ele><time>2026-04-19T09:46:02Z</time></trkpt><trkpt lat="42.58855780264617" lon="13.454448359795036"><ele>983.0</ele><time>2026-04-19T09:46:03Z</time></trkpt><trkpt lat="42.58861283793701" lon="13.454550780582071"><ele>982.8333333333334</ele><time>2026-04-19T09:46:04Z</time></trkpt><trkpt lat="42.58866428287101" lon="13.454643403610543"><ele>982.6666666666667</ele><time>2026-04-19T09:46:05Z</time></trkpt><trkpt lat="42.58869851514081" lon="13.4547379207762"><ele>982.5</ele><time>2026-04-19T09:46:06Z</time></trkpt><trkpt lat="42.58870622004161" lon="13.454849509072602"><ele>982.3333333333333</ele><time>2026-04-19T09:46:07Z</time></trkpt><trkpt lat="42.5886817686567" lon="13.454959242108464"><ele>982.1666666666666</ele><time>2026-04-19T09:46:08Z</time></trkpt><trkpt lat="42.5886364786743" lon="13.455042053706084"><ele>982.0</ele><time>2026-04-19T09:46:09Z</time></trkpt><trkpt lat="42.58857316795423" lon="13.455081192692061"><ele>981.9999999999999</ele><time>2026-04-19T09:46:10Z</time></trkpt><trkpt lat="42.588489832601965" lon="13.455096555504749"><ele>982.0</ele><time>2026-04-19T09:46:11Z</time></trkpt><trkpt lat="42.58841156277045" lon="13.455088503203275"><ele>982.0</ele><time>2026-04-19T09:46:12Z</time></trkpt><trkpt lat="42.58833764138772" lon="13.455078320257076"><ele>982.0</ele><time>2026-04-19T09:46:13Z</time></trkpt><trkpt lat="42.5882726863289" lon="13.455058443896897"><ele>981.9999999999999</ele><time>2026-04-19T09:46:14Z</time></trkpt><trkpt lat="42.58820519472452" lon="13.455036985399852"><ele>982.0</ele><time>2026-04-19T09:46:15Z</time></trkpt><trkpt lat="42.58813017189066" lon="13.455002398485831"><ele>981.9999999999999</ele><time>2026-04-19T09:46:16Z</time></trkpt><trkpt lat="42.5880536332243" lon="13.4549595875464"><ele>982.0</ele><time>2026-04-19T09:46:17Z</time></trkpt><trkpt lat="42.58797648118564" lon="13.454923082942745"><ele>982.0</ele><time>2026-04-19T09:46:18Z</time></trkpt><trkpt lat="42.587894615218026" lon="13.454878285320993"><ele>982.0</ele><time>2026-04-19T09:46:19Z</time></trkpt><trkpt lat="42.587818287450425" lon="13.454846577827498"><ele>981.9999999999999</ele><time>2026-04-19T09:46:20Z</time></trkpt><trkpt lat="42.58773981384808" lon="13.454836285772355"><ele>982.0</ele><time>2026-04-19T09:46:21Z</time></trkpt><trkpt lat="42.58764244248652" lon="13.454855334807862"><ele>982.0</ele><time>2026-04-19T09:46:22Z</time></trkpt><trkpt lat="42.58754393958046" lon="13.454893421068185"><ele>982.0</ele><time>2026-04-19T09:46:23Z</time></trkpt><trkpt lat="42.58744458439011" lon="13.45495121276326"><ele>982.0</ele><time>2026-04-19T09:46:24Z</time></trkpt><trkpt lat="42.5873255356414" lon="13.455031750145729"><ele>982.0</ele><time>2026-04-19T09:46:25Z</time></trkpt><trkpt lat="42.587140562584366" lon="13.455175101227528"><ele>977.5</ele><time>2026-04-19T09:46:26Z</time></trkpt><trkpt lat="42.58693636149119" lon="13.455337139821388"><ele>973.0</ele><time>2026-04-19T09:46:27Z</time></trkpt><trkpt lat="42.58674650955124" lon="13.45549015408444"><ele>979.6666666666666</ele><time>2026-04-19T09:46:28Z</time></trkpt><trkpt lat="42.586578783662226" lon="13.455604943720402"><ele>986.3333333333333</ele><time>2026-04-19T09:46:29Z</time></trkpt><trkpt lat="42.5864347312176" lon="13.45570391164995"><ele>993.0</ele><time>2026-04-19T09:46:30Z</time></trkpt><trkpt lat="42.58631027747198" lon="13.45577715148284"><ele>993.0</ele><time>2026-04-19T09:46:31Z</time></trkpt><trkpt lat="42.58619566393003" lon="13.455810037632336"><ele>993.0</ele><time>2026-04-19T09:46:32Z</time></trkpt><trkpt lat="42.58609960703512" lon="13.455875755666545"><ele>993.0</ele><time>2026-04-19T09:46:33Z</time></trkpt><trkpt lat="42.58603178476757" lon="13.455984301447211"><ele>993.0</ele><time>2026-04-19T09:46:34Z</time></trkpt><trkpt lat="42.585969401825324" lon="13.456088539747537"><ele>993.0</ele><time>2026-04-19T09:46:35Z</time></trkpt><trkpt lat="42.585920852655136" lon="13.456219848799002"><ele>989.25</ele><time>2026-04-19T09:46:36Z</time></trkpt><trkpt lat="42.58588344161237" lon="13.456372784876123"><ele>985.5</ele><time>2026-04-19T09:46:37Z</time></trkpt><trkpt lat="42.58585002885031" lon="13.456535578445523"><ele>981.75</ele><time>2026-04-19T09:46:38Z</time></trkpt><trkpt lat="42.58581923002434" lon="13.456708271860322"><ele>978.0</ele><time>2026-04-19T09:46:39Z</time></trkpt><trkpt lat="42.58579211402368" lon="13.456887885095751"><ele>978.0</ele><time>2026-04-19T09:46:40Z</time></trkpt><trkpt lat="42.58577322743946" lon="13.457066309057195"><ele>978.0</ele><time>2026-04-19T09:46:41Z</time></trkpt><trkpt lat="42.58575381509529" lon="13.457238039543416"><ele>978.0</ele><time>2026-04-19T09:46:42Z</time></trkpt><trkpt lat="42.585735189155855" lon="13.45740529828568"><ele>978.0</ele><time>2026-04-19T09:46:43Z</time></trkpt><trkpt lat="42.58572100038592" lon="13.457566589458157"><ele>977.5</ele><time>2026-04-19T09:46:44Z</time></trkpt><trkpt lat="42.58572243698178" lon="13.457713644416476"><ele>977.0</ele><time>2026-04-19T09:46:45Z</time></trkpt><trkpt lat="42.585756016814685" lon="13.457856466499814"><ele>976.5</ele><time>2026-04-19T09:46:46Z</time></trkpt><trkpt lat="42.58582627378967" lon="13.457989727365693"><ele>976.0</ele><time>2026-04-19T09:46:47Z</time></trkpt><trkpt lat="42.58592643117601" lon="13.458117006402794"><ele>972.0</ele><time>2026-04-19T09:46:48Z</time></trkpt><trkpt lat="42.58602873528743" lon="13.45823195881681"><ele>968.0</ele><time>2026-04-19T09:46:49Z</time></trkpt><trkpt lat="42.586113439502896" lon="13.45835807159165"><ele>964.0</ele><time>2026-04-19T09:46:50Z</time></trkpt><trkpt lat="42.5861960695825" lon="13.458483326698568"><ele>960.0</ele><time>2026-04-19T09:46:51Z</time></trkpt><trkpt lat="42.58627203151102" lon="13.458610821924047"><ele>961.8</ele><time>2026-04-19T09:46:52Z</time></trkpt><trkpt lat="42.58634648858115" lon="13.458733134974457"><ele>963.6</ele><time>2026-04-19T09:46:53Z</time></trkpt><trkpt lat="42.58642324659416" lon="13.458849592129221"><ele>965.4000000000001</ele><time>2026-04-19T09:46:54Z</time></trkpt><trkpt lat="42.586496118759335" lon="13.45896658613277"><ele>967.2</ele><time>2026-04-19T09:46:55Z</time></trkpt><trkpt lat="42.586548719629086" lon="13.45908020317306"><ele>969.0</ele><time>2026-04-19T09:46:56Z</time></trkpt><trkpt lat="42.58657395527464" lon="13.459197843684711"><ele>969.0</ele><time>2026-04-19T09:46:57Z</time></trkpt><trkpt lat="42.58657736603276" lon="13.459321139174056"><ele>969.0000000000001</ele><time>2026-04-19T09:46:58Z</time></trkpt><trkpt lat="42.586528469508636" lon="13.45943584731602"><ele>969.0000000000001</ele><time>2026-04-19T09:46:59Z</time></trkpt><trkpt lat="42.58650215147373" lon="13.459573707708632"><ele>969.0</ele><time>2026-04-19T09:47:00Z</time></trkpt><trkpt lat="42.58646433665269" lon="13.459672199772376"><ele>969.0</ele><time>2026-04-19T09:47:01Z</time></trkpt><trkpt lat="42.58635593749363" lon="13.459739363385141"><ele>970.0</ele><time>2026-04-19T09:47:03Z</time></trkpt><trkpt lat="42.58626693971604" lon="13.459682727782157"><ele>971.0</ele><time>2026-04-19T09:47:04Z</time></trkpt><trkpt lat="42.5861835364635" lon="13.459651524185492"><ele>972.0</ele><time>2026-04-19T09:47:05Z</time></trkpt><trkpt lat="42.58610057745698" lon="13.45963176372028"><ele>973.0</ele><time>2026-04-19T09:47:06Z</time></trkpt><trkpt lat="42.5860257565584" lon="13.459589584644542"><ele>974.0</ele><time>2026-04-19T09:47:07Z</time></trkpt><trkpt lat="42.585940247084956" lon="13.459551290933778"><ele>975.0</ele><time>2026-04-19T09:47:08Z</time></trkpt><trkpt lat="42.58584855687288" lon="13.459508587979142"><ele>970.4</ele><time>2026-04-19T09:47:09Z</time></trkpt><trkpt lat="42.58575788290599" lon="13.459469012146087"><ele>965.8</ele><time>2026-04-19T09:47:10Z</time></trkpt><trkpt lat="42.585676869285805" lon="13.459435498139769"><ele>961.2</ele><time>2026-04-19T09:47:11Z</time></trkpt><trkpt lat="42.58557712272718" lon="13.459425755057374"><ele>956.6</ele><time>2026-04-19T09:47:12Z</time></trkpt><trkpt lat="42.585463923438404" lon="13.459438712744138"><ele>952.0</ele><time>2026-04-19T09:47:13Z</time></trkpt><trkpt lat="42.585361907865384" lon="13.459472738032964"><ele>949.4000000000001</ele><time>2026-04-19T09:47:14Z</time></trkpt><trkpt lat="42.58526611335083" lon="13.459522332903143"><ele>946.8000000000001</ele><time>2026-04-19T09:47:15Z</time></trkpt><trkpt lat="42.585169167131404" lon="13.459581093957196"><ele>944.2</ele><time>2026-04-19T09:47:16Z</time></trkpt><trkpt lat="42.58507719307198" lon="13.459651200911503"><ele>941.6</ele><time>2026-04-19T09:47:17Z</time></trkpt><trkpt lat="42.584991606123346" lon="13.459741854992291"><ele>939.0</ele><time>2026-04-19T09:47:18Z</time></trkpt><trkpt lat="42.58491092424095" lon="13.45983948103773"><ele>937.8000000000001</ele><time>2026-04-19T09:47:19Z</time></trkpt><trkpt lat="42.5848333520187" lon="13.459947654875998"><ele>936.6000000000001</ele><time>2026-04-19T09:47:20Z</time></trkpt><trkpt lat="42.58475189994308" lon="13.460048199329252"><ele>935.4</ele><time>2026-04-19T09:47:21Z</time></trkpt><trkpt lat="42.58466712791257" lon="13.460151396107563"><ele>934.2</ele><time>2026-04-19T09:47:22Z</time></trkpt><trkpt lat="42.58458556052158" lon="13.460258872007188"><ele>933.0</ele><time>2026-04-19T09:47:23Z</time></trkpt><trkpt lat="42.584508821967795" lon="13.46037491049876"><ele>935.2</ele><time>2026-04-19T09:47:24Z</time></trkpt><trkpt lat="42.58443246437984" lon="13.460491280437648"><ele>937.4</ele><time>2026-04-19T09:47:25Z</time></trkpt><trkpt lat="42.58435677047341" lon="13.460607344408851"><ele>939.6000000000001</ele><time>2026-04-19T09:47:26Z</time></trkpt><trkpt lat="42.58429163136691" lon="13.460719588915321"><ele>941.8000000000001</ele><time>2026-04-19T09:47:27Z</time></trkpt><trkpt lat="42.58423851336785" lon="13.460837541623436"><ele>944.0</ele><time>2026-04-19T09:47:28Z</time></trkpt><trkpt lat="42.58418977985753" lon="13.460960162236862"><ele>944.0</ele><time>2026-04-19T09:47:29Z</time></trkpt><trkpt lat="42.584154049754844" lon="13.461087591999068"><ele>944.0000000000001</ele><time>2026-04-19T09:47:30Z</time></trkpt><trkpt lat="42.58414339455047" lon="13.461222136348075"><ele>944.0000000000001</ele><time>2026-04-19T09:47:31Z</time></trkpt><trkpt lat="42.58414883288258" lon="13.461374014813194"><ele>944.0</ele><time>2026-04-19T09:47:32Z</time></trkpt><trkpt lat="42.58417673507082" lon="13.461528527424182"><ele>944.0</ele><time>2026-04-19T09:47:33Z</time></trkpt><trkpt lat="42.584213367273016" lon="13.461665403970681"><ele>943.6</ele><time>2026-04-19T09:47:34Z</time></trkpt><trkpt lat="42.584256739381" lon="13.46179567899723"><ele>943.2</ele><time>2026-04-19T09:47:35Z</time></trkpt><trkpt lat="42.58429517396746" lon="13.461925597733002"><ele>942.8000000000001</ele><time>2026-04-19T09:47:36Z</time></trkpt><trkpt lat="42.584340556105474" lon="13.46205171878643"><ele>942.4000000000001</ele><time>2026-04-19T09:47:37Z</time></trkpt><trkpt lat="42.58441285365963" lon="13.462158616569923"><ele>942.0</ele><time>2026-04-19T09:47:38Z</time></trkpt><trkpt lat="42.58449438877695" lon="13.462255098666995"><ele>947.2</ele><time>2026-04-19T09:47:39Z</time></trkpt><trkpt lat="42.58458123014172" lon="13.46233758167712"><ele>952.4000000000001</ele><time>2026-04-19T09:47:40Z</time></trkpt><trkpt lat="42.58466251976958" lon="13.462419231701395"><ele>957.5999999999999</ele><time>2026-04-19T09:47:41Z</time></trkpt><trkpt lat="42.58473027494775" lon="13.462512737430403"><ele>962.8</ele><time>2026-04-19T09:47:42Z</time></trkpt><trkpt lat="42.58476984224733" lon="13.462632193961877"><ele>968.0</ele><time>2026-04-19T09:47:43Z</time></trkpt><trkpt lat="42.58478669568991" lon="13.46277761422913"><ele>968.0</ele><time>2026-04-19T09:47:44Z</time></trkpt><trkpt lat="42.584779485494785" lon="13.462933871485728"><ele>968.0</ele><time>2026-04-19T09:47:44.999Z</time></trkpt><trkpt lat="42.58477541170532" lon="13.46308701039838"><ele>968.0</ele><time>2026-04-19T09:47:45.999Z</time></trkpt><trkpt lat="42.58477356663941" lon="13.463236688260835"><ele>968.0</ele><time>2026-04-19T09:47:46.999Z</time></trkpt><trkpt lat="42.58477173535588" lon="13.463383352297356"><ele>968.0</ele><time>2026-04-19T09:47:48Z</time></trkpt><trkpt lat="42.58476357427455" lon="13.463524165335889"><ele>964.8</ele><time>2026-04-19T09:47:49Z</time></trkpt><trkpt lat="42.58473651887692" lon="13.463657793078545"><ele>961.5999999999999</ele><time>2026-04-19T09:47:50Z</time></trkpt><trkpt lat="42.58470964673626" lon="13.463791360272342"><ele>958.4000000000001</ele><time>2026-04-19T09:47:51Z</time></trkpt><trkpt lat="42.58469758543797" lon="13.463924182088832"><ele>955.2</ele><time>2026-04-19T09:47:52Z</time></trkpt><trkpt lat="42.584682824813" lon="13.464037017194837"><ele>952.0</ele><time>2026-04-19T09:47:53Z</time></trkpt><trkpt lat="42.584696701785454" lon="13.464140368379509"><ele>948.4000000000001</ele><time>2026-04-19T09:47:54Z</time></trkpt><trkpt lat="42.584750019766915" lon="13.464226574839653"><ele>944.8000000000001</ele><time>2026-04-19T09:47:55Z</time></trkpt><trkpt lat="42.58484212582798" lon="13.464272597544936"><ele>941.2</ele><time>2026-04-19T09:47:56Z</time></trkpt><trkpt lat="42.584973918856086" lon="13.464288715260228"><ele>937.6</ele><time>2026-04-19T09:47:57Z</time></trkpt><trkpt lat="42.585086631790396" lon="13.464294473848195"><ele>934.0</ele><time>2026-04-19T09:47:58Z</time></trkpt><trkpt lat="42.58519402637364" lon="13.464303358388927"><ele>934.0</ele><time>2026-04-19T09:47:59Z</time></trkpt><trkpt lat="42.58532232107965" lon="13.464330311575454"><ele>934.0</ele><time>2026-04-19T09:48:00Z</time></trkpt><trkpt lat="42.585443583322956" lon="13.464359384439037"><ele>934.0</ele><time>2026-04-19T09:48:01Z</time></trkpt><trkpt lat="42.585552924016824" lon="13.464394691187199"><ele>934.0</ele><time>2026-04-19T09:48:02Z</time></trkpt><trkpt lat="42.58565687924453" lon="13.464442847432792"><ele>933.2</ele><time>2026-04-19T09:48:03Z</time></trkpt><trkpt lat="42.58574478230864" lon="13.464522191422873"><ele>932.4000000000001</ele><time>2026-04-19T09:48:04Z</time></trkpt><trkpt lat="42.585815390799226" lon="13.46462258742635"><ele>931.6</ele><time>2026-04-19T09:48:05Z</time></trkpt><trkpt lat="42.58586873601298" lon="13.46473091197726"><ele>930.8</ele><time>2026-04-19T09:48:06Z</time></trkpt><trkpt lat="42.585906910611506" lon="13.464824728457762"><ele>930.0</ele><time>2026-04-19T09:48:07Z</time></trkpt><trkpt lat="42.585917800681806" lon="13.464917402180484"><ele>930.0</ele><time>2026-04-19T09:48:08Z</time></trkpt><trkpt lat="42.585895259704856" lon="13.46502045153196"><ele>930.0</ele><time>2026-04-19T09:48:09Z</time></trkpt><trkpt lat="42.58581994988206" lon="13.465089156161701"><ele>930.0</ele><time>2026-04-19T09:48:10Z</time></trkpt><trkpt lat="42.58573554668469" lon="13.465142428843436"><ele>930.0</ele><time>2026-04-19T09:48:11Z</time></trkpt><trkpt lat="42.58565550740789" lon="13.465212215703687"><ele>930.0</ele><time>2026-04-19T09:48:12Z</time></trkpt><trkpt lat="42.58558145713919" lon="13.465265065395435"><ele>930.0</ele><time>2026-04-19T09:48:13Z</time></trkpt><trkpt lat="42.58548780439651" lon="13.465323208424252"><ele>930.0</ele><time>2026-04-19T09:48:14Z</time></trkpt><trkpt lat="42.585379558456005" lon="13.465392448737534"><ele>930.0</ele><time>2026-04-19T09:48:15Z</time></trkpt><trkpt lat="42.585271587586824" lon="13.465462901754432"><ele>930.0</ele><time>2026-04-19T09:48:16Z</time></trkpt><trkpt lat="42.58516848950792" lon="13.465532047667171"><ele>930.0</ele><time>2026-04-19T09:48:17Z</time></trkpt><trkpt lat="42.58507019645404" lon="13.46560818204996"><ele>929.6</ele><time>2026-04-19T09:48:18Z</time></trkpt><trkpt lat="42.58497500437415" lon="13.465677824532246"><ele>929.2</ele><time>2026-04-19T09:48:19Z</time></trkpt><trkpt lat="42.58488904223209" lon="13.465747603207724"><ele>928.8</ele><time>2026-04-19T09:48:20Z</time></trkpt><trkpt lat="42.58481948302818" lon="13.465827843829551"><ele>928.4</ele><time>2026-04-19T09:48:21Z</time></trkpt><trkpt lat="42.58476642565964" lon="13.465918200851984"><ele>928.0</ele><time>2026-04-19T09:48:22Z</time></trkpt><trkpt lat="42.58473154843458" lon="13.466028984660316"><ele>928.0</ele><time>2026-04-19T09:48:23Z</time></trkpt><trkpt lat="42.5847335754942" lon="13.466150442254778"><ele>928.0</ele><time>2026-04-19T09:48:24Z</time></trkpt><trkpt lat="42.58475717211513" lon="13.466280988206108"><ele>928.0</ele><time>2026-04-19T09:48:25Z</time></trkpt><trkpt lat="42.58480540553113" lon="13.466410180020883"><ele>928.0</ele><time>2026-04-19T09:48:26Z</time></trkpt><trkpt lat="42.58486074178102" lon="13.466523417379788"><ele>928.0</ele><time>2026-04-19T09:48:27Z</time></trkpt><trkpt lat="42.584922918906585" lon="13.466632042412897"><ele>927.4</ele><time>2026-04-19T09:48:28Z</time></trkpt><trkpt lat="42.58499745734546" lon="13.46673116382345"><ele>926.8</ele><time>2026-04-19T09:48:29Z</time></trkpt><trkpt lat="42.58508767953709" lon="13.46680685780185"><ele>926.2</ele><time>2026-04-19T09:48:30Z</time></trkpt><trkpt lat="42.585186300317105" lon="13.466867459101774"><ele>925.6</ele><time>2026-04-19T09:48:31Z</time></trkpt><trkpt lat="42.58528546676861" lon="13.466924654790166"><ele>925.0</ele><time>2026-04-19T09:48:32Z</time></trkpt><trkpt lat="42.58537961960585" lon="13.466983892503453"><ele>926.3333333333333</ele><time>2026-04-19T09:48:33Z</time></trkpt><trkpt lat="42.585467054139194" lon="13.467044476691157"><ele>927.6666666666666</ele><time>2026-04-19T09:48:34Z</time></trkpt><trkpt lat="42.58555317044999" lon="13.467095257230556"><ele>929.0</ele><time>2026-04-19T09:48:35Z</time></trkpt><trkpt lat="42.585623868531506" lon="13.467157350948744"><ele>930.3333333333333</ele><time>2026-04-19T09:48:36Z</time></trkpt><trkpt lat="42.58567538276609" lon="13.46724861772536"><ele>931.6666666666666</ele><time>2026-04-19T09:48:37Z</time></trkpt><trkpt lat="42.58569965905629" lon="13.467355858602808"><ele>933.0</ele><time>2026-04-19T09:48:38Z</time></trkpt><trkpt lat="42.5856967519934" lon="13.467473365436854"><ele>933.0</ele><time>2026-04-19T09:48:39Z</time></trkpt><trkpt lat="42.5856710078896" lon="13.467603809662643"><ele>933.0</ele><time>2026-04-19T09:48:40Z</time></trkpt><trkpt lat="42.58563220642975" lon="13.467725484094357"><ele>933.0</ele><time>2026-04-19T09:48:41Z</time></trkpt><trkpt lat="42.5855769218867" lon="13.467827377862601"><ele>933.0</ele><time>2026-04-19T09:48:42Z</time></trkpt><trkpt lat="42.58549281930355" lon="13.467900933630304"><ele>933.0</ele><time>2026-04-19T09:48:43Z</time></trkpt><trkpt lat="42.58538781903444" lon="13.46793776982367"><ele>928.4</ele><time>2026-04-19T09:48:44Z</time></trkpt><trkpt lat="42.585291194598256" lon="13.467992752921992"><ele>923.8</ele><time>2026-04-19T09:48:45Z</time></trkpt><trkpt lat="42.58520247179024" lon="13.468057338238216"><ele>919.2</ele><time>2026-04-19T09:48:46Z</time></trkpt><trkpt lat="42.585112876321126" lon="13.468105795639792"><ele>914.6</ele><time>2026-04-19T09:48:47Z</time></trkpt><trkpt lat="42.58502734999853" lon="13.468171459375379"><ele>910.0</ele><time>2026-04-19T09:48:48Z</time></trkpt><trkpt lat="42.58495342786118" lon="13.468270081630616"><ele>910.0</ele><time>2026-04-19T09:48:49Z</time></trkpt><trkpt lat="42.58490587660419" lon="13.468403138114494"><ele>910.0</ele><time>2026-04-19T09:48:50Z</time></trkpt><trkpt lat="42.58487932886514" lon="13.468540024939994"><ele>910.0</ele><time>2026-04-19T09:48:51Z</time></trkpt><trkpt lat="42.58487432255046" lon="13.468676899411212"><ele>910.0</ele><time>2026-04-19T09:48:52Z</time></trkpt><trkpt lat="42.58488254256493" lon="13.46880648502868"><ele>910.0</ele><time>2026-04-19T09:48:53Z</time></trkpt><trkpt lat="42.58487602659681" lon="13.468936101114357"><ele>912.6</ele><time>2026-04-19T09:48:54Z</time></trkpt><trkpt lat="42.58483928284792" lon="13.46905085921367"><ele>915.2</ele><time>2026-04-19T09:48:55Z</time></trkpt><trkpt lat="42.58478101651039" lon="13.46914291489468"><ele>917.8</ele><time>2026-04-19T09:48:56Z</time></trkpt><trkpt lat="42.584687389897695" lon="13.46919792629576"><ele>920.4</ele><time>2026-04-19T09:48:57Z</time></trkpt><trkpt lat="42.58459547744085" lon="13.469251611210082"><ele>923.0</ele><time>2026-04-19T09:48:58Z</time></trkpt><trkpt lat="42.58451397611163" lon="13.469320992591"><ele>919.2</ele><time>2026-04-19T09:48:59Z</time></trkpt><trkpt lat="42.58442269906324" lon="13.46937484505109"><ele>915.4</ele><time>2026-04-19T09:49:00Z</time></trkpt><trkpt lat="42.584331460341474" lon="13.469430989247353"><ele>911.6000000000001</ele><time>2026-04-19T09:49:01Z</time></trkpt><trkpt lat="42.58424191983952" lon="13.469490399286757"><ele>907.8000000000001</ele><time>2026-04-19T09:49:02Z</time></trkpt><trkpt lat="42.58415303535497" lon="13.46955308847682"><ele>904.0</ele><time>2026-04-19T09:49:03Z</time></trkpt><trkpt lat="42.58406892378997" lon="13.469615894062443"><ele>903.9999999999999</ele><time>2026-04-19T09:49:04Z</time></trkpt><trkpt lat="42.5839998992283" lon="13.469684339846602"><ele>904.0</ele><time>2026-04-19T09:49:05Z</time></trkpt><trkpt lat="42.583948295778534" lon="13.469773032756189"><ele>904.0</ele><time>2026-04-19T09:49:06Z</time></trkpt><trkpt lat="42.583926547410535" lon="13.469879990164035"><ele>904.0</ele><time>2026-04-19T09:49:07Z</time></trkpt><trkpt lat="42.58393664208386" lon="13.469991118721293"><ele>903.9999999999999</ele><time>2026-04-19T09:49:08Z</time></trkpt><trkpt lat="42.58397312441582" lon="13.470095540833622"><ele>904.0</ele><time>2026-04-19T09:49:09Z</time></trkpt><trkpt lat="42.58403748109687" lon="13.470186525468726"><ele>903.9999999999999</ele><time>2026-04-19T09:49:10Z</time></trkpt><trkpt lat="42.58411399312288" lon="13.470260707080811"><ele>904.0</ele><time>2026-04-19T09:49:11Z</time></trkpt><trkpt lat="42.58418960472196" lon="13.47031760752924"><ele>904.0</ele><time>2026-04-19T09:49:12Z</time></trkpt><trkpt lat="42.58425541020442" lon="13.470378246235704"><ele>904.0</ele><time>2026-04-19T09:49:13Z</time></trkpt><trkpt lat="42.5843085871081" lon="13.470443655840995"><ele>903.9999999999999</ele><time>2026-04-19T09:49:14Z</time></trkpt><trkpt lat="42.58434211953595" lon="13.470520646229033"><ele>904.0</ele><time>2026-04-19T09:49:15Z</time></trkpt><trkpt lat="42.584344951533396" lon="13.470609537815125"><ele>903.8000000000001</ele><time>2026-04-19T09:49:16Z</time></trkpt><trkpt lat="42.58431421027084" lon="13.470700409335091"><ele>903.6000000000001</ele><time>2026-04-19T09:49:17Z</time></trkpt><trkpt lat="42.58425648962216" lon="13.470776786079425"><ele>903.4</ele><time>2026-04-19T09:49:18Z</time></trkpt><trkpt lat="42.5841698714169" lon="13.470798285466692"><ele>903.2</ele><time>2026-04-19T09:49:19Z</time></trkpt><trkpt lat="42.584079492921724" lon="13.470843699184329"><ele>903.0</ele><time>2026-04-19T09:49:20Z</time></trkpt><trkpt lat="42.58396264361841" lon="13.470872113628706"><ele>903.0</ele><time>2026-04-19T09:49:21Z</time></trkpt><trkpt lat="42.58385872706507" lon="13.470903280295577"><ele>903.0</ele><time>2026-04-19T09:49:22Z</time></trkpt><trkpt lat="42.583760962299664" lon="13.470933479162504"><ele>903.0</ele><time>2026-04-19T09:49:23Z</time></trkpt><trkpt lat="42.58368083694234" lon="13.470966807170607"><ele>903.0</ele><time>2026-04-19T09:49:24Z</time></trkpt><trkpt lat="42.58361385785354" lon="13.471016419048201"><ele>903.0</ele><time>2026-04-19T09:49:25Z</time></trkpt><trkpt lat="42.58356347563837" lon="13.471094134174784"><ele>903.0</ele><time>2026-04-19T09:49:26Z</time></trkpt><trkpt lat="42.58354114151892" lon="13.471203522969551"><ele>902.4</ele><time>2026-04-19T09:49:27Z</time></trkpt><trkpt lat="42.58355335170497" lon="13.471327745667168"><ele>901.8</ele><time>2026-04-19T09:49:28Z</time></trkpt><trkpt lat="42.583600951997596" lon="13.47143730673946"><ele>901.2</ele><time>2026-04-19T09:49:29Z</time></trkpt><trkpt lat="42.583682794197045" lon="13.471500564496596"><ele>900.6</ele><time>2026-04-19T09:49:30Z</time></trkpt><trkpt lat="42.583773811043756" lon="13.471544475173712"><ele>900.0</ele><time>2026-04-19T09:49:31Z</time></trkpt><trkpt lat="42.58384612488107" lon="13.471584326307733"><ele>900.0</ele><time>2026-04-19T09:49:32Z</time></trkpt><trkpt lat="42.583917421085964" lon="13.471626640317337"><ele>900.0</ele><time>2026-04-19T09:49:33Z</time></trkpt><trkpt lat="42.583981746645726" lon="13.471687105657287"><ele>900.0</ele><time>2026-04-19T09:49:34Z</time></trkpt><trkpt lat="42.584020876832504" lon="13.471782292312218"><ele>900.0</ele><time>2026-04-19T09:49:35Z</time></trkpt><trkpt lat="42.58404076851506" lon="13.471892222075398"><ele>900.0</ele><time>2026-04-19T09:49:36Z</time></trkpt><trkpt lat="42.584024750731594" lon="13.471993895465735"><ele>900.0</ele><time>2026-04-19T09:49:37Z</time></trkpt><trkpt lat="42.58397816667333" lon="13.472075948102002"><ele>900.6666666666666</ele><time>2026-04-19T09:49:38Z</time></trkpt><trkpt lat="42.583909565205396" lon="13.472150665224062"><ele>901.3333333333333</ele><time>2026-04-19T09:49:39Z</time></trkpt><trkpt lat="42.58381691799698" lon="13.472179388238677"><ele>902.0</ele><time>2026-04-19T09:49:40Z</time></trkpt><trkpt lat="42.58375399710789" lon="13.472253240229898"><ele>902.6666666666666</ele><time>2026-04-19T09:49:41Z</time></trkpt><trkpt lat="42.583689433112625" lon="13.472319364593194"><ele>903.3333333333333</ele><time>2026-04-19T09:49:42Z</time></trkpt><trkpt lat="42.58361887259324" lon="13.47239969926472"><ele>904.0</ele><time>2026-04-19T09:49:43Z</time></trkpt><trkpt lat="42.58357577757732" lon="13.472513501060464"><ele>901.4000000000001</ele><time>2026-04-19T09:49:44Z</time></trkpt><trkpt lat="42.58358158708046" lon="13.472645537549738"><ele>898.8000000000001</ele><time>2026-04-19T09:49:45Z</time></trkpt><trkpt lat="42.58359394740455" lon="13.472770942951252"><ele>896.1999999999999</ele><time>2026-04-19T09:49:46Z</time></trkpt><trkpt lat="42.58360901381532" lon="13.472884245433907"><ele>893.5999999999999</ele><time>2026-04-19T09:49:47Z</time></trkpt><trkpt lat="42.58359829675995" lon="13.47300163121973"><ele>891.0</ele><time>2026-04-19T09:49:48Z</time></trkpt><trkpt lat="42.583558245525055" lon="13.473111535330109"><ele>891.0</ele><time>2026-04-19T09:49:49Z</time></trkpt><trkpt lat="42.583481979456124" lon="13.47317452291966"><ele>890.9999999999999</ele><time>2026-04-19T09:49:50Z</time></trkpt><trkpt lat="42.58340765319515" lon="13.473247354767048"><ele>890.9999999999999</ele><time>2026-04-19T09:49:51Z</time></trkpt><trkpt lat="42.58331562954268" lon="13.473291376055156"><ele>891.0</ele><time>2026-04-19T09:49:52Z</time></trkpt><trkpt lat="42.58322491140186" lon="13.473336948082373"><ele>891.0</ele><time>2026-04-19T09:49:53Z</time></trkpt><trkpt lat="42.58313999067983" lon="13.473380263010746"><ele>891.0</ele><time>2026-04-19T09:49:54.001Z</time></trkpt><trkpt lat="42.58306356514428" lon="13.473427943187243"><ele>890.9999999999999</ele><time>2026-04-19T09:49:55.001Z</time></trkpt><trkpt lat="42.58298632004279" lon="13.473481445255802"><ele>890.9999999999999</ele><time>2026-04-19T09:49:56.001Z</time></trkpt><trkpt lat="42.58291079667572" lon="13.473545817422018"><ele>891.0</ele><time>2026-04-19T09:49:57.001Z</time></trkpt><trkpt lat="42.582835228538706" lon="13.473626421369945"><ele>891.0</ele><time>2026-04-19T09:49:58.001Z</time></trkpt><trkpt lat="42.58275408918594" lon="13.473702917515672"><ele>888.5999999999999</ele><time>2026-04-19T09:49:59.001Z</time></trkpt><trkpt lat="42.582665111572105" lon="13.473783424338201"><ele>886.1999999999999</ele><time>2026-04-19T09:50:00.001Z</time></trkpt><trkpt lat="42.58257803730587" lon="13.473871302020289"><ele>883.8000000000001</ele><time>2026-04-19T09:50:01.001Z</time></trkpt><trkpt lat="42.582496803599675" lon="13.473971463450141"><ele>881.4000000000001</ele><time>2026-04-19T09:50:02.001Z</time></trkpt><trkpt lat="42.58243060507941" lon="13.474083724237246"><ele>879.0</ele><time>2026-04-19T09:50:03.001Z</time></trkpt><trkpt lat="42.582381970256556" lon="13.474201426459535"><ele>879.0</ele><time>2026-04-19T09:50:04.001Z</time></trkpt><trkpt lat="42.58235082734814" lon="13.474331751014061"><ele>879.0000000000001</ele><time>2026-04-19T09:50:05.001Z</time></trkpt><trkpt lat="42.582332884394646" lon="13.474459954402901"><ele>879.0000000000001</ele><time>2026-04-19T09:50:06.001Z</time></trkpt><trkpt lat="42.58230266171991" lon="13.474578144641109"><ele>879.0</ele><time>2026-04-19T09:50:07.001Z</time></trkpt><trkpt lat="42.58228675989397" lon="13.474694226954478"><ele>879.0</ele><time>2026-04-19T09:50:08Z</time></trkpt><trkpt lat="42.58228129286566" lon="13.474802634186464"><ele>880.1666666666666</ele><time>2026-04-19T09:50:09Z</time></trkpt><trkpt lat="42.58225670363578" lon="13.474902885256764"><ele>881.3333333333333</ele><time>2026-04-19T09:50:10Z</time></trkpt><trkpt lat="42.58223840901569" lon="13.475007981716134"><ele>882.5</ele><time>2026-04-19T09:50:11Z</time></trkpt><trkpt lat="42.582223224739565" lon="13.475112235700555"><ele>883.6666666666666</ele><time>2026-04-19T09:50:12Z</time></trkpt><trkpt lat="42.582214363024086" lon="13.475213371324605"><ele>884.8333333333333</ele><time>2026-04-19T09:50:13Z</time></trkpt><trkpt lat="42.582207296672706" lon="13.475311591852705"><ele>886.0</ele><time>2026-04-19T09:50:14Z</time></trkpt><trkpt lat="42.582211919394425" lon="13.475408969880224"><ele>883.8333333333333</ele><time>2026-04-19T09:50:15Z</time></trkpt><trkpt lat="42.58221342432641" lon="13.475505342541334"><ele>881.6666666666666</ele><time>2026-04-19T09:50:16Z</time></trkpt><trkpt lat="42.582247619400306" lon="13.475593280632244"><ele>879.5</ele><time>2026-04-19T09:50:17Z</time></trkpt><trkpt lat="42.582352183453395" lon="13.475609625567655"><ele>877.3333333333333</ele><time>2026-04-19T09:50:18Z</time></trkpt><trkpt lat="42.58243725356201" lon="13.475627359662628"><ele>875.1666666666666</ele><time>2026-04-19T09:50:19Z</time></trkpt><trkpt lat="42.582522024605915" lon="13.475651972322455"><ele>873.0</ele><time>2026-04-19T09:50:20Z</time></trkpt><trkpt lat="42.58261129010885" lon="13.475684018336628"><ele>873.0</ele><time>2026-04-19T09:50:21Z</time></trkpt><trkpt lat="42.58270163636844" lon="13.47572594526578"><ele>873.0</ele><time>2026-04-19T09:50:22Z</time></trkpt><trkpt lat="42.58278966477714" lon="13.47578042647299"><ele>873.0</ele><time>2026-04-19T09:50:23Z</time></trkpt><trkpt lat="42.58287001238473" lon="13.47584491358404"><ele>873.0</ele><time>2026-04-19T09:50:24Z</time></trkpt><trkpt lat="42.58294916640956" lon="13.475916693254314"><ele>873.0</ele><time>2026-04-19T09:50:25Z</time></trkpt><trkpt lat="42.583024648380885" lon="13.47600017150241"><ele>872.8</ele><time>2026-04-19T09:50:26Z</time></trkpt><trkpt lat="42.58308988187622" lon="13.476088020821118"><ele>872.5999999999999</ele><time>2026-04-19T09:50:27Z</time></trkpt><trkpt lat="42.583149941027905" lon="13.476177879379833"><ele>872.4000000000001</ele><time>2026-04-19T09:50:28Z</time></trkpt><trkpt lat="42.58320410586285" lon="13.476275042688947"><ele>872.2</ele><time>2026-04-19T09:50:29Z</time></trkpt><trkpt lat="42.583247681995154" lon="13.476385692459228"><ele>872.0</ele><time>2026-04-19T09:50:30Z</time></trkpt><trkpt lat="42.58328325565789" lon="13.476508650646265"><ele>872.0</ele><time>2026-04-19T09:50:31Z</time></trkpt><trkpt lat="42.583309375061475" lon="13.476625867214814"><ele>872.0</ele><time>2026-04-19T09:50:32Z</time></trkpt><trkpt lat="42.58333316615434" lon="13.476745342624431"><ele>872.0</ele><time>2026-04-19T09:50:33Z</time></trkpt><trkpt lat="42.583351216718995" lon="13.476872999653244"><ele>872.0</ele><time>2026-04-19T09:50:34Z</time></trkpt><trkpt lat="42.583368784978326" lon="13.477004039793286"><ele>872.0</ele><time>2026-04-19T09:50:35Z</time></trkpt><trkpt lat="42.58338539538219" lon="13.47712945384313"><ele>870.2</ele><time>2026-04-19T09:50:36Z</time></trkpt><trkpt lat="42.583402557904435" lon="13.477257764923525"><ele>868.4000000000001</ele><time>2026-04-19T09:50:37Z</time></trkpt><trkpt lat="42.58343758820535" lon="13.477381180027491"><ele>866.5999999999999</ele><time>2026-04-19T09:50:38Z</time></trkpt><trkpt lat="42.583470429452056" lon="13.477503576369797"><ele>864.8</ele><time>2026-04-19T09:50:39Z</time></trkpt><trkpt lat="42.58350326112882" lon="13.477625539023549"><ele>863.0</ele><time>2026-04-19T09:50:40Z</time></trkpt><trkpt lat="42.58346250172768" lon="13.477782829598633"><ele>863.0</ele><time>2026-04-19T09:50:41Z</time></trkpt><trkpt lat="42.583491351913125" lon="13.477908633771985"><ele>863.0</ele><time>2026-04-19T09:50:42Z</time></trkpt><trkpt lat="42.583518251204566" lon="13.478036140313588"><ele>863.0</ele><time>2026-04-19T09:50:43Z</time></trkpt><trkpt lat="42.583556340597646" lon="13.478160070457177"><ele>863.0</ele><time>2026-04-19T09:50:44Z</time></trkpt><trkpt lat="42.583608735486614" lon="13.478285371609115"><ele>863.0</ele><time>2026-04-19T09:50:45Z</time></trkpt><trkpt lat="42.583662382966196" lon="13.478408322392262"><ele>862.8</ele><time>2026-04-19T09:50:46Z</time></trkpt><trkpt lat="42.583721236930224" lon="13.478531000250594"><ele>862.5999999999999</ele><time>2026-04-19T09:50:47Z</time></trkpt><trkpt lat="42.58377994965914" lon="13.478644680747694"><ele>862.4000000000001</ele><time>2026-04-19T09:50:48Z</time></trkpt><trkpt lat="42.58382511005014" lon="13.478761446287317"><ele>862.2</ele><time>2026-04-19T09:50:49Z</time></trkpt><trkpt lat="42.583858745343846" lon="13.478883388537847"><ele>862.0</ele><time>2026-04-19T09:50:50Z</time></trkpt><trkpt lat="42.583877098314645" lon="13.479006065201084"><ele>861.9999999999999</ele><time>2026-04-19T09:50:51Z</time></trkpt><trkpt lat="42.58388049294891" lon="13.479134039341789"><ele>862.0</ele><time>2026-04-19T09:50:52Z</time></trkpt><trkpt lat="42.58387426803534" lon="13.479256519891763"><ele>862.0</ele><time>2026-04-19T09:50:53Z</time></trkpt><trkpt lat="42.58386589393942" lon="13.479367681782174"><ele>862.0</ele><time>2026-04-19T09:50:54Z</time></trkpt><trkpt lat="42.58385057352484" lon="13.479463428117164"><ele>861.9999999999999</ele><time>2026-04-19T09:50:55Z</time></trkpt><trkpt lat="42.583811456645456" lon="13.479534611062084"><ele>862.0</ele><time>2026-04-19T09:50:56Z</time></trkpt><trkpt lat="42.583746858072544" lon="13.479554529918518"><ele>861.2</ele><time>2026-04-19T09:50:57Z</time></trkpt><trkpt lat="42.583650874341465" lon="13.479538503501464"><ele>860.4000000000001</ele><time>2026-04-19T09:50:58Z</time></trkpt><trkpt lat="42.58357073958911" lon="13.479498609282082"><ele>859.5999999999999</ele><time>2026-04-19T09:50:59Z</time></trkpt><trkpt lat="42.58349205969394" lon="13.479443225252329"><ele>858.8</ele><time>2026-04-19T09:51:00Z</time></trkpt><trkpt lat="42.58341054368197" lon="13.479383160761648"><ele>858.0</ele><time>2026-04-19T09:51:01Z</time></trkpt><trkpt lat="42.583325726646805" lon="13.479318796658196"><ele>858.0</ele><time>2026-04-19T09:51:02Z</time></trkpt><trkpt lat="42.583246331690354" lon="13.47926410145952"><ele>858.0</ele><time>2026-04-19T09:51:03Z</time></trkpt><trkpt lat="42.58316666633379" lon="13.479207918995645"><ele>858.0</ele><time>2026-04-19T09:51:04Z</time></trkpt><trkpt lat="42.58309399359581" lon="13.479164825818165"><ele>858.0</ele><time>2026-04-19T09:51:05Z</time></trkpt><trkpt lat="42.58303152991937" lon="13.479110519500047"><ele>858.0</ele><time>2026-04-19T09:51:06Z</time></trkpt><trkpt lat="42.58296719759729" lon="13.479079929567044"><ele>858.0</ele><time>2026-04-19T09:51:07Z</time></trkpt><trkpt lat="42.58291920868997" lon="13.479019769261662"><ele>858.0</ele><time>2026-04-19T09:51:08Z</time></trkpt><trkpt lat="42.582891838593405" lon="13.478937187164714"><ele>858.0</ele><time>2026-04-19T09:51:09Z</time></trkpt><trkpt lat="42.58291272685831" lon="13.478816435604406"><ele>858.0</ele><time>2026-04-19T09:51:10Z</time></trkpt><trkpt lat="42.58288838501004" lon="13.478708403565767"><ele>858.0</ele><time>2026-04-19T09:51:11Z</time></trkpt><trkpt lat="42.58287850355906" lon="13.47859369658143"><ele>858.0</ele><time>2026-04-19T09:51:12Z</time></trkpt><trkpt lat="42.5828615224194" lon="13.478470550467351"><ele>858.0</ele><time>2026-04-19T09:51:13Z</time></trkpt><trkpt lat="42.582837904328834" lon="13.478339043119384"><ele>858.0</ele><time>2026-04-19T09:51:14Z</time></trkpt><trkpt lat="42.582803921111584" lon="13.4782059094592"><ele>858.0</ele><time>2026-04-19T09:51:15Z</time></trkpt><trkpt lat="42.582766748089384" lon="13.478072846442762"><ele>858.0</ele><time>2026-04-19T09:51:16Z</time></trkpt><trkpt lat="42.58273231589793" lon="13.477943085537822"><ele>858.0</ele><time>2026-04-19T09:51:17Z</time></trkpt><trkpt lat="42.58270210872608" lon="13.477811253974128"><ele>858.0</ele><time>2026-04-19T09:51:18Z</time></trkpt><trkpt lat="42.58267332184506" lon="13.477680129104431"><ele>858.0</ele><time>2026-04-19T09:51:19Z</time></trkpt><trkpt lat="42.58265261143719" lon="13.477539476269303"><ele>858.0</ele><time>2026-04-19T09:51:20Z</time></trkpt><trkpt lat="42.58263514625912" lon="13.477404069640242"><ele>858.0</ele><time>2026-04-19T09:51:21Z</time></trkpt><trkpt lat="42.582629017956954" lon="13.477267668953553"><ele>858.0</ele><time>2026-04-19T09:51:22Z</time></trkpt><trkpt lat="42.582624157864316" lon="13.477134254308965"><ele>858.0</ele><time>2026-04-19T09:51:23Z</time></trkpt><trkpt lat="42.582621039181134" lon="13.477013425270052"><ele>857.0</ele><time>2026-04-19T09:51:24Z</time></trkpt><trkpt lat="42.58261686808197" lon="13.476897188838556"><ele>856.0</ele><time>2026-04-19T09:51:25Z</time></trkpt><trkpt lat="42.58259612056741" lon="13.476792607868369"><ele>855.0</ele><time>2026-04-19T09:51:26Z</time></trkpt><trkpt lat="42.582558332805235" lon="13.47671146282615"><ele>854.0</ele><time>2026-04-19T09:51:27Z</time></trkpt><trkpt lat="42.58250122134502" lon="13.476652915971815"><ele>853.0</ele><time>2026-04-19T09:51:28Z</time></trkpt><trkpt lat="42.582420561698555" lon="13.476618769874984"><ele>852.0</ele><time>2026-04-19T09:51:29Z</time></trkpt><trkpt lat="42.58232697637861" lon="13.476629761107658"><ele>852.0</ele><time>2026-04-19T09:51:30Z</time></trkpt><trkpt lat="42.582232188995874" lon="13.47667593599423"><ele>852.0</ele><time>2026-04-19T09:51:31Z</time></trkpt><trkpt lat="42.582137732045325" lon="13.476721886630568"><ele>852.0</ele><time>2026-04-19T09:51:32Z</time></trkpt><trkpt lat="42.58204182557609" lon="13.476769737569878"><ele>852.0</ele><time>2026-04-19T09:51:33Z</time></trkpt><trkpt lat="42.58194592143738" lon="13.476819433381204"><ele>852.0</ele><time>2026-04-19T09:51:34Z</time></trkpt><trkpt lat="42.58185310599233" lon="13.476874151515979"><ele>852.0</ele><time>2026-04-19T09:51:35Z</time></trkpt><trkpt lat="42.58176177173943" lon="13.47693078271167"><ele>852.0</ele><time>2026-04-19T09:51:36Z</time></trkpt><trkpt lat="42.58166829197321" lon="13.476987254355441"><ele>852.0</ele><time>2026-04-19T09:51:37Z</time></trkpt><trkpt lat="42.58157677507872" lon="13.477036140216237"><ele>852.0</ele><time>2026-04-19T09:51:38Z</time></trkpt><trkpt lat="42.581484922152" lon="13.47707542566981"><ele>852.0</ele><time>2026-04-19T09:51:39Z</time></trkpt><trkpt lat="42.58139099737791" lon="13.477101717579043"><ele>852.0</ele><time>2026-04-19T09:51:40Z</time></trkpt><trkpt lat="42.58129549386489" lon="13.477108543032594"><ele>852.0</ele><time>2026-04-19T09:51:41Z</time></trkpt><trkpt lat="42.5811985395058" lon="13.477095772663766"><ele>852.0</ele><time>2026-04-19T09:51:42Z</time></trkpt><trkpt lat="42.58109978683777" lon="13.477074017858673"><ele>852.0</ele><time>2026-04-19T09:51:43Z</time></trkpt><trkpt lat="42.58099639855095" lon="13.477051175435939"><ele>852.0</ele><time>2026-04-19T09:51:44Z</time></trkpt><trkpt lat="42.58089133529588" lon="13.477031134016704"><ele>851.2</ele><time>2026-04-19T09:51:45Z</time></trkpt><trkpt lat="42.58078678218246" lon="13.477008948762656"><ele>850.4000000000001</ele><time>2026-04-19T09:51:46Z</time></trkpt><trkpt lat="42.58068381569188" lon="13.476986599559478"><ele>849.5999999999999</ele><time>2026-04-19T09:51:47Z</time></trkpt><trkpt lat="42.58058329606739" lon="13.476966920727142"><ele>848.8</ele><time>2026-04-19T09:51:48Z</time></trkpt><trkpt lat="42.58048497158114" lon="13.476937428465313"><ele>848.0</ele><time>2026-04-19T09:51:49Z</time></trkpt><trkpt lat="42.58039344128621" lon="13.47688094582045"><ele>848.8</ele><time>2026-04-19T09:51:50Z</time></trkpt><trkpt lat="42.58031355174334" lon="13.476807163478105"><ele>849.5999999999999</ele><time>2026-04-19T09:51:51Z</time></trkpt><trkpt lat="42.58024117851456" lon="13.4767224264597"><ele>850.4000000000001</ele><time>2026-04-19T09:51:52Z</time></trkpt><trkpt lat="42.580178986085656" lon="13.476624562650827"><ele>851.2</ele><time>2026-04-19T09:51:53Z</time></trkpt><trkpt lat="42.58015731245846" lon="13.47650381009447"><ele>852.0</ele><time>2026-04-19T09:51:54Z</time></trkpt><trkpt lat="42.58012680836504" lon="13.47638622363027"><ele>847.4000000000001</ele><time>2026-04-19T09:51:55Z</time></trkpt><trkpt lat="42.580111044620544" lon="13.476249716188388"><ele>842.8000000000001</ele><time>2026-04-19T09:51:56Z</time></trkpt><trkpt lat="42.58008859302995" lon="13.476123818531253"><ele>838.2</ele><time>2026-04-19T09:51:57Z</time></trkpt><trkpt lat="42.58000961179786" lon="13.476030432686466"><ele>833.6</ele><time>2026-04-19T09:51:58Z</time></trkpt><trkpt lat="42.57993354302518" lon="13.475962184111559"><ele>829.0</ele><time>2026-04-19T09:51:59Z</time></trkpt><trkpt lat="42.579850281998404" lon="13.475920133784625"><ele>829.0</ele><time>2026-04-19T09:52:00.001Z</time></trkpt><trkpt lat="42.579760838162564" lon="13.47592115030025"><ele>829.0</ele><time>2026-04-19T09:52:01.001Z</time></trkpt><trkpt lat="42.57967356406856" lon="13.475952049048388"><ele>829.0</ele><time>2026-04-19T09:52:02.001Z</time></trkpt><trkpt lat="42.57958294176486" lon="13.47599729255982"><ele>829.0</ele><time>2026-04-19T09:52:03.001Z</time></trkpt><trkpt lat="42.57949533926261" lon="13.47603449906204"><ele>829.0</ele><time>2026-04-19T09:52:04.001Z</time></trkpt><trkpt lat="42.57940758501955" lon="13.476062036839114"><ele>827.4000000000001</ele><time>2026-04-19T09:52:05.001Z</time></trkpt><trkpt lat="42.579318967097116" lon="13.4760812864137"><ele>825.8</ele><time>2026-04-19T09:52:06.001Z</time></trkpt><trkpt lat="42.57921695784677" lon="13.476079681689358"><ele>824.2</ele><time>2026-04-19T09:52:07Z</time></trkpt><trkpt lat="42.57912059943766" lon="13.476022758056443"><ele>822.5999999999999</ele><time>2026-04-19T09:52:08Z</time></trkpt><trkpt lat="42.579011830327914" lon="13.475996522996658"><ele>821.0</ele><time>2026-04-19T09:52:09Z</time></trkpt><trkpt lat="42.57890872777264" lon="13.475934766967326"><ele>821.0</ele><time>2026-04-19T09:52:10Z</time></trkpt><trkpt lat="42.57880207191681" lon="13.475880999368218"><ele>821.0</ele><time>2026-04-19T09:52:11Z</time></trkpt><trkpt lat="42.578698718780224" lon="13.475832332494805"><ele>821.0</ele><time>2026-04-19T09:52:12Z</time></trkpt><trkpt lat="42.5785864106775" lon="13.475791793560758"><ele>821.0</ele><time>2026-04-19T09:52:13Z</time></trkpt><trkpt lat="42.578478504401836" lon="13.47574312503775"><ele>819.8</ele><time>2026-04-19T09:52:14Z</time></trkpt><trkpt lat="42.578373833809565" lon="13.475684434799389"><ele>818.5999999999999</ele><time>2026-04-19T09:52:15Z</time></trkpt><trkpt lat="42.57828390796941" lon="13.475592110003099"><ele>817.4</ele><time>2026-04-19T09:52:16Z</time></trkpt><trkpt lat="42.57819454313362" lon="13.475515913046943"><ele>816.2</ele><time>2026-04-19T09:52:17Z</time></trkpt><trkpt lat="42.57810712195762" lon="13.475430969742016"><ele>815.0</ele><time>2026-04-19T09:52:18Z</time></trkpt><trkpt lat="42.578024591094504" lon="13.475342819305263"><ele>815.0</ele><time>2026-04-19T09:52:19Z</time></trkpt><trkpt lat="42.57794616466332" lon="13.47525552124305"><ele>815.0</ele><time>2026-04-19T09:52:20Z</time></trkpt><trkpt lat="42.57786468558794" lon="13.475163686062606"><ele>815.0</ele><time>2026-04-19T09:52:21Z</time></trkpt><trkpt lat="42.577786432675445" lon="13.475072693085433"><ele>815.0</ele><time>2026-04-19T09:52:22Z</time></trkpt><trkpt lat="42.577708038642484" lon="13.474984057059201"><ele>815.0</ele><time>2026-04-19T09:52:23Z</time></trkpt><trkpt lat="42.577623515086884" lon="13.47490152248698"><ele>816.0</ele><time>2026-04-19T09:52:24Z</time></trkpt><trkpt lat="42.577525059489965" lon="13.474847783230338"><ele>817.0</ele><time>2026-04-19T09:52:25Z</time></trkpt><trkpt lat="42.57743082740445" lon="13.474788960767798"><ele>818.0</ele><time>2026-04-19T09:52:26Z</time></trkpt><trkpt lat="42.57732977546824" lon="13.474746035008572"><ele>819.0</ele><time>2026-04-19T09:52:27Z</time></trkpt><trkpt lat="42.577227890649986" lon="13.474712467482915"><ele>820.0</ele><time>2026-04-19T09:52:28Z</time></trkpt><trkpt lat="42.577123466091194" lon="13.474690754625275"><ele>821.6</ele><time>2026-04-19T09:52:29Z</time></trkpt><trkpt lat="42.577018110427986" lon="13.474684841509625"><ele>823.2</ele><time>2026-04-19T09:52:30Z</time></trkpt><trkpt lat="42.57691191969838" lon="13.474671965470316"><ele>824.8</ele><time>2026-04-19T09:52:31Z</time></trkpt><trkpt lat="42.5768082538375" lon="13.474664736194283"><ele>826.4</ele><time>2026-04-19T09:52:32Z</time></trkpt><trkpt lat="42.57670243605874" lon="13.474648380755792"><ele>828.0</ele><time>2026-04-19T09:52:33Z</time></trkpt><trkpt lat="42.5765994904775" lon="13.474624131440335"><ele>824.4</ele><time>2026-04-19T09:52:34Z</time></trkpt><trkpt lat="42.5764959169188" lon="13.4745908529243"><ele>820.8</ele><time>2026-04-19T09:52:35Z</time></trkpt><trkpt lat="42.57638605497452" lon="13.474560410513762"><ele>817.2</ele><time>2026-04-19T09:52:36Z</time></trkpt><trkpt lat="42.57627806297763" lon="13.474528572211637"><ele>813.6</ele><time>2026-04-19T09:52:37Z</time></trkpt><trkpt lat="42.576174337566364" lon="13.474482072233831"><ele>810.0</ele><time>2026-04-19T09:52:38Z</time></trkpt><trkpt lat="42.57607057702835" lon="13.474438292526967"><ele>809.4</ele><time>2026-04-19T09:52:39Z</time></trkpt><trkpt lat="42.57596901613597" lon="13.474394502967563"><ele>808.8</ele><time>2026-04-19T09:52:40Z</time></trkpt><trkpt lat="42.575871471225234" lon="13.474349626035531"><ele>808.2</ele><time>2026-04-19T09:52:41Z</time></trkpt><trkpt lat="42.57577347553315" lon="13.474297271898932"><ele>807.6</ele><time>2026-04-19T09:52:42Z</time></trkpt><trkpt lat="42.57568051913795" lon="13.474232766495344"><ele>807.0</ele><time>2026-04-19T09:52:43Z</time></trkpt><trkpt lat="42.575600360473764" lon="13.474162716510019"><ele>807.0</ele><time>2026-04-19T09:52:44Z</time></trkpt><trkpt lat="42.57551995263153" lon="13.474103910055057"><ele>807.0</ele><time>2026-04-19T09:52:45Z</time></trkpt><trkpt lat="42.575441219127555" lon="13.474071272935202"><ele>807.0</ele><time>2026-04-19T09:52:46Z</time></trkpt><trkpt lat="42.57536951968377" lon="13.47408318563634"><ele>807.0</ele><time>2026-04-19T09:52:47Z</time></trkpt><trkpt lat="42.57529232238597" lon="13.474135383330848"><ele>807.0</ele><time>2026-04-19T09:52:48Z</time></trkpt><trkpt lat="42.57521281119288" lon="13.474219891394517"><ele>807.0</ele><time>2026-04-19T09:52:49Z</time></trkpt><trkpt lat="42.57512940444642" lon="13.474315187909868"><ele>805.8</ele><time>2026-04-19T09:52:50Z</time></trkpt><trkpt lat="42.57504337084572" lon="13.474413133370094"><ele>804.6</ele><time>2026-04-19T09:52:51Z</time></trkpt><trkpt lat="42.574956810479925" lon="13.474503606250359"><ele>803.4</ele><time>2026-04-19T09:52:52Z</time></trkpt><trkpt lat="42.574870135149325" lon="13.474588517883486"><ele>802.1999999999999</ele><time>2026-04-19T09:52:53Z</time></trkpt><trkpt lat="42.574787783128876" lon="13.474679489191699"><ele>801.0</ele><time>2026-04-19T09:52:54Z</time></trkpt><trkpt lat="42.574700644199815" lon="13.474727621555532"><ele>803.0</ele><time>2026-04-19T09:52:55Z</time></trkpt><trkpt lat="42.57459642851604" lon="13.474744876926808"><ele>805.0</ele><time>2026-04-19T09:52:56Z</time></trkpt><trkpt lat="42.57449864132472" lon="13.474759326177743"><ele>807.0</ele><time>2026-04-19T09:52:57Z</time></trkpt><trkpt lat="42.574380061197076" lon="13.474794096902729"><ele>809.0</ele><time>2026-04-19T09:52:58Z</time></trkpt><trkpt lat="42.5742451443248" lon="13.474806946580248"><ele>809.0</ele><time>2026-04-19T09:52:59Z</time></trkpt><trkpt lat="42.57411887966932" lon="13.474808580692985"><ele>809.0</ele><time>2026-04-19T09:53:00Z</time></trkpt><trkpt lat="42.573999156180605" lon="13.474823035351154"><ele>809.0</ele><time>2026-04-19T09:53:01Z</time></trkpt><trkpt lat="42.57388036567828" lon="13.47483933772079"><ele>809.0</ele><time>2026-04-19T09:53:02Z</time></trkpt><trkpt lat="42.57377396910718" lon="13.474858755752713"><ele>807.1666666666667</ele><time>2026-04-19T09:53:03Z</time></trkpt><trkpt lat="42.5736869240951" lon="13.47488072105503"><ele>805.3333333333334</ele><time>2026-04-19T09:53:04Z</time></trkpt><trkpt lat="42.573609703892885" lon="13.47488048981443"><ele>803.5</ele><time>2026-04-19T09:53:05Z</time></trkpt><trkpt lat="42.573552425629074" lon="13.474800649070191"><ele>801.6666666666667</ele><time>2026-04-19T09:53:06Z</time></trkpt><trkpt lat="42.573504036187074" lon="13.474712257779629"><ele>799.8333333333334</ele><time>2026-04-19T09:53:07Z</time></trkpt><trkpt lat="42.57345764871491" lon="13.47458200966673"><ele>798.0</ele><time>2026-04-19T09:53:08Z</time></trkpt><trkpt lat="42.57340478563953" lon="13.474475145351267"><ele>798.0</ele><time>2026-04-19T09:53:09Z</time></trkpt><trkpt lat="42.573347292972905" lon="13.474358922124104"><ele>798.0</ele><time>2026-04-19T09:53:10Z</time></trkpt><trkpt lat="42.57327697850077" lon="13.474229551108085"><ele>798.0</ele><time>2026-04-19T09:53:11Z</time></trkpt><trkpt lat="42.57320862909392" lon="13.474124255732475"><ele>798.0</ele><time>2026-04-19T09:53:12Z</time></trkpt><trkpt lat="42.573140847651125" lon="13.474033774983294"><ele>798.0</ele><time>2026-04-19T09:53:13Z</time></trkpt><trkpt lat="42.57307530750411" lon="13.47394553460636"><ele>798.0</ele><time>2026-04-19T09:53:14Z</time></trkpt><trkpt lat="42.572996930778885" lon="13.473878104872725"><ele>798.0</ele><time>2026-04-19T09:53:15Z</time></trkpt><trkpt lat="42.57290141162475" lon="13.473864556260638"><ele>798.0</ele><time>2026-04-19T09:53:16Z</time></trkpt><trkpt lat="42.572791666651085" lon="13.473968503538911"><ele>798.0</ele><time>2026-04-19T09:53:17Z</time></trkpt><trkpt lat="42.572697841911136" lon="13.474066354455974"><ele>798.0</ele><time>2026-04-19T09:53:18Z</time></trkpt><trkpt lat="42.57261220684126" lon="13.474195172774085"><ele>798.0</ele><time>2026-04-19T09:53:19Z</time></trkpt><trkpt lat="42.572543196466434" lon="13.474313571511518"><ele>798.0</ele><time>2026-04-19T09:53:20Z</time></trkpt><trkpt lat="42.57245857365282" lon="13.474383938472675"><ele>798.0</ele><time>2026-04-19T09:53:21Z</time></trkpt><trkpt lat="42.572333521073396" lon="13.474426528328955"><ele>798.0</ele><time>2026-04-19T09:53:22Z</time></trkpt><trkpt lat="42.57221889779879" lon="13.47445267540753"><ele>798.0</ele><time>2026-04-19T09:53:23Z</time></trkpt><trkpt lat="42.572101040814104" lon="13.474449044716211"><ele>798.0</ele><time>2026-04-19T09:53:24Z</time></trkpt><trkpt lat="42.571983903281" lon="13.474469835775533"><ele>798.0</ele><time>2026-04-19T09:53:25Z</time></trkpt><trkpt lat="42.571880191251644" lon="13.474449013446467"><ele>798.0</ele><time>2026-04-19T09:53:26Z</time></trkpt><trkpt lat="42.571795096073814" lon="13.474385015771537"><ele>798.0</ele><time>2026-04-19T09:53:27Z</time></trkpt><trkpt lat="42.57172063774441" lon="13.47429519852666"><ele>799.0</ele><time>2026-04-19T09:53:28Z</time></trkpt><trkpt lat="42.571651643831686" lon="13.474175818159464"><ele>800.0</ele><time>2026-04-19T09:53:29Z</time></trkpt><trkpt lat="42.5715903360609" lon="13.474064975261017"><ele>801.0</ele><time>2026-04-19T09:53:30Z</time></trkpt><trkpt lat="42.57153968396805" lon="13.473977239480364"><ele>802.0</ele><time>2026-04-19T09:53:31Z</time></trkpt><trkpt lat="42.57144824094286" lon="13.473952123201709"><ele>803.0</ele><time>2026-04-19T09:53:32Z</time></trkpt><trkpt lat="42.57132805295614" lon="13.473976009577294"><ele>803.0</ele><time>2026-04-19T09:53:33Z</time></trkpt><trkpt lat="42.57121612017735" lon="13.474014133576343"><ele>803.0</ele><time>2026-04-19T09:53:34Z</time></trkpt><trkpt lat="42.57111473439145" lon="13.473992857056919"><ele>803.0</ele><time>2026-04-19T09:53:35Z</time></trkpt><trkpt lat="42.571017279012054" lon="13.473958196418707"><ele>803.0</ele><time>2026-04-19T09:53:36Z</time></trkpt><trkpt lat="42.570926155498604" lon="13.47389454799219"><ele>803.0</ele><time>2026-04-19T09:53:37Z</time></trkpt><trkpt lat="42.57082246830408" lon="13.47383409184946"><ele>804.5999999999999</ele><time>2026-04-19T09:53:38Z</time></trkpt><trkpt lat="42.570730778256866" lon="13.473756193494571"><ele>806.1999999999999</ele><time>2026-04-19T09:53:39Z</time></trkpt><trkpt lat="42.570639264164974" lon="13.473717284419818"><ele>807.8</ele><time>2026-04-19T09:53:40Z</time></trkpt><trkpt lat="42.57053799053118" lon="13.473743466605846"><ele>809.4</ele><time>2026-04-19T09:53:41Z</time></trkpt><trkpt lat="42.57042626591494" lon="13.473833397236618"><ele>811.0</ele><time>2026-04-19T09:53:42Z</time></trkpt><trkpt lat="42.570326309931126" lon="13.473923731736813"><ele>811.0</ele><time>2026-04-19T09:53:43Z</time></trkpt><trkpt lat="42.57022510077307" lon="13.47394277404571"><ele>811.0</ele><time>2026-04-19T09:53:44Z</time></trkpt><trkpt lat="42.570115392484404" lon="13.47392849480124"><ele>811.0</ele><time>2026-04-19T09:53:45Z</time></trkpt><trkpt lat="42.57001068359431" lon="13.473945200875951"><ele>811.0</ele><time>2026-04-19T09:53:46Z</time></trkpt><trkpt lat="42.56990286850777" lon="13.473996867002057"><ele>811.0</ele><time>2026-04-19T09:53:47Z</time></trkpt><trkpt lat="42.569799468344755" lon="13.47406688622828"><ele>811.0</ele><time>2026-04-19T09:53:48Z</time></trkpt><trkpt lat="42.5697184685882" lon="13.474119254789475"><ele>811.0</ele><time>2026-04-19T09:53:49Z</time></trkpt><trkpt lat="42.56962836410635" lon="13.474128399123831"><ele>811.0</ele><time>2026-04-19T09:53:50Z</time></trkpt><trkpt lat="42.56952945914555" lon="13.474068659337496"><ele>811.0</ele><time>2026-04-19T09:53:51Z</time></trkpt><trkpt lat="42.569458532263226" lon="13.473931529236408"><ele>811.0</ele><time>2026-04-19T09:53:52Z</time></trkpt><trkpt lat="42.569363847134696" lon="13.473817911352413"><ele>804.5</ele><time>2026-04-19T09:53:53Z</time></trkpt><trkpt lat="42.56927051015434" lon="13.47369145581732"><ele>798.0</ele><time>2026-04-19T09:53:54Z</time></trkpt><trkpt lat="42.56915850371235" lon="13.473582415268583"><ele>791.5</ele><time>2026-04-19T09:53:55Z</time></trkpt><trkpt lat="42.56905311961597" lon="13.47349126880231"><ele>785.0</ele><time>2026-04-19T09:53:56Z</time></trkpt><trkpt lat="42.56895107471229" lon="13.47339121355218"><ele>785.0</ele><time>2026-04-19T09:53:57Z</time></trkpt><trkpt lat="42.56885713812308" lon="13.473293653505111"><ele>785.0</ele><time>2026-04-19T09:53:58Z</time></trkpt><trkpt lat="42.56876891274239" lon="13.473197360527294"><ele>785.0</ele><time>2026-04-19T09:53:59Z</time></trkpt><trkpt lat="42.56869623122167" lon="13.473120259361336"><ele>785.0</ele><time>2026-04-19T09:54:00Z</time></trkpt><trkpt lat="42.56861623948885" lon="13.473054347564593"><ele>785.0</ele><time>2026-04-19T09:54:01Z</time></trkpt><trkpt lat="42.56851429475767" lon="13.473038504767334"><ele>787.25</ele><time>2026-04-19T09:54:02Z</time></trkpt><trkpt lat="42.568390493789195" lon="13.473069060595138"><ele>789.5</ele><time>2026-04-19T09:54:03Z</time></trkpt><trkpt lat="42.56825213156565" lon="13.473117902314655"><ele>791.75</ele><time>2026-04-19T09:54:04Z</time></trkpt><trkpt lat="42.56813013626987" lon="13.473131275273172"><ele>794.0</ele><time>2026-04-19T09:54:05Z</time></trkpt><trkpt lat="42.56801707175314" lon="13.473135358682017"><ele>794.0</ele><time>2026-04-19T09:54:06.001Z</time></trkpt><trkpt lat="42.56790725935409" lon="13.473120753104316"><ele>794.0</ele><time>2026-04-19T09:54:07.001Z</time></trkpt><trkpt lat="42.56780941019501" lon="13.473066805399744"><ele>794.0</ele><time>2026-04-19T09:54:08.001Z</time></trkpt><trkpt lat="42.56772189067703" lon="13.473010841484156"><ele>794.0</ele><time>2026-04-19T09:54:09.001Z</time></trkpt><trkpt lat="42.56763199456535" lon="13.47298055721048"><ele>794.0</ele><time>2026-04-19T09:54:10.001Z</time></trkpt><trkpt lat="42.56752829818919" lon="13.472999643197639"><ele>789.25</ele><time>2026-04-19T09:54:11.001Z</time></trkpt><trkpt lat="42.56742596049542" lon="13.473095527964619"><ele>784.5</ele><time>2026-04-19T09:54:12.001Z</time></trkpt><trkpt lat="42.567359735199936" lon="13.473245878682624"><ele>779.75</ele><time>2026-04-19T09:54:13.001Z</time></trkpt><trkpt lat="42.567330778876965" lon="13.473391210662527"><ele>775.0</ele><time>2026-04-19T09:54:14.001Z</time></trkpt><trkpt lat="42.56734700657397" lon="13.4735404978462"><ele>775.0</ele><time>2026-04-19T09:54:15.001Z</time></trkpt><trkpt lat="42.56739272090523" lon="13.473685666649535"><ele>775.0</ele><time>2026-04-19T09:54:16.001Z</time></trkpt><trkpt lat="42.56743493260265" lon="13.473812540721438"><ele>775.0</ele><time>2026-04-19T09:54:17.001Z</time></trkpt><trkpt lat="42.567435897433896" lon="13.473954280353805"><ele>775.0</ele><time>2026-04-19T09:54:18.001Z</time></trkpt><trkpt lat="42.567415959554204" lon="13.474119051191668"><ele>775.0</ele><time>2026-04-19T09:54:19.001Z</time></trkpt><trkpt lat="42.56739337873816" lon="13.474258392512748"><ele>778.1666666666666</ele><time>2026-04-19T09:54:20.001Z</time></trkpt><trkpt lat="42.56737831309369" lon="13.474381942763564"><ele>781.3333333333333</ele><time>2026-04-19T09:54:21.001Z</time></trkpt><trkpt lat="42.567366183441656" lon="13.47449011912068"><ele>784.5</ele><time>2026-04-19T09:54:22.001Z</time></trkpt><trkpt lat="42.56733989654603" lon="13.474574269590349"><ele>787.6666666666667</ele><time>2026-04-19T09:54:23.001Z</time></trkpt><trkpt lat="42.56727967069086" lon="13.474634298640028"><ele>790.8333333333334</ele><time>2026-04-19T09:54:24.001Z</time></trkpt><trkpt lat="42.56719412344887" lon="13.47464787251951"><ele>794.0</ele><time>2026-04-19T09:54:25.001Z</time></trkpt><trkpt lat="42.567104813443294" lon="13.474616816941714"><ele>794.0</ele><time>2026-04-19T09:54:26.001Z</time></trkpt><trkpt lat="42.567040520713064" lon="13.474557364576297"><ele>794.0</ele><time>2026-04-19T09:54:27.001Z</time></trkpt><trkpt lat="42.56702233845439" lon="13.474436142346722"><ele>794.0</ele><time>2026-04-19T09:54:28.001Z</time></trkpt><trkpt lat="42.56699487897329" lon="13.474313212614183"><ele>794.0</ele><time>2026-04-19T09:54:29.001Z</time></trkpt><trkpt lat="42.566950377877404" lon="13.474170937394192"><ele>794.0</ele><time>2026-04-19T09:54:30.001Z</time></trkpt><trkpt lat="42.566920096296414" lon="13.474076093372256"><ele>792.4000000000001</ele><time>2026-04-19T09:54:31.001Z</time></trkpt><trkpt lat="42.566885880192125" lon="13.473989419900944"><ele>790.8</ele><time>2026-04-19T09:54:32Z</time></trkpt><trkpt lat="42.56677639667906" lon="13.473941532556854"><ele>789.2</ele><time>2026-04-19T09:54:33Z</time></trkpt><trkpt lat="42.56666745502504" lon="13.473957288931892"><ele>787.5999999999999</ele><time>2026-04-19T09:54:34Z</time></trkpt><trkpt lat="42.56654352286186" lon="13.474028506486706"><ele>786.0</ele><time>2026-04-19T09:54:35Z</time></trkpt><trkpt lat="42.56642160742058" lon="13.474062532709045"><ele>786.0</ele><time>2026-04-19T09:54:36Z</time></trkpt><trkpt lat="42.566293459687415" lon="13.474105241712149"><ele>786.0</ele><time>2026-04-19T09:54:37Z</time></trkpt><trkpt lat="42.56614338535758" lon="13.474111030947292"><ele>786.0</ele><time>2026-04-19T09:54:38Z</time></trkpt><trkpt lat="42.56596328140894" lon="13.474069534747104"><ele>787.25</ele><time>2026-04-19T09:54:39Z</time></trkpt><trkpt lat="42.56578806381232" lon="13.474044908644723"><ele>788.5</ele><time>2026-04-19T09:54:40Z</time></trkpt><trkpt lat="42.565655339063184" lon="13.473977095170206"><ele>789.75</ele><time>2026-04-19T09:54:41Z</time></trkpt><trkpt lat="42.565563780217985" lon="13.47394537107675"><ele>791.0</ele><time>2026-04-19T09:54:42Z</time></trkpt><trkpt lat="42.56550254874356" lon="13.473837461624823"><ele>791.0</ele><time>2026-04-19T09:54:43Z</time></trkpt><trkpt lat="42.56542742177677" lon="13.473763364776712"><ele>791.0</ele><time>2026-04-19T09:54:44Z</time></trkpt><trkpt lat="42.5653501973087" lon="13.47371306530822"><ele>791.0</ele><time>2026-04-19T09:54:45Z</time></trkpt><trkpt lat="42.565269243111125" lon="13.473713505400957"><ele>791.0</ele><time>2026-04-19T09:54:46Z</time></trkpt><trkpt lat="42.56518238345391" lon="13.47379922001281"><ele>791.0</ele><time>2026-04-19T09:54:47Z</time></trkpt><trkpt lat="42.56512023550444" lon="13.47392521105532"><ele>791.0</ele><time>2026-04-19T09:54:48Z</time></trkpt><trkpt lat="42.56507833792993" lon="13.474118027104307"><ele>791.0</ele><time>2026-04-19T09:54:49Z</time></trkpt><trkpt lat="42.565018408205006" lon="13.474269566417664"><ele>791.0</ele><time>2026-04-19T09:54:50Z</time></trkpt><trkpt lat="42.564979247274614" lon="13.474352614630895"><ele>791.0</ele><time>2026-04-19T09:54:51Z</time></trkpt><trkpt lat="42.56494028198404" lon="13.474420684413994"><ele>791.0</ele><time>2026-04-19T09:54:52Z</time></trkpt><trkpt lat="42.564822804521356" lon="13.474468972860524"><ele>791.0</ele><time>2026-04-19T09:54:54Z</time></trkpt><trkpt lat="42.56473678278465" lon="13.474438630879668"><ele>791.0</ele><time>2026-04-19T09:54:55Z</time></trkpt><trkpt lat="42.56466781524786" lon="13.474368910189286"><ele>791.0</ele><time>2026-04-19T09:54:56Z</time></trkpt><trkpt lat="42.56459918285637" lon="13.474214056349958"><ele>791.0</ele><time>2026-04-19T09:54:57Z</time></trkpt><trkpt lat="42.56443839055451" lon="13.47408536702942"><ele>793.0</ele><time>2026-04-19T09:54:58Z</time></trkpt><trkpt lat="42.56430339015045" lon="13.47397184556634"><ele>795.0</ele><time>2026-04-19T09:54:59Z</time></trkpt><trkpt lat="42.56421564503206" lon="13.47385431023421"><ele>797.0</ele><time>2026-04-19T09:55:00Z</time></trkpt><trkpt lat="42.56414337807705" lon="13.473761001434617"><ele>799.0</ele><time>2026-04-19T09:55:01Z</time></trkpt><trkpt lat="42.564070520270405" lon="13.473708234339707"><ele>799.0</ele><time>2026-04-19T09:55:02Z</time></trkpt><trkpt lat="42.56397787765677" lon="13.473699177654668"><ele>799.0</ele><time>2026-04-19T09:55:03Z</time></trkpt><trkpt lat="42.5638797815783" lon="13.473737696563122"><ele>799.0</ele><time>2026-04-19T09:55:04Z</time></trkpt><trkpt lat="42.563788684651584" lon="13.47382221949598"><ele>799.0</ele><time>2026-04-19T09:55:05Z</time></trkpt><trkpt lat="42.56372456720441" lon="13.473964730160528"><ele>799.0</ele><time>2026-04-19T09:55:06Z</time></trkpt><trkpt lat="42.56368508844967" lon="13.47413845308925"><ele>796.8000000000001</ele><time>2026-04-19T09:55:07Z</time></trkpt><trkpt lat="42.563658857341224" lon="13.47429187249518"><ele>794.6</ele><time>2026-04-19T09:55:08Z</time></trkpt><trkpt lat="42.56362003680648" lon="13.474405742992058"><ele>792.4</ele><time>2026-04-19T09:55:09Z</time></trkpt><trkpt lat="42.563566423541474" lon="13.474497597162683"><ele>790.2</ele><time>2026-04-19T09:55:10Z</time></trkpt><trkpt lat="42.563477655397016" lon="13.474558221794926"><ele>788.0</ele><time>2026-04-19T09:55:11Z</time></trkpt><trkpt lat="42.56334669205206" lon="13.474582720927259"><ele>796.5</ele><time>2026-04-19T09:55:12Z</time></trkpt><trkpt lat="42.563166520300854" lon="13.474604718272682"><ele>805.0</ele><time>2026-04-19T09:55:13Z</time></trkpt><trkpt lat="42.56301886829433" lon="13.474637411571157"><ele>813.5</ele><time>2026-04-19T09:55:14Z</time></trkpt><trkpt lat="42.5629292932058" lon="13.474682176882522"><ele>822.0</ele><time>2026-04-19T09:55:15Z</time></trkpt><trkpt lat="42.56285068088242" lon="13.474670216891159"><ele>822.0</ele><time>2026-04-19T09:55:16Z</time></trkpt><trkpt lat="42.562783801427955" lon="13.474610014268835"><ele>822.0</ele><time>2026-04-19T09:55:17Z</time></trkpt><trkpt lat="42.56273884978976" lon="13.47451080023591"><ele>822.0</ele><time>2026-04-19T09:55:18Z</time></trkpt><trkpt lat="42.562674312526994" lon="13.474437003055261"><ele>822.0</ele><time>2026-04-19T09:55:19Z</time></trkpt><trkpt lat="42.56261981597037" lon="13.474341923241916"><ele>822.0</ele><time>2026-04-19T09:55:20Z</time></trkpt><trkpt lat="42.56255101242884" lon="13.47425703956623"><ele>822.0</ele><time>2026-04-19T09:55:21Z</time></trkpt><trkpt lat="42.56246796387005" lon="13.47419821133664"><ele>815.0</ele><time>2026-04-19T09:55:22Z</time></trkpt><trkpt lat="42.56236921546715" lon="13.474184274201436"><ele>808.0</ele><time>2026-04-19T09:55:23Z</time></trkpt><trkpt lat="42.56227372687414" lon="13.474188602740059"><ele>801.0</ele><time>2026-04-19T09:55:24Z</time></trkpt><trkpt lat="42.56218460690859" lon="13.47422873738765"><ele>794.0</ele><time>2026-04-19T09:55:25Z</time></trkpt><trkpt lat="42.562106534686095" lon="13.474300955168822"><ele>787.0</ele><time>2026-04-19T09:55:26Z</time></trkpt><trkpt lat="42.56204579816109" lon="13.474412830179828"><ele>788.0</ele><time>2026-04-19T09:55:27Z</time></trkpt><trkpt lat="42.56199397074495" lon="13.474529462619886"><ele>789.0</ele><time>2026-04-19T09:55:28Z</time></trkpt><trkpt lat="42.56193843084205" lon="13.47463980085719"><ele>790.0</ele><time>2026-04-19T09:55:29Z</time></trkpt><trkpt lat="42.561887492779256" lon="13.47474206700582"><ele>791.0</ele><time>2026-04-19T09:55:30Z</time></trkpt><trkpt lat="42.56184560127966" lon="13.474852690498855"><ele>792.0</ele><time>2026-04-19T09:55:31Z</time></trkpt><trkpt lat="42.56182304829323" lon="13.474980375084437"><ele>792.0</ele><time>2026-04-19T09:55:32Z</time></trkpt><trkpt lat="42.56181729568306" lon="13.47511291605873"><ele>792.0</ele><time>2026-04-19T09:55:33Z</time></trkpt><trkpt lat="42.56181510969399" lon="13.47524196140783"><ele>792.0</ele><time>2026-04-19T09:55:34Z</time></trkpt><trkpt lat="42.561814350600116" lon="13.475370622448219"><ele>792.0</ele><time>2026-04-19T09:55:35Z</time></trkpt><trkpt lat="42.56181372423227" lon="13.475481204373997"><ele>792.0</ele><time>2026-04-19T09:55:36Z</time></trkpt><trkpt lat="42.561811416878236" lon="13.47558546245525"><ele>792.0</ele><time>2026-04-19T09:55:37Z</time></trkpt><trkpt lat="42.56180764310377" lon="13.475686527555515"><ele>794.3333333333334</ele><time>2026-04-19T09:55:38Z</time></trkpt><trkpt lat="42.56179484057082" lon="13.475775108744168"><ele>796.6666666666667</ele><time>2026-04-19T09:55:39Z</time></trkpt><trkpt lat="42.56169535258428" lon="13.475873259083178"><ele>799.0</ele><time>2026-04-19T09:55:41Z</time></trkpt><trkpt lat="42.56161785453491" lon="13.475883574282784"><ele>801.3333333333334</ele><time>2026-04-19T09:55:42Z</time></trkpt><trkpt lat="42.56154517157156" lon="13.47586091459972"><ele>803.6666666666667</ele><time>2026-04-19T09:55:43Z</time></trkpt><trkpt lat="42.56148869155184" lon="13.475788261973365"><ele>806.0</ele><time>2026-04-19T09:55:44Z</time></trkpt><trkpt lat="42.56142244411609" lon="13.4756752213655"><ele>806.0</ele><time>2026-04-19T09:55:45Z</time></trkpt><trkpt lat="42.561350577462974" lon="13.475562775782803"><ele>806.0</ele><time>2026-04-19T09:55:46Z</time></trkpt><trkpt lat="42.561277139076935" lon="13.475446361298602"><ele>806.0</ele><time>2026-04-19T09:55:47Z</time></trkpt><trkpt lat="42.561214392577654" lon="13.47530429509184"><ele>806.0</ele><time>2026-04-19T09:55:48Z</time></trkpt><trkpt lat="42.56115287130808" lon="13.475175409524539"><ele>807.25</ele><time>2026-04-19T09:55:49Z</time></trkpt><trkpt lat="42.56108833655204" lon="13.475047128857327"><ele>808.5</ele><time>2026-04-19T09:55:50Z</time></trkpt><trkpt lat="42.561052224389165" lon="13.474894435126114"><ele>809.75</ele><time>2026-04-19T09:55:51Z</time></trkpt><trkpt lat="42.56103856623563" lon="13.474738375757122"><ele>811.0</ele><time>2026-04-19T09:55:52Z</time></trkpt><trkpt lat="42.561035938156046" lon="13.474583673491948"><ele>807.75</ele><time>2026-04-19T09:55:53Z</time></trkpt><trkpt lat="42.56104906269857" lon="13.474430457058567"><ele>804.5</ele><time>2026-04-19T09:55:54Z</time></trkpt><trkpt lat="42.56106933638808" lon="13.474276632314483"><ele>801.25</ele><time>2026-04-19T09:55:55Z</time></trkpt><trkpt lat="42.56106550138483" lon="13.474124102806485"><ele>798.0</ele><time>2026-04-19T09:55:56Z</time></trkpt><trkpt lat="42.56103394657836" lon="13.473967698908272"><ele>798.0</ele><time>2026-04-19T09:55:57Z</time></trkpt><trkpt lat="42.56097993361719" lon="13.47382234430457"><ele>798.0</ele><time>2026-04-19T09:55:58Z</time></trkpt><trkpt lat="42.56091479808914" lon="13.473686857387547"><ele>798.0</ele><time>2026-04-19T09:55:59Z</time></trkpt><trkpt lat="42.56085601242735" lon="13.473573134874972"><ele>798.0</ele><time>2026-04-19T09:56:00Z</time></trkpt><trkpt lat="42.56079453856869" lon="13.473482095087007"><ele>798.0</ele><time>2026-04-19T09:56:01Z</time></trkpt><trkpt lat="42.56072979074797" lon="13.473417340952755"><ele>793.4</ele><time>2026-04-19T09:56:02Z</time></trkpt><trkpt lat="42.56064726704543" lon="13.473396884564162"><ele>788.8</ele><time>2026-04-19T09:56:03Z</time></trkpt><trkpt lat="42.560568062898035" lon="13.473435378461263"><ele>784.2</ele><time>2026-04-19T09:56:04Z</time></trkpt><trkpt lat="42.56050270011986" lon="13.473515253336055"><ele>779.6</ele><time>2026-04-19T09:56:05Z</time></trkpt><trkpt lat="42.56044228867353" lon="13.47363910436862"><ele>775.0</ele><time>2026-04-19T09:56:06Z</time></trkpt><trkpt lat="42.56038965065101" lon="13.473765271366508"><ele>775.2</ele><time>2026-04-19T09:56:07Z</time></trkpt><trkpt lat="42.56033363908966" lon="13.47388799467512"><ele>775.4</ele><time>2026-04-19T09:56:08Z</time></trkpt><trkpt lat="42.560274511635996" lon="13.474009265442868"><ele>775.5999999999999</ele><time>2026-04-19T09:56:09Z</time></trkpt><trkpt lat="42.56021577343711" lon="13.474126429514884"><ele>775.8</ele><time>2026-04-19T09:56:10Z</time></trkpt><trkpt lat="42.56017782884872" lon="13.474253096057408"><ele>776.0</ele><time>2026-04-19T09:56:11Z</time></trkpt><trkpt lat="42.56015908349607" lon="13.47436586040811"><ele>776.0</ele><time>2026-04-19T09:56:12.001Z</time></trkpt><trkpt lat="42.56014183198865" lon="13.474480906880771"><ele>776.0</ele><time>2026-04-19T09:56:13.001Z</time></trkpt><trkpt lat="42.560107592824785" lon="13.474589908513517"><ele>776.0</ele><time>2026-04-19T09:56:14.001Z</time></trkpt><trkpt lat="42.56004757839899" lon="13.474695823892272"><ele>776.0</ele><time>2026-04-19T09:56:15.001Z</time></trkpt><trkpt lat="42.55996338732693" lon="13.474778659146866"><ele>776.0</ele><time>2026-04-19T09:56:16.001Z</time></trkpt><trkpt lat="42.55988926726702" lon="13.474838174875005"><ele>781.1999999999999</ele><time>2026-04-19T09:56:17.001Z</time></trkpt><trkpt lat="42.55981736340017" lon="13.474933243281834"><ele>786.4</ele><time>2026-04-19T09:56:18.001Z</time></trkpt><trkpt lat="42.55975257505202" lon="13.475036465383864"><ele>791.6</ele><time>2026-04-19T09:56:19.001Z</time></trkpt><trkpt lat="42.55969005785304" lon="13.475124995527992"><ele>796.8</ele><time>2026-04-19T09:56:20.001Z</time></trkpt><trkpt lat="42.55961814311202" lon="13.47517904924315"><ele>802.0</ele><time>2026-04-19T09:56:21.001Z</time></trkpt><trkpt lat="42.55953847659104" lon="13.475186184217899"><ele>797.6</ele><time>2026-04-19T09:56:22.001Z</time></trkpt><trkpt lat="42.55946000624793" lon="13.475129488796329"><ele>793.2</ele><time>2026-04-19T09:56:23.001Z</time></trkpt><trkpt lat="42.55939919600747" lon="13.475037342311746"><ele>788.8</ele><time>2026-04-19T09:56:24.001Z</time></trkpt><trkpt lat="42.559344641458395" lon="13.474933281039977"><ele>784.4</ele><time>2026-04-19T09:56:25.001Z</time></trkpt><trkpt lat="42.55928191657385" lon="13.474854789221284"><ele>780.0</ele><time>2026-04-19T09:56:26.001Z</time></trkpt><trkpt lat="42.55920096982531" lon="13.4747835722899"><ele>780.0</ele><time>2026-04-19T09:56:27.001Z</time></trkpt><trkpt lat="42.55911272926569" lon="13.474724041182183"><ele>780.0</ele><time>2026-04-19T09:56:28.001Z</time></trkpt><trkpt lat="42.559020575170386" lon="13.47468831671621"><ele>780.0</ele><time>2026-04-19T09:56:29.001Z</time></trkpt><trkpt lat="42.55894009349899" lon="13.474657617002707"><ele>780.0</ele><time>2026-04-19T09:56:30.001Z</time></trkpt><trkpt lat="42.55886492509321" lon="13.474648654982134"><ele>780.0</ele><time>2026-04-19T09:56:31.001Z</time></trkpt><trkpt lat="42.55880413185382" lon="13.474677966495369"><ele>780.0</ele><time>2026-04-19T09:56:32.001Z</time></trkpt><trkpt lat="42.55875770796159" lon="13.474743880018824"><ele>780.0</ele><time>2026-04-19T09:56:33.001Z</time></trkpt><trkpt lat="42.55872298223957" lon="13.474853147786762"><ele>780.0</ele><time>2026-04-19T09:56:34.001Z</time></trkpt><trkpt lat="42.55872837863236" lon="13.47498233191404"><ele>780.0</ele><time>2026-04-19T09:56:35.001Z</time></trkpt><trkpt lat="42.55876264673987" lon="13.475117406404186"><ele>780.0</ele><time>2026-04-19T09:56:36.001Z</time></trkpt><trkpt lat="42.55879561695291" lon="13.475254244094913"><ele>780.0</ele><time>2026-04-19T09:56:37.001Z</time></trkpt><trkpt lat="42.55881941821367" lon="13.4753965495083"><ele>776.8</ele><time>2026-04-19T09:56:38.001Z</time></trkpt><trkpt lat="42.55881383361982" lon="13.475536063205778"><ele>773.6</ele><time>2026-04-19T09:56:39.001Z</time></trkpt><trkpt lat="42.55879227862442" lon="13.4756598343833"><ele>770.4000000000001</ele><time>2026-04-19T09:56:40.001Z</time></trkpt><trkpt lat="42.55876179919781" lon="13.475773403694035"><ele>767.2</ele><time>2026-04-19T09:56:41.001Z</time></trkpt><trkpt lat="42.558704129292344" lon="13.475864394980867"><ele>764.0</ele><time>2026-04-19T09:56:42.001Z</time></trkpt><trkpt lat="42.55861102349721" lon="13.475912000614372"><ele>764.0</ele><time>2026-04-19T09:56:43.001Z</time></trkpt><trkpt lat="42.558507123263894" lon="13.475934442738817"><ele>764.0</ele><time>2026-04-19T09:56:44Z</time></trkpt><trkpt lat="42.558394912256134" lon="13.475983940726579"><ele>764.0</ele><time>2026-04-19T09:56:45Z</time></trkpt><trkpt lat="42.55828949240894" lon="13.476068737207232"><ele>764.0</ele><time>2026-04-19T09:56:46Z</time></trkpt><trkpt lat="42.55820508253372" lon="13.476168866752499"><ele>767.0</ele><time>2026-04-19T09:56:47Z</time></trkpt><trkpt lat="42.55811069520403" lon="13.476270079651417"><ele>770.0</ele><time>2026-04-19T09:56:48Z</time></trkpt><trkpt lat="42.55800568998607" lon="13.476330846594102"><ele>773.0</ele><time>2026-04-19T09:56:49Z</time></trkpt><trkpt lat="42.557890897757645" lon="13.476369539439137"><ele>776.0</ele><time>2026-04-19T09:56:50Z</time></trkpt><trkpt lat="42.55777890681643" lon="13.476404098750182"><ele>776.0</ele><time>2026-04-19T09:56:51Z</time></trkpt><trkpt lat="42.55767034504037" lon="13.476474218748345"><ele>776.0</ele><time>2026-04-19T09:56:52Z</time></trkpt><trkpt lat="42.557570493681936" lon="13.47656099007835"><ele>776.0</ele><time>2026-04-19T09:56:53Z</time></trkpt><trkpt lat="42.557477160194104" lon="13.476645037319985"><ele>776.0</ele><time>2026-04-19T09:56:54Z</time></trkpt><trkpt lat="42.55737830666426" lon="13.47670434779129"><ele>776.0</ele><time>2026-04-19T09:56:55Z</time></trkpt><trkpt lat="42.5572707803063" lon="13.476739852392717"><ele>776.0</ele><time>2026-04-19T09:56:56Z</time></trkpt><trkpt lat="42.55715311547416" lon="13.476759424962774"><ele>776.0</ele><time>2026-04-19T09:56:57Z</time></trkpt><trkpt lat="42.55703034377197" lon="13.47677032467221"><ele>776.0</ele><time>2026-04-19T09:56:58Z</time></trkpt><trkpt lat="42.55691479235527" lon="13.476784637264547"><ele>771.1999999999999</ele><time>2026-04-19T09:56:59Z</time></trkpt><trkpt lat="42.556802749738004" lon="13.476798071875782"><ele>766.4</ele><time>2026-04-19T09:57:00Z</time></trkpt><trkpt lat="42.55669618640439" lon="13.476818233042499"><ele>761.6</ele><time>2026-04-19T09:57:01Z</time></trkpt><trkpt lat="42.5565968466982" lon="13.476872989766695"><ele>756.8</ele><time>2026-04-19T09:57:02Z</time></trkpt><trkpt lat="42.556499017225605" lon="13.47696732229808"><ele>752.0</ele><time>2026-04-19T09:57:03Z</time></trkpt><trkpt lat="42.556408949127245" lon="13.477084802502528"><ele>747.6</ele><time>2026-04-19T09:57:04Z</time></trkpt><trkpt lat="42.556327655727934" lon="13.477200890035821"><ele>743.2</ele><time>2026-04-19T09:57:05Z</time></trkpt><trkpt lat="42.55624929983396" lon="13.477315305629162"><ele>738.8</ele><time>2026-04-19T09:57:06Z</time></trkpt><trkpt lat="42.556181057057856" lon="13.477436450819736"><ele>734.4</ele><time>2026-04-19T09:57:07Z</time></trkpt><trkpt lat="42.55612905592023" lon="13.477553139102511"><ele>730.0</ele><time>2026-04-19T09:57:08Z</time></trkpt><trkpt lat="42.55609369574164" lon="13.477665623589377"><ele>730.0</ele><time>2026-04-19T09:57:09Z</time></trkpt><trkpt lat="42.55608920480637" lon="13.477808961651414"><ele>730.0</ele><time>2026-04-19T09:57:10Z</time></trkpt><trkpt lat="42.55611032538522" lon="13.477974447063382"><ele>730.0</ele><time>2026-04-19T09:57:11Z</time></trkpt><trkpt lat="42.556133223006476" lon="13.478129766007868"><ele>730.0</ele><time>2026-04-19T09:57:12Z</time></trkpt><trkpt lat="42.55614951189744" lon="13.478305113869247"><ele>730.0</ele><time>2026-04-19T09:57:13Z</time></trkpt><trkpt lat="42.5561555279118" lon="13.478483572391044"><ele>730.0</ele><time>2026-04-19T09:57:14Z</time></trkpt><trkpt lat="42.55615201738213" lon="13.478658449106533"><ele>730.0</ele><time>2026-04-19T09:57:15Z</time></trkpt><trkpt lat="42.556146721153254" lon="13.47882674124086"><ele>730.0</ele><time>2026-04-19T09:57:16Z</time></trkpt><trkpt lat="42.55614424148218" lon="13.478992965595948"><ele>730.0</ele><time>2026-04-19T09:57:17Z</time></trkpt><trkpt lat="42.55612964414115" lon="13.47915092654388"><ele>730.0</ele><time>2026-04-19T09:57:18Z</time></trkpt><trkpt lat="42.556126332935946" lon="13.479289678162061"><ele>730.0</ele><time>2026-04-19T09:57:19Z</time></trkpt><trkpt lat="42.55614693882623" lon="13.47941221872947"><ele>730.0</ele><time>2026-04-19T09:57:20Z</time></trkpt><trkpt lat="42.5562058177506" lon="13.479516247507615"><ele>730.0</ele><time>2026-04-19T09:57:21Z</time></trkpt><trkpt lat="42.556289304718504" lon="13.479584128097352"><ele>736.2</ele><time>2026-04-19T09:57:22Z</time></trkpt><trkpt lat="42.55637091843162" lon="13.479647250624225"><ele>742.4</ele><time>2026-04-19T09:57:23Z</time></trkpt><trkpt lat="42.556413137682505" lon="13.479758914666107"><ele>748.5999999999999</ele><time>2026-04-19T09:57:24Z</time></trkpt><trkpt lat="42.55643225418523" lon="13.47992262566818"><ele>754.8</ele><time>2026-04-19T09:57:25Z</time></trkpt><trkpt lat="42.55645927235674" lon="13.480094019136445"><ele>761.0</ele><time>2026-04-19T09:57:26Z</time></trkpt><trkpt lat="42.55648890754567" lon="13.480233154930252"><ele>761.0</ele><time>2026-04-19T09:57:27Z</time></trkpt><trkpt lat="42.55650309328359" lon="13.480350290460205"><ele>761.0</ele><time>2026-04-19T09:57:28Z</time></trkpt><trkpt lat="42.55649346431686" lon="13.480453776862808"><ele>761.0</ele><time>2026-04-19T09:57:29Z</time></trkpt><trkpt lat="42.5564462819276" lon="13.48054599805286"><ele>761.0</ele><time>2026-04-19T09:57:30Z</time></trkpt><trkpt lat="42.5563735536258" lon="13.480594378377738"><ele>761.0</ele><time>2026-04-19T09:57:31Z</time></trkpt><trkpt lat="42.5563066616375" lon="13.480631579675224"><ele>761.0</ele><time>2026-04-19T09:57:32Z</time></trkpt><trkpt lat="42.5562421638651" lon="13.480605328412665"><ele>756.0</ele><time>2026-04-19T09:57:33Z</time></trkpt><trkpt lat="42.55618193551737" lon="13.48050425695736"><ele>751.0</ele><time>2026-04-19T09:57:34Z</time></trkpt><trkpt lat="42.55607843109523" lon="13.480360380187753"><ele>746.0</ele><time>2026-04-19T09:57:35Z</time></trkpt><trkpt lat="42.55593320985123" lon="13.480193329199105"><ele>741.0</ele><time>2026-04-19T09:57:36Z</time></trkpt><trkpt lat="42.55577867419793" lon="13.480062646855364"><ele>741.0</ele><time>2026-04-19T09:57:37Z</time></trkpt><trkpt lat="42.55564738337994" lon="13.479945517041184"><ele>741.0</ele><time>2026-04-19T09:57:38Z</time></trkpt><trkpt lat="42.55553935417927" lon="13.479847468297729"><ele>741.0</ele><time>2026-04-19T09:57:39Z</time></trkpt><trkpt lat="42.55545272639389" lon="13.479766576266204"><ele>741.0</ele><time>2026-04-19T09:57:40Z</time></trkpt><trkpt lat="42.55537268069679" lon="13.479699845670197"><ele>742.5</ele><time>2026-04-19T09:57:41Z</time></trkpt><trkpt lat="42.555281668310684" lon="13.479664676477865"><ele>744.0</ele><time>2026-04-19T09:57:42Z</time></trkpt><trkpt lat="42.55517551524111" lon="13.47969072644486"><ele>745.5</ele><time>2026-04-19T09:57:43Z</time></trkpt><trkpt lat="42.555059026424765" lon="13.479774634430367"><ele>747.0</ele><time>2026-04-19T09:57:44Z</time></trkpt><trkpt lat="42.554946198535475" lon="13.479858168765613"><ele>747.0</ele><time>2026-04-19T09:57:45Z</time></trkpt><trkpt lat="42.55484194573483" lon="13.479937848558667"><ele>747.0</ele><time>2026-04-19T09:57:46Z</time></trkpt><trkpt lat="42.5547610480834" lon="13.479985465381011"><ele>747.0</ele><time>2026-04-19T09:57:47Z</time></trkpt><trkpt lat="42.554679102224455" lon="13.479991280870603"><ele>747.0</ele><time>2026-04-19T09:57:48Z</time></trkpt><trkpt lat="42.554596425814665" lon="13.479958816040936"><ele>747.0</ele><time>2026-04-19T09:57:49Z</time></trkpt><trkpt lat="42.55454701552344" lon="13.479847792893242"><ele>744.0</ele><time>2026-04-19T09:57:50Z</time></trkpt><trkpt lat="42.55448528527751" lon="13.479780080089183"><ele>741.0</ele><time>2026-04-19T09:57:51Z</time></trkpt><trkpt lat="42.554403828570535" lon="13.479740988556415"><ele>738.0</ele><time>2026-04-19T09:57:52Z</time></trkpt><trkpt lat="42.55429567717359" lon="13.479768636762413"><ele>735.0</ele><time>2026-04-19T09:57:53Z</time></trkpt><trkpt lat="42.5541877000432" lon="13.47983991691555"><ele>732.0</ele><time>2026-04-19T09:57:54Z</time></trkpt><trkpt lat="42.5540689057068" lon="13.479843976687727"><ele>732.0</ele><time>2026-04-19T09:57:55Z</time></trkpt><trkpt lat="42.55394670268423" lon="13.479846581300935"><ele>732.0</ele><time>2026-04-19T09:57:56Z</time></trkpt><trkpt lat="42.55385781196801" lon="13.479845460298575"><ele>732.0</ele><time>2026-04-19T09:57:57Z</time></trkpt><trkpt lat="42.55375163951786" lon="13.479830658306163"><ele>732.0</ele><time>2026-04-19T09:57:58Z</time></trkpt><trkpt lat="42.553646715068005" lon="13.479839857469448"><ele>732.0</ele><time>2026-04-19T09:57:59Z</time></trkpt><trkpt lat="42.55354074505185" lon="13.479846266027161"><ele>726.8</ele><time>2026-04-19T09:58:00Z</time></trkpt><trkpt lat="42.55344366086707" lon="13.479818856473406"><ele>721.6</ele><time>2026-04-19T09:58:01Z</time></trkpt><trkpt lat="42.553353171625076" lon="13.47980134334861"><ele>716.4</ele><time>2026-04-19T09:58:02Z</time></trkpt><trkpt lat="42.55331137801847" lon="13.479662625547254"><ele>711.1999999999999</ele><time>2026-04-19T09:58:03Z</time></trkpt><trkpt lat="42.55323629298298" lon="13.479542927053954"><ele>706.0</ele><time>2026-04-19T09:58:04Z</time></trkpt><trkpt lat="42.55315472200538" lon="13.479419017780815"><ele>707.0</ele><time>2026-04-19T09:58:05Z</time></trkpt><trkpt lat="42.55308341874764" lon="13.479309992404852"><ele>708.0</ele><time>2026-04-19T09:58:06Z</time></trkpt><trkpt lat="42.5530010973631" lon="13.479215884260045"><ele>709.0</ele><time>2026-04-19T09:58:07Z</time></trkpt><trkpt lat="42.55293296908718" lon="13.479100492893485"><ele>710.0</ele><time>2026-04-19T09:58:08Z</time></trkpt><trkpt lat="42.552863320020215" lon="13.478994980667142"><ele>711.0</ele><time>2026-04-19T09:58:09Z</time></trkpt><trkpt lat="42.552803384573714" lon="13.478904996116421"><ele>711.0</ele><time>2026-04-19T09:58:10Z</time></trkpt><trkpt lat="42.55275115532578" lon="13.478827283115372"><ele>711.0</ele><time>2026-04-19T09:58:11Z</time></trkpt><trkpt lat="42.55270439324768" lon="13.478755867115467"><ele>711.0</ele><time>2026-04-19T09:58:12Z</time></trkpt><trkpt lat="42.55265482698074" lon="13.478659137945286"><ele>711.0</ele><time>2026-04-19T09:58:14Z</time></trkpt><trkpt lat="42.55260234865148" lon="13.478583868262836"><ele>711.0</ele><time>2026-04-19T09:58:24.001Z</time></trkpt><trkpt lat="42.552507829475346" lon="13.478697839271055"><ele>711.0</ele><time>2026-04-19T09:58:25.001Z</time></trkpt><trkpt lat="42.552443183652784" lon="13.478770476553507"><ele>711.0</ele><time>2026-04-19T09:58:26.001Z</time></trkpt><trkpt lat="42.55234783802401" lon="13.478859474907868"><ele>711.0</ele><time>2026-04-19T09:58:27.001Z</time></trkpt><trkpt lat="42.55223609082822" lon="13.478979553428214"><ele>711.0</ele><time>2026-04-19T09:58:28.001Z</time></trkpt><trkpt lat="42.55212367523219" lon="13.479163225491952"><ele>711.0</ele><time>2026-04-19T09:58:29.001Z</time></trkpt><trkpt lat="42.55202588119697" lon="13.479384152055989"><ele>721.0</ele><time>2026-04-19T09:58:30.001Z</time></trkpt><trkpt lat="42.55195463595391" lon="13.479594212149804"><ele>731.0</ele><time>2026-04-19T09:58:31.001Z</time></trkpt><trkpt lat="42.551895167662934" lon="13.479807467902466"><ele>741.0</ele><time>2026-04-19T09:58:32.001Z</time></trkpt><trkpt lat="42.55185102005092" lon="13.480045203147622"><ele>741.0</ele><time>2026-04-19T09:58:33.001Z</time></trkpt><trkpt lat="42.55183178067203" lon="13.480302282543878"><ele>741.0</ele><time>2026-04-19T09:58:34.001Z</time></trkpt><trkpt lat="42.55184773858983" lon="13.480544605924912"><ele>741.0</ele><time>2026-04-19T09:58:35.001Z</time></trkpt><trkpt lat="42.551880094380365" lon="13.480767840771932"><ele>738.0</ele><time>2026-04-19T09:58:36.001Z</time></trkpt><trkpt lat="42.55192560432751" lon="13.480943954232632"><ele>735.0</ele><time>2026-04-19T09:58:37.001Z</time></trkpt><trkpt lat="42.55195320395277" lon="13.481077519045682"><ele>732.0</ele><time>2026-04-19T09:58:38.001Z</time></trkpt><trkpt lat="42.55195563417422" lon="13.481210794855954"><ele>729.0</ele><time>2026-04-19T09:58:39.001Z</time></trkpt><trkpt lat="42.55189304097841" lon="13.48134989877269"><ele>720.3333333333334</ele><time>2026-04-19T09:58:40.001Z</time></trkpt><trkpt lat="42.55176773096338" lon="13.481469576083757"><ele>711.6666666666667</ele><time>2026-04-19T09:58:41.001Z</time></trkpt><trkpt lat="42.55158346345827" lon="13.481618469352828"><ele>703.0</ele><time>2026-04-19T09:58:42.001Z</time></trkpt><trkpt lat="42.55143434142426" lon="13.481737242107757"><ele>703.0</ele><time>2026-04-19T09:58:43.001Z</time></trkpt><trkpt lat="42.55128816382489" lon="13.481828359583698"><ele>703.0</ele><time>2026-04-19T09:58:44.001Z</time></trkpt><trkpt lat="42.55116733355357" lon="13.481922365826199"><ele>703.0</ele><time>2026-04-19T09:58:45.001Z</time></trkpt><trkpt lat="42.550988553019" lon="13.482091517465198"><ele>702.6666666666667</ele><time>2026-04-19T09:58:46.001Z</time></trkpt><trkpt lat="42.55086193742131" lon="13.482270253420777"><ele>702.3333333333334</ele><time>2026-04-19T09:58:47.001Z</time></trkpt><trkpt lat="42.550746986844366" lon="13.482458993275587"><ele>702.0</ele><time>2026-04-19T09:58:48.001Z</time></trkpt><trkpt lat="42.55060998677774" lon="13.482636789280225"><ele>702.0</ele><time>2026-04-19T09:58:49.001Z</time></trkpt><trkpt lat="42.550497440352366" lon="13.482808403298234"><ele>702.0</ele><time>2026-04-19T09:58:50.001Z</time></trkpt><trkpt lat="42.55039410773425" lon="13.482965967829466"><ele>702.0</ele><time>2026-04-19T09:58:51.001Z</time></trkpt><trkpt lat="42.5503111326059" lon="13.48311964889796"><ele>705.25</ele><time>2026-04-19T09:58:52.001Z</time></trkpt><trkpt lat="42.55020325796879" lon="13.48323381627288"><ele>708.5</ele><time>2026-04-19T09:58:53.001Z</time></trkpt><trkpt lat="42.55010367579903" lon="13.48336237779953"><ele>711.75</ele><time>2026-04-19T09:58:54Z</time></trkpt><trkpt lat="42.550013014440324" lon="13.483478779004086"><ele>715.0</ele><time>2026-04-19T09:58:55Z</time></trkpt><trkpt lat="42.549917427625815" lon="13.483583447456386"><ele>715.0</ele><time>2026-04-19T09:58:56Z</time></trkpt><trkpt lat="42.54981809377305" lon="13.483658021391753"><ele>715.0</ele><time>2026-04-19T09:58:57Z</time></trkpt><trkpt lat="42.54970431140992" lon="13.483697642065753"><ele>715.0</ele><time>2026-04-19T09:58:58Z</time></trkpt><trkpt lat="42.54957964057422" lon="13.483707026425014"><ele>715.0</ele><time>2026-04-19T09:58:59Z</time></trkpt><trkpt lat="42.549453442341324" lon="13.483693992855335"><ele>718.0</ele><time>2026-04-19T09:59:00Z</time></trkpt><trkpt lat="42.54932436832961" lon="13.48367296233478"><ele>721.0</ele><time>2026-04-19T09:59:01Z</time></trkpt><trkpt lat="42.54919501105379" lon="13.483648102517124"><ele>724.0</ele><time>2026-04-19T09:59:02Z</time></trkpt><trkpt lat="42.54907675997997" lon="13.483587450243899"><ele>727.0</ele><time>2026-04-19T09:59:03Z</time></trkpt><trkpt lat="42.54894971932085" lon="13.48351118294511"><ele>727.0</ele><time>2026-04-19T09:59:04Z</time></trkpt><trkpt lat="42.54883016060005" lon="13.483450369908597"><ele>727.0</ele><time>2026-04-19T09:59:05Z</time></trkpt><trkpt lat="42.54872281816039" lon="13.483357540656446"><ele>727.0</ele><time>2026-04-19T09:59:06Z</time></trkpt><trkpt lat="42.54861141401124" lon="13.483284152428613"><ele>727.0</ele><time>2026-04-19T09:59:07Z</time></trkpt><trkpt lat="42.5485013621031" lon="13.483236879301336"><ele>722.0</ele><time>2026-04-19T09:59:08Z</time></trkpt><trkpt lat="42.54839569632314" lon="13.483200352193558"><ele>717.0</ele><time>2026-04-19T09:59:09Z</time></trkpt><trkpt lat="42.54829800875394" lon="13.483167578692248"><ele>712.0</ele><time>2026-04-19T09:59:10Z</time></trkpt><trkpt lat="42.54820306422017" lon="13.483154862423424"><ele>707.0</ele><time>2026-04-19T09:59:11Z</time></trkpt><trkpt lat="42.5481074096715" lon="13.483183911613347"><ele>702.0</ele><time>2026-04-19T09:59:12Z</time></trkpt><trkpt lat="42.54802659074673" lon="13.483251058341814"><ele>702.0</ele><time>2026-04-19T09:59:13Z</time></trkpt><trkpt lat="42.54796394150033" lon="13.483352133728614"><ele>702.0</ele><time>2026-04-19T09:59:14Z</time></trkpt><trkpt lat="42.54791152964127" lon="13.483452948684942"><ele>702.0</ele><time>2026-04-19T09:59:15Z</time></trkpt><trkpt lat="42.5478629382595" lon="13.483550767269438"><ele>702.0</ele><time>2026-04-19T09:59:16Z</time></trkpt><trkpt lat="42.54783737777318" lon="13.483659688252619"><ele>702.0</ele><time>2026-04-19T09:59:17Z</time></trkpt><trkpt lat="42.54786193632836" lon="13.483783363307937"><ele>701.25</ele><time>2026-04-19T09:59:18Z</time></trkpt><trkpt lat="42.54794386568264" lon="13.48389693648204"><ele>700.5</ele><time>2026-04-19T09:59:19Z</time></trkpt><trkpt lat="42.54806097342249" lon="13.48400304390069"><ele>699.75</ele><time>2026-04-19T09:59:20Z</time></trkpt><trkpt lat="42.54822585695741" lon="13.484113272578607"><ele>699.0</ele><time>2026-04-19T09:59:21Z</time></trkpt><trkpt lat="42.54840304379249" lon="13.484257079691943"><ele>699.0</ele><time>2026-04-19T09:59:22Z</time></trkpt><trkpt lat="42.54855370740367" lon="13.48440373074268"><ele>699.0</ele><time>2026-04-19T09:59:23Z</time></trkpt><trkpt lat="42.54865900693938" lon="13.484525634256391"><ele>699.0</ele><time>2026-04-19T09:59:24Z</time></trkpt><trkpt lat="42.54875253817439" lon="13.484626279218379"><ele>699.0</ele><time>2026-04-19T09:59:25Z</time></trkpt><trkpt lat="42.54880564450979" lon="13.484759525860746"><ele>694.5</ele><time>2026-04-19T09:59:26Z</time></trkpt><trkpt lat="42.548872561120525" lon="13.484884167617949"><ele>690.0</ele><time>2026-04-19T09:59:27Z</time></trkpt><trkpt lat="42.54891790651599" lon="13.485021491995944"><ele>685.5</ele><time>2026-04-19T09:59:28Z</time></trkpt><trkpt lat="42.54896865131054" lon="13.485158912162204"><ele>681.0</ele><time>2026-04-19T09:59:29Z</time></trkpt><trkpt lat="42.549022552969" lon="13.485299688644371"><ele>686.0</ele><time>2026-04-19T09:59:30Z</time></trkpt><trkpt lat="42.5490739631737" lon="13.485445556376671"><ele>691.0</ele><time>2026-04-19T09:59:31Z</time></trkpt><trkpt lat="42.54912517052022" lon="13.48559217876264"><ele>696.0</ele><time>2026-04-19T09:59:32Z</time></trkpt><trkpt lat="42.54916090559066" lon="13.485748788668444"><ele>701.0</ele><time>2026-04-19T09:59:33Z</time></trkpt><trkpt lat="42.54917105626594" lon="13.485915687962091"><ele>701.0</ele><time>2026-04-19T09:59:34Z</time></trkpt><trkpt lat="42.54917874680707" lon="13.486079054273908"><ele>701.0</ele><time>2026-04-19T09:59:35Z</time></trkpt><trkpt lat="42.54920525092943" lon="13.486237837904863"><ele>701.0</ele><time>2026-04-19T09:59:36Z</time></trkpt><trkpt lat="42.549250140419936" lon="13.4863919201087"><ele>701.0</ele><time>2026-04-19T09:59:37Z</time></trkpt><trkpt lat="42.54929269117803" lon="13.486548353099485"><ele>705.75</ele><time>2026-04-19T09:59:38Z</time></trkpt><trkpt lat="42.549338432788375" lon="13.486702284272154"><ele>710.5</ele><time>2026-04-19T09:59:39Z</time></trkpt><trkpt lat="42.54939229479902" lon="13.4868529574968"><ele>715.25</ele><time>2026-04-19T09:59:40Z</time></trkpt><trkpt lat="42.54945780273434" lon="13.486997806387725"><ele>720.0</ele><time>2026-04-19T09:59:41Z</time></trkpt><trkpt lat="42.549535745039584" lon="13.487137265094724"><ele>711.0</ele><time>2026-04-19T09:59:42Z</time></trkpt><trkpt lat="42.54962025460671" lon="13.487271639522886"><ele>702.0</ele><time>2026-04-19T09:59:43Z</time></trkpt><trkpt lat="42.54969372676812" lon="13.487412179467182"><ele>693.0</ele><time>2026-04-19T09:59:44Z</time></trkpt><trkpt lat="42.54974494200542" lon="13.48756639901164"><ele>684.0</ele><time>2026-04-19T09:59:45Z</time></trkpt><trkpt lat="42.54978625661697" lon="13.487735932785618"><ele>684.0</ele><time>2026-04-19T09:59:46Z</time></trkpt><trkpt lat="42.54983147012044" lon="13.48790586000648"><ele>684.0</ele><time>2026-04-19T09:59:47Z</time></trkpt><trkpt lat="42.54986691128011" lon="13.488088755828384"><ele>684.0</ele><time>2026-04-19T09:59:48Z</time></trkpt><trkpt lat="42.54990067197423" lon="13.488276515229707"><ele>684.0</ele><time>2026-04-19T09:59:49Z</time></trkpt><trkpt lat="42.549906689924036" lon="13.488470656582246"><ele>685.0</ele><time>2026-04-19T09:59:50Z</time></trkpt><trkpt lat="42.549853371200626" lon="13.488655838283057"><ele>686.0</ele><time>2026-04-19T09:59:51Z</time></trkpt><trkpt lat="42.549801560382704" lon="13.488844655785384"><ele>687.0</ele><time>2026-04-19T09:59:52Z</time></trkpt><trkpt lat="42.54973475014393" lon="13.489023671699288"><ele>688.0</ele><time>2026-04-19T09:59:53Z</time></trkpt><trkpt lat="42.54967402070743" lon="13.489214185909587"><ele>684.0</ele><time>2026-04-19T09:59:54Z</time></trkpt><trkpt lat="42.549573894513706" lon="13.48937961673808"><ele>680.0</ele><time>2026-04-19T09:59:55Z</time></trkpt><trkpt lat="42.54950446511311" lon="13.489574755457255"><ele>676.0</ele><time>2026-04-19T09:59:56Z</time></trkpt><trkpt lat="42.549437833233426" lon="13.48975748932966"><ele>681.25</ele><time>2026-04-19T09:59:57Z</time></trkpt><trkpt lat="42.54937762508185" lon="13.48993647402523"><ele>686.5</ele><time>2026-04-19T09:59:58Z</time></trkpt><trkpt lat="42.549332942134356" lon="13.490122917547172"><ele>691.75</ele><time>2026-04-19T09:59:59Z</time></trkpt><trkpt lat="42.54931368586288" lon="13.49031923271529"><ele>697.0</ele><time>2026-04-19T10:00:00Z</time></trkpt><trkpt lat="42.54930769732266" lon="13.49051542619966"><ele>697.0</ele><time>2026-04-19T10:00:01Z</time></trkpt><trkpt lat="42.54930082436323" lon="13.490708965083268"><ele>697.0</ele><time>2026-04-19T10:00:02Z</time></trkpt><trkpt lat="42.54929371787693" lon="13.490899770870893"><ele>697.0</ele><time>2026-04-19T10:00:03Z</time></trkpt><trkpt lat="42.54928167496854" lon="13.491082083088315"><ele>697.0</ele><time>2026-04-19T10:00:04Z</time></trkpt><trkpt lat="42.549259906780385" lon="13.491259431955442"><ele>693.25</ele><time>2026-04-19T10:00:05Z</time></trkpt><trkpt lat="42.54921719126769" lon="13.491437027197334"><ele>689.5</ele><time>2026-04-19T10:00:06Z</time></trkpt><trkpt lat="42.549150449811556" lon="13.491613300083236"><ele>685.75</ele><time>2026-04-19T10:00:07Z</time></trkpt><trkpt lat="42.54907562881134" lon="13.491788537142542"><ele>682.0</ele><time>2026-04-19T10:00:08Z</time></trkpt><trkpt lat="42.54899109661302" lon="13.491943439036586"><ele>682.0</ele><time>2026-04-19T10:00:09Z</time></trkpt><trkpt lat="42.54886728428797" lon="13.492056078386522"><ele>682.0</ele><time>2026-04-19T10:00:10Z</time></trkpt><trkpt lat="42.54873565838168" lon="13.492194373511714"><ele>682.0</ele><time>2026-04-19T10:00:11Z</time></trkpt><trkpt lat="42.54856484545884" lon="13.492408071358547"><ele>687.5</ele><time>2026-04-19T10:00:12Z</time></trkpt><trkpt lat="42.54840031097943" lon="13.492668645326628"><ele>693.0</ele><time>2026-04-19T10:00:13Z</time></trkpt><trkpt lat="42.54823986507895" lon="13.492928431481268"><ele>679.0</ele><time>2026-04-19T10:00:14Z</time></trkpt><trkpt lat="42.54804812196303" lon="13.49311194780254"><ele>665.0</ele><time>2026-04-19T10:00:15Z</time></trkpt><trkpt lat="42.54787738478008" lon="13.493297803161123"><ele>664.3333333333333</ele><time>2026-04-19T10:00:16Z</time></trkpt><trkpt lat="42.54772372275362" lon="13.49349481983028"><ele>663.6666666666666</ele><time>2026-04-19T10:00:17Z</time></trkpt><trkpt lat="42.54759289580684" lon="13.49370144284939"><ele>663.0</ele><time>2026-04-19T10:00:18Z</time></trkpt><trkpt lat="42.54744907048319" lon="13.493879507607994"><ele>663.0</ele><time>2026-04-19T10:00:19Z</time></trkpt><trkpt lat="42.54729793572784" lon="13.494020635588551"><ele>663.0</ele><time>2026-04-19T10:00:20Z</time></trkpt><trkpt lat="42.54714474644519" lon="13.494139124456504"><ele>663.0</ele><time>2026-04-19T10:00:21Z</time></trkpt><trkpt lat="42.54700089464073" lon="13.494237959678296"><ele>662.0</ele><time>2026-04-19T10:00:22Z</time></trkpt><trkpt lat="42.54685737322466" lon="13.494325041038628"><ele>661.0</ele><time>2026-04-19T10:00:23Z</time></trkpt><trkpt lat="42.54672174032806" lon="13.494412821698832"><ele>660.0</ele><time>2026-04-19T10:00:24.001Z</time></trkpt><trkpt lat="42.54660158832066" lon="13.494514905541044"><ele>659.0</ele><time>2026-04-19T10:00:25.001Z</time></trkpt><trkpt lat="42.546495011874285" lon="13.494654120159856"><ele>659.0</ele><time>2026-04-19T10:00:26.001Z</time></trkpt><trkpt lat="42.546425357584226" lon="13.494861590220337"><ele>659.0</ele><time>2026-04-19T10:00:27.001Z</time></trkpt><trkpt lat="42.546388646638185" lon="13.495130085482058"><ele>659.0</ele><time>2026-04-19T10:00:28.001Z</time></trkpt><trkpt lat="42.546342200861474" lon="13.495459876144118"><ele>655.6666666666666</ele><time>2026-04-19T10:00:29.001Z</time></trkpt><trkpt lat="42.54630468248677" lon="13.495770693816791"><ele>652.3333333333334</ele><time>2026-04-19T10:00:30.001Z</time></trkpt><trkpt lat="42.54631058736479" lon="13.4960025129143"><ele>649.0</ele><time>2026-04-19T10:00:31.001Z</time></trkpt><trkpt lat="42.54628611469469" lon="13.496221464238339"><ele>645.0</ele><time>2026-04-19T10:00:32.001Z</time></trkpt><trkpt lat="42.546252821226446" lon="13.496389258230703"><ele>641.0</ele><time>2026-04-19T10:00:33.001Z</time></trkpt><trkpt lat="42.54616165841674" lon="13.496578062618486"><ele>637.0</ele><time>2026-04-19T10:00:34.001Z</time></trkpt><trkpt lat="42.5460253287856" lon="13.496764054209702"><ele>638.3333333333334</ele><time>2026-04-19T10:00:35.001Z</time></trkpt><trkpt lat="42.54585671092216" lon="13.496900315975045"><ele>639.6666666666666</ele><time>2026-04-19T10:00:36.001Z</time></trkpt><trkpt lat="42.54563569168313" lon="13.49701775803453"><ele>641.0</ele><time>2026-04-19T10:00:37.001Z</time></trkpt><trkpt lat="42.545393659995476" lon="13.49716240439671"><ele>645.6666666666666</ele><time>2026-04-19T10:00:38.001Z</time></trkpt><trkpt lat="42.54517994700901" lon="13.497234330135765"><ele>650.3333333333334</ele><time>2026-04-19T10:00:39.001Z</time></trkpt><trkpt lat="42.545007344565505" lon="13.497284091875642"><ele>655.0</ele><time>2026-04-19T10:00:40.001Z</time></trkpt><trkpt lat="42.54485699805655" lon="13.497343525101444"><ele>655.0</ele><time>2026-04-19T10:00:41.001Z</time></trkpt><trkpt lat="42.544718619438946" lon="13.497457558856778"><ele>655.0</ele><time>2026-04-19T10:00:42.001Z</time></trkpt><trkpt lat="42.54458479754051" lon="13.497632532681397"><ele>655.0</ele><time>2026-04-19T10:00:43.001Z</time></trkpt><trkpt lat="42.54446077232437" lon="13.497837161068592"><ele>657.3333333333334</ele><time>2026-04-19T10:00:44.001Z</time></trkpt><trkpt lat="42.54436919460672" lon="13.498064837431114"><ele>659.6666666666666</ele><time>2026-04-19T10:00:45.001Z</time></trkpt><trkpt lat="42.54431671228471" lon="13.498324535929067"><ele>662.0</ele><time>2026-04-19T10:00:46.001Z</time></trkpt><trkpt lat="42.54429317403745" lon="13.49858916339855"><ele>661.3333333333333</ele><time>2026-04-19T10:00:47.001Z</time></trkpt><trkpt lat="42.544303934861055" lon="13.498858288975875"><ele>660.6666666666666</ele><time>2026-04-19T10:00:48.001Z</time></trkpt><trkpt lat="42.5443433954645" lon="13.49916211328676"><ele>660.0</ele><time>2026-04-19T10:00:49.001Z</time></trkpt><trkpt lat="42.54440230899751" lon="13.499506101273274"><ele>663.3333333333334</ele><time>2026-04-19T10:00:50Z</time></trkpt><trkpt lat="42.544452526113524" lon="13.499782246826392"><ele>666.6666666666667</ele><time>2026-04-19T10:00:51Z</time></trkpt><trkpt lat="42.54449762608094" lon="13.500008005143444"><ele>670.0</ele><time>2026-04-19T10:00:52Z</time></trkpt><trkpt lat="42.54455684426196" lon="13.500252066103995"><ele>662.25</ele><time>2026-04-19T10:00:53Z</time></trkpt><trkpt lat="42.54463639623058" lon="13.500445509629998"><ele>654.5</ele><time>2026-04-19T10:00:54Z</time></trkpt><trkpt lat="42.54472626522446" lon="13.500602635690997"><ele>646.75</ele><time>2026-04-19T10:00:55Z</time></trkpt><trkpt lat="42.54482142679947" lon="13.500739349697314"><ele>639.0</ele><time>2026-04-19T10:00:56Z</time></trkpt><trkpt lat="42.5449016269981" lon="13.500876329346479"><ele>639.0</ele><time>2026-04-19T10:00:57Z</time></trkpt><trkpt lat="42.544979320028865" lon="13.501018296631612"><ele>639.0</ele><time>2026-04-19T10:00:57.999Z</time></trkpt><trkpt lat="42.54504946213461" lon="13.501155369842804"><ele>639.0</ele><time>2026-04-19T10:00:58.999Z</time></trkpt><trkpt lat="42.545115020560225" lon="13.501287291337906"><ele>639.0</ele><time>2026-04-19T10:00:59.999Z</time></trkpt><trkpt lat="42.5451750675906" lon="13.50141604903489"><ele>636.0</ele><time>2026-04-19T10:01:00.999Z</time></trkpt><trkpt lat="42.54523881874108" lon="13.50154213046064"><ele>633.0</ele><time>2026-04-19T10:01:01.999Z</time></trkpt><trkpt lat="42.54530559740527" lon="13.501666096720381"><ele>630.0</ele><time>2026-04-19T10:01:02.999Z</time></trkpt><trkpt lat="42.54537710131974" lon="13.501786368577056"><ele>627.0</ele><time>2026-04-19T10:01:03.999Z</time></trkpt><trkpt lat="42.54545505155598" lon="13.501900985805488"><ele>627.0</ele><time>2026-04-19T10:01:04.999Z</time></trkpt><trkpt lat="42.54554447090381" lon="13.502008813185316"><ele>627.0</ele><time>2026-04-19T10:01:05.999Z</time></trkpt><trkpt lat="42.545635012184015" lon="13.502109328563368"><ele>627.0</ele><time>2026-04-19T10:01:06.999Z</time></trkpt><trkpt lat="42.54572382631835" lon="13.502214658471948"><ele>627.0</ele><time>2026-04-19T10:01:07.999Z</time></trkpt><trkpt lat="42.545811510634394" lon="13.502329140617661"><ele>630.5</ele><time>2026-04-19T10:01:08.999Z</time></trkpt><trkpt lat="42.545897413543884" lon="13.502451428682484"><ele>634.0</ele><time>2026-04-19T10:01:09.999Z</time></trkpt><trkpt lat="42.54597778395644" lon="13.502579236167886"><ele>637.5</ele><time>2026-04-19T10:01:10.999Z</time></trkpt><trkpt lat="42.54605406833088" lon="13.502710499986264"><ele>641.0</ele><time>2026-04-19T10:01:11.999Z</time></trkpt><trkpt lat="42.5461256380206" lon="13.502848227651548"><ele>644.75</ele><time>2026-04-19T10:01:12.999Z</time></trkpt><trkpt lat="42.54619391888059" lon="13.502992514316047"><ele>648.5</ele><time>2026-04-19T10:01:13.999Z</time></trkpt><trkpt lat="42.54625973233075" lon="13.50314477669357"><ele>652.25</ele><time>2026-04-19T10:01:14.999Z</time></trkpt><trkpt lat="42.54631456090432" lon="13.50330784838151"><ele>656.0</ele><time>2026-04-19T10:01:15.999Z</time></trkpt><trkpt lat="42.54636311533165" lon="13.503481252258592"><ele>649.0</ele><time>2026-04-19T10:01:16.999Z</time></trkpt><trkpt lat="42.546406058890824" lon="13.503663951686821"><ele>642.0</ele><time>2026-04-19T10:01:17.999Z</time></trkpt><trkpt lat="42.546450871118786" lon="13.503853208133176"><ele>635.0</ele><time>2026-04-19T10:01:18.999Z</time></trkpt><trkpt lat="42.54649626002735" lon="13.504051980713932"><ele>628.0</ele><time>2026-04-19T10:01:19.999Z</time></trkpt><trkpt lat="42.54654195965796" lon="13.504264420227909"><ele>628.0</ele><time>2026-04-19T10:01:20.999Z</time></trkpt><trkpt lat="42.5465900455731" lon="13.504500036489107"><ele>628.0</ele><time>2026-04-19T10:01:21.999Z</time></trkpt><trkpt lat="42.54664591257014" lon="13.50475141640628"><ele>628.0</ele><time>2026-04-19T10:01:22.999Z</time></trkpt><trkpt lat="42.5466946828254" lon="13.50501581329606"><ele>629.0</ele><time>2026-04-19T10:01:23.999Z</time></trkpt><trkpt lat="42.54673008444421" lon="13.505266981216385"><ele>630.0</ele><time>2026-04-19T10:01:24.999Z</time></trkpt><trkpt lat="42.546754983839534" lon="13.505517227856977"><ele>631.0</ele><time>2026-04-19T10:01:25.999Z</time></trkpt><trkpt lat="42.54677709931957" lon="13.505769470554016"><ele>631.0</ele><time>2026-04-19T10:01:26.999Z</time></trkpt><trkpt lat="42.54679641905355" lon="13.506018843861415"><ele>631.0</ele><time>2026-04-19T10:01:27.999Z</time></trkpt><trkpt lat="42.54681037689877" lon="13.506267107375379"><ele>631.0</ele><time>2026-04-19T10:01:28.999Z</time></trkpt><trkpt lat="42.5468267226908" lon="13.506515143216841"><ele>632.3333333333334</ele><time>2026-04-19T10:01:29.999Z</time></trkpt><trkpt lat="42.54684296772681" lon="13.506763301883373"><ele>633.6666666666666</ele><time>2026-04-19T10:01:30.999Z</time></trkpt><trkpt lat="42.54686050007294" lon="13.507001026459571"><ele>635.0</ele><time>2026-04-19T10:01:31.999Z</time></trkpt><trkpt lat="42.54687440785236" lon="13.507239914203279"><ele>636.6666666666666</ele><time>2026-04-19T10:01:32.999Z</time></trkpt><trkpt lat="42.546884378258206" lon="13.507484078273203"><ele>638.3333333333334</ele><time>2026-04-19T10:01:33.999Z</time></trkpt><trkpt lat="42.546891912858904" lon="13.507732354452957"><ele>640.0</ele><time>2026-04-19T10:01:34.999Z</time></trkpt><trkpt lat="42.54689910691906" lon="13.507984472271492"><ele>640.0</ele><time>2026-04-19T10:01:35.999Z</time></trkpt><trkpt lat="42.54690690755689" lon="13.508233237840216"><ele>640.0</ele><time>2026-04-19T10:01:36.999Z</time></trkpt><trkpt lat="42.54691287201026" lon="13.508469048182866"><ele>640.0</ele><time>2026-04-19T10:01:37.999Z</time></trkpt><trkpt lat="42.546915217824356" lon="13.508695812274393"><ele>638.0</ele><time>2026-04-19T10:01:38.999Z</time></trkpt><trkpt lat="42.5469103160974" lon="13.508915583872701"><ele>636.0</ele><time>2026-04-19T10:01:39.999Z</time></trkpt><trkpt lat="42.546897748793214" lon="13.509129007869566"><ele>634.0</ele><time>2026-04-19T10:01:40.999Z</time></trkpt><trkpt lat="42.54687055482318" lon="13.509341313988326"><ele>634.0</ele><time>2026-04-19T10:01:41.999Z</time></trkpt><trkpt lat="42.54683135687619" lon="13.509545617085006"><ele>634.0</ele><time>2026-04-19T10:01:42.999Z</time></trkpt><trkpt lat="42.54678421224424" lon="13.509735870238446"><ele>634.0</ele><time>2026-04-19T10:01:43.999Z</time></trkpt><trkpt lat="42.54672679257758" lon="13.509906125225035"><ele>634.0</ele><time>2026-04-19T10:01:44.999Z</time></trkpt><trkpt lat="42.54664835008192" lon="13.510059557234175"><ele>629.0</ele><time>2026-04-19T10:01:45.999Z</time></trkpt><trkpt lat="42.54652706002198" lon="13.510196154634478"><ele>624.0</ele><time>2026-04-19T10:01:46.999Z</time></trkpt><trkpt lat="42.54635126690687" lon="13.510325790300655"><ele>619.0</ele><time>2026-04-19T10:01:47.999Z</time></trkpt><trkpt lat="42.54614189768215" lon="13.510465754756018"><ele>619.0</ele><time>2026-04-19T10:01:48.999Z</time></trkpt><trkpt lat="42.545965547655385" lon="13.510602909682717"><ele>619.0</ele><time>2026-04-19T10:01:49.999Z</time></trkpt><trkpt lat="42.54581524204941" lon="13.510726503898733"><ele>619.0</ele><time>2026-04-19T10:01:50.999Z</time></trkpt><trkpt lat="42.545676306451895" lon="13.510844039506308"><ele>619.0</ele><time>2026-04-19T10:01:51.999Z</time></trkpt><trkpt lat="42.54555654091853" lon="13.511000876124454"><ele>619.0</ele><time>2026-04-19T10:01:52.999Z</time></trkpt><trkpt lat="42.54545256784786" lon="13.511207021306902"><ele>619.0</ele><time>2026-04-19T10:01:53.999Z</time></trkpt><trkpt lat="42.54535915109129" lon="13.511449437359927"><ele>618.6666666666667</ele><time>2026-04-19T10:01:54.999Z</time></trkpt><trkpt lat="42.54527778243414" lon="13.511682582288309"><ele>618.3333333333334</ele><time>2026-04-19T10:01:55.999Z</time></trkpt><trkpt lat="42.54520051847907" lon="13.51189853548053"><ele>618.0</ele><time>2026-04-19T10:01:56.999Z</time></trkpt><trkpt lat="42.54513011148252" lon="13.512083471164056"><ele>618.0</ele><time>2026-04-19T10:01:57.999Z</time></trkpt><trkpt lat="42.54506767262372" lon="13.512250641395747"><ele>618.0</ele><time>2026-04-19T10:01:58.999Z</time></trkpt><trkpt lat="42.54501059387237" lon="13.512420464544892"><ele>618.0</ele><time>2026-04-19T10:01:59.999Z</time></trkpt><trkpt lat="42.54499133801969" lon="13.512598445722167"><ele>618.0</ele><time>2026-04-19T10:02:00.999Z</time></trkpt><trkpt lat="42.54502093796938" lon="13.512779322192962"><ele>621.3333333333334</ele><time>2026-04-19T10:02:01.999Z</time></trkpt><trkpt lat="42.545087740599094" lon="13.512962318226082"><ele>624.6666666666667</ele><time>2026-04-19T10:02:02.999Z</time></trkpt><trkpt lat="42.54516855696244" lon="13.513187125027848"><ele>628.0</ele><time>2026-04-19T10:02:03.999Z</time></trkpt><trkpt lat="42.5452302551187" lon="13.51338957354076"><ele>628.0</ele><time>2026-04-19T10:02:04.999Z</time></trkpt><trkpt lat="42.545270588708284" lon="13.513601666207629"><ele>628.0</ele><time>2026-04-19T10:02:05.999Z</time></trkpt><trkpt lat="42.54528757547598" lon="13.513835657293095"><ele>628.0</ele><time>2026-04-19T10:02:06.999Z</time></trkpt><trkpt lat="42.54528523676562" lon="13.514074705068074"><ele>627.3333333333334</ele><time>2026-04-19T10:02:07.999Z</time></trkpt><trkpt lat="42.54526106081564" lon="13.514307942001418"><ele>626.6666666666666</ele><time>2026-04-19T10:02:08.999Z</time></trkpt><trkpt lat="42.54521105961928" lon="13.514539159791154"><ele>626.0</ele><time>2026-04-19T10:02:09.999Z</time></trkpt><trkpt lat="42.545151387860194" lon="13.514759421186122"><ele>623.6666666666666</ele><time>2026-04-19T10:02:10.999Z</time></trkpt><trkpt lat="42.545096072674994" lon="13.514969171597581"><ele>621.3333333333334</ele><time>2026-04-19T10:02:11.999Z</time></trkpt><trkpt lat="42.54504984071219" lon="13.515167250063149"><ele>619.0</ele><time>2026-04-19T10:02:12.999Z</time></trkpt><trkpt lat="42.5450081407379" lon="13.515352886504198"><ele>619.25</ele><time>2026-04-19T10:02:13.999Z</time></trkpt><trkpt lat="42.54500433075873" lon="13.515523426370853"><ele>619.5</ele><time>2026-04-19T10:02:14.999Z</time></trkpt><trkpt lat="42.545013616565036" lon="13.515694487873407"><ele>619.75</ele><time>2026-04-19T10:02:15.999Z</time></trkpt><trkpt lat="42.54505761278258" lon="13.515855076891036"><ele>620.0</ele><time>2026-04-19T10:02:16.999Z</time></trkpt><trkpt lat="42.54514002800515" lon="13.516014739610368"><ele>620.0</ele><time>2026-04-19T10:02:17.999Z</time></trkpt><trkpt lat="42.54524231437273" lon="13.51616937900379"><ele>620.0</ele><time>2026-04-19T10:02:18.999Z</time></trkpt><trkpt lat="42.54532536789096" lon="13.516326490539498"><ele>620.0</ele><time>2026-04-19T10:02:19.999Z</time></trkpt><trkpt lat="42.5453856446116" lon="13.516496349663544"><ele>620.0</ele><time>2026-04-19T10:02:20.999Z</time></trkpt><trkpt lat="42.5454560635395" lon="13.516656273820033"><ele>610.0</ele><time>2026-04-19T10:02:21.999Z</time></trkpt><trkpt lat="42.54558243640241" lon="13.516779583865864"><ele>600.0</ele><time>2026-04-19T10:02:22.999Z</time></trkpt><trkpt lat="42.54574879878578" lon="13.516867637069216"><ele>590.0</ele><time>2026-04-19T10:02:23.999Z</time></trkpt><trkpt lat="42.54593956059475" lon="13.516924987799715"><ele>590.0</ele><time>2026-04-19T10:02:24.999Z</time></trkpt><trkpt lat="42.54611438206451" lon="13.516965209943454"><ele>590.0</ele><time>2026-04-19T10:02:25.999Z</time></trkpt><trkpt lat="42.54627571183973" lon="13.517035007826909"><ele>590.0</ele><time>2026-04-19T10:02:26.999Z</time></trkpt><trkpt lat="42.5464228401392" lon="13.517116177917552"><ele>592.0</ele><time>2026-04-19T10:02:27.999Z</time></trkpt><trkpt lat="42.546563654918415" lon="13.517183455087011"><ele>594.0</ele><time>2026-04-19T10:02:28.999Z</time></trkpt><trkpt lat="42.54668970288057" lon="13.517233424211087"><ele>596.0</ele><time>2026-04-19T10:02:30Z</time></trkpt><trkpt lat="42.54680113176599" lon="13.51730528849463"><ele>598.0</ele><time>2026-04-19T10:02:31Z</time></trkpt><trkpt lat="42.54689223255893" lon="13.517425884204075"><ele>598.0</ele><time>2026-04-19T10:02:32Z</time></trkpt><trkpt lat="42.54694762378928" lon="13.517582509668825"><ele>598.0</ele><time>2026-04-19T10:02:33Z</time></trkpt><trkpt lat="42.546959659947724" lon="13.517743985933446"><ele>598.0</ele><time>2026-04-19T10:02:34Z</time></trkpt><trkpt lat="42.54693560475362" lon="13.517915568573901"><ele>598.0</ele><time>2026-04-19T10:02:35Z</time></trkpt><trkpt lat="42.54688372876161" lon="13.518101571709995"><ele>598.0</ele><time>2026-04-19T10:02:36Z</time></trkpt><trkpt lat="42.54681381668087" lon="13.518279563635952"><ele>598.0</ele><time>2026-04-19T10:02:37Z</time></trkpt><trkpt lat="42.546736278131206" lon="13.51845200266866"><ele>598.0</ele><time>2026-04-19T10:02:38Z</time></trkpt><trkpt lat="42.546670865090505" lon="13.518649098834251"><ele>593.3333333333334</ele><time>2026-04-19T10:02:39Z</time></trkpt><trkpt lat="42.546618637215566" lon="13.518875509540916"><ele>588.6666666666666</ele><time>2026-04-19T10:02:40Z</time></trkpt><trkpt lat="42.54658262979721" lon="13.519116076253246"><ele>584.0</ele><time>2026-04-19T10:02:41Z</time></trkpt><trkpt lat="42.54655075649163" lon="13.519324835907799"><ele>584.0</ele><time>2026-04-19T10:02:42Z</time></trkpt><trkpt lat="42.54651755303239" lon="13.519494597897834"><ele>584.0</ele><time>2026-04-19T10:02:43Z</time></trkpt><trkpt lat="42.546488903292634" lon="13.519640299275624"><ele>584.0</ele><time>2026-04-19T10:02:44Z</time></trkpt><trkpt lat="42.54646574910417" lon="13.519777612094929"><ele>584.0</ele><time>2026-04-19T10:02:45Z</time></trkpt><trkpt lat="42.546483402929965" lon="13.519914416878972"><ele>584.0</ele><time>2026-04-19T10:02:46Z</time></trkpt><trkpt lat="42.54654024126969" lon="13.520044400001545"><ele>583.5</ele><time>2026-04-19T10:02:47Z</time></trkpt><trkpt lat="42.54661224056603" lon="13.520169233568703"><ele>583.0</ele><time>2026-04-19T10:02:48Z</time></trkpt><trkpt lat="42.54665271118859" lon="13.52033705361417"><ele>582.5</ele><time>2026-04-19T10:02:49Z</time></trkpt><trkpt lat="42.546648156346656" lon="13.520564434329167"><ele>582.0</ele><time>2026-04-19T10:02:50Z</time></trkpt><trkpt lat="42.54660342996511" lon="13.52077695213406"><ele>581.6666666666666</ele><time>2026-04-19T10:02:51Z</time></trkpt><trkpt lat="42.54653178902077" lon="13.521022193780182"><ele>581.3333333333333</ele><time>2026-04-19T10:02:53Z</time></trkpt><trkpt lat="42.546469486206455" lon="13.521217842319478"><ele>581.0</ele><time>2026-04-19T10:02:54Z</time></trkpt><trkpt lat="42.54640372340159" lon="13.521424416381892"><ele>576.6666666666666</ele><time>2026-04-19T10:02:55Z</time></trkpt><trkpt lat="42.54633398452181" lon="13.521643480352266"><ele>572.3333333333334</ele><time>2026-04-19T10:02:56Z</time></trkpt><trkpt lat="42.546266218308226" lon="13.521856347303105"><ele>568.0</ele><time>2026-04-19T10:02:57Z</time></trkpt><trkpt lat="42.546205760135635" lon="13.522046258194926"><ele>576.75</ele><time>2026-04-19T10:02:58Z</time></trkpt><trkpt lat="42.546152490168645" lon="13.522214779509"><ele>585.5</ele><time>2026-04-19T10:02:59Z</time></trkpt><trkpt lat="42.54610808366783" lon="13.522364047396122"><ele>594.25</ele><time>2026-04-19T10:03:00Z</time></trkpt><trkpt lat="42.546081929969965" lon="13.522508610161399"><ele>603.0</ele><time>2026-04-19T10:03:00.999Z</time></trkpt><trkpt lat="42.546052868064706" lon="13.522644545615133"><ele>603.0</ele><time>2026-04-19T10:03:01.999Z</time></trkpt><trkpt lat="42.54605551168358" lon="13.522796167292826"><ele>603.0</ele><time>2026-04-19T10:03:02.999Z</time></trkpt><trkpt lat="42.54610203950323" lon="13.522952706433662"><ele>603.0</ele><time>2026-04-19T10:03:03.999Z</time></trkpt><trkpt lat="42.54619354338884" lon="13.52308377220224"><ele>603.0</ele><time>2026-04-19T10:03:04.999Z</time></trkpt><trkpt lat="42.54632060515358" lon="13.523175529608208"><ele>596.0</ele><time>2026-04-19T10:03:05.999Z</time></trkpt><trkpt lat="42.54647646660465" lon="13.523234247842058"><ele>589.0</ele><time>2026-04-19T10:03:06.999Z</time></trkpt><trkpt lat="42.54665436510503" lon="13.523299939337162"><ele>582.0</ele><time>2026-04-19T10:03:07.999Z</time></trkpt><trkpt lat="42.54681143152338" lon="13.523384825160838"><ele>582.0</ele><time>2026-04-19T10:03:08.999Z</time></trkpt><trkpt lat="42.54695009663599" lon="13.523477749902321"><ele>582.0</ele><time>2026-04-19T10:03:09.999Z</time></trkpt><trkpt lat="42.5470833324648" lon="13.523578118955035"><ele>582.0</ele><time>2026-04-19T10:03:10.999Z</time></trkpt><trkpt lat="42.54721024624452" lon="13.523662123784657"><ele>582.0</ele><time>2026-04-19T10:03:11.999Z</time></trkpt><trkpt lat="42.54736030420676" lon="13.523710481456614"><ele>576.3333333333334</ele><time>2026-04-19T10:03:12.999Z</time></trkpt><trkpt lat="42.54753275694932" lon="13.523694492688524"><ele>570.6666666666667</ele><time>2026-04-19T10:03:13.999Z</time></trkpt><trkpt lat="42.54769676977289" lon="13.523666706707079"><ele>565.0</ele><time>2026-04-19T10:03:14.999Z</time></trkpt><trkpt lat="42.54784066051107" lon="13.523626911945335"><ele>562.4</ele><time>2026-04-19T10:03:15.999Z</time></trkpt><trkpt lat="42.54796457026938" lon="13.523571470503773"><ele>559.8</ele><time>2026-04-19T10:03:16.999Z</time></trkpt><trkpt lat="42.548060493860056" lon="13.523520303992594"><ele>557.2</ele><time>2026-04-19T10:03:17.999Z</time></trkpt><trkpt lat="42.54815228647736" lon="13.523492153427794"><ele>554.6</ele><time>2026-04-19T10:03:18.999Z</time></trkpt><trkpt lat="42.54827159760953" lon="13.52351717558563"><ele>552.0</ele><time>2026-04-19T10:03:19.999Z</time></trkpt><trkpt lat="42.548386289360096" lon="13.52358954691529"><ele>552.0</ele><time>2026-04-19T10:03:20.999Z</time></trkpt><trkpt lat="42.54848316614986" lon="13.523683958366913"><ele>552.0</ele><time>2026-04-19T10:03:21.999Z</time></trkpt><trkpt lat="42.54857850728755" lon="13.523769416232405"><ele>552.0</ele><time>2026-04-19T10:03:22.999Z</time></trkpt><trkpt lat="42.548693049603195" lon="13.523795081079056"><ele>552.0</ele><time>2026-04-19T10:03:23.999Z</time></trkpt><trkpt lat="42.54881941543564" lon="13.523752287023884"><ele>552.75</ele><time>2026-04-19T10:03:24.999Z</time></trkpt><trkpt lat="42.54892714662837" lon="13.52366083522272"><ele>553.5</ele><time>2026-04-19T10:03:25.999Z</time></trkpt><trkpt lat="42.549012788225006" lon="13.523549313797416"><ele>554.25</ele><time>2026-04-19T10:03:26.999Z</time></trkpt><trkpt lat="42.54911316523356" lon="13.52346838484939"><ele>555.0</ele><time>2026-04-19T10:03:27.999Z</time></trkpt><trkpt lat="42.54925749496244" lon="13.523450231601194"><ele>555.0</ele><time>2026-04-19T10:03:28.999Z</time></trkpt><trkpt lat="42.549394227442036" lon="13.523430475365481"><ele>555.0</ele><time>2026-04-19T10:03:29.999Z</time></trkpt><trkpt lat="42.549525296688" lon="13.523405476479063"><ele>555.0</ele><time>2026-04-19T10:03:30.999Z</time></trkpt><trkpt lat="42.54965102561175" lon="13.523395274015586"><ele>555.0</ele><time>2026-04-19T10:03:31.999Z</time></trkpt><trkpt lat="42.54977079540647" lon="13.52338826773148"><ele>555.75</ele><time>2026-04-19T10:03:32.999Z</time></trkpt><trkpt lat="42.54989201338557" lon="13.523372613409284"><ele>556.5</ele><time>2026-04-19T10:03:33.999Z</time></trkpt><trkpt lat="42.55001646941726" lon="13.523338900555155"><ele>557.25</ele><time>2026-04-19T10:03:34.999Z</time></trkpt><trkpt lat="42.550142829633394" lon="13.52325797114609"><ele>558.0</ele><time>2026-04-19T10:03:35.999Z</time></trkpt><trkpt lat="42.550266594491305" lon="13.523157997926324"><ele>556.5</ele><time>2026-04-19T10:03:36.999Z</time></trkpt><trkpt lat="42.55039312023663" lon="13.523051137366759"><ele>555.0</ele><time>2026-04-19T10:03:37.999Z</time></trkpt><trkpt lat="42.55050039841486" lon="13.52293750814204"><ele>553.5</ele><time>2026-04-19T10:03:38.999Z</time></trkpt><trkpt lat="42.55060030217293" lon="13.522825592857295"><ele>552.0</ele><time>2026-04-19T10:03:39.999Z</time></trkpt><trkpt lat="42.55070360999836" lon="13.522731864893558"><ele>552.0</ele><time>2026-04-19T10:03:40.999Z</time></trkpt><trkpt lat="42.55081659696838" lon="13.522646113964099"><ele>552.0</ele><time>2026-04-19T10:03:41.999Z</time></trkpt><trkpt lat="42.55091339520049" lon="13.522516742346484"><ele>552.0</ele><time>2026-04-19T10:03:42.999Z</time></trkpt><trkpt lat="42.55099771017717" lon="13.522361168886587"><ele>552.0</ele><time>2026-04-19T10:03:43.999Z</time></trkpt><trkpt lat="42.55108910878251" lon="13.522199900529925"><ele>554.25</ele><time>2026-04-19T10:03:44.999Z</time></trkpt><trkpt lat="42.55118667799319" lon="13.522051222780574"><ele>556.5</ele><time>2026-04-19T10:03:45.999Z</time></trkpt><trkpt lat="42.55126589384583" lon="13.521880335040374"><ele>558.75</ele><time>2026-04-19T10:03:46.999Z</time></trkpt><trkpt lat="42.55132819315183" lon="13.521705615846876"><ele>561.0</ele><time>2026-04-19T10:03:47.999Z</time></trkpt><trkpt lat="42.551386626424076" lon="13.521542976717438"><ele>561.0</ele><time>2026-04-19T10:03:48.999Z</time></trkpt><trkpt lat="42.55145915980545" lon="13.521418117871674"><ele>561.0</ele><time>2026-04-19T10:03:49.999Z</time></trkpt><trkpt lat="42.55151949960751" lon="13.52128310126244"><ele>561.0</ele><time>2026-04-19T10:03:50.999Z</time></trkpt><trkpt lat="42.551623691130246" lon="13.521213855528087"><ele>561.0</ele><time>2026-04-19T10:03:51.999Z</time></trkpt><trkpt lat="42.55175837908201" lon="13.521180546467365"><ele>555.0</ele><time>2026-04-19T10:03:52.999Z</time></trkpt><trkpt lat="42.5518941531672" lon="13.521161863313703"><ele>549.0</ele><time>2026-04-19T10:03:53.999Z</time></trkpt><trkpt lat="42.552026761744834" lon="13.521137370122243"><ele>543.0</ele><time>2026-04-19T10:03:54.999Z</time></trkpt><trkpt lat="42.55216407646202" lon="13.52110241104457"><ele>537.0</ele><time>2026-04-19T10:03:55.999Z</time></trkpt><trkpt lat="42.552298619118105" lon="13.521069106707344"><ele>537.0</ele><time>2026-04-19T10:03:56.999Z</time></trkpt><trkpt lat="42.55242607025098" lon="13.521041192473557"><ele>537.0</ele><time>2026-04-19T10:03:57.999Z</time></trkpt><trkpt lat="42.552547597765994" lon="13.52102949544736"><ele>537.0</ele><time>2026-04-19T10:03:58.999Z</time></trkpt><trkpt lat="42.55266509600017" lon="13.521052176494"><ele>537.0</ele><time>2026-04-19T10:03:59.999Z</time></trkpt><trkpt lat="42.55277114286743" lon="13.521112737014995"><ele>537.0</ele><time>2026-04-19T10:04:00.999Z</time></trkpt><trkpt lat="42.55284780733242" lon="13.521193658621705"><ele>537.0</ele><time>2026-04-19T10:04:01.999Z</time></trkpt><trkpt lat="42.552883769582934" lon="13.521313910218899"><ele>537.0</ele><time>2026-04-19T10:04:02.999Z</time></trkpt><trkpt lat="42.552851765686015" lon="13.521467517728343"><ele>537.0</ele><time>2026-04-19T10:04:03.999Z</time></trkpt><trkpt lat="42.55282864470294" lon="13.521665614831177"><ele>543.3333333333334</ele><time>2026-04-19T10:04:04.999Z</time></trkpt><trkpt lat="42.55278649859084" lon="13.52188175540003"><ele>549.6666666666667</ele><time>2026-04-19T10:04:05.999Z</time></trkpt><trkpt lat="42.55275965294547" lon="13.52209997006937"><ele>556.0</ele><time>2026-04-19T10:04:06.999Z</time></trkpt><trkpt lat="42.55275024142352" lon="13.522293331776998"><ele>557.5</ele><time>2026-04-19T10:04:07.999Z</time></trkpt><trkpt lat="42.55274719159896" lon="13.52246612273412"><ele>559.0</ele><time>2026-04-19T10:04:08.999Z</time></trkpt><trkpt lat="42.55274538575317" lon="13.522629729939641"><ele>560.5</ele><time>2026-04-19T10:04:09.999Z</time></trkpt><trkpt lat="42.552772555426735" lon="13.522781820131959"><ele>562.0</ele><time>2026-04-19T10:04:10.999Z</time></trkpt><trkpt lat="42.552834004799294" lon="13.522914444005101"><ele>557.25</ele><time>2026-04-19T10:04:11.999Z</time></trkpt><trkpt lat="42.55293461759597" lon="13.523012066877024"><ele>552.5</ele><time>2026-04-19T10:04:12.999Z</time></trkpt><trkpt lat="42.55306536712247" lon="13.523080563238498"><ele>547.75</ele><time>2026-04-19T10:04:13.999Z</time></trkpt><trkpt lat="42.55321122631972" lon="13.523124973628637"><ele>543.0</ele><time>2026-04-19T10:04:14.999Z</time></trkpt><trkpt lat="42.55335984946912" lon="13.52317635483776"><ele>543.0</ele><time>2026-04-19T10:04:15.999Z</time></trkpt><trkpt lat="42.55351042390864" lon="13.523244746903032"><ele>543.0</ele><time>2026-04-19T10:04:16.999Z</time></trkpt><trkpt lat="42.55365163526854" lon="13.523329002878567"><ele>543.0</ele><time>2026-04-19T10:04:17.999Z</time></trkpt><trkpt lat="42.5537797003799" lon="13.523409429167263"><ele>540.5</ele><time>2026-04-19T10:04:18.999Z</time></trkpt><trkpt lat="42.55390503958554" lon="13.523474123880801"><ele>538.0</ele><time>2026-04-19T10:04:19.999Z</time></trkpt><trkpt lat="42.554044020605915" lon="13.523489136972897"><ele>535.5</ele><time>2026-04-19T10:04:20.999Z</time></trkpt><trkpt lat="42.554198430254104" lon="13.523479480413751"><ele>533.0</ele><time>2026-04-19T10:04:21.999Z</time></trkpt><trkpt lat="42.55435907185594" lon="13.523452327504483"><ele>533.0</ele><time>2026-04-19T10:04:22.999Z</time></trkpt><trkpt lat="42.554524584496036" lon="13.523425278850471"><ele>533.0</ele><time>2026-04-19T10:04:23.999Z</time></trkpt><trkpt lat="42.55469951415105" lon="13.523383745770602"><ele>533.0</ele><time>2026-04-19T10:04:24.999Z</time></trkpt><trkpt lat="42.55486597415894" lon="13.523341520883369"><ele>532.25</ele><time>2026-04-19T10:04:25.999Z</time></trkpt><trkpt lat="42.55501630865725" lon="13.52330227769448"><ele>531.5</ele><time>2026-04-19T10:04:26.999Z</time></trkpt><trkpt lat="42.55515818000421" lon="13.52326407390299"><ele>530.75</ele><time>2026-04-19T10:04:27.999Z</time></trkpt><trkpt lat="42.55528926328484" lon="13.523236284481452"><ele>530.0</ele><time>2026-04-19T10:04:28.999Z</time></trkpt><trkpt lat="42.555415455603075" lon="13.523251679065517"><ele>529.5</ele><time>2026-04-19T10:04:29.999Z</time></trkpt><trkpt lat="42.55553915831753" lon="13.523297205183379"><ele>529.0</ele><time>2026-04-19T10:04:30.999Z</time></trkpt><trkpt lat="42.55566969954667" lon="13.523377392515078"><ele>528.5</ele><time>2026-04-19T10:04:31.999Z</time></trkpt><trkpt lat="42.5557936525255" lon="13.523455108764807"><ele>528.0</ele><time>2026-04-19T10:04:32.999Z</time></trkpt><trkpt lat="42.55590374407053" lon="13.523524750909912"><ele>528.0</ele><time>2026-04-19T10:04:33.999Z</time></trkpt><trkpt lat="42.55600270293668" lon="13.523585050262364"><ele>528.0</ele><time>2026-04-19T10:04:34.999Z</time></trkpt><trkpt lat="42.55608773174158" lon="13.523643866498647"><ele>528.0</ele><time>2026-04-19T10:04:36Z</time></trkpt><trkpt lat="42.55615256054165" lon="13.523734061834782"><ele>528.0</ele><time>2026-04-19T10:04:37Z</time></trkpt><trkpt lat="42.55618149430863" lon="13.523870597883565"><ele>528.0</ele><time>2026-04-19T10:04:38Z</time></trkpt><trkpt lat="42.55617195443233" lon="13.524043160870173"><ele>526.75</ele><time>2026-04-19T10:04:39Z</time></trkpt><trkpt lat="42.55617618267469" lon="13.52420577577808"><ele>525.5</ele><time>2026-04-19T10:04:40Z</time></trkpt><trkpt lat="42.55619426447988" lon="13.524372829867465"><ele>524.25</ele><time>2026-04-19T10:04:41Z</time></trkpt><trkpt lat="42.55623932029655" lon="13.524550810200857"><ele>523.0</ele><time>2026-04-19T10:04:42Z</time></trkpt><trkpt lat="42.5563030669527" lon="13.524716863590365"><ele>523.0</ele><time>2026-04-19T10:04:43Z</time></trkpt><trkpt lat="42.55637636514109" lon="13.524869453582225"><ele>523.0</ele><time>2026-04-19T10:04:44Z</time></trkpt><trkpt lat="42.55647067993646" lon="13.52500973790576"><ele>523.0</ele><time>2026-04-19T10:04:45Z</time></trkpt><trkpt lat="42.55659924806766" lon="13.525149503434543"><ele>523.0</ele><time>2026-04-19T10:04:46Z</time></trkpt><trkpt lat="42.55674474037915" lon="13.525303986734029"><ele>521.3333333333334</ele><time>2026-04-19T10:04:47Z</time></trkpt><trkpt lat="42.55688805317554" lon="13.525463722428915"><ele>519.6666666666666</ele><time>2026-04-19T10:04:48Z</time></trkpt><trkpt lat="42.55702152247707" lon="13.525614837168265"><ele>518.0</ele><time>2026-04-19T10:04:49Z</time></trkpt><trkpt lat="42.557145792266425" lon="13.525756079193934"><ele>518.0</ele><time>2026-04-19T10:04:50Z</time></trkpt><trkpt lat="42.55726517999442" lon="13.525886749378369"><ele>518.0</ele><time>2026-04-19T10:04:51Z</time></trkpt><trkpt lat="42.557379174892425" lon="13.52601235088112"><ele>518.0</ele><time>2026-04-19T10:04:52Z</time></trkpt><trkpt lat="42.55748249310799" lon="13.526127381218984"><ele>518.0</ele><time>2026-04-19T10:04:53Z</time></trkpt><trkpt lat="42.55757810838403" lon="13.526223868911394"><ele>519.75</ele><time>2026-04-19T10:04:54Z</time></trkpt><trkpt lat="42.55768306039827" lon="13.526294196218464"><ele>521.5</ele><time>2026-04-19T10:04:55Z</time></trkpt><trkpt lat="42.557803809686035" lon="13.526326752003934"><ele>523.25</ele><time>2026-04-19T10:04:56Z</time></trkpt><trkpt lat="42.55793541255528" lon="13.526320561420151"><ele>525.0</ele><time>2026-04-19T10:04:57Z</time></trkpt><trkpt lat="42.55806570228948" lon="13.526290944617005"><ele>525.0</ele><time>2026-04-19T10:04:58Z</time></trkpt><trkpt lat="42.55818480089071" lon="13.526266936690012"><ele>525.0</ele><time>2026-04-19T10:04:59Z</time></trkpt><trkpt lat="42.558307493190235" lon="13.52627742308183"><ele>525.0</ele><time>2026-04-19T10:05:00Z</time></trkpt><trkpt lat="42.55843012753413" lon="13.526332567066333"><ele>525.0</ele><time>2026-04-19T10:05:01Z</time></trkpt><trkpt lat="42.55853697675808" lon="13.5264243336794"><ele>525.0</ele><time>2026-04-19T10:05:02Z</time></trkpt><trkpt lat="42.558640477657" lon="13.526570246873048"><ele>525.0</ele><time>2026-04-19T10:05:03Z</time></trkpt><trkpt lat="42.55871992035179" lon="13.526752003570422"><ele>525.0</ele><time>2026-04-19T10:05:04Z</time></trkpt><trkpt lat="42.55881785181054" lon="13.526930952689375"><ele>524.0</ele><time>2026-04-19T10:05:05Z</time></trkpt><trkpt lat="42.55895001336094" lon="13.527086563516999"><ele>523.0</ele><time>2026-04-19T10:05:06Z</time></trkpt><trkpt lat="42.559100617612295" lon="13.527238181336163"><ele>522.0</ele><time>2026-04-19T10:05:06.999Z</time></trkpt><trkpt lat="42.55925997406397" lon="13.52736057752696"><ele>522.0</ele><time>2026-04-19T10:05:07.999Z</time></trkpt><trkpt lat="42.559416899021336" lon="13.527471316191875"><ele>522.0</ele><time>2026-04-19T10:05:08.999Z</time></trkpt><trkpt lat="42.55956130123208" lon="13.527571766617239"><ele>522.0</ele><time>2026-04-19T10:05:09.999Z</time></trkpt><trkpt lat="42.55970164866812" lon="13.527673485112734"><ele>520.3333333333334</ele><time>2026-04-19T10:05:10.999Z</time></trkpt><trkpt lat="42.5598386009584" lon="13.527790789512773"><ele>518.6666666666667</ele><time>2026-04-19T10:05:11.999Z</time></trkpt><trkpt lat="42.55996422378882" lon="13.52792105161102"><ele>517.0</ele><time>2026-04-19T10:05:12.999Z</time></trkpt><trkpt lat="42.56007720139147" lon="13.528059978919375"><ele>517.0</ele><time>2026-04-19T10:05:13.999Z</time></trkpt><trkpt lat="42.56017344697678" lon="13.528214747595571"><ele>517.0</ele><time>2026-04-19T10:05:14.999Z</time></trkpt><trkpt lat="42.560264983215035" lon="13.52838662265916"><ele>517.0</ele><time>2026-04-19T10:05:15.999Z</time></trkpt><trkpt lat="42.56035123381688" lon="13.528558215010042"><ele>514.0</ele><time>2026-04-19T10:05:16.999Z</time></trkpt><trkpt lat="42.56045857536611" lon="13.52871870110557"><ele>511.0</ele><time>2026-04-19T10:05:17.999Z</time></trkpt><trkpt lat="42.56058255083261" lon="13.528857958956893"><ele>508.0</ele><time>2026-04-19T10:05:18.999Z</time></trkpt><trkpt lat="42.5607345621408" lon="13.528983418673699"><ele>508.0</ele><time>2026-04-19T10:05:19.999Z</time></trkpt><trkpt lat="42.56092664582909" lon="13.529121177070623"><ele>508.0</ele><time>2026-04-19T10:05:20.999Z</time></trkpt><trkpt lat="42.56115195262841" lon="13.529256836142139"><ele>503.33333333333337</ele><time>2026-04-19T10:05:21.999Z</time></trkpt><trkpt lat="42.56135801203038" lon="13.52935817434145"><ele>498.66666666666663</ele><time>2026-04-19T10:05:22.999Z</time></trkpt><trkpt lat="42.561516932530296" lon="13.529444127117339"><ele>494.0</ele><time>2026-04-19T10:05:23.999Z</time></trkpt><trkpt lat="42.561668041932975" lon="13.529548419644858"><ele>495.3333333333333</ele><time>2026-04-19T10:05:24.999Z</time></trkpt><trkpt lat="42.56181450082215" lon="13.529655842348111"><ele>496.66666666666663</ele><time>2026-04-19T10:05:25.999Z</time></trkpt><trkpt lat="42.561953981243406" lon="13.529763803761773"><ele>498.0</ele><time>2026-04-19T10:05:26.999Z</time></trkpt><trkpt lat="42.56208716194997" lon="13.52987562047992"><ele>498.0</ele><time>2026-04-19T10:05:27.999Z</time></trkpt><trkpt lat="42.56221497268424" lon="13.529995195796804"><ele>498.0</ele><time>2026-04-19T10:05:28.999Z</time></trkpt><trkpt lat="42.56232823422679" lon="13.530126011300679"><ele>498.0</ele><time>2026-04-19T10:05:29.999Z</time></trkpt><trkpt lat="42.56243532485462" lon="13.53025602119861"><ele>498.0</ele><time>2026-04-19T10:05:30.999Z</time></trkpt><trkpt lat="42.562541641542815" lon="13.530375740717899"><ele>498.75</ele><time>2026-04-19T10:05:31.999Z</time></trkpt><trkpt lat="42.56264751960451" lon="13.53048035295322"><ele>499.5</ele><time>2026-04-19T10:05:32.999Z</time></trkpt><trkpt lat="42.562740126289285" lon="13.53057894729571"><ele>500.25</ele><time>2026-04-19T10:05:33.999Z</time></trkpt><trkpt lat="42.56281508766129" lon="13.530701968307268"><ele>501.0</ele><time>2026-04-19T10:05:34.999Z</time></trkpt><trkpt lat="42.56286393657584" lon="13.530867177552073"><ele>500.25</ele><time>2026-04-19T10:05:35.999Z</time></trkpt><trkpt lat="42.562886998543824" lon="13.531042776074141"><ele>499.5</ele><time>2026-04-19T10:05:36.999Z</time></trkpt><trkpt lat="42.56287453364288" lon="13.531221703187848"><ele>498.75</ele><time>2026-04-19T10:05:37.999Z</time></trkpt><trkpt lat="42.56283978711089" lon="13.531402250534025"><ele>498.0</ele><time>2026-04-19T10:05:38.999Z</time></trkpt><trkpt lat="42.56278168747238" lon="13.531577082480805"><ele>498.0</ele><time>2026-04-19T10:05:39.999Z</time></trkpt><trkpt lat="42.562721408302714" lon="13.531754790068018"><ele>498.0</ele><time>2026-04-19T10:05:40.999Z</time></trkpt><trkpt lat="42.56267250050796" lon="13.531944521487617"><ele>498.0</ele><time>2026-04-19T10:05:41.999Z</time></trkpt><trkpt lat="42.56263118503915" lon="13.53215272365925"><ele>495.66666666666663</ele><time>2026-04-19T10:05:42.999Z</time></trkpt><trkpt lat="42.56259499507993" lon="13.532376241744744"><ele>493.3333333333333</ele><time>2026-04-19T10:05:43.999Z</time></trkpt><trkpt lat="42.562560160411564" lon="13.532617516348068"><ele>491.0</ele><time>2026-04-19T10:05:44.999Z</time></trkpt><trkpt lat="42.562522693807956" lon="13.532853198312397"><ele>488.66666666666663</ele><time>2026-04-19T10:05:45.999Z</time></trkpt><trkpt lat="42.562488128930575" lon="13.533081448292542"><ele>486.33333333333337</ele><time>2026-04-19T10:05:46.999Z</time></trkpt><trkpt lat="42.56245299424187" lon="13.533309613295256"><ele>484.0</ele><time>2026-04-19T10:05:47.999Z</time></trkpt><trkpt lat="42.56241760775042" lon="13.5335382773083"><ele>483.0</ele><time>2026-04-19T10:05:48.999Z</time></trkpt><trkpt lat="42.5623833966014" lon="13.533768800129883"><ele>482.0</ele><time>2026-04-19T10:05:49.999Z</time></trkpt><trkpt lat="42.56235300300981" lon="13.53399189114988"><ele>481.0</ele><time>2026-04-19T10:05:50.999Z</time></trkpt><trkpt lat="42.562319988090515" lon="13.534207207027011"><ele>481.0</ele><time>2026-04-19T10:05:51.999Z</time></trkpt><trkpt lat="42.562286708569815" lon="13.534420970696914"><ele>481.0</ele><time>2026-04-19T10:05:52.999Z</time></trkpt><trkpt lat="42.56225338470236" lon="13.534643982295512"><ele>481.0</ele><time>2026-04-19T10:05:53.999Z</time></trkpt><trkpt lat="42.562219605360724" lon="13.534874057007293"><ele>479.0</ele><time>2026-04-19T10:05:54.999Z</time></trkpt><trkpt lat="42.56218976759487" lon="13.535088998753062"><ele>477.0</ele><time>2026-04-19T10:05:55.999Z</time></trkpt><trkpt lat="42.56216216658223" lon="13.535295343881657"><ele>475.0</ele><time>2026-04-19T10:05:56.999Z</time></trkpt><trkpt lat="42.562137191420646" lon="13.535491887774278"><ele>473.0</ele><time>2026-04-19T10:05:57.999Z</time></trkpt><trkpt lat="42.56210479212873" lon="13.535670625863187"><ele>471.0</ele><time>2026-04-19T10:05:58.999Z</time></trkpt><trkpt lat="42.562040579656234" lon="13.535830669405957"><ele>469.0</ele><time>2026-04-19T10:05:59.999Z</time></trkpt><trkpt lat="42.561909853491336" lon="13.53597261654052"><ele>467.0</ele><time>2026-04-19T10:06:00.999Z</time></trkpt><trkpt lat="42.56176131885632" lon="13.53607873543432"><ele>467.66666666666663</ele><time>2026-04-19T10:06:01.999Z</time></trkpt><trkpt lat="42.561635096497334" lon="13.536199502326015"><ele>468.33333333333337</ele><time>2026-04-19T10:06:02.999Z</time></trkpt><trkpt lat="42.56152691401747" lon="13.53639475620271"><ele>469.0</ele><time>2026-04-19T10:06:03.999Z</time></trkpt><trkpt lat="42.561413884638434" lon="13.536659106224404"><ele>469.0</ele><time>2026-04-19T10:06:04.999Z</time></trkpt><trkpt lat="42.56130438046927" lon="13.536907320658278"><ele>469.0</ele><time>2026-04-19T10:06:05.999Z</time></trkpt><trkpt lat="42.561185273176484" lon="13.53711423283003"><ele>469.0</ele><time>2026-04-19T10:06:06.999Z</time></trkpt><trkpt lat="42.56106187654584" lon="13.537307426687223"><ele>467.33333333333337</ele><time>2026-04-19T10:06:07.999Z</time></trkpt><trkpt lat="42.560959565595475" lon="13.537506591772207"><ele>465.66666666666663</ele><time>2026-04-19T10:06:08.999Z</time></trkpt><trkpt lat="42.56088540016369" lon="13.537712169049538"><ele>464.0</ele><time>2026-04-19T10:06:09.999Z</time></trkpt><trkpt lat="42.56083523318563" lon="13.537906331961379"><ele>464.0</ele><time>2026-04-19T10:06:10.999Z</time></trkpt><trkpt lat="42.56078975011719" lon="13.538091745118232"><ele>464.0</ele><time>2026-04-19T10:06:11.999Z</time></trkpt><trkpt lat="42.56074806284403" lon="13.538266547907908"><ele>464.0</ele><time>2026-04-19T10:06:12.999Z</time></trkpt><trkpt lat="42.560691503785826" lon="13.538433985009602"><ele>464.0</ele><time>2026-04-19T10:06:13.999Z</time></trkpt><trkpt lat="42.56059449506691" lon="13.53858541092397"><ele>468.0</ele><time>2026-04-19T10:06:14.999Z</time></trkpt><trkpt lat="42.560468183025826" lon="13.53872054721785"><ele>472.0</ele><time>2026-04-19T10:06:15.999Z</time></trkpt><trkpt lat="42.5603443032164" lon="13.5388471665087"><ele>476.0</ele><time>2026-04-19T10:06:16.999Z</time></trkpt><trkpt lat="42.56024087106718" lon="13.538992054543296"><ele>476.0</ele><time>2026-04-19T10:06:17.999Z</time></trkpt><trkpt lat="42.560145367621125" lon="13.53914381403873"><ele>476.0</ele><time>2026-04-19T10:06:18.999Z</time></trkpt><trkpt lat="42.56003981980751" lon="13.539294710806104"><ele>476.0</ele><time>2026-04-19T10:06:19.999Z</time></trkpt><trkpt lat="42.559941481920596" lon="13.539429838920332"><ele>476.0</ele><time>2026-04-19T10:06:20.999Z</time></trkpt><trkpt lat="42.55983698196379" lon="13.539551499220035"><ele>473.0</ele><time>2026-04-19T10:06:21.999Z</time></trkpt><trkpt lat="42.559720696142925" lon="13.539643067767502"><ele>470.0</ele><time>2026-04-19T10:06:22.999Z</time></trkpt><trkpt lat="42.55959526722009" lon="13.53968287758271"><ele>467.0</ele><time>2026-04-19T10:06:23.999Z</time></trkpt><trkpt lat="42.55947655332558" lon="13.539643144492308"><ele>464.0</ele><time>2026-04-19T10:06:24.999Z</time></trkpt><trkpt lat="42.55936573267025" lon="13.539644413624401"><ele>464.0</ele><time>2026-04-19T10:06:25.999Z</time></trkpt><trkpt lat="42.55923979978069" lon="13.539665643546407"><ele>464.0</ele><time>2026-04-19T10:06:26.999Z</time></trkpt><trkpt lat="42.559119460811104" lon="13.539711790781556"><ele>464.0</ele><time>2026-04-19T10:06:27.999Z</time></trkpt><trkpt lat="42.5590205064689" lon="13.53976086298921"><ele>464.0</ele><time>2026-04-19T10:06:28.999Z</time></trkpt><trkpt lat="42.558934117372566" lon="13.539839823667995"><ele>464.0</ele><time>2026-04-19T10:06:29.999Z</time></trkpt><trkpt lat="42.558863548244304" lon="13.539979954771058"><ele>464.0</ele><time>2026-04-19T10:06:30.999Z</time></trkpt><trkpt lat="42.55880524589343" lon="13.540148251953584"><ele>464.0</ele><time>2026-04-19T10:06:31.999Z</time></trkpt><trkpt lat="42.55872599447386" lon="13.540387933637053"><ele>469.0</ele><time>2026-04-19T10:06:32.999Z</time></trkpt><trkpt lat="42.55864753867272" lon="13.540667791823138"><ele>474.0</ele><time>2026-04-19T10:06:33.999Z</time></trkpt><trkpt lat="42.55858396664597" lon="13.54087635237445"><ele>479.0</ele><time>2026-04-19T10:06:34.999Z</time></trkpt><trkpt lat="42.55855509971431" lon="13.541107402818932"><ele>470.3333333333333</ele><time>2026-04-19T10:06:35.999Z</time></trkpt><trkpt lat="42.558519335409336" lon="13.541303745472545"><ele>461.66666666666663</ele><time>2026-04-19T10:06:36.999Z</time></trkpt><trkpt lat="42.55845231345582" lon="13.54146855585604"><ele>453.0</ele><time>2026-04-19T10:06:37.999Z</time></trkpt><trkpt lat="42.5583316952797" lon="13.541622009275295"><ele>453.0</ele><time>2026-04-19T10:06:38.999Z</time></trkpt><trkpt lat="42.55818923128021" lon="13.541759682050072"><ele>453.0</ele><time>2026-04-19T10:06:39.999Z</time></trkpt><trkpt lat="42.55804053485198" lon="13.5418847531267"><ele>453.0</ele><time>2026-04-19T10:06:40.999Z</time></trkpt><trkpt lat="42.55789498788103" lon="13.54201905446838"><ele>453.33333333333337</ele><time>2026-04-19T10:06:42Z</time></trkpt><trkpt lat="42.557762590180594" lon="13.542155588852557"><ele>453.6666666666667</ele><time>2026-04-19T10:06:43Z</time></trkpt><trkpt lat="42.557634079392066" lon="13.54231302885275"><ele>454.0</ele><time>2026-04-19T10:06:44Z</time></trkpt><trkpt lat="42.55750878657006" lon="13.542488822162904"><ele>454.0</ele><time>2026-04-19T10:06:45Z</time></trkpt><trkpt lat="42.55737770265007" lon="13.542664704367354"><ele>454.0</ele><time>2026-04-19T10:06:46Z</time></trkpt><trkpt lat="42.557242529944034" lon="13.542822908399067"><ele>454.0</ele><time>2026-04-19T10:06:47Z</time></trkpt><trkpt lat="42.557108832822514" lon="13.54295692998624"><ele>455.33333333333337</ele><time>2026-04-19T10:06:48Z</time></trkpt><trkpt lat="42.55697570537632" lon="13.54308905630206"><ele>456.66666666666663</ele><time>2026-04-19T10:06:49Z</time></trkpt><trkpt lat="42.55682964088008" lon="13.543222433516448"><ele>458.0</ele><time>2026-04-19T10:06:50Z</time></trkpt><trkpt lat="42.55666467074259" lon="13.543304167740708"><ele>458.0</ele><time>2026-04-19T10:06:51Z</time></trkpt><trkpt lat="42.55650251229521" lon="13.543400612051498"><ele>458.0</ele><time>2026-04-19T10:06:52Z</time></trkpt><trkpt lat="42.556366415548254" lon="13.54355339748523"><ele>458.0</ele><time>2026-04-19T10:06:53Z</time></trkpt><trkpt lat="42.55622278786864" lon="13.54369365581152"><ele>457.0</ele><time>2026-04-19T10:06:54Z</time></trkpt><trkpt lat="42.55607957630197" lon="13.543848310008194"><ele>456.0</ele><time>2026-04-19T10:06:55Z</time></trkpt><trkpt lat="42.55594025112686" lon="13.544005607501532"><ele>455.0</ele><time>2026-04-19T10:06:56Z</time></trkpt><trkpt lat="42.55580056266719" lon="13.544121416036663"><ele>455.0</ele><time>2026-04-19T10:06:57Z</time></trkpt><trkpt lat="42.55567472053407" lon="13.544252955110325"><ele>455.0</ele><time>2026-04-19T10:06:58Z</time></trkpt><trkpt lat="42.55555566157075" lon="13.544400055617261"><ele>455.0</ele><time>2026-04-19T10:06:59Z</time></trkpt><trkpt lat="42.555462074263225" lon="13.544583334184889"><ele>465.3333333333333</ele><time>2026-04-19T10:07:00Z</time></trkpt><trkpt lat="42.55536397488509" lon="13.544756647920721"><ele>475.66666666666663</ele><time>2026-04-19T10:07:00.999Z</time></trkpt><trkpt lat="42.55526337505332" lon="13.544927803956966"><ele>486.0</ele><time>2026-04-19T10:07:01.999Z</time></trkpt><trkpt lat="42.555184499876724" lon="13.54513665230385"><ele>460.5</ele><time>2026-04-19T10:07:02.999Z</time></trkpt><trkpt lat="42.55508889874087" lon="13.545426133440392"><ele>435.0</ele><time>2026-04-19T10:07:03.999Z</time></trkpt><trkpt lat="42.55498917544878" lon="13.545741684738068"><ele>435.0</ele><time>2026-04-19T10:07:04.999Z</time></trkpt><trkpt lat="42.55489725147259" lon="13.546022100787983"><ele>435.0</ele><time>2026-04-19T10:07:05.999Z</time></trkpt><trkpt lat="42.554812705051525" lon="13.546280848640249"><ele>435.0</ele><time>2026-04-19T10:07:06.999Z</time></trkpt><trkpt lat="42.554734779046264" lon="13.546529490251295"><ele>430.66666666666663</ele><time>2026-04-19T10:07:07.999Z</time></trkpt><trkpt lat="42.554659259736376" lon="13.546746803101737"><ele>426.3333333333333</ele><time>2026-04-19T10:07:08.999Z</time></trkpt><trkpt lat="42.554594803974894" lon="13.546951226157905"><ele>422.0</ele><time>2026-04-19T10:07:09.999Z</time></trkpt><trkpt lat="42.55455732943636" lon="13.54712576464435"><ele>424.25</ele><time>2026-04-19T10:07:10.999Z</time></trkpt><trkpt lat="42.55451377712876" lon="13.54727529112696"><ele>426.5</ele><time>2026-04-19T10:07:11.999Z</time></trkpt><trkpt lat="42.55442820271837" lon="13.547408406349344"><ele>428.75</ele><time>2026-04-19T10:07:12.999Z</time></trkpt><trkpt lat="42.55432350223486" lon="13.54748443505787"><ele>431.0</ele><time>2026-04-19T10:07:13.999Z</time></trkpt><trkpt lat="42.55423904782236" lon="13.547555437361982"><ele>430.99999999999994</ele><time>2026-04-19T10:07:14.999Z</time></trkpt><trkpt lat="42.5541871579066" lon="13.547665100533491"><ele>431.0</ele><time>2026-04-19T10:07:15.999Z</time></trkpt><trkpt lat="42.55416628823448" lon="13.547763572571954"><ele>431.0</ele><time>2026-04-19T10:07:16.999Z</time></trkpt><trkpt lat="42.55414542117104" lon="13.547857781053487"><ele>431.0</ele><time>2026-04-19T10:07:17.999Z</time></trkpt><trkpt lat="42.55412642840215" lon="13.547951757722265"><ele>430.99999999999994</ele><time>2026-04-19T10:07:18.999Z</time></trkpt><trkpt lat="42.554109478077066" lon="13.548053010142203"><ele>431.0</ele><time>2026-04-19T10:07:19.999Z</time></trkpt><trkpt lat="42.55411411118332" lon="13.548182314776795"><ele>430.25</ele><time>2026-04-19T10:07:20.999Z</time></trkpt><trkpt lat="42.55416239635637" lon="13.548329272947237"><ele>429.5</ele><time>2026-04-19T10:07:21.999Z</time></trkpt><trkpt lat="42.554243632825404" lon="13.548464287452036"><ele>428.75</ele><time>2026-04-19T10:07:22.999Z</time></trkpt><trkpt lat="42.554317175874075" lon="13.548626287264563"><ele>428.0</ele><time>2026-04-19T10:07:23.999Z</time></trkpt><trkpt lat="42.554358999585446" lon="13.548804551659135"><ele>432.5</ele><time>2026-04-19T10:07:24.999Z</time></trkpt><trkpt lat="42.554404133581784" lon="13.548979534870101"><ele>437.0</ele><time>2026-04-19T10:07:25.999Z</time></trkpt><trkpt lat="42.55445623069903" lon="13.549134618414394"><ele>441.5</ele><time>2026-04-19T10:07:26.999Z</time></trkpt><trkpt lat="42.55450204934336" lon="13.549280704858171"><ele>446.0</ele><time>2026-04-19T10:07:27.999Z</time></trkpt><trkpt lat="42.55451428051394" lon="13.54945616905704"><ele>448.3333333333333</ele><time>2026-04-19T10:07:28.999Z</time></trkpt><trkpt lat="42.554481322453185" lon="13.549680416721856"><ele>450.66666666666663</ele><time>2026-04-19T10:07:29.999Z</time></trkpt><trkpt lat="42.554451570983524" lon="13.549966576489211"><ele>453.0</ele><time>2026-04-19T10:07:30.999Z</time></trkpt><trkpt lat="42.554412402730414" lon="13.550287813992721"><ele>453.66666666666663</ele><time>2026-04-19T10:07:31.999Z</time></trkpt><trkpt lat="42.55440027568908" lon="13.550593183172497"><ele>454.3333333333333</ele><time>2026-04-19T10:07:32.999Z</time></trkpt><trkpt lat="42.55437135113888" lon="13.550868803791102"><ele>455.0</ele><time>2026-04-19T10:07:33.999Z</time></trkpt><trkpt lat="42.5543554543879" lon="13.551122855270485"><ele>454.3333333333333</ele><time>2026-04-19T10:07:34.999Z</time></trkpt><trkpt lat="42.55436470331651" lon="13.551357567960586"><ele>453.66666666666663</ele><time>2026-04-19T10:07:35.999Z</time></trkpt><trkpt lat="42.554398629223996" lon="13.55157544226593"><ele>453.0</ele><time>2026-04-19T10:07:36.999Z</time></trkpt><trkpt lat="42.55445699378735" lon="13.551777685580447"><ele>443.75</ele><time>2026-04-19T10:07:37.999Z</time></trkpt><trkpt lat="42.55453907190201" lon="13.551947752403665"><ele>434.5</ele><time>2026-04-19T10:07:38.999Z</time></trkpt><trkpt lat="42.55463827956122" lon="13.552068794335437"><ele>425.25</ele><time>2026-04-19T10:07:39.999Z</time></trkpt><trkpt lat="42.55471417772093" lon="13.552192817417222"><ele>416.0</ele><time>2026-04-19T10:07:40.999Z</time></trkpt><trkpt lat="42.554746044341385" lon="13.552374306626652"><ele>414.5</ele><time>2026-04-19T10:07:41.999Z</time></trkpt><trkpt lat="42.554735894451774" lon="13.55256217992374"><ele>413.0</ele><time>2026-04-19T10:07:42.999Z</time></trkpt><trkpt lat="42.554701759276746" lon="13.55275634970635"><ele>411.5</ele><time>2026-04-19T10:07:43.999Z</time></trkpt><trkpt lat="42.55465668131852" lon="13.552941334998541"><ele>410.0</ele><time>2026-04-19T10:07:44.999Z</time></trkpt><trkpt lat="42.55458657450283" lon="13.553129243273506"><ele>413.0</ele><time>2026-04-19T10:07:45.999Z</time></trkpt><trkpt lat="42.554501876971216" lon="13.553297740927858"><ele>416.0</ele><time>2026-04-19T10:07:46.999Z</time></trkpt><trkpt lat="42.55440523838007" lon="13.5534431193672"><ele>419.0</ele><time>2026-04-19T10:07:47.999Z</time></trkpt><trkpt lat="42.554300635330975" lon="13.553587353860564"><ele>422.0</ele><time>2026-04-19T10:07:48.999Z</time></trkpt><trkpt lat="42.554213273359764" lon="13.55375291172995"><ele>422.0</ele><time>2026-04-19T10:07:49.999Z</time></trkpt><trkpt lat="42.55414114507974" lon="13.553940444210841"><ele>422.0</ele><time>2026-04-19T10:07:50.999Z</time></trkpt><trkpt lat="42.55407914879798" lon="13.554122547836794"><ele>422.0</ele><time>2026-04-19T10:07:51.999Z</time></trkpt><trkpt lat="42.55399671875927" lon="13.55429388301005"><ele>422.0</ele><time>2026-04-19T10:07:52.999Z</time></trkpt><trkpt lat="42.553875071692886" lon="13.554429247006446"><ele>422.0</ele><time>2026-04-19T10:07:53.999Z</time></trkpt><trkpt lat="42.55374349055253" lon="13.554581268900666"><ele>422.0</ele><time>2026-04-19T10:07:54.999Z</time></trkpt><trkpt lat="42.55360241759326" lon="13.554751075587198"><ele>425.3333333333333</ele><time>2026-04-19T10:07:55.999Z</time></trkpt><trkpt lat="42.553471993365626" lon="13.554926606658054"><ele>428.66666666666663</ele><time>2026-04-19T10:07:56.999Z</time></trkpt><trkpt lat="42.55335787599327" lon="13.555094011409555"><ele>432.0</ele><time>2026-04-19T10:07:57.999Z</time></trkpt><trkpt lat="42.553260994321924" lon="13.555261461306428"><ele>425.0</ele><time>2026-04-19T10:07:58.999Z</time></trkpt><trkpt lat="42.55318115790362" lon="13.555439713157257"><ele>418.0</ele><time>2026-04-19T10:07:59.999Z</time></trkpt><trkpt lat="42.55311907066166" lon="13.55564203305563"><ele>411.0</ele><time>2026-04-19T10:08:00.999Z</time></trkpt><trkpt lat="42.55307212885409" lon="13.55586444079393"><ele>411.0</ele><time>2026-04-19T10:08:01.999Z</time></trkpt><trkpt lat="42.553033186796966" lon="13.556105731042399"><ele>411.0</ele><time>2026-04-19T10:08:02.999Z</time></trkpt><trkpt lat="42.55299839189748" lon="13.556344210450503"><ele>411.0</ele><time>2026-04-19T10:08:03.999Z</time></trkpt><trkpt lat="42.552964622236516" lon="13.556557388748075"><ele>409.20000000000005</ele><time>2026-04-19T10:08:04.999Z</time></trkpt><trkpt lat="42.55294151505032" lon="13.556726094728315"><ele>407.40000000000003</ele><time>2026-04-19T10:08:05.999Z</time></trkpt><trkpt lat="42.552935399188506" lon="13.556865056608666"><ele>405.6</ele><time>2026-04-19T10:08:06.999Z</time></trkpt><trkpt lat="42.55296070530583" lon="13.557000038471802"><ele>403.8</ele><time>2026-04-19T10:08:07.999Z</time></trkpt><trkpt lat="42.553028711008906" lon="13.55710208288969"><ele>402.0</ele><time>2026-04-19T10:08:08.999Z</time></trkpt><trkpt lat="42.55314283309692" lon="13.557158987021488"><ele>407.25</ele><time>2026-04-19T10:08:09.999Z</time></trkpt><trkpt lat="42.5532898527788" lon="13.557188437825637"><ele>412.5</ele><time>2026-04-19T10:08:10.999Z</time></trkpt><trkpt lat="42.553424826211206" lon="13.55724975115909"><ele>417.75</ele><time>2026-04-19T10:08:11.999Z</time></trkpt><trkpt lat="42.553519173131654" lon="13.557381820801567"><ele>423.0</ele><time>2026-04-19T10:08:12.999Z</time></trkpt><trkpt lat="42.55360128182601" lon="13.55755910949612"><ele>423.33333333333337</ele><time>2026-04-19T10:08:13.999Z</time></trkpt><trkpt lat="42.55370736055381" lon="13.557742224427843"><ele>423.6666666666667</ele><time>2026-04-19T10:08:14.999Z</time></trkpt><trkpt lat="42.55383070284459" lon="13.557908578935718"><ele>424.0</ele><time>2026-04-19T10:08:15.999Z</time></trkpt><trkpt lat="42.55397216860611" lon="13.558073070520225"><ele>424.0</ele><time>2026-04-19T10:08:16.999Z</time></trkpt><trkpt lat="42.55414411382224" lon="13.558234678666134"><ele>424.0</ele><time>2026-04-19T10:08:17.999Z</time></trkpt><trkpt lat="42.55431542442579" lon="13.5583681938676"><ele>424.0</ele><time>2026-04-19T10:08:18.999Z</time></trkpt><trkpt lat="42.554472777403234" lon="13.558467074553203"><ele>418.6666666666667</ele><time>2026-04-19T10:08:19.999Z</time></trkpt><trkpt lat="42.55461495779681" lon="13.558545384604791"><ele>413.33333333333337</ele><time>2026-04-19T10:08:20.999Z</time></trkpt><trkpt lat="42.55477026073804" lon="13.558600348985681"><ele>408.0</ele><time>2026-04-19T10:08:21.999Z</time></trkpt><trkpt lat="42.55495100355603" lon="13.558611331021833"><ele>408.0</ele><time>2026-04-19T10:08:22.999Z</time></trkpt><trkpt lat="42.55515812218439" lon="13.558630822634807"><ele>408.0</ele><time>2026-04-19T10:08:23.999Z</time></trkpt><trkpt lat="42.555355351882156" lon="13.55869008476188"><ele>408.0</ele><time>2026-04-19T10:08:24.999Z</time></trkpt><trkpt lat="42.555533082506436" lon="13.558761738768498"><ele>411.0</ele><time>2026-04-19T10:08:25.999Z</time></trkpt><trkpt lat="42.55568475846502" lon="13.558832263026757"><ele>414.0</ele><time>2026-04-19T10:08:26.999Z</time></trkpt><trkpt lat="42.55581404430057" lon="13.558905825187164"><ele>417.0</ele><time>2026-04-19T10:08:27.999Z</time></trkpt><trkpt lat="42.55593165279074" lon="13.559020109616963"><ele>420.0</ele><time>2026-04-19T10:08:28.999Z</time></trkpt><trkpt lat="42.55602360626609" lon="13.5591893920465"><ele>420.0</ele><time>2026-04-19T10:08:29.999Z</time></trkpt><trkpt lat="42.55611746119377" lon="13.559390005240124"><ele>420.0</ele><time>2026-04-19T10:08:30.999Z</time></trkpt><trkpt lat="42.55623963418607" lon="13.55958569028941"><ele>420.0</ele><time>2026-04-19T10:08:31.999Z</time></trkpt><trkpt lat="42.556376988605834" lon="13.559756378895218"><ele>419.66666666666663</ele><time>2026-04-19T10:08:32.999Z</time></trkpt><trkpt lat="42.55653587000376" lon="13.559932104817157"><ele>419.3333333333333</ele><time>2026-04-19T10:08:33.999Z</time></trkpt><trkpt lat="42.55671014044708" lon="13.560108503146784"><ele>419.0</ele><time>2026-04-19T10:08:34.999Z</time></trkpt><trkpt lat="42.556878415583036" lon="13.560254440831955"><ele>425.3333333333333</ele><time>2026-04-19T10:08:35.999Z</time></trkpt><trkpt lat="42.55704019328092" lon="13.560371782404717"><ele>431.66666666666663</ele><time>2026-04-19T10:08:36.999Z</time></trkpt><trkpt lat="42.557185172890875" lon="13.560457560535543"><ele>438.0</ele><time>2026-04-19T10:08:37.999Z</time></trkpt><trkpt lat="42.557332127777414" lon="13.560516793304537"><ele>438.0</ele><time>2026-04-19T10:08:38.999Z</time></trkpt><trkpt lat="42.5574921342414" lon="13.560515683470085"><ele>438.0</ele><time>2026-04-19T10:08:39.998Z</time></trkpt><trkpt lat="42.55766122376724" lon="13.560453646443536"><ele>438.0</ele><time>2026-04-19T10:08:40.998Z</time></trkpt><trkpt lat="42.55783251008517" lon="13.560390403376347"><ele>433.33333333333337</ele><time>2026-04-19T10:08:41.998Z</time></trkpt><trkpt lat="42.55801929762804" lon="13.56037040420435"><ele>428.6666666666667</ele><time>2026-04-19T10:08:42.998Z</time></trkpt><trkpt lat="42.558195116611294" lon="13.560418258196623"><ele>424.0</ele><time>2026-04-19T10:08:43.998Z</time></trkpt><trkpt lat="42.558359514683595" lon="13.560511826274068"><ele>424.0</ele><time>2026-04-19T10:08:44.998Z</time></trkpt><trkpt lat="42.55849733775106" lon="13.56063101687787"><ele>424.0</ele><time>2026-04-19T10:08:45.998Z</time></trkpt><trkpt lat="42.55862399304638" lon="13.560773623638953"><ele>424.0</ele><time>2026-04-19T10:08:46.998Z</time></trkpt><trkpt lat="42.55872940984544" lon="13.560934974553675"><ele>425.6666666666667</ele><time>2026-04-19T10:08:48Z</time></trkpt><trkpt lat="42.5588381971916" lon="13.56108708563029"><ele>427.33333333333337</ele><time>2026-04-19T10:08:49Z</time></trkpt><trkpt lat="42.55896011505402" lon="13.56129313987755"><ele>429.0</ele><time>2026-04-19T10:08:50Z</time></trkpt><trkpt lat="42.55908099689668" lon="13.561496131643143"><ele>429.0</ele><time>2026-04-19T10:08:51Z</time></trkpt><trkpt lat="42.55920317936221" lon="13.561693768493402"><ele>429.0</ele><time>2026-04-19T10:08:52Z</time></trkpt><trkpt lat="42.55932600765273" lon="13.561894374413523"><ele>429.0</ele><time>2026-04-19T10:08:53Z</time></trkpt><trkpt lat="42.55945244754791" lon="13.562100750864303"><ele>426.0</ele><time>2026-04-19T10:08:54Z</time></trkpt><trkpt lat="42.55958244237291" lon="13.562313368513799"><ele>423.0</ele><time>2026-04-19T10:08:55Z</time></trkpt><trkpt lat="42.55972141334711" lon="13.562535736945971"><ele>420.0</ele><time>2026-04-19T10:08:56Z</time></trkpt><trkpt lat="42.55987226828418" lon="13.562777996802172"><ele>440.5</ele><time>2026-04-19T10:08:57Z</time></trkpt><trkpt lat="42.56003525666645" lon="13.563039258860481"><ele>461.0</ele><time>2026-04-19T10:08:58Z</time></trkpt><trkpt lat="42.560191975921924" lon="13.563286973450694"><ele>461.0</ele><time>2026-04-19T10:08:59Z</time></trkpt><trkpt lat="42.560333971659304" lon="13.563552147050174"><ele>461.0</ele><time>2026-04-19T10:09:00.064Z</time></trkpt><trkpt lat="42.56046714018287" lon="13.563770967052545"><ele>443.66666666666663</ele><time>2026-04-19T10:09:01.052Z</time></trkpt><trkpt lat="42.56059317393876" lon="13.563978063349923"><ele>426.33333333333337</ele><time>2026-04-19T10:09:02.048Z</time></trkpt><trkpt lat="42.56071363325303" lon="13.564175510576"><ele>409.0</ele><time>2026-04-19T10:09:03.048Z</time></trkpt><trkpt lat="42.56085068923501" lon="13.564369365373135"><ele>410.0</ele><time>2026-04-19T10:09:04.047Z</time></trkpt><trkpt lat="42.5610157662779" lon="13.564543857954003"><ele>411.0</ele><time>2026-04-19T10:09:05.027Z</time></trkpt><trkpt lat="42.56121600312496" lon="13.564693581458284"><ele>412.0</ele><time>2026-04-19T10:09:06.023Z</time></trkpt><trkpt lat="42.56138293934972" lon="13.564779672750591"><ele>412.0</ele><time>2026-04-19T10:09:07.023Z</time></trkpt><trkpt lat="42.561591819917545" lon="13.564846392279687"><ele>412.0</ele><time>2026-04-19T10:09:08.021Z</time></trkpt><trkpt lat="42.5618100849846" lon="13.564912047124187"><ele>412.0</ele><time>2026-04-19T10:09:09.027Z</time></trkpt><trkpt lat="42.562031092373665" lon="13.564980378383103"><ele>403.6666666666667</ele><time>2026-04-19T10:09:10Z</time></trkpt><trkpt lat="42.56222128457961" lon="13.565039655987025"><ele>395.33333333333337</ele><time>2026-04-19T10:09:11Z</time></trkpt><trkpt lat="42.56239096087967" lon="13.565102862797374"><ele>387.0</ele><time>2026-04-19T10:09:12Z</time></trkpt><trkpt lat="42.5625435713804" lon="13.565176238917216"><ele>387.0</ele><time>2026-04-19T10:09:13Z</time></trkpt><trkpt lat="42.56265277720889" lon="13.565247010085479"><ele>387.0</ele><time>2026-04-19T10:09:14Z</time></trkpt><trkpt lat="42.56281536201616" lon="13.565376045461742"><ele>387.0</ele><time>2026-04-19T10:09:15Z</time></trkpt><trkpt lat="42.562961276274876" lon="13.565517464859921"><ele>387.0</ele><time>2026-04-19T10:09:15.999Z</time></trkpt><trkpt lat="42.56309112313493" lon="13.565671611548025"><ele>387.0</ele><time>2026-04-19T10:09:16.999Z</time></trkpt><trkpt lat="42.56320623755451" lon="13.565845633673929"><ele>387.0</ele><time>2026-04-19T10:09:17.999Z</time></trkpt><trkpt lat="42.563304674284645" lon="13.566040298134523"><ele>388.66666666666663</ele><time>2026-04-19T10:09:18.999Z</time></trkpt><trkpt lat="42.56337336454308" lon="13.56623934241923"><ele>390.3333333333333</ele><time>2026-04-19T10:09:19.999Z</time></trkpt><trkpt lat="42.56340963895201" lon="13.566482426340032"><ele>392.0</ele><time>2026-04-19T10:09:20.999Z</time></trkpt><trkpt lat="42.56341300544945" lon="13.566779882581606"><ele>391.3333333333333</ele><time>2026-04-19T10:09:21.999Z</time></trkpt><trkpt lat="42.56339985600303" lon="13.567085307066966"><ele>390.66666666666663</ele><time>2026-04-19T10:09:22.999Z</time></trkpt><trkpt lat="42.56338985363828" lon="13.567353183653067"><ele>390.0</ele><time>2026-04-19T10:09:23.999Z</time></trkpt><trkpt lat="42.56338581088133" lon="13.567607961305624"><ele>390.0</ele><time>2026-04-19T10:09:24.999Z</time></trkpt><trkpt lat="42.56338212539061" lon="13.567857873103524"><ele>390.0</ele><time>2026-04-19T10:09:25.999Z</time></trkpt><trkpt lat="42.56338017121012" lon="13.568108682821137"><ele>390.0</ele><time>2026-04-19T10:09:26.999Z</time></trkpt><trkpt lat="42.5633895104428" lon="13.568355707756679"><ele>391.66666666666663</ele><time>2026-04-19T10:09:27.999Z</time></trkpt><trkpt lat="42.56342236074763" lon="13.568597891862675"><ele>393.3333333333333</ele><time>2026-04-19T10:09:28.999Z</time></trkpt><trkpt lat="42.563487131157096" lon="13.56881209858357"><ele>395.0</ele><time>2026-04-19T10:09:29.999Z</time></trkpt><trkpt lat="42.56355792538593" lon="13.56901214730782"><ele>397.3333333333333</ele><time>2026-04-19T10:09:30.999Z</time></trkpt><trkpt lat="42.5636121486201" lon="13.569213133122547"><ele>399.66666666666663</ele><time>2026-04-19T10:09:31.999Z</time></trkpt><trkpt lat="42.563623857926764" lon="13.569458956290022"><ele>402.0</ele><time>2026-04-19T10:09:32.999Z</time></trkpt><trkpt lat="42.563605572191705" lon="13.569722366423536"><ele>403.33333333333337</ele><time>2026-04-19T10:09:33.999Z</time></trkpt><trkpt lat="42.56360683647173" lon="13.569931631029288"><ele>404.6666666666667</ele><time>2026-04-19T10:09:34.999Z</time></trkpt><trkpt lat="42.563650630531505" lon="13.570170361637281"><ele>406.0</ele><time>2026-04-19T10:09:35.999Z</time></trkpt><trkpt lat="42.56373691664753" lon="13.570426333283933"><ele>399.0</ele><time>2026-04-19T10:09:36.999Z</time></trkpt><trkpt lat="42.563848873203064" lon="13.570642672363201"><ele>392.0</ele><time>2026-04-19T10:09:37.999Z</time></trkpt><trkpt lat="42.563972576020184" lon="13.570842966877823"><ele>385.0</ele><time>2026-04-19T10:09:38.999Z</time></trkpt><trkpt lat="42.56411812226452" lon="13.571023321689134"><ele>385.0</ele><time>2026-04-19T10:09:39.999Z</time></trkpt><trkpt lat="42.56427619346431" lon="13.571181459815444"><ele>385.0</ele><time>2026-04-19T10:09:40.999Z</time></trkpt><trkpt lat="42.56442439986091" lon="13.57130641823089"><ele>385.0</ele><time>2026-04-19T10:09:41.999Z</time></trkpt><trkpt lat="42.56454705327592" lon="13.571407011602014"><ele>382.5</ele><time>2026-04-19T10:09:42.999Z</time></trkpt><trkpt lat="42.56465171976084" lon="13.57151189333152"><ele>380.0</ele><time>2026-04-19T10:09:43.999Z</time></trkpt><trkpt lat="42.56472026312276" lon="13.571655441833117"><ele>377.5</ele><time>2026-04-19T10:09:44.999Z</time></trkpt><trkpt lat="42.56474878232592" lon="13.571840450352752"><ele>375.0</ele><time>2026-04-19T10:09:45.999Z</time></trkpt><trkpt lat="42.564735783459234" lon="13.572050879014967"><ele>375.0</ele><time>2026-04-19T10:09:46.999Z</time></trkpt><trkpt lat="42.56470643377292" lon="13.572284548193394"><ele>375.0</ele><time>2026-04-19T10:09:47.999Z</time></trkpt><trkpt lat="42.56470066385148" lon="13.572514571535145"><ele>375.0</ele><time>2026-04-19T10:09:48.999Z</time></trkpt><trkpt lat="42.56471376064518" lon="13.572753797233867"><ele>381.0</ele><time>2026-04-19T10:09:49.999Z</time></trkpt><trkpt lat="42.56475244632528" lon="13.572983517314281"><ele>387.0</ele><time>2026-04-19T10:09:50.999Z</time></trkpt><trkpt lat="42.56482102176997" lon="13.573204242734214"><ele>393.0</ele><time>2026-04-19T10:09:51.999Z</time></trkpt><trkpt lat="42.56491014369742" lon="13.573388190019118"><ele>393.0</ele><time>2026-04-19T10:09:52.999Z</time></trkpt><trkpt lat="42.5650148323445" lon="13.573582903365779"><ele>393.0</ele><time>2026-04-19T10:09:53.999Z</time></trkpt><trkpt lat="42.56514406029809" lon="13.573774809039495"><ele>393.0</ele><time>2026-04-19T10:09:54.999Z</time></trkpt><trkpt lat="42.56530888284089" lon="13.573994255831732"><ele>385.0</ele><time>2026-04-19T10:09:55.999Z</time></trkpt><trkpt lat="42.56549652449718" lon="13.574214183123942"><ele>377.0</ele><time>2026-04-19T10:09:56.999Z</time></trkpt><trkpt lat="42.565654408153584" lon="13.574393705455202"><ele>405.0</ele><time>2026-04-19T10:09:57.999Z</time></trkpt><trkpt lat="42.565811371447786" lon="13.574522708324611"><ele>433.0</ele><time>2026-04-19T10:09:58.999Z</time></trkpt><trkpt lat="42.56598731784518" lon="13.574596427619085"><ele>461.0</ele><time>2026-04-19T10:09:59.999Z</time></trkpt><trkpt lat="42.56617149343188" lon="13.574638456070657"><ele>444.66666666666663</ele><time>2026-04-19T10:10:00.999Z</time></trkpt><trkpt lat="42.56637496015918" lon="13.574668344923962"><ele>428.33333333333337</ele><time>2026-04-19T10:10:01.999Z</time></trkpt><trkpt lat="42.566581479982275" lon="13.5747022897871"><ele>412.0</ele><time>2026-04-19T10:10:02.999Z</time></trkpt><trkpt lat="42.56678488693735" lon="13.574760041322987"><ele>412.0</ele><time>2026-04-19T10:10:03.999Z</time></trkpt><trkpt lat="42.56698777441874" lon="13.574836706206682"><ele>412.0</ele><time>2026-04-19T10:10:04.999Z</time></trkpt><trkpt lat="42.56716217869119" lon="13.574898179662542"><ele>412.0</ele><time>2026-04-19T10:10:05.999Z</time></trkpt><trkpt lat="42.567329641634494" lon="13.574927407088948"><ele>404.0</ele><time>2026-04-19T10:10:06.999Z</time></trkpt><trkpt lat="42.56749556076948" lon="13.574932357175975"><ele>396.0</ele><time>2026-04-19T10:10:07.999Z</time></trkpt><trkpt lat="42.56767623087862" lon="13.57489948031126"><ele>388.0</ele><time>2026-04-19T10:10:08.999Z</time></trkpt><trkpt lat="42.567867279312125" lon="13.574832187771941"><ele>388.0</ele><time>2026-04-19T10:10:09.999Z</time></trkpt><trkpt lat="42.56806252389577" lon="13.574726969161235"><ele>388.0</ele><time>2026-04-19T10:10:10.999Z</time></trkpt><trkpt lat="42.56825478010364" lon="13.574619904881292"><ele>388.0</ele><time>2026-04-19T10:10:11.999Z</time></trkpt><trkpt lat="42.56844439501968" lon="13.574552219596109"><ele>378.6666666666667</ele><time>2026-04-19T10:10:12.999Z</time></trkpt><trkpt lat="42.5686335536958" lon="13.57451812470329"><ele>369.33333333333337</ele><time>2026-04-19T10:10:13.999Z</time></trkpt><trkpt lat="42.568830033592704" lon="13.57448374911301"><ele>360.0</ele><time>2026-04-19T10:10:14.999Z</time></trkpt><trkpt lat="42.56902622292996" lon="13.574455207097357"><ele>360.0</ele><time>2026-04-19T10:10:15.999Z</time></trkpt><trkpt lat="42.569225835106685" lon="13.574443404904684"><ele>360.0</ele><time>2026-04-19T10:10:16.999Z</time></trkpt><trkpt lat="42.569412537876616" lon="13.574453722189778"><ele>360.0</ele><time>2026-04-19T10:10:17.999Z</time></trkpt><trkpt lat="42.569588026172255" lon="13.574485342151018"><ele>362.3333333333333</ele><time>2026-04-19T10:10:18.999Z</time></trkpt><trkpt lat="42.56976693542807" lon="13.574524540354053"><ele>364.66666666666663</ele><time>2026-04-19T10:10:19.999Z</time></trkpt><trkpt lat="42.56994292654315" lon="13.574582831336942"><ele>367.0</ele><time>2026-04-19T10:10:20.999Z</time></trkpt><trkpt lat="42.57010557410643" lon="13.574668916004928"><ele>367.0</ele><time>2026-04-19T10:10:21.999Z</time></trkpt><trkpt lat="42.57024796285758" lon="13.57476474314723"><ele>367.0</ele><time>2026-04-19T10:10:22.999Z</time></trkpt><trkpt lat="42.570382300805335" lon="13.574860407557324"><ele>367.0</ele><time>2026-04-19T10:10:23.999Z</time></trkpt><trkpt lat="42.57050429195059" lon="13.574978611421928"><ele>366.0</ele><time>2026-04-19T10:10:24.999Z</time></trkpt><trkpt lat="42.57060505105247" lon="13.575176639327166"><ele>365.0</ele><time>2026-04-19T10:10:25.999Z</time></trkpt><trkpt lat="42.570675474166705" lon="13.575416356242293"><ele>364.0</ele><time>2026-04-19T10:10:26.999Z</time></trkpt><trkpt lat="42.57071594707146" lon="13.575631980788799"><ele>364.0</ele><time>2026-04-19T10:10:27.999Z</time></trkpt><trkpt lat="42.570748357392304" lon="13.57582181121609"><ele>364.0</ele><time>2026-04-19T10:10:28.999Z</time></trkpt><trkpt lat="42.57078251544568" lon="13.575982014461696"><ele>364.0</ele><time>2026-04-19T10:10:29.999Z</time></trkpt><trkpt lat="42.57086152834849" lon="13.57610505591825"><ele>364.0</ele><time>2026-04-19T10:10:30.999Z</time></trkpt><trkpt lat="42.5709920468017" lon="13.576197063114888"><ele>366.66666666666663</ele><time>2026-04-19T10:10:31.999Z</time></trkpt><trkpt lat="42.57116257701615" lon="13.576266318398563"><ele>369.3333333333333</ele><time>2026-04-19T10:10:32.999Z</time></trkpt><trkpt lat="42.57131385705459" lon="13.576327582567403"><ele>372.0</ele><time>2026-04-19T10:10:33.999Z</time></trkpt><trkpt lat="42.57145794588842" lon="13.576395675185232"><ele>372.0</ele><time>2026-04-19T10:10:34.999Z</time></trkpt><trkpt lat="42.57158863451397" lon="13.576483485071009"><ele>372.0</ele><time>2026-04-19T10:10:35.999Z</time></trkpt><trkpt lat="42.57170931242325" lon="13.576614550558714"><ele>372.0</ele><time>2026-04-19T10:10:36.999Z</time></trkpt><trkpt lat="42.571814194055165" lon="13.57677875969828"><ele>372.0</ele><time>2026-04-19T10:10:37.999Z</time></trkpt><trkpt lat="42.57191964271372" lon="13.576954884830124"><ele>372.0</ele><time>2026-04-19T10:10:38.999Z</time></trkpt><trkpt lat="42.57202423462889" lon="13.577141818671265"><ele>372.0</ele><time>2026-04-19T10:10:39.999Z</time></trkpt><trkpt lat="42.572118072521846" lon="13.577348247029244"><ele>366.3333333333333</ele><time>2026-04-19T10:10:40.999Z</time></trkpt><trkpt lat="42.572182209435994" lon="13.57755968975203"><ele>360.66666666666663</ele><time>2026-04-19T10:10:41.999Z</time></trkpt><trkpt lat="42.57222898987012" lon="13.5777898128478"><ele>355.0</ele><time>2026-04-19T10:10:42.999Z</time></trkpt><trkpt lat="42.5722607612078" lon="13.578014242634742"><ele>355.0</ele><time>2026-04-19T10:10:43.999Z</time></trkpt><trkpt lat="42.57229325209446" lon="13.578231673884614"><ele>355.0</ele><time>2026-04-19T10:10:44.999Z</time></trkpt><trkpt lat="42.57233398726925" lon="13.578459767113687"><ele>355.0</ele><time>2026-04-19T10:10:45.999Z</time></trkpt><trkpt lat="42.572373557069014" lon="13.578701718765785"><ele>360.0</ele><time>2026-04-19T10:10:46.999Z</time></trkpt><trkpt lat="42.57240008100165" lon="13.578949016156162"><ele>365.0</ele><time>2026-04-19T10:10:47.999Z</time></trkpt><trkpt lat="42.572438776845786" lon="13.579209519507764"><ele>370.0</ele><time>2026-04-19T10:10:48.999Z</time></trkpt><trkpt lat="42.57250996820088" lon="13.579452770064751"><ele>378.3333333333333</ele><time>2026-04-19T10:10:49.999Z</time></trkpt><trkpt lat="42.572586715714884" lon="13.579651075956983"><ele>386.66666666666663</ele><time>2026-04-19T10:10:50.999Z</time></trkpt><trkpt lat="42.572673125702465" lon="13.579822672405273"><ele>395.0</ele><time>2026-04-19T10:10:51.999Z</time></trkpt><trkpt lat="42.572802429594134" lon="13.579957293203222"><ele>380.66666666666663</ele><time>2026-04-19T10:10:53Z</time></trkpt><trkpt lat="42.57297683014035" lon="13.580048084762446"><ele>366.3333333333333</ele><time>2026-04-19T10:10:54Z</time></trkpt><trkpt lat="42.57315293114205" lon="13.580130936599842"><ele>352.0</ele><time>2026-04-19T10:10:55Z</time></trkpt><trkpt lat="42.57330869425645" lon="13.580225805066153"><ele>352.0</ele><time>2026-04-19T10:10:56Z</time></trkpt><trkpt lat="42.5734592006792" lon="13.58031943482741"><ele>352.0</ele><time>2026-04-19T10:10:57Z</time></trkpt><trkpt lat="42.5736197694179" lon="13.580374399907617"><ele>352.0</ele><time>2026-04-19T10:10:58Z</time></trkpt><trkpt lat="42.57378696328559" lon="13.580373918097417"><ele>348.3333333333333</ele><time>2026-04-19T10:10:59Z</time></trkpt><trkpt lat="42.57396251484613" lon="13.580352231767803"><ele>344.6666666666667</ele><time>2026-04-19T10:11:00Z</time></trkpt><trkpt lat="42.574124915600905" lon="13.580313800250044"><ele>341.0</ele><time>2026-04-19T10:11:01Z</time></trkpt><trkpt lat="42.5742641574959" lon="13.580265802610754"><ele>341.0</ele><time>2026-04-19T10:11:02Z</time></trkpt><trkpt lat="42.574396692478615" lon="13.580260285067471"><ele>341.0</ele><time>2026-04-19T10:11:03Z</time></trkpt><trkpt lat="42.57452657412633" lon="13.580269590662285"><ele>341.0</ele><time>2026-04-19T10:11:04Z</time></trkpt><trkpt lat="42.57469118792467" lon="13.580350087044648"><ele>341.0</ele><time>2026-04-19T10:11:05Z</time></trkpt><trkpt lat="42.57483355974048" lon="13.580447723884639"><ele>343.5</ele><time>2026-04-19T10:11:06Z</time></trkpt><trkpt lat="42.57495044205523" lon="13.580539718662296"><ele>346.0</ele><time>2026-04-19T10:11:07Z</time></trkpt><trkpt lat="42.57504322404511" lon="13.580637187061502"><ele>348.5</ele><time>2026-04-19T10:11:08Z</time></trkpt><trkpt lat="42.575092392505034" lon="13.580773457101179"><ele>351.0</ele><time>2026-04-19T10:11:09Z</time></trkpt><trkpt lat="42.57508097015906" lon="13.580929203076982"><ele>351.0</ele><time>2026-04-19T10:11:10Z</time></trkpt><trkpt lat="42.57501721391215" lon="13.581062782333847"><ele>351.0</ele><time>2026-04-19T10:11:11Z</time></trkpt><trkpt lat="42.57491773990476" lon="13.581167432886867"><ele>351.0</ele><time>2026-04-19T10:11:12Z</time></trkpt><trkpt lat="42.57478458292757" lon="13.581199897914917"><ele>351.0</ele><time>2026-04-19T10:11:13Z</time></trkpt><trkpt lat="42.57464889101172" lon="13.581259992837653"><ele>348.75</ele><time>2026-04-19T10:11:14Z</time></trkpt><trkpt lat="42.57453866394634" lon="13.581331516189175"><ele>346.5</ele><time>2026-04-19T10:11:15Z</time></trkpt><trkpt lat="42.57446762131906" lon="13.581452687018164"><ele>344.25</ele><time>2026-04-19T10:11:16Z</time></trkpt><trkpt lat="42.5744477181887" lon="13.581592678958755"><ele>342.0</ele><time>2026-04-19T10:11:17Z</time></trkpt><trkpt lat="42.57448528162141" lon="13.581748790490657"><ele>342.0</ele><time>2026-04-19T10:11:18Z</time></trkpt><trkpt lat="42.5745565978154" lon="13.581928581422181"><ele>342.0</ele><time>2026-04-19T10:11:19Z</time></trkpt><trkpt lat="42.574626939985876" lon="13.582091615308098"><ele>342.0</ele><time>2026-04-19T10:11:20Z</time></trkpt><trkpt lat="42.57471095660891" lon="13.58227332494831"><ele>342.0</ele><time>2026-04-19T10:11:21Z</time></trkpt><trkpt lat="42.57475941525985" lon="13.582482999772944"><ele>341.6666666666667</ele><time>2026-04-19T10:11:22Z</time></trkpt><trkpt lat="42.57477679316447" lon="13.582724775682026"><ele>341.33333333333337</ele><time>2026-04-19T10:11:23Z</time></trkpt><trkpt lat="42.57479415005541" lon="13.582972088769326"><ele>341.0</ele><time>2026-04-19T10:11:24Z</time></trkpt><trkpt lat="42.57482517388607" lon="13.58319672983995"><ele>344.0</ele><time>2026-04-19T10:11:25Z</time></trkpt><trkpt lat="42.57488577685728" lon="13.58339097523929"><ele>347.0</ele><time>2026-04-19T10:11:26Z</time></trkpt><trkpt lat="42.574989336417616" lon="13.583553860473543"><ele>350.0</ele><time>2026-04-19T10:11:27Z</time></trkpt><trkpt lat="42.57511426378792" lon="13.583712611044414"><ele>355.25</ele><time>2026-04-19T10:11:28Z</time></trkpt><trkpt lat="42.57523116568759" lon="13.583862361160405"><ele>360.5</ele><time>2026-04-19T10:11:29Z</time></trkpt><trkpt lat="42.57532276968642" lon="13.583983784199836"><ele>365.75</ele><time>2026-04-19T10:11:30Z</time></trkpt><trkpt lat="42.57538720037033" lon="13.584094683258215"><ele>371.0</ele><time>2026-04-19T10:11:31Z</time></trkpt><trkpt lat="42.575417973964115" lon="13.584230593423637"><ele>372.75</ele><time>2026-04-19T10:11:31.999Z</time></trkpt><trkpt lat="42.57538793273169" lon="13.584405919902991"><ele>374.5</ele><time>2026-04-19T10:11:32.999Z</time></trkpt><trkpt lat="42.57533727115025" lon="13.584600182203282"><ele>376.25</ele><time>2026-04-19T10:11:33.999Z</time></trkpt><trkpt lat="42.57532269809369" lon="13.58479158056523"><ele>378.0</ele><time>2026-04-19T10:11:34.999Z</time></trkpt><trkpt lat="42.57537339099801" lon="13.585010141605201"><ele>361.0</ele><time>2026-04-19T10:11:35.999Z</time></trkpt><trkpt lat="42.5754436083159" lon="13.585274092739631"><ele>344.0</ele><time>2026-04-19T10:11:36.999Z</time></trkpt><trkpt lat="42.57549451340288" lon="13.585530579623816"><ele>327.0</ele><time>2026-04-19T10:11:37.999Z</time></trkpt><trkpt lat="42.57551422574913" lon="13.58578073157772"><ele>327.0</ele><time>2026-04-19T10:11:38.999Z</time></trkpt><trkpt lat="42.57552492074457" lon="13.586072930120517"><ele>327.0</ele><time>2026-04-19T10:11:39.999Z</time></trkpt><trkpt lat="42.57554224706976" lon="13.58634399037334"><ele>327.0</ele><time>2026-04-19T10:11:40.999Z</time></trkpt><trkpt lat="42.57556495866839" lon="13.58664845280341"><ele>327.6666666666667</ele><time>2026-04-19T10:11:41.999Z</time></trkpt><trkpt lat="42.57559165109537" lon="13.586946387731054"><ele>328.33333333333337</ele><time>2026-04-19T10:11:42.999Z</time></trkpt><trkpt lat="42.57562318648736" lon="13.58720554040523"><ele>329.0</ele><time>2026-04-19T10:11:43.999Z</time></trkpt><trkpt lat="42.57566030909426" lon="13.587450036086924"><ele>331.6666666666667</ele><time>2026-04-19T10:11:44.999Z</time></trkpt><trkpt lat="42.575718421721476" lon="13.587678900493447"><ele>334.3333333333333</ele><time>2026-04-19T10:11:45.999Z</time></trkpt><trkpt lat="42.57581786013002" lon="13.587895927274635"><ele>337.0</ele><time>2026-04-19T10:11:46.999Z</time></trkpt><trkpt lat="42.575943351228965" lon="13.588112712406552"><ele>334.0</ele><time>2026-04-19T10:11:47.999Z</time></trkpt><trkpt lat="42.576060969740595" lon="13.588331309966943"><ele>331.0</ele><time>2026-04-19T10:11:48.999Z</time></trkpt><trkpt lat="42.57616641616544" lon="13.588558426138746"><ele>328.0</ele><time>2026-04-19T10:11:49.999Z</time></trkpt><trkpt lat="42.57626425129864" lon="13.588805510271326"><ele>328.0</ele><time>2026-04-19T10:11:50.999Z</time></trkpt><trkpt lat="42.576362793214166" lon="13.589056026384371"><ele>328.0</ele><time>2026-04-19T10:11:51.999Z</time></trkpt><trkpt lat="42.57645722366235" lon="13.589307485557853"><ele>328.0</ele><time>2026-04-19T10:11:52.999Z</time></trkpt><trkpt lat="42.57653807206498" lon="13.589546804070801"><ele>330.66666666666663</ele><time>2026-04-19T10:11:53.999Z</time></trkpt><trkpt lat="42.57659813805682" lon="13.589782156230775"><ele>333.3333333333333</ele><time>2026-04-19T10:11:54.999Z</time></trkpt><trkpt lat="42.576645287499886" lon="13.590032012763153"><ele>336.0</ele><time>2026-04-19T10:11:55.999Z</time></trkpt><trkpt lat="42.576676600918816" lon="13.590296920206987"><ele>338.6666666666667</ele><time>2026-04-19T10:11:56.999Z</time></trkpt><trkpt lat="42.576696999847734" lon="13.590567487267034"><ele>341.33333333333337</ele><time>2026-04-19T10:11:57.999Z</time></trkpt><trkpt lat="42.5767063229565" lon="13.590815836866271"><ele>344.0</ele><time>2026-04-19T10:11:58.999Z</time></trkpt><trkpt lat="42.57671772673451" lon="13.59104935388772"><ele>344.0</ele><time>2026-04-19T10:11:59.999Z</time></trkpt><trkpt lat="42.576755563344946" lon="13.591280629673836"><ele>344.0</ele><time>2026-04-19T10:12:00.999Z</time></trkpt><trkpt lat="42.57683750450721" lon="13.591500901193331"><ele>344.0</ele><time>2026-04-19T10:12:01.999Z</time></trkpt><trkpt lat="42.57694875085294" lon="13.591711517426997"><ele>337.0</ele><time>2026-04-19T10:12:02.999Z</time></trkpt><trkpt lat="42.57705407881507" lon="13.591915443283167"><ele>330.0</ele><time>2026-04-19T10:12:03.999Z</time></trkpt><trkpt lat="42.57714873274463" lon="13.59210923570224"><ele>323.0</ele><time>2026-04-19T10:12:04.999Z</time></trkpt><trkpt lat="42.57722269215686" lon="13.592307910735817"><ele>323.0</ele><time>2026-04-19T10:12:05.999Z</time></trkpt><trkpt lat="42.57726875319229" lon="13.592547147818042"><ele>323.0</ele><time>2026-04-19T10:12:06.999Z</time></trkpt><trkpt lat="42.57728628440714" lon="13.592817764666806"><ele>323.0</ele><time>2026-04-19T10:12:07.999Z</time></trkpt><trkpt lat="42.57728107230554" lon="13.593134129282149"><ele>322.5</ele><time>2026-04-19T10:12:08.999Z</time></trkpt><trkpt lat="42.57728123900435" lon="13.593508729156872"><ele>322.0</ele><time>2026-04-19T10:12:09.999Z</time></trkpt><trkpt lat="42.57726400002232" lon="13.593926888936034"><ele>322.0</ele><time>2026-04-19T10:12:10.999Z</time></trkpt><trkpt lat="42.57726114684489" lon="13.594346726007469"><ele>322.0</ele><time>2026-04-19T10:12:11.999Z</time></trkpt><trkpt lat="42.57726571351849" lon="13.594704528007858"><ele>322.0</ele><time>2026-04-19T10:12:12.999Z</time></trkpt><trkpt lat="42.577262095649665" lon="13.595016993419716"><ele>322.0</ele><time>2026-04-19T10:12:13.999Z</time></trkpt><trkpt lat="42.57728306914266" lon="13.595297845276807"><ele>322.0</ele><time>2026-04-19T10:12:14.999Z</time></trkpt><trkpt lat="42.57734162256219" lon="13.595589605471842"><ele>329.5</ele><time>2026-04-19T10:12:15.999Z</time></trkpt><trkpt lat="42.57746152299027" lon="13.595904731936768"><ele>337.0</ele><time>2026-04-19T10:12:16.999Z</time></trkpt><trkpt lat="42.577626669620486" lon="13.59620085055211"><ele>349.5</ele><time>2026-04-19T10:12:17.999Z</time></trkpt><trkpt lat="42.57781120293311" lon="13.596448155482973"><ele>362.0</ele><time>2026-04-19T10:12:18.999Z</time></trkpt><trkpt lat="42.57797353894781" lon="13.596631207044258"><ele>351.0</ele><time>2026-04-19T10:12:19.999Z</time></trkpt><trkpt lat="42.578108081559876" lon="13.596764399679872"><ele>340.0</ele><time>2026-04-19T10:12:20.999Z</time></trkpt><trkpt lat="42.57822532148539" lon="13.59685520503534"><ele>329.0</ele><time>2026-04-19T10:12:21.999Z</time></trkpt><trkpt lat="42.57832516035978" lon="13.596948969915463"><ele>318.0</ele><time>2026-04-19T10:12:22.999Z</time></trkpt><trkpt lat="42.57837248948098" lon="13.597098156474356"><ele>318.0</ele><time>2026-04-19T10:12:23.999Z</time></trkpt><trkpt lat="42.5783624536388" lon="13.597311666055523"><ele>318.0</ele><time>2026-04-19T10:12:24.999Z</time></trkpt><trkpt lat="42.57832223973786" lon="13.597576578288807"><ele>318.0</ele><time>2026-04-19T10:12:25.999Z</time></trkpt><trkpt lat="42.57826343428819" lon="13.59792480775041"><ele>315.5</ele><time>2026-04-19T10:12:26.999Z</time></trkpt><trkpt lat="42.57817900244375" lon="13.598295067839167"><ele>313.0</ele><time>2026-04-19T10:12:27.999Z</time></trkpt><trkpt lat="42.5781123006604" lon="13.598615552249326"><ele>311.5</ele><time>2026-04-19T10:12:28.999Z</time></trkpt><trkpt lat="42.578081647138994" lon="13.598928812042544"><ele>310.0</ele><time>2026-04-19T10:12:29.999Z</time></trkpt><trkpt lat="42.5780591110821" lon="13.599270095878216"><ele>311.3333333333333</ele><time>2026-04-19T10:12:30.999Z</time></trkpt><trkpt lat="42.578072792912764" lon="13.599586279246417"><ele>312.6666666666667</ele><time>2026-04-19T10:12:31.999Z</time></trkpt><trkpt lat="42.57813171993853" lon="13.599862306040677"><ele>314.0</ele><time>2026-04-19T10:12:32.999Z</time></trkpt><trkpt lat="42.57821625696187" lon="13.600122928750592"><ele>322.5</ele><time>2026-04-19T10:12:33.999Z</time></trkpt><trkpt lat="42.5783488404344" lon="13.600395671454732"><ele>331.0</ele><time>2026-04-19T10:12:34.999Z</time></trkpt><trkpt lat="42.578522355798206" lon="13.600709976604369"><ele>322.5</ele><time>2026-04-19T10:12:35.999Z</time></trkpt><trkpt lat="42.57871925687548" lon="13.601034786288443"><ele>314.0</ele><time>2026-04-19T10:12:36.999Z</time></trkpt><trkpt lat="42.57890929144447" lon="13.601339280132025"><ele>314.0</ele><time>2026-04-19T10:12:37.999Z</time></trkpt><trkpt lat="42.57905386628132" lon="13.601604114348318"><ele>314.0</ele><time>2026-04-19T10:12:38.999Z</time></trkpt><trkpt lat="42.579184836150695" lon="13.601846729945983"><ele>320.33333333333337</ele><time>2026-04-19T10:12:39.999Z</time></trkpt><trkpt lat="42.57929801738026" lon="13.602066985422633"><ele>326.6666666666667</ele><time>2026-04-19T10:12:40.999Z</time></trkpt><trkpt lat="42.579389110340294" lon="13.602307868684962"><ele>333.0</ele><time>2026-04-19T10:12:41.999Z</time></trkpt><trkpt lat="42.57945151551621" lon="13.602617927516517"><ele>341.5</ele><time>2026-04-19T10:12:42.999Z</time></trkpt><trkpt lat="42.57950957680147" lon="13.602965784938766"><ele>350.0</ele><time>2026-04-19T10:12:43.999Z</time></trkpt><trkpt lat="42.579562421073014" lon="13.603318242484892"><ele>326.0</ele><time>2026-04-19T10:12:44.999Z</time></trkpt><trkpt lat="42.579579791100365" lon="13.60368074154208"><ele>302.0</ele><time>2026-04-19T10:12:45.999Z</time></trkpt><trkpt lat="42.57956824084655" lon="13.604018297829711"><ele>302.0</ele><time>2026-04-19T10:12:46.999Z</time></trkpt><trkpt lat="42.57956722151887" lon="13.604344775330356"><ele>302.0</ele><time>2026-04-19T10:12:47.999Z</time></trkpt><trkpt lat="42.57958404679102" lon="13.604707664150002"><ele>302.0</ele><time>2026-04-19T10:12:48.999Z</time></trkpt><trkpt lat="42.5796238842515" lon="13.605069683643556"><ele>302.0</ele><time>2026-04-19T10:12:49.999Z</time></trkpt><trkpt lat="42.57967491343115" lon="13.605399216281176"><ele>302.0</ele><time>2026-04-19T10:12:50.999Z</time></trkpt><trkpt lat="42.57975609216937" lon="13.605712401623368"><ele>302.0</ele><time>2026-04-19T10:12:51.999Z</time></trkpt><trkpt lat="42.579852840489146" lon="13.605999219541278"><ele>304.0</ele><time>2026-04-19T10:12:52.999Z</time></trkpt><trkpt lat="42.57993408084031" lon="13.606253637188345"><ele>306.0</ele><time>2026-04-19T10:12:53.999Z</time></trkpt><trkpt lat="42.579990866355004" lon="13.60647313112181"><ele>308.0</ele><time>2026-04-19T10:12:54.999Z</time></trkpt><trkpt lat="42.58001409928112" lon="13.606666624936025"><ele>308.0</ele><time>2026-04-19T10:12:55.999Z</time></trkpt><trkpt lat="42.58000651011373" lon="13.606881848115192"><ele>308.0</ele><time>2026-04-19T10:12:56.999Z</time></trkpt><trkpt lat="42.57991978081965" lon="13.6071558072431"><ele>308.0</ele><time>2026-04-19T10:12:57.999Z</time></trkpt><trkpt lat="42.57984682668087" lon="13.607388665777586"><ele>306.6666666666667</ele><time>2026-04-19T10:12:59Z</time></trkpt><trkpt lat="42.579807175651034" lon="13.60763805939907"><ele>305.3333333333333</ele><time>2026-04-19T10:13:00Z</time></trkpt><trkpt lat="42.579814761344856" lon="13.607949402058027"><ele>304.0</ele><time>2026-04-19T10:13:01Z</time></trkpt><trkpt lat="42.57982487969873" lon="13.608205764578662"><ele>302.0</ele><time>2026-04-19T10:13:02Z</time></trkpt><trkpt lat="42.579812178268874" lon="13.608455171728332"><ele>300.0</ele><time>2026-04-19T10:13:03Z</time></trkpt><trkpt lat="42.57975828685922" lon="13.608730575814993"><ele>298.0</ele><time>2026-04-19T10:13:04Z</time></trkpt><trkpt lat="42.57964566000724" lon="13.608992473292234"><ele>299.3333333333333</ele><time>2026-04-19T10:13:05Z</time></trkpt><trkpt lat="42.579508597353914" lon="13.609212744003926"><ele>300.6666666666667</ele><time>2026-04-19T10:13:06Z</time></trkpt><trkpt lat="42.57932414686039" lon="13.60938474609784"><ele>302.0</ele><time>2026-04-19T10:13:07Z</time></trkpt><trkpt lat="42.57911501278977" lon="13.609623422601397"><ele>302.0</ele><time>2026-04-19T10:13:08Z</time></trkpt><trkpt lat="42.578927941141245" lon="13.609961438192673"><ele>302.0</ele><time>2026-04-19T10:13:09Z</time></trkpt><trkpt lat="42.57873828298848" lon="13.610320989788368"><ele>307.0</ele><time>2026-04-19T10:13:10Z</time></trkpt><trkpt lat="42.57858153756924" lon="13.610630877931698"><ele>312.0</ele><time>2026-04-19T10:13:11Z</time></trkpt><trkpt lat="42.578442537812364" lon="13.610914212869135"><ele>307.6666666666667</ele><time>2026-04-19T10:13:12Z</time></trkpt><trkpt lat="42.578331608905096" lon="13.611164275780444"><ele>303.33333333333337</ele><time>2026-04-19T10:13:13Z</time></trkpt><trkpt lat="42.578258977894905" lon="13.61138195320395"><ele>299.0</ele><time>2026-04-19T10:13:14Z</time></trkpt><trkpt lat="42.57821338142493" lon="13.61158015485159"><ele>299.0</ele><time>2026-04-19T10:13:15Z</time></trkpt><trkpt lat="42.57819719786644" lon="13.611796706817765"><ele>299.0</ele><time>2026-04-19T10:13:16Z</time></trkpt><trkpt lat="42.578228427774164" lon="13.612051126892734"><ele>299.0</ele><time>2026-04-19T10:13:17Z</time></trkpt><trkpt lat="42.57829864583685" lon="13.612363722443412"><ele>298.6666666666667</ele><time>2026-04-19T10:13:18Z</time></trkpt><trkpt lat="42.578373892815776" lon="13.612657976247222"><ele>298.3333333333333</ele><time>2026-04-19T10:13:19Z</time></trkpt><trkpt lat="42.57845028469255" lon="13.612906088151624"><ele>298.0</ele><time>2026-04-19T10:13:20Z</time></trkpt><trkpt lat="42.57855280912282" lon="13.613122516631147"><ele>299.0</ele><time>2026-04-19T10:13:21Z</time></trkpt><trkpt lat="42.578682491831586" lon="13.613315559695826"><ele>300.0</ele><time>2026-04-19T10:13:22Z</time></trkpt><trkpt lat="42.57881158705194" lon="13.613489093253776"><ele>301.0</ele><time>2026-04-19T10:13:23Z</time></trkpt><trkpt lat="42.57892536439127" lon="13.61365021122829"><ele>297.25</ele><time>2026-04-19T10:13:24Z</time></trkpt><trkpt lat="42.57900993318838" lon="13.61380400016452"><ele>293.5</ele><time>2026-04-19T10:13:25Z</time></trkpt><trkpt lat="42.57907785396218" lon="13.613969823972623"><ele>289.75</ele><time>2026-04-19T10:13:26Z</time></trkpt><trkpt lat="42.57912784509432" lon="13.614147291348175"><ele>286.0</ele><time>2026-04-19T10:13:27Z</time></trkpt><trkpt lat="42.579139511469315" lon="13.614325861776909"><ele>285.25</ele><time>2026-04-19T10:13:28Z</time></trkpt><trkpt lat="42.579112999071945" lon="13.614504602333428"><ele>284.5</ele><time>2026-04-19T10:13:29Z</time></trkpt><trkpt lat="42.57903825442687" lon="13.614644382227835"><ele>283.75</ele><time>2026-04-19T10:13:30Z</time></trkpt><trkpt lat="42.578953195587914" lon="13.614809769128943"><ele>283.0</ele><time>2026-04-19T10:13:31Z</time></trkpt><trkpt lat="42.578859949388345" lon="13.614958161220775"><ele>283.0</ele><time>2026-04-19T10:13:32Z</time></trkpt><trkpt lat="42.578775028701514" lon="13.615112784838647"><ele>283.0</ele><time>2026-04-19T10:13:33Z</time></trkpt><trkpt lat="42.57869162103195" lon="13.615273855869484"><ele>283.0</ele><time>2026-04-19T10:13:34Z</time></trkpt><trkpt lat="42.57862680847371" lon="13.615449223513835"><ele>283.0</ele><time>2026-04-19T10:13:35Z</time></trkpt><trkpt lat="42.57856312315855" lon="13.615653845023932"><ele>286.66666666666663</ele><time>2026-04-19T10:13:36Z</time></trkpt><trkpt lat="42.578505954982035" lon="13.61586814285772"><ele>290.3333333333333</ele><time>2026-04-19T10:13:37Z</time></trkpt><trkpt lat="42.57845505738711" lon="13.616076604645992"><ele>294.0</ele><time>2026-04-19T10:13:37.999Z</time></trkpt><trkpt lat="42.57841946090633" lon="13.616329007507883"><ele>294.3333333333333</ele><time>2026-04-19T10:13:38.999Z</time></trkpt><trkpt lat="42.57839068199219" lon="13.616588557398494"><ele>294.66666666666663</ele><time>2026-04-19T10:13:39.999Z</time></trkpt><trkpt lat="42.578371790809" lon="13.616805675537623"><ele>295.0</ele><time>2026-04-19T10:13:40.999Z</time></trkpt><trkpt lat="42.57836153351028" lon="13.617007235476816"><ele>294.0</ele><time>2026-04-19T10:13:41.999Z</time></trkpt><trkpt lat="42.578341167715664" lon="13.617208649822345"><ele>293.0</ele><time>2026-04-19T10:13:42.999Z</time></trkpt><trkpt lat="42.57829416738303" lon="13.617406382299336"><ele>292.0</ele><time>2026-04-19T10:13:43.999Z</time></trkpt><trkpt lat="42.57824103371525" lon="13.617587499940436"><ele>291.0</ele><time>2026-04-19T10:13:44.999Z</time></trkpt><trkpt lat="42.578193717759206" lon="13.617772092104428"><ele>289.3333333333333</ele><time>2026-04-19T10:13:45.999Z</time></trkpt><trkpt lat="42.578158255449495" lon="13.617964748745408"><ele>287.66666666666663</ele><time>2026-04-19T10:13:46.999Z</time></trkpt><trkpt lat="42.57813252269924" lon="13.618166937049367"><ele>286.0</ele><time>2026-04-19T10:13:47.999Z</time></trkpt><trkpt lat="42.578105246705604" lon="13.618400963433935"><ele>282.66666666666663</ele><time>2026-04-19T10:13:48.999Z</time></trkpt><trkpt lat="42.57809435370517" lon="13.618684057403506"><ele>279.3333333333333</ele><time>2026-04-19T10:13:49.999Z</time></trkpt><trkpt lat="42.57810408408279" lon="13.61898873606538"><ele>276.0</ele><time>2026-04-19T10:13:50.999Z</time></trkpt><trkpt lat="42.57808842376975" lon="13.61928190962316"><ele>274.6666666666667</ele><time>2026-04-19T10:13:51.999Z</time></trkpt><trkpt lat="42.57805564967938" lon="13.619549313118396"><ele>273.33333333333337</ele><time>2026-04-19T10:13:52.999Z</time></trkpt><trkpt lat="42.5779986417259" lon="13.61979202602181"><ele>272.0</ele><time>2026-04-19T10:13:53.999Z</time></trkpt><trkpt lat="42.577934668569405" lon="13.620026796400667"><ele>272.0</ele><time>2026-04-19T10:13:54.999Z</time></trkpt><trkpt lat="42.57786833174263" lon="13.620256113701965"><ele>272.0</ele><time>2026-04-19T10:13:55.999Z</time></trkpt><trkpt lat="42.57780713939987" lon="13.62048163966847"><ele>272.0</ele><time>2026-04-19T10:13:56.999Z</time></trkpt><trkpt lat="42.57775002903495" lon="13.62070921218118"><ele>275.33333333333337</ele><time>2026-04-19T10:13:57.999Z</time></trkpt><trkpt lat="42.57770497805828" lon="13.620937777881462"><ele>278.6666666666667</ele><time>2026-04-19T10:13:58.999Z</time></trkpt><trkpt lat="42.57768126174317" lon="13.621172498659028"><ele>282.0</ele><time>2026-04-19T10:13:59.999Z</time></trkpt><trkpt lat="42.57767801430971" lon="13.621408247463053"><ele>282.0</ele><time>2026-04-19T10:14:00.999Z</time></trkpt><trkpt lat="42.57769555914588" lon="13.621644030732782"><ele>282.0</ele><time>2026-04-19T10:14:01.999Z</time></trkpt><trkpt lat="42.57772364257252" lon="13.621879858024807"><ele>282.0</ele><time>2026-04-19T10:14:02.999Z</time></trkpt><trkpt lat="42.577758931265016" lon="13.622116240496286"><ele>282.0</ele><time>2026-04-19T10:14:03.999Z</time></trkpt><trkpt lat="42.577797954773914" lon="13.622351688578638"><ele>282.0</ele><time>2026-04-19T10:14:04.999Z</time></trkpt><trkpt lat="42.577836854350515" lon="13.622587945263717"><ele>282.0</ele><time>2026-04-19T10:14:05.999Z</time></trkpt><trkpt lat="42.57787668104483" lon="13.622824201459698"><ele>276.6666666666667</ele><time>2026-04-19T10:14:06.999Z</time></trkpt><trkpt lat="42.57791577655969" lon="13.623052078058507"><ele>271.33333333333337</ele><time>2026-04-19T10:14:07.999Z</time></trkpt><trkpt lat="42.577953603946725" lon="13.623269384589717"><ele>266.0</ele><time>2026-04-19T10:14:08.999Z</time></trkpt><trkpt lat="42.57798553078514" lon="13.623474819459762"><ele>264.0</ele><time>2026-04-19T10:14:09.999Z</time></trkpt><trkpt lat="42.578003358147804" lon="13.623677428241374"><ele>262.0</ele><time>2026-04-19T10:14:10.999Z</time></trkpt><trkpt lat="42.57799741075058" lon="13.623878684677335"><ele>260.0</ele><time>2026-04-19T10:14:11.999Z</time></trkpt><trkpt lat="42.57797862919559" lon="13.624082821547889"><ele>260.0</ele><time>2026-04-19T10:14:12.999Z</time></trkpt><trkpt lat="42.577945607154234" lon="13.62428382624204"><ele>260.0</ele><time>2026-04-19T10:14:13.999Z</time></trkpt><trkpt lat="42.577902248729934" lon="13.624464030755863"><ele>260.0</ele><time>2026-04-19T10:14:14.999Z</time></trkpt><trkpt lat="42.57786252991897" lon="13.624634417782007"><ele>260.0</ele><time>2026-04-19T10:14:15.999Z</time></trkpt><trkpt lat="42.577827590600535" lon="13.624784370061132"><ele>260.2</ele><time>2026-04-19T10:14:16.999Z</time></trkpt><trkpt lat="42.57781974155211" lon="13.62492153211087"><ele>260.4</ele><time>2026-04-19T10:14:17.999Z</time></trkpt><trkpt lat="42.5778649724755" lon="13.625040877958375"><ele>260.6</ele><time>2026-04-19T10:14:18.999Z</time></trkpt><trkpt lat="42.57794980651837" lon="13.625139277506321"><ele>260.8</ele><time>2026-04-19T10:14:19.999Z</time></trkpt><trkpt lat="42.57806127125946" lon="13.625228469037962"><ele>261.0</ele><time>2026-04-19T10:14:20.999Z</time></trkpt><trkpt lat="42.578209217781854" lon="13.625329022973224"><ele>264.6666666666667</ele><time>2026-04-19T10:14:21.999Z</time></trkpt><trkpt lat="42.57833656990443" lon="13.62543641386681"><ele>268.33333333333337</ele><time>2026-04-19T10:14:22.999Z</time></trkpt><trkpt lat="42.57845369645397" lon="13.625582223659743"><ele>272.0</ele><time>2026-04-19T10:14:23.999Z</time></trkpt><trkpt lat="42.578555934043166" lon="13.62574899114025"><ele>272.0</ele><time>2026-04-19T10:14:24.999Z</time></trkpt><trkpt lat="42.578648244533404" lon="13.625905055250854"><ele>272.0</ele><time>2026-04-19T10:14:25.999Z</time></trkpt><trkpt lat="42.57873716241808" lon="13.626053512354305"><ele>272.0</ele><time>2026-04-19T10:14:26.999Z</time></trkpt><trkpt lat="42.57882246817867" lon="13.626197471408542"><ele>272.0</ele><time>2026-04-19T10:14:27.999Z</time></trkpt><trkpt lat="42.57890841551152" lon="13.626340683619183"><ele>270.75</ele><time>2026-04-19T10:14:28.999Z</time></trkpt><trkpt lat="42.57899520917327" lon="13.626488727407978"><ele>269.5</ele><time>2026-04-19T10:14:29.999Z</time></trkpt><trkpt lat="42.579081997350485" lon="13.626639767715009"><ele>268.25</ele><time>2026-04-19T10:14:30.999Z</time></trkpt><trkpt lat="42.57916173802897" lon="13.626791041434169"><ele>267.0</ele><time>2026-04-19T10:14:31.999Z</time></trkpt><trkpt lat="42.57923288461741" lon="13.626943867221543"><ele>267.75</ele><time>2026-04-19T10:14:32.999Z</time></trkpt><trkpt lat="42.57929840086966" lon="13.627096700705236"><ele>268.5</ele><time>2026-04-19T10:14:33.999Z</time></trkpt><trkpt lat="42.57936030233052" lon="13.627246722611941"><ele>269.25</ele><time>2026-04-19T10:14:34.999Z</time></trkpt><trkpt lat="42.579418909220195" lon="13.627396781714278"><ele>270.0</ele><time>2026-04-19T10:14:35.999Z</time></trkpt><trkpt lat="42.579472087590965" lon="13.627551723986864"><ele>269.0</ele><time>2026-04-19T10:14:36.999Z</time></trkpt><trkpt lat="42.5795239643032" lon="13.627708099613589"><ele>268.0</ele><time>2026-04-19T10:14:37.999Z</time></trkpt><trkpt lat="42.57957559775958" lon="13.627865143960134"><ele>267.0</ele><time>2026-04-19T10:14:38.999Z</time></trkpt><trkpt lat="42.5796254285849" lon="13.628022212454818"><ele>266.0</ele><time>2026-04-19T10:14:39.999Z</time></trkpt><trkpt lat="42.579675580493685" lon="13.628179196646446"><ele>265.5</ele><time>2026-04-19T10:14:40.999Z</time></trkpt><trkpt lat="42.579724500830984" lon="13.628338118605548"><ele>265.0</ele><time>2026-04-19T10:14:41.999Z</time></trkpt><trkpt lat="42.57977286461807" lon="13.62849775025894"><ele>264.5</ele><time>2026-04-19T10:14:42.999Z</time></trkpt><trkpt lat="42.579821329395664" lon="13.628654009984912"><ele>264.0</ele><time>2026-04-19T10:14:43.999Z</time></trkpt><trkpt lat="42.57986672965666" lon="13.628796582142629"><ele>263.5</ele><time>2026-04-19T10:14:44.999Z</time></trkpt><trkpt lat="42.579909639969834" lon="13.628932336265635"><ele>263.0</ele><time>2026-04-19T10:14:45.999Z</time></trkpt><trkpt lat="42.57994862065409" lon="13.629056975730505"><ele>262.5</ele><time>2026-04-19T10:14:46.999Z</time></trkpt><trkpt lat="42.57998346294441" lon="13.629170514740528"><ele>262.0</ele><time>2026-04-19T10:14:47.999Z</time></trkpt><trkpt lat="42.580011289436975" lon="13.629269628851114"><ele>261.5</ele><time>2026-04-19T10:14:48.999Z</time></trkpt><trkpt lat="42.5800368302437" lon="13.629361020188995"><ele>261.0</ele><time>2026-04-19T10:14:49.999Z</time></trkpt><trkpt lat="42.58006105247093" lon="13.629491521358482"><ele>260.8333333333333</ele><time>2026-04-19T10:14:51.999Z</time></trkpt><trkpt lat="42.58008045315764" lon="13.629574746381355"><ele>260.6666666666667</ele><time>2026-04-19T10:15:24Z</time></trkpt><trkpt lat="42.580100574743994" lon="13.62967017592029"><ele>260.5</ele><time>2026-04-19T10:16:52.999Z</time></trkpt><trkpt lat="42.580167580038975" lon="13.629737334308475"><ele>260.33333333333337</ele><time>2026-04-19T10:17:44Z</time></trkpt><trkpt lat="42.580211796261" lon="13.629872169805862"><ele>260.1666666666667</ele><time>2026-04-19T10:17:46Z</time></trkpt><trkpt lat="42.58022308324053" lon="13.62996145859032"><ele>260.0</ele><time>2026-04-19T10:17:47Z</time></trkpt><trkpt lat="42.58024477602087" lon="13.630121147385223"><ele>260.0</ele><time>2026-04-19T10:17:49Z</time></trkpt><trkpt lat="42.580219068996605" lon="13.630274232021145"><ele>260.0</ele><time>2026-04-19T10:17:51Z</time></trkpt><trkpt lat="42.58020268213095" lon="13.63041506973611"><ele>260.0</ele><time>2026-04-19T10:17:53Z</time></trkpt><trkpt lat="42.58028353487376" lon="13.630551030056681"><ele>260.0</ele><time>2026-04-19T10:17:55Z</time></trkpt><trkpt lat="42.58034707680178" lon="13.630605672710963"><ele>260.0</ele><time>2026-04-19T10:17:56Z</time></trkpt><trkpt lat="42.580413065228086" lon="13.630677796682344"><ele>258.2</ele><time>2026-04-19T10:17:57Z</time></trkpt><trkpt lat="42.580463777771335" lon="13.630762320245644"><ele>256.4</ele><time>2026-04-19T10:17:58Z</time></trkpt><trkpt lat="42.58051269357135" lon="13.630861928374584"><ele>254.60000000000002</ele><time>2026-04-19T10:17:59Z</time></trkpt><trkpt lat="42.580557066656326" lon="13.630977176069601"><ele>252.8</ele><time>2026-04-19T10:18:00Z</time></trkpt><trkpt lat="42.580601560990246" lon="13.631098873680163"><ele>251.0</ele><time>2026-04-19T10:18:01Z</time></trkpt><trkpt lat="42.58064740731224" lon="13.63122326430548"><ele>250.60000000000002</ele><time>2026-04-19T10:18:02Z</time></trkpt><trkpt lat="42.58069206851789" lon="13.631355042280301"><ele>250.20000000000002</ele><time>2026-04-19T10:18:03Z</time></trkpt><trkpt lat="42.5807320810754" lon="13.631481894154293"><ele>249.79999999999998</ele><time>2026-04-19T10:18:04Z</time></trkpt><trkpt lat="42.58077345202616" lon="13.63162300687117"><ele>249.39999999999998</ele><time>2026-04-19T10:18:05Z</time></trkpt><trkpt lat="42.58081415364835" lon="13.631756018968783"><ele>249.0</ele><time>2026-04-19T10:18:06Z</time></trkpt><trkpt lat="42.58085958618725" lon="13.631892912132873"><ele>248.39999999999998</ele><time>2026-04-19T10:18:07Z</time></trkpt><trkpt lat="42.58090350681065" lon="13.632035309695183"><ele>247.79999999999998</ele><time>2026-04-19T10:18:08Z</time></trkpt><trkpt lat="42.58094755658622" lon="13.632174539908053"><ele>247.20000000000002</ele><time>2026-04-19T10:18:09Z</time></trkpt><trkpt lat="42.58099251606025" lon="13.632310819470401"><ele>246.60000000000002</ele><time>2026-04-19T10:18:10Z</time></trkpt><trkpt lat="42.58103792440482" lon="13.632445973454468"><ele>246.0</ele><time>2026-04-19T10:18:11Z</time></trkpt><trkpt lat="42.58108021326732" lon="13.632576520520946"><ele>246.0</ele><time>2026-04-19T10:18:12Z</time></trkpt><trkpt lat="42.58111591511391" lon="13.632700258749285"><ele>246.00000000000003</ele><time>2026-04-19T10:18:13Z</time></trkpt><trkpt lat="42.581150125512146" lon="13.632819329382277"><ele>246.00000000000003</ele><time>2026-04-19T10:18:14Z</time></trkpt><trkpt lat="42.581186524791185" lon="13.632936343434896"><ele>246.0</ele><time>2026-04-19T10:18:15Z</time></trkpt><trkpt lat="42.58122221661235" lon="13.633047252243594"><ele>246.0</ele><time>2026-04-19T10:18:16Z</time></trkpt><trkpt lat="42.58126305720292" lon="13.63318407027704"><ele>247.5</ele><time>2026-04-19T10:18:17Z</time></trkpt><trkpt lat="42.58130627614992" lon="13.633326069170536"><ele>249.0</ele><time>2026-04-19T10:18:18Z</time></trkpt><trkpt lat="42.58135423159711" lon="13.633470598596068"><ele>250.5</ele><time>2026-04-19T10:18:18.999Z</time></trkpt><trkpt lat="42.58140116707668" lon="13.633611535615929"><ele>252.0</ele><time>2026-04-19T10:18:19.999Z</time></trkpt><trkpt lat="42.58144654276101" lon="13.633747686582447"><ele>252.0</ele><time>2026-04-19T10:18:20.999Z</time></trkpt><trkpt lat="42.58149456356697" lon="13.633891845308138"><ele>252.0</ele><time>2026-04-19T10:18:21.999Z</time></trkpt><trkpt lat="42.58154072739585" lon="13.634027786810366"><ele>252.0</ele><time>2026-04-19T10:18:22.999Z</time></trkpt><trkpt lat="42.58158126700213" lon="13.634154753428945"><ele>252.0</ele><time>2026-04-19T10:18:23.999Z</time></trkpt><trkpt lat="42.58162287421845" lon="13.634284661966392"><ele>252.0</ele><time>2026-04-19T10:18:24.999Z</time></trkpt><trkpt lat="42.58166440742351" lon="13.634410690877345"><ele>252.2</ele><time>2026-04-19T10:18:25.999Z</time></trkpt><trkpt lat="42.58170679589616" lon="13.634543405069243"><ele>252.39999999999998</ele><time>2026-04-19T10:18:26.999Z</time></trkpt><trkpt lat="42.581747991243674" lon="13.63467768046957"><ele>252.60000000000002</ele><time>2026-04-19T10:18:27.999Z</time></trkpt><trkpt lat="42.5817859718449" lon="13.634807184429233"><ele>252.8</ele><time>2026-04-19T10:18:28.999Z</time></trkpt><trkpt lat="42.581826222914586" lon="13.634940642665258"><ele>253.0</ele><time>2026-04-19T10:18:29.999Z</time></trkpt><trkpt lat="42.58186986002156" lon="13.635073487601343"><ele>253.0</ele><time>2026-04-19T10:18:30.999Z</time></trkpt><trkpt lat="42.58191202703409" lon="13.635211882523448"><ele>253.0</ele><time>2026-04-19T10:18:31.999Z</time></trkpt><trkpt lat="42.58195699643939" lon="13.635353546180946"><ele>253.0</ele><time>2026-04-19T10:18:32.999Z</time></trkpt><trkpt lat="42.58200015327677" lon="13.635495966539871"><ele>253.0</ele><time>2026-04-19T10:18:33.999Z</time></trkpt><trkpt lat="42.58204680766726" lon="13.635639223626693"><ele>253.60000000000002</ele><time>2026-04-19T10:18:34.999Z</time></trkpt><trkpt lat="42.5820921748644" lon="13.635777328753061"><ele>254.20000000000002</ele><time>2026-04-19T10:18:35.999Z</time></trkpt><trkpt lat="42.58213813720419" lon="13.635909700264815"><ele>254.8</ele><time>2026-04-19T10:18:36.999Z</time></trkpt><trkpt lat="42.58218162025266" lon="13.636037268095984"><ele>255.4</ele><time>2026-04-19T10:18:37.999Z</time></trkpt><trkpt lat="42.582218400273334" lon="13.636157995624876"><ele>256.0</ele><time>2026-04-19T10:18:38.999Z</time></trkpt><trkpt lat="42.58225476020455" lon="13.63627170825155"><ele>255.99999999999997</ele><time>2026-04-19T10:18:39.999Z</time></trkpt><trkpt lat="42.58228907735471" lon="13.636372672864278"><ele>256.0</ele><time>2026-04-19T10:18:40.999Z</time></trkpt><trkpt lat="42.582320928397564" lon="13.636467573495759"><ele>256.0</ele><time>2026-04-19T10:18:41.999Z</time></trkpt><trkpt lat="42.58234928675777" lon="13.636556108436862"><ele>256.0</ele><time>2026-04-19T10:18:42.999Z</time></trkpt><trkpt lat="42.58237391649688" lon="13.636639486593882"><ele>255.99999999999997</ele><time>2026-04-19T10:18:43.999Z</time></trkpt><trkpt lat="42.58241658901909" lon="13.636785261191713"><ele>256.0</ele><time>2026-04-19T10:18:45.999Z</time></trkpt><trkpt lat="42.582461330818624" lon="13.636915947555236"><ele>255.20000000000002</ele><time>2026-04-19T10:18:47.999Z</time></trkpt><trkpt lat="42.58250483626093" lon="13.637038598972866"><ele>254.40000000000003</ele><time>2026-04-19T10:18:49.999Z</time></trkpt><trkpt lat="42.58254168073631" lon="13.637162270529492"><ele>253.6</ele><time>2026-04-19T10:18:51.999Z</time></trkpt><trkpt lat="42.58257035395771" lon="13.637288277649127"><ele>252.8</ele><time>2026-04-19T10:18:53.999Z</time></trkpt><trkpt lat="42.5825874272478" lon="13.637400270803036"><ele>252.0</ele><time>2026-04-19T10:18:55.999Z</time></trkpt><trkpt lat="42.582588815292" lon="13.637505247576264"><ele>252.0</ele><time>2026-04-19T10:18:58.999Z</time></trkpt><trkpt lat="42.582575297503396" lon="13.637658685387596"><ele>252.0</ele><time>2026-04-19T10:19:01.999Z</time></trkpt><trkpt lat="42.58259871142902" lon="13.637739885960988"><ele>252.0</ele><time>2026-04-19T10:19:02.999Z</time></trkpt><trkpt lat="42.58264369171519" lon="13.637814454919548"><ele>252.0</ele><time>2026-04-19T10:19:03.999Z</time></trkpt><trkpt lat="42.58270639265838" lon="13.637891414006413"><ele>252.0</ele><time>2026-04-19T10:19:04.999Z</time></trkpt><trkpt lat="42.58276684101578" lon="13.637979539281892"><ele>252.0</ele><time>2026-04-19T10:19:05.999Z</time></trkpt><trkpt lat="42.58282162097133" lon="13.63810069648369"><ele>252.0</ele><time>2026-04-19T10:19:06.999Z</time></trkpt><trkpt lat="42.582870197297574" lon="13.638235487588833"><ele>252.0</ele><time>2026-04-19T10:19:07.999Z</time></trkpt><trkpt lat="42.58291742175956" lon="13.638387147546265"><ele>252.0</ele><time>2026-04-19T10:19:08.999Z</time></trkpt><trkpt lat="42.582966104968335" lon="13.638545611180067"><ele>252.0</ele><time>2026-04-19T10:19:09.999Z</time></trkpt><trkpt lat="42.583017967209436" lon="13.638709985028111"><ele>252.0</ele><time>2026-04-19T10:19:10.999Z</time></trkpt><trkpt lat="42.583070621015544" lon="13.638878366647724"><ele>252.0</ele><time>2026-04-19T10:19:11.999Z</time></trkpt><trkpt lat="42.583125289849306" lon="13.639047953849646"><ele>252.0</ele><time>2026-04-19T10:19:12.999Z</time></trkpt><trkpt lat="42.583180721953084" lon="13.639217315746816"><ele>252.0</ele><time>2026-04-19T10:19:13.999Z</time></trkpt><trkpt lat="42.58323560824265" lon="13.639389144624152"><ele>251.75</ele><time>2026-04-19T10:19:14.999Z</time></trkpt><trkpt lat="42.58329209427283" lon="13.639560495993047"><ele>251.5</ele><time>2026-04-19T10:19:15.999Z</time></trkpt><trkpt lat="42.58335066380364" lon="13.639738308706665"><ele>251.25</ele><time>2026-04-19T10:19:17Z</time></trkpt><trkpt lat="42.58340415579405" lon="13.639915066098679"><ele>251.0</ele><time>2026-04-19T10:19:18Z</time></trkpt><trkpt lat="42.58345925656665" lon="13.640086302679244"><ele>251.0</ele><time>2026-04-19T10:19:19Z</time></trkpt><trkpt lat="42.58351270869567" lon="13.640262690709903"><ele>251.0</ele><time>2026-04-19T10:19:20Z</time></trkpt><trkpt lat="42.58356918972212" lon="13.640430092860626"><ele>251.0</ele><time>2026-04-19T10:19:21Z</time></trkpt><trkpt lat="42.58362196546104" lon="13.640596429170138"><ele>251.0</ele><time>2026-04-19T10:19:22Z</time></trkpt><trkpt lat="42.58367284342471" lon="13.64076334776204"><ele>255.0</ele><time>2026-04-19T10:19:23Z</time></trkpt><trkpt lat="42.583721940212456" lon="13.6409238388834"><ele>259.0</ele><time>2026-04-19T10:19:24Z</time></trkpt><trkpt lat="42.58377038700269" lon="13.641069037006826"><ele>263.0</ele><time>2026-04-19T10:19:25Z</time></trkpt><trkpt lat="42.58381613371275" lon="13.641214624466247"><ele>267.0</ele><time>2026-04-19T10:19:26Z</time></trkpt><trkpt lat="42.58386804310634" lon="13.641378014555732"><ele>267.25</ele><time>2026-04-19T10:19:27Z</time></trkpt><trkpt lat="42.58391848249426" lon="13.641547067429206"><ele>267.5</ele><time>2026-04-19T10:19:28Z</time></trkpt><trkpt lat="42.58395670796576" lon="13.641724627022704"><ele>267.75</ele><time>2026-04-19T10:19:29Z</time></trkpt><trkpt lat="42.58399634288765" lon="13.641914544348252"><ele>268.0</ele><time>2026-04-19T10:19:30Z</time></trkpt><trkpt lat="42.58403622165197" lon="13.64212426524807"><ele>268.0</ele><time>2026-04-19T10:19:31Z</time></trkpt><trkpt lat="42.5840741993656" lon="13.642324284106643"><ele>268.0</ele><time>2026-04-19T10:19:32Z</time></trkpt><trkpt lat="42.58411336312153" lon="13.64252293237307"><ele>268.0</ele><time>2026-04-19T10:19:33Z</time></trkpt><trkpt lat="42.5841513180668" lon="13.642722616023297"><ele>265.0</ele><time>2026-04-19T10:19:34Z</time></trkpt><trkpt lat="42.58419553600626" lon="13.642918819118318"><ele>262.0</ele><time>2026-04-19T10:19:35Z</time></trkpt><trkpt lat="42.58424281066712" lon="13.643118704550947"><ele>259.0</ele><time>2026-04-19T10:19:36Z</time></trkpt><trkpt lat="42.58429376254382" lon="13.643322507125102"><ele>259.0</ele><time>2026-04-19T10:19:37Z</time></trkpt><trkpt lat="42.584351968291315" lon="13.643523675491275"><ele>259.0</ele><time>2026-04-19T10:19:38Z</time></trkpt><trkpt lat="42.5844135030133" lon="13.643725494221474"><ele>259.0</ele><time>2026-04-19T10:19:39Z</time></trkpt><trkpt lat="42.584472074776784" lon="13.643927834324153"><ele>264.0</ele><time>2026-04-19T10:19:40Z</time></trkpt><trkpt lat="42.584531505748885" lon="13.6441302743107"><ele>269.0</ele><time>2026-04-19T10:19:41Z</time></trkpt><trkpt lat="42.584590651607094" lon="13.644340276582696"><ele>274.0</ele><time>2026-04-19T10:19:42Z</time></trkpt><trkpt lat="42.58464482773718" lon="13.644554254478507"><ele>274.0</ele><time>2026-04-19T10:19:43Z</time></trkpt><trkpt lat="42.58469701908051" lon="13.644770386214223"><ele>274.0</ele><time>2026-04-19T10:19:44Z</time></trkpt><trkpt lat="42.58475074500312" lon="13.644978633760068"><ele>274.0</ele><time>2026-04-19T10:19:45Z</time></trkpt><trkpt lat="42.584795578107354" lon="13.645190897700688"><ele>272.0</ele><time>2026-04-19T10:19:46Z</time></trkpt><trkpt lat="42.58483511298713" lon="13.64540708871944"><ele>270.0</ele><time>2026-04-19T10:19:47Z</time></trkpt><trkpt lat="42.58487547804087" lon="13.645624159497133"><ele>268.0</ele><time>2026-04-19T10:19:48Z</time></trkpt><trkpt lat="42.5849102348591" lon="13.645848470611035"><ele>268.0</ele><time>2026-04-19T10:19:49Z</time></trkpt><trkpt lat="42.58495782570962" lon="13.646083109239068"><ele>268.0</ele><time>2026-04-19T10:19:50Z</time></trkpt><trkpt lat="42.584997050369466" lon="13.646299966592647"><ele>268.0</ele><time>2026-04-19T10:19:51Z</time></trkpt><trkpt lat="42.58503029057901" lon="13.646496441319815"><ele>267.0</ele><time>2026-04-19T10:19:52Z</time></trkpt><trkpt lat="42.58506328528994" lon="13.646690159816261"><ele>266.0</ele><time>2026-04-19T10:19:53Z</time></trkpt><trkpt lat="42.58509779875032" lon="13.646884386777746"><ele>265.0</ele><time>2026-04-19T10:19:54Z</time></trkpt><trkpt lat="42.58513359899324" lon="13.64708373853276"><ele>264.0</ele><time>2026-04-19T10:19:55Z</time></trkpt><trkpt lat="42.58516561448139" lon="13.6472606401189"><ele>264.0</ele><time>2026-04-19T10:19:56Z</time></trkpt><trkpt lat="42.58520147515299" lon="13.647441143989797"><ele>264.0</ele><time>2026-04-19T10:19:57Z</time></trkpt><trkpt lat="42.585234210561254" lon="13.647630222030678"><ele>264.0</ele><time>2026-04-19T10:19:58Z</time></trkpt><trkpt lat="42.585249940673776" lon="13.64781430363893"><ele>264.0</ele><time>2026-04-19T10:19:59Z</time></trkpt><trkpt lat="42.585297159596095" lon="13.647989349037939"><ele>263.75</ele><time>2026-04-19T10:20:00Z</time></trkpt><trkpt lat="42.58532810817048" lon="13.64817022938253"><ele>263.5</ele><time>2026-04-19T10:20:01Z</time></trkpt><trkpt lat="42.585357419838175" lon="13.648348957124965"><ele>263.25</ele><time>2026-04-19T10:20:02Z</time></trkpt><trkpt lat="42.58538917547178" lon="13.648523041110098"><ele>263.0</ele><time>2026-04-19T10:20:03Z</time></trkpt><trkpt lat="42.585420107636885" lon="13.648700801809325"><ele>268.25</ele><time>2026-04-19T10:20:04Z</time></trkpt><trkpt lat="42.585448012264166" lon="13.648879488646566"><ele>273.5</ele><time>2026-04-19T10:20:05Z</time></trkpt><trkpt lat="42.58547611975846" lon="13.649055526940272"><ele>278.75</ele><time>2026-04-19T10:20:06Z</time></trkpt><trkpt lat="42.5855035683045" lon="13.649234002145372"><ele>284.0</ele><time>2026-04-19T10:20:07Z</time></trkpt><trkpt lat="42.58553286888353" lon="13.649414178632696"><ele>283.5</ele><time>2026-04-19T10:20:07.999Z</time></trkpt><trkpt lat="42.58556814805801" lon="13.649597287169884"><ele>283.0</ele><time>2026-04-19T10:20:08.999Z</time></trkpt><trkpt lat="42.58560921033422" lon="13.649780345278588"><ele>282.5</ele><time>2026-04-19T10:20:09.999Z</time></trkpt><trkpt lat="42.585661836851294" lon="13.64996297493097"><ele>282.0</ele><time>2026-04-19T10:20:10.999Z</time></trkpt><trkpt lat="42.58572908227903" lon="13.65014197158284"><ele>279.6666666666667</ele><time>2026-04-19T10:20:11.999Z</time></trkpt><trkpt lat="42.58581003900112" lon="13.65031199213304"><ele>277.33333333333337</ele><time>2026-04-19T10:20:12.999Z</time></trkpt><trkpt lat="42.58590551596472" lon="13.650474799903172"><ele>275.0</ele><time>2026-04-19T10:20:13.999Z</time></trkpt><trkpt lat="42.58600962968315" lon="13.650624390274162"><ele>275.0</ele><time>2026-04-19T10:20:14.999Z</time></trkpt><trkpt lat="42.58612372782002" lon="13.650762753296524"><ele>275.0</ele><time>2026-04-19T10:20:15.999Z</time></trkpt><trkpt lat="42.586245704062115" lon="13.65088953615002"><ele>275.0</ele><time>2026-04-19T10:20:16.999Z</time></trkpt><trkpt lat="42.5863745692865" lon="13.651003058626298"><ele>275.33333333333337</ele><time>2026-04-19T10:20:17.999Z</time></trkpt><trkpt lat="42.58651172988419" lon="13.651099549623787"><ele>275.6666666666667</ele><time>2026-04-19T10:20:18.999Z</time></trkpt><trkpt lat="42.586656223994" lon="13.651176530677043"><ele>276.0</ele><time>2026-04-19T10:20:19.999Z</time></trkpt><trkpt lat="42.58680428825725" lon="13.651242441323129"><ele>276.0</ele><time>2026-04-19T10:20:20.999Z</time></trkpt><trkpt lat="42.58695537086092" lon="13.651289689591508"><ele>276.0</ele><time>2026-04-19T10:20:21.999Z</time></trkpt><trkpt lat="42.58711036771453" lon="13.651320235048006"><ele>276.0</ele><time>2026-04-19T10:20:22.999Z</time></trkpt><trkpt lat="42.58727083857915" lon="13.651331923085568"><ele>274.3333333333333</ele><time>2026-04-19T10:20:23.999Z</time></trkpt><trkpt lat="42.58743660461232" lon="13.651324149571334"><ele>272.66666666666663</ele><time>2026-04-19T10:20:24.999Z</time></trkpt><trkpt lat="42.5876019986676" lon="13.651297007044725"><ele>271.0</ele><time>2026-04-19T10:20:25.999Z</time></trkpt><trkpt lat="42.58776635386613" lon="13.651249392109323"><ele>270.0</ele><time>2026-04-19T10:20:26.999Z</time></trkpt><trkpt lat="42.58792725333353" lon="13.651179842735749"><ele>269.0</ele><time>2026-04-19T10:20:27.999Z</time></trkpt><trkpt lat="42.588083608500455" lon="13.651087565206113"><ele>268.0</ele><time>2026-04-19T10:20:28.999Z</time></trkpt><trkpt lat="42.58822513891711" lon="13.650981332028941"><ele>271.0</ele><time>2026-04-19T10:20:29.999Z</time></trkpt><trkpt lat="42.58836307007906" lon="13.650870122978047"><ele>274.0</ele><time>2026-04-19T10:20:30.999Z</time></trkpt><trkpt lat="42.5884989862315" lon="13.650751956224603"><ele>277.0</ele><time>2026-04-19T10:20:31.999Z</time></trkpt><trkpt lat="42.58863931536467" lon="13.65062976131394"><ele>277.3333333333333</ele><time>2026-04-19T10:20:32.999Z</time></trkpt><trkpt lat="42.5887806865846" lon="13.650507106661543"><ele>277.6666666666667</ele><time>2026-04-19T10:20:33.999Z</time></trkpt><trkpt lat="42.588926437350544" lon="13.650379250840844"><ele>278.0</ele><time>2026-04-19T10:20:34.999Z</time></trkpt><trkpt lat="42.58907400569797" lon="13.650249831009202"><ele>278.0</ele><time>2026-04-19T10:20:35.999Z</time></trkpt><trkpt lat="42.589216512517616" lon="13.650124846773691"><ele>278.0</ele><time>2026-04-19T10:20:36.999Z</time></trkpt><trkpt lat="42.58936149529878" lon="13.649997988097084"><ele>278.0</ele><time>2026-04-19T10:20:37.999Z</time></trkpt><trkpt lat="42.58950284551533" lon="13.649871037148305"><ele>279.6666666666667</ele><time>2026-04-19T10:20:38.999Z</time></trkpt><trkpt lat="42.5896362762207" lon="13.64975816969219"><ele>281.3333333333333</ele><time>2026-04-19T10:20:39.999Z</time></trkpt><trkpt lat="42.58975972746423" lon="13.649654010232052"><ele>283.0</ele><time>2026-04-19T10:20:40.999Z</time></trkpt><trkpt lat="42.589891102304115" lon="13.649557876967606"><ele>283.0</ele><time>2026-04-19T10:20:41.999Z</time></trkpt><trkpt lat="42.59002867615774" lon="13.649472064683167"><ele>283.0</ele><time>2026-04-19T10:20:42.999Z</time></trkpt><trkpt lat="42.59016570572693" lon="13.649399943807548"><ele>283.0</ele><time>2026-04-19T10:20:43.999Z</time></trkpt><trkpt lat="42.59030348551661" lon="13.649340920735984"><ele>283.0</ele><time>2026-04-19T10:20:44.999Z</time></trkpt><trkpt lat="42.590442654231644" lon="13.649297855926141"><ele>284.25</ele><time>2026-04-19T10:20:45.999Z</time></trkpt><trkpt lat="42.590582249459494" lon="13.649268012698812"><ele>285.5</ele><time>2026-04-19T10:20:46.999Z</time></trkpt><trkpt lat="42.59072550642521" lon="13.649248194364867"><ele>286.75</ele><time>2026-04-19T10:20:47.999Z</time></trkpt><trkpt lat="42.590871240994765" lon="13.649242656180169"><ele>288.0</ele><time>2026-04-19T10:20:48.999Z</time></trkpt><trkpt lat="42.59101656648668" lon="13.649252082417531"><ele>288.0</ele><time>2026-04-19T10:20:49.999Z</time></trkpt><trkpt lat="42.5911652372151" lon="13.649271694829675"><ele>288.0</ele><time>2026-04-19T10:20:50.999Z</time></trkpt><trkpt lat="42.59131448882942" lon="13.649302552900318"><ele>288.0</ele><time>2026-04-19T10:20:51.999Z</time></trkpt><trkpt lat="42.591463928714155" lon="13.649347393209933"><ele>289.25</ele><time>2026-04-19T10:20:52.999Z</time></trkpt><trkpt lat="42.5916152852939" lon="13.649409457274771"><ele>290.5</ele><time>2026-04-19T10:20:53.999Z</time></trkpt><trkpt lat="42.59174748693757" lon="13.649479015252362"><ele>291.75</ele><time>2026-04-19T10:20:54.999Z</time></trkpt><trkpt lat="42.59187852533041" lon="13.649564012531298"><ele>293.0</ele><time>2026-04-19T10:20:55.999Z</time></trkpt><trkpt lat="42.591991216095515" lon="13.649651878153838"><ele>294.8</ele><time>2026-04-19T10:20:56.999Z</time></trkpt><trkpt lat="42.59208951290111" lon="13.649741270867656"><ele>296.6</ele><time>2026-04-19T10:20:57.999Z</time></trkpt><trkpt lat="42.59217892307535" lon="13.649842127913189"><ele>298.4</ele><time>2026-04-19T10:20:58.999Z</time></trkpt><trkpt lat="42.592253833499605" lon="13.649948252410875"><ele>300.2</ele><time>2026-04-19T10:20:59.999Z</time></trkpt><trkpt lat="42.592310083352416" lon="13.650055271542083"><ele>302.0</ele><time>2026-04-19T10:21:00.999Z</time></trkpt><trkpt lat="42.5923451694926" lon="13.650159215094462"><ele>302.0</ele><time>2026-04-19T10:21:01.999Z</time></trkpt><trkpt lat="42.5923726516959" lon="13.65027207932089"><ele>302.0</ele><time>2026-04-19T10:21:02.999Z</time></trkpt><trkpt lat="42.59242144825106" lon="13.650365949078774"><ele>302.0</ele><time>2026-04-19T10:21:03.999Z</time></trkpt><trkpt lat="42.59254149396751" lon="13.650360260788066"><ele>302.0</ele><time>2026-04-19T10:21:04.999Z</time></trkpt><trkpt lat="42.59260201106194" lon="13.650436972703826"><ele>302.0</ele><time>2026-04-19T10:21:05.999Z</time></trkpt><trkpt lat="42.59268374962124" lon="13.650524842646867"><ele>302.2</ele><time>2026-04-19T10:21:06.999Z</time></trkpt><trkpt lat="42.59276951724312" lon="13.65057834245718"><ele>302.4</ele><time>2026-04-19T10:21:07.999Z</time></trkpt><trkpt lat="42.59286041656552" lon="13.650660592964527"><ele>302.6</ele><time>2026-04-19T10:21:08.999Z</time></trkpt><trkpt lat="42.59295223410873" lon="13.65075465177971"><ele>302.8</ele><time>2026-04-19T10:21:09.999Z</time></trkpt><trkpt lat="42.59304438173752" lon="13.650863921682452"><ele>303.0</ele><time>2026-04-19T10:21:10.999Z</time></trkpt><trkpt lat="42.5931432062089" lon="13.65098536295971"><ele>305.0</ele><time>2026-04-19T10:21:11.999Z</time></trkpt><trkpt lat="42.5932527028412" lon="13.651124962567167"><ele>307.0</ele><time>2026-04-19T10:21:12.999Z</time></trkpt><trkpt lat="42.593366939984776" lon="13.651267386906445"><ele>309.0</ele><time>2026-04-19T10:21:13.999Z</time></trkpt><trkpt lat="42.593483218640216" lon="13.651411368010724"><ele>309.0</ele><time>2026-04-19T10:21:14.999Z</time></trkpt><trkpt lat="42.59360302827037" lon="13.651563193881213"><ele>309.0</ele><time>2026-04-19T10:21:15.999Z</time></trkpt><trkpt lat="42.593729398912345" lon="13.651722147040958"><ele>309.0</ele><time>2026-04-19T10:21:16.999Z</time></trkpt><trkpt lat="42.59386005023697" lon="13.651883184848005"><ele>312.0</ele><time>2026-04-19T10:21:17.999Z</time></trkpt><trkpt lat="42.59398792708477" lon="13.65203943588441"><ele>315.0</ele><time>2026-04-19T10:21:18.999Z</time></trkpt><trkpt lat="42.594113029833295" lon="13.652188286619982"><ele>318.0</ele><time>2026-04-19T10:21:19.999Z</time></trkpt><trkpt lat="42.5942444278833" lon="13.652328078022277"><ele>318.0</ele><time>2026-04-19T10:21:20.999Z</time></trkpt><trkpt lat="42.59437488478273" lon="13.652453955525656"><ele>318.0</ele><time>2026-04-19T10:21:21.999Z</time></trkpt><trkpt lat="42.59451478210157" lon="13.652575803002941"><ele>318.0</ele><time>2026-04-19T10:21:22.999Z</time></trkpt><trkpt lat="42.5946596343519" lon="13.652688952885093"><ele>319.6666666666667</ele><time>2026-04-19T10:21:23.999Z</time></trkpt><trkpt lat="42.594806761962154" lon="13.652793885209457"><ele>321.33333333333337</ele><time>2026-04-19T10:21:24.999Z</time></trkpt><trkpt lat="42.59496068354312" lon="13.652896630227296"><ele>323.0</ele><time>2026-04-19T10:21:25.999Z</time></trkpt><trkpt lat="42.595116405435185" lon="13.652991588533851"><ele>323.0</ele><time>2026-04-19T10:21:26.999Z</time></trkpt><trkpt lat="42.59526912885673" lon="13.653082322590897"><ele>323.0</ele><time>2026-04-19T10:21:27.999Z</time></trkpt><trkpt lat="42.59542022411781" lon="13.653173824612438"><ele>323.0</ele><time>2026-04-19T10:21:28.999Z</time></trkpt><trkpt lat="42.5955685835014" lon="13.653265960963632"><ele>325.6666666666667</ele><time>2026-04-19T10:21:29.999Z</time></trkpt><trkpt lat="42.59572078354497" lon="13.653357582010209"><ele>328.3333333333333</ele><time>2026-04-19T10:21:30.999Z</time></trkpt><trkpt lat="42.595875854529254" lon="13.653451628639015"><ele>331.0</ele><time>2026-04-19T10:21:31.999Z</time></trkpt><trkpt lat="42.596027561662915" lon="13.653543243483409"><ele>332.3333333333333</ele><time>2026-04-19T10:21:32.999Z</time></trkpt><trkpt lat="42.596175608707725" lon="13.653628062479791"><ele>333.6666666666667</ele><time>2026-04-19T10:21:33.999Z</time></trkpt><trkpt lat="42.59632334556192" lon="13.653711644862497"><ele>335.0</ele><time>2026-04-19T10:21:34.999Z</time></trkpt><trkpt lat="42.59649292411607" lon="13.653794626503338"><ele>335.0</ele><time>2026-04-19T10:21:35.999Z</time></trkpt><trkpt lat="42.596663074119206" lon="13.653891909505239"><ele>335.0</ele><time>2026-04-19T10:21:36.999Z</time></trkpt><trkpt lat="42.59682486761318" lon="13.653927782952204"><ele>335.0</ele><time>2026-04-19T10:21:37.999Z</time></trkpt><trkpt lat="42.59699884615788" lon="13.653983841536398"><ele>336.0</ele><time>2026-04-19T10:21:38.999Z</time></trkpt><trkpt lat="42.59715453690417" lon="13.654024726024565"><ele>337.0</ele><time>2026-04-19T10:21:39.999Z</time></trkpt><trkpt lat="42.59729386909812" lon="13.654052441412727"><ele>338.0</ele><time>2026-04-19T10:21:40.999Z</time></trkpt><trkpt lat="42.597420748742316" lon="13.65407668861422"><ele>339.0</ele><time>2026-04-19T10:21:41.999Z</time></trkpt><trkpt lat="42.597547073755315" lon="13.654100411417762"><ele>339.0</ele><time>2026-04-19T10:21:42.999Z</time></trkpt><trkpt lat="42.597683209485986" lon="13.654128165786894"><ele>339.0</ele><time>2026-04-19T10:21:43.999Z</time></trkpt><trkpt lat="42.59780872645536" lon="13.65415353466862"><ele>339.0</ele><time>2026-04-19T10:21:44.999Z</time></trkpt><trkpt lat="42.59793415204415" lon="13.65417825276002"><ele>339.0</ele><time>2026-04-19T10:21:45.999Z</time></trkpt><trkpt lat="42.59805294545208" lon="13.654208300782724"><ele>341.0</ele><time>2026-04-19T10:21:46.999Z</time></trkpt><trkpt lat="42.59816006292305" lon="13.654238496723275"><ele>343.0</ele><time>2026-04-19T10:21:47.999Z</time></trkpt><trkpt lat="42.598273092268876" lon="13.65428069769102"><ele>345.0</ele><time>2026-04-19T10:21:48.999Z</time></trkpt><trkpt lat="42.5983811803781" lon="13.654334666532831"><ele>347.0</ele><time>2026-04-19T10:21:49.999Z</time></trkpt><trkpt lat="42.59846741664297" lon="13.654395642132876"><ele>349.0</ele><time>2026-04-19T10:21:50.999Z</time></trkpt><trkpt lat="42.59854301777535" lon="13.654446935338132"><ele>348.25</ele><time>2026-04-19T10:21:51.999Z</time></trkpt><trkpt lat="42.59863365440135" lon="13.65446212395964"><ele>347.5</ele><time>2026-04-19T10:21:52.999Z</time></trkpt><trkpt lat="42.598748198794716" lon="13.6544253153059"><ele>346.75</ele><time>2026-04-19T10:21:53.999Z</time></trkpt><trkpt lat="42.59893322600839" lon="13.65438159943494"><ele>346.0</ele><time>2026-04-19T10:21:54.999Z</time></trkpt><trkpt lat="42.59915478063304" lon="13.654386091902394"><ele>352.5</ele><time>2026-04-19T10:21:55.999Z</time></trkpt><trkpt lat="42.5993961233931" lon="13.654348274493021"><ele>359.0</ele><time>2026-04-19T10:21:56.999Z</time></trkpt><trkpt lat="42.59967194680347" lon="13.654310245203437"><ele>360.5</ele><time>2026-04-19T10:21:57.999Z</time></trkpt><trkpt lat="42.59998595970095" lon="13.654222616234584"><ele>362.0</ele><time>2026-04-19T10:21:58.999Z</time></trkpt><trkpt lat="42.6003031456131" lon="13.65410963865246"><ele>361.5</ele><time>2026-04-19T10:21:59.999Z</time></trkpt><trkpt lat="42.60059430414097" lon="13.653996992202204"><ele>361.0</ele><time>2026-04-19T10:22:00.999Z</time></trkpt><trkpt lat="42.60086228271015" lon="13.653921918260018"><ele>361.0</ele><time>2026-04-19T10:22:01.999Z</time></trkpt><trkpt lat="42.60110916158101" lon="13.653883381690944"><ele>361.0</ele><time>2026-04-19T10:22:02.999Z</time></trkpt><trkpt lat="42.6013494387275" lon="13.653854410650599"><ele>362.5</ele><time>2026-04-19T10:22:03.999Z</time></trkpt><trkpt lat="42.60158292432699" lon="13.653842119204782"><ele>364.0</ele><time>2026-04-19T10:22:04.999Z</time></trkpt><trkpt lat="42.60181668106988" lon="13.653845838004983"><ele>366.0</ele><time>2026-04-19T10:22:05.999Z</time></trkpt><trkpt lat="42.602048866215405" lon="13.653875652213603"><ele>368.0</ele><time>2026-04-19T10:22:06.999Z</time></trkpt><trkpt lat="42.60229196224788" lon="13.653916635863615"><ele>368.0</ele><time>2026-04-19T10:22:07.999Z</time></trkpt><trkpt lat="42.60253375469741" lon="13.653976674037033"><ele>368.0</ele><time>2026-04-19T10:22:08.999Z</time></trkpt><trkpt lat="42.60276627590879" lon="13.6540497209991"><ele>370.0</ele><time>2026-04-19T10:22:09.999Z</time></trkpt><trkpt lat="42.603013374936914" lon="13.654143673715367"><ele>372.0</ele><time>2026-04-19T10:22:10.999Z</time></trkpt><trkpt lat="42.60325195862621" lon="13.654250570752504"><ele>372.0</ele><time>2026-04-19T10:22:11.999Z</time></trkpt><trkpt lat="42.60347405568165" lon="13.654352906420826"><ele>372.0</ele><time>2026-04-19T10:22:12.999Z</time></trkpt><trkpt lat="42.603689043282245" lon="13.65445535655619"><ele>369.0</ele><time>2026-04-19T10:22:13.999Z</time></trkpt><trkpt lat="42.60390201764518" lon="13.654555050204287"><ele>366.0</ele><time>2026-04-19T10:22:14.999Z</time></trkpt><trkpt lat="42.60411843507537" lon="13.654660721946792"><ele>366.0</ele><time>2026-04-19T10:22:15.999Z</time></trkpt><trkpt lat="42.60433428526338" lon="13.654763716328295"><ele>366.0</ele><time>2026-04-19T10:22:16.999Z</time></trkpt><trkpt lat="42.604546648397715" lon="13.654865597306722"><ele>367.3333333333333</ele><time>2026-04-19T10:22:17.999Z</time></trkpt><trkpt lat="42.604749209263694" lon="13.654963470402683"><ele>368.66666666666663</ele><time>2026-04-19T10:22:18.999Z</time></trkpt><trkpt lat="42.60495509636475" lon="13.655058599103068"><ele>370.0</ele><time>2026-04-19T10:22:19.999Z</time></trkpt><trkpt lat="42.605156367088384" lon="13.655154721698489"><ele>373.66666666666663</ele><time>2026-04-19T10:22:20.999Z</time></trkpt><trkpt lat="42.605355410675585" lon="13.655239677489133"><ele>377.3333333333333</ele><time>2026-04-19T10:22:21.999Z</time></trkpt><trkpt lat="42.60556513177975" lon="13.655301938902786"><ele>381.0</ele><time>2026-04-19T10:22:22.999Z</time></trkpt><trkpt lat="42.60577517708363" lon="13.655333774489879"><ele>374.6666666666667</ele><time>2026-04-19T10:22:23.999Z</time></trkpt><trkpt lat="42.605990887736596" lon="13.655334783536711"><ele>368.33333333333337</ele><time>2026-04-19T10:22:24.999Z</time></trkpt><trkpt lat="42.60620675483746" lon="13.65529786387488"><ele>362.0</ele><time>2026-04-19T10:22:25.999Z</time></trkpt><trkpt lat="42.6064215498278" lon="13.655222738197669"><ele>362.0</ele><time>2026-04-19T10:22:26.999Z</time></trkpt><trkpt lat="42.60663564438066" lon="13.655111359501104"><ele>362.0</ele><time>2026-04-19T10:22:27.999Z</time></trkpt><trkpt lat="42.606827413878555" lon="13.654969682111625"><ele>362.0</ele><time>2026-04-19T10:22:28.999Z</time></trkpt><trkpt lat="42.607004501354986" lon="13.654802071020406"><ele>357.0</ele><time>2026-04-19T10:22:29.999Z</time></trkpt><trkpt lat="42.607176916137654" lon="13.65459200132962"><ele>352.0</ele><time>2026-04-19T10:22:30.999Z</time></trkpt><trkpt lat="42.60733846340986" lon="13.65437007120883"><ele>352.0</ele><time>2026-04-19T10:22:31.999Z</time></trkpt><trkpt lat="42.60749472028633" lon="13.654150486276228"><ele>352.0</ele><time>2026-04-19T10:22:32.999Z</time></trkpt><trkpt lat="42.607657242651804" lon="13.653923737198294"><ele>352.0</ele><time>2026-04-19T10:22:33.999Z</time></trkpt><trkpt lat="42.6078253732542" lon="13.653696091465136"><ele>352.0</ele><time>2026-04-19T10:22:34.999Z</time></trkpt><trkpt lat="42.607985649665814" lon="13.653472661501725"><ele>351.0</ele><time>2026-04-19T10:22:35.999Z</time></trkpt><trkpt lat="42.60814702119999" lon="13.653250847445994"><ele>350.0</ele><time>2026-04-19T10:22:36.999Z</time></trkpt><trkpt lat="42.60831687469906" lon="13.653026850295152"><ele>350.0</ele><time>2026-04-19T10:22:37.999Z</time></trkpt><trkpt lat="42.60849252492154" lon="13.652792693453605"><ele>350.0</ele><time>2026-04-19T10:22:38.999Z</time></trkpt><trkpt lat="42.608675404361584" lon="13.65254578217152"><ele>349.0</ele><time>2026-04-19T10:22:39.999Z</time></trkpt><trkpt lat="42.60886118173473" lon="13.652290717300714"><ele>348.0</ele><time>2026-04-19T10:22:40.999Z</time></trkpt><trkpt lat="42.60904375752127" lon="13.652037339797392"><ele>354.5</ele><time>2026-04-19T10:22:41.999Z</time></trkpt><trkpt lat="42.60921983305113" lon="13.651796602880873"><ele>361.0</ele><time>2026-04-19T10:22:42.999Z</time></trkpt><trkpt lat="42.60940937914184" lon="13.65153612555437"><ele>358.0</ele><time>2026-04-19T10:22:43.999Z</time></trkpt><trkpt lat="42.609612325765504" lon="13.651258722883295"><ele>355.0</ele><time>2026-04-19T10:22:44.999Z</time></trkpt><trkpt lat="42.609812918722085" lon="13.65098071225166"><ele>362.0</ele><time>2026-04-19T10:22:45.999Z</time></trkpt><trkpt lat="42.61000272319411" lon="13.650720677784525"><ele>369.0</ele><time>2026-04-19T10:22:46.999Z</time></trkpt><trkpt lat="42.61019679389774" lon="13.650451450468038"><ele>368.0</ele><time>2026-04-19T10:22:47.999Z</time></trkpt><trkpt lat="42.61039551669569" lon="13.65017785469261"><ele>367.0</ele><time>2026-04-19T10:22:48.999Z</time></trkpt><trkpt lat="42.610601756061335" lon="13.649895743552792"><ele>367.0</ele><time>2026-04-19T10:22:49.999Z</time></trkpt><trkpt lat="42.61080922789272" lon="13.64961307112445"><ele>367.0</ele><time>2026-04-19T10:22:50.999Z</time></trkpt><trkpt lat="42.61100152142092" lon="13.64934856373772"><ele>359.0</ele><time>2026-04-19T10:22:51.999Z</time></trkpt><trkpt lat="42.61118064097985" lon="13.649101829598743"><ele>351.0</ele><time>2026-04-19T10:22:52.999Z</time></trkpt><trkpt lat="42.61135213721234" lon="13.648872346605534"><ele>351.0</ele><time>2026-04-19T10:22:53.999Z</time></trkpt><trkpt lat="42.61151420033393" lon="13.648650114665326"><ele>351.0</ele><time>2026-04-19T10:22:54.999Z</time></trkpt><trkpt lat="42.611672012147665" lon="13.648437197042929"><ele>350.0</ele><time>2026-04-19T10:22:55.999Z</time></trkpt><trkpt lat="42.61183644152333" lon="13.648217733003499"><ele>349.0</ele><time>2026-04-19T10:22:56.999Z</time></trkpt><trkpt lat="42.61200375150296" lon="13.647999392022962"><ele>350.66666666666663</ele><time>2026-04-19T10:22:57.999Z</time></trkpt><trkpt lat="42.612160787053824" lon="13.64778982082095"><ele>352.3333333333333</ele><time>2026-04-19T10:22:58.999Z</time></trkpt><trkpt lat="42.61230436266857" lon="13.647596343899492"><ele>354.0</ele><time>2026-04-19T10:22:59.999Z</time></trkpt><trkpt lat="42.61243220995679" lon="13.647420250314095"><ele>354.0</ele><time>2026-04-19T10:23:00.999Z</time></trkpt><trkpt lat="42.612551071926646" lon="13.647262473581977"><ele>354.0</ele><time>2026-04-19T10:23:01.999Z</time></trkpt><trkpt lat="42.61265785630718" lon="13.647117003257184"><ele>354.0</ele><time>2026-04-19T10:23:02.999Z</time></trkpt><trkpt lat="42.61275049789717" lon="13.64698232015319"><ele>354.75</ele><time>2026-04-19T10:23:03.999Z</time></trkpt><trkpt lat="42.61282689382231" lon="13.646854777824782"><ele>355.5</ele><time>2026-04-19T10:23:04.999Z</time></trkpt><trkpt lat="42.61290130454488" lon="13.646734456622166"><ele>356.25</ele><time>2026-04-19T10:23:05.999Z</time></trkpt><trkpt lat="42.61301852071661" lon="13.646594171698322"><ele>357.0</ele><time>2026-04-19T10:23:06.999Z</time></trkpt><trkpt lat="42.61315880436033" lon="13.646457089872682"><ele>357.0</ele><time>2026-04-19T10:23:07.999Z</time></trkpt><trkpt lat="42.61333618712283" lon="13.646334702740884"><ele>357.0</ele><time>2026-04-19T10:23:08.999Z</time></trkpt><trkpt lat="42.61354672463152" lon="13.646226817294073"><ele>357.0</ele><time>2026-04-19T10:23:09.999Z</time></trkpt><trkpt lat="42.61376509165228" lon="13.64613235673166"><ele>359.0</ele><time>2026-04-19T10:23:10.999Z</time></trkpt><trkpt lat="42.613989312751634" lon="13.646059519186558"><ele>361.0</ele><time>2026-04-19T10:23:11.999Z</time></trkpt><trkpt lat="42.61423082252805" lon="13.645997667414731"><ele>360.5</ele><time>2026-04-19T10:23:12.999Z</time></trkpt><trkpt lat="42.614489690180065" lon="13.645939890377631"><ele>360.0</ele><time>2026-04-19T10:23:13.999Z</time></trkpt><trkpt lat="42.61473416923069" lon="13.645884620181768"><ele>360.0</ele><time>2026-04-19T10:23:14.999Z</time></trkpt><trkpt lat="42.61497854332736" lon="13.64582970200887"><ele>360.0</ele><time>2026-04-19T10:23:15.999Z</time></trkpt><trkpt lat="42.61521550311283" lon="13.645772957007217"><ele>366.0</ele><time>2026-04-19T10:23:16.999Z</time></trkpt><trkpt lat="42.61544567440891" lon="13.645724699494508"><ele>372.0</ele><time>2026-04-19T10:23:17.998Z</time></trkpt><trkpt lat="42.61568159084342" lon="13.64569257717407"><ele>372.0</ele><time>2026-04-19T10:23:18.998Z</time></trkpt><trkpt lat="42.615915961296864" lon="13.645683195196572"><ele>372.0</ele><time>2026-04-19T10:23:19.998Z</time></trkpt><trkpt lat="42.61613726536439" lon="13.645702234818113"><ele>376.0</ele><time>2026-04-19T10:23:20.998Z</time></trkpt><trkpt lat="42.6163632671568" lon="13.6457493945459"><ele>380.0</ele><time>2026-04-19T10:23:21.998Z</time></trkpt><trkpt lat="42.61659773192954" lon="13.645812106149139"><ele>380.0</ele><time>2026-04-19T10:23:22.998Z</time></trkpt><trkpt lat="42.616822146218766" lon="13.645871278225027"><ele>380.0</ele><time>2026-04-19T10:23:23.998Z</time></trkpt><trkpt lat="42.61704446980309" lon="13.645922167759275"><ele>384.33333333333337</ele><time>2026-04-19T10:23:24.998Z</time></trkpt><trkpt lat="42.61726591115727" lon="13.6459717149629"><ele>388.6666666666667</ele><time>2026-04-19T10:23:25.998Z</time></trkpt><trkpt lat="42.61747957349132" lon="13.646022677760762"><ele>393.0</ele><time>2026-04-19T10:23:26.998Z</time></trkpt><trkpt lat="42.6176872906969" lon="13.646071780797769"><ele>391.5</ele><time>2026-04-19T10:23:27.999Z</time></trkpt><trkpt lat="42.61790376331874" lon="13.646122554360636"><ele>390.0</ele><time>2026-04-19T10:23:28.999Z</time></trkpt><trkpt lat="42.61813120786747" lon="13.64617222792186"><ele>390.0</ele><time>2026-04-19T10:23:29.999Z</time></trkpt><trkpt lat="42.618367700334275" lon="13.6462198781308"><ele>390.0</ele><time>2026-04-19T10:23:30.999Z</time></trkpt><trkpt lat="42.618600956089836" lon="13.646268368784945"><ele>393.0</ele><time>2026-04-19T10:23:31.999Z</time></trkpt><trkpt lat="42.61883550402843" lon="13.64632060559704"><ele>396.0</ele><time>2026-04-19T10:23:32.999Z</time></trkpt><trkpt lat="42.61906943052398" lon="13.64637343170868"><ele>396.0</ele><time>2026-04-19T10:23:33.999Z</time></trkpt><trkpt lat="42.61928769179512" lon="13.64642378803558"><ele>396.0</ele><time>2026-04-19T10:23:34.999Z</time></trkpt><trkpt lat="42.61950235848054" lon="13.646473817618686"><ele>396.0</ele><time>2026-04-19T10:23:35.999Z</time></trkpt><trkpt lat="42.61970408624475" lon="13.64652852391586"><ele>399.66666666666663</ele><time>2026-04-19T10:23:36.999Z</time></trkpt><trkpt lat="42.619899315235216" lon="13.646601295218503"><ele>403.3333333333333</ele><time>2026-04-19T10:23:37.999Z</time></trkpt><trkpt lat="42.620096486607395" lon="13.64669301321143"><ele>407.0</ele><time>2026-04-19T10:23:38.999Z</time></trkpt><trkpt lat="42.620290268059094" lon="13.646805959384928"><ele>411.0</ele><time>2026-04-19T10:23:39.999Z</time></trkpt><trkpt lat="42.62048630249769" lon="13.646929152785747"><ele>415.0</ele><time>2026-04-19T10:23:40.999Z</time></trkpt><trkpt lat="42.62068902605797" lon="13.64705934433005"><ele>419.0</ele><time>2026-04-19T10:23:41.999Z</time></trkpt><trkpt lat="42.62090756397693" lon="13.647204762524902"><ele>422.0</ele><time>2026-04-19T10:23:43.065Z</time></trkpt><trkpt lat="42.62111645246705" lon="13.647344218919544"><ele>425.0</ele><time>2026-04-19T10:23:44.064Z</time></trkpt><trkpt lat="42.62133182136792" lon="13.647483652293804"><ele>425.0</ele><time>2026-04-19T10:23:45.058Z</time></trkpt><trkpt lat="42.62155360750894" lon="13.647620432780519"><ele>425.0</ele><time>2026-04-19T10:23:46.057Z</time></trkpt><trkpt lat="42.62179126654321" lon="13.647744546694627"><ele>418.0</ele><time>2026-04-19T10:23:47.06Z</time></trkpt><trkpt lat="42.622013935312076" lon="13.64787827323202"><ele>411.0</ele><time>2026-04-19T10:23:48.041Z</time></trkpt><trkpt lat="42.622223528787536" lon="13.648003870590381"><ele>411.0</ele><time>2026-04-19T10:23:49.029Z</time></trkpt><trkpt lat="42.62243707433799" lon="13.648134108962763"><ele>411.0</ele><time>2026-04-19T10:23:50.025Z</time></trkpt><trkpt lat="42.62372192836069" lon="13.648851209222942"><ele>400.0</ele><time>2026-04-19T10:23:55.999Z</time></trkpt><trkpt lat="42.623893122952495" lon="13.64913174974897"><ele>389.0</ele><time>2026-04-19T10:23:56.999Z</time></trkpt><trkpt lat="42.6240237352535" lon="13.64923962926026"><ele>378.0</ele><time>2026-04-19T10:23:57.999Z</time></trkpt><trkpt lat="42.62419241207598" lon="13.64935399279148"><ele>376.0</ele><time>2026-04-19T10:23:58.999Z</time></trkpt><trkpt lat="42.624379440698064" lon="13.649480473742013"><ele>374.0</ele><time>2026-04-19T10:23:59.999Z</time></trkpt><trkpt lat="42.62456849444904" lon="13.649603298441548"><ele>372.0</ele><time>2026-04-19T10:24:00.999Z</time></trkpt><trkpt lat="42.62474142245423" lon="13.649740688230521"><ele>372.0</ele><time>2026-04-19T10:24:01.999Z</time></trkpt><trkpt lat="42.62492706554437" lon="13.64981257003285"><ele>372.0</ele><time>2026-04-19T10:24:02.999Z</time></trkpt><trkpt lat="42.625100266218624" lon="13.649918864323926"><ele>372.0</ele><time>2026-04-19T10:24:03.999Z</time></trkpt><trkpt lat="42.625264316480724" lon="13.65002431034682"><ele>370.6666666666667</ele><time>2026-04-19T10:24:04.999Z</time></trkpt><trkpt lat="42.625417284118434" lon="13.650129108416271"><ele>369.33333333333337</ele><time>2026-04-19T10:24:05.999Z</time></trkpt><trkpt lat="42.62555153109308" lon="13.650243050502526"><ele>368.0</ele><time>2026-04-19T10:24:06.999Z</time></trkpt><trkpt lat="42.62566797972283" lon="13.650365891282483"><ele>368.0</ele><time>2026-04-19T10:24:07.999Z</time></trkpt><trkpt lat="42.62576694145672" lon="13.650492058645305"><ele>368.0</ele><time>2026-04-19T10:24:08.999Z</time></trkpt><trkpt lat="42.62584282580378" lon="13.650617888890435"><ele>368.0</ele><time>2026-04-19T10:24:09.999Z</time></trkpt><trkpt lat="42.62588358759388" lon="13.650727683670576"><ele>368.0</ele><time>2026-04-19T10:24:10.999Z</time></trkpt><trkpt lat="42.62590355221442" lon="13.65084763065376"><ele>368.0</ele><time>2026-04-19T10:24:11.999Z</time></trkpt><trkpt lat="42.625890264808646" lon="13.650971575865116"><ele>368.0</ele><time>2026-04-19T10:24:12.999Z</time></trkpt><trkpt lat="42.62584262441523" lon="13.65107344791004"><ele>368.0</ele><time>2026-04-19T10:24:13.999Z</time></trkpt><trkpt lat="42.625854115252196" lon="13.651201120998088"><ele>368.0</ele><time>2026-04-19T10:24:14.999Z</time></trkpt><trkpt lat="42.62590609297859" lon="13.65130236322316"><ele>368.0</ele><time>2026-04-19T10:24:15.999Z</time></trkpt><trkpt lat="42.62599277513339" lon="13.651375147130269"><ele>368.0</ele><time>2026-04-19T10:24:16.999Z</time></trkpt><trkpt lat="42.626108016272774" lon="13.651462336184448"><ele>364.0</ele><time>2026-04-19T10:24:17.999Z</time></trkpt><trkpt lat="42.62620713960648" lon="13.651604657452934"><ele>360.0</ele><time>2026-04-19T10:24:18.999Z</time></trkpt><trkpt lat="42.626280978496524" lon="13.651806054278346"><ele>356.0</ele><time>2026-04-19T10:24:19.999Z</time></trkpt><trkpt lat="42.626326761726105" lon="13.652038440166201"><ele>356.0</ele><time>2026-04-19T10:24:20.999Z</time></trkpt><trkpt lat="42.6263686380809" lon="13.652287529178643"><ele>356.0</ele><time>2026-04-19T10:24:21.999Z</time></trkpt><trkpt lat="42.62641476864248" lon="13.652528826718669"><ele>356.0</ele><time>2026-04-19T10:24:22.999Z</time></trkpt><trkpt lat="42.62646401695444" lon="13.65276564321154"><ele>356.0</ele><time>2026-04-19T10:24:23.999Z</time></trkpt><trkpt lat="42.62652072795691" lon="13.652992233037864"><ele>356.0</ele><time>2026-04-19T10:24:24.999Z</time></trkpt><trkpt lat="42.62657909719769" lon="13.653212454014964"><ele>356.0</ele><time>2026-04-19T10:24:25.999Z</time></trkpt><trkpt lat="42.6266451245265" lon="13.653439189904285"><ele>355.6666666666667</ele><time>2026-04-19T10:24:26.999Z</time></trkpt><trkpt lat="42.626716228848686" lon="13.653653543589568"><ele>355.3333333333333</ele><time>2026-04-19T10:24:27.999Z</time></trkpt><trkpt lat="42.626783913939384" lon="13.65385832430808"><ele>355.0</ele><time>2026-04-19T10:24:28.999Z</time></trkpt><trkpt lat="42.626852700257494" lon="13.654059153513945"><ele>355.0</ele><time>2026-04-19T10:24:29.999Z</time></trkpt><trkpt lat="42.62693327266546" lon="13.654269805672172"><ele>355.0</ele><time>2026-04-19T10:24:30.999Z</time></trkpt><trkpt lat="42.627025594870844" lon="13.65449244706027"><ele>355.0</ele><time>2026-04-19T10:24:31.999Z</time></trkpt><trkpt lat="42.627101810264925" lon="13.654735564390306"><ele>350.3333333333333</ele><time>2026-04-19T10:24:32.999Z</time></trkpt><trkpt lat="42.62718364989388" lon="13.654984993315749"><ele>345.6666666666667</ele><time>2026-04-19T10:24:33.999Z</time></trkpt><trkpt lat="42.62727801866366" lon="13.655236889444382"><ele>341.0</ele><time>2026-04-19T10:24:34.999Z</time></trkpt><trkpt lat="42.62735128766093" lon="13.655494363314835"><ele>341.0</ele><time>2026-04-19T10:24:35.999Z</time></trkpt><trkpt lat="42.627436922531736" lon="13.6557288655776"><ele>341.0</ele><time>2026-04-19T10:24:36.999Z</time></trkpt><trkpt lat="42.62753222537154" lon="13.655956463304948"><ele>341.0</ele><time>2026-04-19T10:24:37.999Z</time></trkpt><trkpt lat="42.62764159418902" lon="13.6561780990796"><ele>342.0</ele><time>2026-04-19T10:24:38.999Z</time></trkpt><trkpt lat="42.627762620196634" lon="13.656393956408555"><ele>343.0</ele><time>2026-04-19T10:24:39.999Z</time></trkpt><trkpt lat="42.627887377320405" lon="13.656606501200358"><ele>344.0</ele><time>2026-04-19T10:24:40.999Z</time></trkpt><trkpt lat="42.6280149622344" lon="13.656814055814312"><ele>341.6666666666667</ele><time>2026-04-19T10:24:41.999Z</time></trkpt><trkpt lat="42.62814095800201" lon="13.657017458265207"><ele>339.3333333333333</ele><time>2026-04-19T10:24:42.999Z</time></trkpt><trkpt lat="42.628267302499935" lon="13.65722376349767"><ele>337.0</ele><time>2026-04-19T10:24:43.999Z</time></trkpt><trkpt lat="42.628390622612805" lon="13.657425224248849"><ele>337.0</ele><time>2026-04-19T10:24:44.999Z</time></trkpt><trkpt lat="42.62850530007779" lon="13.657621326405666"><ele>337.0</ele><time>2026-04-19T10:24:45.999Z</time></trkpt><trkpt lat="42.62861709905035" lon="13.657817195208036"><ele>337.0</ele><time>2026-04-19T10:24:46.999Z</time></trkpt><trkpt lat="42.628739406326986" lon="13.658008421186802"><ele>333.3333333333333</ele><time>2026-04-19T10:24:47.999Z</time></trkpt><trkpt lat="42.62887708498024" lon="13.658178698130456"><ele>329.6666666666667</ele><time>2026-04-19T10:24:48.999Z</time></trkpt><trkpt lat="42.629029237957155" lon="13.65830985388617"><ele>326.0</ele><time>2026-04-19T10:24:49.999Z</time></trkpt><trkpt lat="42.62919246002222" lon="13.658409654966663"><ele>326.0</ele><time>2026-04-19T10:24:50.999Z</time></trkpt><trkpt lat="42.62936580639522" lon="13.658481789818541"><ele>326.0</ele><time>2026-04-19T10:24:51.999Z</time></trkpt><trkpt lat="42.62954778142177" lon="13.658513775510151"><ele>326.0</ele><time>2026-04-19T10:24:52.999Z</time></trkpt><trkpt lat="42.62973408214065" lon="13.658510288368937"><ele>320.6666666666667</ele><time>2026-04-19T10:24:53.999Z</time></trkpt><trkpt lat="42.62992324256792" lon="13.658491660259722"><ele>315.3333333333333</ele><time>2026-04-19T10:24:54.999Z</time></trkpt><trkpt lat="42.630111177733525" lon="13.658474133384551"><ele>310.0</ele><time>2026-04-19T10:24:55.999Z</time></trkpt><trkpt lat="42.630297564998855" lon="13.658470663447035"><ele>314.66666666666663</ele><time>2026-04-19T10:24:56.999Z</time></trkpt><trkpt lat="42.63047348972243" lon="13.658500576353397"><ele>319.3333333333333</ele><time>2026-04-19T10:24:57.999Z</time></trkpt><trkpt lat="42.63064548477409" lon="13.658580909110972"><ele>324.0</ele><time>2026-04-19T10:24:58.999Z</time></trkpt><trkpt lat="42.63081305883867" lon="13.658690441595999"><ele>324.0</ele><time>2026-04-19T10:24:59.999Z</time></trkpt><trkpt lat="42.63097482383966" lon="13.658805845857191"><ele>324.0</ele><time>2026-04-19T10:25:00.999Z</time></trkpt><trkpt lat="42.63112908857786" lon="13.658915991572767"><ele>324.0</ele><time>2026-04-19T10:25:01.999Z</time></trkpt><trkpt lat="42.63127729841311" lon="13.659019353545325"><ele>325.3333333333333</ele><time>2026-04-19T10:25:02.999Z</time></trkpt><trkpt lat="42.631425966151916" lon="13.659120108539074"><ele>326.66666666666663</ele><time>2026-04-19T10:25:03.999Z</time></trkpt><trkpt lat="42.631563707065524" lon="13.659215039256832"><ele>328.0</ele><time>2026-04-19T10:25:04.999Z</time></trkpt><trkpt lat="42.63169255095596" lon="13.659308179573225"><ele>328.0</ele><time>2026-04-19T10:25:05.999Z</time></trkpt><trkpt lat="42.63181553643601" lon="13.65939432598214"><ele>328.0</ele><time>2026-04-19T10:25:06.999Z</time></trkpt><trkpt lat="42.631937816378304" lon="13.65947858291718"><ele>328.0</ele><time>2026-04-19T10:25:07.999Z</time></trkpt><trkpt lat="42.63206633382299" lon="13.659565142778122"><ele>328.0</ele><time>2026-04-19T10:25:08.999Z</time></trkpt><trkpt lat="42.63219140773457" lon="13.659649250693496"><ele>327.25</ele><time>2026-04-19T10:25:09.999Z</time></trkpt><trkpt lat="42.632316282615875" lon="13.659732689738432"><ele>326.5</ele><time>2026-04-19T10:25:10.999Z</time></trkpt><trkpt lat="42.632442771528645" lon="13.659819471568941"><ele>325.75</ele><time>2026-04-19T10:25:11.999Z</time></trkpt><trkpt lat="42.63256306014536" lon="13.65990014915777"><ele>325.0</ele><time>2026-04-19T10:25:12.999Z</time></trkpt><trkpt lat="42.63268351155691" lon="13.65998069024628"><ele>325.5</ele><time>2026-04-19T10:25:13.999Z</time></trkpt><trkpt lat="42.6328073189091" lon="13.660065543635046"><ele>326.0</ele><time>2026-04-19T10:25:14.999Z</time></trkpt><trkpt lat="42.63293530351032" lon="13.660155507209947"><ele>326.5</ele><time>2026-04-19T10:25:15.999Z</time></trkpt><trkpt lat="42.6330618583047" lon="13.660256971811263"><ele>327.0</ele><time>2026-04-19T10:25:16.999Z</time></trkpt><trkpt lat="42.63317465915157" lon="13.660383355627099"><ele>325.3333333333333</ele><time>2026-04-19T10:25:17.999Z</time></trkpt><trkpt lat="42.63326951858788" lon="13.66053344091007"><ele>323.66666666666663</ele><time>2026-04-19T10:25:18.999Z</time></trkpt><trkpt lat="42.63335110937789" lon="13.660711114552544"><ele>322.0</ele><time>2026-04-19T10:25:19.999Z</time></trkpt><trkpt lat="42.63342190426241" lon="13.660893970397012"><ele>322.0</ele><time>2026-04-19T10:25:20.999Z</time></trkpt><trkpt lat="42.63348582099147" lon="13.661080616595859"><ele>322.0</ele><time>2026-04-19T10:25:21.999Z</time></trkpt><trkpt lat="42.633550797228956" lon="13.66127099704673"><ele>322.0</ele><time>2026-04-19T10:25:22.999Z</time></trkpt><trkpt lat="42.633629215722706" lon="13.661462319547118"><ele>320.3333333333333</ele><time>2026-04-19T10:25:23.999Z</time></trkpt><trkpt lat="42.63372972787256" lon="13.661634355522695"><ele>318.6666666666667</ele><time>2026-04-19T10:25:24.999Z</time></trkpt><trkpt lat="42.633851388957616" lon="13.661775774196945"><ele>317.0</ele><time>2026-04-19T10:25:25.999Z</time></trkpt><trkpt lat="42.6339875664803" lon="13.661890061473475"><ele>314.6666666666667</ele><time>2026-04-19T10:25:26.999Z</time></trkpt><trkpt lat="42.63412825170593" lon="13.661990166628545"><ele>312.3333333333333</ele><time>2026-04-19T10:25:27.999Z</time></trkpt><trkpt lat="42.634270516912785" lon="13.662087996107218"><ele>310.0</ele><time>2026-04-19T10:25:28.999Z</time></trkpt><trkpt lat="42.63441542745419" lon="13.662190710765525"><ele>313.3333333333333</ele><time>2026-04-19T10:25:29.999Z</time></trkpt><trkpt lat="42.63456252982434" lon="13.66229655914869"><ele>316.6666666666667</ele><time>2026-04-19T10:25:30.999Z</time></trkpt><trkpt lat="42.63471089269605" lon="13.66240348829147"><ele>320.0</ele><time>2026-04-19T10:25:31.999Z</time></trkpt><trkpt lat="42.63485117248362" lon="13.662504641506724"><ele>320.0</ele><time>2026-04-19T10:25:32.999Z</time></trkpt><trkpt lat="42.634983558638005" lon="13.66260117167165"><ele>320.0</ele><time>2026-04-19T10:25:33.999Z</time></trkpt><trkpt lat="42.63511470836642" lon="13.6626980555217"><ele>320.0</ele><time>2026-04-19T10:25:34.999Z</time></trkpt><trkpt lat="42.63524130666398" lon="13.662791839504411"><ele>320.0</ele><time>2026-04-19T10:25:35.999Z</time></trkpt><trkpt lat="42.6353594880162" lon="13.662881110526913"><ele>321.0</ele><time>2026-04-19T10:25:36.999Z</time></trkpt><trkpt lat="42.635470321983234" lon="13.662966330226766"><ele>322.0</ele><time>2026-04-19T10:25:37.999Z</time></trkpt><trkpt lat="42.63557601313075" lon="13.663044775561158"><ele>323.0</ele><time>2026-04-19T10:25:38.999Z</time></trkpt><trkpt lat="42.63567348468622" lon="13.663116035290766"><ele>324.0</ele><time>2026-04-19T10:25:39.999Z</time></trkpt><trkpt lat="42.63575883781339" lon="13.663182512806715"><ele>324.0</ele><time>2026-04-19T10:25:40.999Z</time></trkpt><trkpt lat="42.635833437801914" lon="13.663240836413811"><ele>324.0</ele><time>2026-04-19T10:25:41.999Z</time></trkpt><trkpt lat="42.635898153980584" lon="13.663289003141891"><ele>324.0</ele><time>2026-04-19T10:25:42.999Z</time></trkpt><trkpt lat="42.63599136929814" lon="13.66334869555285"><ele>324.0</ele><time>2026-04-19T10:25:44.999Z</time></trkpt><trkpt lat="42.63605979206017" lon="13.663383360837422"><ele>324.0</ele><time>2026-04-19T10:25:46.999Z</time></trkpt><trkpt lat="42.63611669877273" lon="13.663430354663388"><ele>324.0</ele><time>2026-04-19T10:25:48.999Z</time></trkpt><trkpt lat="42.6361835333632" lon="13.663474421302212"><ele>323.6</ele><time>2026-04-19T10:25:50.999Z</time></trkpt><trkpt lat="42.636276017132374" lon="13.663546263206834"><ele>323.2</ele><time>2026-04-19T10:25:52.999Z</time></trkpt><trkpt lat="42.636343990687905" lon="13.663609878630234"><ele>322.8</ele><time>2026-04-19T10:25:53.999Z</time></trkpt><trkpt lat="42.636413175552256" lon="13.663675206913393"><ele>322.40000000000003</ele><time>2026-04-19T10:25:54.999Z</time></trkpt><trkpt lat="42.63649201934316" lon="13.663741397961681"><ele>322.0</ele><time>2026-04-19T10:25:55.999Z</time></trkpt><trkpt lat="42.63657496111025" lon="13.663799731341902"><ele>322.0</ele><time>2026-04-19T10:25:56.999Z</time></trkpt><trkpt lat="42.63666141294047" lon="13.663858888104576"><ele>322.0</ele><time>2026-04-19T10:25:57.999Z</time></trkpt><trkpt lat="42.63674996399218" lon="13.663920203483588"><ele>322.0</ele><time>2026-04-19T10:25:58.999Z</time></trkpt><trkpt lat="42.63683849892828" lon="13.663985071147385"><ele>322.0</ele><time>2026-04-19T10:25:59.999Z</time></trkpt><trkpt lat="42.63692618482319" lon="13.664057166609712"><ele>322.0</ele><time>2026-04-19T10:26:00.999Z</time></trkpt><trkpt lat="42.63700885361884" lon="13.664136692764236"><ele>324.8</ele><time>2026-04-19T10:26:01.999Z</time></trkpt><trkpt lat="42.63708843395289" lon="13.664224601527568"><ele>327.6</ele><time>2026-04-19T10:26:02.999Z</time></trkpt><trkpt lat="42.63716259436968" lon="13.664321804962803"><ele>330.40000000000003</ele><time>2026-04-19T10:26:03.999Z</time></trkpt><trkpt lat="42.63722339886082" lon="13.664455814678213"><ele>333.20000000000005</ele><time>2026-04-19T10:26:04.999Z</time></trkpt><trkpt lat="42.63727615182586" lon="13.664600647650442"><ele>336.0</ele><time>2026-04-19T10:26:05.999Z</time></trkpt><trkpt lat="42.63732001009154" lon="13.66475960928015"><ele>336.0</ele><time>2026-04-19T10:26:06.999Z</time></trkpt><trkpt lat="42.63735199788472" lon="13.664922344701049"><ele>336.0</ele><time>2026-04-19T10:26:07.999Z</time></trkpt><trkpt lat="42.63738338559243" lon="13.665088823490573"><ele>336.0</ele><time>2026-04-19T10:26:08.999Z</time></trkpt><trkpt lat="42.63742212150483" lon="13.665256959456359"><ele>336.0</ele><time>2026-04-19T10:26:09.999Z</time></trkpt><trkpt lat="42.63747752549227" lon="13.665426815208898"><ele>333.25</ele><time>2026-04-19T10:26:10.999Z</time></trkpt><trkpt lat="42.63753946888264" lon="13.665588638072904"><ele>330.5</ele><time>2026-04-19T10:26:11.999Z</time></trkpt><trkpt lat="42.63760536828906" lon="13.66575208025575"><ele>327.75</ele><time>2026-04-19T10:26:12.999Z</time></trkpt><trkpt lat="42.63767546992581" lon="13.665905773003043"><ele>325.0</ele><time>2026-04-19T10:26:13.999Z</time></trkpt><trkpt lat="42.63776956954642" lon="13.666056785914018"><ele>324.66666666666663</ele><time>2026-04-19T10:26:14.999Z</time></trkpt><trkpt lat="42.63788239342961" lon="13.666184355612398"><ele>324.3333333333333</ele><time>2026-04-19T10:26:15.999Z</time></trkpt><trkpt lat="42.63801562077777" lon="13.66629930820141"><ele>324.0</ele><time>2026-04-19T10:26:16.999Z</time></trkpt><trkpt lat="42.63814713936856" lon="13.666412913673982"><ele>324.0</ele><time>2026-04-19T10:26:17.999Z</time></trkpt><trkpt lat="42.638277740632006" lon="13.666518199065877"><ele>324.0</ele><time>2026-04-19T10:26:18.999Z</time></trkpt><trkpt lat="42.63841355934362" lon="13.66661859590966"><ele>324.0</ele><time>2026-04-19T10:26:19.999Z</time></trkpt><trkpt lat="42.638555264542184" lon="13.666716463211063"><ele>327.3333333333333</ele><time>2026-04-19T10:26:20.999Z</time></trkpt><trkpt lat="42.63869095948544" lon="13.666807046939473"><ele>330.66666666666663</ele><time>2026-04-19T10:26:21.999Z</time></trkpt><trkpt lat="42.63882874546434" lon="13.666894528244518"><ele>334.0</ele><time>2026-04-19T10:26:22.999Z</time></trkpt><trkpt lat="42.63897676683946" lon="13.666987562509316"><ele>327.0</ele><time>2026-04-19T10:26:23.999Z</time></trkpt><trkpt lat="42.639119555603905" lon="13.667085941222208"><ele>320.0</ele><time>2026-04-19T10:26:24.999Z</time></trkpt><trkpt lat="42.639258027969355" lon="13.667177829096156"><ele>313.0</ele><time>2026-04-19T10:26:25.999Z</time></trkpt><trkpt lat="42.63939480029021" lon="13.667267833856702"><ele>314.0</ele><time>2026-04-19T10:26:26.999Z</time></trkpt><trkpt lat="42.63952897027632" lon="13.667350171098805"><ele>315.0</ele><time>2026-04-19T10:26:27.999Z</time></trkpt><trkpt lat="42.63967287913087" lon="13.667418195449288"><ele>316.0</ele><time>2026-04-19T10:26:28.999Z</time></trkpt><trkpt lat="42.639826084244525" lon="13.667458173825016"><ele>316.0</ele><time>2026-04-19T10:26:29.999Z</time></trkpt><trkpt lat="42.63997670728325" lon="13.667484431893465"><ele>316.0</ele><time>2026-04-19T10:26:30.999Z</time></trkpt><trkpt lat="42.64012397510873" lon="13.667526736261689"><ele>316.0</ele><time>2026-04-19T10:26:31.999Z</time></trkpt><trkpt lat="42.64027260541513" lon="13.667597961338897"><ele>320.3333333333333</ele><time>2026-04-19T10:26:32.999Z</time></trkpt><trkpt lat="42.64041709013267" lon="13.667692876146386"><ele>324.6666666666667</ele><time>2026-04-19T10:26:33.999Z</time></trkpt><trkpt lat="42.64055830933611" lon="13.667796158780234"><ele>329.0</ele><time>2026-04-19T10:26:34.999Z</time></trkpt><trkpt lat="42.64069633808722" lon="13.667902675924642"><ele>319.6666666666667</ele><time>2026-04-19T10:26:35.999Z</time></trkpt><trkpt lat="42.6408333806256" lon="13.668015183663812"><ele>310.3333333333333</ele><time>2026-04-19T10:26:36.999Z</time></trkpt><trkpt lat="42.640970812460814" lon="13.66813635211222"><ele>301.0</ele><time>2026-04-19T10:26:37.999Z</time></trkpt><trkpt lat="42.641108424100985" lon="13.668262057524492"><ele>297.66666666666663</ele><time>2026-04-19T10:26:38.999Z</time></trkpt><trkpt lat="42.6412437602092" lon="13.668386889165042"><ele>294.3333333333333</ele><time>2026-04-19T10:26:39.999Z</time></trkpt><trkpt lat="42.641375075014885" lon="13.668511588508347"><ele>291.0</ele><time>2026-04-19T10:26:40.999Z</time></trkpt><trkpt lat="42.64150662830449" lon="13.668637941465883"><ele>291.0</ele><time>2026-04-19T10:26:41.999Z</time></trkpt><trkpt lat="42.64163864990095" lon="13.668759382033828"><ele>291.0</ele><time>2026-04-19T10:26:42.999Z</time></trkpt><trkpt lat="42.64177746266829" lon="13.668874200029144"><ele>291.0</ele><time>2026-04-19T10:26:43.999Z</time></trkpt><trkpt lat="42.64192516972449" lon="13.668972163642012"><ele>295.0</ele><time>2026-04-19T10:26:44.999Z</time></trkpt><trkpt lat="42.64207390504756" lon="13.669042519006862"><ele>299.0</ele><time>2026-04-19T10:26:45.999Z</time></trkpt><trkpt lat="42.64222726262907" lon="13.669106704938313"><ele>303.0</ele><time>2026-04-19T10:26:46.999Z</time></trkpt><trkpt lat="42.642383568527556" lon="13.6691756331194"><ele>303.0</ele><time>2026-04-19T10:26:47.999Z</time></trkpt><trkpt lat="42.64252739057192" lon="13.669257390094103"><ele>303.0</ele><time>2026-04-19T10:26:48.999Z</time></trkpt><trkpt lat="42.64266515809681" lon="13.669355781696963"><ele>303.0</ele><time>2026-04-19T10:26:49.999Z</time></trkpt><trkpt lat="42.64279659495901" lon="13.669469502533092"><ele>300.3333333333333</ele><time>2026-04-19T10:26:50.999Z</time></trkpt><trkpt lat="42.64292614604286" lon="13.669595668963835"><ele>297.66666666666663</ele><time>2026-04-19T10:26:51.999Z</time></trkpt><trkpt lat="42.643053357281005" lon="13.669733846778625"><ele>295.0</ele><time>2026-04-19T10:26:52.999Z</time></trkpt><trkpt lat="42.64317981489859" lon="13.669881779328687"><ele>295.0</ele><time>2026-04-19T10:26:53.999Z</time></trkpt><trkpt lat="42.64330703181004" lon="13.670031579989443"><ele>295.0</ele><time>2026-04-19T10:26:54.999Z</time></trkpt><trkpt lat="42.64343141638052" lon="13.67018378880081"><ele>295.0</ele><time>2026-04-19T10:26:55.999Z</time></trkpt><trkpt lat="42.64355269867025" lon="13.6703324834554"><ele>293.3333333333333</ele><time>2026-04-19T10:26:56.999Z</time></trkpt><trkpt lat="42.643673246607804" lon="13.670475786032759"><ele>291.6666666666667</ele><time>2026-04-19T10:26:57.999Z</time></trkpt><trkpt lat="42.64378664239366" lon="13.670609542198596"><ele>290.0</ele><time>2026-04-19T10:26:58.999Z</time></trkpt><trkpt lat="42.6438963842312" lon="13.670733855377286"><ele>290.0</ele><time>2026-04-19T10:26:59.999Z</time></trkpt><trkpt lat="42.64399895275197" lon="13.670850651494153"><ele>290.0</ele><time>2026-04-19T10:27:00.999Z</time></trkpt><trkpt lat="42.64409763754484" lon="13.670961033547997"><ele>290.0</ele><time>2026-04-19T10:27:01.999Z</time></trkpt><trkpt lat="42.644190247672" lon="13.67106791605203"><ele>290.0</ele><time>2026-04-19T10:27:02.999Z</time></trkpt><trkpt lat="42.644265506529244" lon="13.67117240856517"><ele>290.6</ele><time>2026-04-19T10:27:03.999Z</time></trkpt><trkpt lat="42.64432154069871" lon="13.671283174408206"><ele>291.2</ele><time>2026-04-19T10:27:04.999Z</time></trkpt><trkpt lat="42.644357222053834" lon="13.67140729001435"><ele>291.8</ele><time>2026-04-19T10:27:05.999Z</time></trkpt><trkpt lat="42.644366160427715" lon="13.671527994747258"><ele>292.4</ele><time>2026-04-19T10:27:06.999Z</time></trkpt><trkpt lat="42.64435174303426" lon="13.67166310469165"><ele>293.0</ele><time>2026-04-19T10:27:07.999Z</time></trkpt><trkpt lat="42.64434914799108" lon="13.671790024900849"><ele>293.0</ele><time>2026-04-19T10:27:08.999Z</time></trkpt><trkpt lat="42.644375919320844" lon="13.671906660724096"><ele>293.0</ele><time>2026-04-19T10:27:09.999Z</time></trkpt><trkpt lat="42.64442796315153" lon="13.672004689395662"><ele>293.0</ele><time>2026-04-19T10:27:10.999Z</time></trkpt><trkpt lat="42.64450001145507" lon="13.672057884771236"><ele>293.0</ele><time>2026-04-19T10:27:11.999Z</time></trkpt><trkpt lat="42.644586699347855" lon="13.672065425745462"><ele>293.0</ele><time>2026-04-19T10:27:12.999Z</time></trkpt><trkpt lat="42.6446817192049" lon="13.672038618503084"><ele>293.0</ele><time>2026-04-19T10:27:13.999Z</time></trkpt><trkpt lat="42.64476793326845" lon="13.671993192255147"><ele>294.25</ele><time>2026-04-19T10:27:14.999Z</time></trkpt><trkpt lat="42.64484016473365" lon="13.671919660652923"><ele>295.5</ele><time>2026-04-19T10:27:15.999Z</time></trkpt><trkpt lat="42.64496803754626" lon="13.672002933277922"><ele>296.75</ele><time>2026-04-19T10:27:16.999Z</time></trkpt><trkpt lat="42.645057591050595" lon="13.672080601364964"><ele>298.0</ele><time>2026-04-19T10:27:17.999Z</time></trkpt><trkpt lat="42.64515172591382" lon="13.672196589859837"><ele>298.0</ele><time>2026-04-19T10:27:18.999Z</time></trkpt><trkpt lat="42.645246589992254" lon="13.672321513627926"><ele>298.0</ele><time>2026-04-19T10:27:19.999Z</time></trkpt><trkpt lat="42.645345084958514" lon="13.672455133892468"><ele>298.0</ele><time>2026-04-19T10:27:20.999Z</time></trkpt><trkpt lat="42.6454586937297" lon="13.672600709073947"><ele>298.0</ele><time>2026-04-19T10:27:21.999Z</time></trkpt><trkpt lat="42.645585473131746" lon="13.67275184383534"><ele>296.3333333333333</ele><time>2026-04-19T10:27:22.999Z</time></trkpt><trkpt lat="42.6457171461536" lon="13.672903836479943"><ele>294.6666666666667</ele><time>2026-04-19T10:27:23.999Z</time></trkpt><trkpt lat="42.64584564165902" lon="13.673056627838434"><ele>293.0</ele><time>2026-04-19T10:27:24.999Z</time></trkpt><trkpt lat="42.64597598865887" lon="13.673208686445902"><ele>293.0</ele><time>2026-04-19T10:27:25.999Z</time></trkpt><trkpt lat="42.646095654427604" lon="13.673347008578249"><ele>293.0</ele><time>2026-04-19T10:27:26.999Z</time></trkpt><trkpt lat="42.646212480931666" lon="13.673479908082811"><ele>293.0</ele><time>2026-04-19T10:27:27.999Z</time></trkpt><trkpt lat="42.64633301463951" lon="13.67361986379749"><ele>292.33333333333337</ele><time>2026-04-19T10:27:28.999Z</time></trkpt><trkpt lat="42.64645729279683" lon="13.673767616972272"><ele>291.6666666666667</ele><time>2026-04-19T10:27:29.999Z</time></trkpt><trkpt lat="42.646585849605486" lon="13.673920645179987"><ele>291.0</ele><time>2026-04-19T10:27:30.999Z</time></trkpt><trkpt lat="42.646720036633525" lon="13.674075458579436"><ele>291.0</ele><time>2026-04-19T10:27:31.999Z</time></trkpt><trkpt lat="42.64685483444545" lon="13.674234102134514"><ele>291.0</ele><time>2026-04-19T10:27:32.999Z</time></trkpt><trkpt lat="42.64699413271551" lon="13.674402871499595"><ele>291.0</ele><time>2026-04-19T10:27:33.999Z</time></trkpt><trkpt lat="42.64713683360673" lon="13.674573667252146"><ele>290.6666666666667</ele><time>2026-04-19T10:27:34.999Z</time></trkpt><trkpt lat="42.64727769153335" lon="13.674742092047532"><ele>290.33333333333337</ele><time>2026-04-19T10:27:35.999Z</time></trkpt><trkpt lat="42.64741275093717" lon="13.67490732084814"><ele>290.0</ele><time>2026-04-19T10:27:36.999Z</time></trkpt><trkpt lat="42.6475472630021" lon="13.675076045679463"><ele>290.0</ele><time>2026-04-19T10:27:37.999Z</time></trkpt><trkpt lat="42.64767977892984" lon="13.67524914378254"><ele>290.0</ele><time>2026-04-19T10:27:38.999Z</time></trkpt><trkpt lat="42.64780607272276" lon="13.675429096412872"><ele>290.0</ele><time>2026-04-19T10:27:39.999Z</time></trkpt><trkpt lat="42.64792719323276" lon="13.675617467906932"><ele>290.33333333333337</ele><time>2026-04-19T10:27:40.999Z</time></trkpt><trkpt lat="42.6480398818451" lon="13.675815251136449"><ele>290.6666666666667</ele><time>2026-04-19T10:27:41.999Z</time></trkpt><trkpt lat="42.648150831799406" lon="13.676012013300896"><ele>291.0</ele><time>2026-04-19T10:27:42.999Z</time></trkpt><trkpt lat="42.64825663410932" lon="13.67620541381912"><ele>289.3333333333333</ele><time>2026-04-19T10:27:43.999Z</time></trkpt><trkpt lat="42.64835504312232" lon="13.676396461658694"><ele>287.66666666666663</ele><time>2026-04-19T10:27:44.999Z</time></trkpt><trkpt lat="42.64845484607346" lon="13.676591280451857"><ele>286.0</ele><time>2026-04-19T10:27:45.999Z</time></trkpt><trkpt lat="42.64855765705115" lon="13.676784116004136"><ele>285.0</ele><time>2026-04-19T10:27:46.999Z</time></trkpt><trkpt lat="42.64866374203882" lon="13.676975719184075"><ele>284.0</ele><time>2026-04-19T10:27:47.999Z</time></trkpt><trkpt lat="42.6487666705472" lon="13.677164749852611"><ele>283.0</ele><time>2026-04-19T10:27:48.999Z</time></trkpt><trkpt lat="42.648867595736846" lon="13.677355185219044"><ele>283.0</ele><time>2026-04-19T10:27:49.999Z</time></trkpt><trkpt lat="42.6489675253613" lon="13.677551143992428"><ele>283.0</ele><time>2026-04-19T10:27:50.999Z</time></trkpt><trkpt lat="42.64906596149129" lon="13.677738925476442"><ele>283.0</ele><time>2026-04-19T10:27:51.999Z</time></trkpt><trkpt lat="42.64916205075356" lon="13.677919279801294"><ele>283.0</ele><time>2026-04-19T10:27:52.999Z</time></trkpt><trkpt lat="42.649257210976586" lon="13.6780969086616"><ele>283.0</ele><time>2026-04-19T10:27:53.999Z</time></trkpt><trkpt lat="42.64934592574622" lon="13.67826638471382"><ele>283.0</ele><time>2026-04-19T10:27:54.999Z</time></trkpt><trkpt lat="42.64942869808616" lon="13.678422551974153"><ele>283.75</ele><time>2026-04-19T10:27:55.999Z</time></trkpt><trkpt lat="42.64951020507536" lon="13.678568831145682"><ele>284.5</ele><time>2026-04-19T10:27:56.999Z</time></trkpt><trkpt lat="42.649583172854" lon="13.678705355033854"><ele>285.25</ele><time>2026-04-19T10:27:57.999Z</time></trkpt><trkpt lat="42.64963846491585" lon="13.678828437172523"><ele>286.0</ele><time>2026-04-19T10:27:58.999Z</time></trkpt><trkpt lat="42.64967095531293" lon="13.678949354767337"><ele>285.6</ele><time>2026-04-19T10:27:59.999Z</time></trkpt><trkpt lat="42.64967665855569" lon="13.679067658655507"><ele>285.20000000000005</ele><time>2026-04-19T10:28:00.999Z</time></trkpt><trkpt lat="42.649688926838316" lon="13.67917758666952"><ele>284.79999999999995</ele><time>2026-04-19T10:28:01.999Z</time></trkpt><trkpt lat="42.64972576300905" lon="13.67926446939055"><ele>284.4</ele><time>2026-04-19T10:28:02.999Z</time></trkpt><trkpt lat="42.64979843315055" lon="13.679358895291747"><ele>284.0</ele><time>2026-04-19T10:28:03.999Z</time></trkpt><trkpt lat="42.64988338076612" lon="13.679456826567575"><ele>284.0</ele><time>2026-04-19T10:28:04.999Z</time></trkpt><trkpt lat="42.649971469651135" lon="13.67955603632855"><ele>284.0</ele><time>2026-04-19T10:28:05.999Z</time></trkpt><trkpt lat="42.65005974221891" lon="13.679663643484368"><ele>284.0</ele><time>2026-04-19T10:28:06.999Z</time></trkpt><trkpt lat="42.6501477401846" lon="13.679774729711903"><ele>284.0</ele><time>2026-04-19T10:28:07.999Z</time></trkpt><trkpt lat="42.650239066392075" lon="13.67988467935103"><ele>283.8</ele><time>2026-04-19T10:28:08.999Z</time></trkpt><trkpt lat="42.650333385529" lon="13.679991903398808"><ele>283.59999999999997</ele><time>2026-04-19T10:28:09.999Z</time></trkpt><trkpt lat="42.65041935518216" lon="13.680091498930167"><ele>283.4</ele><time>2026-04-19T10:28:10.999Z</time></trkpt><trkpt lat="42.65049552054857" lon="13.68018373130477"><ele>283.2</ele><time>2026-04-19T10:28:11.999Z</time></trkpt><trkpt lat="42.65056325071998" lon="13.680259389349692"><ele>283.0</ele><time>2026-04-19T10:28:12.999Z</time></trkpt><trkpt lat="42.65062774570165" lon="13.680331085689131"><ele>283.0</ele><time>2026-04-19T10:28:13.999Z</time></trkpt><trkpt lat="42.65069604347295" lon="13.680399205874776"><ele>283.0</ele><time>2026-04-19T10:28:14.999Z</time></trkpt><trkpt lat="42.65076331389291" lon="13.680472014736345"><ele>283.0</ele><time>2026-04-19T10:28:15.999Z</time></trkpt><trkpt lat="42.65083388868142" lon="13.680549496137177"><ele>283.0</ele><time>2026-04-19T10:28:16.999Z</time></trkpt><trkpt lat="42.65090327338256" lon="13.680626660318241"><ele>283.0</ele><time>2026-04-19T10:28:17.999Z</time></trkpt><trkpt lat="42.65097504703963" lon="13.68070387315834"><ele>283.0</ele><time>2026-04-19T10:28:18.999Z</time></trkpt><trkpt lat="42.65104793066483" lon="13.680780850905736"><ele>283.0</ele><time>2026-04-19T10:28:19.999Z</time></trkpt><trkpt lat="42.65111506465203" lon="13.680851142584089"><ele>283.0</ele><time>2026-04-19T10:28:20.999Z</time></trkpt><trkpt lat="42.65118069943359" lon="13.680924755216752"><ele>283.0</ele><time>2026-04-19T10:28:21.999Z</time></trkpt><trkpt lat="42.6512465560959" lon="13.680996286859514"><ele>283.0</ele><time>2026-04-19T10:28:22.999Z</time></trkpt><trkpt lat="42.65131131837717" lon="13.681068875773281"><ele>283.0</ele><time>2026-04-19T10:28:23.999Z</time></trkpt><trkpt lat="42.65138316209882" lon="13.681149180259018"><ele>283.0</ele><time>2026-04-19T10:28:24.999Z</time></trkpt><trkpt lat="42.65145146500107" lon="13.681229106600165"><ele>282.5</ele><time>2026-04-19T10:28:25.999Z</time></trkpt><trkpt lat="42.651518335677714" lon="13.681302647197683"><ele>282.0</ele><time>2026-04-19T10:28:26.999Z</time></trkpt><trkpt lat="42.65158402383246" lon="13.681372384087002"><ele>281.5</ele><time>2026-04-19T10:28:27.999Z</time></trkpt><trkpt lat="42.65164779274023" lon="13.681440061113292"><ele>281.0</ele><time>2026-04-19T10:28:28.999Z</time></trkpt><trkpt lat="42.651710605735936" lon="13.681504814042295"><ele>280.5</ele><time>2026-04-19T10:28:29.999Z</time></trkpt><trkpt lat="42.6517712153293" lon="13.681572600704774"><ele>280.0</ele><time>2026-04-19T10:28:30.999Z</time></trkpt><trkpt lat="42.651834218358154" lon="13.681646775964346"><ele>280.0</ele><time>2026-04-19T10:28:31.999Z</time></trkpt><trkpt lat="42.65190725200322" lon="13.681723120837503"><ele>280.0</ele><time>2026-04-19T10:28:32.999Z</time></trkpt><trkpt lat="42.65198198621082" lon="13.681806197237094"><ele>280.0</ele><time>2026-04-19T10:28:33.999Z</time></trkpt><trkpt lat="42.652060019896126" lon="13.681892484492908"><ele>280.0</ele><time>2026-04-19T10:28:34.999Z</time></trkpt><trkpt lat="42.65213935267036" lon="13.681986769630646"><ele>280.0</ele><time>2026-04-19T10:28:35.999Z</time></trkpt><trkpt lat="42.65222101620069" lon="13.682082761764816"><ele>280.5</ele><time>2026-04-19T10:28:36.999Z</time></trkpt><trkpt lat="42.652307449336966" lon="13.682182382245085"><ele>281.0</ele><time>2026-04-19T10:28:37.999Z</time></trkpt><trkpt lat="42.652398001401615" lon="13.682285781453787"><ele>281.5</ele><time>2026-04-19T10:28:38.999Z</time></trkpt><trkpt lat="42.65249004735554" lon="13.682387921654374"><ele>282.0</ele><time>2026-04-19T10:28:39.999Z</time></trkpt><trkpt lat="42.652572510659" lon="13.682482726590122"><ele>282.0</ele><time>2026-04-19T10:28:40.999Z</time></trkpt><trkpt lat="42.6526488001751" lon="13.682576281563207"><ele>282.0</ele><time>2026-04-19T10:28:41.999Z</time></trkpt><trkpt lat="42.65272647164838" lon="13.682675211155717"><ele>282.0</ele><time>2026-04-19T10:28:42.999Z</time></trkpt><trkpt lat="42.65280406669731" lon="13.682775234296209"><ele>282.0</ele><time>2026-04-19T10:28:43.999Z</time></trkpt><trkpt lat="42.65287908965547" lon="13.682868236502047"><ele>282.0</ele><time>2026-04-19T10:28:44.999Z</time></trkpt><trkpt lat="42.65295139234618" lon="13.682957610027119"><ele>281.6666666666667</ele><time>2026-04-19T10:28:45.999Z</time></trkpt><trkpt lat="42.65302001258426" lon="13.683041833402713"><ele>281.3333333333333</ele><time>2026-04-19T10:28:46.999Z</time></trkpt><trkpt lat="42.65308806549778" lon="13.683119038408588"><ele>281.0</ele><time>2026-04-19T10:28:47.999Z</time></trkpt><trkpt lat="42.653152277361414" lon="13.68318660231909"><ele>280.66666666666663</ele><time>2026-04-19T10:28:48.999Z</time></trkpt><trkpt lat="42.65322134301729" lon="13.68325508067432"><ele>280.3333333333333</ele><time>2026-04-19T10:28:49.999Z</time></trkpt><trkpt lat="42.653293919562195" lon="13.6833332711514"><ele>280.0</ele><time>2026-04-19T10:28:50.999Z</time></trkpt><trkpt lat="42.653376430475326" lon="13.683410036786482"><ele>280.0</ele><time>2026-04-19T10:28:51.999Z</time></trkpt><trkpt lat="42.65346703564513" lon="13.683460144387757"><ele>280.0</ele><time>2026-04-19T10:28:52.999Z</time></trkpt><trkpt lat="42.65355929491055" lon="13.683502025813748"><ele>280.0</ele><time>2026-04-19T10:28:53.999Z</time></trkpt><trkpt lat="42.653659892456844" lon="13.683552487408178"><ele>280.0</ele><time>2026-04-19T10:28:54.999Z</time></trkpt><trkpt lat="42.653761817118735" lon="13.683627678251806"><ele>280.0</ele><time>2026-04-19T10:28:55.999Z</time></trkpt><trkpt lat="42.653873573003644" lon="13.683708483002139"><ele>278.25</ele><time>2026-04-19T10:28:56.999Z</time></trkpt><trkpt lat="42.65398304460919" lon="13.683789659557894"><ele>276.5</ele><time>2026-04-19T10:28:57.999Z</time></trkpt><trkpt lat="42.654082587648425" lon="13.683866188234436"><ele>274.75</ele><time>2026-04-19T10:28:58.999Z</time></trkpt><trkpt lat="42.654188786108584" lon="13.683943844072733"><ele>273.0</ele><time>2026-04-19T10:28:59.999Z</time></trkpt><trkpt lat="42.654293811942885" lon="13.684021868048262"><ele>273.0</ele><time>2026-04-19T10:29:00.999Z</time></trkpt><trkpt lat="42.65439347733988" lon="13.684097058827764"><ele>273.0</ele><time>2026-04-19T10:29:01.999Z</time></trkpt><trkpt lat="42.65448080437446" lon="13.68416709505407"><ele>273.0</ele><time>2026-04-19T10:29:02.999Z</time></trkpt><trkpt lat="42.65456548398558" lon="13.684234132530223"><ele>273.0</ele><time>2026-04-19T10:29:03.999Z</time></trkpt><trkpt lat="42.654653686432034" lon="13.684302441943066"><ele>273.0</ele><time>2026-04-19T10:29:04.999Z</time></trkpt><trkpt lat="42.65474216545134" lon="13.684371236828287"><ele>273.8</ele><time>2026-04-19T10:29:05.999Z</time></trkpt><trkpt lat="42.65483125985108" lon="13.68444398642629"><ele>274.6</ele><time>2026-04-19T10:29:06.999Z</time></trkpt><trkpt lat="42.654923706698376" lon="13.684517562885551"><ele>275.4</ele><time>2026-04-19T10:29:07.999Z</time></trkpt><trkpt lat="42.65502018146876" lon="13.684587577213502"><ele>276.2</ele><time>2026-04-19T10:29:08.999Z</time></trkpt><trkpt lat="42.655116283463094" lon="13.68465900568447"><ele>277.0</ele><time>2026-04-19T10:29:09.999Z</time></trkpt><trkpt lat="42.65521258029722" lon="13.684731240089642"><ele>280.6</ele><time>2026-04-19T10:29:10.999Z</time></trkpt><trkpt lat="42.65530702136082" lon="13.684797998466305"><ele>284.2</ele><time>2026-04-19T10:29:11.999Z</time></trkpt><trkpt lat="42.65539751915688" lon="13.684861739933533"><ele>287.8</ele><time>2026-04-19T10:29:12.999Z</time></trkpt><trkpt lat="42.65548918152501" lon="13.684922801212922"><ele>291.4</ele><time>2026-04-19T10:29:13.999Z</time></trkpt><trkpt lat="42.65557795203876" lon="13.6849787311246"><ele>295.0</ele><time>2026-04-19T10:29:14.999Z</time></trkpt><trkpt lat="42.65566703997401" lon="13.685031257046052"><ele>295.0</ele><time>2026-04-19T10:29:15.999Z</time></trkpt><trkpt lat="42.6557559712863" lon="13.685082962853357"><ele>295.0</ele><time>2026-04-19T10:29:16.999Z</time></trkpt><trkpt lat="42.655843692648446" lon="13.685129014697845"><ele>295.0</ele><time>2026-04-19T10:29:17.999Z</time></trkpt><trkpt lat="42.65593071027264" lon="13.68517082632768"><ele>295.0</ele><time>2026-04-19T10:29:18.999Z</time></trkpt><trkpt lat="42.656020960873924" lon="13.685214359369247"><ele>295.0</ele><time>2026-04-19T10:29:19.999Z</time></trkpt><trkpt lat="42.65611216352702" lon="13.685258014608399"><ele>295.0</ele><time>2026-04-19T10:29:20.999Z</time></trkpt><trkpt lat="42.656203976792575" lon="13.685306974911958"><ele>295.0</ele><time>2026-04-19T10:29:21.999Z</time></trkpt><trkpt lat="42.65629851277133" lon="13.68535734004172"><ele>295.0</ele><time>2026-04-19T10:29:22.999Z</time></trkpt><trkpt lat="42.65638760575859" lon="13.685406849458781"><ele>295.0</ele><time>2026-04-19T10:29:23.999Z</time></trkpt><trkpt lat="42.65647253506475" lon="13.68545279639366"><ele>295.0</ele><time>2026-04-19T10:29:24.999Z</time></trkpt><trkpt lat="42.65656291485473" lon="13.68550257188145"><ele>295.0</ele><time>2026-04-19T10:29:25.999Z</time></trkpt><trkpt lat="42.656648010258394" lon="13.68554236084901"><ele>295.0</ele><time>2026-04-19T10:29:26.999Z</time></trkpt><trkpt lat="42.656721592113655" lon="13.685589665578462"><ele>295.0</ele><time>2026-04-19T10:29:27.999Z</time></trkpt><trkpt lat="42.65678711438773" lon="13.685657333794875"><ele>295.0</ele><time>2026-04-19T10:29:28.999Z</time></trkpt><trkpt lat="42.656845547452825" lon="13.68573660638923"><ele>295.0</ele><time>2026-04-19T10:29:29.999Z</time></trkpt><trkpt lat="42.65689803687941" lon="13.685827223058416"><ele>295.0</ele><time>2026-04-19T10:29:30.999Z</time></trkpt><trkpt lat="42.656945810515936" lon="13.685924389377014"><ele>296.16666666666663</ele><time>2026-04-19T10:29:31.999Z</time></trkpt><trkpt lat="42.65698947398512" lon="13.686034018259077"><ele>297.3333333333333</ele><time>2026-04-19T10:29:32.999Z</time></trkpt><trkpt lat="42.65703203244946" lon="13.68613440354558"><ele>298.5</ele><time>2026-04-19T10:29:33.999Z</time></trkpt><trkpt lat="42.65707069899609" lon="13.68623636886627"><ele>299.6666666666667</ele><time>2026-04-19T10:29:34.999Z</time></trkpt><trkpt lat="42.6571085200154" lon="13.6863416390258"><ele>300.83333333333337</ele><time>2026-04-19T10:29:35.999Z</time></trkpt><trkpt lat="42.65713981097993" lon="13.686453396960832"><ele>302.0</ele><time>2026-04-19T10:29:36.999Z</time></trkpt><trkpt lat="42.65716036363446" lon="13.686580658425871"><ele>302.0</ele><time>2026-04-19T10:29:37.999Z</time></trkpt><trkpt lat="42.657177482911585" lon="13.686716276487518"><ele>302.0</ele><time>2026-04-19T10:29:38.999Z</time></trkpt><trkpt lat="42.65718919363062" lon="13.68686133212397"><ele>302.0</ele><time>2026-04-19T10:29:39.999Z</time></trkpt><trkpt lat="42.6572010185938" lon="13.68701089495124"><ele>302.0</ele><time>2026-04-19T10:29:40.999Z</time></trkpt><trkpt lat="42.657213458466686" lon="13.687163718783324"><ele>302.0</ele><time>2026-04-19T10:29:41.999Z</time></trkpt><trkpt lat="42.65722722954347" lon="13.687314942593456"><ele>301.0</ele><time>2026-04-19T10:29:42.999Z</time></trkpt><trkpt lat="42.657239709680354" lon="13.687459910819221"><ele>300.0</ele><time>2026-04-19T10:29:43.999Z</time></trkpt><trkpt lat="42.657249365981365" lon="13.687609079669853"><ele>299.0</ele><time>2026-04-19T10:29:44.999Z</time></trkpt><trkpt lat="42.657262228964946" lon="13.687757949250392"><ele>298.0</ele><time>2026-04-19T10:29:45.999Z</time></trkpt><trkpt lat="42.65727759788621" lon="13.68790794529508"><ele>297.0</ele><time>2026-04-19T10:29:46.999Z</time></trkpt><trkpt lat="42.657295598250506" lon="13.688060232311132"><ele>297.0</ele><time>2026-04-19T10:29:47.999Z</time></trkpt><trkpt lat="42.65731433695628" lon="13.688213778197833"><ele>297.0</ele><time>2026-04-19T10:29:48.999Z</time></trkpt><trkpt lat="42.65733743969959" lon="13.688366007890236"><ele>297.0</ele><time>2026-04-19T10:29:49.999Z</time></trkpt><trkpt lat="42.657369994314884" lon="13.688517650306107"><ele>297.0</ele><time>2026-04-19T10:29:50.999Z</time></trkpt><trkpt lat="42.65741532852904" lon="13.688665943616305"><ele>297.0</ele><time>2026-04-19T10:29:51.999Z</time></trkpt><trkpt lat="42.657469809108925" lon="13.688809542288789"><ele>297.0</ele><time>2026-04-19T10:29:52.999Z</time></trkpt><trkpt lat="42.65753214871451" lon="13.688949353703945"><ele>297.0</ele><time>2026-04-19T10:29:53.999Z</time></trkpt><trkpt lat="42.65759493749012" lon="13.689079360994825"><ele>297.0</ele><time>2026-04-19T10:29:54.999Z</time></trkpt><trkpt lat="42.65765834903021" lon="13.689196149671938"><ele>297.0</ele><time>2026-04-19T10:29:55.999Z</time></trkpt><trkpt lat="42.65772652513029" lon="13.689311365000838"><ele>297.0</ele><time>2026-04-19T10:29:56.999Z</time></trkpt><trkpt lat="42.657798115649676" lon="13.689417939274014"><ele>297.0</ele><time>2026-04-19T10:29:57.999Z</time></trkpt><trkpt lat="42.657874072687285" lon="13.689517014679396"><ele>297.0</ele><time>2026-04-19T10:29:58.999Z</time></trkpt><trkpt lat="42.657951290539444" lon="13.689610920806894"><ele>297.0</ele><time>2026-04-19T10:29:59.999Z</time></trkpt><trkpt lat="42.65802845119995" lon="13.689704861751943"><ele>296.6</ele><time>2026-04-19T10:30:00.999Z</time></trkpt><trkpt lat="42.65810392376961" lon="13.68979788442076"><ele>296.2</ele><time>2026-04-19T10:30:02Z</time></trkpt><trkpt lat="42.65818029835293" lon="13.68989559600136"><ele>295.8</ele><time>2026-04-19T10:30:03Z</time></trkpt><trkpt lat="42.65824980137781" lon="13.690006940020012"><ele>295.4</ele><time>2026-04-19T10:30:04Z</time></trkpt><trkpt lat="42.65829766742602" lon="13.690131225330385"><ele>295.0</ele><time>2026-04-19T10:30:05Z</time></trkpt><trkpt lat="42.65833484999177" lon="13.690262494127678"><ele>294.2</ele><time>2026-04-19T10:30:06Z</time></trkpt><trkpt lat="42.65835531122301" lon="13.690404993023238"><ele>293.4</ele><time>2026-04-19T10:30:07Z</time></trkpt><trkpt lat="42.658358541106374" lon="13.690550123467737"><ele>292.6</ele><time>2026-04-19T10:30:08Z</time></trkpt><trkpt lat="42.65834779100374" lon="13.690701045681896"><ele>291.8</ele><time>2026-04-19T10:30:09Z</time></trkpt><trkpt lat="42.65832608330982" lon="13.69085055496034"><ele>291.0</ele><time>2026-04-19T10:30:10Z</time></trkpt><trkpt lat="42.65828846662446" lon="13.69098981847834"><ele>290.0</ele><time>2026-04-19T10:30:11Z</time></trkpt><trkpt lat="42.65824888529104" lon="13.69112138797379"><ele>289.0</ele><time>2026-04-19T10:30:12Z</time></trkpt><trkpt lat="42.65822098155933" lon="13.691265712597428"><ele>288.0</ele><time>2026-04-19T10:30:13Z</time></trkpt><trkpt lat="42.65820153915667" lon="13.691413688187238"><ele>287.0</ele><time>2026-04-19T10:30:14Z</time></trkpt><trkpt lat="42.65818965568685" lon="13.691553068542307"><ele>286.0</ele><time>2026-04-19T10:30:15Z</time></trkpt><trkpt lat="42.6581819862084" lon="13.691687525933675"><ele>286.0</ele><time>2026-04-19T10:30:16Z</time></trkpt><trkpt lat="42.65817896901559" lon="13.691819900216787"><ele>286.0</ele><time>2026-04-19T10:30:17Z</time></trkpt><trkpt lat="42.65817651914467" lon="13.691950733473158"><ele>286.0</ele><time>2026-04-19T10:30:18Z</time></trkpt><trkpt lat="42.65818824430492" lon="13.692080821016964"><ele>286.0</ele><time>2026-04-19T10:30:19Z</time></trkpt><trkpt lat="42.658219130285595" lon="13.692217294033245"><ele>286.0</ele><time>2026-04-19T10:30:20Z</time></trkpt><trkpt lat="42.65825921080229" lon="13.692348005125247"><ele>285.25</ele><time>2026-04-19T10:30:21Z</time></trkpt><trkpt lat="42.65830829273782" lon="13.69249007172423"><ele>284.5</ele><time>2026-04-19T10:30:22Z</time></trkpt><trkpt lat="42.65836251117412" lon="13.692625067636529"><ele>283.75</ele><time>2026-04-19T10:30:23Z</time></trkpt><trkpt lat="42.65841926995456" lon="13.69276584338905"><ele>283.0</ele><time>2026-04-19T10:30:24Z</time></trkpt><trkpt lat="42.65847863559078" lon="13.692908659574007"><ele>283.0</ele><time>2026-04-19T10:30:25Z</time></trkpt><trkpt lat="42.65854191445224" lon="13.693042072181534"><ele>283.0</ele><time>2026-04-19T10:30:26Z</time></trkpt><trkpt lat="42.65860183706135" lon="13.693170810241503"><ele>283.0</ele><time>2026-04-19T10:30:27Z</time></trkpt><trkpt lat="42.65865674998474" lon="13.693294930741704"><ele>283.0</ele><time>2026-04-19T10:30:28Z</time></trkpt><trkpt lat="42.65871073467112" lon="13.6934127837764"><ele>283.0</ele><time>2026-04-19T10:30:29Z</time></trkpt><trkpt lat="42.65876082247353" lon="13.693519159178855"><ele>283.2</ele><time>2026-04-19T10:30:30Z</time></trkpt><trkpt lat="42.65880825501174" lon="13.693627221031749"><ele>283.4</ele><time>2026-04-19T10:30:31Z</time></trkpt><trkpt lat="42.65885699893862" lon="13.693736316254137"><ele>283.59999999999997</ele><time>2026-04-19T10:30:32Z</time></trkpt><trkpt lat="42.65891064167613" lon="13.693848285128446"><ele>283.8</ele><time>2026-04-19T10:30:33Z</time></trkpt><trkpt lat="42.65895354664156" lon="13.69397719434811"><ele>284.0</ele><time>2026-04-19T10:30:34Z</time></trkpt><trkpt lat="42.65900478510706" lon="13.694089630716325"><ele>284.0</ele><time>2026-04-19T10:30:35Z</time></trkpt><trkpt lat="42.65905187815385" lon="13.694192972780991"><ele>284.0</ele><time>2026-04-19T10:30:36Z</time></trkpt><trkpt lat="42.659109772742525" lon="13.694287274944061"><ele>284.0</ele><time>2026-04-19T10:30:37Z</time></trkpt><trkpt lat="42.659154128830096" lon="13.694393230150116"><ele>284.0</ele><time>2026-04-19T10:30:38Z</time></trkpt><trkpt lat="42.65920120936681" lon="13.694499736985216"><ele>284.0</ele><time>2026-04-19T10:30:39Z</time></trkpt><trkpt lat="42.65924984502853" lon="13.694609050516233"><ele>283.8</ele><time>2026-04-19T10:30:40Z</time></trkpt><trkpt lat="42.65929722075608" lon="13.694719333934962"><ele>283.59999999999997</ele><time>2026-04-19T10:30:41Z</time></trkpt><trkpt lat="42.659344782324595" lon="13.694828958305033"><ele>283.4</ele><time>2026-04-19T10:30:42Z</time></trkpt><trkpt lat="42.65939312246826" lon="13.694937782123736"><ele>283.2</ele><time>2026-04-19T10:30:43Z</time></trkpt><trkpt lat="42.659441891733984" lon="13.695046150767215"><ele>283.0</ele><time>2026-04-19T10:30:44Z</time></trkpt><trkpt lat="42.659490778927406" lon="13.695156884494537"><ele>283.4</ele><time>2026-04-19T10:30:45Z</time></trkpt><trkpt lat="42.659544376446156" lon="13.695270693164169"><ele>283.8</ele><time>2026-04-19T10:30:46Z</time></trkpt><trkpt lat="42.65960157391151" lon="13.695390096387383"><ele>284.2</ele><time>2026-04-19T10:30:47Z</time></trkpt><trkpt lat="42.659658832904164" lon="13.695507644422802"><ele>284.6</ele><time>2026-04-19T10:30:48Z</time></trkpt><trkpt lat="42.65971634105416" lon="13.695627153629426"><ele>285.0</ele><time>2026-04-19T10:30:49Z</time></trkpt><trkpt lat="42.65975895906412" lon="13.695754102549168"><ele>285.0</ele><time>2026-04-19T10:30:50Z</time></trkpt><trkpt lat="42.659807453071494" lon="13.695860492232436"><ele>285.0</ele><time>2026-04-19T10:30:51Z</time></trkpt><trkpt lat="42.659852689143065" lon="13.695958081944813"><ele>285.0</ele><time>2026-04-19T10:30:52Z</time></trkpt><trkpt lat="42.65989548474451" lon="13.69604722309046"><ele>285.0</ele><time>2026-04-19T10:30:53Z</time></trkpt><trkpt lat="42.65995295672978" lon="13.696126052960896"><ele>285.0</ele><time>2026-04-19T10:30:54Z</time></trkpt><trkpt lat="42.65999687315934" lon="13.696222506348919"><ele>285.0</ele><time>2026-04-19T10:30:55Z</time></trkpt><trkpt lat="42.66003943621097" lon="13.696319044782994"><ele>285.1666666666667</ele><time>2026-04-19T10:30:56Z</time></trkpt><trkpt lat="42.66008110402713" lon="13.69640584024997"><ele>285.3333333333333</ele><time>2026-04-19T10:30:57Z</time></trkpt><trkpt lat="42.660122463138435" lon="13.696490527386725"><ele>285.5</ele><time>2026-04-19T10:30:58Z</time></trkpt><trkpt lat="42.660163667751874" lon="13.696576685219254"><ele>285.66666666666663</ele><time>2026-04-19T10:30:59Z</time></trkpt><trkpt lat="42.66020768973911" lon="13.69666219892933"><ele>285.8333333333333</ele><time>2026-04-19T10:31:00Z</time></trkpt><trkpt lat="42.66025940014877" lon="13.696765718751212"><ele>286.0</ele><time>2026-04-19T10:31:01Z</time></trkpt><trkpt lat="42.66030864833672" lon="13.696860234173458"><ele>285.5</ele><time>2026-04-19T10:31:02Z</time></trkpt><trkpt lat="42.660357589585765" lon="13.696959495307716"><ele>285.0</ele><time>2026-04-19T10:31:03Z</time></trkpt><trkpt lat="42.660405582061614" lon="13.697055462249015"><ele>284.5</ele><time>2026-04-19T10:31:04Z</time></trkpt><trkpt lat="42.66045058816931" lon="13.697152100130124"><ele>284.0</ele><time>2026-04-19T10:31:05Z</time></trkpt><trkpt lat="42.66049232812887" lon="13.697242517441119"><ele>283.5</ele><time>2026-04-19T10:31:06Z</time></trkpt><trkpt lat="42.66053007394846" lon="13.697329142001033"><ele>283.0</ele><time>2026-04-19T10:31:07Z</time></trkpt><trkpt lat="42.66056991705416" lon="13.697409774154254"><ele>283.0</ele><time>2026-04-19T10:31:08Z</time></trkpt><trkpt lat="42.660611899992" lon="13.697493744135185"><ele>283.0</ele><time>2026-04-19T10:31:09Z</time></trkpt><trkpt lat="42.6606518902446" lon="13.697578390458887"><ele>283.0</ele><time>2026-04-19T10:31:10Z</time></trkpt><trkpt lat="42.66069039994442" lon="13.69765474864863"><ele>283.0</ele><time>2026-04-19T10:31:11Z</time></trkpt><trkpt lat="42.66075011867564" lon="13.697775586054748"><ele>283.0</ele><time>2026-04-19T10:31:13Z</time></trkpt><trkpt lat="42.660784949481474" lon="13.697853497141752"><ele>283.0</ele><time>2026-04-19T10:31:19.999Z</time></trkpt><trkpt lat="42.66082981326075" lon="13.697936654708204"><ele>282.5</ele><time>2026-04-19T10:31:21.999Z</time></trkpt><trkpt lat="42.66088180381827" lon="13.698042389195352"><ele>282.0</ele><time>2026-04-19T10:31:23.999Z</time></trkpt><trkpt lat="42.66093809293905" lon="13.698178149278792"><ele>281.5</ele><time>2026-04-19T10:31:25.999Z</time></trkpt><trkpt lat="42.66097043924987" lon="13.698255838730729"><ele>281.0</ele><time>2026-04-19T10:31:26.999Z</time></trkpt><trkpt lat="42.661004116148916" lon="13.698337862257281"><ele>280.5</ele><time>2026-04-19T10:31:27.999Z</time></trkpt><trkpt lat="42.661039636864" lon="13.698423839934277"><ele>280.0</ele><time>2026-04-19T10:31:28.999Z</time></trkpt><trkpt lat="42.66107975031828" lon="13.698513173743697"><ele>279.8333333333333</ele><time>2026-04-19T10:31:29.999Z</time></trkpt><trkpt lat="42.661128264487594" lon="13.698596518679599"><ele>279.66666666666663</ele><time>2026-04-19T10:31:30.999Z</time></trkpt><trkpt lat="42.661188121547994" lon="13.698675961152778"><ele>279.5</ele><time>2026-04-19T10:31:31.999Z</time></trkpt><trkpt lat="42.66126204540117" lon="13.698746831588904"><ele>279.3333333333333</ele><time>2026-04-19T10:31:32.999Z</time></trkpt><trkpt lat="42.66132679639037" lon="13.698808504072534"><ele>279.1666666666667</ele><time>2026-04-19T10:31:33.999Z</time></trkpt><trkpt lat="42.66138548975571" lon="13.698865538950706"><ele>279.0</ele><time>2026-04-19T10:31:34.999Z</time></trkpt><trkpt lat="42.66144285282128" lon="13.698924268559315"><ele>278.99999999999994</ele><time>2026-04-19T10:31:35.999Z</time></trkpt><trkpt lat="42.66150066737643" lon="13.69898481187915"><ele>279.0</ele><time>2026-04-19T10:31:36.999Z</time></trkpt><trkpt lat="42.66155963153042" lon="13.699047287140454"><ele>279.0</ele><time>2026-04-19T10:31:37.999Z</time></trkpt><trkpt lat="42.66161710674103" lon="13.69910649789088"><ele>279.0</ele><time>2026-04-19T10:31:38.999Z</time></trkpt><trkpt lat="42.66167809638619" lon="13.699150877157336"><ele>279.0</ele><time>2026-04-19T10:31:39.999Z</time></trkpt><trkpt lat="42.661735242444024" lon="13.699191686075874"><ele>278.99999999999994</ele><time>2026-04-19T10:31:40.999Z</time></trkpt><trkpt lat="42.661793122947294" lon="13.69923654032889"><ele>279.0</ele><time>2026-04-19T10:31:41.999Z</time></trkpt><trkpt lat="42.66186006379126" lon="13.699288635407564"><ele>279.0</ele><time>2026-04-19T10:31:42.999Z</time></trkpt><trkpt lat="42.66193383094441" lon="13.6993491061659"><ele>279.0</ele><time>2026-04-19T10:31:43.999Z</time></trkpt><trkpt lat="42.66200269137256" lon="13.699404100873009"><ele>279.0</ele><time>2026-04-19T10:31:44.999Z</time></trkpt><trkpt lat="42.66207344552478" lon="13.699461967152399"><ele>279.0</ele><time>2026-04-19T10:31:45.999Z</time></trkpt><trkpt lat="42.66214401206453" lon="13.699523727806088"><ele>279.0</ele><time>2026-04-19T10:31:46.999Z</time></trkpt><trkpt lat="42.662209654792676" lon="13.699589086097898"><ele>279.0</ele><time>2026-04-19T10:31:47.999Z</time></trkpt><trkpt lat="42.66226994288457" lon="13.699658286070735"><ele>277.1666666666667</ele><time>2026-04-19T10:31:48.999Z</time></trkpt><trkpt lat="42.66231216539403" lon="13.699746564490239"><ele>275.3333333333333</ele><time>2026-04-19T10:31:49.999Z</time></trkpt><trkpt lat="42.6623707944866" lon="13.699899646129332"><ele>273.5</ele><time>2026-04-19T10:31:52Z</time></trkpt><trkpt lat="42.66242843017883" lon="13.699954703024586"><ele>271.66666666666663</ele><time>2026-04-19T10:31:53Z</time></trkpt><trkpt lat="42.662501635636346" lon="13.699993433687801"><ele>269.8333333333333</ele><time>2026-04-19T10:31:54Z</time></trkpt><trkpt lat="42.6625774181993" lon="13.700048880045735"><ele>268.0</ele><time>2026-04-19T10:31:55Z</time></trkpt><trkpt lat="42.66263934441435" lon="13.700156377856912"><ele>267.75</ele><time>2026-04-19T10:31:56Z</time></trkpt><trkpt lat="42.662695891109166" lon="13.700302265294285"><ele>267.5</ele><time>2026-04-19T10:31:57Z</time></trkpt><trkpt lat="42.66275755407015" lon="13.700459569751008"><ele>267.25</ele><time>2026-04-19T10:31:58Z</time></trkpt><trkpt lat="42.66282271451219" lon="13.700608631392315"><ele>267.0</ele><time>2026-04-19T10:31:59Z</time></trkpt><trkpt lat="42.66289087334152" lon="13.700764622377957"><ele>263.75</ele><time>2026-04-19T10:32:00Z</time></trkpt><trkpt lat="42.66296061288302" lon="13.700927540541285"><ele>260.5</ele><time>2026-04-19T10:32:01Z</time></trkpt><trkpt lat="42.66302986062994" lon="13.701093355716031"><ele>257.25</ele><time>2026-04-19T10:32:02Z</time></trkpt><trkpt lat="42.66310059885874" lon="13.701264813068002"><ele>254.0</ele><time>2026-04-19T10:32:03Z</time></trkpt><trkpt lat="42.663173601373835" lon="13.701433127715136"><ele>254.0</ele><time>2026-04-19T10:32:04Z</time></trkpt><trkpt lat="42.663250006999284" lon="13.70161035655778"><ele>254.0</ele><time>2026-04-19T10:32:05Z</time></trkpt><trkpt lat="42.66331955992194" lon="13.701779680567476"><ele>254.0</ele><time>2026-04-19T10:32:06Z</time></trkpt><trkpt lat="42.66338993194567" lon="13.701949926179473"><ele>254.0</ele><time>2026-04-19T10:32:07Z</time></trkpt><trkpt lat="42.663461238381444" lon="13.702121439442319"><ele>254.0</ele><time>2026-04-19T10:32:08Z</time></trkpt><trkpt lat="42.663532562651504" lon="13.702295017587208"><ele>254.0</ele><time>2026-04-19T10:32:09Z</time></trkpt><trkpt lat="42.66359994270367" lon="13.702469726956664"><ele>254.0</ele><time>2026-04-19T10:32:10Z</time></trkpt><trkpt lat="42.663653923808184" lon="13.702637595924477"><ele>254.0</ele><time>2026-04-19T10:32:11Z</time></trkpt><trkpt lat="42.66370170993426" lon="13.702814404585988"><ele>260.5</ele><time>2026-04-19T10:32:12Z</time></trkpt><trkpt lat="42.66373924079367" lon="13.702997355225566"><ele>267.0</ele><time>2026-04-19T10:32:13Z</time></trkpt><trkpt lat="42.663764877566486" lon="13.703187675419256"><ele>273.5</ele><time>2026-04-19T10:32:14Z</time></trkpt><trkpt lat="42.66378173754536" lon="13.70338055770356"><ele>280.0</ele><time>2026-04-19T10:32:15Z</time></trkpt><trkpt lat="42.66378984943497" lon="13.703574522680544"><ele>281.75</ele><time>2026-04-19T10:32:16Z</time></trkpt><trkpt lat="42.66378383935606" lon="13.703767731354334"><ele>283.5</ele><time>2026-04-19T10:32:17Z</time></trkpt><trkpt lat="42.66375808848355" lon="13.703958675846637"><ele>285.25</ele><time>2026-04-19T10:32:18Z</time></trkpt><trkpt lat="42.663717104275776" lon="13.704149680530053"><ele>287.0</ele><time>2026-04-19T10:32:19Z</time></trkpt><trkpt lat="42.663669373542206" lon="13.704337592224528"><ele>290.0</ele><time>2026-04-19T10:32:20Z</time></trkpt><trkpt lat="42.66361480120187" lon="13.704525314999485"><ele>293.0</ele><time>2026-04-19T10:32:21Z</time></trkpt><trkpt lat="42.66355670305931" lon="13.704705423527686"><ele>296.0</ele><time>2026-04-19T10:32:22Z</time></trkpt><trkpt lat="42.66349381336603" lon="13.704879498826815"><ele>299.0</ele><time>2026-04-19T10:32:23Z</time></trkpt><trkpt lat="42.66342742619228" lon="13.70505534851966"><ele>291.75</ele><time>2026-04-19T10:32:24Z</time></trkpt><trkpt lat="42.663361656434496" lon="13.70522846575248"><ele>284.5</ele><time>2026-04-19T10:32:25Z</time></trkpt><trkpt lat="42.66330205954749" lon="13.705395621991087"><ele>277.25</ele><time>2026-04-19T10:32:26Z</time></trkpt><trkpt lat="42.66324497325226" lon="13.705554080346534"><ele>270.0</ele><time>2026-04-19T10:32:27Z</time></trkpt><trkpt lat="42.66318794057275" lon="13.705701433237106"><ele>270.0</ele><time>2026-04-19T10:32:28Z</time></trkpt><trkpt lat="42.66313449525766" lon="13.705844069917676"><ele>270.0</ele><time>2026-04-19T10:32:29Z</time></trkpt><trkpt lat="42.66308553233123" lon="13.705985834572617"><ele>270.0</ele><time>2026-04-19T10:32:30Z</time></trkpt><trkpt lat="42.66303607256567" lon="13.706125772040606"><ele>270.0</ele><time>2026-04-19T10:32:31Z</time></trkpt><trkpt lat="42.66298777485679" lon="13.70626601218452"><ele>271.75</ele><time>2026-04-19T10:32:32Z</time></trkpt><trkpt lat="42.66293921022871" lon="13.706412123349049"><ele>273.5</ele><time>2026-04-19T10:32:33Z</time></trkpt><trkpt lat="42.66289161636528" lon="13.706559460703918"><ele>275.25</ele><time>2026-04-19T10:32:34Z</time></trkpt><trkpt lat="42.662848124284054" lon="13.706707369512042"><ele>277.0</ele><time>2026-04-19T10:32:35Z</time></trkpt><trkpt lat="42.662811703966106" lon="13.706853502898"><ele>275.8</ele><time>2026-04-19T10:32:36Z</time></trkpt><trkpt lat="42.66278227074225" lon="13.707000400397954"><ele>274.6</ele><time>2026-04-19T10:32:37Z</time></trkpt><trkpt lat="42.66275348218682" lon="13.70714955807418"><ele>273.40000000000003</ele><time>2026-04-19T10:32:38Z</time></trkpt><trkpt lat="42.6627266989431" lon="13.707292078950077"><ele>272.2</ele><time>2026-04-19T10:32:39Z</time></trkpt><trkpt lat="42.66269994398697" lon="13.707429165888447"><ele>271.0</ele><time>2026-04-19T10:32:40Z</time></trkpt><trkpt lat="42.6626771821728" lon="13.707551514569285"><ele>269.2</ele><time>2026-04-19T10:32:41Z</time></trkpt><trkpt lat="42.66265161662601" lon="13.707679014148315"><ele>267.40000000000003</ele><time>2026-04-19T10:32:42Z</time></trkpt><trkpt lat="42.66262583130635" lon="13.707806248770499"><ele>265.6</ele><time>2026-04-19T10:32:43Z</time></trkpt><trkpt lat="42.66260000847745" lon="13.707937805214005"><ele>263.8</ele><time>2026-04-19T10:32:44Z</time></trkpt><trkpt lat="42.66257438035947" lon="13.708067395863518"><ele>262.0</ele><time>2026-04-19T10:32:45Z</time></trkpt><trkpt lat="42.662548501991786" lon="13.708192469660219"><ele>260.8</ele><time>2026-04-19T10:32:46Z</time></trkpt><trkpt lat="42.66252144915388" lon="13.708319631981409"><ele>259.6</ele><time>2026-04-19T10:32:47Z</time></trkpt><trkpt lat="42.66249741041853" lon="13.70844684923017"><ele>258.40000000000003</ele><time>2026-04-19T10:32:48Z</time></trkpt><trkpt lat="42.662476280869754" lon="13.708570197364823"><ele>257.2</ele><time>2026-04-19T10:32:49Z</time></trkpt><trkpt lat="42.66245579160474" lon="13.708685806765454"><ele>256.0</ele><time>2026-04-19T10:32:50Z</time></trkpt><trkpt lat="42.66243687351274" lon="13.708792413680534"><ele>255.7142857142857</ele><time>2026-04-19T10:32:51Z</time></trkpt><trkpt lat="42.662418319039396" lon="13.708887926075404"><ele>255.4285714285714</ele><time>2026-04-19T10:32:52Z</time></trkpt><trkpt lat="42.662403028561044" lon="13.70897349663092"><ele>255.14285714285714</ele><time>2026-04-19T10:32:53Z</time></trkpt><trkpt lat="42.66238149824127" lon="13.709074827733387"><ele>254.85714285714283</ele><time>2026-04-19T10:32:55Z</time></trkpt><trkpt lat="42.662353128856964" lon="13.70916746721562"><ele>254.57142857142856</ele><time>2026-04-19T10:32:58Z</time></trkpt><trkpt lat="42.662313870948736" lon="13.70923449172412"><ele>254.28571428571428</ele><time>2026-04-19T10:33:00Z</time></trkpt><trkpt lat="42.66225910916475" lon="13.709330544927985"><ele>254.0</ele><time>2026-04-19T10:33:02Z</time></trkpt><trkpt lat="42.66227102135393" lon="13.709488322801368"><ele>254.79999999999998</ele><time>2026-04-19T10:33:04Z</time></trkpt><trkpt lat="42.66228823286876" lon="13.709592743619158"><ele>255.59999999999997</ele><time>2026-04-19T10:33:05Z</time></trkpt><trkpt lat="42.66228922749467" lon="13.709726300821913"><ele>256.4</ele><time>2026-04-19T10:33:06Z</time></trkpt><trkpt lat="42.662277952026685" lon="13.709862687699633"><ele>257.2</ele><time>2026-04-19T10:33:07Z</time></trkpt><trkpt lat="42.66226581253372" lon="13.70999576106798"><ele>258.0</ele><time>2026-04-19T10:33:08Z</time></trkpt><trkpt lat="42.662255454227626" lon="13.710137590205116"><ele>258.4</ele><time>2026-04-19T10:33:09Z</time></trkpt><trkpt lat="42.6622456706269" lon="13.710281870351642"><ele>258.8</ele><time>2026-04-19T10:33:10Z</time></trkpt><trkpt lat="42.66223676141945" lon="13.71042695045769"><ele>259.2</ele><time>2026-04-19T10:33:11Z</time></trkpt><trkpt lat="42.66222773895452" lon="13.710569678764156"><ele>259.6</ele><time>2026-04-19T10:33:12Z</time></trkpt><trkpt lat="42.66222273291088" lon="13.710712395080893"><ele>260.0</ele><time>2026-04-19T10:33:13Z</time></trkpt><trkpt lat="42.662219257917904" lon="13.710857600307651"><ele>260.0</ele><time>2026-04-19T10:33:14Z</time></trkpt><trkpt lat="42.662218937122034" lon="13.711007487654637"><ele>260.0</ele><time>2026-04-19T10:33:15Z</time></trkpt><trkpt lat="42.66222345392522" lon="13.711157100069634"><ele>260.0</ele><time>2026-04-19T10:33:16Z</time></trkpt><trkpt lat="42.662231599925214" lon="13.71130283566674"><ele>260.0</ele><time>2026-04-19T10:33:17Z</time></trkpt><trkpt lat="42.66223920354762" lon="13.711433941447766"><ele>260.0</ele><time>2026-04-19T10:33:18Z</time></trkpt><trkpt lat="42.66224972787819" lon="13.711560471807578"><ele>259.83333333333337</ele><time>2026-04-19T10:33:19Z</time></trkpt><trkpt lat="42.66226776184808" lon="13.711689650518082"><ele>259.6666666666667</ele><time>2026-04-19T10:33:20Z</time></trkpt><trkpt lat="42.662289962102506" lon="13.71180956824172"><ele>259.5</ele><time>2026-04-19T10:33:21Z</time></trkpt><trkpt lat="42.6623223440858" lon="13.71192288351883"><ele>259.3333333333333</ele><time>2026-04-19T10:33:22Z</time></trkpt><trkpt lat="42.66235567816793" lon="13.712027524905087"><ele>259.16666666666663</ele><time>2026-04-19T10:33:23Z</time></trkpt><trkpt lat="42.66239108519236" lon="13.712126900496356"><ele>259.0</ele><time>2026-04-19T10:33:24Z</time></trkpt><trkpt lat="42.662424140728774" lon="13.712222452183264"><ele>258.8</ele><time>2026-04-19T10:33:25Z</time></trkpt><trkpt lat="42.66245436363886" lon="13.712304509513038"><ele>258.59999999999997</ele><time>2026-04-19T10:33:26Z</time></trkpt><trkpt lat="42.662489320242884" lon="13.712391561842887"><ele>258.4</ele><time>2026-04-19T10:33:27Z</time></trkpt><trkpt lat="42.662535151099306" lon="13.712523733269254"><ele>258.2</ele><time>2026-04-19T10:33:29Z</time></trkpt><trkpt lat="42.66255539008607" lon="13.712662015970752"><ele>258.0</ele><time>2026-04-19T10:33:31Z</time></trkpt><trkpt lat="42.662614502289834" lon="13.712777628725805"><ele>257.99999999999994</ele><time>2026-04-19T10:33:33Z</time></trkpt><trkpt lat="42.66266305332699" lon="13.712833900629894"><ele>258.0</ele><time>2026-04-19T10:33:34Z</time></trkpt><trkpt lat="42.662704206596736" lon="13.712911706601501"><ele>258.0</ele><time>2026-04-19T10:33:35Z</time></trkpt><trkpt lat="42.662739223188346" lon="13.712993096234229"><ele>258.0</ele><time>2026-04-19T10:33:36Z</time></trkpt><trkpt lat="42.66277341458185" lon="13.713083968289203"><ele>258.0</ele><time>2026-04-19T10:33:37Z</time></trkpt><trkpt lat="42.66281180490211" lon="13.713180375478045"><ele>257.99999999999994</ele><time>2026-04-19T10:33:38Z</time></trkpt><trkpt lat="42.66284789788315" lon="13.713270551483255"><ele>258.0</ele><time>2026-04-19T10:33:39Z</time></trkpt><trkpt lat="42.66288528300834" lon="13.713363155454555"><ele>258.3333333333333</ele><time>2026-04-19T10:33:40Z</time></trkpt><trkpt lat="42.662924004513" lon="13.713462443041124"><ele>258.6666666666667</ele><time>2026-04-19T10:33:41Z</time></trkpt><trkpt lat="42.662963644056255" lon="13.713563562353496"><ele>259.0</ele><time>2026-04-19T10:33:42Z</time></trkpt><trkpt lat="42.66300515142234" lon="13.713664236306776"><ele>259.33333333333337</ele><time>2026-04-19T10:33:43Z</time></trkpt><trkpt lat="42.66304354961668" lon="13.713758723517616"><ele>259.6666666666667</ele><time>2026-04-19T10:33:44Z</time></trkpt><trkpt lat="42.66308200489505" lon="13.71385611365648"><ele>260.0</ele><time>2026-04-19T10:33:45Z</time></trkpt><trkpt lat="42.66312099341599" lon="13.71395720280907"><ele>260.0</ele><time>2026-04-19T10:33:46Z</time></trkpt><trkpt lat="42.663157916542275" lon="13.714058958401434"><ele>260.0</ele><time>2026-04-19T10:33:47Z</time></trkpt><trkpt lat="42.66319588438734" lon="13.714163607297193"><ele>260.0</ele><time>2026-04-19T10:33:48Z</time></trkpt><trkpt lat="42.663233531504424" lon="13.714266903017016"><ele>260.0</ele><time>2026-04-19T10:33:49Z</time></trkpt><trkpt lat="42.66327477876794" lon="13.714374456128732"><ele>260.0</ele><time>2026-04-19T10:33:50Z</time></trkpt><trkpt lat="42.66331890321388" lon="13.714484747085018"><ele>260.0</ele><time>2026-04-19T10:33:51Z</time></trkpt><trkpt lat="42.663364345101435" lon="13.71459870474292"><ele>259.33333333333337</ele><time>2026-04-19T10:33:52Z</time></trkpt><trkpt lat="42.66340719860256" lon="13.71470441903951"><ele>258.6666666666667</ele><time>2026-04-19T10:33:53Z</time></trkpt><trkpt lat="42.663450740255804" lon="13.714805502169572"><ele>258.0</ele><time>2026-04-19T10:33:54Z</time></trkpt><trkpt lat="42.663493025256315" lon="13.714909309969215"><ele>257.3333333333333</ele><time>2026-04-19T10:33:55Z</time></trkpt><trkpt lat="42.663534776279555" lon="13.715015530730856"><ele>256.66666666666663</ele><time>2026-04-19T10:33:56Z</time></trkpt><trkpt lat="42.663578796238724" lon="13.715123221334617"><ele>256.0</ele><time>2026-04-19T10:33:57Z</time></trkpt><trkpt lat="42.663624343809886" lon="13.715232721675706"><ele>256.40000000000003</ele><time>2026-04-19T10:33:58Z</time></trkpt><trkpt lat="42.66366869450445" lon="13.715342325702444"><ele>256.8</ele><time>2026-04-19T10:33:59Z</time></trkpt><trkpt lat="42.66371054885625" lon="13.71545453713244"><ele>257.20000000000005</ele><time>2026-04-19T10:34:00Z</time></trkpt><trkpt lat="42.66375021069665" lon="13.715566505549498"><ele>257.6</ele><time>2026-04-19T10:34:01Z</time></trkpt><trkpt lat="42.66379364008174" lon="13.715681481336004"><ele>258.0</ele><time>2026-04-19T10:34:02Z</time></trkpt><trkpt lat="42.66383897151966" lon="13.715797688927461"><ele>258.0</ele><time>2026-04-19T10:34:03Z</time></trkpt><trkpt lat="42.66388429532814" lon="13.715917385606792"><ele>258.0</ele><time>2026-04-19T10:34:04Z</time></trkpt><trkpt lat="42.66393222732846" lon="13.716038780485173"><ele>258.0</ele><time>2026-04-19T10:34:05Z</time></trkpt><trkpt lat="42.663979232649574" lon="13.716159749889291"><ele>258.0</ele><time>2026-04-19T10:34:06Z</time></trkpt><trkpt lat="42.66402672008819" lon="13.716278057751277"><ele>258.0</ele><time>2026-04-19T10:34:07Z</time></trkpt><trkpt lat="42.66407726677019" lon="13.716395458957791"><ele>257.0</ele><time>2026-04-19T10:34:08Z</time></trkpt><trkpt lat="42.66412538910749" lon="13.716513904918312"><ele>256.0</ele><time>2026-04-19T10:34:09Z</time></trkpt><trkpt lat="42.66417394413822" lon="13.716639432676025"><ele>255.0</ele><time>2026-04-19T10:34:10Z</time></trkpt><trkpt lat="42.664219540781836" lon="13.716763938868155"><ele>254.0</ele><time>2026-04-19T10:34:11Z</time></trkpt><trkpt lat="42.664264437318494" lon="13.716878553827073"><ele>253.0</ele><time>2026-04-19T10:34:12Z</time></trkpt><trkpt lat="42.66431158603872" lon="13.716992012691655"><ele>252.4</ele><time>2026-04-19T10:34:13Z</time></trkpt><trkpt lat="42.664357569013596" lon="13.717107274160126"><ele>251.8</ele><time>2026-04-19T10:34:14Z</time></trkpt><trkpt lat="42.66440287653663" lon="13.71722443507105"><ele>251.2</ele><time>2026-04-19T10:34:15Z</time></trkpt><trkpt lat="42.66444865500207" lon="13.717348176610347"><ele>250.6</ele><time>2026-04-19T10:34:16Z</time></trkpt><trkpt lat="42.664500030700125" lon="13.717477784143455"><ele>250.0</ele><time>2026-04-19T10:34:17Z</time></trkpt><trkpt lat="42.664551976579425" lon="13.717609742795506"><ele>251.0</ele><time>2026-04-19T10:34:18Z</time></trkpt><trkpt lat="42.664606278157585" lon="13.717748330193595"><ele>252.0</ele><time>2026-04-19T10:34:19Z</time></trkpt><trkpt lat="42.66466119332141" lon="13.717889312562116"><ele>253.0</ele><time>2026-04-19T10:34:20Z</time></trkpt><trkpt lat="42.66471735274091" lon="13.718033016924924"><ele>254.0</ele><time>2026-04-19T10:34:21Z</time></trkpt><trkpt lat="42.66477170998867" lon="13.718171473746885"><ele>254.0</ele><time>2026-04-19T10:34:22Z</time></trkpt><trkpt lat="42.66482640591867" lon="13.718313617399756"><ele>254.0</ele><time>2026-04-19T10:34:23Z</time></trkpt><trkpt lat="42.66488124990396" lon="13.718457481842327"><ele>254.0</ele><time>2026-04-19T10:34:24Z</time></trkpt><trkpt lat="42.66493626134736" lon="13.718602721070118"><ele>254.0</ele><time>2026-04-19T10:34:25Z</time></trkpt><trkpt lat="42.66499189178018" lon="13.718746160453616"><ele>252.5</ele><time>2026-04-19T10:34:26Z</time></trkpt><trkpt lat="42.66504697371352" lon="13.718891469942646"><ele>251.0</ele><time>2026-04-19T10:34:27Z</time></trkpt><trkpt lat="42.66510076717164" lon="13.719034749999867"><ele>249.5</ele><time>2026-04-19T10:34:28Z</time></trkpt><trkpt lat="42.665153298777795" lon="13.719177747409203"><ele>248.0</ele><time>2026-04-19T10:34:29Z</time></trkpt><trkpt lat="42.665207590770756" lon="13.719319516882031"><ele>247.0</ele><time>2026-04-19T10:34:30Z</time></trkpt><trkpt lat="42.665262855498966" lon="13.719460815167402"><ele>246.0</ele><time>2026-04-19T10:34:31Z</time></trkpt><trkpt lat="42.66531521356906" lon="13.719593281984249"><ele>245.0</ele><time>2026-04-19T10:34:32Z</time></trkpt><trkpt lat="42.66536229979646" lon="13.719719656194151"><ele>244.0</ele><time>2026-04-19T10:34:33Z</time></trkpt><trkpt lat="42.665409669458214" lon="13.719843031073442"><ele>243.0</ele><time>2026-04-19T10:34:34Z</time></trkpt><trkpt lat="42.66545833661844" lon="13.719962345360726"><ele>243.66666666666666</ele><time>2026-04-19T10:34:35Z</time></trkpt><trkpt lat="42.665505424224214" lon="13.720070979557912"><ele>244.33333333333331</ele><time>2026-04-19T10:34:36Z</time></trkpt><trkpt lat="42.66555038496785" lon="13.720170362328096"><ele>245.0</ele><time>2026-04-19T10:34:37Z</time></trkpt><trkpt lat="42.665595382957385" lon="13.720267854534912"><ele>245.66666666666666</ele><time>2026-04-19T10:34:38Z</time></trkpt><trkpt lat="42.66564556842446" lon="13.720370386272107"><ele>246.33333333333331</ele><time>2026-04-19T10:34:39Z</time></trkpt><trkpt lat="42.66569662197173" lon="13.720471838950516"><ele>247.0</ele><time>2026-04-19T10:34:40Z</time></trkpt><trkpt lat="42.66573923527675" lon="13.720578891380717"><ele>247.0</ele><time>2026-04-19T10:34:41Z</time></trkpt><trkpt lat="42.66576481941172" lon="13.720697468213666"><ele>247.0</ele><time>2026-04-19T10:34:42Z</time></trkpt><trkpt lat="42.6657900964695" lon="13.72082092891638"><ele>247.0</ele><time>2026-04-19T10:34:43Z</time></trkpt><trkpt lat="42.665829743215134" lon="13.720948715034478"><ele>247.0</ele><time>2026-04-19T10:34:44Z</time></trkpt><trkpt lat="42.665883113720106" lon="13.72107680478128"><ele>247.0</ele><time>2026-04-19T10:34:45Z</time></trkpt><trkpt lat="42.665936158893714" lon="13.721197980297239"><ele>247.6</ele><time>2026-04-19T10:34:46Z</time></trkpt><trkpt lat="42.665992406857384" lon="13.72133132471977"><ele>248.2</ele><time>2026-04-19T10:34:47Z</time></trkpt><trkpt lat="42.6660470342725" lon="13.721464452801557"><ele>248.8</ele><time>2026-04-19T10:34:48Z</time></trkpt><trkpt lat="42.66609789601183" lon="13.721592766620349"><ele>249.4</ele><time>2026-04-19T10:34:49Z</time></trkpt><trkpt lat="42.66614151615053" lon="13.721715189476313"><ele>250.0</ele><time>2026-04-19T10:34:50Z</time></trkpt><trkpt lat="42.666175170876265" lon="13.721833685372227"><ele>249.2</ele><time>2026-04-19T10:34:51Z</time></trkpt><trkpt lat="42.66620619370886" lon="13.721949730538993"><ele>248.4</ele><time>2026-04-19T10:34:52Z</time></trkpt><trkpt lat="42.666252498634364" lon="13.722074306660494"><ele>247.60000000000002</ele><time>2026-04-19T10:34:53Z</time></trkpt><trkpt lat="42.66631396112777" lon="13.722221137095053"><ele>246.8</ele><time>2026-04-19T10:34:54Z</time></trkpt><trkpt lat="42.6663674197642" lon="13.722352088655564"><ele>246.0</ele><time>2026-04-19T10:34:55Z</time></trkpt><trkpt lat="42.6664190348503" lon="13.722471510537742"><ele>246.0</ele><time>2026-04-19T10:34:56Z</time></trkpt><trkpt lat="42.66647118216185" lon="13.722590912834615"><ele>246.00000000000003</ele><time>2026-04-19T10:34:57Z</time></trkpt><trkpt lat="42.666522930535706" lon="13.722707095280564"><ele>246.00000000000003</ele><time>2026-04-19T10:34:58Z</time></trkpt><trkpt lat="42.66656714129155" lon="13.72282148039657"><ele>246.0</ele><time>2026-04-19T10:34:59Z</time></trkpt><trkpt lat="42.66661453981205" lon="13.722946199630686"><ele>246.0</ele><time>2026-04-19T10:35:00Z</time></trkpt><trkpt lat="42.666662300056046" lon="13.723069540178331"><ele>245.20000000000002</ele><time>2026-04-19T10:35:01Z</time></trkpt><trkpt lat="42.66671163133374" lon="13.723191935190608"><ele>244.40000000000003</ele><time>2026-04-19T10:35:02Z</time></trkpt><trkpt lat="42.66676092619812" lon="13.7233168255921"><ele>243.6</ele><time>2026-04-19T10:35:03Z</time></trkpt><trkpt lat="42.666809832099176" lon="13.723441405572036"><ele>242.8</ele><time>2026-04-19T10:35:04Z</time></trkpt><trkpt lat="42.66685699821419" lon="13.72356288999246"><ele>242.0</ele><time>2026-04-19T10:35:05Z</time></trkpt><trkpt lat="42.66690428096439" lon="13.723686981215366"><ele>243.0</ele><time>2026-04-19T10:35:06Z</time></trkpt><trkpt lat="42.66695236844962" lon="13.723813116881711"><ele>244.0</ele><time>2026-04-19T10:35:07Z</time></trkpt><trkpt lat="42.667000886102734" lon="13.723941419553011"><ele>245.0</ele><time>2026-04-19T10:35:08Z</time></trkpt><trkpt lat="42.66704988172084" lon="13.724071065689344"><ele>246.0</ele><time>2026-04-19T10:35:09Z</time></trkpt><trkpt lat="42.66709992380347" lon="13.724199798790197"><ele>247.0</ele><time>2026-04-19T10:35:10Z</time></trkpt><trkpt lat="42.667152301872115" lon="13.724330835073165"><ele>244.75</ele><time>2026-04-19T10:35:11Z</time></trkpt><trkpt lat="42.6672059872638" lon="13.724463377768531"><ele>242.5</ele><time>2026-04-19T10:35:12Z</time></trkpt><trkpt lat="42.66726259234603" lon="13.724602601429014"><ele>240.25</ele><time>2026-04-19T10:35:13Z</time></trkpt><trkpt lat="42.66731766397034" lon="13.72474587711203"><ele>238.0</ele><time>2026-04-19T10:35:14Z</time></trkpt><trkpt lat="42.66737541329309" lon="13.724892430222226"><ele>238.0</ele><time>2026-04-19T10:35:15Z</time></trkpt><trkpt lat="42.66743329102668" lon="13.725038807185106"><ele>238.0</ele><time>2026-04-19T10:35:16Z</time></trkpt><trkpt lat="42.66749054820394" lon="13.725190004515538"><ele>238.0</ele><time>2026-04-19T10:35:17Z</time></trkpt><trkpt lat="42.667547940716005" lon="13.725345045513508"><ele>238.0</ele><time>2026-04-19T10:35:18Z</time></trkpt><trkpt lat="42.66760791473444" lon="13.7255032351298"><ele>237.0</ele><time>2026-04-19T10:35:19Z</time></trkpt><trkpt lat="42.66766698072239" lon="13.725657692070989"><ele>236.0</ele><time>2026-04-19T10:35:20Z</time></trkpt><trkpt lat="42.667727855317516" lon="13.725815194054237"><ele>235.0</ele><time>2026-04-19T10:35:21Z</time></trkpt><trkpt lat="42.667788840310926" lon="13.725975302773653"><ele>234.0</ele><time>2026-04-19T10:35:22Z</time></trkpt><trkpt lat="42.66785096293715" lon="13.72613568333015"><ele>231.5</ele><time>2026-04-19T10:35:23Z</time></trkpt><trkpt lat="42.66791370840497" lon="13.726295180721209"><ele>229.0</ele><time>2026-04-19T10:35:24Z</time></trkpt><trkpt lat="42.667976661534816" lon="13.726456345590961"><ele>226.5</ele><time>2026-04-19T10:35:25Z</time></trkpt><trkpt lat="42.66804011439923" lon="13.726618556120954"><ele>224.0</ele><time>2026-04-19T10:35:26Z</time></trkpt><trkpt lat="42.668103047238624" lon="13.726778765700207"><ele>223.75</ele><time>2026-04-19T10:35:27Z</time></trkpt><trkpt lat="42.668165330607344" lon="13.726941315011945"><ele>223.5</ele><time>2026-04-19T10:35:28Z</time></trkpt><trkpt lat="42.66822718506499" lon="13.727102167229704"><ele>223.25</ele><time>2026-04-19T10:35:29Z</time></trkpt><trkpt lat="42.66829009475155" lon="13.727261923582187"><ele>223.0</ele><time>2026-04-19T10:35:30Z</time></trkpt><trkpt lat="42.66835301056143" lon="13.727425924794112"><ele>223.0</ele><time>2026-04-19T10:35:31Z</time></trkpt><trkpt lat="42.668418494102454" lon="13.72759426245347"><ele>223.0</ele><time>2026-04-19T10:35:32Z</time></trkpt><trkpt lat="42.668486408030375" lon="13.727769079517525"><ele>223.0</ele><time>2026-04-19T10:35:33Z</time></trkpt><trkpt lat="42.66855617036698" lon="13.727947589194338"><ele>223.0</ele><time>2026-04-19T10:35:34Z</time></trkpt><trkpt lat="42.66862567014373" lon="13.728125524011555"><ele>223.5</ele><time>2026-04-19T10:35:35Z</time></trkpt><trkpt lat="42.668694303801644" lon="13.728302650622537"><ele>224.0</ele><time>2026-04-19T10:35:36Z</time></trkpt><trkpt lat="42.66876278252541" lon="13.728478152981728"><ele>224.5</ele><time>2026-04-19T10:35:37Z</time></trkpt><trkpt lat="42.66883236303307" lon="13.728653340245712"><ele>225.0</ele><time>2026-04-19T10:35:38Z</time></trkpt><trkpt lat="42.66889831973411" lon="13.728822793367645"><ele>225.0</ele><time>2026-04-19T10:35:39Z</time></trkpt><trkpt lat="42.668964379221926" lon="13.728989863438654"><ele>225.0</ele><time>2026-04-19T10:35:40Z</time></trkpt><trkpt lat="42.669030604573095" lon="13.729148827787945"><ele>225.0</ele><time>2026-04-19T10:35:41Z</time></trkpt><trkpt lat="42.66909546851656" lon="13.729300380270448"><ele>225.0</ele><time>2026-04-19T10:35:42Z</time></trkpt><trkpt lat="42.6691606985876" lon="13.729445585143937"><ele>224.6</ele><time>2026-04-19T10:35:43Z</time></trkpt><trkpt lat="42.6692273923749" lon="13.729575211902937"><ele>224.2</ele><time>2026-04-19T10:35:44Z</time></trkpt><trkpt lat="42.66928966917966" lon="13.729686342517985"><ele>223.8</ele><time>2026-04-19T10:35:45Z</time></trkpt><trkpt lat="42.66934598595502" lon="13.72978293303184"><ele>223.4</ele><time>2026-04-19T10:35:46Z</time></trkpt><trkpt lat="42.66939372166165" lon="13.729861602228905"><ele>223.0</ele><time>2026-04-19T10:35:47Z</time></trkpt><trkpt lat="42.66943982908248" lon="13.729932585526734"><ele>226.8</ele><time>2026-04-19T10:35:48Z</time></trkpt><trkpt lat="42.66951556546627" lon="13.73006620672283"><ele>230.60000000000002</ele><time>2026-04-19T10:35:50Z</time></trkpt><trkpt lat="42.669574867343165" lon="13.730152938012054"><ele>234.39999999999998</ele><time>2026-04-19T10:35:52Z</time></trkpt><trkpt lat="42.669642432245205" lon="13.730153841049423"><ele>238.2</ele><time>2026-04-19T10:35:54Z</time></trkpt><trkpt lat="42.66969546373398" lon="13.730077461700038"><ele>242.0</ele><time>2026-04-19T10:35:56Z</time></trkpt><trkpt lat="42.66967583637677" lon="13.729928611079949"><ele>242.00000000000003</ele><time>2026-04-19T10:35:58Z</time></trkpt><trkpt lat="42.66965017770952" lon="13.72982812726042"><ele>242.0</ele><time>2026-04-19T10:35:59Z</time></trkpt><trkpt lat="42.66963867027866" lon="13.729743596891185"><ele>242.0</ele><time>2026-04-19T10:36:00Z</time></trkpt><trkpt lat="42.669699181249726" lon="13.729649096010197"><ele>242.0</ele><time>2026-04-19T10:36:02Z</time></trkpt><trkpt lat="42.66978443112993" lon="13.729722935457339"><ele>242.00000000000003</ele><time>2026-04-19T10:36:04Z</time></trkpt><trkpt lat="42.66979331641855" lon="13.729814315518283"><ele>242.0</ele><time>2026-04-19T10:36:05Z</time></trkpt><trkpt lat="42.66978575522231" lon="13.729918395478816"><ele>242.0</ele><time>2026-04-19T10:36:06Z</time></trkpt><trkpt lat="42.669781603145154" lon="13.730025783041976"><ele>242.0</ele><time>2026-04-19T10:36:07Z</time></trkpt><trkpt lat="42.669793977418266" lon="13.73014351804841"><ele>242.0</ele><time>2026-04-19T10:36:08Z</time></trkpt><trkpt lat="42.66981977169002" lon="13.73026562834418"><ele>242.0</ele><time>2026-04-19T10:36:09Z</time></trkpt><trkpt lat="42.669871579296085" lon="13.730386931607079"><ele>242.0</ele><time>2026-04-19T10:36:10Z</time></trkpt><trkpt lat="42.66994202553301" lon="13.730509404017463"><ele>240.25</ele><time>2026-04-19T10:36:11Z</time></trkpt><trkpt lat="42.67002413647271" lon="13.730620689994742"><ele>238.5</ele><time>2026-04-19T10:36:12Z</time></trkpt><trkpt lat="42.670115910557215" lon="13.730724486554225"><ele>236.75</ele><time>2026-04-19T10:36:13Z</time></trkpt><trkpt lat="42.67021124919053" lon="13.730827735876188"><ele>235.0</ele><time>2026-04-19T10:36:14Z</time></trkpt><trkpt lat="42.67031192401618" lon="13.73093226934134"><ele>236.0</ele><time>2026-04-19T10:36:15Z</time></trkpt><trkpt lat="42.67041880364422" lon="13.731046778864306"><ele>237.0</ele><time>2026-04-19T10:36:16Z</time></trkpt><trkpt lat="42.6705269174097" lon="13.731163193502134"><ele>238.0</ele><time>2026-04-19T10:36:17Z</time></trkpt><trkpt lat="42.670633935779485" lon="13.731291504720629"><ele>239.0</ele><time>2026-04-19T10:36:18Z</time></trkpt><trkpt lat="42.670739083264785" lon="13.731421753558584"><ele>239.0</ele><time>2026-04-19T10:36:19Z</time></trkpt><trkpt lat="42.670844294821755" lon="13.731555298752395"><ele>239.0</ele><time>2026-04-19T10:36:20Z</time></trkpt><trkpt lat="42.67093965765882" lon="13.73169756513287"><ele>239.0</ele><time>2026-04-19T10:36:21Z</time></trkpt><trkpt lat="42.671035857620176" lon="13.731835386122038"><ele>239.0</ele><time>2026-04-19T10:36:22Z</time></trkpt><trkpt lat="42.67112839406193" lon="13.731971248959518"><ele>240.0</ele><time>2026-04-19T10:36:23Z</time></trkpt><trkpt lat="42.67123762368006" lon="13.732074916565963"><ele>241.0</ele><time>2026-04-19T10:36:24Z</time></trkpt><trkpt lat="42.6713521161046" lon="13.73216767613459"><ele>242.0</ele><time>2026-04-19T10:36:25Z</time></trkpt><trkpt lat="42.67146653847529" lon="13.732254876088666"><ele>243.0</ele><time>2026-04-19T10:36:26Z</time></trkpt><trkpt lat="42.67157067174886" lon="13.732335562344902"><ele>243.0</ele><time>2026-04-19T10:36:27Z</time></trkpt><trkpt lat="42.671667720359544" lon="13.732420735137966"><ele>243.0</ele><time>2026-04-19T10:36:28Z</time></trkpt><trkpt lat="42.67175353062383" lon="13.732501479983885"><ele>243.0</ele><time>2026-04-19T10:36:29Z</time></trkpt><trkpt lat="42.67184638754473" lon="13.73251197597506"><ele>243.0</ele><time>2026-04-19T10:36:30Z</time></trkpt><trkpt lat="42.671946255128695" lon="13.732548512168567"><ele>243.0</ele><time>2026-04-19T10:36:31Z</time></trkpt><trkpt lat="42.672035549026695" lon="13.732678594269856"><ele>247.0</ele><time>2026-04-19T10:36:32Z</time></trkpt><trkpt lat="42.67207038895397" lon="13.732857705114887"><ele>251.0</ele><time>2026-04-19T10:36:33Z</time></trkpt><trkpt lat="42.67213337508268" lon="13.733017184311434"><ele>255.0</ele><time>2026-04-19T10:36:34Z</time></trkpt><trkpt lat="42.67218906710777" lon="13.733179204195928"><ele>259.0</ele><time>2026-04-19T10:36:35Z</time></trkpt><trkpt lat="42.67224182549778" lon="13.733344762820485"><ele>259.0</ele><time>2026-04-19T10:36:36Z</time></trkpt><trkpt lat="42.67230646197202" lon="13.733509247941551"><ele>259.0</ele><time>2026-04-19T10:36:37Z</time></trkpt><trkpt lat="42.67238989597347" lon="13.733684284253734"><ele>259.0</ele><time>2026-04-19T10:36:38Z</time></trkpt><trkpt lat="42.672482788398405" lon="13.733851730674175"><ele>259.0</ele><time>2026-04-19T10:36:39Z</time></trkpt><trkpt lat="42.67258748352516" lon="13.734007415866504"><ele>259.66666666666663</ele><time>2026-04-19T10:36:40Z</time></trkpt><trkpt lat="42.67270809999774" lon="13.734154399228421"><ele>260.3333333333333</ele><time>2026-04-19T10:36:41Z</time></trkpt><trkpt lat="42.67283303418744" lon="13.734285777504093"><ele>261.0</ele><time>2026-04-19T10:36:42Z</time></trkpt><trkpt lat="42.672960053287696" lon="13.734406026734336"><ele>257.0</ele><time>2026-04-19T10:36:43Z</time></trkpt><trkpt lat="42.67307046506682" lon="13.734511416358806"><ele>253.0</ele><time>2026-04-19T10:36:44Z</time></trkpt><trkpt lat="42.673168075477676" lon="13.734609114363591"><ele>249.0</ele><time>2026-04-19T10:36:45Z</time></trkpt><trkpt lat="42.673252222102946" lon="13.734687776235518"><ele>245.0</ele><time>2026-04-19T10:36:46Z</time></trkpt><trkpt lat="42.673333448936226" lon="13.73474856040599"><ele>245.00000000000003</ele><time>2026-04-19T10:36:47Z</time></trkpt><trkpt lat="42.67341487403362" lon="13.734761700922268"><ele>245.0</ele><time>2026-04-19T10:36:48Z</time></trkpt><trkpt lat="42.67349567524535" lon="13.734731561475085"><ele>245.0</ele><time>2026-04-19T10:36:49Z</time></trkpt><trkpt lat="42.67355840323008" lon="13.734651319935477"><ele>245.0</ele><time>2026-04-19T10:36:50Z</time></trkpt><trkpt lat="42.67357972358383" lon="13.734532155180865"><ele>245.00000000000003</ele><time>2026-04-19T10:36:51Z</time></trkpt><trkpt lat="42.673563812252" lon="13.734398497825003"><ele>245.0</ele><time>2026-04-19T10:36:52Z</time></trkpt><trkpt lat="42.67351070067773" lon="13.734247824149675"><ele>250.33333333333334</ele><time>2026-04-19T10:36:53Z</time></trkpt><trkpt lat="42.6734850656125" lon="13.734074735634676"><ele>255.66666666666669</ele><time>2026-04-19T10:36:54Z</time></trkpt><trkpt lat="42.67347114399544" lon="13.733827488160262"><ele>261.0</ele><time>2026-04-19T10:36:55Z</time></trkpt><trkpt lat="42.67346695301643" lon="13.733507937500413"><ele>266.0</ele><time>2026-04-19T10:36:56Z</time></trkpt><trkpt lat="42.67349219290435" lon="13.733156634041022"><ele>271.0</ele><time>2026-04-19T10:36:57Z</time></trkpt><trkpt lat="42.67354707007988" lon="13.732881586061131"><ele>272.0</ele><time>2026-04-19T10:36:58Z</time></trkpt><trkpt lat="42.67360924730976" lon="13.732640467187526"><ele>273.0</ele><time>2026-04-19T10:36:59Z</time></trkpt><trkpt lat="42.67364692683947" lon="13.732432468635805"><ele>274.0</ele><time>2026-04-19T10:37:00Z</time></trkpt><trkpt lat="42.6736965918547" lon="13.732264471021992"><ele>274.0</ele><time>2026-04-19T10:37:01Z</time></trkpt><trkpt lat="42.67376874111626" lon="13.732133922598532"><ele>274.0</ele><time>2026-04-19T10:37:02Z</time></trkpt><trkpt lat="42.67383602210134" lon="13.732015390324957"><ele>274.0</ele><time>2026-04-19T10:37:03Z</time></trkpt><trkpt lat="42.67395451783367" lon="13.731967121520768"><ele>274.0</ele><time>2026-04-19T10:37:04Z</time></trkpt><trkpt lat="42.67408098041582" lon="13.731990425643392"><ele>274.0</ele><time>2026-04-19T10:37:05Z</time></trkpt><trkpt lat="42.67420670555733" lon="13.732144883934241"><ele>274.0</ele><time>2026-04-19T10:37:06Z</time></trkpt><trkpt lat="42.674325171501735" lon="13.732304508316629"><ele>274.0</ele><time>2026-04-19T10:37:07Z</time></trkpt><trkpt lat="42.674418425077654" lon="13.732417815725828"><ele>273.75</ele><time>2026-04-19T10:37:08Z</time></trkpt><trkpt lat="42.67453655587472" lon="13.732475603714661"><ele>273.5</ele><time>2026-04-19T10:37:09Z</time></trkpt><trkpt lat="42.67467103814178" lon="13.732459084703127"><ele>273.25</ele><time>2026-04-19T10:37:10Z</time></trkpt><trkpt lat="42.67478502437737" lon="13.732378346775489"><ele>273.0</ele><time>2026-04-19T10:37:11Z</time></trkpt><trkpt lat="42.67487381228205" lon="13.73226604364906"><ele>273.0</ele><time>2026-04-19T10:37:12Z</time></trkpt><trkpt lat="42.674913953298756" lon="13.732117108241777"><ele>273.0</ele><time>2026-04-19T10:37:13Z</time></trkpt><trkpt lat="42.67490610320948" lon="13.731947249410071"><ele>273.0</ele><time>2026-04-19T10:37:14Z</time></trkpt><trkpt lat="42.67485648771819" lon="13.731732526160442"><ele>273.0</ele><time>2026-04-19T10:37:15Z</time></trkpt><trkpt lat="42.67477389736984" lon="13.731494354522585"><ele>278.0</ele><time>2026-04-19T10:37:16Z</time></trkpt><trkpt lat="42.67466573662551" lon="13.731216110681453"><ele>283.0</ele><time>2026-04-19T10:37:17Z</time></trkpt><trkpt lat="42.674550264521095" lon="13.730866033910393"><ele>285.5</ele><time>2026-04-19T10:37:18Z</time></trkpt><trkpt lat="42.67444778237974" lon="13.730461843180036"><ele>288.0</ele><time>2026-04-19T10:37:19Z</time></trkpt><trkpt lat="42.67434661754054" lon="13.730036436741546"><ele>288.0</ele><time>2026-04-19T10:37:20Z</time></trkpt><trkpt lat="42.67425222292458" lon="13.729626898581925"><ele>288.0</ele><time>2026-04-19T10:37:21Z</time></trkpt><trkpt lat="42.67413512851166" lon="13.729261563958174"><ele>290.6666666666667</ele><time>2026-04-19T10:37:22Z</time></trkpt><trkpt lat="42.67400892688612" lon="13.728976383813118"><ele>293.33333333333337</ele><time>2026-04-19T10:37:23Z</time></trkpt><trkpt lat="42.67390459387952" lon="13.72873999340836"><ele>296.0</ele><time>2026-04-19T10:37:24Z</time></trkpt><trkpt lat="42.673804239634876" lon="13.728552842119788"><ele>297.40000000000003</ele><time>2026-04-19T10:37:25Z</time></trkpt><trkpt lat="42.67374346916483" lon="13.728397827963166"><ele>298.8</ele><time>2026-04-19T10:37:26Z</time></trkpt><trkpt lat="42.67370904549241" lon="13.728267969876764"><ele>300.20000000000005</ele><time>2026-04-19T10:37:27Z</time></trkpt><trkpt lat="42.673685104732" lon="13.72814008868781"><ele>301.6</ele><time>2026-04-19T10:37:28Z</time></trkpt><trkpt lat="42.67373980529478" lon="13.728009273771237"><ele>303.0</ele><time>2026-04-19T10:37:29Z</time></trkpt><trkpt lat="42.67378274037632" lon="13.72789651233598"><ele>303.0</ele><time>2026-04-19T10:37:30Z</time></trkpt><trkpt lat="42.67388534589129" lon="13.727840971077844"><ele>303.0</ele><time>2026-04-19T10:37:31Z</time></trkpt><trkpt lat="42.67400176615124" lon="13.727847290390004"><ele>303.0</ele><time>2026-04-19T10:37:32Z</time></trkpt><trkpt lat="42.67411885702018" lon="13.727900830337168"><ele>303.0</ele><time>2026-04-19T10:37:33Z</time></trkpt><trkpt lat="42.67423020305702" lon="13.727992868996717"><ele>303.0</ele><time>2026-04-19T10:37:34Z</time></trkpt><trkpt lat="42.674345068955844" lon="13.728098840129386"><ele>303.0</ele><time>2026-04-19T10:37:35Z</time></trkpt><trkpt lat="42.67446048119509" lon="13.728207328853628"><ele>303.0</ele><time>2026-04-19T10:37:36Z</time></trkpt><trkpt lat="42.67458099429431" lon="13.728314163057286"><ele>303.0</ele><time>2026-04-19T10:37:37Z</time></trkpt><trkpt lat="42.67469717824166" lon="13.72840777083335"><ele>302.75</ele><time>2026-04-19T10:37:38Z</time></trkpt><trkpt lat="42.67481623994304" lon="13.728500475559684"><ele>302.5</ele><time>2026-04-19T10:37:39Z</time></trkpt><trkpt lat="42.67492718958319" lon="13.728584836388203"><ele>302.25</ele><time>2026-04-19T10:37:40Z</time></trkpt><trkpt lat="42.67502046955276" lon="13.728660742278768"><ele>302.0</ele><time>2026-04-19T10:37:41Z</time></trkpt><trkpt lat="42.675109031234385" lon="13.728732599560859"><ele>302.0</ele><time>2026-04-19T10:37:42Z</time></trkpt><trkpt lat="42.67519938929483" lon="13.728799725788656"><ele>302.0</ele><time>2026-04-19T10:37:43Z</time></trkpt><trkpt lat="42.67529319330602" lon="13.7288600465882"><ele>302.0</ele><time>2026-04-19T10:37:44Z</time></trkpt><trkpt lat="42.67538509944673" lon="13.728915620599913"><ele>302.0</ele><time>2026-04-19T10:37:45Z</time></trkpt><trkpt lat="42.675474505902855" lon="13.72897241795199"><ele>302.0</ele><time>2026-04-19T10:37:46Z</time></trkpt><trkpt lat="42.67556604715825" lon="13.729037898462702"><ele>304.4</ele><time>2026-04-19T10:37:47Z</time></trkpt><trkpt lat="42.67565799606179" lon="13.729105754603363"><ele>306.79999999999995</ele><time>2026-04-19T10:37:48Z</time></trkpt><trkpt lat="42.675747966539184" lon="13.729173523987175"><ele>309.2</ele><time>2026-04-19T10:37:49Z</time></trkpt><trkpt lat="42.675837586414616" lon="13.729237741269737"><ele>311.59999999999997</ele><time>2026-04-19T10:37:50Z</time></trkpt><trkpt lat="42.675924258826875" lon="13.72929251257633"><ele>314.0</ele><time>2026-04-19T10:37:51Z</time></trkpt><trkpt lat="42.67600739915328" lon="13.729343092349147"><ele>314.33333333333337</ele><time>2026-04-19T10:37:52Z</time></trkpt><trkpt lat="42.676085086068916" lon="13.729392513170884"><ele>314.6666666666667</ele><time>2026-04-19T10:37:53Z</time></trkpt><trkpt lat="42.676159108783864" lon="13.729450748129787"><ele>315.0</ele><time>2026-04-19T10:37:54Z</time></trkpt><trkpt lat="42.67622762904372" lon="13.729519955967223"><ele>315.3333333333333</ele><time>2026-04-19T10:37:55Z</time></trkpt><trkpt lat="42.676288796483185" lon="13.72959450557085"><ele>315.66666666666663</ele><time>2026-04-19T10:37:56Z</time></trkpt><trkpt lat="42.67634844122836" lon="13.729665544164325"><ele>316.0</ele><time>2026-04-19T10:37:57Z</time></trkpt><trkpt lat="42.67640395099193" lon="13.72973476474992"><ele>316.0</ele><time>2026-04-19T10:37:58Z</time></trkpt><trkpt lat="42.67646602721538" lon="13.729810845337967"><ele>316.0</ele><time>2026-04-19T10:37:59Z</time></trkpt><trkpt lat="42.67652697055058" lon="13.729881805561273"><ele>316.0</ele><time>2026-04-19T10:38:00Z</time></trkpt><trkpt lat="42.676582116355476" lon="13.729956116536249"><ele>316.0</ele><time>2026-04-19T10:38:01Z</time></trkpt><trkpt lat="42.67663284829904" lon="13.730029439139553"><ele>316.0</ele><time>2026-04-19T10:38:02Z</time></trkpt><trkpt lat="42.676681868371915" lon="13.730102727348559"><ele>316.0</ele><time>2026-04-19T10:38:03Z</time></trkpt><trkpt lat="42.67673146612694" lon="13.730174876425368"><ele>316.16666666666663</ele><time>2026-04-19T10:38:04Z</time></trkpt><trkpt lat="42.67678041589782" lon="13.73024816583238"><ele>316.3333333333333</ele><time>2026-04-19T10:38:05Z</time></trkpt><trkpt lat="42.67682531910286" lon="13.730321140240974"><ele>316.5</ele><time>2026-04-19T10:38:06Z</time></trkpt><trkpt lat="42.67686492819786" lon="13.73039375974103"><ele>316.6666666666667</ele><time>2026-04-19T10:38:07Z</time></trkpt><trkpt lat="42.676903915558384" lon="13.730466505081653"><ele>316.83333333333337</ele><time>2026-04-19T10:38:08Z</time></trkpt><trkpt lat="42.67694176536609" lon="13.73053629835653"><ele>317.0</ele><time>2026-04-19T10:38:09Z</time></trkpt><trkpt lat="42.67698991649084" lon="13.730674215145683"><ele>317.0</ele><time>2026-04-19T10:38:11Z</time></trkpt><trkpt lat="42.677030167713696" lon="13.730748712615544"><ele>317.0</ele><time>2026-04-19T10:38:13Z</time></trkpt><trkpt lat="42.67703799455741" lon="13.730652078200558"><ele>317.0</ele><time>2026-04-19T10:48:31.999Z</time></trkpt><trkpt lat="42.67698567569852" lon="13.730529793383743"><ele>317.0</ele><time>2026-04-19T10:48:33.999Z</time></trkpt><trkpt lat="42.676933635488595" lon="13.730463344690552"><ele>317.0</ele><time>2026-04-19T10:48:34.999Z</time></trkpt><trkpt lat="42.67687967890006" lon="13.730385492071063"><ele>317.0</ele><time>2026-04-19T10:48:35.999Z</time></trkpt><trkpt lat="42.676836648768095" lon="13.730314825401939"><ele>316.8</ele><time>2026-04-19T10:48:36.999Z</time></trkpt><trkpt lat="42.676817524833105" lon="13.73023152045716"><ele>316.6</ele><time>2026-04-19T10:48:38.001Z</time></trkpt><trkpt lat="42.6767311555495" lon="13.730113454885364"><ele>316.40000000000003</ele><time>2026-04-19T10:48:40.001Z</time></trkpt><trkpt lat="42.676689533983755" lon="13.730012046129524"><ele>316.2</ele><time>2026-04-19T10:48:42.001Z</time></trkpt><trkpt lat="42.676625904873106" lon="13.730217595817985"><ele>316.0</ele><time>2026-04-19T10:48:45.001Z</time></trkpt><trkpt lat="42.67663363773006" lon="13.730323669777006"><ele>307.0</ele><time>2026-04-19T10:48:46.001Z</time></trkpt><trkpt lat="42.67666145702884" lon="13.730440420733142"><ele>307.0</ele><time>2026-04-19T10:48:47.001Z</time></trkpt><trkpt lat="42.67667855275728" lon="13.73055328624702"><ele>307.0</ele><time>2026-04-19T10:48:48.001Z</time></trkpt><trkpt lat="42.676695038129324" lon="13.73065683108166"><ele>307.0</ele><time>2026-04-19T10:48:49.001Z</time></trkpt><trkpt lat="42.676713071878844" lon="13.730754356127273"><ele>307.0</ele><time>2026-04-19T10:48:50.001Z</time></trkpt><trkpt lat="42.676733018447756" lon="13.730890384650158"><ele>307.0</ele><time>2026-04-19T10:48:52.001Z</time></trkpt></trkseg></trk></gpx>